<?xml version="1.0" encoding="UTF-8" standalone="no" ?>
<gpx xmlns="http://www.topografix.com/GPX/1/1" xmlns:xsi="http://www.w3.org/2001/XMLSchema-instance" xsi:schemaLocation="http://www.topografix.com/GPX/1/1 http://www.topografix.com/GPX/1/1/gpx.xsd" version="1.1" creator="VisuGPX - https://www.visugpx.com">
  <metadata>
    <name>St geoire en valdaine- st julien de raz</name>
  </metadata>
  <trk>
    <name><![CDATA[St geoire en valdaine- st julien de raz_1]]></name>
    <trkseg>
      <trkpt lat="45.45364" lon="5.626">
        <ele>499.4</ele>
        <time>2023-02-16T07:32:02Z</time>
      </trkpt>
      <trkpt lat="45.45395" lon="5.62609">
        <ele>498.9</ele>
        <time>2023-02-16T07:33:01Z</time>
      </trkpt>
      <trkpt lat="45.45397" lon="5.62608">
        <ele>504</ele>
        <time>2023-02-16T07:33:02Z</time>
      </trkpt>
      <trkpt lat="45.454" lon="5.62608">
        <ele>504</ele>
        <time>2023-02-16T07:33:04Z</time>
      </trkpt>
      <trkpt lat="45.45402" lon="5.62608">
        <ele>504</ele>
        <time>2023-02-16T07:33:05Z</time>
      </trkpt>
      <trkpt lat="45.45404" lon="5.62608">
        <ele>504</ele>
        <time>2023-02-16T07:33:06Z</time>
      </trkpt>
      <trkpt lat="45.45407" lon="5.62609">
        <ele>504</ele>
        <time>2023-02-16T07:33:07Z</time>
      </trkpt>
      <trkpt lat="45.45411" lon="5.62609">
        <ele>504</ele>
        <time>2023-02-16T07:33:08Z</time>
      </trkpt>
      <trkpt lat="45.45414" lon="5.6261">
        <ele>504</ele>
        <time>2023-02-16T07:33:09Z</time>
      </trkpt>
      <trkpt lat="45.45417" lon="5.62612">
        <ele>504</ele>
        <time>2023-02-16T07:33:10Z</time>
      </trkpt>
      <trkpt lat="45.4542" lon="5.62613">
        <ele>504</ele>
        <time>2023-02-16T07:33:11Z</time>
      </trkpt>
      <trkpt lat="45.45423" lon="5.62617">
        <ele>504</ele>
        <time>2023-02-16T07:33:12Z</time>
      </trkpt>
      <trkpt lat="45.45425" lon="5.6262">
        <ele>504</ele>
        <time>2023-02-16T07:33:13Z</time>
      </trkpt>
      <trkpt lat="45.45426" lon="5.62625">
        <ele>504</ele>
        <time>2023-02-16T07:33:14Z</time>
      </trkpt>
      <trkpt lat="45.45428" lon="5.6263">
        <ele>504</ele>
        <time>2023-02-16T07:33:15Z</time>
      </trkpt>
      <trkpt lat="45.45429" lon="5.62635">
        <ele>504</ele>
        <time>2023-02-16T07:33:16Z</time>
      </trkpt>
      <trkpt lat="45.45431" lon="5.6264">
        <ele>502</ele>
        <time>2023-02-16T07:33:17Z</time>
      </trkpt>
      <trkpt lat="45.45432" lon="5.62645">
        <ele>502</ele>
        <time>2023-02-16T07:33:18Z</time>
      </trkpt>
      <trkpt lat="45.45433" lon="5.6265">
        <ele>502</ele>
        <time>2023-02-16T07:33:19Z</time>
      </trkpt>
      <trkpt lat="45.45435" lon="5.62656">
        <ele>502</ele>
        <time>2023-02-16T07:33:20Z</time>
      </trkpt>
      <trkpt lat="45.45437" lon="5.62662">
        <ele>502</ele>
        <time>2023-02-16T07:33:21Z</time>
      </trkpt>
      <trkpt lat="45.45438" lon="5.62669">
        <ele>502</ele>
        <time>2023-02-16T07:33:22Z</time>
      </trkpt>
      <trkpt lat="45.45439" lon="5.62676">
        <ele>501</ele>
        <time>2023-02-16T07:33:23Z</time>
      </trkpt>
      <trkpt lat="45.4544" lon="5.62684">
        <ele>501</ele>
        <time>2023-02-16T07:33:24Z</time>
      </trkpt>
      <trkpt lat="45.45442" lon="5.62693">
        <ele>500</ele>
        <time>2023-02-16T07:33:25Z</time>
      </trkpt>
      <trkpt lat="45.45444" lon="5.62702">
        <ele>500</ele>
        <time>2023-02-16T07:33:26Z</time>
      </trkpt>
      <trkpt lat="45.45446" lon="5.62711">
        <ele>500</ele>
        <time>2023-02-16T07:33:27Z</time>
      </trkpt>
      <trkpt lat="45.45448" lon="5.62722">
        <ele>500</ele>
        <time>2023-02-16T07:33:28Z</time>
      </trkpt>
      <trkpt lat="45.45449" lon="5.62734">
        <ele>498</ele>
        <time>2023-02-16T07:33:29Z</time>
      </trkpt>
      <trkpt lat="45.45448" lon="5.62747">
        <ele>498</ele>
        <time>2023-02-16T07:33:30Z</time>
      </trkpt>
      <trkpt lat="45.45447" lon="5.6276">
        <ele>497</ele>
        <time>2023-02-16T07:33:31Z</time>
      </trkpt>
      <trkpt lat="45.45444" lon="5.62774">
        <ele>497</ele>
        <time>2023-02-16T07:33:32Z</time>
      </trkpt>
      <trkpt lat="45.45441" lon="5.62788">
        <ele>497</ele>
        <time>2023-02-16T07:33:33Z</time>
      </trkpt>
      <trkpt lat="45.45438" lon="5.62802">
        <ele>495</ele>
        <time>2023-02-16T07:33:34Z</time>
      </trkpt>
      <trkpt lat="45.45434" lon="5.62816">
        <ele>494</ele>
        <time>2023-02-16T07:33:35Z</time>
      </trkpt>
      <trkpt lat="45.4543" lon="5.6283">
        <ele>493</ele>
        <time>2023-02-16T07:33:36Z</time>
      </trkpt>
      <trkpt lat="45.45426" lon="5.62845">
        <ele>492</ele>
        <time>2023-02-16T07:33:37Z</time>
      </trkpt>
      <trkpt lat="45.45422" lon="5.62859">
        <ele>492</ele>
        <time>2023-02-16T07:33:38Z</time>
      </trkpt>
      <trkpt lat="45.45419" lon="5.62874">
        <ele>492</ele>
        <time>2023-02-16T07:33:39Z</time>
      </trkpt>
      <trkpt lat="45.45416" lon="5.62889">
        <ele>489</ele>
        <time>2023-02-16T07:33:40Z</time>
      </trkpt>
      <trkpt lat="45.45414" lon="5.62905">
        <ele>488</ele>
        <time>2023-02-16T07:33:41Z</time>
      </trkpt>
      <trkpt lat="45.45414" lon="5.62921">
        <ele>488</ele>
        <time>2023-02-16T07:33:42Z</time>
      </trkpt>
      <trkpt lat="45.45413" lon="5.62937">
        <ele>486</ele>
        <time>2023-02-16T07:33:43Z</time>
      </trkpt>
      <trkpt lat="45.4541" lon="5.62953">
        <ele>485</ele>
        <time>2023-02-16T07:33:44Z</time>
      </trkpt>
      <trkpt lat="45.45405" lon="5.62968">
        <ele>484</ele>
        <time>2023-02-16T07:33:45Z</time>
      </trkpt>
      <trkpt lat="45.45399" lon="5.62981">
        <ele>483</ele>
        <time>2023-02-16T07:33:46Z</time>
      </trkpt>
      <trkpt lat="45.45391" lon="5.62992">
        <ele>483</ele>
        <time>2023-02-16T07:33:47Z</time>
      </trkpt>
      <trkpt lat="45.45382" lon="5.63">
        <ele>482</ele>
        <time>2023-02-16T07:33:48Z</time>
      </trkpt>
      <trkpt lat="45.45372" lon="5.63002">
        <ele>481</ele>
        <time>2023-02-16T07:33:49Z</time>
      </trkpt>
      <trkpt lat="45.45361" lon="5.63001">
        <ele>480</ele>
        <time>2023-02-16T07:33:50Z</time>
      </trkpt>
      <trkpt lat="45.45351" lon="5.62995">
        <ele>480</ele>
        <time>2023-02-16T07:33:51Z</time>
      </trkpt>
      <trkpt lat="45.45341" lon="5.62988">
        <ele>479</ele>
        <time>2023-02-16T07:33:52Z</time>
      </trkpt>
      <trkpt lat="45.4533" lon="5.62981">
        <ele>477</ele>
        <time>2023-02-16T07:33:53Z</time>
      </trkpt>
      <trkpt lat="45.4532" lon="5.62976">
        <ele>475</ele>
        <time>2023-02-16T07:33:54Z</time>
      </trkpt>
      <trkpt lat="45.45311" lon="5.62972">
        <ele>474</ele>
        <time>2023-02-16T07:33:55Z</time>
      </trkpt>
      <trkpt lat="45.45304" lon="5.62972">
        <ele>474</ele>
        <time>2023-02-16T07:33:56Z</time>
      </trkpt>
      <trkpt lat="45.45297" lon="5.62976">
        <ele>473</ele>
        <time>2023-02-16T07:33:57Z</time>
      </trkpt>
      <trkpt lat="45.45293" lon="5.62985">
        <ele>473</ele>
        <time>2023-02-16T07:33:58Z</time>
      </trkpt>
      <trkpt lat="45.45293" lon="5.62995">
        <ele>472</ele>
        <time>2023-02-16T07:33:59Z</time>
      </trkpt>
      <trkpt lat="45.45297" lon="5.63005">
        <ele>472</ele>
        <time>2023-02-16T07:34:00Z</time>
      </trkpt>
      <trkpt lat="45.45303" lon="5.63013">
        <ele>471</ele>
        <time>2023-02-16T07:34:01Z</time>
      </trkpt>
      <trkpt lat="45.45311" lon="5.63019">
        <ele>471</ele>
        <time>2023-02-16T07:34:02Z</time>
      </trkpt>
      <trkpt lat="45.45319" lon="5.63026">
        <ele>469</ele>
        <time>2023-02-16T07:34:03Z</time>
      </trkpt>
      <trkpt lat="45.45327" lon="5.63035">
        <ele>468</ele>
        <time>2023-02-16T07:34:04Z</time>
      </trkpt>
      <trkpt lat="45.45334" lon="5.63046">
        <ele>467</ele>
        <time>2023-02-16T07:34:05Z</time>
      </trkpt>
      <trkpt lat="45.4534" lon="5.63057">
        <ele>467</ele>
        <time>2023-02-16T07:34:06Z</time>
      </trkpt>
      <trkpt lat="45.45346" lon="5.63069">
        <ele>467</ele>
        <time>2023-02-16T07:34:07Z</time>
      </trkpt>
      <trkpt lat="45.45353" lon="5.63079">
        <ele>464</ele>
        <time>2023-02-16T07:34:08Z</time>
      </trkpt>
      <trkpt lat="45.45362" lon="5.63088">
        <ele>463</ele>
        <time>2023-02-16T07:34:09Z</time>
      </trkpt>
      <trkpt lat="45.45372" lon="5.63094">
        <ele>462</ele>
        <time>2023-02-16T07:34:10Z</time>
      </trkpt>
      <trkpt lat="45.45383" lon="5.63099">
        <ele>461</ele>
        <time>2023-02-16T07:34:11Z</time>
      </trkpt>
      <trkpt lat="45.45393" lon="5.63105">
        <ele>461</ele>
        <time>2023-02-16T07:34:12Z</time>
      </trkpt>
      <trkpt lat="45.45403" lon="5.63111">
        <ele>460</ele>
        <time>2023-02-16T07:34:13Z</time>
      </trkpt>
      <trkpt lat="45.45413" lon="5.63118">
        <ele>459</ele>
        <time>2023-02-16T07:34:14Z</time>
      </trkpt>
      <trkpt lat="45.45423" lon="5.63124">
        <ele>458</ele>
        <time>2023-02-16T07:34:15Z</time>
      </trkpt>
      <trkpt lat="45.45431" lon="5.6313">
        <ele>457</ele>
        <time>2023-02-16T07:34:16Z</time>
      </trkpt>
      <trkpt lat="45.45438" lon="5.63135">
        <ele>457</ele>
        <time>2023-02-16T07:34:17Z</time>
      </trkpt>
      <trkpt lat="45.45444" lon="5.6314">
        <ele>456</ele>
        <time>2023-02-16T07:34:18Z</time>
      </trkpt>
      <trkpt lat="45.45451" lon="5.63144">
        <ele>455</ele>
        <time>2023-02-16T07:34:19Z</time>
      </trkpt>
      <trkpt lat="45.45457" lon="5.63146">
        <ele>455</ele>
        <time>2023-02-16T07:34:20Z</time>
      </trkpt>
      <trkpt lat="45.45464" lon="5.63147">
        <ele>455</ele>
        <time>2023-02-16T07:34:21Z</time>
      </trkpt>
      <trkpt lat="45.45471" lon="5.63147">
        <ele>455</ele>
        <time>2023-02-16T07:34:22Z</time>
      </trkpt>
      <trkpt lat="45.45477" lon="5.63149">
        <ele>455</ele>
        <time>2023-02-16T07:34:23Z</time>
      </trkpt>
      <trkpt lat="45.45484" lon="5.63151">
        <ele>455</ele>
        <time>2023-02-16T07:34:24Z</time>
      </trkpt>
      <trkpt lat="45.4549" lon="5.63156">
        <ele>455</ele>
        <time>2023-02-16T07:34:25Z</time>
      </trkpt>
      <trkpt lat="45.45493" lon="5.63163">
        <ele>455</ele>
        <time>2023-02-16T07:34:26Z</time>
      </trkpt>
      <trkpt lat="45.45494" lon="5.63173">
        <ele>455</ele>
        <time>2023-02-16T07:34:27Z</time>
      </trkpt>
      <trkpt lat="45.45494" lon="5.63183">
        <ele>455</ele>
        <time>2023-02-16T07:34:28Z</time>
      </trkpt>
      <trkpt lat="45.45494" lon="5.63193">
        <ele>455</ele>
        <time>2023-02-16T07:34:29Z</time>
      </trkpt>
      <trkpt lat="45.45494" lon="5.63203">
        <ele>455</ele>
        <time>2023-02-16T07:34:30Z</time>
      </trkpt>
      <trkpt lat="45.45494" lon="5.63214">
        <ele>455</ele>
        <time>2023-02-16T07:34:31Z</time>
      </trkpt>
      <trkpt lat="45.45494" lon="5.63224">
        <ele>455</ele>
        <time>2023-02-16T07:34:32Z</time>
      </trkpt>
      <trkpt lat="45.45495" lon="5.63235">
        <ele>455</ele>
        <time>2023-02-16T07:34:33Z</time>
      </trkpt>
      <trkpt lat="45.45495" lon="5.63245">
        <ele>454</ele>
        <time>2023-02-16T07:34:34Z</time>
      </trkpt>
      <trkpt lat="45.45497" lon="5.63256">
        <ele>454</ele>
        <time>2023-02-16T07:34:35Z</time>
      </trkpt>
      <trkpt lat="45.45499" lon="5.63267">
        <ele>454</ele>
        <time>2023-02-16T07:34:36Z</time>
      </trkpt>
      <trkpt lat="45.45503" lon="5.63278">
        <ele>454</ele>
        <time>2023-02-16T07:34:37Z</time>
      </trkpt>
      <trkpt lat="45.45507" lon="5.63289">
        <ele>454</ele>
        <time>2023-02-16T07:34:38Z</time>
      </trkpt>
      <trkpt lat="45.45511" lon="5.633">
        <ele>452</ele>
        <time>2023-02-16T07:34:39Z</time>
      </trkpt>
      <trkpt lat="45.45516" lon="5.63312">
        <ele>451</ele>
        <time>2023-02-16T07:34:40Z</time>
      </trkpt>
      <trkpt lat="45.45522" lon="5.63323">
        <ele>450</ele>
        <time>2023-02-16T07:34:41Z</time>
      </trkpt>
      <trkpt lat="45.45529" lon="5.63334">
        <ele>449</ele>
        <time>2023-02-16T07:34:42Z</time>
      </trkpt>
      <trkpt lat="45.45536" lon="5.63344">
        <ele>449</ele>
        <time>2023-02-16T07:34:43Z</time>
      </trkpt>
      <trkpt lat="45.45544" lon="5.63354">
        <ele>448</ele>
        <time>2023-02-16T07:34:44Z</time>
      </trkpt>
      <trkpt lat="45.45552" lon="5.63364">
        <ele>447</ele>
        <time>2023-02-16T07:34:45Z</time>
      </trkpt>
      <trkpt lat="45.45559" lon="5.63374">
        <ele>446</ele>
        <time>2023-02-16T07:34:46Z</time>
      </trkpt>
      <trkpt lat="45.45567" lon="5.63384">
        <ele>445</ele>
        <time>2023-02-16T07:34:47Z</time>
      </trkpt>
      <trkpt lat="45.45574" lon="5.63395">
        <ele>445</ele>
        <time>2023-02-16T07:34:48Z</time>
      </trkpt>
      <trkpt lat="45.45582" lon="5.63406">
        <ele>444</ele>
        <time>2023-02-16T07:34:49Z</time>
      </trkpt>
      <trkpt lat="45.45589" lon="5.63417">
        <ele>443</ele>
        <time>2023-02-16T07:34:50Z</time>
      </trkpt>
      <trkpt lat="45.45597" lon="5.63428">
        <ele>443</ele>
        <time>2023-02-16T07:34:51Z</time>
      </trkpt>
      <trkpt lat="45.45603" lon="5.63439">
        <ele>443</ele>
        <time>2023-02-16T07:34:52Z</time>
      </trkpt>
      <trkpt lat="45.4561" lon="5.63451">
        <ele>443</ele>
        <time>2023-02-16T07:34:53Z</time>
      </trkpt>
      <trkpt lat="45.45616" lon="5.63462">
        <ele>442</ele>
        <time>2023-02-16T07:34:54Z</time>
      </trkpt>
      <trkpt lat="45.45622" lon="5.63474">
        <ele>442</ele>
        <time>2023-02-16T07:34:55Z</time>
      </trkpt>
      <trkpt lat="45.45626" lon="5.63486">
        <ele>442</ele>
        <time>2023-02-16T07:34:56Z</time>
      </trkpt>
      <trkpt lat="45.45631" lon="5.63498">
        <ele>442</ele>
        <time>2023-02-16T07:34:57Z</time>
      </trkpt>
      <trkpt lat="45.45635" lon="5.63509">
        <ele>442</ele>
        <time>2023-02-16T07:34:58Z</time>
      </trkpt>
      <trkpt lat="45.4564" lon="5.63521">
        <ele>441</ele>
        <time>2023-02-16T07:34:59Z</time>
      </trkpt>
      <trkpt lat="45.45641" lon="5.63533">
        <ele>441</ele>
        <time>2023-02-16T07:35:00Z</time>
      </trkpt>
      <trkpt lat="45.4564" lon="5.63546">
        <ele>441</ele>
        <time>2023-02-16T07:35:01Z</time>
      </trkpt>
      <trkpt lat="45.45637" lon="5.63558">
        <ele>440</ele>
        <time>2023-02-16T07:35:02Z</time>
      </trkpt>
      <trkpt lat="45.45632" lon="5.63569">
        <ele>440</ele>
        <time>2023-02-16T07:35:03Z</time>
      </trkpt>
      <trkpt lat="45.45628" lon="5.63581">
        <ele>438</ele>
        <time>2023-02-16T07:35:04Z</time>
      </trkpt>
      <trkpt lat="45.45623" lon="5.63594">
        <ele>437</ele>
        <time>2023-02-16T07:35:05Z</time>
      </trkpt>
      <trkpt lat="45.4562" lon="5.63607">
        <ele>436</ele>
        <time>2023-02-16T07:35:06Z</time>
      </trkpt>
      <trkpt lat="45.45615" lon="5.63619">
        <ele>436</ele>
        <time>2023-02-16T07:35:07Z</time>
      </trkpt>
      <trkpt lat="45.45611" lon="5.63631">
        <ele>436</ele>
        <time>2023-02-16T07:35:08Z</time>
      </trkpt>
      <trkpt lat="45.45607" lon="5.63642">
        <ele>434</ele>
        <time>2023-02-16T07:35:09Z</time>
      </trkpt>
      <trkpt lat="45.45602" lon="5.63654">
        <ele>433</ele>
        <time>2023-02-16T07:35:10Z</time>
      </trkpt>
      <trkpt lat="45.45597" lon="5.63665">
        <ele>432</ele>
        <time>2023-02-16T07:35:11Z</time>
      </trkpt>
      <trkpt lat="45.45592" lon="5.63675">
        <ele>431</ele>
        <time>2023-02-16T07:35:12Z</time>
      </trkpt>
      <trkpt lat="45.45588" lon="5.63688">
        <ele>430</ele>
        <time>2023-02-16T07:35:13Z</time>
      </trkpt>
      <trkpt lat="45.45587" lon="5.63701">
        <ele>430</ele>
        <time>2023-02-16T07:35:14Z</time>
      </trkpt>
      <trkpt lat="45.45588" lon="5.63714">
        <ele>428</ele>
        <time>2023-02-16T07:35:15Z</time>
      </trkpt>
      <trkpt lat="45.45589" lon="5.63727">
        <ele>428</ele>
        <time>2023-02-16T07:35:16Z</time>
      </trkpt>
      <trkpt lat="45.45588" lon="5.63737">
        <ele>428</ele>
        <time>2023-02-16T07:35:17Z</time>
      </trkpt>
      <trkpt lat="45.45586" lon="5.63745">
        <ele>428</ele>
        <time>2023-02-16T07:35:18Z</time>
      </trkpt>
      <trkpt lat="45.4558" lon="5.63752">
        <ele>428</ele>
        <time>2023-02-16T07:35:19Z</time>
      </trkpt>
      <trkpt lat="45.45574" lon="5.63756">
        <ele>428</ele>
        <time>2023-02-16T07:35:20Z</time>
      </trkpt>
      <trkpt lat="45.45566" lon="5.63761">
        <ele>428</ele>
        <time>2023-02-16T07:35:21Z</time>
      </trkpt>
      <trkpt lat="45.45559" lon="5.63766">
        <ele>427</ele>
        <time>2023-02-16T07:35:22Z</time>
      </trkpt>
      <trkpt lat="45.45551" lon="5.63772">
        <ele>427</ele>
        <time>2023-02-16T07:35:23Z</time>
      </trkpt>
      <trkpt lat="45.45544" lon="5.63777">
        <ele>426</ele>
        <time>2023-02-16T07:35:24Z</time>
      </trkpt>
      <trkpt lat="45.45535" lon="5.6378">
        <ele>425</ele>
        <time>2023-02-16T07:35:25Z</time>
      </trkpt>
      <trkpt lat="45.45525" lon="5.63778">
        <ele>425</ele>
        <time>2023-02-16T07:35:26Z</time>
      </trkpt>
      <trkpt lat="45.45516" lon="5.63772">
        <ele>423</ele>
        <time>2023-02-16T07:35:27Z</time>
      </trkpt>
      <trkpt lat="45.45509" lon="5.63761">
        <ele>421</ele>
        <time>2023-02-16T07:35:28Z</time>
      </trkpt>
      <trkpt lat="45.45503" lon="5.63748">
        <ele>420</ele>
        <time>2023-02-16T07:35:29Z</time>
      </trkpt>
      <trkpt lat="45.45497" lon="5.63736">
        <ele>418</ele>
        <time>2023-02-16T07:35:30Z</time>
      </trkpt>
      <trkpt lat="45.4549" lon="5.63725">
        <ele>418</ele>
        <time>2023-02-16T07:35:31Z</time>
      </trkpt>
      <trkpt lat="45.45483" lon="5.63716">
        <ele>417</ele>
        <time>2023-02-16T07:35:32Z</time>
      </trkpt>
      <trkpt lat="45.45475" lon="5.63712">
        <ele>417</ele>
        <time>2023-02-16T07:35:33Z</time>
      </trkpt>
      <trkpt lat="45.45468" lon="5.63713">
        <ele>415</ele>
        <time>2023-02-16T07:35:34Z</time>
      </trkpt>
      <trkpt lat="45.45462" lon="5.63718">
        <ele>415</ele>
        <time>2023-02-16T07:35:35Z</time>
      </trkpt>
      <trkpt lat="45.45458" lon="5.63727">
        <ele>415</ele>
        <time>2023-02-16T07:35:36Z</time>
      </trkpt>
      <trkpt lat="45.45456" lon="5.63739">
        <ele>415</ele>
        <time>2023-02-16T07:35:37Z</time>
      </trkpt>
      <trkpt lat="45.45455" lon="5.63751">
        <ele>413</ele>
        <time>2023-02-16T07:35:38Z</time>
      </trkpt>
      <trkpt lat="45.45453" lon="5.63764">
        <ele>412</ele>
        <time>2023-02-16T07:35:39Z</time>
      </trkpt>
      <trkpt lat="45.4545" lon="5.63777">
        <ele>412</ele>
        <time>2023-02-16T07:35:40Z</time>
      </trkpt>
      <trkpt lat="45.45446" lon="5.6379">
        <ele>411</ele>
        <time>2023-02-16T07:35:41Z</time>
      </trkpt>
      <trkpt lat="45.45442" lon="5.63802">
        <ele>411</ele>
        <time>2023-02-16T07:35:42Z</time>
      </trkpt>
      <trkpt lat="45.45438" lon="5.63812">
        <ele>410</ele>
        <time>2023-02-16T07:35:43Z</time>
      </trkpt>
      <trkpt lat="45.45434" lon="5.6382">
        <ele>410</ele>
        <time>2023-02-16T07:35:44Z</time>
      </trkpt>
      <trkpt lat="45.45431" lon="5.63826">
        <ele>409</ele>
        <time>2023-02-16T07:35:45Z</time>
      </trkpt>
      <trkpt lat="45.4543" lon="5.6383">
        <ele>408</ele>
        <time>2023-02-16T07:35:46Z</time>
      </trkpt>
      <trkpt lat="45.45429" lon="5.63833">
        <ele>408</ele>
        <time>2023-02-16T07:35:47Z</time>
      </trkpt>
      <trkpt lat="45.45428" lon="5.63836">
        <ele>408</ele>
        <time>2023-02-16T07:35:48Z</time>
      </trkpt>
      <trkpt lat="45.45426" lon="5.63839">
        <ele>408</ele>
        <time>2023-02-16T07:35:49Z</time>
      </trkpt>
      <trkpt lat="45.45424" lon="5.63843">
        <ele>408</ele>
        <time>2023-02-16T07:35:50Z</time>
      </trkpt>
      <trkpt lat="45.45422" lon="5.63849">
        <ele>408</ele>
        <time>2023-02-16T07:35:51Z</time>
      </trkpt>
      <trkpt lat="45.45419" lon="5.63855">
        <ele>408</ele>
        <time>2023-02-16T07:35:52Z</time>
      </trkpt>
      <trkpt lat="45.45417" lon="5.63863">
        <ele>408</ele>
        <time>2023-02-16T07:35:53Z</time>
      </trkpt>
      <trkpt lat="45.45414" lon="5.63871">
        <ele>407</ele>
        <time>2023-02-16T07:35:54Z</time>
      </trkpt>
      <trkpt lat="45.4541" lon="5.6388">
        <ele>406</ele>
        <time>2023-02-16T07:35:55Z</time>
      </trkpt>
      <trkpt lat="45.45407" lon="5.6389">
        <ele>406</ele>
        <time>2023-02-16T07:35:56Z</time>
      </trkpt>
      <trkpt lat="45.45404" lon="5.639">
        <ele>406</ele>
        <time>2023-02-16T07:35:57Z</time>
      </trkpt>
      <trkpt lat="45.45401" lon="5.6391">
        <ele>406</ele>
        <time>2023-02-16T07:35:58Z</time>
      </trkpt>
      <trkpt lat="45.45398" lon="5.63919">
        <ele>406</ele>
        <time>2023-02-16T07:35:59Z</time>
      </trkpt>
      <trkpt lat="45.45393" lon="5.63929">
        <ele>406</ele>
        <time>2023-02-16T07:36:00Z</time>
      </trkpt>
      <trkpt lat="45.45389" lon="5.63938">
        <ele>406</ele>
        <time>2023-02-16T07:36:01Z</time>
      </trkpt>
      <trkpt lat="45.45384" lon="5.63945">
        <ele>406</ele>
        <time>2023-02-16T07:36:02Z</time>
      </trkpt>
      <trkpt lat="45.45378" lon="5.63952">
        <ele>406</ele>
        <time>2023-02-16T07:36:03Z</time>
      </trkpt>
      <trkpt lat="45.45371" lon="5.63958">
        <ele>406</ele>
        <time>2023-02-16T07:36:04Z</time>
      </trkpt>
      <trkpt lat="45.45365" lon="5.63962">
        <ele>406</ele>
        <time>2023-02-16T07:36:05Z</time>
      </trkpt>
      <trkpt lat="45.45358" lon="5.63966">
        <ele>405</ele>
        <time>2023-02-16T07:36:06Z</time>
      </trkpt>
      <trkpt lat="45.45351" lon="5.63969">
        <ele>405</ele>
        <time>2023-02-16T07:36:07Z</time>
      </trkpt>
      <trkpt lat="45.45344" lon="5.63972">
        <ele>405</ele>
        <time>2023-02-16T07:36:08Z</time>
      </trkpt>
      <trkpt lat="45.45338" lon="5.63976">
        <ele>406</ele>
        <time>2023-02-16T07:36:09Z</time>
      </trkpt>
      <trkpt lat="45.45332" lon="5.6398">
        <ele>406</ele>
        <time>2023-02-16T07:36:10Z</time>
      </trkpt>
      <trkpt lat="45.45327" lon="5.63983">
        <ele>406</ele>
        <time>2023-02-16T07:36:11Z</time>
      </trkpt>
      <trkpt lat="45.45322" lon="5.63987">
        <ele>406</ele>
        <time>2023-02-16T07:36:12Z</time>
      </trkpt>
      <trkpt lat="45.45317" lon="5.63989">
        <ele>406</ele>
        <time>2023-02-16T07:36:13Z</time>
      </trkpt>
      <trkpt lat="45.45312" lon="5.63988">
        <ele>406</ele>
        <time>2023-02-16T07:36:14Z</time>
      </trkpt>
      <trkpt lat="45.45308" lon="5.63983">
        <ele>406</ele>
        <time>2023-02-16T07:36:15Z</time>
      </trkpt>
      <trkpt lat="45.45304" lon="5.63977">
        <ele>406</ele>
        <time>2023-02-16T07:36:16Z</time>
      </trkpt>
      <trkpt lat="45.45299" lon="5.63971">
        <ele>406</ele>
        <time>2023-02-16T07:36:17Z</time>
      </trkpt>
      <trkpt lat="45.45294" lon="5.63964">
        <ele>406</ele>
        <time>2023-02-16T07:36:18Z</time>
      </trkpt>
      <trkpt lat="45.45289" lon="5.63956">
        <ele>406</ele>
        <time>2023-02-16T07:36:19Z</time>
      </trkpt>
      <trkpt lat="45.45284" lon="5.63948">
        <ele>406</ele>
        <time>2023-02-16T07:36:20Z</time>
      </trkpt>
      <trkpt lat="45.45279" lon="5.63941">
        <ele>406</ele>
        <time>2023-02-16T07:36:21Z</time>
      </trkpt>
      <trkpt lat="45.45274" lon="5.63933">
        <ele>406</ele>
        <time>2023-02-16T07:36:22Z</time>
      </trkpt>
      <trkpt lat="45.45269" lon="5.63926">
        <ele>405</ele>
        <time>2023-02-16T07:36:23Z</time>
      </trkpt>
      <trkpt lat="45.45264" lon="5.6392">
        <ele>405</ele>
        <time>2023-02-16T07:36:24Z</time>
      </trkpt>
      <trkpt lat="45.45258" lon="5.63915">
        <ele>405</ele>
        <time>2023-02-16T07:36:25Z</time>
      </trkpt>
      <trkpt lat="45.45253" lon="5.63911">
        <ele>405</ele>
        <time>2023-02-16T07:36:26Z</time>
      </trkpt>
      <trkpt lat="45.45249" lon="5.63906">
        <ele>405</ele>
        <time>2023-02-16T07:36:27Z</time>
      </trkpt>
      <trkpt lat="45.45247" lon="5.63901">
        <ele>405</ele>
        <time>2023-02-16T07:36:28Z</time>
      </trkpt>
      <trkpt lat="45.45245" lon="5.63895">
        <ele>405</ele>
        <time>2023-02-16T07:36:29Z</time>
      </trkpt>
      <trkpt lat="45.45243" lon="5.63889">
        <ele>405</ele>
        <time>2023-02-16T07:36:30Z</time>
      </trkpt>
      <trkpt lat="45.45241" lon="5.63883">
        <ele>405</ele>
        <time>2023-02-16T07:36:31Z</time>
      </trkpt>
      <trkpt lat="45.45237" lon="5.63879">
        <ele>405</ele>
        <time>2023-02-16T07:36:32Z</time>
      </trkpt>
      <trkpt lat="45.45233" lon="5.63877">
        <ele>405</ele>
        <time>2023-02-16T07:36:33Z</time>
      </trkpt>
      <trkpt lat="45.45228" lon="5.63874">
        <ele>405</ele>
        <time>2023-02-16T07:36:34Z</time>
      </trkpt>
      <trkpt lat="45.45224" lon="5.63871">
        <ele>404</ele>
        <time>2023-02-16T07:36:35Z</time>
      </trkpt>
      <trkpt lat="45.45219" lon="5.63869">
        <ele>404</ele>
        <time>2023-02-16T07:36:36Z</time>
      </trkpt>
      <trkpt lat="45.45214" lon="5.63868">
        <ele>404</ele>
        <time>2023-02-16T07:36:37Z</time>
      </trkpt>
      <trkpt lat="45.45208" lon="5.63867">
        <ele>404</ele>
        <time>2023-02-16T07:36:38Z</time>
      </trkpt>
      <trkpt lat="45.45203" lon="5.63866">
        <ele>404</ele>
        <time>2023-02-16T07:36:39Z</time>
      </trkpt>
      <trkpt lat="45.45197" lon="5.63865">
        <ele>405</ele>
        <time>2023-02-16T07:36:40Z</time>
      </trkpt>
      <trkpt lat="45.45191" lon="5.63863">
        <ele>405</ele>
        <time>2023-02-16T07:36:41Z</time>
      </trkpt>
      <trkpt lat="45.45186" lon="5.63861">
        <ele>405</ele>
        <time>2023-02-16T07:36:42Z</time>
      </trkpt>
      <trkpt lat="45.4518" lon="5.6386">
        <ele>405</ele>
        <time>2023-02-16T07:36:43Z</time>
      </trkpt>
      <trkpt lat="45.45175" lon="5.63859">
        <ele>405</ele>
        <time>2023-02-16T07:36:44Z</time>
      </trkpt>
      <trkpt lat="45.45169" lon="5.63858">
        <ele>405</ele>
        <time>2023-02-16T07:36:45Z</time>
      </trkpt>
      <trkpt lat="45.45164" lon="5.63856">
        <ele>405</ele>
        <time>2023-02-16T07:36:46Z</time>
      </trkpt>
      <trkpt lat="45.45159" lon="5.63854">
        <ele>405</ele>
        <time>2023-02-16T07:36:47Z</time>
      </trkpt>
      <trkpt lat="45.45155" lon="5.63849">
        <ele>405</ele>
        <time>2023-02-16T07:36:48Z</time>
      </trkpt>
      <trkpt lat="45.45152" lon="5.63844">
        <ele>405</ele>
        <time>2023-02-16T07:36:49Z</time>
      </trkpt>
      <trkpt lat="45.45149" lon="5.63839">
        <ele>405</ele>
        <time>2023-02-16T07:36:50Z</time>
      </trkpt>
      <trkpt lat="45.45145" lon="5.63835">
        <ele>405</ele>
        <time>2023-02-16T07:36:51Z</time>
      </trkpt>
      <trkpt lat="45.45141" lon="5.63832">
        <ele>405</ele>
        <time>2023-02-16T07:36:52Z</time>
      </trkpt>
      <trkpt lat="45.45137" lon="5.63828">
        <ele>406</ele>
        <time>2023-02-16T07:36:53Z</time>
      </trkpt>
      <trkpt lat="45.45133" lon="5.63823">
        <ele>406</ele>
        <time>2023-02-16T07:36:54Z</time>
      </trkpt>
      <trkpt lat="45.4513" lon="5.63818">
        <ele>406</ele>
        <time>2023-02-16T07:36:55Z</time>
      </trkpt>
      <trkpt lat="45.45128" lon="5.63812">
        <ele>406</ele>
        <time>2023-02-16T07:36:56Z</time>
      </trkpt>
      <trkpt lat="45.45127" lon="5.63805">
        <ele>406</ele>
        <time>2023-02-16T07:36:57Z</time>
      </trkpt>
      <trkpt lat="45.45127" lon="5.63799">
        <ele>406</ele>
        <time>2023-02-16T07:36:58Z</time>
      </trkpt>
      <trkpt lat="45.45126" lon="5.63793">
        <ele>406</ele>
        <time>2023-02-16T07:36:59Z</time>
      </trkpt>
      <trkpt lat="45.45124" lon="5.63787">
        <ele>406</ele>
        <time>2023-02-16T07:37:00Z</time>
      </trkpt>
      <trkpt lat="45.45122" lon="5.63782">
        <ele>406</ele>
        <time>2023-02-16T07:37:01Z</time>
      </trkpt>
      <trkpt lat="45.45119" lon="5.63778">
        <ele>406</ele>
        <time>2023-02-16T07:37:02Z</time>
      </trkpt>
      <trkpt lat="45.45115" lon="5.63774">
        <ele>406</ele>
        <time>2023-02-16T07:37:03Z</time>
      </trkpt>
      <trkpt lat="45.45111" lon="5.6377">
        <ele>406</ele>
        <time>2023-02-16T07:37:04Z</time>
      </trkpt>
      <trkpt lat="45.45107" lon="5.63769">
        <ele>406</ele>
        <time>2023-02-16T07:37:05Z</time>
      </trkpt>
      <trkpt lat="45.45102" lon="5.63767">
        <ele>406</ele>
        <time>2023-02-16T07:37:06Z</time>
      </trkpt>
      <trkpt lat="45.45099" lon="5.63762">
        <ele>406</ele>
        <time>2023-02-16T07:37:07Z</time>
      </trkpt>
      <trkpt lat="45.45097" lon="5.63756">
        <ele>406</ele>
        <time>2023-02-16T07:37:08Z</time>
      </trkpt>
      <trkpt lat="45.45096" lon="5.6375">
        <ele>407</ele>
        <time>2023-02-16T07:37:09Z</time>
      </trkpt>
      <trkpt lat="45.45096" lon="5.63743">
        <ele>407</ele>
        <time>2023-02-16T07:37:10Z</time>
      </trkpt>
      <trkpt lat="45.45098" lon="5.63732">
        <ele>407</ele>
        <time>2023-02-16T07:37:11Z</time>
      </trkpt>
      <trkpt lat="45.451" lon="5.63726">
        <ele>407</ele>
        <time>2023-02-16T07:37:13Z</time>
      </trkpt>
      <trkpt lat="45.45102" lon="5.6372">
        <ele>407</ele>
        <time>2023-02-16T07:37:14Z</time>
      </trkpt>
      <trkpt lat="45.45104" lon="5.63714">
        <ele>407</ele>
        <time>2023-02-16T07:37:15Z</time>
      </trkpt>
      <trkpt lat="45.45107" lon="5.63709">
        <ele>407</ele>
        <time>2023-02-16T07:37:16Z</time>
      </trkpt>
      <trkpt lat="45.45109" lon="5.63703">
        <ele>408</ele>
        <time>2023-02-16T07:37:17Z</time>
      </trkpt>
      <trkpt lat="45.45112" lon="5.63698">
        <ele>408</ele>
        <time>2023-02-16T07:37:18Z</time>
      </trkpt>
      <trkpt lat="45.45115" lon="5.63694">
        <ele>408</ele>
        <time>2023-02-16T07:37:19Z</time>
      </trkpt>
      <trkpt lat="45.45119" lon="5.63689">
        <ele>408</ele>
        <time>2023-02-16T07:37:20Z</time>
      </trkpt>
      <trkpt lat="45.45122" lon="5.63684">
        <ele>408</ele>
        <time>2023-02-16T07:37:21Z</time>
      </trkpt>
      <trkpt lat="45.45124" lon="5.63679">
        <ele>408</ele>
        <time>2023-02-16T07:37:22Z</time>
      </trkpt>
      <trkpt lat="45.45124" lon="5.63673">
        <ele>408</ele>
        <time>2023-02-16T07:37:23Z</time>
      </trkpt>
      <trkpt lat="45.45125" lon="5.63668">
        <ele>407</ele>
        <time>2023-02-16T07:37:24Z</time>
      </trkpt>
      <trkpt lat="45.45124" lon="5.63661">
        <ele>407</ele>
        <time>2023-02-16T07:37:25Z</time>
      </trkpt>
      <trkpt lat="45.45123" lon="5.63655">
        <ele>408</ele>
        <time>2023-02-16T07:37:26Z</time>
      </trkpt>
      <trkpt lat="45.45122" lon="5.63649">
        <ele>408</ele>
        <time>2023-02-16T07:37:27Z</time>
      </trkpt>
      <trkpt lat="45.4512" lon="5.63644">
        <ele>408</ele>
        <time>2023-02-16T07:37:28Z</time>
      </trkpt>
      <trkpt lat="45.45118" lon="5.63638">
        <ele>408</ele>
        <time>2023-02-16T07:37:29Z</time>
      </trkpt>
      <trkpt lat="45.45115" lon="5.63634">
        <ele>408</ele>
        <time>2023-02-16T07:37:30Z</time>
      </trkpt>
      <trkpt lat="45.45113" lon="5.63633">
        <ele>408</ele>
        <time>2023-02-16T07:37:31Z</time>
      </trkpt>
      <trkpt lat="45.4511" lon="5.63633">
        <ele>408</ele>
        <time>2023-02-16T07:37:32Z</time>
      </trkpt>
      <trkpt lat="45.45108" lon="5.63634">
        <ele>409</ele>
        <time>2023-02-16T07:37:33Z</time>
      </trkpt>
      <trkpt lat="45.45106" lon="5.63635">
        <ele>409</ele>
        <time>2023-02-16T07:37:34Z</time>
      </trkpt>
      <trkpt lat="45.45104" lon="5.63637">
        <ele>409</ele>
        <time>2023-02-16T07:37:36Z</time>
      </trkpt>
      <trkpt lat="45.45103" lon="5.63636">
        <ele>408</ele>
        <time>2023-02-16T07:37:42Z</time>
      </trkpt>
      <trkpt lat="45.45109" lon="5.63633">
        <ele>408</ele>
        <time>2023-02-16T07:37:45Z</time>
      </trkpt>
      <trkpt lat="45.4511" lon="5.63631">
        <ele>408</ele>
        <time>2023-02-16T07:37:46Z</time>
      </trkpt>
      <trkpt lat="45.4511" lon="5.63628">
        <ele>408</ele>
        <time>2023-02-16T07:37:47Z</time>
      </trkpt>
      <trkpt lat="45.45108" lon="5.63626">
        <ele>408</ele>
        <time>2023-02-16T07:37:48Z</time>
      </trkpt>
      <trkpt lat="45.45106" lon="5.63623">
        <ele>408</ele>
        <time>2023-02-16T07:37:49Z</time>
      </trkpt>
      <trkpt lat="45.45103" lon="5.6362">
        <ele>408</ele>
        <time>2023-02-16T07:37:50Z</time>
      </trkpt>
      <trkpt lat="45.45101" lon="5.63616">
        <ele>408</ele>
        <time>2023-02-16T07:37:51Z</time>
      </trkpt>
      <trkpt lat="45.45099" lon="5.63612">
        <ele>408</ele>
        <time>2023-02-16T07:37:52Z</time>
      </trkpt>
      <trkpt lat="45.45096" lon="5.63608">
        <ele>408</ele>
        <time>2023-02-16T07:37:53Z</time>
      </trkpt>
      <trkpt lat="45.45094" lon="5.63604">
        <ele>408</ele>
        <time>2023-02-16T07:37:54Z</time>
      </trkpt>
      <trkpt lat="45.45091" lon="5.636">
        <ele>408</ele>
        <time>2023-02-16T07:37:55Z</time>
      </trkpt>
      <trkpt lat="45.45088" lon="5.63598">
        <ele>408</ele>
        <time>2023-02-16T07:37:56Z</time>
      </trkpt>
      <trkpt lat="45.45085" lon="5.63594">
        <ele>408</ele>
        <time>2023-02-16T07:37:57Z</time>
      </trkpt>
      <trkpt lat="45.45082" lon="5.63592">
        <ele>408</ele>
        <time>2023-02-16T07:37:58Z</time>
      </trkpt>
      <trkpt lat="45.45079" lon="5.63589">
        <ele>408</ele>
        <time>2023-02-16T07:37:59Z</time>
      </trkpt>
      <trkpt lat="45.45076" lon="5.63586">
        <ele>408</ele>
        <time>2023-02-16T07:38:00Z</time>
      </trkpt>
      <trkpt lat="45.45073" lon="5.63581">
        <ele>408</ele>
        <time>2023-02-16T07:38:01Z</time>
      </trkpt>
      <trkpt lat="45.45069" lon="5.63576">
        <ele>408</ele>
        <time>2023-02-16T07:38:02Z</time>
      </trkpt>
      <trkpt lat="45.45066" lon="5.63571">
        <ele>408</ele>
        <time>2023-02-16T07:38:03Z</time>
      </trkpt>
      <trkpt lat="45.45063" lon="5.63567">
        <ele>408</ele>
        <time>2023-02-16T07:38:04Z</time>
      </trkpt>
      <trkpt lat="45.4506" lon="5.63561">
        <ele>408</ele>
        <time>2023-02-16T07:38:05Z</time>
      </trkpt>
      <trkpt lat="45.45058" lon="5.63556">
        <ele>408</ele>
        <time>2023-02-16T07:38:06Z</time>
      </trkpt>
      <trkpt lat="45.45055" lon="5.6355">
        <ele>408</ele>
        <time>2023-02-16T07:38:07Z</time>
      </trkpt>
      <trkpt lat="45.45053" lon="5.63544">
        <ele>409</ele>
        <time>2023-02-16T07:38:08Z</time>
      </trkpt>
      <trkpt lat="45.4505" lon="5.63539">
        <ele>409</ele>
        <time>2023-02-16T07:38:09Z</time>
      </trkpt>
      <trkpt lat="45.45048" lon="5.63534">
        <ele>409</ele>
        <time>2023-02-16T07:38:10Z</time>
      </trkpt>
      <trkpt lat="45.45045" lon="5.6353">
        <ele>409</ele>
        <time>2023-02-16T07:38:11Z</time>
      </trkpt>
      <trkpt lat="45.45042" lon="5.63525">
        <ele>409</ele>
        <time>2023-02-16T07:38:12Z</time>
      </trkpt>
      <trkpt lat="45.45041" lon="5.63519">
        <ele>409</ele>
        <time>2023-02-16T07:38:13Z</time>
      </trkpt>
      <trkpt lat="45.4504" lon="5.63513">
        <ele>409</ele>
        <time>2023-02-16T07:38:14Z</time>
      </trkpt>
      <trkpt lat="45.45038" lon="5.63507">
        <ele>409</ele>
        <time>2023-02-16T07:38:15Z</time>
      </trkpt>
      <trkpt lat="45.45036" lon="5.63502">
        <ele>409</ele>
        <time>2023-02-16T07:38:16Z</time>
      </trkpt>
      <trkpt lat="45.45036" lon="5.63496">
        <ele>409</ele>
        <time>2023-02-16T07:38:17Z</time>
      </trkpt>
      <trkpt lat="45.45037" lon="5.6349">
        <ele>409</ele>
        <time>2023-02-16T07:38:18Z</time>
      </trkpt>
      <trkpt lat="45.45036" lon="5.63485">
        <ele>409</ele>
        <time>2023-02-16T07:38:19Z</time>
      </trkpt>
      <trkpt lat="45.45034" lon="5.63479">
        <ele>409</ele>
        <time>2023-02-16T07:38:20Z</time>
      </trkpt>
      <trkpt lat="45.45032" lon="5.63474">
        <ele>409</ele>
        <time>2023-02-16T07:38:21Z</time>
      </trkpt>
      <trkpt lat="45.4503" lon="5.6347">
        <ele>409</ele>
        <time>2023-02-16T07:38:22Z</time>
      </trkpt>
      <trkpt lat="45.45027" lon="5.63465">
        <ele>409</ele>
        <time>2023-02-16T07:38:23Z</time>
      </trkpt>
      <trkpt lat="45.45024" lon="5.63461">
        <ele>409</ele>
        <time>2023-02-16T07:38:24Z</time>
      </trkpt>
      <trkpt lat="45.4502" lon="5.63457">
        <ele>409</ele>
        <time>2023-02-16T07:38:25Z</time>
      </trkpt>
      <trkpt lat="45.45017" lon="5.63454">
        <ele>409</ele>
        <time>2023-02-16T07:38:26Z</time>
      </trkpt>
      <trkpt lat="45.45014" lon="5.6345">
        <ele>410</ele>
        <time>2023-02-16T07:38:27Z</time>
      </trkpt>
      <trkpt lat="45.45011" lon="5.63445">
        <ele>410</ele>
        <time>2023-02-16T07:38:28Z</time>
      </trkpt>
      <trkpt lat="45.45009" lon="5.6344">
        <ele>410</ele>
        <time>2023-02-16T07:38:29Z</time>
      </trkpt>
      <trkpt lat="45.45006" lon="5.63435">
        <ele>410</ele>
        <time>2023-02-16T07:38:30Z</time>
      </trkpt>
      <trkpt lat="45.45004" lon="5.63431">
        <ele>410</ele>
        <time>2023-02-16T07:38:31Z</time>
      </trkpt>
      <trkpt lat="45.45002" lon="5.63426">
        <ele>410</ele>
        <time>2023-02-16T07:38:32Z</time>
      </trkpt>
      <trkpt lat="45.44999" lon="5.63422">
        <ele>411</ele>
        <time>2023-02-16T07:38:33Z</time>
      </trkpt>
      <trkpt lat="45.44996" lon="5.63417">
        <ele>411</ele>
        <time>2023-02-16T07:38:34Z</time>
      </trkpt>
      <trkpt lat="45.44994" lon="5.63413">
        <ele>411</ele>
        <time>2023-02-16T07:38:35Z</time>
      </trkpt>
      <trkpt lat="45.44993" lon="5.63407">
        <ele>411</ele>
        <time>2023-02-16T07:38:36Z</time>
      </trkpt>
      <trkpt lat="45.44993" lon="5.63402">
        <ele>411</ele>
        <time>2023-02-16T07:38:37Z</time>
      </trkpt>
      <trkpt lat="45.44994" lon="5.63397">
        <ele>411</ele>
        <time>2023-02-16T07:38:38Z</time>
      </trkpt>
      <trkpt lat="45.44994" lon="5.63392">
        <ele>411</ele>
        <time>2023-02-16T07:38:39Z</time>
      </trkpt>
      <trkpt lat="45.44993" lon="5.63387">
        <ele>411</ele>
        <time>2023-02-16T07:38:40Z</time>
      </trkpt>
      <trkpt lat="45.44993" lon="5.63382">
        <ele>411</ele>
        <time>2023-02-16T07:38:41Z</time>
      </trkpt>
      <trkpt lat="45.44992" lon="5.63377">
        <ele>411</ele>
        <time>2023-02-16T07:38:42Z</time>
      </trkpt>
      <trkpt lat="45.44991" lon="5.63372">
        <ele>411</ele>
        <time>2023-02-16T07:38:43Z</time>
      </trkpt>
      <trkpt lat="45.4499" lon="5.63367">
        <ele>411</ele>
        <time>2023-02-16T07:38:44Z</time>
      </trkpt>
      <trkpt lat="45.44989" lon="5.63362">
        <ele>411</ele>
        <time>2023-02-16T07:38:45Z</time>
      </trkpt>
      <trkpt lat="45.44989" lon="5.63357">
        <ele>411</ele>
        <time>2023-02-16T07:38:46Z</time>
      </trkpt>
      <trkpt lat="45.44989" lon="5.63352">
        <ele>412</ele>
        <time>2023-02-16T07:38:47Z</time>
      </trkpt>
      <trkpt lat="45.4499" lon="5.63348">
        <ele>412</ele>
        <time>2023-02-16T07:38:48Z</time>
      </trkpt>
      <trkpt lat="45.44991" lon="5.63343">
        <ele>412</ele>
        <time>2023-02-16T07:38:49Z</time>
      </trkpt>
      <trkpt lat="45.4499" lon="5.63339">
        <ele>412</ele>
        <time>2023-02-16T07:38:50Z</time>
      </trkpt>
      <trkpt lat="45.44989" lon="5.63335">
        <ele>412</ele>
        <time>2023-02-16T07:38:51Z</time>
      </trkpt>
      <trkpt lat="45.44987" lon="5.63331">
        <ele>413</ele>
        <time>2023-02-16T07:38:52Z</time>
      </trkpt>
      <trkpt lat="45.44984" lon="5.63327">
        <ele>413</ele>
        <time>2023-02-16T07:38:53Z</time>
      </trkpt>
      <trkpt lat="45.44982" lon="5.63325">
        <ele>413</ele>
        <time>2023-02-16T07:38:54Z</time>
      </trkpt>
      <trkpt lat="45.44979" lon="5.63321">
        <ele>413</ele>
        <time>2023-02-16T07:38:55Z</time>
      </trkpt>
      <trkpt lat="45.44976" lon="5.63318">
        <ele>413</ele>
        <time>2023-02-16T07:38:56Z</time>
      </trkpt>
      <trkpt lat="45.44973" lon="5.63313">
        <ele>413</ele>
        <time>2023-02-16T07:38:57Z</time>
      </trkpt>
      <trkpt lat="45.44971" lon="5.63309">
        <ele>413</ele>
        <time>2023-02-16T07:38:58Z</time>
      </trkpt>
      <trkpt lat="45.44969" lon="5.63305">
        <ele>413</ele>
        <time>2023-02-16T07:38:59Z</time>
      </trkpt>
      <trkpt lat="45.44967" lon="5.63302">
        <ele>413</ele>
        <time>2023-02-16T07:39:00Z</time>
      </trkpt>
      <trkpt lat="45.44964" lon="5.63301">
        <ele>413</ele>
        <time>2023-02-16T07:39:01Z</time>
      </trkpt>
      <trkpt lat="45.44961" lon="5.63302">
        <ele>413</ele>
        <time>2023-02-16T07:39:02Z</time>
      </trkpt>
      <trkpt lat="45.44957" lon="5.63304">
        <ele>413</ele>
        <time>2023-02-16T07:39:03Z</time>
      </trkpt>
      <trkpt lat="45.44952" lon="5.63305">
        <ele>413</ele>
        <time>2023-02-16T07:39:04Z</time>
      </trkpt>
      <trkpt lat="45.44948" lon="5.63307">
        <ele>413</ele>
        <time>2023-02-16T07:39:05Z</time>
      </trkpt>
      <trkpt lat="45.44943" lon="5.63307">
        <ele>413</ele>
        <time>2023-02-16T07:39:06Z</time>
      </trkpt>
      <trkpt lat="45.44938" lon="5.63304">
        <ele>413</ele>
        <time>2023-02-16T07:39:07Z</time>
      </trkpt>
      <trkpt lat="45.44935" lon="5.633">
        <ele>413</ele>
        <time>2023-02-16T07:39:08Z</time>
      </trkpt>
      <trkpt lat="45.44933" lon="5.63294">
        <ele>413</ele>
        <time>2023-02-16T07:39:09Z</time>
      </trkpt>
      <trkpt lat="45.44931" lon="5.63289">
        <ele>413</ele>
        <time>2023-02-16T07:39:10Z</time>
      </trkpt>
      <trkpt lat="45.4493" lon="5.63284">
        <ele>413</ele>
        <time>2023-02-16T07:39:11Z</time>
      </trkpt>
      <trkpt lat="45.44928" lon="5.6328">
        <ele>413</ele>
        <time>2023-02-16T07:39:12Z</time>
      </trkpt>
      <trkpt lat="45.44926" lon="5.63276">
        <ele>413</ele>
        <time>2023-02-16T07:39:13Z</time>
      </trkpt>
      <trkpt lat="45.44923" lon="5.63274">
        <ele>413</ele>
        <time>2023-02-16T07:39:14Z</time>
      </trkpt>
      <trkpt lat="45.44919" lon="5.63272">
        <ele>413</ele>
        <time>2023-02-16T07:39:15Z</time>
      </trkpt>
      <trkpt lat="45.44915" lon="5.63272">
        <ele>413</ele>
        <time>2023-02-16T07:39:16Z</time>
      </trkpt>
      <trkpt lat="45.44911" lon="5.63272">
        <ele>413</ele>
        <time>2023-02-16T07:39:17Z</time>
      </trkpt>
      <trkpt lat="45.44906" lon="5.63272">
        <ele>414</ele>
        <time>2023-02-16T07:39:18Z</time>
      </trkpt>
      <trkpt lat="45.44902" lon="5.63271">
        <ele>414</ele>
        <time>2023-02-16T07:39:19Z</time>
      </trkpt>
      <trkpt lat="45.44897" lon="5.6327">
        <ele>414</ele>
        <time>2023-02-16T07:39:20Z</time>
      </trkpt>
      <trkpt lat="45.44893" lon="5.6327">
        <ele>414</ele>
        <time>2023-02-16T07:39:21Z</time>
      </trkpt>
      <trkpt lat="45.44889" lon="5.63271">
        <ele>414</ele>
        <time>2023-02-16T07:39:22Z</time>
      </trkpt>
      <trkpt lat="45.44885" lon="5.63272">
        <ele>414</ele>
        <time>2023-02-16T07:39:23Z</time>
      </trkpt>
      <trkpt lat="45.44881" lon="5.63275">
        <ele>414</ele>
        <time>2023-02-16T07:39:24Z</time>
      </trkpt>
      <trkpt lat="45.44877" lon="5.63278">
        <ele>414</ele>
        <time>2023-02-16T07:39:25Z</time>
      </trkpt>
      <trkpt lat="45.44872" lon="5.63281">
        <ele>414</ele>
        <time>2023-02-16T07:39:26Z</time>
      </trkpt>
      <trkpt lat="45.44867" lon="5.63283">
        <ele>414</ele>
        <time>2023-02-16T07:39:27Z</time>
      </trkpt>
      <trkpt lat="45.44863" lon="5.63285">
        <ele>414</ele>
        <time>2023-02-16T07:39:28Z</time>
      </trkpt>
      <trkpt lat="45.44858" lon="5.63288">
        <ele>414</ele>
        <time>2023-02-16T07:39:29Z</time>
      </trkpt>
      <trkpt lat="45.44853" lon="5.63291">
        <ele>414</ele>
        <time>2023-02-16T07:39:30Z</time>
      </trkpt>
      <trkpt lat="45.44849" lon="5.63294">
        <ele>414</ele>
        <time>2023-02-16T07:39:31Z</time>
      </trkpt>
      <trkpt lat="45.44844" lon="5.63297">
        <ele>414</ele>
        <time>2023-02-16T07:39:32Z</time>
      </trkpt>
      <trkpt lat="45.44839" lon="5.63299">
        <ele>414</ele>
        <time>2023-02-16T07:39:33Z</time>
      </trkpt>
      <trkpt lat="45.44834" lon="5.63302">
        <ele>414</ele>
        <time>2023-02-16T07:39:34Z</time>
      </trkpt>
      <trkpt lat="45.4483" lon="5.63305">
        <ele>414</ele>
        <time>2023-02-16T07:39:35Z</time>
      </trkpt>
      <trkpt lat="45.44825" lon="5.63308">
        <ele>414</ele>
        <time>2023-02-16T07:39:36Z</time>
      </trkpt>
      <trkpt lat="45.4482" lon="5.63311">
        <ele>414</ele>
        <time>2023-02-16T07:39:37Z</time>
      </trkpt>
      <trkpt lat="45.44815" lon="5.63313">
        <ele>414</ele>
        <time>2023-02-16T07:39:38Z</time>
      </trkpt>
      <trkpt lat="45.4481" lon="5.63316">
        <ele>414</ele>
        <time>2023-02-16T07:39:39Z</time>
      </trkpt>
      <trkpt lat="45.44805" lon="5.63319">
        <ele>414</ele>
        <time>2023-02-16T07:39:40Z</time>
      </trkpt>
      <trkpt lat="45.44801" lon="5.63322">
        <ele>414</ele>
        <time>2023-02-16T07:39:41Z</time>
      </trkpt>
      <trkpt lat="45.44796" lon="5.63324">
        <ele>414</ele>
        <time>2023-02-16T07:39:42Z</time>
      </trkpt>
      <trkpt lat="45.44791" lon="5.63328">
        <ele>414</ele>
        <time>2023-02-16T07:39:43Z</time>
      </trkpt>
      <trkpt lat="45.44786" lon="5.63331">
        <ele>414</ele>
        <time>2023-02-16T07:39:44Z</time>
      </trkpt>
      <trkpt lat="45.44781" lon="5.63334">
        <ele>414</ele>
        <time>2023-02-16T07:39:45Z</time>
      </trkpt>
      <trkpt lat="45.44776" lon="5.63337">
        <ele>414</ele>
        <time>2023-02-16T07:39:46Z</time>
      </trkpt>
      <trkpt lat="45.44771" lon="5.6334">
        <ele>414</ele>
        <time>2023-02-16T07:39:47Z</time>
      </trkpt>
      <trkpt lat="45.44766" lon="5.63343">
        <ele>415</ele>
        <time>2023-02-16T07:39:48Z</time>
      </trkpt>
      <trkpt lat="45.44762" lon="5.63347">
        <ele>414</ele>
        <time>2023-02-16T07:39:49Z</time>
      </trkpt>
      <trkpt lat="45.44757" lon="5.63351">
        <ele>414</ele>
        <time>2023-02-16T07:39:50Z</time>
      </trkpt>
      <trkpt lat="45.44752" lon="5.63354">
        <ele>414</ele>
        <time>2023-02-16T07:39:51Z</time>
      </trkpt>
      <trkpt lat="45.44747" lon="5.63358">
        <ele>414</ele>
        <time>2023-02-16T07:39:52Z</time>
      </trkpt>
      <trkpt lat="45.44742" lon="5.63361">
        <ele>414</ele>
        <time>2023-02-16T07:39:53Z</time>
      </trkpt>
      <trkpt lat="45.44737" lon="5.63365">
        <ele>414</ele>
        <time>2023-02-16T07:39:54Z</time>
      </trkpt>
      <trkpt lat="45.44733" lon="5.63368">
        <ele>414</ele>
        <time>2023-02-16T07:39:55Z</time>
      </trkpt>
      <trkpt lat="45.44728" lon="5.63371">
        <ele>414</ele>
        <time>2023-02-16T07:39:56Z</time>
      </trkpt>
      <trkpt lat="45.44723" lon="5.63374">
        <ele>414</ele>
        <time>2023-02-16T07:39:57Z</time>
      </trkpt>
      <trkpt lat="45.44718" lon="5.63377">
        <ele>414</ele>
        <time>2023-02-16T07:39:58Z</time>
      </trkpt>
      <trkpt lat="45.44714" lon="5.6338">
        <ele>414</ele>
        <time>2023-02-16T07:39:59Z</time>
      </trkpt>
      <trkpt lat="45.44709" lon="5.63383">
        <ele>414</ele>
        <time>2023-02-16T07:40:00Z</time>
      </trkpt>
      <trkpt lat="45.44704" lon="5.63385">
        <ele>414</ele>
        <time>2023-02-16T07:40:01Z</time>
      </trkpt>
      <trkpt lat="45.447" lon="5.63388">
        <ele>414</ele>
        <time>2023-02-16T07:40:02Z</time>
      </trkpt>
      <trkpt lat="45.44695" lon="5.63391">
        <ele>414</ele>
        <time>2023-02-16T07:40:03Z</time>
      </trkpt>
      <trkpt lat="45.44691" lon="5.63394">
        <ele>415</ele>
        <time>2023-02-16T07:40:04Z</time>
      </trkpt>
      <trkpt lat="45.44686" lon="5.63397">
        <ele>415</ele>
        <time>2023-02-16T07:40:05Z</time>
      </trkpt>
      <trkpt lat="45.44681" lon="5.63399">
        <ele>415</ele>
        <time>2023-02-16T07:40:06Z</time>
      </trkpt>
      <trkpt lat="45.44676" lon="5.63402">
        <ele>415</ele>
        <time>2023-02-16T07:40:07Z</time>
      </trkpt>
      <trkpt lat="45.44671" lon="5.63405">
        <ele>415</ele>
        <time>2023-02-16T07:40:08Z</time>
      </trkpt>
      <trkpt lat="45.44667" lon="5.63408">
        <ele>415</ele>
        <time>2023-02-16T07:40:09Z</time>
      </trkpt>
      <trkpt lat="45.44661" lon="5.63408">
        <ele>415</ele>
        <time>2023-02-16T07:40:10Z</time>
      </trkpt>
      <trkpt lat="45.44657" lon="5.63406">
        <ele>415</ele>
        <time>2023-02-16T07:40:11Z</time>
      </trkpt>
      <trkpt lat="45.44652" lon="5.63402">
        <ele>415</ele>
        <time>2023-02-16T07:40:12Z</time>
      </trkpt>
      <trkpt lat="45.4465" lon="5.63395">
        <ele>415</ele>
        <time>2023-02-16T07:40:13Z</time>
      </trkpt>
      <trkpt lat="45.4465" lon="5.63388">
        <ele>415</ele>
        <time>2023-02-16T07:40:14Z</time>
      </trkpt>
      <trkpt lat="45.44651" lon="5.6338">
        <ele>415</ele>
        <time>2023-02-16T07:40:15Z</time>
      </trkpt>
      <trkpt lat="45.44652" lon="5.63372">
        <ele>415</ele>
        <time>2023-02-16T07:40:16Z</time>
      </trkpt>
      <trkpt lat="45.44654" lon="5.63364">
        <ele>415</ele>
        <time>2023-02-16T07:40:17Z</time>
      </trkpt>
      <trkpt lat="45.44655" lon="5.63357">
        <ele>415</ele>
        <time>2023-02-16T07:40:18Z</time>
      </trkpt>
      <trkpt lat="45.44656" lon="5.6335">
        <ele>415</ele>
        <time>2023-02-16T07:40:19Z</time>
      </trkpt>
      <trkpt lat="45.44656" lon="5.63342">
        <ele>415</ele>
        <time>2023-02-16T07:40:20Z</time>
      </trkpt>
      <trkpt lat="45.44656" lon="5.63335">
        <ele>415</ele>
        <time>2023-02-16T07:40:21Z</time>
      </trkpt>
      <trkpt lat="45.44655" lon="5.63328">
        <ele>415</ele>
        <time>2023-02-16T07:40:22Z</time>
      </trkpt>
      <trkpt lat="45.44653" lon="5.63322">
        <ele>415</ele>
        <time>2023-02-16T07:40:23Z</time>
      </trkpt>
      <trkpt lat="45.44651" lon="5.63316">
        <ele>415</ele>
        <time>2023-02-16T07:40:24Z</time>
      </trkpt>
      <trkpt lat="45.44648" lon="5.6331">
        <ele>415</ele>
        <time>2023-02-16T07:40:25Z</time>
      </trkpt>
      <trkpt lat="45.44646" lon="5.63304">
        <ele>415</ele>
        <time>2023-02-16T07:40:26Z</time>
      </trkpt>
      <trkpt lat="45.44644" lon="5.63298">
        <ele>415</ele>
        <time>2023-02-16T07:40:27Z</time>
      </trkpt>
      <trkpt lat="45.44642" lon="5.63292">
        <ele>415</ele>
        <time>2023-02-16T07:40:28Z</time>
      </trkpt>
      <trkpt lat="45.4464" lon="5.63286">
        <ele>415</ele>
        <time>2023-02-16T07:40:29Z</time>
      </trkpt>
      <trkpt lat="45.44638" lon="5.6328">
        <ele>415</ele>
        <time>2023-02-16T07:40:30Z</time>
      </trkpt>
      <trkpt lat="45.44635" lon="5.63275">
        <ele>415</ele>
        <time>2023-02-16T07:40:31Z</time>
      </trkpt>
      <trkpt lat="45.44633" lon="5.6327">
        <ele>415</ele>
        <time>2023-02-16T07:40:32Z</time>
      </trkpt>
      <trkpt lat="45.4463" lon="5.63265">
        <ele>415</ele>
        <time>2023-02-16T07:40:33Z</time>
      </trkpt>
      <trkpt lat="45.44627" lon="5.63261">
        <ele>415</ele>
        <time>2023-02-16T07:40:34Z</time>
      </trkpt>
      <trkpt lat="45.44624" lon="5.63256">
        <ele>415</ele>
        <time>2023-02-16T07:40:35Z</time>
      </trkpt>
      <trkpt lat="45.44621" lon="5.63252">
        <ele>415</ele>
        <time>2023-02-16T07:40:36Z</time>
      </trkpt>
      <trkpt lat="45.44618" lon="5.63248">
        <ele>415</ele>
        <time>2023-02-16T07:40:37Z</time>
      </trkpt>
      <trkpt lat="45.44615" lon="5.63244">
        <ele>415</ele>
        <time>2023-02-16T07:40:38Z</time>
      </trkpt>
      <trkpt lat="45.44611" lon="5.63239">
        <ele>415</ele>
        <time>2023-02-16T07:40:39Z</time>
      </trkpt>
      <trkpt lat="45.44608" lon="5.63235">
        <ele>415</ele>
        <time>2023-02-16T07:40:40Z</time>
      </trkpt>
      <trkpt lat="45.44605" lon="5.63231">
        <ele>416</ele>
        <time>2023-02-16T07:40:41Z</time>
      </trkpt>
      <trkpt lat="45.44602" lon="5.63227">
        <ele>417</ele>
        <time>2023-02-16T07:40:42Z</time>
      </trkpt>
      <trkpt lat="45.44599" lon="5.63223">
        <ele>417</ele>
        <time>2023-02-16T07:40:43Z</time>
      </trkpt>
      <trkpt lat="45.44596" lon="5.63218">
        <ele>417</ele>
        <time>2023-02-16T07:40:44Z</time>
      </trkpt>
      <trkpt lat="45.44593" lon="5.63214">
        <ele>417</ele>
        <time>2023-02-16T07:40:45Z</time>
      </trkpt>
      <trkpt lat="45.44591" lon="5.6321">
        <ele>417</ele>
        <time>2023-02-16T07:40:46Z</time>
      </trkpt>
      <trkpt lat="45.44588" lon="5.63205">
        <ele>417</ele>
        <time>2023-02-16T07:40:47Z</time>
      </trkpt>
      <trkpt lat="45.44585" lon="5.63201">
        <ele>417</ele>
        <time>2023-02-16T07:40:48Z</time>
      </trkpt>
      <trkpt lat="45.44582" lon="5.63196">
        <ele>417</ele>
        <time>2023-02-16T07:40:49Z</time>
      </trkpt>
      <trkpt lat="45.44579" lon="5.63192">
        <ele>417</ele>
        <time>2023-02-16T07:40:50Z</time>
      </trkpt>
      <trkpt lat="45.44576" lon="5.63187">
        <ele>417</ele>
        <time>2023-02-16T07:40:51Z</time>
      </trkpt>
      <trkpt lat="45.44573" lon="5.63183">
        <ele>417</ele>
        <time>2023-02-16T07:40:52Z</time>
      </trkpt>
      <trkpt lat="45.4457" lon="5.63178">
        <ele>417</ele>
        <time>2023-02-16T07:40:53Z</time>
      </trkpt>
      <trkpt lat="45.44567" lon="5.63174">
        <ele>418</ele>
        <time>2023-02-16T07:40:54Z</time>
      </trkpt>
      <trkpt lat="45.44564" lon="5.63169">
        <ele>418</ele>
        <time>2023-02-16T07:40:55Z</time>
      </trkpt>
      <trkpt lat="45.44561" lon="5.63165">
        <ele>418</ele>
        <time>2023-02-16T07:40:56Z</time>
      </trkpt>
      <trkpt lat="45.44558" lon="5.63161">
        <ele>418</ele>
        <time>2023-02-16T07:40:57Z</time>
      </trkpt>
      <trkpt lat="45.44555" lon="5.63157">
        <ele>418</ele>
        <time>2023-02-16T07:40:58Z</time>
      </trkpt>
      <trkpt lat="45.44552" lon="5.63154">
        <ele>418</ele>
        <time>2023-02-16T07:40:59Z</time>
      </trkpt>
      <trkpt lat="45.44548" lon="5.6315">
        <ele>418</ele>
        <time>2023-02-16T07:41:00Z</time>
      </trkpt>
      <trkpt lat="45.44545" lon="5.63146">
        <ele>418</ele>
        <time>2023-02-16T07:41:01Z</time>
      </trkpt>
      <trkpt lat="45.44542" lon="5.63143">
        <ele>418</ele>
        <time>2023-02-16T07:41:02Z</time>
      </trkpt>
      <trkpt lat="45.44538" lon="5.63139">
        <ele>418</ele>
        <time>2023-02-16T07:41:03Z</time>
      </trkpt>
      <trkpt lat="45.44535" lon="5.63136">
        <ele>418</ele>
        <time>2023-02-16T07:41:04Z</time>
      </trkpt>
      <trkpt lat="45.44531" lon="5.63133">
        <ele>418</ele>
        <time>2023-02-16T07:41:05Z</time>
      </trkpt>
      <trkpt lat="45.44528" lon="5.63129">
        <ele>418</ele>
        <time>2023-02-16T07:41:06Z</time>
      </trkpt>
      <trkpt lat="45.44525" lon="5.63124">
        <ele>418</ele>
        <time>2023-02-16T07:41:07Z</time>
      </trkpt>
      <trkpt lat="45.44523" lon="5.63119">
        <ele>418</ele>
        <time>2023-02-16T07:41:08Z</time>
      </trkpt>
      <trkpt lat="45.44521" lon="5.63114">
        <ele>418</ele>
        <time>2023-02-16T07:41:09Z</time>
      </trkpt>
      <trkpt lat="45.44519" lon="5.63109">
        <ele>419</ele>
        <time>2023-02-16T07:41:10Z</time>
      </trkpt>
      <trkpt lat="45.44517" lon="5.63104">
        <ele>419</ele>
        <time>2023-02-16T07:41:11Z</time>
      </trkpt>
      <trkpt lat="45.44515" lon="5.63099">
        <ele>419</ele>
        <time>2023-02-16T07:41:12Z</time>
      </trkpt>
      <trkpt lat="45.44513" lon="5.63093">
        <ele>419</ele>
        <time>2023-02-16T07:41:13Z</time>
      </trkpt>
      <trkpt lat="45.44512" lon="5.63088">
        <ele>419</ele>
        <time>2023-02-16T07:41:14Z</time>
      </trkpt>
      <trkpt lat="45.4451" lon="5.63082">
        <ele>419</ele>
        <time>2023-02-16T07:41:15Z</time>
      </trkpt>
      <trkpt lat="45.44508" lon="5.63077">
        <ele>419</ele>
        <time>2023-02-16T07:41:16Z</time>
      </trkpt>
      <trkpt lat="45.44507" lon="5.63071">
        <ele>419</ele>
        <time>2023-02-16T07:41:17Z</time>
      </trkpt>
      <trkpt lat="45.44505" lon="5.63065">
        <ele>419</ele>
        <time>2023-02-16T07:41:18Z</time>
      </trkpt>
      <trkpt lat="45.44504" lon="5.63059">
        <ele>419</ele>
        <time>2023-02-16T07:41:19Z</time>
      </trkpt>
      <trkpt lat="45.44504" lon="5.63053">
        <ele>419</ele>
        <time>2023-02-16T07:41:20Z</time>
      </trkpt>
      <trkpt lat="45.44503" lon="5.63047">
        <ele>419</ele>
        <time>2023-02-16T07:41:21Z</time>
      </trkpt>
      <trkpt lat="45.44502" lon="5.63041">
        <ele>419</ele>
        <time>2023-02-16T07:41:22Z</time>
      </trkpt>
      <trkpt lat="45.44502" lon="5.63035">
        <ele>419</ele>
        <time>2023-02-16T07:41:23Z</time>
      </trkpt>
      <trkpt lat="45.44502" lon="5.6303">
        <ele>419</ele>
        <time>2023-02-16T07:41:24Z</time>
      </trkpt>
      <trkpt lat="45.44501" lon="5.63024">
        <ele>420</ele>
        <time>2023-02-16T07:41:25Z</time>
      </trkpt>
      <trkpt lat="45.445" lon="5.63018">
        <ele>420</ele>
        <time>2023-02-16T07:41:26Z</time>
      </trkpt>
      <trkpt lat="45.44499" lon="5.63012">
        <ele>420</ele>
        <time>2023-02-16T07:41:27Z</time>
      </trkpt>
      <trkpt lat="45.44499" lon="5.63007">
        <ele>420</ele>
        <time>2023-02-16T07:41:28Z</time>
      </trkpt>
      <trkpt lat="45.44498" lon="5.63001">
        <ele>420</ele>
        <time>2023-02-16T07:41:29Z</time>
      </trkpt>
      <trkpt lat="45.44498" lon="5.62995">
        <ele>420</ele>
        <time>2023-02-16T07:41:30Z</time>
      </trkpt>
      <trkpt lat="45.44497" lon="5.62989">
        <ele>420</ele>
        <time>2023-02-16T07:41:31Z</time>
      </trkpt>
      <trkpt lat="45.44497" lon="5.62982">
        <ele>420</ele>
        <time>2023-02-16T07:41:32Z</time>
      </trkpt>
      <trkpt lat="45.44497" lon="5.62976">
        <ele>420</ele>
        <time>2023-02-16T07:41:33Z</time>
      </trkpt>
      <trkpt lat="45.44496" lon="5.6297">
        <ele>420</ele>
        <time>2023-02-16T07:41:34Z</time>
      </trkpt>
      <trkpt lat="45.44495" lon="5.62964">
        <ele>420</ele>
        <time>2023-02-16T07:41:35Z</time>
      </trkpt>
      <trkpt lat="45.44495" lon="5.62957">
        <ele>420</ele>
        <time>2023-02-16T07:41:36Z</time>
      </trkpt>
      <trkpt lat="45.44494" lon="5.62951">
        <ele>420</ele>
        <time>2023-02-16T07:41:37Z</time>
      </trkpt>
      <trkpt lat="45.44494" lon="5.62945">
        <ele>421</ele>
        <time>2023-02-16T07:41:38Z</time>
      </trkpt>
      <trkpt lat="45.44493" lon="5.62939">
        <ele>421</ele>
        <time>2023-02-16T07:41:39Z</time>
      </trkpt>
      <trkpt lat="45.44493" lon="5.62933">
        <ele>421</ele>
        <time>2023-02-16T07:41:40Z</time>
      </trkpt>
      <trkpt lat="45.44492" lon="5.62927">
        <ele>421</ele>
        <time>2023-02-16T07:41:41Z</time>
      </trkpt>
      <trkpt lat="45.44491" lon="5.62921">
        <ele>421</ele>
        <time>2023-02-16T07:41:42Z</time>
      </trkpt>
      <trkpt lat="45.44491" lon="5.62915">
        <ele>421</ele>
        <time>2023-02-16T07:41:43Z</time>
      </trkpt>
      <trkpt lat="45.4449" lon="5.62909">
        <ele>421</ele>
        <time>2023-02-16T07:41:44Z</time>
      </trkpt>
      <trkpt lat="45.4449" lon="5.62903">
        <ele>421</ele>
        <time>2023-02-16T07:41:45Z</time>
      </trkpt>
      <trkpt lat="45.44489" lon="5.62898">
        <ele>421</ele>
        <time>2023-02-16T07:41:46Z</time>
      </trkpt>
      <trkpt lat="45.44489" lon="5.62892">
        <ele>421</ele>
        <time>2023-02-16T07:41:47Z</time>
      </trkpt>
      <trkpt lat="45.44488" lon="5.62886">
        <ele>421</ele>
        <time>2023-02-16T07:41:48Z</time>
      </trkpt>
      <trkpt lat="45.44487" lon="5.62881">
        <ele>422</ele>
        <time>2023-02-16T07:41:49Z</time>
      </trkpt>
      <trkpt lat="45.44486" lon="5.62875">
        <ele>422</ele>
        <time>2023-02-16T07:41:50Z</time>
      </trkpt>
      <trkpt lat="45.44485" lon="5.6287">
        <ele>422</ele>
        <time>2023-02-16T07:41:51Z</time>
      </trkpt>
      <trkpt lat="45.44484" lon="5.62864">
        <ele>422</ele>
        <time>2023-02-16T07:41:52Z</time>
      </trkpt>
      <trkpt lat="45.44483" lon="5.62859">
        <ele>422</ele>
        <time>2023-02-16T07:41:53Z</time>
      </trkpt>
      <trkpt lat="45.44482" lon="5.62853">
        <ele>422</ele>
        <time>2023-02-16T07:41:54Z</time>
      </trkpt>
      <trkpt lat="45.44481" lon="5.62848">
        <ele>422</ele>
        <time>2023-02-16T07:41:55Z</time>
      </trkpt>
      <trkpt lat="45.4448" lon="5.62842">
        <ele>422</ele>
        <time>2023-02-16T07:41:56Z</time>
      </trkpt>
      <trkpt lat="45.44479" lon="5.62837">
        <ele>422</ele>
        <time>2023-02-16T07:41:57Z</time>
      </trkpt>
      <trkpt lat="45.44478" lon="5.62831">
        <ele>422</ele>
        <time>2023-02-16T07:41:58Z</time>
      </trkpt>
      <trkpt lat="45.44477" lon="5.62825">
        <ele>422</ele>
        <time>2023-02-16T07:41:59Z</time>
      </trkpt>
      <trkpt lat="45.44476" lon="5.6282">
        <ele>422</ele>
        <time>2023-02-16T07:42:00Z</time>
      </trkpt>
      <trkpt lat="45.44476" lon="5.62814">
        <ele>422</ele>
        <time>2023-02-16T07:42:01Z</time>
      </trkpt>
      <trkpt lat="45.44475" lon="5.62808">
        <ele>422</ele>
        <time>2023-02-16T07:42:02Z</time>
      </trkpt>
      <trkpt lat="45.44475" lon="5.62802">
        <ele>422</ele>
        <time>2023-02-16T07:42:03Z</time>
      </trkpt>
      <trkpt lat="45.44474" lon="5.62797">
        <ele>422</ele>
        <time>2023-02-16T07:42:04Z</time>
      </trkpt>
      <trkpt lat="45.44472" lon="5.62792">
        <ele>422</ele>
        <time>2023-02-16T07:42:05Z</time>
      </trkpt>
      <trkpt lat="45.4447" lon="5.62789">
        <ele>422</ele>
        <time>2023-02-16T07:42:06Z</time>
      </trkpt>
      <trkpt lat="45.44466" lon="5.62788">
        <ele>422</ele>
        <time>2023-02-16T07:42:07Z</time>
      </trkpt>
      <trkpt lat="45.44463" lon="5.62787">
        <ele>422</ele>
        <time>2023-02-16T07:42:08Z</time>
      </trkpt>
      <trkpt lat="45.44454" lon="5.62786">
        <ele>422</ele>
        <time>2023-02-16T07:42:11Z</time>
      </trkpt>
      <trkpt lat="45.44447" lon="5.62786">
        <ele>422</ele>
        <time>2023-02-16T07:42:13Z</time>
      </trkpt>
      <trkpt lat="45.44438" lon="5.62786">
        <ele>422</ele>
        <time>2023-02-16T07:42:15Z</time>
      </trkpt>
      <trkpt lat="45.44433" lon="5.62788">
        <ele>422</ele>
        <time>2023-02-16T07:42:16Z</time>
      </trkpt>
      <trkpt lat="45.44428" lon="5.62789">
        <ele>422</ele>
        <time>2023-02-16T07:42:17Z</time>
      </trkpt>
      <trkpt lat="45.44422" lon="5.6279">
        <ele>422</ele>
        <time>2023-02-16T07:42:18Z</time>
      </trkpt>
      <trkpt lat="45.44417" lon="5.62791">
        <ele>422</ele>
        <time>2023-02-16T07:42:19Z</time>
      </trkpt>
      <trkpt lat="45.44412" lon="5.62791">
        <ele>422</ele>
        <time>2023-02-16T07:42:20Z</time>
      </trkpt>
      <trkpt lat="45.44408" lon="5.62791">
        <ele>422</ele>
        <time>2023-02-16T07:42:21Z</time>
      </trkpt>
      <trkpt lat="45.44403" lon="5.62791">
        <ele>422</ele>
        <time>2023-02-16T07:42:22Z</time>
      </trkpt>
      <trkpt lat="45.44399" lon="5.62792">
        <ele>422</ele>
        <time>2023-02-16T07:42:23Z</time>
      </trkpt>
      <trkpt lat="45.44394" lon="5.62793">
        <ele>422</ele>
        <time>2023-02-16T07:42:24Z</time>
      </trkpt>
      <trkpt lat="45.4439" lon="5.62789">
        <ele>422</ele>
        <time>2023-02-16T07:42:25Z</time>
      </trkpt>
      <trkpt lat="45.44386" lon="5.62785">
        <ele>422</ele>
        <time>2023-02-16T07:42:26Z</time>
      </trkpt>
      <trkpt lat="45.44383" lon="5.62781">
        <ele>422</ele>
        <time>2023-02-16T07:42:27Z</time>
      </trkpt>
      <trkpt lat="45.44379" lon="5.62778">
        <ele>422</ele>
        <time>2023-02-16T07:42:28Z</time>
      </trkpt>
      <trkpt lat="45.44375" lon="5.62774">
        <ele>422</ele>
        <time>2023-02-16T07:42:29Z</time>
      </trkpt>
      <trkpt lat="45.44372" lon="5.6277">
        <ele>422</ele>
        <time>2023-02-16T07:42:30Z</time>
      </trkpt>
      <trkpt lat="45.44371" lon="5.62765">
        <ele>422</ele>
        <time>2023-02-16T07:42:31Z</time>
      </trkpt>
      <trkpt lat="45.4437" lon="5.62759">
        <ele>422</ele>
        <time>2023-02-16T07:42:32Z</time>
      </trkpt>
      <trkpt lat="45.4437" lon="5.62753">
        <ele>422</ele>
        <time>2023-02-16T07:42:33Z</time>
      </trkpt>
      <trkpt lat="45.4437" lon="5.62748">
        <ele>422</ele>
        <time>2023-02-16T07:42:34Z</time>
      </trkpt>
      <trkpt lat="45.4437" lon="5.62743">
        <ele>422</ele>
        <time>2023-02-16T07:42:35Z</time>
      </trkpt>
      <trkpt lat="45.4437" lon="5.62738">
        <ele>422</ele>
        <time>2023-02-16T07:42:36Z</time>
      </trkpt>
      <trkpt lat="45.44371" lon="5.62733">
        <ele>422</ele>
        <time>2023-02-16T07:42:37Z</time>
      </trkpt>
      <trkpt lat="45.44372" lon="5.62727">
        <ele>422</ele>
        <time>2023-02-16T07:42:38Z</time>
      </trkpt>
      <trkpt lat="45.44373" lon="5.62721">
        <ele>422</ele>
        <time>2023-02-16T07:42:39Z</time>
      </trkpt>
      <trkpt lat="45.44373" lon="5.62715">
        <ele>422</ele>
        <time>2023-02-16T07:42:40Z</time>
      </trkpt>
      <trkpt lat="45.44374" lon="5.62709">
        <ele>422</ele>
        <time>2023-02-16T07:42:41Z</time>
      </trkpt>
      <trkpt lat="45.44375" lon="5.62703">
        <ele>422</ele>
        <time>2023-02-16T07:42:42Z</time>
      </trkpt>
      <trkpt lat="45.44376" lon="5.62698">
        <ele>422</ele>
        <time>2023-02-16T07:42:43Z</time>
      </trkpt>
      <trkpt lat="45.44377" lon="5.62692">
        <ele>422</ele>
        <time>2023-02-16T07:42:44Z</time>
      </trkpt>
      <trkpt lat="45.44378" lon="5.62686">
        <ele>422</ele>
        <time>2023-02-16T07:42:45Z</time>
      </trkpt>
      <trkpt lat="45.44379" lon="5.6268">
        <ele>422</ele>
        <time>2023-02-16T07:42:46Z</time>
      </trkpt>
      <trkpt lat="45.4438" lon="5.62675">
        <ele>422</ele>
        <time>2023-02-16T07:42:47Z</time>
      </trkpt>
      <trkpt lat="45.44381" lon="5.6267">
        <ele>422</ele>
        <time>2023-02-16T07:42:48Z</time>
      </trkpt>
      <trkpt lat="45.44381" lon="5.62664">
        <ele>422</ele>
        <time>2023-02-16T07:42:49Z</time>
      </trkpt>
      <trkpt lat="45.44382" lon="5.62659">
        <ele>422</ele>
        <time>2023-02-16T07:42:50Z</time>
      </trkpt>
      <trkpt lat="45.44382" lon="5.62654">
        <ele>422</ele>
        <time>2023-02-16T07:42:51Z</time>
      </trkpt>
      <trkpt lat="45.44383" lon="5.62649">
        <ele>422</ele>
        <time>2023-02-16T07:42:52Z</time>
      </trkpt>
      <trkpt lat="45.44384" lon="5.62644">
        <ele>422</ele>
        <time>2023-02-16T07:42:53Z</time>
      </trkpt>
      <trkpt lat="45.44385" lon="5.62639">
        <ele>423</ele>
        <time>2023-02-16T07:42:54Z</time>
      </trkpt>
      <trkpt lat="45.44385" lon="5.62634">
        <ele>423</ele>
        <time>2023-02-16T07:42:55Z</time>
      </trkpt>
      <trkpt lat="45.44386" lon="5.62629">
        <ele>423</ele>
        <time>2023-02-16T07:42:56Z</time>
      </trkpt>
      <trkpt lat="45.44386" lon="5.62623">
        <ele>423</ele>
        <time>2023-02-16T07:42:57Z</time>
      </trkpt>
      <trkpt lat="45.44386" lon="5.62618">
        <ele>423</ele>
        <time>2023-02-16T07:42:58Z</time>
      </trkpt>
      <trkpt lat="45.44387" lon="5.62613">
        <ele>423</ele>
        <time>2023-02-16T07:42:59Z</time>
      </trkpt>
      <trkpt lat="45.44388" lon="5.62608">
        <ele>423</ele>
        <time>2023-02-16T07:43:00Z</time>
      </trkpt>
      <trkpt lat="45.44388" lon="5.62602">
        <ele>424</ele>
        <time>2023-02-16T07:43:01Z</time>
      </trkpt>
      <trkpt lat="45.44389" lon="5.62597">
        <ele>424</ele>
        <time>2023-02-16T07:43:02Z</time>
      </trkpt>
      <trkpt lat="45.44389" lon="5.62592">
        <ele>424</ele>
        <time>2023-02-16T07:43:03Z</time>
      </trkpt>
      <trkpt lat="45.4439" lon="5.62587">
        <ele>424</ele>
        <time>2023-02-16T07:43:04Z</time>
      </trkpt>
      <trkpt lat="45.4439" lon="5.62582">
        <ele>424</ele>
        <time>2023-02-16T07:43:05Z</time>
      </trkpt>
      <trkpt lat="45.44391" lon="5.62577">
        <ele>425</ele>
        <time>2023-02-16T07:43:06Z</time>
      </trkpt>
      <trkpt lat="45.44391" lon="5.62571">
        <ele>426</ele>
        <time>2023-02-16T07:43:07Z</time>
      </trkpt>
      <trkpt lat="45.44392" lon="5.62566">
        <ele>426</ele>
        <time>2023-02-16T07:43:08Z</time>
      </trkpt>
      <trkpt lat="45.44393" lon="5.62561">
        <ele>426</ele>
        <time>2023-02-16T07:43:09Z</time>
      </trkpt>
      <trkpt lat="45.44394" lon="5.62555">
        <ele>426</ele>
        <time>2023-02-16T07:43:10Z</time>
      </trkpt>
      <trkpt lat="45.44395" lon="5.6255">
        <ele>426</ele>
        <time>2023-02-16T07:43:11Z</time>
      </trkpt>
      <trkpt lat="45.44396" lon="5.62544">
        <ele>426</ele>
        <time>2023-02-16T07:43:12Z</time>
      </trkpt>
      <trkpt lat="45.44397" lon="5.6254">
        <ele>426</ele>
        <time>2023-02-16T07:43:13Z</time>
      </trkpt>
      <trkpt lat="45.44398" lon="5.62535">
        <ele>426</ele>
        <time>2023-02-16T07:43:14Z</time>
      </trkpt>
      <trkpt lat="45.44399" lon="5.6253">
        <ele>426</ele>
        <time>2023-02-16T07:43:15Z</time>
      </trkpt>
      <trkpt lat="45.444" lon="5.62525">
        <ele>427</ele>
        <time>2023-02-16T07:43:16Z</time>
      </trkpt>
      <trkpt lat="45.444" lon="5.6252">
        <ele>427</ele>
        <time>2023-02-16T07:43:17Z</time>
      </trkpt>
      <trkpt lat="45.44401" lon="5.62516">
        <ele>427</ele>
        <time>2023-02-16T07:43:18Z</time>
      </trkpt>
      <trkpt lat="45.44402" lon="5.62511">
        <ele>427</ele>
        <time>2023-02-16T07:43:19Z</time>
      </trkpt>
      <trkpt lat="45.44402" lon="5.62506">
        <ele>427</ele>
        <time>2023-02-16T07:43:20Z</time>
      </trkpt>
      <trkpt lat="45.44403" lon="5.62501">
        <ele>427</ele>
        <time>2023-02-16T07:43:21Z</time>
      </trkpt>
      <trkpt lat="45.44403" lon="5.62496">
        <ele>427</ele>
        <time>2023-02-16T07:43:22Z</time>
      </trkpt>
      <trkpt lat="45.44404" lon="5.6249">
        <ele>427</ele>
        <time>2023-02-16T07:43:23Z</time>
      </trkpt>
      <trkpt lat="45.44404" lon="5.62484">
        <ele>427</ele>
        <time>2023-02-16T07:43:24Z</time>
      </trkpt>
      <trkpt lat="45.44404" lon="5.62479">
        <ele>427</ele>
        <time>2023-02-16T07:43:25Z</time>
      </trkpt>
      <trkpt lat="45.44403" lon="5.62473">
        <ele>427</ele>
        <time>2023-02-16T07:43:26Z</time>
      </trkpt>
      <trkpt lat="45.44403" lon="5.62468">
        <ele>427</ele>
        <time>2023-02-16T07:43:27Z</time>
      </trkpt>
      <trkpt lat="45.44403" lon="5.62463">
        <ele>427</ele>
        <time>2023-02-16T07:43:28Z</time>
      </trkpt>
      <trkpt lat="45.44402" lon="5.62458">
        <ele>427</ele>
        <time>2023-02-16T07:43:29Z</time>
      </trkpt>
      <trkpt lat="45.44402" lon="5.62453">
        <ele>427</ele>
        <time>2023-02-16T07:43:30Z</time>
      </trkpt>
      <trkpt lat="45.44401" lon="5.62448">
        <ele>428</ele>
        <time>2023-02-16T07:43:31Z</time>
      </trkpt>
      <trkpt lat="45.44401" lon="5.62443">
        <ele>428</ele>
        <time>2023-02-16T07:43:32Z</time>
      </trkpt>
      <trkpt lat="45.444" lon="5.62438">
        <ele>428</ele>
        <time>2023-02-16T07:43:33Z</time>
      </trkpt>
      <trkpt lat="45.44399" lon="5.62433">
        <ele>428</ele>
        <time>2023-02-16T07:43:34Z</time>
      </trkpt>
      <trkpt lat="45.44398" lon="5.62428">
        <ele>428</ele>
        <time>2023-02-16T07:43:35Z</time>
      </trkpt>
      <trkpt lat="45.44397" lon="5.62423">
        <ele>428</ele>
        <time>2023-02-16T07:43:36Z</time>
      </trkpt>
      <trkpt lat="45.44396" lon="5.62418">
        <ele>428</ele>
        <time>2023-02-16T07:43:37Z</time>
      </trkpt>
      <trkpt lat="45.44395" lon="5.62413">
        <ele>428</ele>
        <time>2023-02-16T07:43:38Z</time>
      </trkpt>
      <trkpt lat="45.44395" lon="5.62408">
        <ele>428</ele>
        <time>2023-02-16T07:43:39Z</time>
      </trkpt>
      <trkpt lat="45.44394" lon="5.62403">
        <ele>428</ele>
        <time>2023-02-16T07:43:40Z</time>
      </trkpt>
      <trkpt lat="45.44393" lon="5.62398">
        <ele>428</ele>
        <time>2023-02-16T07:43:41Z</time>
      </trkpt>
      <trkpt lat="45.44393" lon="5.62393">
        <ele>428</ele>
        <time>2023-02-16T07:43:42Z</time>
      </trkpt>
      <trkpt lat="45.44392" lon="5.62388">
        <ele>428</ele>
        <time>2023-02-16T07:43:43Z</time>
      </trkpt>
      <trkpt lat="45.44391" lon="5.62383">
        <ele>428</ele>
        <time>2023-02-16T07:43:44Z</time>
      </trkpt>
      <trkpt lat="45.44389" lon="5.62378">
        <ele>428</ele>
        <time>2023-02-16T07:43:45Z</time>
      </trkpt>
      <trkpt lat="45.44388" lon="5.62373">
        <ele>428</ele>
        <time>2023-02-16T07:43:46Z</time>
      </trkpt>
      <trkpt lat="45.44386" lon="5.62368">
        <ele>428</ele>
        <time>2023-02-16T07:43:47Z</time>
      </trkpt>
      <trkpt lat="45.44385" lon="5.62363">
        <ele>428</ele>
        <time>2023-02-16T07:43:48Z</time>
      </trkpt>
      <trkpt lat="45.44384" lon="5.62358">
        <ele>428</ele>
        <time>2023-02-16T07:43:49Z</time>
      </trkpt>
      <trkpt lat="45.44382" lon="5.62353">
        <ele>428</ele>
        <time>2023-02-16T07:43:50Z</time>
      </trkpt>
      <trkpt lat="45.44381" lon="5.62348">
        <ele>428</ele>
        <time>2023-02-16T07:43:51Z</time>
      </trkpt>
      <trkpt lat="45.4438" lon="5.62343">
        <ele>429</ele>
        <time>2023-02-16T07:43:52Z</time>
      </trkpt>
      <trkpt lat="45.44378" lon="5.62338">
        <ele>429</ele>
        <time>2023-02-16T07:43:53Z</time>
      </trkpt>
      <trkpt lat="45.44377" lon="5.62333">
        <ele>429</ele>
        <time>2023-02-16T07:43:54Z</time>
      </trkpt>
      <trkpt lat="45.44375" lon="5.62328">
        <ele>429</ele>
        <time>2023-02-16T07:43:55Z</time>
      </trkpt>
      <trkpt lat="45.44374" lon="5.62323">
        <ele>429</ele>
        <time>2023-02-16T07:43:56Z</time>
      </trkpt>
      <trkpt lat="45.44373" lon="5.62318">
        <ele>429</ele>
        <time>2023-02-16T07:43:57Z</time>
      </trkpt>
      <trkpt lat="45.44372" lon="5.62313">
        <ele>429</ele>
        <time>2023-02-16T07:43:58Z</time>
      </trkpt>
      <trkpt lat="45.44371" lon="5.62308">
        <ele>429</ele>
        <time>2023-02-16T07:43:59Z</time>
      </trkpt>
      <trkpt lat="45.44371" lon="5.62302">
        <ele>429</ele>
        <time>2023-02-16T07:44:00Z</time>
      </trkpt>
      <trkpt lat="45.44371" lon="5.62297">
        <ele>429</ele>
        <time>2023-02-16T07:44:01Z</time>
      </trkpt>
      <trkpt lat="45.44372" lon="5.62292">
        <ele>429</ele>
        <time>2023-02-16T07:44:02Z</time>
      </trkpt>
      <trkpt lat="45.44373" lon="5.62287">
        <ele>430</ele>
        <time>2023-02-16T07:44:03Z</time>
      </trkpt>
      <trkpt lat="45.44374" lon="5.62281">
        <ele>430</ele>
        <time>2023-02-16T07:44:04Z</time>
      </trkpt>
      <trkpt lat="45.44375" lon="5.62276">
        <ele>430</ele>
        <time>2023-02-16T07:44:05Z</time>
      </trkpt>
      <trkpt lat="45.44376" lon="5.62271">
        <ele>430</ele>
        <time>2023-02-16T07:44:06Z</time>
      </trkpt>
      <trkpt lat="45.44378" lon="5.62266">
        <ele>430</ele>
        <time>2023-02-16T07:44:07Z</time>
      </trkpt>
      <trkpt lat="45.4438" lon="5.62261">
        <ele>430</ele>
        <time>2023-02-16T07:44:08Z</time>
      </trkpt>
      <trkpt lat="45.4438" lon="5.62256">
        <ele>430</ele>
        <time>2023-02-16T07:44:09Z</time>
      </trkpt>
      <trkpt lat="45.44381" lon="5.6225">
        <ele>430</ele>
        <time>2023-02-16T07:44:10Z</time>
      </trkpt>
      <trkpt lat="45.44381" lon="5.62245">
        <ele>430</ele>
        <time>2023-02-16T07:44:11Z</time>
      </trkpt>
      <trkpt lat="45.44382" lon="5.6224">
        <ele>430</ele>
        <time>2023-02-16T07:44:12Z</time>
      </trkpt>
      <trkpt lat="45.44382" lon="5.62234">
        <ele>430</ele>
        <time>2023-02-16T07:44:13Z</time>
      </trkpt>
      <trkpt lat="45.44382" lon="5.62229">
        <ele>430</ele>
        <time>2023-02-16T07:44:14Z</time>
      </trkpt>
      <trkpt lat="45.44382" lon="5.62223">
        <ele>430</ele>
        <time>2023-02-16T07:44:15Z</time>
      </trkpt>
      <trkpt lat="45.44383" lon="5.62218">
        <ele>431</ele>
        <time>2023-02-16T07:44:16Z</time>
      </trkpt>
      <trkpt lat="45.44382" lon="5.62212">
        <ele>431</ele>
        <time>2023-02-16T07:44:17Z</time>
      </trkpt>
      <trkpt lat="45.44382" lon="5.62207">
        <ele>431</ele>
        <time>2023-02-16T07:44:18Z</time>
      </trkpt>
      <trkpt lat="45.44382" lon="5.62202">
        <ele>431</ele>
        <time>2023-02-16T07:44:19Z</time>
      </trkpt>
      <trkpt lat="45.44382" lon="5.62197">
        <ele>431</ele>
        <time>2023-02-16T07:44:20Z</time>
      </trkpt>
      <trkpt lat="45.44382" lon="5.62191">
        <ele>431</ele>
        <time>2023-02-16T07:44:21Z</time>
      </trkpt>
      <trkpt lat="45.44381" lon="5.62186">
        <ele>431</ele>
        <time>2023-02-16T07:44:22Z</time>
      </trkpt>
      <trkpt lat="45.4438" lon="5.6218">
        <ele>431</ele>
        <time>2023-02-16T07:44:23Z</time>
      </trkpt>
      <trkpt lat="45.4438" lon="5.62175">
        <ele>432</ele>
        <time>2023-02-16T07:44:24Z</time>
      </trkpt>
      <trkpt lat="45.44379" lon="5.62169">
        <ele>432</ele>
        <time>2023-02-16T07:44:25Z</time>
      </trkpt>
      <trkpt lat="45.44378" lon="5.62164">
        <ele>432</ele>
        <time>2023-02-16T07:44:26Z</time>
      </trkpt>
      <trkpt lat="45.44377" lon="5.62159">
        <ele>432</ele>
        <time>2023-02-16T07:44:27Z</time>
      </trkpt>
      <trkpt lat="45.44376" lon="5.62155">
        <ele>432</ele>
        <time>2023-02-16T07:44:28Z</time>
      </trkpt>
      <trkpt lat="45.44373" lon="5.62152">
        <ele>432</ele>
        <time>2023-02-16T07:44:29Z</time>
      </trkpt>
      <trkpt lat="45.4437" lon="5.62152">
        <ele>432</ele>
        <time>2023-02-16T07:44:30Z</time>
      </trkpt>
      <trkpt lat="45.44367" lon="5.62153">
        <ele>433</ele>
        <time>2023-02-16T07:44:31Z</time>
      </trkpt>
      <trkpt lat="45.44363" lon="5.62154">
        <ele>433</ele>
        <time>2023-02-16T07:44:32Z</time>
      </trkpt>
      <trkpt lat="45.44358" lon="5.62154">
        <ele>434</ele>
        <time>2023-02-16T07:44:33Z</time>
      </trkpt>
      <trkpt lat="45.44354" lon="5.62154">
        <ele>434</ele>
        <time>2023-02-16T07:44:34Z</time>
      </trkpt>
      <trkpt lat="45.4435" lon="5.62155">
        <ele>434</ele>
        <time>2023-02-16T07:44:35Z</time>
      </trkpt>
      <trkpt lat="45.44346" lon="5.62154">
        <ele>434</ele>
        <time>2023-02-16T07:44:36Z</time>
      </trkpt>
      <trkpt lat="45.44342" lon="5.62153">
        <ele>434</ele>
        <time>2023-02-16T07:44:37Z</time>
      </trkpt>
      <trkpt lat="45.44339" lon="5.62152">
        <ele>434</ele>
        <time>2023-02-16T07:44:38Z</time>
      </trkpt>
      <trkpt lat="45.44335" lon="5.62151">
        <ele>434</ele>
        <time>2023-02-16T07:44:39Z</time>
      </trkpt>
      <trkpt lat="45.44332" lon="5.6215">
        <ele>434</ele>
        <time>2023-02-16T07:44:40Z</time>
      </trkpt>
      <trkpt lat="45.44328" lon="5.62148">
        <ele>434</ele>
        <time>2023-02-16T07:44:41Z</time>
      </trkpt>
      <trkpt lat="45.44325" lon="5.62147">
        <ele>434</ele>
        <time>2023-02-16T07:44:42Z</time>
      </trkpt>
      <trkpt lat="45.44322" lon="5.62146">
        <ele>434</ele>
        <time>2023-02-16T07:44:43Z</time>
      </trkpt>
      <trkpt lat="45.44319" lon="5.62145">
        <ele>434</ele>
        <time>2023-02-16T07:44:44Z</time>
      </trkpt>
      <trkpt lat="45.44316" lon="5.62143">
        <ele>435</ele>
        <time>2023-02-16T07:44:45Z</time>
      </trkpt>
      <trkpt lat="45.44312" lon="5.62143">
        <ele>435</ele>
        <time>2023-02-16T07:44:46Z</time>
      </trkpt>
      <trkpt lat="45.44309" lon="5.62142">
        <ele>435</ele>
        <time>2023-02-16T07:44:47Z</time>
      </trkpt>
      <trkpt lat="45.44305" lon="5.6214">
        <ele>435</ele>
        <time>2023-02-16T07:44:48Z</time>
      </trkpt>
      <trkpt lat="45.44302" lon="5.62139">
        <ele>436</ele>
        <time>2023-02-16T07:44:49Z</time>
      </trkpt>
      <trkpt lat="45.44299" lon="5.62138">
        <ele>436</ele>
        <time>2023-02-16T07:44:50Z</time>
      </trkpt>
      <trkpt lat="45.44295" lon="5.62136">
        <ele>436</ele>
        <time>2023-02-16T07:44:51Z</time>
      </trkpt>
      <trkpt lat="45.44291" lon="5.62135">
        <ele>436</ele>
        <time>2023-02-16T07:44:52Z</time>
      </trkpt>
      <trkpt lat="45.44288" lon="5.62134">
        <ele>436</ele>
        <time>2023-02-16T07:44:53Z</time>
      </trkpt>
      <trkpt lat="45.44284" lon="5.62133">
        <ele>437</ele>
        <time>2023-02-16T07:44:54Z</time>
      </trkpt>
      <trkpt lat="45.44281" lon="5.62133">
        <ele>437</ele>
        <time>2023-02-16T07:44:55Z</time>
      </trkpt>
      <trkpt lat="45.44277" lon="5.62132">
        <ele>437</ele>
        <time>2023-02-16T07:44:56Z</time>
      </trkpt>
      <trkpt lat="45.44274" lon="5.62131">
        <ele>437</ele>
        <time>2023-02-16T07:44:57Z</time>
      </trkpt>
      <trkpt lat="45.4427" lon="5.62131">
        <ele>437</ele>
        <time>2023-02-16T07:44:58Z</time>
      </trkpt>
      <trkpt lat="45.44267" lon="5.6213">
        <ele>437</ele>
        <time>2023-02-16T07:44:59Z</time>
      </trkpt>
      <trkpt lat="45.44263" lon="5.62129">
        <ele>437</ele>
        <time>2023-02-16T07:45:00Z</time>
      </trkpt>
      <trkpt lat="45.4426" lon="5.62128">
        <ele>437</ele>
        <time>2023-02-16T07:45:01Z</time>
      </trkpt>
      <trkpt lat="45.44257" lon="5.62127">
        <ele>437</ele>
        <time>2023-02-16T07:45:02Z</time>
      </trkpt>
      <trkpt lat="45.44253" lon="5.62126">
        <ele>437</ele>
        <time>2023-02-16T07:45:03Z</time>
      </trkpt>
      <trkpt lat="45.4425" lon="5.62125">
        <ele>437</ele>
        <time>2023-02-16T07:45:04Z</time>
      </trkpt>
      <trkpt lat="45.44247" lon="5.62124">
        <ele>439</ele>
        <time>2023-02-16T07:45:05Z</time>
      </trkpt>
      <trkpt lat="45.44244" lon="5.62123">
        <ele>439</ele>
        <time>2023-02-16T07:45:06Z</time>
      </trkpt>
      <trkpt lat="45.44242" lon="5.62121">
        <ele>439</ele>
        <time>2023-02-16T07:45:07Z</time>
      </trkpt>
      <trkpt lat="45.44239" lon="5.6212">
        <ele>439</ele>
        <time>2023-02-16T07:45:08Z</time>
      </trkpt>
      <trkpt lat="45.44237" lon="5.62119">
        <ele>439</ele>
        <time>2023-02-16T07:45:09Z</time>
      </trkpt>
      <trkpt lat="45.44234" lon="5.62118">
        <ele>440</ele>
        <time>2023-02-16T07:45:10Z</time>
      </trkpt>
      <trkpt lat="45.44232" lon="5.62118">
        <ele>440</ele>
        <time>2023-02-16T07:45:11Z</time>
      </trkpt>
      <trkpt lat="45.44229" lon="5.62117">
        <ele>440</ele>
        <time>2023-02-16T07:45:12Z</time>
      </trkpt>
      <trkpt lat="45.44227" lon="5.62116">
        <ele>440</ele>
        <time>2023-02-16T07:45:13Z</time>
      </trkpt>
      <trkpt lat="45.44225" lon="5.62115">
        <ele>440</ele>
        <time>2023-02-16T07:45:14Z</time>
      </trkpt>
      <trkpt lat="45.44222" lon="5.62114">
        <ele>441</ele>
        <time>2023-02-16T07:45:15Z</time>
      </trkpt>
      <trkpt lat="45.4422" lon="5.62113">
        <ele>441</ele>
        <time>2023-02-16T07:45:16Z</time>
      </trkpt>
      <trkpt lat="45.44218" lon="5.62113">
        <ele>441</ele>
        <time>2023-02-16T07:45:17Z</time>
      </trkpt>
      <trkpt lat="45.44216" lon="5.62113">
        <ele>441</ele>
        <time>2023-02-16T07:45:18Z</time>
      </trkpt>
      <trkpt lat="45.44213" lon="5.62113">
        <ele>442</ele>
        <time>2023-02-16T07:45:19Z</time>
      </trkpt>
      <trkpt lat="45.44211" lon="5.62112">
        <ele>442</ele>
        <time>2023-02-16T07:45:20Z</time>
      </trkpt>
      <trkpt lat="45.44209" lon="5.62112">
        <ele>442</ele>
        <time>2023-02-16T07:45:21Z</time>
      </trkpt>
      <trkpt lat="45.44199" lon="5.62114">
        <ele>443</ele>
        <time>2023-02-16T07:45:25Z</time>
      </trkpt>
      <trkpt lat="45.44189" lon="5.62116">
        <ele>443</ele>
        <time>2023-02-16T07:45:29Z</time>
      </trkpt>
      <trkpt lat="45.44182" lon="5.62116">
        <ele>445</ele>
        <time>2023-02-16T07:45:31Z</time>
      </trkpt>
      <trkpt lat="45.44179" lon="5.62115">
        <ele>445</ele>
        <time>2023-02-16T07:45:32Z</time>
      </trkpt>
      <trkpt lat="45.44175" lon="5.62114">
        <ele>446</ele>
        <time>2023-02-16T07:45:33Z</time>
      </trkpt>
      <trkpt lat="45.44172" lon="5.62115">
        <ele>446</ele>
        <time>2023-02-16T07:45:34Z</time>
      </trkpt>
      <trkpt lat="45.44168" lon="5.62116">
        <ele>446</ele>
        <time>2023-02-16T07:45:35Z</time>
      </trkpt>
      <trkpt lat="45.44165" lon="5.62117">
        <ele>446</ele>
        <time>2023-02-16T07:45:36Z</time>
      </trkpt>
      <trkpt lat="45.44162" lon="5.62119">
        <ele>446</ele>
        <time>2023-02-16T07:45:37Z</time>
      </trkpt>
      <trkpt lat="45.44159" lon="5.6212">
        <ele>446</ele>
        <time>2023-02-16T07:45:38Z</time>
      </trkpt>
      <trkpt lat="45.44155" lon="5.62121">
        <ele>445</ele>
        <time>2023-02-16T07:45:39Z</time>
      </trkpt>
      <trkpt lat="45.44152" lon="5.62123">
        <ele>445</ele>
        <time>2023-02-16T07:45:40Z</time>
      </trkpt>
      <trkpt lat="45.44149" lon="5.62125">
        <ele>446</ele>
        <time>2023-02-16T07:45:41Z</time>
      </trkpt>
      <trkpt lat="45.44146" lon="5.62127">
        <ele>446</ele>
        <time>2023-02-16T07:45:42Z</time>
      </trkpt>
      <trkpt lat="45.44143" lon="5.62128">
        <ele>446</ele>
        <time>2023-02-16T07:45:43Z</time>
      </trkpt>
      <trkpt lat="45.44139" lon="5.62129">
        <ele>446</ele>
        <time>2023-02-16T07:45:44Z</time>
      </trkpt>
      <trkpt lat="45.44136" lon="5.62131">
        <ele>446</ele>
        <time>2023-02-16T07:45:45Z</time>
      </trkpt>
      <trkpt lat="45.44133" lon="5.62132">
        <ele>446</ele>
        <time>2023-02-16T07:45:46Z</time>
      </trkpt>
      <trkpt lat="45.44129" lon="5.62133">
        <ele>447</ele>
        <time>2023-02-16T07:45:47Z</time>
      </trkpt>
      <trkpt lat="45.44125" lon="5.62134">
        <ele>447</ele>
        <time>2023-02-16T07:45:48Z</time>
      </trkpt>
      <trkpt lat="45.44121" lon="5.62134">
        <ele>447</ele>
        <time>2023-02-16T07:45:49Z</time>
      </trkpt>
      <trkpt lat="45.44118" lon="5.62135">
        <ele>447</ele>
        <time>2023-02-16T07:45:50Z</time>
      </trkpt>
      <trkpt lat="45.44114" lon="5.62136">
        <ele>447</ele>
        <time>2023-02-16T07:45:51Z</time>
      </trkpt>
      <trkpt lat="45.4411" lon="5.62136">
        <ele>447</ele>
        <time>2023-02-16T07:45:52Z</time>
      </trkpt>
      <trkpt lat="45.44107" lon="5.62137">
        <ele>447</ele>
        <time>2023-02-16T07:45:53Z</time>
      </trkpt>
      <trkpt lat="45.44103" lon="5.62137">
        <ele>447</ele>
        <time>2023-02-16T07:45:54Z</time>
      </trkpt>
      <trkpt lat="45.441" lon="5.62137">
        <ele>447</ele>
        <time>2023-02-16T07:45:55Z</time>
      </trkpt>
      <trkpt lat="45.44096" lon="5.62137">
        <ele>448</ele>
        <time>2023-02-16T07:45:56Z</time>
      </trkpt>
      <trkpt lat="45.44093" lon="5.62137">
        <ele>448</ele>
        <time>2023-02-16T07:45:57Z</time>
      </trkpt>
      <trkpt lat="45.44089" lon="5.62137">
        <ele>448</ele>
        <time>2023-02-16T07:45:58Z</time>
      </trkpt>
      <trkpt lat="45.44086" lon="5.62136">
        <ele>448</ele>
        <time>2023-02-16T07:45:59Z</time>
      </trkpt>
      <trkpt lat="45.44083" lon="5.62136">
        <ele>448</ele>
        <time>2023-02-16T07:46:00Z</time>
      </trkpt>
      <trkpt lat="45.4408" lon="5.62135">
        <ele>448</ele>
        <time>2023-02-16T07:46:01Z</time>
      </trkpt>
      <trkpt lat="45.44077" lon="5.62134">
        <ele>448</ele>
        <time>2023-02-16T07:46:02Z</time>
      </trkpt>
      <trkpt lat="45.44073" lon="5.62133">
        <ele>448</ele>
        <time>2023-02-16T07:46:03Z</time>
      </trkpt>
      <trkpt lat="45.4407" lon="5.62132">
        <ele>449</ele>
        <time>2023-02-16T07:46:04Z</time>
      </trkpt>
      <trkpt lat="45.44067" lon="5.62131">
        <ele>450</ele>
        <time>2023-02-16T07:46:05Z</time>
      </trkpt>
      <trkpt lat="45.44064" lon="5.6213">
        <ele>450</ele>
        <time>2023-02-16T07:46:06Z</time>
      </trkpt>
      <trkpt lat="45.4406" lon="5.62128">
        <ele>450</ele>
        <time>2023-02-16T07:46:07Z</time>
      </trkpt>
      <trkpt lat="45.44057" lon="5.62126">
        <ele>450</ele>
        <time>2023-02-16T07:46:08Z</time>
      </trkpt>
      <trkpt lat="45.44054" lon="5.62125">
        <ele>450</ele>
        <time>2023-02-16T07:46:09Z</time>
      </trkpt>
      <trkpt lat="45.4405" lon="5.62123">
        <ele>450</ele>
        <time>2023-02-16T07:46:10Z</time>
      </trkpt>
      <trkpt lat="45.44046" lon="5.62122">
        <ele>450</ele>
        <time>2023-02-16T07:46:11Z</time>
      </trkpt>
      <trkpt lat="45.44043" lon="5.62121">
        <ele>450</ele>
        <time>2023-02-16T07:46:12Z</time>
      </trkpt>
      <trkpt lat="45.44039" lon="5.6212">
        <ele>450</ele>
        <time>2023-02-16T07:46:13Z</time>
      </trkpt>
      <trkpt lat="45.44036" lon="5.62119">
        <ele>450</ele>
        <time>2023-02-16T07:46:14Z</time>
      </trkpt>
      <trkpt lat="45.44032" lon="5.62118">
        <ele>450</ele>
        <time>2023-02-16T07:46:15Z</time>
      </trkpt>
      <trkpt lat="45.44028" lon="5.62117">
        <ele>450</ele>
        <time>2023-02-16T07:46:16Z</time>
      </trkpt>
      <trkpt lat="45.44025" lon="5.62116">
        <ele>451</ele>
        <time>2023-02-16T07:46:17Z</time>
      </trkpt>
      <trkpt lat="45.44021" lon="5.62114">
        <ele>451</ele>
        <time>2023-02-16T07:46:18Z</time>
      </trkpt>
      <trkpt lat="45.44017" lon="5.62113">
        <ele>451</ele>
        <time>2023-02-16T07:46:19Z</time>
      </trkpt>
      <trkpt lat="45.44014" lon="5.62112">
        <ele>451</ele>
        <time>2023-02-16T07:46:20Z</time>
      </trkpt>
      <trkpt lat="45.4401" lon="5.6211">
        <ele>451</ele>
        <time>2023-02-16T07:46:21Z</time>
      </trkpt>
      <trkpt lat="45.44007" lon="5.62109">
        <ele>451</ele>
        <time>2023-02-16T07:46:22Z</time>
      </trkpt>
      <trkpt lat="45.44003" lon="5.62108">
        <ele>451</ele>
        <time>2023-02-16T07:46:23Z</time>
      </trkpt>
      <trkpt lat="45.44" lon="5.62108">
        <ele>451</ele>
        <time>2023-02-16T07:46:24Z</time>
      </trkpt>
      <trkpt lat="45.43997" lon="5.6211">
        <ele>451</ele>
        <time>2023-02-16T07:46:25Z</time>
      </trkpt>
      <trkpt lat="45.43994" lon="5.62112">
        <ele>451</ele>
        <time>2023-02-16T07:46:26Z</time>
      </trkpt>
      <trkpt lat="45.43991" lon="5.62114">
        <ele>451</ele>
        <time>2023-02-16T07:46:27Z</time>
      </trkpt>
      <trkpt lat="45.43989" lon="5.62117">
        <ele>452</ele>
        <time>2023-02-16T07:46:28Z</time>
      </trkpt>
      <trkpt lat="45.43987" lon="5.6212">
        <ele>452</ele>
        <time>2023-02-16T07:46:29Z</time>
      </trkpt>
      <trkpt lat="45.43986" lon="5.62122">
        <ele>452</ele>
        <time>2023-02-16T07:46:30Z</time>
      </trkpt>
      <trkpt lat="45.43984" lon="5.62125">
        <ele>452</ele>
        <time>2023-02-16T07:46:31Z</time>
      </trkpt>
      <trkpt lat="45.43983" lon="5.62127">
        <ele>452</ele>
        <time>2023-02-16T07:46:32Z</time>
      </trkpt>
      <trkpt lat="45.43981" lon="5.6213">
        <ele>452</ele>
        <time>2023-02-16T07:46:33Z</time>
      </trkpt>
      <trkpt lat="45.4398" lon="5.62132">
        <ele>453</ele>
        <time>2023-02-16T07:46:34Z</time>
      </trkpt>
      <trkpt lat="45.43979" lon="5.62135">
        <ele>454</ele>
        <time>2023-02-16T07:46:35Z</time>
      </trkpt>
      <trkpt lat="45.43977" lon="5.62137">
        <ele>454</ele>
        <time>2023-02-16T07:46:36Z</time>
      </trkpt>
      <trkpt lat="45.43976" lon="5.62139">
        <ele>454</ele>
        <time>2023-02-16T07:46:37Z</time>
      </trkpt>
      <trkpt lat="45.43975" lon="5.62142">
        <ele>455</ele>
        <time>2023-02-16T07:46:38Z</time>
      </trkpt>
      <trkpt lat="45.43973" lon="5.62144">
        <ele>455</ele>
        <time>2023-02-16T07:46:39Z</time>
      </trkpt>
      <trkpt lat="45.43972" lon="5.62146">
        <ele>455</ele>
        <time>2023-02-16T07:46:40Z</time>
      </trkpt>
      <trkpt lat="45.43971" lon="5.62148">
        <ele>456</ele>
        <time>2023-02-16T07:46:41Z</time>
      </trkpt>
      <trkpt lat="45.43969" lon="5.62151">
        <ele>456</ele>
        <time>2023-02-16T07:46:42Z</time>
      </trkpt>
      <trkpt lat="45.43968" lon="5.62153">
        <ele>457</ele>
        <time>2023-02-16T07:46:43Z</time>
      </trkpt>
      <trkpt lat="45.43967" lon="5.62155">
        <ele>458</ele>
        <time>2023-02-16T07:46:44Z</time>
      </trkpt>
      <trkpt lat="45.43965" lon="5.62157">
        <ele>458</ele>
        <time>2023-02-16T07:46:45Z</time>
      </trkpt>
      <trkpt lat="45.43963" lon="5.6216">
        <ele>458</ele>
        <time>2023-02-16T07:46:46Z</time>
      </trkpt>
      <trkpt lat="45.43962" lon="5.62162">
        <ele>458</ele>
        <time>2023-02-16T07:46:47Z</time>
      </trkpt>
      <trkpt lat="45.4396" lon="5.62164">
        <ele>458</ele>
        <time>2023-02-16T07:46:48Z</time>
      </trkpt>
      <trkpt lat="45.43959" lon="5.62166">
        <ele>458</ele>
        <time>2023-02-16T07:46:49Z</time>
      </trkpt>
      <trkpt lat="45.43958" lon="5.62168">
        <ele>459</ele>
        <time>2023-02-16T07:46:50Z</time>
      </trkpt>
      <trkpt lat="45.43956" lon="5.62171">
        <ele>459</ele>
        <time>2023-02-16T07:46:51Z</time>
      </trkpt>
      <trkpt lat="45.43955" lon="5.62173">
        <ele>459</ele>
        <time>2023-02-16T07:46:52Z</time>
      </trkpt>
      <trkpt lat="45.43954" lon="5.62175">
        <ele>459</ele>
        <time>2023-02-16T07:46:53Z</time>
      </trkpt>
      <trkpt lat="45.43951" lon="5.62178">
        <ele>461</ele>
        <time>2023-02-16T07:46:55Z</time>
      </trkpt>
      <trkpt lat="45.43949" lon="5.62183">
        <ele>461</ele>
        <time>2023-02-16T07:46:57Z</time>
      </trkpt>
      <trkpt lat="45.43947" lon="5.62185">
        <ele>461</ele>
        <time>2023-02-16T07:46:58Z</time>
      </trkpt>
      <trkpt lat="45.43946" lon="5.62187">
        <ele>461</ele>
        <time>2023-02-16T07:46:59Z</time>
      </trkpt>
      <trkpt lat="45.43944" lon="5.62189">
        <ele>461</ele>
        <time>2023-02-16T07:47:00Z</time>
      </trkpt>
      <trkpt lat="45.43941" lon="5.62192">
        <ele>463</ele>
        <time>2023-02-16T07:47:02Z</time>
      </trkpt>
      <trkpt lat="45.4394" lon="5.62194">
        <ele>463</ele>
        <time>2023-02-16T07:47:03Z</time>
      </trkpt>
      <trkpt lat="45.43937" lon="5.62199">
        <ele>464</ele>
        <time>2023-02-16T07:47:05Z</time>
      </trkpt>
      <trkpt lat="45.43936" lon="5.62201">
        <ele>464</ele>
        <time>2023-02-16T07:47:06Z</time>
      </trkpt>
      <trkpt lat="45.43935" lon="5.62203">
        <ele>465</ele>
        <time>2023-02-16T07:47:07Z</time>
      </trkpt>
      <trkpt lat="45.43933" lon="5.62205">
        <ele>465</ele>
        <time>2023-02-16T07:47:08Z</time>
      </trkpt>
      <trkpt lat="45.43932" lon="5.62208">
        <ele>465</ele>
        <time>2023-02-16T07:47:09Z</time>
      </trkpt>
      <trkpt lat="45.4393" lon="5.6221">
        <ele>465</ele>
        <time>2023-02-16T07:47:10Z</time>
      </trkpt>
      <trkpt lat="45.43929" lon="5.62212">
        <ele>466</ele>
        <time>2023-02-16T07:47:11Z</time>
      </trkpt>
      <trkpt lat="45.43927" lon="5.62216">
        <ele>466</ele>
        <time>2023-02-16T07:47:13Z</time>
      </trkpt>
      <trkpt lat="45.43925" lon="5.62219">
        <ele>467</ele>
        <time>2023-02-16T07:47:14Z</time>
      </trkpt>
      <trkpt lat="45.43924" lon="5.62221">
        <ele>467</ele>
        <time>2023-02-16T07:47:15Z</time>
      </trkpt>
      <trkpt lat="45.43922" lon="5.62224">
        <ele>467</ele>
        <time>2023-02-16T07:47:16Z</time>
      </trkpt>
      <trkpt lat="45.43921" lon="5.62226">
        <ele>467</ele>
        <time>2023-02-16T07:47:17Z</time>
      </trkpt>
      <trkpt lat="45.4392" lon="5.62228">
        <ele>467</ele>
        <time>2023-02-16T07:47:18Z</time>
      </trkpt>
      <trkpt lat="45.43918" lon="5.6223">
        <ele>467</ele>
        <time>2023-02-16T07:47:19Z</time>
      </trkpt>
      <trkpt lat="45.43917" lon="5.62233">
        <ele>468</ele>
        <time>2023-02-16T07:47:20Z</time>
      </trkpt>
      <trkpt lat="45.43915" lon="5.62235">
        <ele>468</ele>
        <time>2023-02-16T07:47:21Z</time>
      </trkpt>
      <trkpt lat="45.43914" lon="5.62238">
        <ele>469</ele>
        <time>2023-02-16T07:47:22Z</time>
      </trkpt>
      <trkpt lat="45.43913" lon="5.6224">
        <ele>470</ele>
        <time>2023-02-16T07:47:23Z</time>
      </trkpt>
      <trkpt lat="45.43911" lon="5.62242">
        <ele>470</ele>
        <time>2023-02-16T07:47:24Z</time>
      </trkpt>
      <trkpt lat="45.4391" lon="5.62244">
        <ele>470</ele>
        <time>2023-02-16T07:47:25Z</time>
      </trkpt>
      <trkpt lat="45.43909" lon="5.62246">
        <ele>470</ele>
        <time>2023-02-16T07:47:26Z</time>
      </trkpt>
      <trkpt lat="45.43907" lon="5.62248">
        <ele>470</ele>
        <time>2023-02-16T07:47:27Z</time>
      </trkpt>
      <trkpt lat="45.43905" lon="5.6225">
        <ele>471</ele>
        <time>2023-02-16T07:47:28Z</time>
      </trkpt>
      <trkpt lat="45.43904" lon="5.62252">
        <ele>471</ele>
        <time>2023-02-16T07:47:29Z</time>
      </trkpt>
      <trkpt lat="45.43902" lon="5.62255">
        <ele>471</ele>
        <time>2023-02-16T07:47:30Z</time>
      </trkpt>
      <trkpt lat="45.43901" lon="5.62257">
        <ele>471</ele>
        <time>2023-02-16T07:47:31Z</time>
      </trkpt>
      <trkpt lat="45.439" lon="5.62259">
        <ele>471</ele>
        <time>2023-02-16T07:47:32Z</time>
      </trkpt>
      <trkpt lat="45.43898" lon="5.62262">
        <ele>471</ele>
        <time>2023-02-16T07:47:33Z</time>
      </trkpt>
      <trkpt lat="45.43897" lon="5.62264">
        <ele>472</ele>
        <time>2023-02-16T07:47:34Z</time>
      </trkpt>
      <trkpt lat="45.43895" lon="5.62267">
        <ele>472</ele>
        <time>2023-02-16T07:47:35Z</time>
      </trkpt>
      <trkpt lat="45.43893" lon="5.62269">
        <ele>472</ele>
        <time>2023-02-16T07:47:36Z</time>
      </trkpt>
      <trkpt lat="45.43892" lon="5.62271">
        <ele>472</ele>
        <time>2023-02-16T07:47:37Z</time>
      </trkpt>
      <trkpt lat="45.43891" lon="5.62274">
        <ele>473</ele>
        <time>2023-02-16T07:47:38Z</time>
      </trkpt>
      <trkpt lat="45.43889" lon="5.62276">
        <ele>473</ele>
        <time>2023-02-16T07:47:39Z</time>
      </trkpt>
      <trkpt lat="45.43888" lon="5.62278">
        <ele>473</ele>
        <time>2023-02-16T07:47:40Z</time>
      </trkpt>
      <trkpt lat="45.43887" lon="5.6228">
        <ele>474</ele>
        <time>2023-02-16T07:47:41Z</time>
      </trkpt>
      <trkpt lat="45.43885" lon="5.62282">
        <ele>474</ele>
        <time>2023-02-16T07:47:42Z</time>
      </trkpt>
      <trkpt lat="45.43884" lon="5.62284">
        <ele>474</ele>
        <time>2023-02-16T07:47:43Z</time>
      </trkpt>
      <trkpt lat="45.43882" lon="5.62286">
        <ele>475</ele>
        <time>2023-02-16T07:47:44Z</time>
      </trkpt>
      <trkpt lat="45.43881" lon="5.62288">
        <ele>475</ele>
        <time>2023-02-16T07:47:45Z</time>
      </trkpt>
      <trkpt lat="45.43879" lon="5.62291">
        <ele>475</ele>
        <time>2023-02-16T07:47:46Z</time>
      </trkpt>
      <trkpt lat="45.43876" lon="5.62293">
        <ele>476</ele>
        <time>2023-02-16T07:47:47Z</time>
      </trkpt>
      <trkpt lat="45.43873" lon="5.62293">
        <ele>476</ele>
        <time>2023-02-16T07:47:48Z</time>
      </trkpt>
      <trkpt lat="45.4387" lon="5.62291">
        <ele>476</ele>
        <time>2023-02-16T07:47:49Z</time>
      </trkpt>
      <trkpt lat="45.43865" lon="5.62287">
        <ele>476</ele>
        <time>2023-02-16T07:47:50Z</time>
      </trkpt>
      <trkpt lat="45.4386" lon="5.62281">
        <ele>476</ele>
        <time>2023-02-16T07:47:51Z</time>
      </trkpt>
      <trkpt lat="45.43855" lon="5.62275">
        <ele>473</ele>
        <time>2023-02-16T07:47:52Z</time>
      </trkpt>
      <trkpt lat="45.4385" lon="5.62268">
        <ele>473</ele>
        <time>2023-02-16T07:47:53Z</time>
      </trkpt>
      <trkpt lat="45.43845" lon="5.62262">
        <ele>469</ele>
        <time>2023-02-16T07:47:54Z</time>
      </trkpt>
      <trkpt lat="45.43839" lon="5.62258">
        <ele>469</ele>
        <time>2023-02-16T07:47:55Z</time>
      </trkpt>
      <trkpt lat="45.43831" lon="5.62256">
        <ele>468</ele>
        <time>2023-02-16T07:47:56Z</time>
      </trkpt>
      <trkpt lat="45.43823" lon="5.62257">
        <ele>467</ele>
        <time>2023-02-16T07:47:57Z</time>
      </trkpt>
      <trkpt lat="45.43816" lon="5.6226">
        <ele>467</ele>
        <time>2023-02-16T07:47:58Z</time>
      </trkpt>
      <trkpt lat="45.43811" lon="5.62265">
        <ele>465</ele>
        <time>2023-02-16T07:47:59Z</time>
      </trkpt>
      <trkpt lat="45.43807" lon="5.62272">
        <ele>463</ele>
        <time>2023-02-16T07:48:00Z</time>
      </trkpt>
      <trkpt lat="45.43803" lon="5.62279">
        <ele>463</ele>
        <time>2023-02-16T07:48:01Z</time>
      </trkpt>
      <trkpt lat="45.438" lon="5.62284">
        <ele>462</ele>
        <time>2023-02-16T07:48:02Z</time>
      </trkpt>
      <trkpt lat="45.43796" lon="5.62285">
        <ele>462</ele>
        <time>2023-02-16T07:48:03Z</time>
      </trkpt>
      <trkpt lat="45.43792" lon="5.62283">
        <ele>462</ele>
        <time>2023-02-16T07:48:04Z</time>
      </trkpt>
      <trkpt lat="45.43789" lon="5.62281">
        <ele>462</ele>
        <time>2023-02-16T07:48:05Z</time>
      </trkpt>
      <trkpt lat="45.43788" lon="5.62279">
        <ele>462</ele>
        <time>2023-02-16T07:48:06Z</time>
      </trkpt>
      <trkpt lat="45.43787" lon="5.62277">
        <ele>461</ele>
        <time>2023-02-16T07:48:07Z</time>
      </trkpt>
      <trkpt lat="45.43787" lon="5.62274">
        <ele>462</ele>
        <time>2023-02-16T07:48:08Z</time>
      </trkpt>
      <trkpt lat="45.43788" lon="5.62271">
        <ele>462</ele>
        <time>2023-02-16T07:48:09Z</time>
      </trkpt>
      <trkpt lat="45.43789" lon="5.62269">
        <ele>462</ele>
        <time>2023-02-16T07:48:10Z</time>
      </trkpt>
      <trkpt lat="45.43789" lon="5.62263">
        <ele>462</ele>
        <time>2023-02-16T07:48:12Z</time>
      </trkpt>
      <trkpt lat="45.4379" lon="5.6226">
        <ele>463</ele>
        <time>2023-02-16T07:48:13Z</time>
      </trkpt>
      <trkpt lat="45.4379" lon="5.62257">
        <ele>463</ele>
        <time>2023-02-16T07:48:14Z</time>
      </trkpt>
      <trkpt lat="45.43789" lon="5.62255">
        <ele>464</ele>
        <time>2023-02-16T07:48:15Z</time>
      </trkpt>
      <trkpt lat="45.43789" lon="5.62252">
        <ele>464</ele>
        <time>2023-02-16T07:48:16Z</time>
      </trkpt>
      <trkpt lat="45.43788" lon="5.6225">
        <ele>465</ele>
        <time>2023-02-16T07:48:17Z</time>
      </trkpt>
      <trkpt lat="45.43787" lon="5.62247">
        <ele>465</ele>
        <time>2023-02-16T07:48:18Z</time>
      </trkpt>
      <trkpt lat="45.43786" lon="5.62244">
        <ele>465</ele>
        <time>2023-02-16T07:48:19Z</time>
      </trkpt>
      <trkpt lat="45.43785" lon="5.6224">
        <ele>465</ele>
        <time>2023-02-16T07:48:21Z</time>
      </trkpt>
      <trkpt lat="45.43784" lon="5.62238">
        <ele>465</ele>
        <time>2023-02-16T07:48:22Z</time>
      </trkpt>
      <trkpt lat="45.43783" lon="5.62236">
        <ele>466</ele>
        <time>2023-02-16T07:48:23Z</time>
      </trkpt>
      <trkpt lat="45.43782" lon="5.62231">
        <ele>466</ele>
        <time>2023-02-16T07:48:25Z</time>
      </trkpt>
      <trkpt lat="45.43781" lon="5.62228">
        <ele>467</ele>
        <time>2023-02-16T07:48:26Z</time>
      </trkpt>
      <trkpt lat="45.4378" lon="5.62226">
        <ele>467</ele>
        <time>2023-02-16T07:48:27Z</time>
      </trkpt>
      <trkpt lat="45.43778" lon="5.62223">
        <ele>467</ele>
        <time>2023-02-16T07:48:28Z</time>
      </trkpt>
      <trkpt lat="45.43777" lon="5.6222">
        <ele>468</ele>
        <time>2023-02-16T07:48:29Z</time>
      </trkpt>
      <trkpt lat="45.43776" lon="5.62218">
        <ele>468</ele>
        <time>2023-02-16T07:48:30Z</time>
      </trkpt>
      <trkpt lat="45.43774" lon="5.62215">
        <ele>468</ele>
        <time>2023-02-16T07:48:31Z</time>
      </trkpt>
      <trkpt lat="45.43773" lon="5.62211">
        <ele>468</ele>
        <time>2023-02-16T07:48:32Z</time>
      </trkpt>
      <trkpt lat="45.43771" lon="5.62209">
        <ele>469</ele>
        <time>2023-02-16T07:48:33Z</time>
      </trkpt>
      <trkpt lat="45.4377" lon="5.62206">
        <ele>469</ele>
        <time>2023-02-16T07:48:34Z</time>
      </trkpt>
      <trkpt lat="45.43768" lon="5.62203">
        <ele>469</ele>
        <time>2023-02-16T07:48:35Z</time>
      </trkpt>
      <trkpt lat="45.43767" lon="5.622">
        <ele>469</ele>
        <time>2023-02-16T07:48:36Z</time>
      </trkpt>
      <trkpt lat="45.43765" lon="5.62196">
        <ele>469</ele>
        <time>2023-02-16T07:48:37Z</time>
      </trkpt>
      <trkpt lat="45.43764" lon="5.62193">
        <ele>469</ele>
        <time>2023-02-16T07:48:38Z</time>
      </trkpt>
      <trkpt lat="45.43763" lon="5.62189">
        <ele>470</ele>
        <time>2023-02-16T07:48:39Z</time>
      </trkpt>
      <trkpt lat="45.43762" lon="5.62185">
        <ele>470</ele>
        <time>2023-02-16T07:48:40Z</time>
      </trkpt>
      <trkpt lat="45.4376" lon="5.62182">
        <ele>470</ele>
        <time>2023-02-16T07:48:41Z</time>
      </trkpt>
      <trkpt lat="45.43759" lon="5.62177">
        <ele>470</ele>
        <time>2023-02-16T07:48:42Z</time>
      </trkpt>
      <trkpt lat="45.43758" lon="5.62173">
        <ele>470</ele>
        <time>2023-02-16T07:48:43Z</time>
      </trkpt>
      <trkpt lat="45.43757" lon="5.62169">
        <ele>470</ele>
        <time>2023-02-16T07:48:44Z</time>
      </trkpt>
      <trkpt lat="45.43756" lon="5.62166">
        <ele>470</ele>
        <time>2023-02-16T07:48:45Z</time>
      </trkpt>
      <trkpt lat="45.43755" lon="5.62162">
        <ele>470</ele>
        <time>2023-02-16T07:48:46Z</time>
      </trkpt>
      <trkpt lat="45.43755" lon="5.62159">
        <ele>470</ele>
        <time>2023-02-16T07:48:47Z</time>
      </trkpt>
      <trkpt lat="45.43754" lon="5.62155">
        <ele>470</ele>
        <time>2023-02-16T07:48:48Z</time>
      </trkpt>
      <trkpt lat="45.43753" lon="5.62151">
        <ele>471</ele>
        <time>2023-02-16T07:48:49Z</time>
      </trkpt>
      <trkpt lat="45.43752" lon="5.62148">
        <ele>471</ele>
        <time>2023-02-16T07:48:50Z</time>
      </trkpt>
      <trkpt lat="45.43751" lon="5.62144">
        <ele>471</ele>
        <time>2023-02-16T07:48:51Z</time>
      </trkpt>
      <trkpt lat="45.4375" lon="5.62141">
        <ele>472</ele>
        <time>2023-02-16T07:48:52Z</time>
      </trkpt>
      <trkpt lat="45.43749" lon="5.62137">
        <ele>473</ele>
        <time>2023-02-16T07:48:53Z</time>
      </trkpt>
      <trkpt lat="45.43748" lon="5.62134">
        <ele>473</ele>
        <time>2023-02-16T07:48:54Z</time>
      </trkpt>
      <trkpt lat="45.43747" lon="5.62131">
        <ele>473</ele>
        <time>2023-02-16T07:48:55Z</time>
      </trkpt>
      <trkpt lat="45.43745" lon="5.62128">
        <ele>474</ele>
        <time>2023-02-16T07:48:56Z</time>
      </trkpt>
      <trkpt lat="45.43743" lon="5.62125">
        <ele>474</ele>
        <time>2023-02-16T07:48:57Z</time>
      </trkpt>
      <trkpt lat="45.43742" lon="5.62123">
        <ele>474</ele>
        <time>2023-02-16T07:48:58Z</time>
      </trkpt>
      <trkpt lat="45.4374" lon="5.62121">
        <ele>474</ele>
        <time>2023-02-16T07:48:59Z</time>
      </trkpt>
      <trkpt lat="45.43738" lon="5.62119">
        <ele>474</ele>
        <time>2023-02-16T07:49:00Z</time>
      </trkpt>
      <trkpt lat="45.43737" lon="5.62115">
        <ele>474</ele>
        <time>2023-02-16T07:49:02Z</time>
      </trkpt>
      <trkpt lat="45.43737" lon="5.62114">
        <ele>474</ele>
        <time>2023-02-16T07:49:07Z</time>
      </trkpt>
      <trkpt lat="45.43735" lon="5.62102">
        <ele>473</ele>
        <time>2023-02-16T07:49:54Z</time>
      </trkpt>
      <trkpt lat="45.43734" lon="5.62097">
        <ele>473</ele>
        <time>2023-02-16T07:49:55Z</time>
      </trkpt>
      <trkpt lat="45.43732" lon="5.62093">
        <ele>473</ele>
        <time>2023-02-16T07:49:56Z</time>
      </trkpt>
      <trkpt lat="45.43731" lon="5.62088">
        <ele>473</ele>
        <time>2023-02-16T07:49:57Z</time>
      </trkpt>
      <trkpt lat="45.43729" lon="5.62084">
        <ele>473</ele>
        <time>2023-02-16T07:49:58Z</time>
      </trkpt>
      <trkpt lat="45.43727" lon="5.62079">
        <ele>473</ele>
        <time>2023-02-16T07:49:59Z</time>
      </trkpt>
      <trkpt lat="45.43725" lon="5.62074">
        <ele>474</ele>
        <time>2023-02-16T07:50:00Z</time>
      </trkpt>
      <trkpt lat="45.43724" lon="5.62069">
        <ele>474</ele>
        <time>2023-02-16T07:50:01Z</time>
      </trkpt>
      <trkpt lat="45.43722" lon="5.62064">
        <ele>473</ele>
        <time>2023-02-16T07:50:02Z</time>
      </trkpt>
      <trkpt lat="45.4372" lon="5.62059">
        <ele>472</ele>
        <time>2023-02-16T07:50:03Z</time>
      </trkpt>
      <trkpt lat="45.43718" lon="5.62054">
        <ele>472</ele>
        <time>2023-02-16T07:50:04Z</time>
      </trkpt>
      <trkpt lat="45.43716" lon="5.62048">
        <ele>473</ele>
        <time>2023-02-16T07:50:05Z</time>
      </trkpt>
      <trkpt lat="45.43714" lon="5.62043">
        <ele>473</ele>
        <time>2023-02-16T07:50:06Z</time>
      </trkpt>
      <trkpt lat="45.43712" lon="5.62037">
        <ele>474</ele>
        <time>2023-02-16T07:50:07Z</time>
      </trkpt>
      <trkpt lat="45.43709" lon="5.62031">
        <ele>474</ele>
        <time>2023-02-16T07:50:08Z</time>
      </trkpt>
      <trkpt lat="45.43707" lon="5.62025">
        <ele>474</ele>
        <time>2023-02-16T07:50:09Z</time>
      </trkpt>
      <trkpt lat="45.43704" lon="5.62018">
        <ele>474</ele>
        <time>2023-02-16T07:50:10Z</time>
      </trkpt>
      <trkpt lat="45.43701" lon="5.62011">
        <ele>474</ele>
        <time>2023-02-16T07:50:11Z</time>
      </trkpt>
      <trkpt lat="45.43698" lon="5.62004">
        <ele>474</ele>
        <time>2023-02-16T07:50:12Z</time>
      </trkpt>
      <trkpt lat="45.43695" lon="5.61997">
        <ele>474</ele>
        <time>2023-02-16T07:50:13Z</time>
      </trkpt>
      <trkpt lat="45.43692" lon="5.61989">
        <ele>472</ele>
        <time>2023-02-16T07:50:14Z</time>
      </trkpt>
      <trkpt lat="45.43689" lon="5.61981">
        <ele>472</ele>
        <time>2023-02-16T07:50:15Z</time>
      </trkpt>
      <trkpt lat="45.43685" lon="5.61973">
        <ele>472</ele>
        <time>2023-02-16T07:50:16Z</time>
      </trkpt>
      <trkpt lat="45.43681" lon="5.61965">
        <ele>472</ele>
        <time>2023-02-16T07:50:17Z</time>
      </trkpt>
      <trkpt lat="45.43677" lon="5.61956">
        <ele>472</ele>
        <time>2023-02-16T07:50:18Z</time>
      </trkpt>
      <trkpt lat="45.43673" lon="5.61947">
        <ele>472</ele>
        <time>2023-02-16T07:50:19Z</time>
      </trkpt>
      <trkpt lat="45.43669" lon="5.61938">
        <ele>472</ele>
        <time>2023-02-16T07:50:20Z</time>
      </trkpt>
      <trkpt lat="45.43665" lon="5.61928">
        <ele>471</ele>
        <time>2023-02-16T07:50:21Z</time>
      </trkpt>
      <trkpt lat="45.43661" lon="5.61919">
        <ele>471</ele>
        <time>2023-02-16T07:50:22Z</time>
      </trkpt>
      <trkpt lat="45.43656" lon="5.61909">
        <ele>471</ele>
        <time>2023-02-16T07:50:23Z</time>
      </trkpt>
      <trkpt lat="45.43651" lon="5.61899">
        <ele>471</ele>
        <time>2023-02-16T07:50:24Z</time>
      </trkpt>
      <trkpt lat="45.43646" lon="5.61889">
        <ele>470</ele>
        <time>2023-02-16T07:50:25Z</time>
      </trkpt>
      <trkpt lat="45.43641" lon="5.6188">
        <ele>470</ele>
        <time>2023-02-16T07:50:26Z</time>
      </trkpt>
      <trkpt lat="45.43636" lon="5.6187">
        <ele>470</ele>
        <time>2023-02-16T07:50:27Z</time>
      </trkpt>
      <trkpt lat="45.43632" lon="5.6186">
        <ele>469</ele>
        <time>2023-02-16T07:50:28Z</time>
      </trkpt>
      <trkpt lat="45.43627" lon="5.6185">
        <ele>469</ele>
        <time>2023-02-16T07:50:29Z</time>
      </trkpt>
      <trkpt lat="45.43622" lon="5.6184">
        <ele>469</ele>
        <time>2023-02-16T07:50:30Z</time>
      </trkpt>
      <trkpt lat="45.43618" lon="5.61829">
        <ele>468</ele>
        <time>2023-02-16T07:50:31Z</time>
      </trkpt>
      <trkpt lat="45.43614" lon="5.61819">
        <ele>468</ele>
        <time>2023-02-16T07:50:32Z</time>
      </trkpt>
      <trkpt lat="45.4361" lon="5.61809">
        <ele>468</ele>
        <time>2023-02-16T07:50:33Z</time>
      </trkpt>
      <trkpt lat="45.43606" lon="5.61799">
        <ele>468</ele>
        <time>2023-02-16T07:50:34Z</time>
      </trkpt>
      <trkpt lat="45.43602" lon="5.61789">
        <ele>468</ele>
        <time>2023-02-16T07:50:35Z</time>
      </trkpt>
      <trkpt lat="45.43598" lon="5.6178">
        <ele>468</ele>
        <time>2023-02-16T07:50:36Z</time>
      </trkpt>
      <trkpt lat="45.43594" lon="5.61771">
        <ele>467</ele>
        <time>2023-02-16T07:50:37Z</time>
      </trkpt>
      <trkpt lat="45.43589" lon="5.61762">
        <ele>467</ele>
        <time>2023-02-16T07:50:38Z</time>
      </trkpt>
      <trkpt lat="45.43585" lon="5.61754">
        <ele>467</ele>
        <time>2023-02-16T07:50:39Z</time>
      </trkpt>
      <trkpt lat="45.43581" lon="5.61746">
        <ele>467</ele>
        <time>2023-02-16T07:50:40Z</time>
      </trkpt>
      <trkpt lat="45.43576" lon="5.61738">
        <ele>467</ele>
        <time>2023-02-16T07:50:41Z</time>
      </trkpt>
      <trkpt lat="45.43572" lon="5.61731">
        <ele>467</ele>
        <time>2023-02-16T07:50:42Z</time>
      </trkpt>
      <trkpt lat="45.43568" lon="5.61724">
        <ele>467</ele>
        <time>2023-02-16T07:50:43Z</time>
      </trkpt>
      <trkpt lat="45.43564" lon="5.61717">
        <ele>468</ele>
        <time>2023-02-16T07:50:44Z</time>
      </trkpt>
      <trkpt lat="45.43561" lon="5.6171">
        <ele>468</ele>
        <time>2023-02-16T07:50:45Z</time>
      </trkpt>
      <trkpt lat="45.43557" lon="5.61703">
        <ele>468</ele>
        <time>2023-02-16T07:50:46Z</time>
      </trkpt>
      <trkpt lat="45.43554" lon="5.61697">
        <ele>468</ele>
        <time>2023-02-16T07:50:47Z</time>
      </trkpt>
      <trkpt lat="45.4355" lon="5.61691">
        <ele>468</ele>
        <time>2023-02-16T07:50:48Z</time>
      </trkpt>
      <trkpt lat="45.43547" lon="5.61685">
        <ele>469</ele>
        <time>2023-02-16T07:50:49Z</time>
      </trkpt>
      <trkpt lat="45.43543" lon="5.6168">
        <ele>469</ele>
        <time>2023-02-16T07:50:50Z</time>
      </trkpt>
      <trkpt lat="45.43539" lon="5.61674">
        <ele>469</ele>
        <time>2023-02-16T07:50:51Z</time>
      </trkpt>
      <trkpt lat="45.43536" lon="5.61669">
        <ele>469</ele>
        <time>2023-02-16T07:50:52Z</time>
      </trkpt>
      <trkpt lat="45.43532" lon="5.61663">
        <ele>469</ele>
        <time>2023-02-16T07:50:53Z</time>
      </trkpt>
      <trkpt lat="45.43529" lon="5.61658">
        <ele>469</ele>
        <time>2023-02-16T07:50:54Z</time>
      </trkpt>
      <trkpt lat="45.43525" lon="5.61653">
        <ele>469</ele>
        <time>2023-02-16T07:50:55Z</time>
      </trkpt>
      <trkpt lat="45.4352" lon="5.61648">
        <ele>470</ele>
        <time>2023-02-16T07:50:56Z</time>
      </trkpt>
      <trkpt lat="45.43516" lon="5.61644">
        <ele>470</ele>
        <time>2023-02-16T07:50:57Z</time>
      </trkpt>
      <trkpt lat="45.43511" lon="5.6164">
        <ele>470</ele>
        <time>2023-02-16T07:50:58Z</time>
      </trkpt>
      <trkpt lat="45.43507" lon="5.61637">
        <ele>470</ele>
        <time>2023-02-16T07:50:59Z</time>
      </trkpt>
      <trkpt lat="45.43502" lon="5.61633">
        <ele>470</ele>
        <time>2023-02-16T07:51:00Z</time>
      </trkpt>
      <trkpt lat="45.43497" lon="5.61628">
        <ele>470</ele>
        <time>2023-02-16T07:51:01Z</time>
      </trkpt>
      <trkpt lat="45.43493" lon="5.61624">
        <ele>470</ele>
        <time>2023-02-16T07:51:02Z</time>
      </trkpt>
      <trkpt lat="45.4349" lon="5.61618">
        <ele>470</ele>
        <time>2023-02-16T07:51:03Z</time>
      </trkpt>
      <trkpt lat="45.43488" lon="5.61611">
        <ele>470</ele>
        <time>2023-02-16T07:51:04Z</time>
      </trkpt>
      <trkpt lat="45.43488" lon="5.61603">
        <ele>470</ele>
        <time>2023-02-16T07:51:05Z</time>
      </trkpt>
      <trkpt lat="45.43489" lon="5.61596">
        <ele>470</ele>
        <time>2023-02-16T07:51:06Z</time>
      </trkpt>
      <trkpt lat="45.43491" lon="5.61589">
        <ele>471</ele>
        <time>2023-02-16T07:51:07Z</time>
      </trkpt>
      <trkpt lat="45.43494" lon="5.61582">
        <ele>471</ele>
        <time>2023-02-16T07:51:08Z</time>
      </trkpt>
      <trkpt lat="45.43497" lon="5.61574">
        <ele>471</ele>
        <time>2023-02-16T07:51:09Z</time>
      </trkpt>
      <trkpt lat="45.43499" lon="5.61566">
        <ele>471</ele>
        <time>2023-02-16T07:51:10Z</time>
      </trkpt>
      <trkpt lat="45.43501" lon="5.61557">
        <ele>471</ele>
        <time>2023-02-16T07:51:11Z</time>
      </trkpt>
      <trkpt lat="45.43504" lon="5.61549">
        <ele>471</ele>
        <time>2023-02-16T07:51:12Z</time>
      </trkpt>
      <trkpt lat="45.43505" lon="5.6154">
        <ele>470</ele>
        <time>2023-02-16T07:51:13Z</time>
      </trkpt>
      <trkpt lat="45.43507" lon="5.61531">
        <ele>470</ele>
        <time>2023-02-16T07:51:14Z</time>
      </trkpt>
      <trkpt lat="45.43509" lon="5.61522">
        <ele>470</ele>
        <time>2023-02-16T07:51:15Z</time>
      </trkpt>
      <trkpt lat="45.4351" lon="5.61512">
        <ele>470</ele>
        <time>2023-02-16T07:51:16Z</time>
      </trkpt>
      <trkpt lat="45.43511" lon="5.61503">
        <ele>470</ele>
        <time>2023-02-16T07:51:17Z</time>
      </trkpt>
      <trkpt lat="45.43512" lon="5.61493">
        <ele>470</ele>
        <time>2023-02-16T07:51:18Z</time>
      </trkpt>
      <trkpt lat="45.43513" lon="5.61483">
        <ele>470</ele>
        <time>2023-02-16T07:51:19Z</time>
      </trkpt>
      <trkpt lat="45.43514" lon="5.61474">
        <ele>470</ele>
        <time>2023-02-16T07:51:20Z</time>
      </trkpt>
      <trkpt lat="45.43515" lon="5.61464">
        <ele>470</ele>
        <time>2023-02-16T07:51:21Z</time>
      </trkpt>
      <trkpt lat="45.43516" lon="5.61454">
        <ele>470</ele>
        <time>2023-02-16T07:51:22Z</time>
      </trkpt>
      <trkpt lat="45.43517" lon="5.61444">
        <ele>470</ele>
        <time>2023-02-16T07:51:23Z</time>
      </trkpt>
      <trkpt lat="45.43518" lon="5.61433">
        <ele>470</ele>
        <time>2023-02-16T07:51:24Z</time>
      </trkpt>
      <trkpt lat="45.43519" lon="5.61423">
        <ele>469</ele>
        <time>2023-02-16T07:51:25Z</time>
      </trkpt>
      <trkpt lat="45.4352" lon="5.61413">
        <ele>469</ele>
        <time>2023-02-16T07:51:26Z</time>
      </trkpt>
      <trkpt lat="45.4352" lon="5.61403">
        <ele>469</ele>
        <time>2023-02-16T07:51:27Z</time>
      </trkpt>
      <trkpt lat="45.43521" lon="5.61392">
        <ele>469</ele>
        <time>2023-02-16T07:51:28Z</time>
      </trkpt>
      <trkpt lat="45.43521" lon="5.61382">
        <ele>469</ele>
        <time>2023-02-16T07:51:29Z</time>
      </trkpt>
      <trkpt lat="45.43522" lon="5.61371">
        <ele>469</ele>
        <time>2023-02-16T07:51:30Z</time>
      </trkpt>
      <trkpt lat="45.43522" lon="5.6136">
        <ele>469</ele>
        <time>2023-02-16T07:51:31Z</time>
      </trkpt>
      <trkpt lat="45.43523" lon="5.6135">
        <ele>469</ele>
        <time>2023-02-16T07:51:32Z</time>
      </trkpt>
      <trkpt lat="45.43523" lon="5.61339">
        <ele>468</ele>
        <time>2023-02-16T07:51:33Z</time>
      </trkpt>
      <trkpt lat="45.43524" lon="5.61328">
        <ele>468</ele>
        <time>2023-02-16T07:51:34Z</time>
      </trkpt>
      <trkpt lat="45.43524" lon="5.61317">
        <ele>467</ele>
        <time>2023-02-16T07:51:35Z</time>
      </trkpt>
      <trkpt lat="45.43524" lon="5.61306">
        <ele>467</ele>
        <time>2023-02-16T07:51:36Z</time>
      </trkpt>
      <trkpt lat="45.43524" lon="5.61296">
        <ele>467</ele>
        <time>2023-02-16T07:51:37Z</time>
      </trkpt>
      <trkpt lat="45.43523" lon="5.61285">
        <ele>466</ele>
        <time>2023-02-16T07:51:38Z</time>
      </trkpt>
      <trkpt lat="45.43523" lon="5.61274">
        <ele>466</ele>
        <time>2023-02-16T07:51:39Z</time>
      </trkpt>
      <trkpt lat="45.43522" lon="5.61263">
        <ele>466</ele>
        <time>2023-02-16T07:51:40Z</time>
      </trkpt>
      <trkpt lat="45.43521" lon="5.61252">
        <ele>466</ele>
        <time>2023-02-16T07:51:41Z</time>
      </trkpt>
      <trkpt lat="45.4352" lon="5.61241">
        <ele>464</ele>
        <time>2023-02-16T07:51:42Z</time>
      </trkpt>
      <trkpt lat="45.43519" lon="5.6123">
        <ele>464</ele>
        <time>2023-02-16T07:51:43Z</time>
      </trkpt>
      <trkpt lat="45.43516" lon="5.61219">
        <ele>463</ele>
        <time>2023-02-16T07:51:44Z</time>
      </trkpt>
      <trkpt lat="45.43512" lon="5.61196">
        <ele>463</ele>
        <time>2023-02-16T07:51:46Z</time>
      </trkpt>
      <trkpt lat="45.4351" lon="5.61185">
        <ele>462</ele>
        <time>2023-02-16T07:51:47Z</time>
      </trkpt>
      <trkpt lat="45.43508" lon="5.61173">
        <ele>462</ele>
        <time>2023-02-16T07:51:48Z</time>
      </trkpt>
      <trkpt lat="45.43506" lon="5.61161">
        <ele>461</ele>
        <time>2023-02-16T07:51:49Z</time>
      </trkpt>
      <trkpt lat="45.43504" lon="5.61149">
        <ele>461</ele>
        <time>2023-02-16T07:51:50Z</time>
      </trkpt>
      <trkpt lat="45.43502" lon="5.61136">
        <ele>460</ele>
        <time>2023-02-16T07:51:51Z</time>
      </trkpt>
      <trkpt lat="45.435" lon="5.61124">
        <ele>460</ele>
        <time>2023-02-16T07:51:52Z</time>
      </trkpt>
      <trkpt lat="45.43498" lon="5.61111">
        <ele>459</ele>
        <time>2023-02-16T07:51:53Z</time>
      </trkpt>
      <trkpt lat="45.43497" lon="5.61099">
        <ele>459</ele>
        <time>2023-02-16T07:51:54Z</time>
      </trkpt>
      <trkpt lat="45.43495" lon="5.61087">
        <ele>458</ele>
        <time>2023-02-16T07:51:55Z</time>
      </trkpt>
      <trkpt lat="45.43493" lon="5.61075">
        <ele>458</ele>
        <time>2023-02-16T07:51:56Z</time>
      </trkpt>
      <trkpt lat="45.43491" lon="5.61063">
        <ele>458</ele>
        <time>2023-02-16T07:51:57Z</time>
      </trkpt>
      <trkpt lat="45.4349" lon="5.61051">
        <ele>458</ele>
        <time>2023-02-16T07:51:58Z</time>
      </trkpt>
      <trkpt lat="45.43488" lon="5.61039">
        <ele>458</ele>
        <time>2023-02-16T07:51:59Z</time>
      </trkpt>
      <trkpt lat="45.43486" lon="5.61027">
        <ele>457</ele>
        <time>2023-02-16T07:52:00Z</time>
      </trkpt>
      <trkpt lat="45.43484" lon="5.61016">
        <ele>457</ele>
        <time>2023-02-16T07:52:01Z</time>
      </trkpt>
      <trkpt lat="45.43481" lon="5.61005">
        <ele>458</ele>
        <time>2023-02-16T07:52:02Z</time>
      </trkpt>
      <trkpt lat="45.43479" lon="5.60994">
        <ele>458</ele>
        <time>2023-02-16T07:52:03Z</time>
      </trkpt>
      <trkpt lat="45.43477" lon="5.60983">
        <ele>458</ele>
        <time>2023-02-16T07:52:04Z</time>
      </trkpt>
      <trkpt lat="45.43475" lon="5.60973">
        <ele>458</ele>
        <time>2023-02-16T07:52:05Z</time>
      </trkpt>
      <trkpt lat="45.43473" lon="5.60962">
        <ele>458</ele>
        <time>2023-02-16T07:52:06Z</time>
      </trkpt>
      <trkpt lat="45.43472" lon="5.60952">
        <ele>458</ele>
        <time>2023-02-16T07:52:07Z</time>
      </trkpt>
      <trkpt lat="45.4347" lon="5.60942">
        <ele>458</ele>
        <time>2023-02-16T07:52:08Z</time>
      </trkpt>
      <trkpt lat="45.43469" lon="5.60932">
        <ele>458</ele>
        <time>2023-02-16T07:52:09Z</time>
      </trkpt>
      <trkpt lat="45.43468" lon="5.60923">
        <ele>458</ele>
        <time>2023-02-16T07:52:10Z</time>
      </trkpt>
      <trkpt lat="45.43467" lon="5.60913">
        <ele>458</ele>
        <time>2023-02-16T07:52:11Z</time>
      </trkpt>
      <trkpt lat="45.43467" lon="5.60903">
        <ele>458</ele>
        <time>2023-02-16T07:52:12Z</time>
      </trkpt>
      <trkpt lat="45.43466" lon="5.60894">
        <ele>458</ele>
        <time>2023-02-16T07:52:13Z</time>
      </trkpt>
      <trkpt lat="45.43465" lon="5.60884">
        <ele>458</ele>
        <time>2023-02-16T07:52:14Z</time>
      </trkpt>
      <trkpt lat="45.43464" lon="5.60874">
        <ele>458</ele>
        <time>2023-02-16T07:52:15Z</time>
      </trkpt>
      <trkpt lat="45.43463" lon="5.60865">
        <ele>458</ele>
        <time>2023-02-16T07:52:16Z</time>
      </trkpt>
      <trkpt lat="45.43461" lon="5.60856">
        <ele>458</ele>
        <time>2023-02-16T07:52:17Z</time>
      </trkpt>
      <trkpt lat="45.43458" lon="5.60847">
        <ele>458</ele>
        <time>2023-02-16T07:52:18Z</time>
      </trkpt>
      <trkpt lat="45.43455" lon="5.60838">
        <ele>458</ele>
        <time>2023-02-16T07:52:19Z</time>
      </trkpt>
      <trkpt lat="45.43452" lon="5.6083">
        <ele>458</ele>
        <time>2023-02-16T07:52:20Z</time>
      </trkpt>
      <trkpt lat="45.43449" lon="5.60821">
        <ele>458</ele>
        <time>2023-02-16T07:52:21Z</time>
      </trkpt>
      <trkpt lat="45.43446" lon="5.60813">
        <ele>458</ele>
        <time>2023-02-16T07:52:22Z</time>
      </trkpt>
      <trkpt lat="45.43443" lon="5.60804">
        <ele>458</ele>
        <time>2023-02-16T07:52:23Z</time>
      </trkpt>
      <trkpt lat="45.4344" lon="5.60796">
        <ele>458</ele>
        <time>2023-02-16T07:52:24Z</time>
      </trkpt>
      <trkpt lat="45.43438" lon="5.60788">
        <ele>458</ele>
        <time>2023-02-16T07:52:25Z</time>
      </trkpt>
      <trkpt lat="45.43435" lon="5.6078">
        <ele>458</ele>
        <time>2023-02-16T07:52:26Z</time>
      </trkpt>
      <trkpt lat="45.43433" lon="5.60772">
        <ele>458</ele>
        <time>2023-02-16T07:52:27Z</time>
      </trkpt>
      <trkpt lat="45.43431" lon="5.60764">
        <ele>458</ele>
        <time>2023-02-16T07:52:28Z</time>
      </trkpt>
      <trkpt lat="45.4343" lon="5.60755">
        <ele>458</ele>
        <time>2023-02-16T07:52:29Z</time>
      </trkpt>
      <trkpt lat="45.4343" lon="5.60746">
        <ele>458</ele>
        <time>2023-02-16T07:52:30Z</time>
      </trkpt>
      <trkpt lat="45.4343" lon="5.60737">
        <ele>458</ele>
        <time>2023-02-16T07:52:31Z</time>
      </trkpt>
      <trkpt lat="45.43431" lon="5.60727">
        <ele>458</ele>
        <time>2023-02-16T07:52:32Z</time>
      </trkpt>
      <trkpt lat="45.43431" lon="5.60718">
        <ele>458</ele>
        <time>2023-02-16T07:52:33Z</time>
      </trkpt>
      <trkpt lat="45.43432" lon="5.60708">
        <ele>458</ele>
        <time>2023-02-16T07:52:34Z</time>
      </trkpt>
      <trkpt lat="45.43434" lon="5.60698">
        <ele>458</ele>
        <time>2023-02-16T07:52:35Z</time>
      </trkpt>
      <trkpt lat="45.43435" lon="5.60688">
        <ele>458</ele>
        <time>2023-02-16T07:52:36Z</time>
      </trkpt>
      <trkpt lat="45.43437" lon="5.60678">
        <ele>458</ele>
        <time>2023-02-16T07:52:37Z</time>
      </trkpt>
      <trkpt lat="45.4344" lon="5.60669">
        <ele>458</ele>
        <time>2023-02-16T07:52:38Z</time>
      </trkpt>
      <trkpt lat="45.43443" lon="5.6066">
        <ele>458</ele>
        <time>2023-02-16T07:52:39Z</time>
      </trkpt>
      <trkpt lat="45.43446" lon="5.60651">
        <ele>458</ele>
        <time>2023-02-16T07:52:40Z</time>
      </trkpt>
      <trkpt lat="45.4345" lon="5.60642">
        <ele>458</ele>
        <time>2023-02-16T07:52:41Z</time>
      </trkpt>
      <trkpt lat="45.43453" lon="5.60633">
        <ele>458</ele>
        <time>2023-02-16T07:52:42Z</time>
      </trkpt>
      <trkpt lat="45.43456" lon="5.60624">
        <ele>457</ele>
        <time>2023-02-16T07:52:43Z</time>
      </trkpt>
      <trkpt lat="45.43459" lon="5.60615">
        <ele>457</ele>
        <time>2023-02-16T07:52:44Z</time>
      </trkpt>
      <trkpt lat="45.43461" lon="5.60607">
        <ele>457</ele>
        <time>2023-02-16T07:52:45Z</time>
      </trkpt>
      <trkpt lat="45.43463" lon="5.60598">
        <ele>457</ele>
        <time>2023-02-16T07:52:46Z</time>
      </trkpt>
      <trkpt lat="45.43465" lon="5.6059">
        <ele>458</ele>
        <time>2023-02-16T07:52:47Z</time>
      </trkpt>
      <trkpt lat="45.43466" lon="5.60582">
        <ele>458</ele>
        <time>2023-02-16T07:52:48Z</time>
      </trkpt>
      <trkpt lat="45.43467" lon="5.60574">
        <ele>458</ele>
        <time>2023-02-16T07:52:49Z</time>
      </trkpt>
      <trkpt lat="45.43468" lon="5.60567">
        <ele>458</ele>
        <time>2023-02-16T07:52:50Z</time>
      </trkpt>
      <trkpt lat="45.4347" lon="5.60559">
        <ele>458</ele>
        <time>2023-02-16T07:52:51Z</time>
      </trkpt>
      <trkpt lat="45.4347" lon="5.60552">
        <ele>458</ele>
        <time>2023-02-16T07:52:52Z</time>
      </trkpt>
      <trkpt lat="45.43471" lon="5.60545">
        <ele>458</ele>
        <time>2023-02-16T07:52:53Z</time>
      </trkpt>
      <trkpt lat="45.43471" lon="5.60538">
        <ele>458</ele>
        <time>2023-02-16T07:52:54Z</time>
      </trkpt>
      <trkpt lat="45.43471" lon="5.60531">
        <ele>458</ele>
        <time>2023-02-16T07:52:55Z</time>
      </trkpt>
      <trkpt lat="45.4347" lon="5.60524">
        <ele>458</ele>
        <time>2023-02-16T07:52:56Z</time>
      </trkpt>
      <trkpt lat="45.43469" lon="5.60517">
        <ele>459</ele>
        <time>2023-02-16T07:52:57Z</time>
      </trkpt>
      <trkpt lat="45.43468" lon="5.6051">
        <ele>459</ele>
        <time>2023-02-16T07:52:58Z</time>
      </trkpt>
      <trkpt lat="45.43468" lon="5.60503">
        <ele>460</ele>
        <time>2023-02-16T07:52:59Z</time>
      </trkpt>
      <trkpt lat="45.43467" lon="5.60497">
        <ele>461</ele>
        <time>2023-02-16T07:53:00Z</time>
      </trkpt>
      <trkpt lat="45.43466" lon="5.60491">
        <ele>461</ele>
        <time>2023-02-16T07:53:01Z</time>
      </trkpt>
      <trkpt lat="45.43465" lon="5.60484">
        <ele>462</ele>
        <time>2023-02-16T07:53:02Z</time>
      </trkpt>
      <trkpt lat="45.43464" lon="5.60478">
        <ele>463</ele>
        <time>2023-02-16T07:53:03Z</time>
      </trkpt>
      <trkpt lat="45.43463" lon="5.60472">
        <ele>463</ele>
        <time>2023-02-16T07:53:04Z</time>
      </trkpt>
      <trkpt lat="45.43462" lon="5.60467">
        <ele>463</ele>
        <time>2023-02-16T07:53:05Z</time>
      </trkpt>
      <trkpt lat="45.43462" lon="5.60461">
        <ele>463</ele>
        <time>2023-02-16T07:53:06Z</time>
      </trkpt>
      <trkpt lat="45.43461" lon="5.60455">
        <ele>463</ele>
        <time>2023-02-16T07:53:07Z</time>
      </trkpt>
      <trkpt lat="45.43461" lon="5.60449">
        <ele>463</ele>
        <time>2023-02-16T07:53:08Z</time>
      </trkpt>
      <trkpt lat="45.4346" lon="5.60444">
        <ele>463</ele>
        <time>2023-02-16T07:53:09Z</time>
      </trkpt>
      <trkpt lat="45.43461" lon="5.60439">
        <ele>463</ele>
        <time>2023-02-16T07:53:10Z</time>
      </trkpt>
      <trkpt lat="45.4346" lon="5.60433">
        <ele>464</ele>
        <time>2023-02-16T07:53:11Z</time>
      </trkpt>
      <trkpt lat="45.4346" lon="5.60419">
        <ele>463</ele>
        <time>2023-02-16T07:53:13Z</time>
      </trkpt>
      <trkpt lat="45.43459" lon="5.60413">
        <ele>463</ele>
        <time>2023-02-16T07:53:14Z</time>
      </trkpt>
      <trkpt lat="45.43458" lon="5.60406">
        <ele>463</ele>
        <time>2023-02-16T07:53:15Z</time>
      </trkpt>
      <trkpt lat="45.43457" lon="5.60399">
        <ele>463</ele>
        <time>2023-02-16T07:53:16Z</time>
      </trkpt>
      <trkpt lat="45.43456" lon="5.60393">
        <ele>463</ele>
        <time>2023-02-16T07:53:17Z</time>
      </trkpt>
      <trkpt lat="45.43455" lon="5.60387">
        <ele>463</ele>
        <time>2023-02-16T07:53:18Z</time>
      </trkpt>
      <trkpt lat="45.43453" lon="5.6038">
        <ele>463</ele>
        <time>2023-02-16T07:53:19Z</time>
      </trkpt>
      <trkpt lat="45.43452" lon="5.60375">
        <ele>463</ele>
        <time>2023-02-16T07:53:20Z</time>
      </trkpt>
      <trkpt lat="45.4345" lon="5.60369">
        <ele>464</ele>
        <time>2023-02-16T07:53:21Z</time>
      </trkpt>
      <trkpt lat="45.43448" lon="5.60363">
        <ele>464</ele>
        <time>2023-02-16T07:53:22Z</time>
      </trkpt>
      <trkpt lat="45.43446" lon="5.60357">
        <ele>464</ele>
        <time>2023-02-16T07:53:23Z</time>
      </trkpt>
      <trkpt lat="45.43444" lon="5.60351">
        <ele>464</ele>
        <time>2023-02-16T07:53:24Z</time>
      </trkpt>
      <trkpt lat="45.43442" lon="5.60344">
        <ele>464</ele>
        <time>2023-02-16T07:53:25Z</time>
      </trkpt>
      <trkpt lat="45.4344" lon="5.60336">
        <ele>464</ele>
        <time>2023-02-16T07:53:26Z</time>
      </trkpt>
      <trkpt lat="45.43438" lon="5.60328">
        <ele>464</ele>
        <time>2023-02-16T07:53:27Z</time>
      </trkpt>
      <trkpt lat="45.43435" lon="5.6032">
        <ele>463</ele>
        <time>2023-02-16T07:53:28Z</time>
      </trkpt>
      <trkpt lat="45.43432" lon="5.60311">
        <ele>463</ele>
        <time>2023-02-16T07:53:29Z</time>
      </trkpt>
      <trkpt lat="45.43429" lon="5.60302">
        <ele>463</ele>
        <time>2023-02-16T07:53:30Z</time>
      </trkpt>
      <trkpt lat="45.43425" lon="5.60293">
        <ele>463</ele>
        <time>2023-02-16T07:53:31Z</time>
      </trkpt>
      <trkpt lat="45.43421" lon="5.60283">
        <ele>462</ele>
        <time>2023-02-16T07:53:32Z</time>
      </trkpt>
      <trkpt lat="45.43417" lon="5.60273">
        <ele>461</ele>
        <time>2023-02-16T07:53:33Z</time>
      </trkpt>
      <trkpt lat="45.43413" lon="5.60262">
        <ele>461</ele>
        <time>2023-02-16T07:53:34Z</time>
      </trkpt>
      <trkpt lat="45.4341" lon="5.60252">
        <ele>460</ele>
        <time>2023-02-16T07:53:35Z</time>
      </trkpt>
      <trkpt lat="45.43406" lon="5.60241">
        <ele>460</ele>
        <time>2023-02-16T07:53:36Z</time>
      </trkpt>
      <trkpt lat="45.43403" lon="5.60229">
        <ele>460</ele>
        <time>2023-02-16T07:53:37Z</time>
      </trkpt>
      <trkpt lat="45.43401" lon="5.60218">
        <ele>459</ele>
        <time>2023-02-16T07:53:38Z</time>
      </trkpt>
      <trkpt lat="45.43398" lon="5.60206">
        <ele>459</ele>
        <time>2023-02-16T07:53:39Z</time>
      </trkpt>
      <trkpt lat="45.43396" lon="5.60195">
        <ele>458</ele>
        <time>2023-02-16T07:53:40Z</time>
      </trkpt>
      <trkpt lat="45.43393" lon="5.60183">
        <ele>458</ele>
        <time>2023-02-16T07:53:41Z</time>
      </trkpt>
      <trkpt lat="45.4339" lon="5.60171">
        <ele>458</ele>
        <time>2023-02-16T07:53:42Z</time>
      </trkpt>
      <trkpt lat="45.43387" lon="5.60159">
        <ele>457</ele>
        <time>2023-02-16T07:53:43Z</time>
      </trkpt>
      <trkpt lat="45.43384" lon="5.60147">
        <ele>456</ele>
        <time>2023-02-16T07:53:44Z</time>
      </trkpt>
      <trkpt lat="45.43381" lon="5.60134">
        <ele>456</ele>
        <time>2023-02-16T07:53:45Z</time>
      </trkpt>
      <trkpt lat="45.43378" lon="5.60122">
        <ele>456</ele>
        <time>2023-02-16T07:53:46Z</time>
      </trkpt>
      <trkpt lat="45.43375" lon="5.6011">
        <ele>456</ele>
        <time>2023-02-16T07:53:47Z</time>
      </trkpt>
      <trkpt lat="45.43372" lon="5.60098">
        <ele>455</ele>
        <time>2023-02-16T07:53:48Z</time>
      </trkpt>
      <trkpt lat="45.43369" lon="5.60086">
        <ele>455</ele>
        <time>2023-02-16T07:53:49Z</time>
      </trkpt>
      <trkpt lat="45.43367" lon="5.60074">
        <ele>455</ele>
        <time>2023-02-16T07:53:50Z</time>
      </trkpt>
      <trkpt lat="45.43365" lon="5.60062">
        <ele>454</ele>
        <time>2023-02-16T07:53:51Z</time>
      </trkpt>
      <trkpt lat="45.43363" lon="5.6005">
        <ele>454</ele>
        <time>2023-02-16T07:53:52Z</time>
      </trkpt>
      <trkpt lat="45.43362" lon="5.60037">
        <ele>454</ele>
        <time>2023-02-16T07:53:53Z</time>
      </trkpt>
      <trkpt lat="45.43361" lon="5.60025">
        <ele>453</ele>
        <time>2023-02-16T07:53:54Z</time>
      </trkpt>
      <trkpt lat="45.4336" lon="5.60012">
        <ele>453</ele>
        <time>2023-02-16T07:53:55Z</time>
      </trkpt>
      <trkpt lat="45.43359" lon="5.6">
        <ele>453</ele>
        <time>2023-02-16T07:53:56Z</time>
      </trkpt>
      <trkpt lat="45.43358" lon="5.59988">
        <ele>453</ele>
        <time>2023-02-16T07:53:57Z</time>
      </trkpt>
      <trkpt lat="45.43358" lon="5.59975">
        <ele>453</ele>
        <time>2023-02-16T07:53:58Z</time>
      </trkpt>
      <trkpt lat="45.43358" lon="5.59963">
        <ele>453</ele>
        <time>2023-02-16T07:53:59Z</time>
      </trkpt>
      <trkpt lat="45.43357" lon="5.5995">
        <ele>451</ele>
        <time>2023-02-16T07:54:00Z</time>
      </trkpt>
      <trkpt lat="45.43357" lon="5.59937">
        <ele>451</ele>
        <time>2023-02-16T07:54:01Z</time>
      </trkpt>
      <trkpt lat="45.43356" lon="5.59924">
        <ele>450</ele>
        <time>2023-02-16T07:54:02Z</time>
      </trkpt>
      <trkpt lat="45.43356" lon="5.59911">
        <ele>450</ele>
        <time>2023-02-16T07:54:03Z</time>
      </trkpt>
      <trkpt lat="45.43356" lon="5.59897">
        <ele>450</ele>
        <time>2023-02-16T07:54:04Z</time>
      </trkpt>
      <trkpt lat="45.43356" lon="5.59884">
        <ele>450</ele>
        <time>2023-02-16T07:54:05Z</time>
      </trkpt>
      <trkpt lat="45.43356" lon="5.59871">
        <ele>449</ele>
        <time>2023-02-16T07:54:06Z</time>
      </trkpt>
      <trkpt lat="45.43356" lon="5.59858">
        <ele>448</ele>
        <time>2023-02-16T07:54:07Z</time>
      </trkpt>
      <trkpt lat="45.43356" lon="5.59846">
        <ele>448</ele>
        <time>2023-02-16T07:54:08Z</time>
      </trkpt>
      <trkpt lat="45.43356" lon="5.59833">
        <ele>448</ele>
        <time>2023-02-16T07:54:09Z</time>
      </trkpt>
      <trkpt lat="45.43357" lon="5.59821">
        <ele>448</ele>
        <time>2023-02-16T07:54:10Z</time>
      </trkpt>
      <trkpt lat="45.43357" lon="5.5981">
        <ele>448</ele>
        <time>2023-02-16T07:54:11Z</time>
      </trkpt>
      <trkpt lat="45.43358" lon="5.59799">
        <ele>448</ele>
        <time>2023-02-16T07:54:12Z</time>
      </trkpt>
      <trkpt lat="45.43359" lon="5.59788">
        <ele>448</ele>
        <time>2023-02-16T07:54:13Z</time>
      </trkpt>
      <trkpt lat="45.4336" lon="5.59778">
        <ele>449</ele>
        <time>2023-02-16T07:54:14Z</time>
      </trkpt>
      <trkpt lat="45.43361" lon="5.59768">
        <ele>449</ele>
        <time>2023-02-16T07:54:15Z</time>
      </trkpt>
      <trkpt lat="45.43362" lon="5.59759">
        <ele>449</ele>
        <time>2023-02-16T07:54:16Z</time>
      </trkpt>
      <trkpt lat="45.43363" lon="5.5975">
        <ele>449</ele>
        <time>2023-02-16T07:54:17Z</time>
      </trkpt>
      <trkpt lat="45.43364" lon="5.59741">
        <ele>449</ele>
        <time>2023-02-16T07:54:18Z</time>
      </trkpt>
      <trkpt lat="45.43365" lon="5.59732">
        <ele>450</ele>
        <time>2023-02-16T07:54:19Z</time>
      </trkpt>
      <trkpt lat="45.43365" lon="5.59723">
        <ele>450</ele>
        <time>2023-02-16T07:54:20Z</time>
      </trkpt>
      <trkpt lat="45.43366" lon="5.59715">
        <ele>450</ele>
        <time>2023-02-16T07:54:21Z</time>
      </trkpt>
      <trkpt lat="45.43366" lon="5.59706">
        <ele>449</ele>
        <time>2023-02-16T07:54:22Z</time>
      </trkpt>
      <trkpt lat="45.43365" lon="5.59697">
        <ele>449</ele>
        <time>2023-02-16T07:54:23Z</time>
      </trkpt>
      <trkpt lat="45.43365" lon="5.59689">
        <ele>449</ele>
        <time>2023-02-16T07:54:24Z</time>
      </trkpt>
      <trkpt lat="45.43365" lon="5.5968">
        <ele>450</ele>
        <time>2023-02-16T07:54:25Z</time>
      </trkpt>
      <trkpt lat="45.43364" lon="5.59672">
        <ele>450</ele>
        <time>2023-02-16T07:54:26Z</time>
      </trkpt>
      <trkpt lat="45.43363" lon="5.59664">
        <ele>450</ele>
        <time>2023-02-16T07:54:27Z</time>
      </trkpt>
      <trkpt lat="45.43363" lon="5.59656">
        <ele>450</ele>
        <time>2023-02-16T07:54:28Z</time>
      </trkpt>
      <trkpt lat="45.43362" lon="5.59647">
        <ele>450</ele>
        <time>2023-02-16T07:54:29Z</time>
      </trkpt>
      <trkpt lat="45.43362" lon="5.59639">
        <ele>450</ele>
        <time>2023-02-16T07:54:30Z</time>
      </trkpt>
      <trkpt lat="45.43362" lon="5.59631">
        <ele>450</ele>
        <time>2023-02-16T07:54:31Z</time>
      </trkpt>
      <trkpt lat="45.43362" lon="5.59622">
        <ele>450</ele>
        <time>2023-02-16T07:54:32Z</time>
      </trkpt>
      <trkpt lat="45.43362" lon="5.59613">
        <ele>450</ele>
        <time>2023-02-16T07:54:33Z</time>
      </trkpt>
      <trkpt lat="45.43363" lon="5.59604">
        <ele>450</ele>
        <time>2023-02-16T07:54:34Z</time>
      </trkpt>
      <trkpt lat="45.43363" lon="5.59595">
        <ele>450</ele>
        <time>2023-02-16T07:54:35Z</time>
      </trkpt>
      <trkpt lat="45.43363" lon="5.59586">
        <ele>450</ele>
        <time>2023-02-16T07:54:36Z</time>
      </trkpt>
      <trkpt lat="45.43363" lon="5.59577">
        <ele>450</ele>
        <time>2023-02-16T07:54:37Z</time>
      </trkpt>
      <trkpt lat="45.43363" lon="5.59568">
        <ele>450</ele>
        <time>2023-02-16T07:54:38Z</time>
      </trkpt>
      <trkpt lat="45.43363" lon="5.5956">
        <ele>450</ele>
        <time>2023-02-16T07:54:39Z</time>
      </trkpt>
      <trkpt lat="45.43363" lon="5.59551">
        <ele>450</ele>
        <time>2023-02-16T07:54:40Z</time>
      </trkpt>
      <trkpt lat="45.43363" lon="5.59542">
        <ele>450</ele>
        <time>2023-02-16T07:54:41Z</time>
      </trkpt>
      <trkpt lat="45.43363" lon="5.59533">
        <ele>450</ele>
        <time>2023-02-16T07:54:42Z</time>
      </trkpt>
      <trkpt lat="45.43363" lon="5.59525">
        <ele>450</ele>
        <time>2023-02-16T07:54:43Z</time>
      </trkpt>
      <trkpt lat="45.43363" lon="5.59516">
        <ele>450</ele>
        <time>2023-02-16T07:54:44Z</time>
      </trkpt>
      <trkpt lat="45.43363" lon="5.59508">
        <ele>450</ele>
        <time>2023-02-16T07:54:45Z</time>
      </trkpt>
      <trkpt lat="45.43364" lon="5.59499">
        <ele>450</ele>
        <time>2023-02-16T07:54:46Z</time>
      </trkpt>
      <trkpt lat="45.43364" lon="5.59491">
        <ele>450</ele>
        <time>2023-02-16T07:54:47Z</time>
      </trkpt>
      <trkpt lat="45.43365" lon="5.59483">
        <ele>450</ele>
        <time>2023-02-16T07:54:48Z</time>
      </trkpt>
      <trkpt lat="45.43365" lon="5.59474">
        <ele>450</ele>
        <time>2023-02-16T07:54:49Z</time>
      </trkpt>
      <trkpt lat="45.43365" lon="5.59466">
        <ele>450</ele>
        <time>2023-02-16T07:54:50Z</time>
      </trkpt>
      <trkpt lat="45.43365" lon="5.59458">
        <ele>450</ele>
        <time>2023-02-16T07:54:51Z</time>
      </trkpt>
      <trkpt lat="45.43364" lon="5.5945">
        <ele>451</ele>
        <time>2023-02-16T07:54:52Z</time>
      </trkpt>
      <trkpt lat="45.43363" lon="5.59442">
        <ele>451</ele>
        <time>2023-02-16T07:54:53Z</time>
      </trkpt>
      <trkpt lat="45.43362" lon="5.59435">
        <ele>451</ele>
        <time>2023-02-16T07:54:54Z</time>
      </trkpt>
      <trkpt lat="45.43361" lon="5.59427">
        <ele>451</ele>
        <time>2023-02-16T07:54:55Z</time>
      </trkpt>
      <trkpt lat="45.4336" lon="5.59419">
        <ele>451</ele>
        <time>2023-02-16T07:54:56Z</time>
      </trkpt>
      <trkpt lat="45.43359" lon="5.5941">
        <ele>451</ele>
        <time>2023-02-16T07:54:57Z</time>
      </trkpt>
      <trkpt lat="45.43358" lon="5.59402">
        <ele>451</ele>
        <time>2023-02-16T07:54:58Z</time>
      </trkpt>
      <trkpt lat="45.43356" lon="5.59394">
        <ele>451</ele>
        <time>2023-02-16T07:54:59Z</time>
      </trkpt>
      <trkpt lat="45.43355" lon="5.59387">
        <ele>451</ele>
        <time>2023-02-16T07:55:00Z</time>
      </trkpt>
      <trkpt lat="45.43354" lon="5.59379">
        <ele>451</ele>
        <time>2023-02-16T07:55:01Z</time>
      </trkpt>
      <trkpt lat="45.43352" lon="5.59371">
        <ele>451</ele>
        <time>2023-02-16T07:55:02Z</time>
      </trkpt>
      <trkpt lat="45.4335" lon="5.59363">
        <ele>451</ele>
        <time>2023-02-16T07:55:03Z</time>
      </trkpt>
      <trkpt lat="45.43349" lon="5.59356">
        <ele>451</ele>
        <time>2023-02-16T07:55:04Z</time>
      </trkpt>
      <trkpt lat="45.43347" lon="5.59348">
        <ele>452</ele>
        <time>2023-02-16T07:55:05Z</time>
      </trkpt>
      <trkpt lat="45.43345" lon="5.59341">
        <ele>452</ele>
        <time>2023-02-16T07:55:06Z</time>
      </trkpt>
      <trkpt lat="45.43344" lon="5.59333">
        <ele>452</ele>
        <time>2023-02-16T07:55:07Z</time>
      </trkpt>
      <trkpt lat="45.43342" lon="5.59326">
        <ele>453</ele>
        <time>2023-02-16T07:55:08Z</time>
      </trkpt>
      <trkpt lat="45.4334" lon="5.59319">
        <ele>453</ele>
        <time>2023-02-16T07:55:09Z</time>
      </trkpt>
      <trkpt lat="45.43338" lon="5.59312">
        <ele>453</ele>
        <time>2023-02-16T07:55:10Z</time>
      </trkpt>
      <trkpt lat="45.43336" lon="5.59305">
        <ele>453</ele>
        <time>2023-02-16T07:55:11Z</time>
      </trkpt>
      <trkpt lat="45.43334" lon="5.59299">
        <ele>454</ele>
        <time>2023-02-16T07:55:12Z</time>
      </trkpt>
      <trkpt lat="45.43331" lon="5.59293">
        <ele>454</ele>
        <time>2023-02-16T07:55:13Z</time>
      </trkpt>
      <trkpt lat="45.43329" lon="5.59287">
        <ele>454</ele>
        <time>2023-02-16T07:55:14Z</time>
      </trkpt>
      <trkpt lat="45.43327" lon="5.59281">
        <ele>455</ele>
        <time>2023-02-16T07:55:15Z</time>
      </trkpt>
      <trkpt lat="45.43325" lon="5.59275">
        <ele>455</ele>
        <time>2023-02-16T07:55:16Z</time>
      </trkpt>
      <trkpt lat="45.43323" lon="5.59269">
        <ele>455</ele>
        <time>2023-02-16T07:55:17Z</time>
      </trkpt>
      <trkpt lat="45.4332" lon="5.59262">
        <ele>455</ele>
        <time>2023-02-16T07:55:18Z</time>
      </trkpt>
      <trkpt lat="45.43318" lon="5.59256">
        <ele>455</ele>
        <time>2023-02-16T07:55:19Z</time>
      </trkpt>
      <trkpt lat="45.43315" lon="5.59249">
        <ele>455</ele>
        <time>2023-02-16T07:55:20Z</time>
      </trkpt>
      <trkpt lat="45.43312" lon="5.59243">
        <ele>455</ele>
        <time>2023-02-16T07:55:21Z</time>
      </trkpt>
      <trkpt lat="45.43308" lon="5.59236">
        <ele>455</ele>
        <time>2023-02-16T07:55:22Z</time>
      </trkpt>
      <trkpt lat="45.43305" lon="5.59229">
        <ele>455</ele>
        <time>2023-02-16T07:55:23Z</time>
      </trkpt>
      <trkpt lat="45.43302" lon="5.59222">
        <ele>455</ele>
        <time>2023-02-16T07:55:24Z</time>
      </trkpt>
      <trkpt lat="45.433" lon="5.59214">
        <ele>455</ele>
        <time>2023-02-16T07:55:25Z</time>
      </trkpt>
      <trkpt lat="45.43298" lon="5.59206">
        <ele>455</ele>
        <time>2023-02-16T07:55:26Z</time>
      </trkpt>
      <trkpt lat="45.43297" lon="5.59198">
        <ele>455</ele>
        <time>2023-02-16T07:55:27Z</time>
      </trkpt>
      <trkpt lat="45.43295" lon="5.59189">
        <ele>455</ele>
        <time>2023-02-16T07:55:28Z</time>
      </trkpt>
      <trkpt lat="45.43293" lon="5.59181">
        <ele>455</ele>
        <time>2023-02-16T07:55:29Z</time>
      </trkpt>
      <trkpt lat="45.43291" lon="5.59172">
        <ele>455</ele>
        <time>2023-02-16T07:55:30Z</time>
      </trkpt>
      <trkpt lat="45.43289" lon="5.59163">
        <ele>454</ele>
        <time>2023-02-16T07:55:31Z</time>
      </trkpt>
      <trkpt lat="45.43287" lon="5.59155">
        <ele>454</ele>
        <time>2023-02-16T07:55:32Z</time>
      </trkpt>
      <trkpt lat="45.43284" lon="5.59146">
        <ele>454</ele>
        <time>2023-02-16T07:55:33Z</time>
      </trkpt>
      <trkpt lat="45.43281" lon="5.59137">
        <ele>454</ele>
        <time>2023-02-16T07:55:34Z</time>
      </trkpt>
      <trkpt lat="45.43279" lon="5.59128">
        <ele>453</ele>
        <time>2023-02-16T07:55:35Z</time>
      </trkpt>
      <trkpt lat="45.43277" lon="5.5912">
        <ele>453</ele>
        <time>2023-02-16T07:55:36Z</time>
      </trkpt>
      <trkpt lat="45.43275" lon="5.59111">
        <ele>453</ele>
        <time>2023-02-16T07:55:37Z</time>
      </trkpt>
      <trkpt lat="45.43273" lon="5.59103">
        <ele>453</ele>
        <time>2023-02-16T07:55:38Z</time>
      </trkpt>
      <trkpt lat="45.4327" lon="5.59095">
        <ele>453</ele>
        <time>2023-02-16T07:55:39Z</time>
      </trkpt>
      <trkpt lat="45.43268" lon="5.59087">
        <ele>452</ele>
        <time>2023-02-16T07:55:40Z</time>
      </trkpt>
      <trkpt lat="45.43265" lon="5.59079">
        <ele>452</ele>
        <time>2023-02-16T07:55:41Z</time>
      </trkpt>
      <trkpt lat="45.43263" lon="5.59072">
        <ele>452</ele>
        <time>2023-02-16T07:55:42Z</time>
      </trkpt>
      <trkpt lat="45.4326" lon="5.59064">
        <ele>452</ele>
        <time>2023-02-16T07:55:43Z</time>
      </trkpt>
      <trkpt lat="45.43256" lon="5.59057">
        <ele>452</ele>
        <time>2023-02-16T07:55:44Z</time>
      </trkpt>
      <trkpt lat="45.43253" lon="5.5905">
        <ele>452</ele>
        <time>2023-02-16T07:55:45Z</time>
      </trkpt>
      <trkpt lat="45.43249" lon="5.59044">
        <ele>452</ele>
        <time>2023-02-16T07:55:46Z</time>
      </trkpt>
      <trkpt lat="45.43246" lon="5.59038">
        <ele>453</ele>
        <time>2023-02-16T07:55:47Z</time>
      </trkpt>
      <trkpt lat="45.43242" lon="5.59032">
        <ele>453</ele>
        <time>2023-02-16T07:55:48Z</time>
      </trkpt>
      <trkpt lat="45.43237" lon="5.59027">
        <ele>453</ele>
        <time>2023-02-16T07:55:49Z</time>
      </trkpt>
      <trkpt lat="45.43233" lon="5.59021">
        <ele>453</ele>
        <time>2023-02-16T07:55:50Z</time>
      </trkpt>
      <trkpt lat="45.43228" lon="5.59016">
        <ele>453</ele>
        <time>2023-02-16T07:55:51Z</time>
      </trkpt>
      <trkpt lat="45.43224" lon="5.59011">
        <ele>453</ele>
        <time>2023-02-16T07:55:52Z</time>
      </trkpt>
      <trkpt lat="45.43219" lon="5.59006">
        <ele>453</ele>
        <time>2023-02-16T07:55:53Z</time>
      </trkpt>
      <trkpt lat="45.43214" lon="5.59001">
        <ele>453</ele>
        <time>2023-02-16T07:55:54Z</time>
      </trkpt>
      <trkpt lat="45.43209" lon="5.58995">
        <ele>453</ele>
        <time>2023-02-16T07:55:55Z</time>
      </trkpt>
      <trkpt lat="45.43205" lon="5.5899">
        <ele>453</ele>
        <time>2023-02-16T07:55:56Z</time>
      </trkpt>
      <trkpt lat="45.432" lon="5.58984">
        <ele>453</ele>
        <time>2023-02-16T07:55:57Z</time>
      </trkpt>
      <trkpt lat="45.43196" lon="5.58978">
        <ele>453</ele>
        <time>2023-02-16T07:55:58Z</time>
      </trkpt>
      <trkpt lat="45.43192" lon="5.58972">
        <ele>453</ele>
        <time>2023-02-16T07:55:59Z</time>
      </trkpt>
      <trkpt lat="45.43189" lon="5.58965">
        <ele>453</ele>
        <time>2023-02-16T07:56:00Z</time>
      </trkpt>
      <trkpt lat="45.43186" lon="5.58957">
        <ele>453</ele>
        <time>2023-02-16T07:56:01Z</time>
      </trkpt>
      <trkpt lat="45.43183" lon="5.58949">
        <ele>453</ele>
        <time>2023-02-16T07:56:02Z</time>
      </trkpt>
      <trkpt lat="45.43181" lon="5.58941">
        <ele>453</ele>
        <time>2023-02-16T07:56:03Z</time>
      </trkpt>
      <trkpt lat="45.43179" lon="5.58933">
        <ele>453</ele>
        <time>2023-02-16T07:56:04Z</time>
      </trkpt>
      <trkpt lat="45.43177" lon="5.58925">
        <ele>453</ele>
        <time>2023-02-16T07:56:05Z</time>
      </trkpt>
      <trkpt lat="45.43175" lon="5.58916">
        <ele>453</ele>
        <time>2023-02-16T07:56:06Z</time>
      </trkpt>
      <trkpt lat="45.43174" lon="5.58908">
        <ele>453</ele>
        <time>2023-02-16T07:56:07Z</time>
      </trkpt>
      <trkpt lat="45.43172" lon="5.589">
        <ele>453</ele>
        <time>2023-02-16T07:56:08Z</time>
      </trkpt>
      <trkpt lat="45.4317" lon="5.58891">
        <ele>453</ele>
        <time>2023-02-16T07:56:09Z</time>
      </trkpt>
      <trkpt lat="45.43168" lon="5.58883">
        <ele>453</ele>
        <time>2023-02-16T07:56:10Z</time>
      </trkpt>
      <trkpt lat="45.43165" lon="5.58876">
        <ele>453</ele>
        <time>2023-02-16T07:56:11Z</time>
      </trkpt>
      <trkpt lat="45.43163" lon="5.58868">
        <ele>453</ele>
        <time>2023-02-16T07:56:12Z</time>
      </trkpt>
      <trkpt lat="45.43161" lon="5.5886">
        <ele>453</ele>
        <time>2023-02-16T07:56:13Z</time>
      </trkpt>
      <trkpt lat="45.43158" lon="5.58852">
        <ele>453</ele>
        <time>2023-02-16T07:56:14Z</time>
      </trkpt>
      <trkpt lat="45.43156" lon="5.58845">
        <ele>453</ele>
        <time>2023-02-16T07:56:15Z</time>
      </trkpt>
      <trkpt lat="45.43153" lon="5.58837">
        <ele>453</ele>
        <time>2023-02-16T07:56:16Z</time>
      </trkpt>
      <trkpt lat="45.43151" lon="5.5883">
        <ele>453</ele>
        <time>2023-02-16T07:56:17Z</time>
      </trkpt>
      <trkpt lat="45.43149" lon="5.58822">
        <ele>453</ele>
        <time>2023-02-16T07:56:18Z</time>
      </trkpt>
      <trkpt lat="45.43146" lon="5.58814">
        <ele>453</ele>
        <time>2023-02-16T07:56:19Z</time>
      </trkpt>
      <trkpt lat="45.43144" lon="5.58806">
        <ele>453</ele>
        <time>2023-02-16T07:56:20Z</time>
      </trkpt>
      <trkpt lat="45.43142" lon="5.58798">
        <ele>453</ele>
        <time>2023-02-16T07:56:21Z</time>
      </trkpt>
      <trkpt lat="45.4314" lon="5.5879">
        <ele>453</ele>
        <time>2023-02-16T07:56:22Z</time>
      </trkpt>
      <trkpt lat="45.43138" lon="5.58783">
        <ele>453</ele>
        <time>2023-02-16T07:56:23Z</time>
      </trkpt>
      <trkpt lat="45.43136" lon="5.58775">
        <ele>453</ele>
        <time>2023-02-16T07:56:24Z</time>
      </trkpt>
      <trkpt lat="45.43135" lon="5.58767">
        <ele>453</ele>
        <time>2023-02-16T07:56:25Z</time>
      </trkpt>
      <trkpt lat="45.43134" lon="5.5876">
        <ele>453</ele>
        <time>2023-02-16T07:56:26Z</time>
      </trkpt>
      <trkpt lat="45.43133" lon="5.58752">
        <ele>453</ele>
        <time>2023-02-16T07:56:27Z</time>
      </trkpt>
      <trkpt lat="45.43132" lon="5.58745">
        <ele>453</ele>
        <time>2023-02-16T07:56:28Z</time>
      </trkpt>
      <trkpt lat="45.43132" lon="5.58738">
        <ele>453</ele>
        <time>2023-02-16T07:56:29Z</time>
      </trkpt>
      <trkpt lat="45.43131" lon="5.5873">
        <ele>454</ele>
        <time>2023-02-16T07:56:30Z</time>
      </trkpt>
      <trkpt lat="45.43131" lon="5.58723">
        <ele>454</ele>
        <time>2023-02-16T07:56:31Z</time>
      </trkpt>
      <trkpt lat="45.43131" lon="5.58716">
        <ele>454</ele>
        <time>2023-02-16T07:56:32Z</time>
      </trkpt>
      <trkpt lat="45.4313" lon="5.58708">
        <ele>454</ele>
        <time>2023-02-16T07:56:33Z</time>
      </trkpt>
      <trkpt lat="45.4313" lon="5.587">
        <ele>454</ele>
        <time>2023-02-16T07:56:34Z</time>
      </trkpt>
      <trkpt lat="45.43129" lon="5.58692">
        <ele>454</ele>
        <time>2023-02-16T07:56:35Z</time>
      </trkpt>
      <trkpt lat="45.43129" lon="5.58684">
        <ele>454</ele>
        <time>2023-02-16T07:56:36Z</time>
      </trkpt>
      <trkpt lat="45.43128" lon="5.58676">
        <ele>454</ele>
        <time>2023-02-16T07:56:37Z</time>
      </trkpt>
      <trkpt lat="45.43128" lon="5.58667">
        <ele>454</ele>
        <time>2023-02-16T07:56:38Z</time>
      </trkpt>
      <trkpt lat="45.43127" lon="5.58659">
        <ele>454</ele>
        <time>2023-02-16T07:56:39Z</time>
      </trkpt>
      <trkpt lat="45.43127" lon="5.5865">
        <ele>454</ele>
        <time>2023-02-16T07:56:40Z</time>
      </trkpt>
      <trkpt lat="45.43126" lon="5.58641">
        <ele>454</ele>
        <time>2023-02-16T07:56:41Z</time>
      </trkpt>
      <trkpt lat="45.43126" lon="5.58632">
        <ele>454</ele>
        <time>2023-02-16T07:56:42Z</time>
      </trkpt>
      <trkpt lat="45.43126" lon="5.58623">
        <ele>454</ele>
        <time>2023-02-16T07:56:43Z</time>
      </trkpt>
      <trkpt lat="45.43125" lon="5.58614">
        <ele>454</ele>
        <time>2023-02-16T07:56:44Z</time>
      </trkpt>
      <trkpt lat="45.43125" lon="5.58605">
        <ele>454</ele>
        <time>2023-02-16T07:56:45Z</time>
      </trkpt>
      <trkpt lat="45.43125" lon="5.58596">
        <ele>454</ele>
        <time>2023-02-16T07:56:46Z</time>
      </trkpt>
      <trkpt lat="45.43125" lon="5.58587">
        <ele>454</ele>
        <time>2023-02-16T07:56:47Z</time>
      </trkpt>
      <trkpt lat="45.43125" lon="5.58578">
        <ele>454</ele>
        <time>2023-02-16T07:56:48Z</time>
      </trkpt>
      <trkpt lat="45.43126" lon="5.58569">
        <ele>454</ele>
        <time>2023-02-16T07:56:49Z</time>
      </trkpt>
      <trkpt lat="45.43126" lon="5.5856">
        <ele>453</ele>
        <time>2023-02-16T07:56:50Z</time>
      </trkpt>
      <trkpt lat="45.43126" lon="5.58551">
        <ele>453</ele>
        <time>2023-02-16T07:56:51Z</time>
      </trkpt>
      <trkpt lat="45.43127" lon="5.58542">
        <ele>453</ele>
        <time>2023-02-16T07:56:52Z</time>
      </trkpt>
      <trkpt lat="45.43128" lon="5.58534">
        <ele>453</ele>
        <time>2023-02-16T07:56:53Z</time>
      </trkpt>
      <trkpt lat="45.43128" lon="5.58525">
        <ele>453</ele>
        <time>2023-02-16T07:56:54Z</time>
      </trkpt>
      <trkpt lat="45.43129" lon="5.58516">
        <ele>453</ele>
        <time>2023-02-16T07:56:55Z</time>
      </trkpt>
      <trkpt lat="45.4313" lon="5.58508">
        <ele>454</ele>
        <time>2023-02-16T07:56:56Z</time>
      </trkpt>
      <trkpt lat="45.4313" lon="5.58499">
        <ele>454</ele>
        <time>2023-02-16T07:56:57Z</time>
      </trkpt>
      <trkpt lat="45.43131" lon="5.58491">
        <ele>454</ele>
        <time>2023-02-16T07:56:58Z</time>
      </trkpt>
      <trkpt lat="45.43131" lon="5.58482">
        <ele>454</ele>
        <time>2023-02-16T07:56:59Z</time>
      </trkpt>
      <trkpt lat="45.43132" lon="5.58474">
        <ele>454</ele>
        <time>2023-02-16T07:57:00Z</time>
      </trkpt>
      <trkpt lat="45.43132" lon="5.58465">
        <ele>454</ele>
        <time>2023-02-16T07:57:01Z</time>
      </trkpt>
      <trkpt lat="45.43133" lon="5.58457">
        <ele>454</ele>
        <time>2023-02-16T07:57:02Z</time>
      </trkpt>
      <trkpt lat="45.43133" lon="5.58449">
        <ele>454</ele>
        <time>2023-02-16T07:57:03Z</time>
      </trkpt>
      <trkpt lat="45.43134" lon="5.58441">
        <ele>454</ele>
        <time>2023-02-16T07:57:04Z</time>
      </trkpt>
      <trkpt lat="45.43135" lon="5.58433">
        <ele>454</ele>
        <time>2023-02-16T07:57:05Z</time>
      </trkpt>
      <trkpt lat="45.43137" lon="5.58425">
        <ele>454</ele>
        <time>2023-02-16T07:57:06Z</time>
      </trkpt>
      <trkpt lat="45.43138" lon="5.58417">
        <ele>454</ele>
        <time>2023-02-16T07:57:07Z</time>
      </trkpt>
      <trkpt lat="45.4314" lon="5.58409">
        <ele>455</ele>
        <time>2023-02-16T07:57:08Z</time>
      </trkpt>
      <trkpt lat="45.43142" lon="5.58401">
        <ele>455</ele>
        <time>2023-02-16T07:57:09Z</time>
      </trkpt>
      <trkpt lat="45.43145" lon="5.58393">
        <ele>455</ele>
        <time>2023-02-16T07:57:10Z</time>
      </trkpt>
      <trkpt lat="45.43147" lon="5.58386">
        <ele>455</ele>
        <time>2023-02-16T07:57:11Z</time>
      </trkpt>
      <trkpt lat="45.43149" lon="5.58378">
        <ele>455</ele>
        <time>2023-02-16T07:57:12Z</time>
      </trkpt>
      <trkpt lat="45.43151" lon="5.5837">
        <ele>455</ele>
        <time>2023-02-16T07:57:13Z</time>
      </trkpt>
      <trkpt lat="45.43153" lon="5.58363">
        <ele>455</ele>
        <time>2023-02-16T07:57:14Z</time>
      </trkpt>
      <trkpt lat="45.43155" lon="5.58355">
        <ele>455</ele>
        <time>2023-02-16T07:57:15Z</time>
      </trkpt>
      <trkpt lat="45.43157" lon="5.58348">
        <ele>455</ele>
        <time>2023-02-16T07:57:16Z</time>
      </trkpt>
      <trkpt lat="45.43159" lon="5.58341">
        <ele>456</ele>
        <time>2023-02-16T07:57:17Z</time>
      </trkpt>
      <trkpt lat="45.4316" lon="5.58333">
        <ele>456</ele>
        <time>2023-02-16T07:57:18Z</time>
      </trkpt>
      <trkpt lat="45.43161" lon="5.58326">
        <ele>456</ele>
        <time>2023-02-16T07:57:19Z</time>
      </trkpt>
      <trkpt lat="45.43163" lon="5.5832">
        <ele>456</ele>
        <time>2023-02-16T07:57:20Z</time>
      </trkpt>
      <trkpt lat="45.43164" lon="5.58314">
        <ele>456</ele>
        <time>2023-02-16T07:57:21Z</time>
      </trkpt>
      <trkpt lat="45.43165" lon="5.58308">
        <ele>456</ele>
        <time>2023-02-16T07:57:22Z</time>
      </trkpt>
      <trkpt lat="45.43166" lon="5.58301">
        <ele>457</ele>
        <time>2023-02-16T07:57:23Z</time>
      </trkpt>
      <trkpt lat="45.43168" lon="5.58295">
        <ele>457</ele>
        <time>2023-02-16T07:57:24Z</time>
      </trkpt>
      <trkpt lat="45.43169" lon="5.58288">
        <ele>457</ele>
        <time>2023-02-16T07:57:25Z</time>
      </trkpt>
      <trkpt lat="45.4317" lon="5.5828">
        <ele>457</ele>
        <time>2023-02-16T07:57:26Z</time>
      </trkpt>
      <trkpt lat="45.43171" lon="5.58272">
        <ele>457</ele>
        <time>2023-02-16T07:57:27Z</time>
      </trkpt>
      <trkpt lat="45.43171" lon="5.58264">
        <ele>456</ele>
        <time>2023-02-16T07:57:28Z</time>
      </trkpt>
      <trkpt lat="45.4317" lon="5.58256">
        <ele>456</ele>
        <time>2023-02-16T07:57:29Z</time>
      </trkpt>
      <trkpt lat="45.43167" lon="5.58248">
        <ele>456</ele>
        <time>2023-02-16T07:57:30Z</time>
      </trkpt>
      <trkpt lat="45.43164" lon="5.5824">
        <ele>456</ele>
        <time>2023-02-16T07:57:31Z</time>
      </trkpt>
      <trkpt lat="45.4316" lon="5.58234">
        <ele>456</ele>
        <time>2023-02-16T07:57:32Z</time>
      </trkpt>
      <trkpt lat="45.43155" lon="5.58228">
        <ele>456</ele>
        <time>2023-02-16T07:57:33Z</time>
      </trkpt>
      <trkpt lat="45.4315" lon="5.58223">
        <ele>456</ele>
        <time>2023-02-16T07:57:34Z</time>
      </trkpt>
      <trkpt lat="45.43145" lon="5.58218">
        <ele>456</ele>
        <time>2023-02-16T07:57:35Z</time>
      </trkpt>
      <trkpt lat="45.4314" lon="5.58212">
        <ele>456</ele>
        <time>2023-02-16T07:57:36Z</time>
      </trkpt>
      <trkpt lat="45.43135" lon="5.58206">
        <ele>456</ele>
        <time>2023-02-16T07:57:37Z</time>
      </trkpt>
      <trkpt lat="45.4313" lon="5.582">
        <ele>456</ele>
        <time>2023-02-16T07:57:38Z</time>
      </trkpt>
      <trkpt lat="45.43125" lon="5.58194">
        <ele>456</ele>
        <time>2023-02-16T07:57:39Z</time>
      </trkpt>
      <trkpt lat="45.43121" lon="5.58188">
        <ele>456</ele>
        <time>2023-02-16T07:57:40Z</time>
      </trkpt>
      <trkpt lat="45.43117" lon="5.58181">
        <ele>456</ele>
        <time>2023-02-16T07:57:41Z</time>
      </trkpt>
      <trkpt lat="45.43113" lon="5.58175">
        <ele>456</ele>
        <time>2023-02-16T07:57:42Z</time>
      </trkpt>
      <trkpt lat="45.4311" lon="5.58168">
        <ele>456</ele>
        <time>2023-02-16T07:57:43Z</time>
      </trkpt>
      <trkpt lat="45.43107" lon="5.58161">
        <ele>456</ele>
        <time>2023-02-16T07:57:44Z</time>
      </trkpt>
      <trkpt lat="45.43104" lon="5.58154">
        <ele>456</ele>
        <time>2023-02-16T07:57:45Z</time>
      </trkpt>
      <trkpt lat="45.43101" lon="5.58148">
        <ele>456</ele>
        <time>2023-02-16T07:57:46Z</time>
      </trkpt>
      <trkpt lat="45.43098" lon="5.58141">
        <ele>456</ele>
        <time>2023-02-16T07:57:47Z</time>
      </trkpt>
      <trkpt lat="45.43095" lon="5.58135">
        <ele>456</ele>
        <time>2023-02-16T07:57:48Z</time>
      </trkpt>
      <trkpt lat="45.43092" lon="5.58128">
        <ele>456</ele>
        <time>2023-02-16T07:57:49Z</time>
      </trkpt>
      <trkpt lat="45.43089" lon="5.58122">
        <ele>456</ele>
        <time>2023-02-16T07:57:50Z</time>
      </trkpt>
      <trkpt lat="45.43087" lon="5.58115">
        <ele>456</ele>
        <time>2023-02-16T07:57:51Z</time>
      </trkpt>
      <trkpt lat="45.43084" lon="5.58108">
        <ele>456</ele>
        <time>2023-02-16T07:57:52Z</time>
      </trkpt>
      <trkpt lat="45.43083" lon="5.58101">
        <ele>456</ele>
        <time>2023-02-16T07:57:53Z</time>
      </trkpt>
      <trkpt lat="45.43081" lon="5.58094">
        <ele>456</ele>
        <time>2023-02-16T07:57:54Z</time>
      </trkpt>
      <trkpt lat="45.4308" lon="5.58088">
        <ele>456</ele>
        <time>2023-02-16T07:57:55Z</time>
      </trkpt>
      <trkpt lat="45.43078" lon="5.58081">
        <ele>456</ele>
        <time>2023-02-16T07:57:56Z</time>
      </trkpt>
      <trkpt lat="45.43077" lon="5.58074">
        <ele>456</ele>
        <time>2023-02-16T07:57:57Z</time>
      </trkpt>
      <trkpt lat="45.43076" lon="5.58066">
        <ele>456</ele>
        <time>2023-02-16T07:57:58Z</time>
      </trkpt>
      <trkpt lat="45.43075" lon="5.58059">
        <ele>456</ele>
        <time>2023-02-16T07:57:59Z</time>
      </trkpt>
      <trkpt lat="45.43074" lon="5.58052">
        <ele>456</ele>
        <time>2023-02-16T07:58:00Z</time>
      </trkpt>
      <trkpt lat="45.43073" lon="5.58045">
        <ele>457</ele>
        <time>2023-02-16T07:58:01Z</time>
      </trkpt>
      <trkpt lat="45.43073" lon="5.58038">
        <ele>457</ele>
        <time>2023-02-16T07:58:02Z</time>
      </trkpt>
      <trkpt lat="45.43072" lon="5.58031">
        <ele>458</ele>
        <time>2023-02-16T07:58:03Z</time>
      </trkpt>
      <trkpt lat="45.43071" lon="5.58023">
        <ele>458</ele>
        <time>2023-02-16T07:58:04Z</time>
      </trkpt>
      <trkpt lat="45.43071" lon="5.58016">
        <ele>458</ele>
        <time>2023-02-16T07:58:05Z</time>
      </trkpt>
      <trkpt lat="45.4307" lon="5.58009">
        <ele>458</ele>
        <time>2023-02-16T07:58:06Z</time>
      </trkpt>
      <trkpt lat="45.4307" lon="5.58002">
        <ele>458</ele>
        <time>2023-02-16T07:58:07Z</time>
      </trkpt>
      <trkpt lat="45.4307" lon="5.57995">
        <ele>458</ele>
        <time>2023-02-16T07:58:08Z</time>
      </trkpt>
      <trkpt lat="45.4307" lon="5.57988">
        <ele>458</ele>
        <time>2023-02-16T07:58:09Z</time>
      </trkpt>
      <trkpt lat="45.4307" lon="5.5798">
        <ele>458</ele>
        <time>2023-02-16T07:58:10Z</time>
      </trkpt>
      <trkpt lat="45.4307" lon="5.57973">
        <ele>459</ele>
        <time>2023-02-16T07:58:11Z</time>
      </trkpt>
      <trkpt lat="45.4307" lon="5.57966">
        <ele>459</ele>
        <time>2023-02-16T07:58:12Z</time>
      </trkpt>
      <trkpt lat="45.4307" lon="5.57959">
        <ele>459</ele>
        <time>2023-02-16T07:58:13Z</time>
      </trkpt>
      <trkpt lat="45.4307" lon="5.57952">
        <ele>459</ele>
        <time>2023-02-16T07:58:14Z</time>
      </trkpt>
      <trkpt lat="45.4307" lon="5.57945">
        <ele>459</ele>
        <time>2023-02-16T07:58:15Z</time>
      </trkpt>
      <trkpt lat="45.4307" lon="5.57937">
        <ele>459</ele>
        <time>2023-02-16T07:58:16Z</time>
      </trkpt>
      <trkpt lat="45.4307" lon="5.5793">
        <ele>460</ele>
        <time>2023-02-16T07:58:17Z</time>
      </trkpt>
      <trkpt lat="45.4307" lon="5.57923">
        <ele>460</ele>
        <time>2023-02-16T07:58:18Z</time>
      </trkpt>
      <trkpt lat="45.4307" lon="5.57916">
        <ele>460</ele>
        <time>2023-02-16T07:58:19Z</time>
      </trkpt>
      <trkpt lat="45.43069" lon="5.57908">
        <ele>460</ele>
        <time>2023-02-16T07:58:20Z</time>
      </trkpt>
      <trkpt lat="45.43069" lon="5.57901">
        <ele>461</ele>
        <time>2023-02-16T07:58:21Z</time>
      </trkpt>
      <trkpt lat="45.43069" lon="5.57894">
        <ele>461</ele>
        <time>2023-02-16T07:58:22Z</time>
      </trkpt>
      <trkpt lat="45.43069" lon="5.57887">
        <ele>461</ele>
        <time>2023-02-16T07:58:23Z</time>
      </trkpt>
      <trkpt lat="45.43068" lon="5.5788">
        <ele>461</ele>
        <time>2023-02-16T07:58:24Z</time>
      </trkpt>
      <trkpt lat="45.43068" lon="5.57872">
        <ele>461</ele>
        <time>2023-02-16T07:58:25Z</time>
      </trkpt>
      <trkpt lat="45.43068" lon="5.57865">
        <ele>461</ele>
        <time>2023-02-16T07:58:26Z</time>
      </trkpt>
      <trkpt lat="45.43068" lon="5.57857">
        <ele>461</ele>
        <time>2023-02-16T07:58:27Z</time>
      </trkpt>
      <trkpt lat="45.43068" lon="5.57849">
        <ele>461</ele>
        <time>2023-02-16T07:58:28Z</time>
      </trkpt>
      <trkpt lat="45.43068" lon="5.5784">
        <ele>461</ele>
        <time>2023-02-16T07:58:29Z</time>
      </trkpt>
      <trkpt lat="45.43068" lon="5.57832">
        <ele>460</ele>
        <time>2023-02-16T07:58:30Z</time>
      </trkpt>
      <trkpt lat="45.43069" lon="5.57824">
        <ele>460</ele>
        <time>2023-02-16T07:58:31Z</time>
      </trkpt>
      <trkpt lat="45.43069" lon="5.57815">
        <ele>460</ele>
        <time>2023-02-16T07:58:32Z</time>
      </trkpt>
      <trkpt lat="45.4307" lon="5.57807">
        <ele>460</ele>
        <time>2023-02-16T07:58:33Z</time>
      </trkpt>
      <trkpt lat="45.43071" lon="5.57799">
        <ele>460</ele>
        <time>2023-02-16T07:58:34Z</time>
      </trkpt>
      <trkpt lat="45.43072" lon="5.57791">
        <ele>460</ele>
        <time>2023-02-16T07:58:35Z</time>
      </trkpt>
      <trkpt lat="45.43074" lon="5.57783">
        <ele>460</ele>
        <time>2023-02-16T07:58:36Z</time>
      </trkpt>
      <trkpt lat="45.43076" lon="5.57775">
        <ele>460</ele>
        <time>2023-02-16T07:58:37Z</time>
      </trkpt>
      <trkpt lat="45.43079" lon="5.57768">
        <ele>460</ele>
        <time>2023-02-16T07:58:38Z</time>
      </trkpt>
      <trkpt lat="45.43081" lon="5.5776">
        <ele>460</ele>
        <time>2023-02-16T07:58:39Z</time>
      </trkpt>
      <trkpt lat="45.43083" lon="5.57753">
        <ele>460</ele>
        <time>2023-02-16T07:58:40Z</time>
      </trkpt>
      <trkpt lat="45.43086" lon="5.57745">
        <ele>460</ele>
        <time>2023-02-16T07:58:41Z</time>
      </trkpt>
      <trkpt lat="45.43088" lon="5.57738">
        <ele>460</ele>
        <time>2023-02-16T07:58:42Z</time>
      </trkpt>
      <trkpt lat="45.4309" lon="5.57731">
        <ele>460</ele>
        <time>2023-02-16T07:58:43Z</time>
      </trkpt>
      <trkpt lat="45.43093" lon="5.57723">
        <ele>460</ele>
        <time>2023-02-16T07:58:44Z</time>
      </trkpt>
      <trkpt lat="45.43095" lon="5.57716">
        <ele>460</ele>
        <time>2023-02-16T07:58:45Z</time>
      </trkpt>
      <trkpt lat="45.43097" lon="5.57709">
        <ele>460</ele>
        <time>2023-02-16T07:58:46Z</time>
      </trkpt>
      <trkpt lat="45.43099" lon="5.57702">
        <ele>460</ele>
        <time>2023-02-16T07:58:47Z</time>
      </trkpt>
      <trkpt lat="45.43102" lon="5.57695">
        <ele>460</ele>
        <time>2023-02-16T07:58:48Z</time>
      </trkpt>
      <trkpt lat="45.43104" lon="5.57688">
        <ele>460</ele>
        <time>2023-02-16T07:58:49Z</time>
      </trkpt>
      <trkpt lat="45.43106" lon="5.57681">
        <ele>460</ele>
        <time>2023-02-16T07:58:50Z</time>
      </trkpt>
      <trkpt lat="45.43108" lon="5.57673">
        <ele>460</ele>
        <time>2023-02-16T07:58:51Z</time>
      </trkpt>
      <trkpt lat="45.4311" lon="5.57666">
        <ele>460</ele>
        <time>2023-02-16T07:58:52Z</time>
      </trkpt>
      <trkpt lat="45.43112" lon="5.57659">
        <ele>460</ele>
        <time>2023-02-16T07:58:53Z</time>
      </trkpt>
      <trkpt lat="45.43113" lon="5.57651">
        <ele>461</ele>
        <time>2023-02-16T07:58:54Z</time>
      </trkpt>
      <trkpt lat="45.43114" lon="5.57643">
        <ele>461</ele>
        <time>2023-02-16T07:58:55Z</time>
      </trkpt>
      <trkpt lat="45.43116" lon="5.57636">
        <ele>461</ele>
        <time>2023-02-16T07:58:56Z</time>
      </trkpt>
      <trkpt lat="45.43116" lon="5.57628">
        <ele>461</ele>
        <time>2023-02-16T07:58:57Z</time>
      </trkpt>
      <trkpt lat="45.43117" lon="5.57621">
        <ele>461</ele>
        <time>2023-02-16T07:58:58Z</time>
      </trkpt>
      <trkpt lat="45.43118" lon="5.57614">
        <ele>461</ele>
        <time>2023-02-16T07:58:59Z</time>
      </trkpt>
      <trkpt lat="45.43118" lon="5.57607">
        <ele>461</ele>
        <time>2023-02-16T07:59:00Z</time>
      </trkpt>
      <trkpt lat="45.43119" lon="5.576">
        <ele>461</ele>
        <time>2023-02-16T07:59:01Z</time>
      </trkpt>
      <trkpt lat="45.43119" lon="5.57593">
        <ele>461</ele>
        <time>2023-02-16T07:59:02Z</time>
      </trkpt>
      <trkpt lat="45.4312" lon="5.57586">
        <ele>461</ele>
        <time>2023-02-16T07:59:03Z</time>
      </trkpt>
      <trkpt lat="45.4312" lon="5.57579">
        <ele>461</ele>
        <time>2023-02-16T07:59:04Z</time>
      </trkpt>
      <trkpt lat="45.43121" lon="5.57572">
        <ele>461</ele>
        <time>2023-02-16T07:59:05Z</time>
      </trkpt>
      <trkpt lat="45.43121" lon="5.57565">
        <ele>461</ele>
        <time>2023-02-16T07:59:06Z</time>
      </trkpt>
      <trkpt lat="45.43121" lon="5.57558">
        <ele>461</ele>
        <time>2023-02-16T07:59:07Z</time>
      </trkpt>
      <trkpt lat="45.43121" lon="5.5755">
        <ele>461</ele>
        <time>2023-02-16T07:59:08Z</time>
      </trkpt>
      <trkpt lat="45.43121" lon="5.57544">
        <ele>461</ele>
        <time>2023-02-16T07:59:09Z</time>
      </trkpt>
      <trkpt lat="45.43121" lon="5.57537">
        <ele>462</ele>
        <time>2023-02-16T07:59:10Z</time>
      </trkpt>
      <trkpt lat="45.43121" lon="5.5753">
        <ele>462</ele>
        <time>2023-02-16T07:59:11Z</time>
      </trkpt>
      <trkpt lat="45.43121" lon="5.57523">
        <ele>462</ele>
        <time>2023-02-16T07:59:12Z</time>
      </trkpt>
      <trkpt lat="45.43121" lon="5.57516">
        <ele>462</ele>
        <time>2023-02-16T07:59:13Z</time>
      </trkpt>
      <trkpt lat="45.4312" lon="5.57508">
        <ele>462</ele>
        <time>2023-02-16T07:59:14Z</time>
      </trkpt>
      <trkpt lat="45.4312" lon="5.57501">
        <ele>462</ele>
        <time>2023-02-16T07:59:15Z</time>
      </trkpt>
      <trkpt lat="45.43119" lon="5.57494">
        <ele>462</ele>
        <time>2023-02-16T07:59:16Z</time>
      </trkpt>
      <trkpt lat="45.43119" lon="5.57487">
        <ele>462</ele>
        <time>2023-02-16T07:59:17Z</time>
      </trkpt>
      <trkpt lat="45.43118" lon="5.57479">
        <ele>462</ele>
        <time>2023-02-16T07:59:18Z</time>
      </trkpt>
      <trkpt lat="45.43118" lon="5.57472">
        <ele>462</ele>
        <time>2023-02-16T07:59:19Z</time>
      </trkpt>
      <trkpt lat="45.43117" lon="5.57464">
        <ele>462</ele>
        <time>2023-02-16T07:59:20Z</time>
      </trkpt>
      <trkpt lat="45.43116" lon="5.57456">
        <ele>462</ele>
        <time>2023-02-16T07:59:21Z</time>
      </trkpt>
      <trkpt lat="45.43116" lon="5.57448">
        <ele>463</ele>
        <time>2023-02-16T07:59:22Z</time>
      </trkpt>
      <trkpt lat="45.43116" lon="5.5744">
        <ele>463</ele>
        <time>2023-02-16T07:59:23Z</time>
      </trkpt>
      <trkpt lat="45.43116" lon="5.57432">
        <ele>463</ele>
        <time>2023-02-16T07:59:24Z</time>
      </trkpt>
      <trkpt lat="45.43116" lon="5.57424">
        <ele>463</ele>
        <time>2023-02-16T07:59:25Z</time>
      </trkpt>
      <trkpt lat="45.43117" lon="5.57416">
        <ele>463</ele>
        <time>2023-02-16T07:59:26Z</time>
      </trkpt>
      <trkpt lat="45.43117" lon="5.57407">
        <ele>463</ele>
        <time>2023-02-16T07:59:27Z</time>
      </trkpt>
      <trkpt lat="45.43117" lon="5.57399">
        <ele>463</ele>
        <time>2023-02-16T07:59:28Z</time>
      </trkpt>
      <trkpt lat="45.43117" lon="5.5739">
        <ele>463</ele>
        <time>2023-02-16T07:59:29Z</time>
      </trkpt>
      <trkpt lat="45.43116" lon="5.57381">
        <ele>462</ele>
        <time>2023-02-16T07:59:30Z</time>
      </trkpt>
      <trkpt lat="45.43116" lon="5.57372">
        <ele>462</ele>
        <time>2023-02-16T07:59:31Z</time>
      </trkpt>
      <trkpt lat="45.43115" lon="5.57363">
        <ele>462</ele>
        <time>2023-02-16T07:59:32Z</time>
      </trkpt>
      <trkpt lat="45.43115" lon="5.57355">
        <ele>462</ele>
        <time>2023-02-16T07:59:33Z</time>
      </trkpt>
      <trkpt lat="45.43113" lon="5.57346">
        <ele>462</ele>
        <time>2023-02-16T07:59:34Z</time>
      </trkpt>
      <trkpt lat="45.43112" lon="5.57338">
        <ele>462</ele>
        <time>2023-02-16T07:59:35Z</time>
      </trkpt>
      <trkpt lat="45.4311" lon="5.5733">
        <ele>462</ele>
        <time>2023-02-16T07:59:36Z</time>
      </trkpt>
      <trkpt lat="45.43108" lon="5.57322">
        <ele>462</ele>
        <time>2023-02-16T07:59:37Z</time>
      </trkpt>
      <trkpt lat="45.43105" lon="5.57315">
        <ele>462</ele>
        <time>2023-02-16T07:59:38Z</time>
      </trkpt>
      <trkpt lat="45.43103" lon="5.57307">
        <ele>462</ele>
        <time>2023-02-16T07:59:39Z</time>
      </trkpt>
      <trkpt lat="45.431" lon="5.57301">
        <ele>462</ele>
        <time>2023-02-16T07:59:40Z</time>
      </trkpt>
      <trkpt lat="45.43097" lon="5.57294">
        <ele>462</ele>
        <time>2023-02-16T07:59:41Z</time>
      </trkpt>
      <trkpt lat="45.43094" lon="5.57287">
        <ele>462</ele>
        <time>2023-02-16T07:59:42Z</time>
      </trkpt>
      <trkpt lat="45.43091" lon="5.5728">
        <ele>462</ele>
        <time>2023-02-16T07:59:43Z</time>
      </trkpt>
      <trkpt lat="45.43088" lon="5.57273">
        <ele>462</ele>
        <time>2023-02-16T07:59:44Z</time>
      </trkpt>
      <trkpt lat="45.43085" lon="5.57266">
        <ele>462</ele>
        <time>2023-02-16T07:59:45Z</time>
      </trkpt>
      <trkpt lat="45.43082" lon="5.5726">
        <ele>462</ele>
        <time>2023-02-16T07:59:46Z</time>
      </trkpt>
      <trkpt lat="45.4308" lon="5.57253">
        <ele>463</ele>
        <time>2023-02-16T07:59:47Z</time>
      </trkpt>
      <trkpt lat="45.43077" lon="5.57246">
        <ele>463</ele>
        <time>2023-02-16T07:59:48Z</time>
      </trkpt>
      <trkpt lat="45.43074" lon="5.5724">
        <ele>463</ele>
        <time>2023-02-16T07:59:49Z</time>
      </trkpt>
      <trkpt lat="45.43072" lon="5.57233">
        <ele>463</ele>
        <time>2023-02-16T07:59:50Z</time>
      </trkpt>
      <trkpt lat="45.43069" lon="5.57226">
        <ele>463</ele>
        <time>2023-02-16T07:59:51Z</time>
      </trkpt>
      <trkpt lat="45.43067" lon="5.57219">
        <ele>463</ele>
        <time>2023-02-16T07:59:52Z</time>
      </trkpt>
      <trkpt lat="45.43064" lon="5.57212">
        <ele>463</ele>
        <time>2023-02-16T07:59:53Z</time>
      </trkpt>
      <trkpt lat="45.43062" lon="5.57206">
        <ele>464</ele>
        <time>2023-02-16T07:59:54Z</time>
      </trkpt>
      <trkpt lat="45.43059" lon="5.57199">
        <ele>464</ele>
        <time>2023-02-16T07:59:55Z</time>
      </trkpt>
      <trkpt lat="45.43057" lon="5.57192">
        <ele>464</ele>
        <time>2023-02-16T07:59:56Z</time>
      </trkpt>
      <trkpt lat="45.43055" lon="5.57186">
        <ele>464</ele>
        <time>2023-02-16T07:59:57Z</time>
      </trkpt>
      <trkpt lat="45.43052" lon="5.5718">
        <ele>464</ele>
        <time>2023-02-16T07:59:58Z</time>
      </trkpt>
      <trkpt lat="45.43049" lon="5.57173">
        <ele>464</ele>
        <time>2023-02-16T07:59:59Z</time>
      </trkpt>
      <trkpt lat="45.43046" lon="5.57167">
        <ele>464</ele>
        <time>2023-02-16T08:00:00Z</time>
      </trkpt>
      <trkpt lat="45.43043" lon="5.57161">
        <ele>464</ele>
        <time>2023-02-16T08:00:01Z</time>
      </trkpt>
      <trkpt lat="45.4304" lon="5.57155">
        <ele>464</ele>
        <time>2023-02-16T08:00:02Z</time>
      </trkpt>
      <trkpt lat="45.43036" lon="5.57149">
        <ele>464</ele>
        <time>2023-02-16T08:00:03Z</time>
      </trkpt>
      <trkpt lat="45.43033" lon="5.57144">
        <ele>464</ele>
        <time>2023-02-16T08:00:04Z</time>
      </trkpt>
      <trkpt lat="45.43029" lon="5.57138">
        <ele>464</ele>
        <time>2023-02-16T08:00:05Z</time>
      </trkpt>
      <trkpt lat="45.43026" lon="5.57133">
        <ele>464</ele>
        <time>2023-02-16T08:00:06Z</time>
      </trkpt>
      <trkpt lat="45.43022" lon="5.57128">
        <ele>464</ele>
        <time>2023-02-16T08:00:07Z</time>
      </trkpt>
      <trkpt lat="45.4302" lon="5.57122">
        <ele>464</ele>
        <time>2023-02-16T08:00:08Z</time>
      </trkpt>
      <trkpt lat="45.43018" lon="5.57115">
        <ele>464</ele>
        <time>2023-02-16T08:00:09Z</time>
      </trkpt>
      <trkpt lat="45.43019" lon="5.57108">
        <ele>464</ele>
        <time>2023-02-16T08:00:10Z</time>
      </trkpt>
      <trkpt lat="45.43021" lon="5.57101">
        <ele>464</ele>
        <time>2023-02-16T08:00:11Z</time>
      </trkpt>
      <trkpt lat="45.43022" lon="5.57094">
        <ele>464</ele>
        <time>2023-02-16T08:00:12Z</time>
      </trkpt>
      <trkpt lat="45.43021" lon="5.57087">
        <ele>464</ele>
        <time>2023-02-16T08:00:13Z</time>
      </trkpt>
      <trkpt lat="45.4302" lon="5.57081">
        <ele>464</ele>
        <time>2023-02-16T08:00:14Z</time>
      </trkpt>
      <trkpt lat="45.43016" lon="5.57075">
        <ele>464</ele>
        <time>2023-02-16T08:00:15Z</time>
      </trkpt>
      <trkpt lat="45.43013" lon="5.57071">
        <ele>464</ele>
        <time>2023-02-16T08:00:16Z</time>
      </trkpt>
      <trkpt lat="45.43009" lon="5.57066">
        <ele>464</ele>
        <time>2023-02-16T08:00:17Z</time>
      </trkpt>
      <trkpt lat="45.43004" lon="5.57062">
        <ele>464</ele>
        <time>2023-02-16T08:00:18Z</time>
      </trkpt>
      <trkpt lat="45.43" lon="5.57058">
        <ele>463</ele>
        <time>2023-02-16T08:00:19Z</time>
      </trkpt>
      <trkpt lat="45.42996" lon="5.57054">
        <ele>463</ele>
        <time>2023-02-16T08:00:20Z</time>
      </trkpt>
      <trkpt lat="45.42991" lon="5.5705">
        <ele>463</ele>
        <time>2023-02-16T08:00:21Z</time>
      </trkpt>
      <trkpt lat="45.42987" lon="5.57047">
        <ele>463</ele>
        <time>2023-02-16T08:00:22Z</time>
      </trkpt>
      <trkpt lat="45.42982" lon="5.57044">
        <ele>463</ele>
        <time>2023-02-16T08:00:23Z</time>
      </trkpt>
      <trkpt lat="45.42977" lon="5.57041">
        <ele>463</ele>
        <time>2023-02-16T08:00:24Z</time>
      </trkpt>
      <trkpt lat="45.42973" lon="5.57038">
        <ele>463</ele>
        <time>2023-02-16T08:00:25Z</time>
      </trkpt>
      <trkpt lat="45.42969" lon="5.57035">
        <ele>463</ele>
        <time>2023-02-16T08:00:26Z</time>
      </trkpt>
      <trkpt lat="45.42964" lon="5.57032">
        <ele>463</ele>
        <time>2023-02-16T08:00:27Z</time>
      </trkpt>
      <trkpt lat="45.42961" lon="5.57029">
        <ele>463</ele>
        <time>2023-02-16T08:00:28Z</time>
      </trkpt>
      <trkpt lat="45.42958" lon="5.57026">
        <ele>463</ele>
        <time>2023-02-16T08:00:29Z</time>
      </trkpt>
      <trkpt lat="45.42955" lon="5.57023">
        <ele>463</ele>
        <time>2023-02-16T08:00:30Z</time>
      </trkpt>
      <trkpt lat="45.42952" lon="5.57022">
        <ele>463</ele>
        <time>2023-02-16T08:00:31Z</time>
      </trkpt>
      <trkpt lat="45.4295" lon="5.5702">
        <ele>463</ele>
        <time>2023-02-16T08:00:32Z</time>
      </trkpt>
      <trkpt lat="45.42947" lon="5.57019">
        <ele>463</ele>
        <time>2023-02-16T08:00:33Z</time>
      </trkpt>
      <trkpt lat="45.42945" lon="5.57019">
        <ele>464</ele>
        <time>2023-02-16T08:00:34Z</time>
      </trkpt>
      <trkpt lat="45.42943" lon="5.5702">
        <ele>464</ele>
        <time>2023-02-16T08:00:35Z</time>
      </trkpt>
      <trkpt lat="45.42941" lon="5.57021">
        <ele>464</ele>
        <time>2023-02-16T08:00:36Z</time>
      </trkpt>
      <trkpt lat="45.42939" lon="5.57023">
        <ele>464</ele>
        <time>2023-02-16T08:00:37Z</time>
      </trkpt>
      <trkpt lat="45.42936" lon="5.57026">
        <ele>464</ele>
        <time>2023-02-16T08:00:38Z</time>
      </trkpt>
      <trkpt lat="45.42934" lon="5.57029">
        <ele>464</ele>
        <time>2023-02-16T08:00:39Z</time>
      </trkpt>
      <trkpt lat="45.42932" lon="5.57033">
        <ele>464</ele>
        <time>2023-02-16T08:00:40Z</time>
      </trkpt>
      <trkpt lat="45.42929" lon="5.57038">
        <ele>464</ele>
        <time>2023-02-16T08:00:41Z</time>
      </trkpt>
      <trkpt lat="45.42926" lon="5.57043">
        <ele>465</ele>
        <time>2023-02-16T08:00:42Z</time>
      </trkpt>
      <trkpt lat="45.42923" lon="5.57049">
        <ele>465</ele>
        <time>2023-02-16T08:00:43Z</time>
      </trkpt>
      <trkpt lat="45.4292" lon="5.57055">
        <ele>466</ele>
        <time>2023-02-16T08:00:44Z</time>
      </trkpt>
      <trkpt lat="45.42917" lon="5.57061">
        <ele>466</ele>
        <time>2023-02-16T08:00:45Z</time>
      </trkpt>
      <trkpt lat="45.42914" lon="5.57067">
        <ele>465</ele>
        <time>2023-02-16T08:00:46Z</time>
      </trkpt>
      <trkpt lat="45.4291" lon="5.57073">
        <ele>466</ele>
        <time>2023-02-16T08:00:47Z</time>
      </trkpt>
      <trkpt lat="45.42907" lon="5.57079">
        <ele>466</ele>
        <time>2023-02-16T08:00:48Z</time>
      </trkpt>
      <trkpt lat="45.42903" lon="5.57085">
        <ele>466</ele>
        <time>2023-02-16T08:00:49Z</time>
      </trkpt>
      <trkpt lat="45.429" lon="5.57091">
        <ele>466</ele>
        <time>2023-02-16T08:00:50Z</time>
      </trkpt>
      <trkpt lat="45.42896" lon="5.57096">
        <ele>467</ele>
        <time>2023-02-16T08:00:51Z</time>
      </trkpt>
      <trkpt lat="45.42892" lon="5.571">
        <ele>467</ele>
        <time>2023-02-16T08:00:52Z</time>
      </trkpt>
      <trkpt lat="45.42887" lon="5.57101">
        <ele>468</ele>
        <time>2023-02-16T08:00:53Z</time>
      </trkpt>
      <trkpt lat="45.42882" lon="5.57101">
        <ele>467</ele>
        <time>2023-02-16T08:00:54Z</time>
      </trkpt>
      <trkpt lat="45.42877" lon="5.57099">
        <ele>467</ele>
        <time>2023-02-16T08:00:55Z</time>
      </trkpt>
      <trkpt lat="45.42872" lon="5.57097">
        <ele>466</ele>
        <time>2023-02-16T08:00:56Z</time>
      </trkpt>
      <trkpt lat="45.42866" lon="5.57094">
        <ele>465</ele>
        <time>2023-02-16T08:00:57Z</time>
      </trkpt>
      <trkpt lat="45.42861" lon="5.57092">
        <ele>464</ele>
        <time>2023-02-16T08:00:58Z</time>
      </trkpt>
      <trkpt lat="45.42855" lon="5.57089">
        <ele>464</ele>
        <time>2023-02-16T08:00:59Z</time>
      </trkpt>
      <trkpt lat="45.4285" lon="5.57086">
        <ele>464</ele>
        <time>2023-02-16T08:01:00Z</time>
      </trkpt>
      <trkpt lat="45.42845" lon="5.57083">
        <ele>464</ele>
        <time>2023-02-16T08:01:01Z</time>
      </trkpt>
      <trkpt lat="45.4284" lon="5.57079">
        <ele>464</ele>
        <time>2023-02-16T08:01:02Z</time>
      </trkpt>
      <trkpt lat="45.42834" lon="5.57076">
        <ele>464</ele>
        <time>2023-02-16T08:01:03Z</time>
      </trkpt>
      <trkpt lat="45.42829" lon="5.57073">
        <ele>464</ele>
        <time>2023-02-16T08:01:04Z</time>
      </trkpt>
      <trkpt lat="45.42823" lon="5.5707">
        <ele>464</ele>
        <time>2023-02-16T08:01:05Z</time>
      </trkpt>
      <trkpt lat="45.42818" lon="5.57068">
        <ele>464</ele>
        <time>2023-02-16T08:01:06Z</time>
      </trkpt>
      <trkpt lat="45.42812" lon="5.57065">
        <ele>464</ele>
        <time>2023-02-16T08:01:07Z</time>
      </trkpt>
      <trkpt lat="45.42807" lon="5.57063">
        <ele>464</ele>
        <time>2023-02-16T08:01:08Z</time>
      </trkpt>
      <trkpt lat="45.42801" lon="5.5706">
        <ele>464</ele>
        <time>2023-02-16T08:01:09Z</time>
      </trkpt>
      <trkpt lat="45.42796" lon="5.57057">
        <ele>464</ele>
        <time>2023-02-16T08:01:10Z</time>
      </trkpt>
      <trkpt lat="45.42791" lon="5.57054">
        <ele>464</ele>
        <time>2023-02-16T08:01:11Z</time>
      </trkpt>
      <trkpt lat="45.42785" lon="5.57051">
        <ele>464</ele>
        <time>2023-02-16T08:01:12Z</time>
      </trkpt>
      <trkpt lat="45.4278" lon="5.57048">
        <ele>464</ele>
        <time>2023-02-16T08:01:13Z</time>
      </trkpt>
      <trkpt lat="45.42775" lon="5.57044">
        <ele>464</ele>
        <time>2023-02-16T08:01:14Z</time>
      </trkpt>
      <trkpt lat="45.4277" lon="5.57041">
        <ele>464</ele>
        <time>2023-02-16T08:01:15Z</time>
      </trkpt>
      <trkpt lat="45.42765" lon="5.57037">
        <ele>464</ele>
        <time>2023-02-16T08:01:16Z</time>
      </trkpt>
      <trkpt lat="45.42761" lon="5.57034">
        <ele>464</ele>
        <time>2023-02-16T08:01:17Z</time>
      </trkpt>
      <trkpt lat="45.42756" lon="5.5703">
        <ele>464</ele>
        <time>2023-02-16T08:01:18Z</time>
      </trkpt>
      <trkpt lat="45.42751" lon="5.57027">
        <ele>464</ele>
        <time>2023-02-16T08:01:19Z</time>
      </trkpt>
      <trkpt lat="45.42745" lon="5.57024">
        <ele>464</ele>
        <time>2023-02-16T08:01:20Z</time>
      </trkpt>
      <trkpt lat="45.42739" lon="5.57021">
        <ele>464</ele>
        <time>2023-02-16T08:01:21Z</time>
      </trkpt>
      <trkpt lat="45.42733" lon="5.57018">
        <ele>464</ele>
        <time>2023-02-16T08:01:22Z</time>
      </trkpt>
      <trkpt lat="45.42728" lon="5.57014">
        <ele>464</ele>
        <time>2023-02-16T08:01:23Z</time>
      </trkpt>
      <trkpt lat="45.42722" lon="5.57011">
        <ele>464</ele>
        <time>2023-02-16T08:01:24Z</time>
      </trkpt>
      <trkpt lat="45.42716" lon="5.57007">
        <ele>464</ele>
        <time>2023-02-16T08:01:25Z</time>
      </trkpt>
      <trkpt lat="45.4271" lon="5.57004">
        <ele>464</ele>
        <time>2023-02-16T08:01:26Z</time>
      </trkpt>
      <trkpt lat="45.42704" lon="5.57001">
        <ele>464</ele>
        <time>2023-02-16T08:01:27Z</time>
      </trkpt>
      <trkpt lat="45.42698" lon="5.56999">
        <ele>464</ele>
        <time>2023-02-16T08:01:28Z</time>
      </trkpt>
      <trkpt lat="45.42692" lon="5.56997">
        <ele>464</ele>
        <time>2023-02-16T08:01:29Z</time>
      </trkpt>
      <trkpt lat="45.42686" lon="5.56995">
        <ele>464</ele>
        <time>2023-02-16T08:01:30Z</time>
      </trkpt>
      <trkpt lat="45.4268" lon="5.56993">
        <ele>464</ele>
        <time>2023-02-16T08:01:31Z</time>
      </trkpt>
      <trkpt lat="45.42674" lon="5.56991">
        <ele>464</ele>
        <time>2023-02-16T08:01:32Z</time>
      </trkpt>
      <trkpt lat="45.42668" lon="5.5699">
        <ele>464</ele>
        <time>2023-02-16T08:01:33Z</time>
      </trkpt>
      <trkpt lat="45.42662" lon="5.56988">
        <ele>463</ele>
        <time>2023-02-16T08:01:34Z</time>
      </trkpt>
      <trkpt lat="45.42656" lon="5.56987">
        <ele>463</ele>
        <time>2023-02-16T08:01:35Z</time>
      </trkpt>
      <trkpt lat="45.4265" lon="5.56985">
        <ele>463</ele>
        <time>2023-02-16T08:01:36Z</time>
      </trkpt>
      <trkpt lat="45.42645" lon="5.56984">
        <ele>463</ele>
        <time>2023-02-16T08:01:37Z</time>
      </trkpt>
      <trkpt lat="45.42639" lon="5.56983">
        <ele>463</ele>
        <time>2023-02-16T08:01:38Z</time>
      </trkpt>
      <trkpt lat="45.42633" lon="5.56983">
        <ele>463</ele>
        <time>2023-02-16T08:01:39Z</time>
      </trkpt>
      <trkpt lat="45.42628" lon="5.56982">
        <ele>463</ele>
        <time>2023-02-16T08:01:40Z</time>
      </trkpt>
      <trkpt lat="45.42622" lon="5.56981">
        <ele>463</ele>
        <time>2023-02-16T08:01:41Z</time>
      </trkpt>
      <trkpt lat="45.42616" lon="5.56981">
        <ele>463</ele>
        <time>2023-02-16T08:01:42Z</time>
      </trkpt>
      <trkpt lat="45.4261" lon="5.56981">
        <ele>463</ele>
        <time>2023-02-16T08:01:43Z</time>
      </trkpt>
      <trkpt lat="45.42605" lon="5.56981">
        <ele>463</ele>
        <time>2023-02-16T08:01:44Z</time>
      </trkpt>
      <trkpt lat="45.42599" lon="5.56981">
        <ele>463</ele>
        <time>2023-02-16T08:01:45Z</time>
      </trkpt>
      <trkpt lat="45.42593" lon="5.56981">
        <ele>463</ele>
        <time>2023-02-16T08:01:46Z</time>
      </trkpt>
      <trkpt lat="45.42587" lon="5.56981">
        <ele>463</ele>
        <time>2023-02-16T08:01:47Z</time>
      </trkpt>
      <trkpt lat="45.42581" lon="5.56982">
        <ele>463</ele>
        <time>2023-02-16T08:01:48Z</time>
      </trkpt>
      <trkpt lat="45.42575" lon="5.56982">
        <ele>463</ele>
        <time>2023-02-16T08:01:49Z</time>
      </trkpt>
      <trkpt lat="45.42569" lon="5.56983">
        <ele>463</ele>
        <time>2023-02-16T08:01:50Z</time>
      </trkpt>
      <trkpt lat="45.42563" lon="5.56983">
        <ele>463</ele>
        <time>2023-02-16T08:01:51Z</time>
      </trkpt>
      <trkpt lat="45.42558" lon="5.56984">
        <ele>463</ele>
        <time>2023-02-16T08:01:52Z</time>
      </trkpt>
      <trkpt lat="45.42552" lon="5.56984">
        <ele>463</ele>
        <time>2023-02-16T08:01:53Z</time>
      </trkpt>
      <trkpt lat="45.42546" lon="5.56984">
        <ele>463</ele>
        <time>2023-02-16T08:01:54Z</time>
      </trkpt>
      <trkpt lat="45.4254" lon="5.56983">
        <ele>464</ele>
        <time>2023-02-16T08:01:55Z</time>
      </trkpt>
      <trkpt lat="45.42535" lon="5.5698">
        <ele>464</ele>
        <time>2023-02-16T08:01:56Z</time>
      </trkpt>
      <trkpt lat="45.42531" lon="5.56975">
        <ele>464</ele>
        <time>2023-02-16T08:01:57Z</time>
      </trkpt>
      <trkpt lat="45.42527" lon="5.5697">
        <ele>465</ele>
        <time>2023-02-16T08:01:58Z</time>
      </trkpt>
      <trkpt lat="45.42524" lon="5.56963">
        <ele>465</ele>
        <time>2023-02-16T08:01:59Z</time>
      </trkpt>
      <trkpt lat="45.42522" lon="5.56956">
        <ele>465</ele>
        <time>2023-02-16T08:02:00Z</time>
      </trkpt>
      <trkpt lat="45.4252" lon="5.56948">
        <ele>465</ele>
        <time>2023-02-16T08:02:01Z</time>
      </trkpt>
      <trkpt lat="45.42518" lon="5.5694">
        <ele>465</ele>
        <time>2023-02-16T08:02:02Z</time>
      </trkpt>
      <trkpt lat="45.42516" lon="5.56932">
        <ele>465</ele>
        <time>2023-02-16T08:02:03Z</time>
      </trkpt>
      <trkpt lat="45.42514" lon="5.56924">
        <ele>465</ele>
        <time>2023-02-16T08:02:04Z</time>
      </trkpt>
      <trkpt lat="45.42512" lon="5.56916">
        <ele>465</ele>
        <time>2023-02-16T08:02:05Z</time>
      </trkpt>
      <trkpt lat="45.42509" lon="5.56909">
        <ele>465</ele>
        <time>2023-02-16T08:02:06Z</time>
      </trkpt>
      <trkpt lat="45.42507" lon="5.56901">
        <ele>465</ele>
        <time>2023-02-16T08:02:07Z</time>
      </trkpt>
      <trkpt lat="45.42504" lon="5.56894">
        <ele>464</ele>
        <time>2023-02-16T08:02:08Z</time>
      </trkpt>
      <trkpt lat="45.42501" lon="5.56887">
        <ele>464</ele>
        <time>2023-02-16T08:02:09Z</time>
      </trkpt>
      <trkpt lat="45.42497" lon="5.56879">
        <ele>464</ele>
        <time>2023-02-16T08:02:10Z</time>
      </trkpt>
      <trkpt lat="45.42493" lon="5.56873">
        <ele>464</ele>
        <time>2023-02-16T08:02:11Z</time>
      </trkpt>
      <trkpt lat="45.42489" lon="5.56866">
        <ele>464</ele>
        <time>2023-02-16T08:02:12Z</time>
      </trkpt>
      <trkpt lat="45.42485" lon="5.5686">
        <ele>464</ele>
        <time>2023-02-16T08:02:13Z</time>
      </trkpt>
      <trkpt lat="45.42481" lon="5.56854">
        <ele>464</ele>
        <time>2023-02-16T08:02:14Z</time>
      </trkpt>
      <trkpt lat="45.42478" lon="5.56848">
        <ele>464</ele>
        <time>2023-02-16T08:02:15Z</time>
      </trkpt>
      <trkpt lat="45.42474" lon="5.56842">
        <ele>464</ele>
        <time>2023-02-16T08:02:16Z</time>
      </trkpt>
      <trkpt lat="45.42471" lon="5.56837">
        <ele>465</ele>
        <time>2023-02-16T08:02:17Z</time>
      </trkpt>
      <trkpt lat="45.42468" lon="5.56832">
        <ele>465</ele>
        <time>2023-02-16T08:02:18Z</time>
      </trkpt>
      <trkpt lat="45.42464" lon="5.56827">
        <ele>465</ele>
        <time>2023-02-16T08:02:19Z</time>
      </trkpt>
      <trkpt lat="45.42461" lon="5.56822">
        <ele>465</ele>
        <time>2023-02-16T08:02:20Z</time>
      </trkpt>
      <trkpt lat="45.42457" lon="5.56816">
        <ele>465</ele>
        <time>2023-02-16T08:02:21Z</time>
      </trkpt>
      <trkpt lat="45.42453" lon="5.56811">
        <ele>465</ele>
        <time>2023-02-16T08:02:22Z</time>
      </trkpt>
      <trkpt lat="45.4245" lon="5.56806">
        <ele>465</ele>
        <time>2023-02-16T08:02:23Z</time>
      </trkpt>
      <trkpt lat="45.42446" lon="5.568">
        <ele>465</ele>
        <time>2023-02-16T08:02:24Z</time>
      </trkpt>
      <trkpt lat="45.42442" lon="5.56795">
        <ele>465</ele>
        <time>2023-02-16T08:02:25Z</time>
      </trkpt>
      <trkpt lat="45.42438" lon="5.5679">
        <ele>465</ele>
        <time>2023-02-16T08:02:26Z</time>
      </trkpt>
      <trkpt lat="45.42434" lon="5.56785">
        <ele>465</ele>
        <time>2023-02-16T08:02:27Z</time>
      </trkpt>
      <trkpt lat="45.42431" lon="5.5678">
        <ele>465</ele>
        <time>2023-02-16T08:02:28Z</time>
      </trkpt>
      <trkpt lat="45.42426" lon="5.56775">
        <ele>466</ele>
        <time>2023-02-16T08:02:29Z</time>
      </trkpt>
      <trkpt lat="45.42421" lon="5.56771">
        <ele>466</ele>
        <time>2023-02-16T08:02:30Z</time>
      </trkpt>
      <trkpt lat="45.42416" lon="5.56767">
        <ele>466</ele>
        <time>2023-02-16T08:02:31Z</time>
      </trkpt>
      <trkpt lat="45.42411" lon="5.56763">
        <ele>466</ele>
        <time>2023-02-16T08:02:32Z</time>
      </trkpt>
      <trkpt lat="45.42405" lon="5.56759">
        <ele>466</ele>
        <time>2023-02-16T08:02:33Z</time>
      </trkpt>
      <trkpt lat="45.424" lon="5.56756">
        <ele>466</ele>
        <time>2023-02-16T08:02:34Z</time>
      </trkpt>
      <trkpt lat="45.42394" lon="5.56752">
        <ele>466</ele>
        <time>2023-02-16T08:02:35Z</time>
      </trkpt>
      <trkpt lat="45.42388" lon="5.56749">
        <ele>466</ele>
        <time>2023-02-16T08:02:36Z</time>
      </trkpt>
      <trkpt lat="45.42383" lon="5.56746">
        <ele>465</ele>
        <time>2023-02-16T08:02:37Z</time>
      </trkpt>
      <trkpt lat="45.42377" lon="5.56743">
        <ele>465</ele>
        <time>2023-02-16T08:02:38Z</time>
      </trkpt>
      <trkpt lat="45.42372" lon="5.5674">
        <ele>465</ele>
        <time>2023-02-16T08:02:39Z</time>
      </trkpt>
      <trkpt lat="45.42366" lon="5.56737">
        <ele>465</ele>
        <time>2023-02-16T08:02:40Z</time>
      </trkpt>
      <trkpt lat="45.4236" lon="5.56734">
        <ele>465</ele>
        <time>2023-02-16T08:02:41Z</time>
      </trkpt>
      <trkpt lat="45.42354" lon="5.56731">
        <ele>465</ele>
        <time>2023-02-16T08:02:42Z</time>
      </trkpt>
      <trkpt lat="45.42348" lon="5.56729">
        <ele>465</ele>
        <time>2023-02-16T08:02:43Z</time>
      </trkpt>
      <trkpt lat="45.42342" lon="5.56726">
        <ele>465</ele>
        <time>2023-02-16T08:02:44Z</time>
      </trkpt>
      <trkpt lat="45.42336" lon="5.56724">
        <ele>465</ele>
        <time>2023-02-16T08:02:45Z</time>
      </trkpt>
      <trkpt lat="45.4233" lon="5.56723">
        <ele>465</ele>
        <time>2023-02-16T08:02:46Z</time>
      </trkpt>
      <trkpt lat="45.42324" lon="5.56722">
        <ele>465</ele>
        <time>2023-02-16T08:02:47Z</time>
      </trkpt>
      <trkpt lat="45.42318" lon="5.56721">
        <ele>465</ele>
        <time>2023-02-16T08:02:48Z</time>
      </trkpt>
      <trkpt lat="45.42312" lon="5.5672">
        <ele>465</ele>
        <time>2023-02-16T08:02:49Z</time>
      </trkpt>
      <trkpt lat="45.42305" lon="5.56719">
        <ele>465</ele>
        <time>2023-02-16T08:02:50Z</time>
      </trkpt>
      <trkpt lat="45.42299" lon="5.56719">
        <ele>465</ele>
        <time>2023-02-16T08:02:51Z</time>
      </trkpt>
      <trkpt lat="45.42293" lon="5.56717">
        <ele>465</ele>
        <time>2023-02-16T08:02:52Z</time>
      </trkpt>
      <trkpt lat="45.42287" lon="5.56716">
        <ele>465</ele>
        <time>2023-02-16T08:02:53Z</time>
      </trkpt>
      <trkpt lat="45.4228" lon="5.56715">
        <ele>465</ele>
        <time>2023-02-16T08:02:54Z</time>
      </trkpt>
      <trkpt lat="45.42274" lon="5.56713">
        <ele>465</ele>
        <time>2023-02-16T08:02:55Z</time>
      </trkpt>
      <trkpt lat="45.42269" lon="5.56712">
        <ele>465</ele>
        <time>2023-02-16T08:02:56Z</time>
      </trkpt>
      <trkpt lat="45.42263" lon="5.56711">
        <ele>465</ele>
        <time>2023-02-16T08:02:57Z</time>
      </trkpt>
      <trkpt lat="45.42258" lon="5.5671">
        <ele>465</ele>
        <time>2023-02-16T08:02:58Z</time>
      </trkpt>
      <trkpt lat="45.42253" lon="5.56708">
        <ele>465</ele>
        <time>2023-02-16T08:02:59Z</time>
      </trkpt>
      <trkpt lat="45.42247" lon="5.56707">
        <ele>465</ele>
        <time>2023-02-16T08:03:00Z</time>
      </trkpt>
      <trkpt lat="45.42242" lon="5.56705">
        <ele>465</ele>
        <time>2023-02-16T08:03:01Z</time>
      </trkpt>
      <trkpt lat="45.42237" lon="5.56702">
        <ele>465</ele>
        <time>2023-02-16T08:03:02Z</time>
      </trkpt>
      <trkpt lat="45.42232" lon="5.56698">
        <ele>465</ele>
        <time>2023-02-16T08:03:03Z</time>
      </trkpt>
      <trkpt lat="45.42227" lon="5.56693">
        <ele>465</ele>
        <time>2023-02-16T08:03:04Z</time>
      </trkpt>
      <trkpt lat="45.42222" lon="5.56688">
        <ele>465</ele>
        <time>2023-02-16T08:03:05Z</time>
      </trkpt>
      <trkpt lat="45.42218" lon="5.56682">
        <ele>465</ele>
        <time>2023-02-16T08:03:06Z</time>
      </trkpt>
      <trkpt lat="45.42214" lon="5.56676">
        <ele>465</ele>
        <time>2023-02-16T08:03:07Z</time>
      </trkpt>
      <trkpt lat="45.4221" lon="5.5667">
        <ele>465</ele>
        <time>2023-02-16T08:03:08Z</time>
      </trkpt>
      <trkpt lat="45.42207" lon="5.56665">
        <ele>465</ele>
        <time>2023-02-16T08:03:09Z</time>
      </trkpt>
      <trkpt lat="45.42204" lon="5.5666">
        <ele>464</ele>
        <time>2023-02-16T08:03:10Z</time>
      </trkpt>
      <trkpt lat="45.422" lon="5.56654">
        <ele>464</ele>
        <time>2023-02-16T08:03:11Z</time>
      </trkpt>
      <trkpt lat="45.42196" lon="5.56647">
        <ele>464</ele>
        <time>2023-02-16T08:03:12Z</time>
      </trkpt>
      <trkpt lat="45.42192" lon="5.56641">
        <ele>464</ele>
        <time>2023-02-16T08:03:13Z</time>
      </trkpt>
      <trkpt lat="45.42188" lon="5.56634">
        <ele>464</ele>
        <time>2023-02-16T08:03:14Z</time>
      </trkpt>
      <trkpt lat="45.42184" lon="5.56627">
        <ele>464</ele>
        <time>2023-02-16T08:03:15Z</time>
      </trkpt>
      <trkpt lat="45.4218" lon="5.5662">
        <ele>464</ele>
        <time>2023-02-16T08:03:16Z</time>
      </trkpt>
      <trkpt lat="45.42177" lon="5.56613">
        <ele>464</ele>
        <time>2023-02-16T08:03:17Z</time>
      </trkpt>
      <trkpt lat="45.42174" lon="5.56605">
        <ele>464</ele>
        <time>2023-02-16T08:03:18Z</time>
      </trkpt>
      <trkpt lat="45.42171" lon="5.56597">
        <ele>464</ele>
        <time>2023-02-16T08:03:19Z</time>
      </trkpt>
      <trkpt lat="45.42168" lon="5.5659">
        <ele>464</ele>
        <time>2023-02-16T08:03:20Z</time>
      </trkpt>
      <trkpt lat="45.42166" lon="5.56582">
        <ele>464</ele>
        <time>2023-02-16T08:03:21Z</time>
      </trkpt>
      <trkpt lat="45.42164" lon="5.56575">
        <ele>464</ele>
        <time>2023-02-16T08:03:22Z</time>
      </trkpt>
      <trkpt lat="45.42161" lon="5.56567">
        <ele>464</ele>
        <time>2023-02-16T08:03:23Z</time>
      </trkpt>
      <trkpt lat="45.42159" lon="5.5656">
        <ele>464</ele>
        <time>2023-02-16T08:03:24Z</time>
      </trkpt>
      <trkpt lat="45.42157" lon="5.56552">
        <ele>464</ele>
        <time>2023-02-16T08:03:25Z</time>
      </trkpt>
      <trkpt lat="45.42155" lon="5.56545">
        <ele>464</ele>
        <time>2023-02-16T08:03:26Z</time>
      </trkpt>
      <trkpt lat="45.42153" lon="5.56538">
        <ele>464</ele>
        <time>2023-02-16T08:03:27Z</time>
      </trkpt>
      <trkpt lat="45.4215" lon="5.56532">
        <ele>464</ele>
        <time>2023-02-16T08:03:28Z</time>
      </trkpt>
      <trkpt lat="45.42148" lon="5.56526">
        <ele>465</ele>
        <time>2023-02-16T08:03:29Z</time>
      </trkpt>
      <trkpt lat="45.42146" lon="5.56519">
        <ele>465</ele>
        <time>2023-02-16T08:03:30Z</time>
      </trkpt>
      <trkpt lat="45.42144" lon="5.56513">
        <ele>465</ele>
        <time>2023-02-16T08:03:31Z</time>
      </trkpt>
      <trkpt lat="45.42141" lon="5.56506">
        <ele>466</ele>
        <time>2023-02-16T08:03:32Z</time>
      </trkpt>
      <trkpt lat="45.42139" lon="5.565">
        <ele>466</ele>
        <time>2023-02-16T08:03:33Z</time>
      </trkpt>
      <trkpt lat="45.42137" lon="5.56494">
        <ele>466</ele>
        <time>2023-02-16T08:03:34Z</time>
      </trkpt>
      <trkpt lat="45.42135" lon="5.56488">
        <ele>466</ele>
        <time>2023-02-16T08:03:35Z</time>
      </trkpt>
      <trkpt lat="45.42133" lon="5.56483">
        <ele>466</ele>
        <time>2023-02-16T08:03:36Z</time>
      </trkpt>
      <trkpt lat="45.42131" lon="5.56478">
        <ele>467</ele>
        <time>2023-02-16T08:03:37Z</time>
      </trkpt>
      <trkpt lat="45.42129" lon="5.56473">
        <ele>467</ele>
        <time>2023-02-16T08:03:38Z</time>
      </trkpt>
      <trkpt lat="45.42126" lon="5.56468">
        <ele>467</ele>
        <time>2023-02-16T08:03:39Z</time>
      </trkpt>
      <trkpt lat="45.42122" lon="5.56462">
        <ele>467</ele>
        <time>2023-02-16T08:03:40Z</time>
      </trkpt>
      <trkpt lat="45.42118" lon="5.56457">
        <ele>467</ele>
        <time>2023-02-16T08:03:41Z</time>
      </trkpt>
      <trkpt lat="45.42113" lon="5.56451">
        <ele>467</ele>
        <time>2023-02-16T08:03:42Z</time>
      </trkpt>
      <trkpt lat="45.42108" lon="5.56445">
        <ele>466</ele>
        <time>2023-02-16T08:03:43Z</time>
      </trkpt>
      <trkpt lat="45.42103" lon="5.56438">
        <ele>466</ele>
        <time>2023-02-16T08:03:44Z</time>
      </trkpt>
      <trkpt lat="45.42098" lon="5.56432">
        <ele>466</ele>
        <time>2023-02-16T08:03:45Z</time>
      </trkpt>
      <trkpt lat="45.42093" lon="5.56426">
        <ele>465</ele>
        <time>2023-02-16T08:03:46Z</time>
      </trkpt>
      <trkpt lat="45.42088" lon="5.56421">
        <ele>465</ele>
        <time>2023-02-16T08:03:47Z</time>
      </trkpt>
      <trkpt lat="45.42083" lon="5.56416">
        <ele>465</ele>
        <time>2023-02-16T08:03:48Z</time>
      </trkpt>
      <trkpt lat="45.42078" lon="5.56412">
        <ele>465</ele>
        <time>2023-02-16T08:03:49Z</time>
      </trkpt>
      <trkpt lat="45.42072" lon="5.56408">
        <ele>465</ele>
        <time>2023-02-16T08:03:50Z</time>
      </trkpt>
      <trkpt lat="45.42067" lon="5.56406">
        <ele>465</ele>
        <time>2023-02-16T08:03:51Z</time>
      </trkpt>
      <trkpt lat="45.42062" lon="5.56404">
        <ele>465</ele>
        <time>2023-02-16T08:03:52Z</time>
      </trkpt>
      <trkpt lat="45.42058" lon="5.56401">
        <ele>465</ele>
        <time>2023-02-16T08:03:53Z</time>
      </trkpt>
      <trkpt lat="45.42049" lon="5.56396">
        <ele>465</ele>
        <time>2023-02-16T08:03:55Z</time>
      </trkpt>
      <trkpt lat="45.42038" lon="5.5639">
        <ele>465</ele>
        <time>2023-02-16T08:03:57Z</time>
      </trkpt>
      <trkpt lat="45.42026" lon="5.56383">
        <ele>466</ele>
        <time>2023-02-16T08:03:59Z</time>
      </trkpt>
      <trkpt lat="45.42014" lon="5.56374">
        <ele>465</ele>
        <time>2023-02-16T08:04:01Z</time>
      </trkpt>
      <trkpt lat="45.42002" lon="5.56364">
        <ele>465</ele>
        <time>2023-02-16T08:04:03Z</time>
      </trkpt>
      <trkpt lat="45.41995" lon="5.56358">
        <ele>464</ele>
        <time>2023-02-16T08:04:04Z</time>
      </trkpt>
      <trkpt lat="45.41989" lon="5.56351">
        <ele>464</ele>
        <time>2023-02-16T08:04:05Z</time>
      </trkpt>
      <trkpt lat="45.41983" lon="5.56344">
        <ele>463</ele>
        <time>2023-02-16T08:04:06Z</time>
      </trkpt>
      <trkpt lat="45.41978" lon="5.56336">
        <ele>463</ele>
        <time>2023-02-16T08:04:07Z</time>
      </trkpt>
      <trkpt lat="45.41973" lon="5.56328">
        <ele>463</ele>
        <time>2023-02-16T08:04:08Z</time>
      </trkpt>
      <trkpt lat="45.41967" lon="5.56321">
        <ele>463</ele>
        <time>2023-02-16T08:04:09Z</time>
      </trkpt>
      <trkpt lat="45.41963" lon="5.56314">
        <ele>462</ele>
        <time>2023-02-16T08:04:10Z</time>
      </trkpt>
      <trkpt lat="45.41958" lon="5.56306">
        <ele>462</ele>
        <time>2023-02-16T08:04:11Z</time>
      </trkpt>
      <trkpt lat="45.41954" lon="5.56299">
        <ele>462</ele>
        <time>2023-02-16T08:04:12Z</time>
      </trkpt>
      <trkpt lat="45.4195" lon="5.56291">
        <ele>462</ele>
        <time>2023-02-16T08:04:13Z</time>
      </trkpt>
      <trkpt lat="45.41946" lon="5.56285">
        <ele>462</ele>
        <time>2023-02-16T08:04:14Z</time>
      </trkpt>
      <trkpt lat="45.41942" lon="5.56278">
        <ele>463</ele>
        <time>2023-02-16T08:04:15Z</time>
      </trkpt>
      <trkpt lat="45.41937" lon="5.56271">
        <ele>463</ele>
        <time>2023-02-16T08:04:16Z</time>
      </trkpt>
      <trkpt lat="45.41933" lon="5.56265">
        <ele>463</ele>
        <time>2023-02-16T08:04:17Z</time>
      </trkpt>
      <trkpt lat="45.41929" lon="5.56258">
        <ele>463</ele>
        <time>2023-02-16T08:04:18Z</time>
      </trkpt>
      <trkpt lat="45.41925" lon="5.56252">
        <ele>463</ele>
        <time>2023-02-16T08:04:19Z</time>
      </trkpt>
      <trkpt lat="45.41921" lon="5.56245">
        <ele>463</ele>
        <time>2023-02-16T08:04:20Z</time>
      </trkpt>
      <trkpt lat="45.41917" lon="5.56239">
        <ele>463</ele>
        <time>2023-02-16T08:04:21Z</time>
      </trkpt>
      <trkpt lat="45.41913" lon="5.56233">
        <ele>463</ele>
        <time>2023-02-16T08:04:22Z</time>
      </trkpt>
      <trkpt lat="45.4191" lon="5.56227">
        <ele>463</ele>
        <time>2023-02-16T08:04:23Z</time>
      </trkpt>
      <trkpt lat="45.41906" lon="5.56222">
        <ele>463</ele>
        <time>2023-02-16T08:04:24Z</time>
      </trkpt>
      <trkpt lat="45.41903" lon="5.56217">
        <ele>463</ele>
        <time>2023-02-16T08:04:25Z</time>
      </trkpt>
      <trkpt lat="45.419" lon="5.56211">
        <ele>463</ele>
        <time>2023-02-16T08:04:26Z</time>
      </trkpt>
      <trkpt lat="45.41896" lon="5.56206">
        <ele>463</ele>
        <time>2023-02-16T08:04:27Z</time>
      </trkpt>
      <trkpt lat="45.41893" lon="5.56201">
        <ele>463</ele>
        <time>2023-02-16T08:04:28Z</time>
      </trkpt>
      <trkpt lat="45.4189" lon="5.56196">
        <ele>464</ele>
        <time>2023-02-16T08:04:29Z</time>
      </trkpt>
      <trkpt lat="45.41887" lon="5.56191">
        <ele>464</ele>
        <time>2023-02-16T08:04:30Z</time>
      </trkpt>
      <trkpt lat="45.41884" lon="5.56186">
        <ele>464</ele>
        <time>2023-02-16T08:04:31Z</time>
      </trkpt>
      <trkpt lat="45.41882" lon="5.56182">
        <ele>465</ele>
        <time>2023-02-16T08:04:32Z</time>
      </trkpt>
      <trkpt lat="45.41879" lon="5.56178">
        <ele>465</ele>
        <time>2023-02-16T08:04:33Z</time>
      </trkpt>
      <trkpt lat="45.41875" lon="5.56175">
        <ele>465</ele>
        <time>2023-02-16T08:04:34Z</time>
      </trkpt>
      <trkpt lat="45.41872" lon="5.56171">
        <ele>465</ele>
        <time>2023-02-16T08:04:35Z</time>
      </trkpt>
      <trkpt lat="45.41869" lon="5.56167">
        <ele>465</ele>
        <time>2023-02-16T08:04:36Z</time>
      </trkpt>
      <trkpt lat="45.41861" lon="5.56159">
        <ele>465</ele>
        <time>2023-02-16T08:04:38Z</time>
      </trkpt>
      <trkpt lat="45.41857" lon="5.56154">
        <ele>465</ele>
        <time>2023-02-16T08:04:39Z</time>
      </trkpt>
      <trkpt lat="45.41853" lon="5.5615">
        <ele>465</ele>
        <time>2023-02-16T08:04:40Z</time>
      </trkpt>
      <trkpt lat="45.4185" lon="5.56147">
        <ele>466</ele>
        <time>2023-02-16T08:04:41Z</time>
      </trkpt>
      <trkpt lat="45.4184" lon="5.56137">
        <ele>466</ele>
        <time>2023-02-16T08:04:44Z</time>
      </trkpt>
      <trkpt lat="45.41836" lon="5.56133">
        <ele>466</ele>
        <time>2023-02-16T08:04:45Z</time>
      </trkpt>
      <trkpt lat="45.41828" lon="5.56124">
        <ele>466</ele>
        <time>2023-02-16T08:04:47Z</time>
      </trkpt>
      <trkpt lat="45.41821" lon="5.56115">
        <ele>466</ele>
        <time>2023-02-16T08:04:49Z</time>
      </trkpt>
      <trkpt lat="45.41814" lon="5.56107">
        <ele>466</ele>
        <time>2023-02-16T08:04:51Z</time>
      </trkpt>
      <trkpt lat="45.41803" lon="5.56097">
        <ele>466</ele>
        <time>2023-02-16T08:04:54Z</time>
      </trkpt>
      <trkpt lat="45.41794" lon="5.56091">
        <ele>467</ele>
        <time>2023-02-16T08:04:56Z</time>
      </trkpt>
      <trkpt lat="45.41791" lon="5.56087">
        <ele>467</ele>
        <time>2023-02-16T08:04:57Z</time>
      </trkpt>
      <trkpt lat="45.41787" lon="5.56084">
        <ele>467</ele>
        <time>2023-02-16T08:04:58Z</time>
      </trkpt>
      <trkpt lat="45.41783" lon="5.56081">
        <ele>467</ele>
        <time>2023-02-16T08:04:59Z</time>
      </trkpt>
      <trkpt lat="45.41779" lon="5.56078">
        <ele>467</ele>
        <time>2023-02-16T08:05:00Z</time>
      </trkpt>
      <trkpt lat="45.41775" lon="5.56074">
        <ele>467</ele>
        <time>2023-02-16T08:05:01Z</time>
      </trkpt>
      <trkpt lat="45.41772" lon="5.56071">
        <ele>467</ele>
        <time>2023-02-16T08:05:02Z</time>
      </trkpt>
      <trkpt lat="45.41768" lon="5.56067">
        <ele>468</ele>
        <time>2023-02-16T08:05:03Z</time>
      </trkpt>
      <trkpt lat="45.41765" lon="5.56063">
        <ele>468</ele>
        <time>2023-02-16T08:05:04Z</time>
      </trkpt>
      <trkpt lat="45.41761" lon="5.5606">
        <ele>468</ele>
        <time>2023-02-16T08:05:05Z</time>
      </trkpt>
      <trkpt lat="45.41757" lon="5.56058">
        <ele>468</ele>
        <time>2023-02-16T08:05:06Z</time>
      </trkpt>
      <trkpt lat="45.4175" lon="5.56052">
        <ele>469</ele>
        <time>2023-02-16T08:05:08Z</time>
      </trkpt>
      <trkpt lat="45.41746" lon="5.56049">
        <ele>469</ele>
        <time>2023-02-16T08:05:09Z</time>
      </trkpt>
      <trkpt lat="45.41743" lon="5.56046">
        <ele>469</ele>
        <time>2023-02-16T08:05:10Z</time>
      </trkpt>
      <trkpt lat="45.4174" lon="5.56044">
        <ele>469</ele>
        <time>2023-02-16T08:05:11Z</time>
      </trkpt>
      <trkpt lat="45.41732" lon="5.56038">
        <ele>469</ele>
        <time>2023-02-16T08:05:14Z</time>
      </trkpt>
      <trkpt lat="45.41729" lon="5.56037">
        <ele>469</ele>
        <time>2023-02-16T08:05:15Z</time>
      </trkpt>
      <trkpt lat="45.41718" lon="5.56031">
        <ele>470</ele>
        <time>2023-02-16T08:05:18Z</time>
      </trkpt>
      <trkpt lat="45.4171" lon="5.56026">
        <ele>471</ele>
        <time>2023-02-16T08:05:20Z</time>
      </trkpt>
      <trkpt lat="45.41706" lon="5.56023">
        <ele>471</ele>
        <time>2023-02-16T08:05:21Z</time>
      </trkpt>
      <trkpt lat="45.41702" lon="5.56021">
        <ele>472</ele>
        <time>2023-02-16T08:05:22Z</time>
      </trkpt>
      <trkpt lat="45.41698" lon="5.56019">
        <ele>472</ele>
        <time>2023-02-16T08:05:23Z</time>
      </trkpt>
      <trkpt lat="45.41694" lon="5.56017">
        <ele>472</ele>
        <time>2023-02-16T08:05:24Z</time>
      </trkpt>
      <trkpt lat="45.4169" lon="5.56014">
        <ele>472</ele>
        <time>2023-02-16T08:05:25Z</time>
      </trkpt>
      <trkpt lat="45.41685" lon="5.56012">
        <ele>472</ele>
        <time>2023-02-16T08:05:26Z</time>
      </trkpt>
      <trkpt lat="45.41681" lon="5.56009">
        <ele>472</ele>
        <time>2023-02-16T08:05:27Z</time>
      </trkpt>
      <trkpt lat="45.41677" lon="5.56005">
        <ele>472</ele>
        <time>2023-02-16T08:05:28Z</time>
      </trkpt>
      <trkpt lat="45.41673" lon="5.56002">
        <ele>472</ele>
        <time>2023-02-16T08:05:29Z</time>
      </trkpt>
      <trkpt lat="45.41668" lon="5.55998">
        <ele>472</ele>
        <time>2023-02-16T08:05:30Z</time>
      </trkpt>
      <trkpt lat="45.41664" lon="5.55995">
        <ele>472</ele>
        <time>2023-02-16T08:05:31Z</time>
      </trkpt>
      <trkpt lat="45.41659" lon="5.55992">
        <ele>471</ele>
        <time>2023-02-16T08:05:32Z</time>
      </trkpt>
      <trkpt lat="45.41655" lon="5.55989">
        <ele>471</ele>
        <time>2023-02-16T08:05:33Z</time>
      </trkpt>
      <trkpt lat="45.41651" lon="5.55985">
        <ele>472</ele>
        <time>2023-02-16T08:05:34Z</time>
      </trkpt>
      <trkpt lat="45.41646" lon="5.55982">
        <ele>472</ele>
        <time>2023-02-16T08:05:35Z</time>
      </trkpt>
      <trkpt lat="45.41641" lon="5.55979">
        <ele>472</ele>
        <time>2023-02-16T08:05:36Z</time>
      </trkpt>
      <trkpt lat="45.41637" lon="5.55977">
        <ele>472</ele>
        <time>2023-02-16T08:05:37Z</time>
      </trkpt>
      <trkpt lat="45.41632" lon="5.55974">
        <ele>472</ele>
        <time>2023-02-16T08:05:38Z</time>
      </trkpt>
      <trkpt lat="45.41626" lon="5.55971">
        <ele>472</ele>
        <time>2023-02-16T08:05:39Z</time>
      </trkpt>
      <trkpt lat="45.41621" lon="5.55969">
        <ele>472</ele>
        <time>2023-02-16T08:05:40Z</time>
      </trkpt>
      <trkpt lat="45.41616" lon="5.55967">
        <ele>472</ele>
        <time>2023-02-16T08:05:41Z</time>
      </trkpt>
      <trkpt lat="45.41611" lon="5.55965">
        <ele>471</ele>
        <time>2023-02-16T08:05:42Z</time>
      </trkpt>
      <trkpt lat="45.41606" lon="5.55963">
        <ele>471</ele>
        <time>2023-02-16T08:05:43Z</time>
      </trkpt>
      <trkpt lat="45.41601" lon="5.55961">
        <ele>471</ele>
        <time>2023-02-16T08:05:44Z</time>
      </trkpt>
      <trkpt lat="45.41596" lon="5.55959">
        <ele>471</ele>
        <time>2023-02-16T08:05:45Z</time>
      </trkpt>
      <trkpt lat="45.41592" lon="5.55956">
        <ele>471</ele>
        <time>2023-02-16T08:05:46Z</time>
      </trkpt>
      <trkpt lat="45.41587" lon="5.55954">
        <ele>471</ele>
        <time>2023-02-16T08:05:47Z</time>
      </trkpt>
      <trkpt lat="45.41583" lon="5.55951">
        <ele>471</ele>
        <time>2023-02-16T08:05:48Z</time>
      </trkpt>
      <trkpt lat="45.41578" lon="5.55949">
        <ele>471</ele>
        <time>2023-02-16T08:05:49Z</time>
      </trkpt>
      <trkpt lat="45.41574" lon="5.55947">
        <ele>471</ele>
        <time>2023-02-16T08:05:50Z</time>
      </trkpt>
      <trkpt lat="45.4157" lon="5.55944">
        <ele>471</ele>
        <time>2023-02-16T08:05:51Z</time>
      </trkpt>
      <trkpt lat="45.41558" lon="5.55937">
        <ele>472</ele>
        <time>2023-02-16T08:05:54Z</time>
      </trkpt>
      <trkpt lat="45.41554" lon="5.55935">
        <ele>472</ele>
        <time>2023-02-16T08:05:55Z</time>
      </trkpt>
      <trkpt lat="45.4155" lon="5.55933">
        <ele>472</ele>
        <time>2023-02-16T08:05:56Z</time>
      </trkpt>
      <trkpt lat="45.41541" lon="5.55928">
        <ele>472</ele>
        <time>2023-02-16T08:05:58Z</time>
      </trkpt>
      <trkpt lat="45.41532" lon="5.55923">
        <ele>472</ele>
        <time>2023-02-16T08:06:00Z</time>
      </trkpt>
      <trkpt lat="45.41527" lon="5.5592">
        <ele>473</ele>
        <time>2023-02-16T08:06:01Z</time>
      </trkpt>
      <trkpt lat="45.41522" lon="5.55917">
        <ele>473</ele>
        <time>2023-02-16T08:06:02Z</time>
      </trkpt>
      <trkpt lat="45.41517" lon="5.55914">
        <ele>473</ele>
        <time>2023-02-16T08:06:03Z</time>
      </trkpt>
      <trkpt lat="45.41512" lon="5.5591">
        <ele>473</ele>
        <time>2023-02-16T08:06:04Z</time>
      </trkpt>
      <trkpt lat="45.41508" lon="5.55906">
        <ele>473</ele>
        <time>2023-02-16T08:06:05Z</time>
      </trkpt>
      <trkpt lat="45.41504" lon="5.559">
        <ele>473</ele>
        <time>2023-02-16T08:06:06Z</time>
      </trkpt>
      <trkpt lat="45.41502" lon="5.55893">
        <ele>473</ele>
        <time>2023-02-16T08:06:07Z</time>
      </trkpt>
      <trkpt lat="45.415" lon="5.55885">
        <ele>473</ele>
        <time>2023-02-16T08:06:08Z</time>
      </trkpt>
      <trkpt lat="45.41499" lon="5.55878">
        <ele>473</ele>
        <time>2023-02-16T08:06:09Z</time>
      </trkpt>
      <trkpt lat="45.41498" lon="5.5587">
        <ele>473</ele>
        <time>2023-02-16T08:06:10Z</time>
      </trkpt>
      <trkpt lat="45.41496" lon="5.55862">
        <ele>473</ele>
        <time>2023-02-16T08:06:11Z</time>
      </trkpt>
      <trkpt lat="45.41495" lon="5.55854">
        <ele>473</ele>
        <time>2023-02-16T08:06:12Z</time>
      </trkpt>
      <trkpt lat="45.41494" lon="5.55847">
        <ele>473</ele>
        <time>2023-02-16T08:06:13Z</time>
      </trkpt>
      <trkpt lat="45.41492" lon="5.55839">
        <ele>473</ele>
        <time>2023-02-16T08:06:14Z</time>
      </trkpt>
      <trkpt lat="45.4149" lon="5.55832">
        <ele>474</ele>
        <time>2023-02-16T08:06:15Z</time>
      </trkpt>
      <trkpt lat="45.41488" lon="5.55825">
        <ele>474</ele>
        <time>2023-02-16T08:06:16Z</time>
      </trkpt>
      <trkpt lat="45.41486" lon="5.55818">
        <ele>474</ele>
        <time>2023-02-16T08:06:17Z</time>
      </trkpt>
      <trkpt lat="45.41484" lon="5.55811">
        <ele>474</ele>
        <time>2023-02-16T08:06:18Z</time>
      </trkpt>
      <trkpt lat="45.41481" lon="5.55805">
        <ele>474</ele>
        <time>2023-02-16T08:06:19Z</time>
      </trkpt>
      <trkpt lat="45.41478" lon="5.55799">
        <ele>474</ele>
        <time>2023-02-16T08:06:20Z</time>
      </trkpt>
      <trkpt lat="45.41475" lon="5.55792">
        <ele>474</ele>
        <time>2023-02-16T08:06:21Z</time>
      </trkpt>
      <trkpt lat="45.41471" lon="5.55786">
        <ele>474</ele>
        <time>2023-02-16T08:06:22Z</time>
      </trkpt>
      <trkpt lat="45.41467" lon="5.5578">
        <ele>474</ele>
        <time>2023-02-16T08:06:23Z</time>
      </trkpt>
      <trkpt lat="45.41463" lon="5.55774">
        <ele>474</ele>
        <time>2023-02-16T08:06:24Z</time>
      </trkpt>
      <trkpt lat="45.41458" lon="5.55769">
        <ele>474</ele>
        <time>2023-02-16T08:06:25Z</time>
      </trkpt>
      <trkpt lat="45.41454" lon="5.55763">
        <ele>474</ele>
        <time>2023-02-16T08:06:26Z</time>
      </trkpt>
      <trkpt lat="45.41449" lon="5.55758">
        <ele>474</ele>
        <time>2023-02-16T08:06:27Z</time>
      </trkpt>
      <trkpt lat="45.41444" lon="5.55752">
        <ele>473</ele>
        <time>2023-02-16T08:06:28Z</time>
      </trkpt>
      <trkpt lat="45.41439" lon="5.55746">
        <ele>473</ele>
        <time>2023-02-16T08:06:29Z</time>
      </trkpt>
      <trkpt lat="45.41435" lon="5.55741">
        <ele>473</ele>
        <time>2023-02-16T08:06:30Z</time>
      </trkpt>
      <trkpt lat="45.4143" lon="5.55735">
        <ele>473</ele>
        <time>2023-02-16T08:06:31Z</time>
      </trkpt>
      <trkpt lat="45.41426" lon="5.55729">
        <ele>473</ele>
        <time>2023-02-16T08:06:32Z</time>
      </trkpt>
      <trkpt lat="45.41421" lon="5.55723">
        <ele>473</ele>
        <time>2023-02-16T08:06:33Z</time>
      </trkpt>
      <trkpt lat="45.41417" lon="5.55717">
        <ele>473</ele>
        <time>2023-02-16T08:06:34Z</time>
      </trkpt>
      <trkpt lat="45.41412" lon="5.55712">
        <ele>473</ele>
        <time>2023-02-16T08:06:35Z</time>
      </trkpt>
      <trkpt lat="45.41408" lon="5.55707">
        <ele>473</ele>
        <time>2023-02-16T08:06:36Z</time>
      </trkpt>
      <trkpt lat="45.41404" lon="5.55701">
        <ele>473</ele>
        <time>2023-02-16T08:06:37Z</time>
      </trkpt>
      <trkpt lat="45.414" lon="5.55696">
        <ele>472</ele>
        <time>2023-02-16T08:06:38Z</time>
      </trkpt>
      <trkpt lat="45.41396" lon="5.5569">
        <ele>472</ele>
        <time>2023-02-16T08:06:39Z</time>
      </trkpt>
      <trkpt lat="45.41391" lon="5.55685">
        <ele>472</ele>
        <time>2023-02-16T08:06:40Z</time>
      </trkpt>
      <trkpt lat="45.41388" lon="5.5568">
        <ele>472</ele>
        <time>2023-02-16T08:06:41Z</time>
      </trkpt>
      <trkpt lat="45.41384" lon="5.55675">
        <ele>473</ele>
        <time>2023-02-16T08:06:42Z</time>
      </trkpt>
      <trkpt lat="45.41381" lon="5.55671">
        <ele>473</ele>
        <time>2023-02-16T08:06:43Z</time>
      </trkpt>
      <trkpt lat="45.41379" lon="5.55668">
        <ele>473</ele>
        <time>2023-02-16T08:06:44Z</time>
      </trkpt>
      <trkpt lat="45.41378" lon="5.55666">
        <ele>473</ele>
        <time>2023-02-16T08:06:45Z</time>
      </trkpt>
      <trkpt lat="45.41377" lon="5.55662">
        <ele>473</ele>
        <time>2023-02-16T08:06:47Z</time>
      </trkpt>
      <trkpt lat="45.41375" lon="5.55661">
        <ele>473</ele>
        <time>2023-02-16T08:06:48Z</time>
      </trkpt>
      <trkpt lat="45.41372" lon="5.55661">
        <ele>473</ele>
        <time>2023-02-16T08:06:49Z</time>
      </trkpt>
      <trkpt lat="45.41369" lon="5.55662">
        <ele>473</ele>
        <time>2023-02-16T08:06:50Z</time>
      </trkpt>
      <trkpt lat="45.41367" lon="5.55664">
        <ele>473</ele>
        <time>2023-02-16T08:06:51Z</time>
      </trkpt>
      <trkpt lat="45.41363" lon="5.55667">
        <ele>473</ele>
        <time>2023-02-16T08:06:52Z</time>
      </trkpt>
      <trkpt lat="45.4136" lon="5.5567">
        <ele>473</ele>
        <time>2023-02-16T08:06:53Z</time>
      </trkpt>
      <trkpt lat="45.41356" lon="5.55673">
        <ele>473</ele>
        <time>2023-02-16T08:06:54Z</time>
      </trkpt>
      <trkpt lat="45.41352" lon="5.55677">
        <ele>474</ele>
        <time>2023-02-16T08:06:55Z</time>
      </trkpt>
      <trkpt lat="45.41348" lon="5.55681">
        <ele>474</ele>
        <time>2023-02-16T08:06:56Z</time>
      </trkpt>
      <trkpt lat="45.41344" lon="5.55684">
        <ele>474</ele>
        <time>2023-02-16T08:06:57Z</time>
      </trkpt>
      <trkpt lat="45.4134" lon="5.55688">
        <ele>474</ele>
        <time>2023-02-16T08:06:58Z</time>
      </trkpt>
      <trkpt lat="45.41335" lon="5.55692">
        <ele>474</ele>
        <time>2023-02-16T08:06:59Z</time>
      </trkpt>
      <trkpt lat="45.41331" lon="5.55696">
        <ele>474</ele>
        <time>2023-02-16T08:07:00Z</time>
      </trkpt>
      <trkpt lat="45.41327" lon="5.557">
        <ele>474</ele>
        <time>2023-02-16T08:07:01Z</time>
      </trkpt>
      <trkpt lat="45.41322" lon="5.55704">
        <ele>475</ele>
        <time>2023-02-16T08:07:02Z</time>
      </trkpt>
      <trkpt lat="45.41318" lon="5.55708">
        <ele>475</ele>
        <time>2023-02-16T08:07:03Z</time>
      </trkpt>
      <trkpt lat="45.41314" lon="5.55712">
        <ele>475</ele>
        <time>2023-02-16T08:07:04Z</time>
      </trkpt>
      <trkpt lat="45.41309" lon="5.55716">
        <ele>475</ele>
        <time>2023-02-16T08:07:05Z</time>
      </trkpt>
      <trkpt lat="45.41305" lon="5.55721">
        <ele>476</ele>
        <time>2023-02-16T08:07:06Z</time>
      </trkpt>
      <trkpt lat="45.41301" lon="5.55725">
        <ele>476</ele>
        <time>2023-02-16T08:07:07Z</time>
      </trkpt>
      <trkpt lat="45.41297" lon="5.55729">
        <ele>477</ele>
        <time>2023-02-16T08:07:08Z</time>
      </trkpt>
      <trkpt lat="45.41293" lon="5.55733">
        <ele>477</ele>
        <time>2023-02-16T08:07:09Z</time>
      </trkpt>
      <trkpt lat="45.41288" lon="5.55737">
        <ele>477</ele>
        <time>2023-02-16T08:07:10Z</time>
      </trkpt>
      <trkpt lat="45.41284" lon="5.55741">
        <ele>477</ele>
        <time>2023-02-16T08:07:11Z</time>
      </trkpt>
      <trkpt lat="45.4128" lon="5.55745">
        <ele>477</ele>
        <time>2023-02-16T08:07:12Z</time>
      </trkpt>
      <trkpt lat="45.41275" lon="5.55749">
        <ele>477</ele>
        <time>2023-02-16T08:07:13Z</time>
      </trkpt>
      <trkpt lat="45.4127" lon="5.55751">
        <ele>477</ele>
        <time>2023-02-16T08:07:14Z</time>
      </trkpt>
      <trkpt lat="45.41265" lon="5.55753">
        <ele>477</ele>
        <time>2023-02-16T08:07:15Z</time>
      </trkpt>
      <trkpt lat="45.4126" lon="5.55754">
        <ele>477</ele>
        <time>2023-02-16T08:07:16Z</time>
      </trkpt>
      <trkpt lat="45.41255" lon="5.55754">
        <ele>477</ele>
        <time>2023-02-16T08:07:17Z</time>
      </trkpt>
      <trkpt lat="45.4125" lon="5.55754">
        <ele>477</ele>
        <time>2023-02-16T08:07:18Z</time>
      </trkpt>
      <trkpt lat="45.41245" lon="5.55755">
        <ele>477</ele>
        <time>2023-02-16T08:07:19Z</time>
      </trkpt>
      <trkpt lat="45.4124" lon="5.55758">
        <ele>477</ele>
        <time>2023-02-16T08:07:20Z</time>
      </trkpt>
      <trkpt lat="45.41237" lon="5.55763">
        <ele>477</ele>
        <time>2023-02-16T08:07:21Z</time>
      </trkpt>
      <trkpt lat="45.41234" lon="5.55769">
        <ele>477</ele>
        <time>2023-02-16T08:07:22Z</time>
      </trkpt>
      <trkpt lat="45.41232" lon="5.55776">
        <ele>477</ele>
        <time>2023-02-16T08:07:23Z</time>
      </trkpt>
      <trkpt lat="45.4123" lon="5.55783">
        <ele>477</ele>
        <time>2023-02-16T08:07:24Z</time>
      </trkpt>
      <trkpt lat="45.41227" lon="5.5579">
        <ele>479</ele>
        <time>2023-02-16T08:07:25Z</time>
      </trkpt>
      <trkpt lat="45.41223" lon="5.55796">
        <ele>479</ele>
        <time>2023-02-16T08:07:26Z</time>
      </trkpt>
      <trkpt lat="45.4122" lon="5.55801">
        <ele>479</ele>
        <time>2023-02-16T08:07:27Z</time>
      </trkpt>
      <trkpt lat="45.41216" lon="5.55806">
        <ele>479</ele>
        <time>2023-02-16T08:07:28Z</time>
      </trkpt>
      <trkpt lat="45.41211" lon="5.5581">
        <ele>479</ele>
        <time>2023-02-16T08:07:29Z</time>
      </trkpt>
      <trkpt lat="45.41207" lon="5.55814">
        <ele>479</ele>
        <time>2023-02-16T08:07:30Z</time>
      </trkpt>
      <trkpt lat="45.41203" lon="5.55818">
        <ele>479</ele>
        <time>2023-02-16T08:07:31Z</time>
      </trkpt>
      <trkpt lat="45.41199" lon="5.55822">
        <ele>480</ele>
        <time>2023-02-16T08:07:32Z</time>
      </trkpt>
      <trkpt lat="45.41195" lon="5.55827">
        <ele>480</ele>
        <time>2023-02-16T08:07:33Z</time>
      </trkpt>
      <trkpt lat="45.41191" lon="5.55831">
        <ele>480</ele>
        <time>2023-02-16T08:07:34Z</time>
      </trkpt>
      <trkpt lat="45.41186" lon="5.55835">
        <ele>480</ele>
        <time>2023-02-16T08:07:35Z</time>
      </trkpt>
      <trkpt lat="45.41182" lon="5.55839">
        <ele>480</ele>
        <time>2023-02-16T08:07:36Z</time>
      </trkpt>
      <trkpt lat="45.41178" lon="5.55844">
        <ele>480</ele>
        <time>2023-02-16T08:07:37Z</time>
      </trkpt>
      <trkpt lat="45.41173" lon="5.55848">
        <ele>480</ele>
        <time>2023-02-16T08:07:38Z</time>
      </trkpt>
      <trkpt lat="45.41168" lon="5.55852">
        <ele>480</ele>
        <time>2023-02-16T08:07:39Z</time>
      </trkpt>
      <trkpt lat="45.41164" lon="5.55857">
        <ele>480</ele>
        <time>2023-02-16T08:07:40Z</time>
      </trkpt>
      <trkpt lat="45.41159" lon="5.55861">
        <ele>480</ele>
        <time>2023-02-16T08:07:41Z</time>
      </trkpt>
      <trkpt lat="45.41155" lon="5.55865">
        <ele>480</ele>
        <time>2023-02-16T08:07:42Z</time>
      </trkpt>
      <trkpt lat="45.4115" lon="5.5587">
        <ele>480</ele>
        <time>2023-02-16T08:07:43Z</time>
      </trkpt>
      <trkpt lat="45.41145" lon="5.55875">
        <ele>480</ele>
        <time>2023-02-16T08:07:44Z</time>
      </trkpt>
      <trkpt lat="45.4114" lon="5.55879">
        <ele>480</ele>
        <time>2023-02-16T08:07:45Z</time>
      </trkpt>
      <trkpt lat="45.41135" lon="5.55884">
        <ele>480</ele>
        <time>2023-02-16T08:07:46Z</time>
      </trkpt>
      <trkpt lat="45.41131" lon="5.55889">
        <ele>480</ele>
        <time>2023-02-16T08:07:47Z</time>
      </trkpt>
      <trkpt lat="45.41126" lon="5.55893">
        <ele>480</ele>
        <time>2023-02-16T08:07:48Z</time>
      </trkpt>
      <trkpt lat="45.41121" lon="5.55898">
        <ele>480</ele>
        <time>2023-02-16T08:07:49Z</time>
      </trkpt>
      <trkpt lat="45.41117" lon="5.55902">
        <ele>480</ele>
        <time>2023-02-16T08:07:50Z</time>
      </trkpt>
      <trkpt lat="45.41112" lon="5.55907">
        <ele>480</ele>
        <time>2023-02-16T08:07:51Z</time>
      </trkpt>
      <trkpt lat="45.41108" lon="5.55911">
        <ele>480</ele>
        <time>2023-02-16T08:07:52Z</time>
      </trkpt>
      <trkpt lat="45.41103" lon="5.55916">
        <ele>480</ele>
        <time>2023-02-16T08:07:53Z</time>
      </trkpt>
      <trkpt lat="45.41098" lon="5.5592">
        <ele>480</ele>
        <time>2023-02-16T08:07:54Z</time>
      </trkpt>
      <trkpt lat="45.41094" lon="5.55924">
        <ele>480</ele>
        <time>2023-02-16T08:07:55Z</time>
      </trkpt>
      <trkpt lat="45.41089" lon="5.55929">
        <ele>480</ele>
        <time>2023-02-16T08:07:56Z</time>
      </trkpt>
      <trkpt lat="45.41085" lon="5.55933">
        <ele>481</ele>
        <time>2023-02-16T08:07:57Z</time>
      </trkpt>
      <trkpt lat="45.4108" lon="5.55937">
        <ele>481</ele>
        <time>2023-02-16T08:07:58Z</time>
      </trkpt>
      <trkpt lat="45.41075" lon="5.55942">
        <ele>481</ele>
        <time>2023-02-16T08:07:59Z</time>
      </trkpt>
      <trkpt lat="45.41071" lon="5.55946">
        <ele>481</ele>
        <time>2023-02-16T08:08:00Z</time>
      </trkpt>
      <trkpt lat="45.41066" lon="5.55951">
        <ele>480</ele>
        <time>2023-02-16T08:08:01Z</time>
      </trkpt>
      <trkpt lat="45.41062" lon="5.55955">
        <ele>480</ele>
        <time>2023-02-16T08:08:02Z</time>
      </trkpt>
      <trkpt lat="45.41057" lon="5.5596">
        <ele>480</ele>
        <time>2023-02-16T08:08:03Z</time>
      </trkpt>
      <trkpt lat="45.41052" lon="5.55964">
        <ele>480</ele>
        <time>2023-02-16T08:08:04Z</time>
      </trkpt>
      <trkpt lat="45.41048" lon="5.55968">
        <ele>481</ele>
        <time>2023-02-16T08:08:05Z</time>
      </trkpt>
      <trkpt lat="45.41043" lon="5.55973">
        <ele>481</ele>
        <time>2023-02-16T08:08:06Z</time>
      </trkpt>
      <trkpt lat="45.41038" lon="5.55977">
        <ele>481</ele>
        <time>2023-02-16T08:08:07Z</time>
      </trkpt>
      <trkpt lat="45.41034" lon="5.55981">
        <ele>481</ele>
        <time>2023-02-16T08:08:08Z</time>
      </trkpt>
      <trkpt lat="45.41029" lon="5.55986">
        <ele>481</ele>
        <time>2023-02-16T08:08:09Z</time>
      </trkpt>
      <trkpt lat="45.41024" lon="5.5599">
        <ele>481</ele>
        <time>2023-02-16T08:08:10Z</time>
      </trkpt>
      <trkpt lat="45.4102" lon="5.55994">
        <ele>482</ele>
        <time>2023-02-16T08:08:11Z</time>
      </trkpt>
      <trkpt lat="45.41015" lon="5.55998">
        <ele>482</ele>
        <time>2023-02-16T08:08:12Z</time>
      </trkpt>
      <trkpt lat="45.41011" lon="5.56002">
        <ele>482</ele>
        <time>2023-02-16T08:08:13Z</time>
      </trkpt>
      <trkpt lat="45.41007" lon="5.56006">
        <ele>482</ele>
        <time>2023-02-16T08:08:14Z</time>
      </trkpt>
      <trkpt lat="45.41002" lon="5.56011">
        <ele>482</ele>
        <time>2023-02-16T08:08:15Z</time>
      </trkpt>
      <trkpt lat="45.40998" lon="5.56015">
        <ele>482</ele>
        <time>2023-02-16T08:08:16Z</time>
      </trkpt>
      <trkpt lat="45.40994" lon="5.56019">
        <ele>483</ele>
        <time>2023-02-16T08:08:17Z</time>
      </trkpt>
      <trkpt lat="45.4099" lon="5.56023">
        <ele>483</ele>
        <time>2023-02-16T08:08:18Z</time>
      </trkpt>
      <trkpt lat="45.40986" lon="5.56026">
        <ele>483</ele>
        <time>2023-02-16T08:08:19Z</time>
      </trkpt>
      <trkpt lat="45.40982" lon="5.5603">
        <ele>483</ele>
        <time>2023-02-16T08:08:20Z</time>
      </trkpt>
      <trkpt lat="45.40978" lon="5.56035">
        <ele>483</ele>
        <time>2023-02-16T08:08:21Z</time>
      </trkpt>
      <trkpt lat="45.40975" lon="5.56038">
        <ele>484</ele>
        <time>2023-02-16T08:08:22Z</time>
      </trkpt>
      <trkpt lat="45.40971" lon="5.56042">
        <ele>484</ele>
        <time>2023-02-16T08:08:23Z</time>
      </trkpt>
      <trkpt lat="45.40967" lon="5.56046">
        <ele>484</ele>
        <time>2023-02-16T08:08:24Z</time>
      </trkpt>
      <trkpt lat="45.40964" lon="5.56049">
        <ele>484</ele>
        <time>2023-02-16T08:08:25Z</time>
      </trkpt>
      <trkpt lat="45.4096" lon="5.56052">
        <ele>484</ele>
        <time>2023-02-16T08:08:26Z</time>
      </trkpt>
      <trkpt lat="45.40958" lon="5.56056">
        <ele>484</ele>
        <time>2023-02-16T08:08:27Z</time>
      </trkpt>
      <trkpt lat="45.40957" lon="5.56061">
        <ele>485</ele>
        <time>2023-02-16T08:08:28Z</time>
      </trkpt>
      <trkpt lat="45.40958" lon="5.56067">
        <ele>485</ele>
        <time>2023-02-16T08:08:29Z</time>
      </trkpt>
      <trkpt lat="45.4096" lon="5.56074">
        <ele>485</ele>
        <time>2023-02-16T08:08:30Z</time>
      </trkpt>
      <trkpt lat="45.40961" lon="5.5608">
        <ele>485</ele>
        <time>2023-02-16T08:08:31Z</time>
      </trkpt>
      <trkpt lat="45.40961" lon="5.56088">
        <ele>485</ele>
        <time>2023-02-16T08:08:32Z</time>
      </trkpt>
      <trkpt lat="45.40961" lon="5.56095">
        <ele>485</ele>
        <time>2023-02-16T08:08:33Z</time>
      </trkpt>
      <trkpt lat="45.40961" lon="5.56101">
        <ele>484</ele>
        <time>2023-02-16T08:08:34Z</time>
      </trkpt>
      <trkpt lat="45.4096" lon="5.56107">
        <ele>484</ele>
        <time>2023-02-16T08:08:35Z</time>
      </trkpt>
      <trkpt lat="45.4096" lon="5.56113">
        <ele>484</ele>
        <time>2023-02-16T08:08:36Z</time>
      </trkpt>
      <trkpt lat="45.4096" lon="5.56118">
        <ele>484</ele>
        <time>2023-02-16T08:08:37Z</time>
      </trkpt>
      <trkpt lat="45.4096" lon="5.56122">
        <ele>485</ele>
        <time>2023-02-16T08:08:38Z</time>
      </trkpt>
      <trkpt lat="45.40961" lon="5.56126">
        <ele>485</ele>
        <time>2023-02-16T08:08:39Z</time>
      </trkpt>
      <trkpt lat="45.40962" lon="5.56129">
        <ele>485</ele>
        <time>2023-02-16T08:08:40Z</time>
      </trkpt>
      <trkpt lat="45.40963" lon="5.56133">
        <ele>485</ele>
        <time>2023-02-16T08:08:41Z</time>
      </trkpt>
      <trkpt lat="45.40964" lon="5.56136">
        <ele>486</ele>
        <time>2023-02-16T08:08:42Z</time>
      </trkpt>
      <trkpt lat="45.40965" lon="5.56139">
        <ele>486</ele>
        <time>2023-02-16T08:08:43Z</time>
      </trkpt>
      <trkpt lat="45.40966" lon="5.56142">
        <ele>486</ele>
        <time>2023-02-16T08:08:44Z</time>
      </trkpt>
      <trkpt lat="45.40967" lon="5.56145">
        <ele>486</ele>
        <time>2023-02-16T08:08:45Z</time>
      </trkpt>
      <trkpt lat="45.40968" lon="5.56148">
        <ele>487</ele>
        <time>2023-02-16T08:08:46Z</time>
      </trkpt>
      <trkpt lat="45.40969" lon="5.5615">
        <ele>487</ele>
        <time>2023-02-16T08:08:47Z</time>
      </trkpt>
      <trkpt lat="45.40969" lon="5.56153">
        <ele>488</ele>
        <time>2023-02-16T08:08:48Z</time>
      </trkpt>
      <trkpt lat="45.4097" lon="5.56155">
        <ele>489</ele>
        <time>2023-02-16T08:08:49Z</time>
      </trkpt>
      <trkpt lat="45.40972" lon="5.56158">
        <ele>489</ele>
        <time>2023-02-16T08:08:50Z</time>
      </trkpt>
      <trkpt lat="45.40973" lon="5.5616">
        <ele>489</ele>
        <time>2023-02-16T08:08:51Z</time>
      </trkpt>
      <trkpt lat="45.40974" lon="5.56162">
        <ele>490</ele>
        <time>2023-02-16T08:08:52Z</time>
      </trkpt>
      <trkpt lat="45.40976" lon="5.56164">
        <ele>490</ele>
        <time>2023-02-16T08:08:53Z</time>
      </trkpt>
      <trkpt lat="45.40977" lon="5.56166">
        <ele>491</ele>
        <time>2023-02-16T08:08:54Z</time>
      </trkpt>
      <trkpt lat="45.40978" lon="5.56168">
        <ele>491</ele>
        <time>2023-02-16T08:08:55Z</time>
      </trkpt>
      <trkpt lat="45.40979" lon="5.56171">
        <ele>492</ele>
        <time>2023-02-16T08:08:56Z</time>
      </trkpt>
      <trkpt lat="45.40981" lon="5.56173">
        <ele>492</ele>
        <time>2023-02-16T08:08:57Z</time>
      </trkpt>
      <trkpt lat="45.40982" lon="5.56175">
        <ele>492</ele>
        <time>2023-02-16T08:08:58Z</time>
      </trkpt>
      <trkpt lat="45.40983" lon="5.56177">
        <ele>492</ele>
        <time>2023-02-16T08:08:59Z</time>
      </trkpt>
      <trkpt lat="45.40985" lon="5.5618">
        <ele>493</ele>
        <time>2023-02-16T08:09:00Z</time>
      </trkpt>
      <trkpt lat="45.40986" lon="5.56183">
        <ele>493</ele>
        <time>2023-02-16T08:09:01Z</time>
      </trkpt>
      <trkpt lat="45.40987" lon="5.56185">
        <ele>493</ele>
        <time>2023-02-16T08:09:02Z</time>
      </trkpt>
      <trkpt lat="45.40988" lon="5.56188">
        <ele>493</ele>
        <time>2023-02-16T08:09:03Z</time>
      </trkpt>
      <trkpt lat="45.40988" lon="5.5619">
        <ele>493</ele>
        <time>2023-02-16T08:09:04Z</time>
      </trkpt>
      <trkpt lat="45.40987" lon="5.56194">
        <ele>493</ele>
        <time>2023-02-16T08:09:06Z</time>
      </trkpt>
      <trkpt lat="45.40984" lon="5.56195">
        <ele>494</ele>
        <time>2023-02-16T08:09:08Z</time>
      </trkpt>
      <trkpt lat="45.40981" lon="5.56193">
        <ele>494</ele>
        <time>2023-02-16T08:09:10Z</time>
      </trkpt>
      <trkpt lat="45.4098" lon="5.5619">
        <ele>495</ele>
        <time>2023-02-16T08:09:11Z</time>
      </trkpt>
      <trkpt lat="45.40979" lon="5.56187">
        <ele>495</ele>
        <time>2023-02-16T08:09:12Z</time>
      </trkpt>
      <trkpt lat="45.40978" lon="5.56184">
        <ele>495</ele>
        <time>2023-02-16T08:09:13Z</time>
      </trkpt>
      <trkpt lat="45.40976" lon="5.5618">
        <ele>495</ele>
        <time>2023-02-16T08:09:14Z</time>
      </trkpt>
      <trkpt lat="45.40973" lon="5.56177">
        <ele>495</ele>
        <time>2023-02-16T08:09:15Z</time>
      </trkpt>
      <trkpt lat="45.4097" lon="5.56173">
        <ele>495</ele>
        <time>2023-02-16T08:09:16Z</time>
      </trkpt>
      <trkpt lat="45.40966" lon="5.5617">
        <ele>495</ele>
        <time>2023-02-16T08:09:17Z</time>
      </trkpt>
      <trkpt lat="45.40961" lon="5.56168">
        <ele>494</ele>
        <time>2023-02-16T08:09:18Z</time>
      </trkpt>
      <trkpt lat="45.40956" lon="5.56169">
        <ele>494</ele>
        <time>2023-02-16T08:09:19Z</time>
      </trkpt>
      <trkpt lat="45.40952" lon="5.56171">
        <ele>493</ele>
        <time>2023-02-16T08:09:20Z</time>
      </trkpt>
      <trkpt lat="45.40948" lon="5.56174">
        <ele>493</ele>
        <time>2023-02-16T08:09:21Z</time>
      </trkpt>
      <trkpt lat="45.40944" lon="5.56178">
        <ele>493</ele>
        <time>2023-02-16T08:09:22Z</time>
      </trkpt>
      <trkpt lat="45.4094" lon="5.56181">
        <ele>493</ele>
        <time>2023-02-16T08:09:23Z</time>
      </trkpt>
      <trkpt lat="45.40937" lon="5.56185">
        <ele>493</ele>
        <time>2023-02-16T08:09:24Z</time>
      </trkpt>
      <trkpt lat="45.40933" lon="5.56189">
        <ele>493</ele>
        <time>2023-02-16T08:09:25Z</time>
      </trkpt>
      <trkpt lat="45.4093" lon="5.56193">
        <ele>493</ele>
        <time>2023-02-16T08:09:26Z</time>
      </trkpt>
      <trkpt lat="45.40926" lon="5.56197">
        <ele>493</ele>
        <time>2023-02-16T08:09:27Z</time>
      </trkpt>
      <trkpt lat="45.40923" lon="5.56201">
        <ele>494</ele>
        <time>2023-02-16T08:09:28Z</time>
      </trkpt>
      <trkpt lat="45.40919" lon="5.56205">
        <ele>494</ele>
        <time>2023-02-16T08:09:29Z</time>
      </trkpt>
      <trkpt lat="45.40915" lon="5.56209">
        <ele>494</ele>
        <time>2023-02-16T08:09:30Z</time>
      </trkpt>
      <trkpt lat="45.40911" lon="5.56213">
        <ele>494</ele>
        <time>2023-02-16T08:09:31Z</time>
      </trkpt>
      <trkpt lat="45.40908" lon="5.56217">
        <ele>494</ele>
        <time>2023-02-16T08:09:32Z</time>
      </trkpt>
      <trkpt lat="45.40904" lon="5.56219">
        <ele>494</ele>
        <time>2023-02-16T08:09:33Z</time>
      </trkpt>
      <trkpt lat="45.409" lon="5.56219">
        <ele>495</ele>
        <time>2023-02-16T08:09:34Z</time>
      </trkpt>
      <trkpt lat="45.40895" lon="5.56219">
        <ele>495</ele>
        <time>2023-02-16T08:09:35Z</time>
      </trkpt>
      <trkpt lat="45.40891" lon="5.56221">
        <ele>495</ele>
        <time>2023-02-16T08:09:36Z</time>
      </trkpt>
      <trkpt lat="45.40888" lon="5.56225">
        <ele>495</ele>
        <time>2023-02-16T08:09:37Z</time>
      </trkpt>
      <trkpt lat="45.40884" lon="5.56229">
        <ele>495</ele>
        <time>2023-02-16T08:09:38Z</time>
      </trkpt>
      <trkpt lat="45.40881" lon="5.56233">
        <ele>495</ele>
        <time>2023-02-16T08:09:39Z</time>
      </trkpt>
      <trkpt lat="45.40877" lon="5.56238">
        <ele>495</ele>
        <time>2023-02-16T08:09:40Z</time>
      </trkpt>
      <trkpt lat="45.40873" lon="5.56242">
        <ele>495</ele>
        <time>2023-02-16T08:09:41Z</time>
      </trkpt>
      <trkpt lat="45.40869" lon="5.56247">
        <ele>495</ele>
        <time>2023-02-16T08:09:42Z</time>
      </trkpt>
      <trkpt lat="45.40866" lon="5.56253">
        <ele>495</ele>
        <time>2023-02-16T08:09:43Z</time>
      </trkpt>
      <trkpt lat="45.40863" lon="5.56258">
        <ele>495</ele>
        <time>2023-02-16T08:09:44Z</time>
      </trkpt>
      <trkpt lat="45.40859" lon="5.56264">
        <ele>495</ele>
        <time>2023-02-16T08:09:45Z</time>
      </trkpt>
      <trkpt lat="45.40856" lon="5.56269">
        <ele>495</ele>
        <time>2023-02-16T08:09:46Z</time>
      </trkpt>
      <trkpt lat="45.40853" lon="5.56275">
        <ele>495</ele>
        <time>2023-02-16T08:09:47Z</time>
      </trkpt>
      <trkpt lat="45.40851" lon="5.56281">
        <ele>495</ele>
        <time>2023-02-16T08:09:48Z</time>
      </trkpt>
      <trkpt lat="45.40848" lon="5.56287">
        <ele>495</ele>
        <time>2023-02-16T08:09:49Z</time>
      </trkpt>
      <trkpt lat="45.40845" lon="5.56293">
        <ele>495</ele>
        <time>2023-02-16T08:09:50Z</time>
      </trkpt>
      <trkpt lat="45.40842" lon="5.56299">
        <ele>495</ele>
        <time>2023-02-16T08:09:51Z</time>
      </trkpt>
      <trkpt lat="45.40839" lon="5.56305">
        <ele>495</ele>
        <time>2023-02-16T08:09:52Z</time>
      </trkpt>
      <trkpt lat="45.40836" lon="5.5631">
        <ele>495</ele>
        <time>2023-02-16T08:09:53Z</time>
      </trkpt>
      <trkpt lat="45.40833" lon="5.56316">
        <ele>495</ele>
        <time>2023-02-16T08:09:54Z</time>
      </trkpt>
      <trkpt lat="45.40829" lon="5.56322">
        <ele>495</ele>
        <time>2023-02-16T08:09:55Z</time>
      </trkpt>
      <trkpt lat="45.40826" lon="5.56327">
        <ele>495</ele>
        <time>2023-02-16T08:09:56Z</time>
      </trkpt>
      <trkpt lat="45.40823" lon="5.56333">
        <ele>496</ele>
        <time>2023-02-16T08:09:57Z</time>
      </trkpt>
      <trkpt lat="45.40819" lon="5.56338">
        <ele>496</ele>
        <time>2023-02-16T08:09:58Z</time>
      </trkpt>
      <trkpt lat="45.40816" lon="5.56344">
        <ele>496</ele>
        <time>2023-02-16T08:09:59Z</time>
      </trkpt>
      <trkpt lat="45.40812" lon="5.56349">
        <ele>496</ele>
        <time>2023-02-16T08:10:00Z</time>
      </trkpt>
      <trkpt lat="45.40809" lon="5.56354">
        <ele>494</ele>
        <time>2023-02-16T08:10:01Z</time>
      </trkpt>
      <trkpt lat="45.40805" lon="5.5636">
        <ele>494</ele>
        <time>2023-02-16T08:10:02Z</time>
      </trkpt>
      <trkpt lat="45.40802" lon="5.56365">
        <ele>494</ele>
        <time>2023-02-16T08:10:03Z</time>
      </trkpt>
      <trkpt lat="45.40798" lon="5.56371">
        <ele>494</ele>
        <time>2023-02-16T08:10:04Z</time>
      </trkpt>
      <trkpt lat="45.40795" lon="5.56376">
        <ele>494</ele>
        <time>2023-02-16T08:10:05Z</time>
      </trkpt>
      <trkpt lat="45.40792" lon="5.56382">
        <ele>494</ele>
        <time>2023-02-16T08:10:06Z</time>
      </trkpt>
      <trkpt lat="45.40788" lon="5.56387">
        <ele>494</ele>
        <time>2023-02-16T08:10:07Z</time>
      </trkpt>
      <trkpt lat="45.40785" lon="5.56392">
        <ele>494</ele>
        <time>2023-02-16T08:10:08Z</time>
      </trkpt>
      <trkpt lat="45.40782" lon="5.56398">
        <ele>494</ele>
        <time>2023-02-16T08:10:09Z</time>
      </trkpt>
      <trkpt lat="45.40778" lon="5.56403">
        <ele>494</ele>
        <time>2023-02-16T08:10:10Z</time>
      </trkpt>
      <trkpt lat="45.40775" lon="5.56408">
        <ele>495</ele>
        <time>2023-02-16T08:10:11Z</time>
      </trkpt>
      <trkpt lat="45.40772" lon="5.56413">
        <ele>495</ele>
        <time>2023-02-16T08:10:12Z</time>
      </trkpt>
      <trkpt lat="45.40769" lon="5.56419">
        <ele>495</ele>
        <time>2023-02-16T08:10:13Z</time>
      </trkpt>
      <trkpt lat="45.40765" lon="5.56424">
        <ele>495</ele>
        <time>2023-02-16T08:10:14Z</time>
      </trkpt>
      <trkpt lat="45.40762" lon="5.56429">
        <ele>495</ele>
        <time>2023-02-16T08:10:15Z</time>
      </trkpt>
      <trkpt lat="45.40759" lon="5.56434">
        <ele>495</ele>
        <time>2023-02-16T08:10:16Z</time>
      </trkpt>
      <trkpt lat="45.40756" lon="5.56439">
        <ele>495</ele>
        <time>2023-02-16T08:10:17Z</time>
      </trkpt>
      <trkpt lat="45.40753" lon="5.56444">
        <ele>495</ele>
        <time>2023-02-16T08:10:18Z</time>
      </trkpt>
      <trkpt lat="45.40749" lon="5.56449">
        <ele>495</ele>
        <time>2023-02-16T08:10:19Z</time>
      </trkpt>
      <trkpt lat="45.40745" lon="5.56452">
        <ele>495</ele>
        <time>2023-02-16T08:10:20Z</time>
      </trkpt>
      <trkpt lat="45.40741" lon="5.56455">
        <ele>495</ele>
        <time>2023-02-16T08:10:21Z</time>
      </trkpt>
      <trkpt lat="45.40738" lon="5.56459">
        <ele>495</ele>
        <time>2023-02-16T08:10:22Z</time>
      </trkpt>
      <trkpt lat="45.40734" lon="5.56464">
        <ele>495</ele>
        <time>2023-02-16T08:10:23Z</time>
      </trkpt>
      <trkpt lat="45.40731" lon="5.5647">
        <ele>495</ele>
        <time>2023-02-16T08:10:24Z</time>
      </trkpt>
      <trkpt lat="45.40729" lon="5.56475">
        <ele>496</ele>
        <time>2023-02-16T08:10:25Z</time>
      </trkpt>
      <trkpt lat="45.40726" lon="5.56481">
        <ele>496</ele>
        <time>2023-02-16T08:10:26Z</time>
      </trkpt>
      <trkpt lat="45.40723" lon="5.56487">
        <ele>496</ele>
        <time>2023-02-16T08:10:27Z</time>
      </trkpt>
      <trkpt lat="45.4072" lon="5.56493">
        <ele>496</ele>
        <time>2023-02-16T08:10:28Z</time>
      </trkpt>
      <trkpt lat="45.40718" lon="5.56499">
        <ele>496</ele>
        <time>2023-02-16T08:10:29Z</time>
      </trkpt>
      <trkpt lat="45.40716" lon="5.56505">
        <ele>495</ele>
        <time>2023-02-16T08:10:30Z</time>
      </trkpt>
      <trkpt lat="45.40714" lon="5.56512">
        <ele>495</ele>
        <time>2023-02-16T08:10:31Z</time>
      </trkpt>
      <trkpt lat="45.40712" lon="5.56518">
        <ele>496</ele>
        <time>2023-02-16T08:10:32Z</time>
      </trkpt>
      <trkpt lat="45.4071" lon="5.56524">
        <ele>496</ele>
        <time>2023-02-16T08:10:33Z</time>
      </trkpt>
      <trkpt lat="45.40708" lon="5.5653">
        <ele>496</ele>
        <time>2023-02-16T08:10:34Z</time>
      </trkpt>
      <trkpt lat="45.40707" lon="5.56536">
        <ele>496</ele>
        <time>2023-02-16T08:10:35Z</time>
      </trkpt>
      <trkpt lat="45.40705" lon="5.56543">
        <ele>497</ele>
        <time>2023-02-16T08:10:36Z</time>
      </trkpt>
      <trkpt lat="45.40703" lon="5.56549">
        <ele>497</ele>
        <time>2023-02-16T08:10:37Z</time>
      </trkpt>
      <trkpt lat="45.40702" lon="5.56555">
        <ele>497</ele>
        <time>2023-02-16T08:10:38Z</time>
      </trkpt>
      <trkpt lat="45.40701" lon="5.56561">
        <ele>497</ele>
        <time>2023-02-16T08:10:39Z</time>
      </trkpt>
      <trkpt lat="45.407" lon="5.56567">
        <ele>497</ele>
        <time>2023-02-16T08:10:40Z</time>
      </trkpt>
      <trkpt lat="45.40699" lon="5.56573">
        <ele>497</ele>
        <time>2023-02-16T08:10:41Z</time>
      </trkpt>
      <trkpt lat="45.40698" lon="5.56579">
        <ele>497</ele>
        <time>2023-02-16T08:10:42Z</time>
      </trkpt>
      <trkpt lat="45.40698" lon="5.56584">
        <ele>498</ele>
        <time>2023-02-16T08:10:43Z</time>
      </trkpt>
      <trkpt lat="45.40697" lon="5.5659">
        <ele>498</ele>
        <time>2023-02-16T08:10:44Z</time>
      </trkpt>
      <trkpt lat="45.40697" lon="5.56597">
        <ele>498</ele>
        <time>2023-02-16T08:10:45Z</time>
      </trkpt>
      <trkpt lat="45.40696" lon="5.56603">
        <ele>498</ele>
        <time>2023-02-16T08:10:46Z</time>
      </trkpt>
      <trkpt lat="45.40696" lon="5.56609">
        <ele>498</ele>
        <time>2023-02-16T08:10:47Z</time>
      </trkpt>
      <trkpt lat="45.40696" lon="5.56614">
        <ele>498</ele>
        <time>2023-02-16T08:10:48Z</time>
      </trkpt>
      <trkpt lat="45.40696" lon="5.5662">
        <ele>499</ele>
        <time>2023-02-16T08:10:49Z</time>
      </trkpt>
      <trkpt lat="45.40696" lon="5.56626">
        <ele>499</ele>
        <time>2023-02-16T08:10:50Z</time>
      </trkpt>
      <trkpt lat="45.40696" lon="5.56632">
        <ele>499</ele>
        <time>2023-02-16T08:10:51Z</time>
      </trkpt>
      <trkpt lat="45.40696" lon="5.56638">
        <ele>499</ele>
        <time>2023-02-16T08:10:52Z</time>
      </trkpt>
      <trkpt lat="45.40696" lon="5.56643">
        <ele>499</ele>
        <time>2023-02-16T08:10:53Z</time>
      </trkpt>
      <trkpt lat="45.40696" lon="5.56649">
        <ele>500</ele>
        <time>2023-02-16T08:10:54Z</time>
      </trkpt>
      <trkpt lat="45.40696" lon="5.56654">
        <ele>500</ele>
        <time>2023-02-16T08:10:55Z</time>
      </trkpt>
      <trkpt lat="45.40696" lon="5.5666">
        <ele>501</ele>
        <time>2023-02-16T08:10:56Z</time>
      </trkpt>
      <trkpt lat="45.40696" lon="5.56666">
        <ele>501</ele>
        <time>2023-02-16T08:10:57Z</time>
      </trkpt>
      <trkpt lat="45.40696" lon="5.56671">
        <ele>501</ele>
        <time>2023-02-16T08:10:58Z</time>
      </trkpt>
      <trkpt lat="45.40696" lon="5.56676">
        <ele>501</ele>
        <time>2023-02-16T08:10:59Z</time>
      </trkpt>
      <trkpt lat="45.40696" lon="5.56682">
        <ele>500</ele>
        <time>2023-02-16T08:11:00Z</time>
      </trkpt>
      <trkpt lat="45.40696" lon="5.56687">
        <ele>500</ele>
        <time>2023-02-16T08:11:01Z</time>
      </trkpt>
      <trkpt lat="45.40696" lon="5.56692">
        <ele>502</ele>
        <time>2023-02-16T08:11:02Z</time>
      </trkpt>
      <trkpt lat="45.40696" lon="5.56697">
        <ele>502</ele>
        <time>2023-02-16T08:11:03Z</time>
      </trkpt>
      <trkpt lat="45.40696" lon="5.56703">
        <ele>502</ele>
        <time>2023-02-16T08:11:04Z</time>
      </trkpt>
      <trkpt lat="45.40695" lon="5.56707">
        <ele>502</ele>
        <time>2023-02-16T08:11:05Z</time>
      </trkpt>
      <trkpt lat="45.40694" lon="5.56711">
        <ele>502</ele>
        <time>2023-02-16T08:11:06Z</time>
      </trkpt>
      <trkpt lat="45.40694" lon="5.56715">
        <ele>502</ele>
        <time>2023-02-16T08:11:07Z</time>
      </trkpt>
      <trkpt lat="45.40693" lon="5.56719">
        <ele>502</ele>
        <time>2023-02-16T08:11:08Z</time>
      </trkpt>
      <trkpt lat="45.40692" lon="5.56723">
        <ele>502</ele>
        <time>2023-02-16T08:11:09Z</time>
      </trkpt>
      <trkpt lat="45.40691" lon="5.56727">
        <ele>502</ele>
        <time>2023-02-16T08:11:10Z</time>
      </trkpt>
      <trkpt lat="45.4069" lon="5.56731">
        <ele>503</ele>
        <time>2023-02-16T08:11:11Z</time>
      </trkpt>
      <trkpt lat="45.40689" lon="5.56735">
        <ele>503</ele>
        <time>2023-02-16T08:11:12Z</time>
      </trkpt>
      <trkpt lat="45.40687" lon="5.56739">
        <ele>503</ele>
        <time>2023-02-16T08:11:13Z</time>
      </trkpt>
      <trkpt lat="45.40686" lon="5.56743">
        <ele>504</ele>
        <time>2023-02-16T08:11:14Z</time>
      </trkpt>
      <trkpt lat="45.40684" lon="5.56746">
        <ele>504</ele>
        <time>2023-02-16T08:11:15Z</time>
      </trkpt>
      <trkpt lat="45.40683" lon="5.5675">
        <ele>505</ele>
        <time>2023-02-16T08:11:16Z</time>
      </trkpt>
      <trkpt lat="45.40681" lon="5.56754">
        <ele>505</ele>
        <time>2023-02-16T08:11:17Z</time>
      </trkpt>
      <trkpt lat="45.40679" lon="5.56758">
        <ele>505</ele>
        <time>2023-02-16T08:11:18Z</time>
      </trkpt>
      <trkpt lat="45.40677" lon="5.56762">
        <ele>505</ele>
        <time>2023-02-16T08:11:19Z</time>
      </trkpt>
      <trkpt lat="45.40675" lon="5.56766">
        <ele>506</ele>
        <time>2023-02-16T08:11:20Z</time>
      </trkpt>
      <trkpt lat="45.40673" lon="5.5677">
        <ele>506</ele>
        <time>2023-02-16T08:11:21Z</time>
      </trkpt>
      <trkpt lat="45.40671" lon="5.56774">
        <ele>507</ele>
        <time>2023-02-16T08:11:22Z</time>
      </trkpt>
      <trkpt lat="45.40669" lon="5.56778">
        <ele>507</ele>
        <time>2023-02-16T08:11:23Z</time>
      </trkpt>
      <trkpt lat="45.40667" lon="5.56782">
        <ele>507</ele>
        <time>2023-02-16T08:11:24Z</time>
      </trkpt>
      <trkpt lat="45.40665" lon="5.56786">
        <ele>507</ele>
        <time>2023-02-16T08:11:25Z</time>
      </trkpt>
      <trkpt lat="45.40663" lon="5.5679">
        <ele>507</ele>
        <time>2023-02-16T08:11:26Z</time>
      </trkpt>
      <trkpt lat="45.40661" lon="5.56794">
        <ele>507</ele>
        <time>2023-02-16T08:11:27Z</time>
      </trkpt>
      <trkpt lat="45.4066" lon="5.56798">
        <ele>507</ele>
        <time>2023-02-16T08:11:28Z</time>
      </trkpt>
      <trkpt lat="45.40658" lon="5.56802">
        <ele>507</ele>
        <time>2023-02-16T08:11:29Z</time>
      </trkpt>
      <trkpt lat="45.40656" lon="5.56807">
        <ele>507</ele>
        <time>2023-02-16T08:11:30Z</time>
      </trkpt>
      <trkpt lat="45.40655" lon="5.56811">
        <ele>507</ele>
        <time>2023-02-16T08:11:31Z</time>
      </trkpt>
      <trkpt lat="45.40653" lon="5.56815">
        <ele>507</ele>
        <time>2023-02-16T08:11:32Z</time>
      </trkpt>
      <trkpt lat="45.4065" lon="5.56819">
        <ele>507</ele>
        <time>2023-02-16T08:11:33Z</time>
      </trkpt>
      <trkpt lat="45.40648" lon="5.56823">
        <ele>507</ele>
        <time>2023-02-16T08:11:34Z</time>
      </trkpt>
      <trkpt lat="45.40646" lon="5.56826">
        <ele>507</ele>
        <time>2023-02-16T08:11:35Z</time>
      </trkpt>
      <trkpt lat="45.40644" lon="5.5683">
        <ele>507</ele>
        <time>2023-02-16T08:11:36Z</time>
      </trkpt>
      <trkpt lat="45.40642" lon="5.56834">
        <ele>507</ele>
        <time>2023-02-16T08:11:37Z</time>
      </trkpt>
      <trkpt lat="45.40641" lon="5.56838">
        <ele>508</ele>
        <time>2023-02-16T08:11:38Z</time>
      </trkpt>
      <trkpt lat="45.40639" lon="5.56842">
        <ele>508</ele>
        <time>2023-02-16T08:11:39Z</time>
      </trkpt>
      <trkpt lat="45.40637" lon="5.56846">
        <ele>508</ele>
        <time>2023-02-16T08:11:40Z</time>
      </trkpt>
      <trkpt lat="45.40636" lon="5.5685">
        <ele>508</ele>
        <time>2023-02-16T08:11:41Z</time>
      </trkpt>
      <trkpt lat="45.40634" lon="5.56853">
        <ele>509</ele>
        <time>2023-02-16T08:11:42Z</time>
      </trkpt>
      <trkpt lat="45.40633" lon="5.56856">
        <ele>509</ele>
        <time>2023-02-16T08:11:43Z</time>
      </trkpt>
      <trkpt lat="45.40631" lon="5.56859">
        <ele>511</ele>
        <time>2023-02-16T08:11:44Z</time>
      </trkpt>
      <trkpt lat="45.4063" lon="5.56862">
        <ele>511</ele>
        <time>2023-02-16T08:11:45Z</time>
      </trkpt>
      <trkpt lat="45.40628" lon="5.56865">
        <ele>511</ele>
        <time>2023-02-16T08:11:46Z</time>
      </trkpt>
      <trkpt lat="45.40627" lon="5.56868">
        <ele>512</ele>
        <time>2023-02-16T08:11:47Z</time>
      </trkpt>
      <trkpt lat="45.40626" lon="5.56871">
        <ele>512</ele>
        <time>2023-02-16T08:11:48Z</time>
      </trkpt>
      <trkpt lat="45.40624" lon="5.56875">
        <ele>512</ele>
        <time>2023-02-16T08:11:49Z</time>
      </trkpt>
      <trkpt lat="45.40622" lon="5.56878">
        <ele>512</ele>
        <time>2023-02-16T08:11:50Z</time>
      </trkpt>
      <trkpt lat="45.40621" lon="5.56881">
        <ele>512</ele>
        <time>2023-02-16T08:11:51Z</time>
      </trkpt>
      <trkpt lat="45.40619" lon="5.56884">
        <ele>513</ele>
        <time>2023-02-16T08:11:52Z</time>
      </trkpt>
      <trkpt lat="45.40617" lon="5.56886">
        <ele>513</ele>
        <time>2023-02-16T08:11:53Z</time>
      </trkpt>
      <trkpt lat="45.40615" lon="5.56889">
        <ele>513</ele>
        <time>2023-02-16T08:11:54Z</time>
      </trkpt>
      <trkpt lat="45.40613" lon="5.56892">
        <ele>513</ele>
        <time>2023-02-16T08:11:55Z</time>
      </trkpt>
      <trkpt lat="45.40611" lon="5.56895">
        <ele>514</ele>
        <time>2023-02-16T08:11:56Z</time>
      </trkpt>
      <trkpt lat="45.40609" lon="5.56898">
        <ele>514</ele>
        <time>2023-02-16T08:11:57Z</time>
      </trkpt>
      <trkpt lat="45.40607" lon="5.56902">
        <ele>514</ele>
        <time>2023-02-16T08:11:58Z</time>
      </trkpt>
      <trkpt lat="45.40605" lon="5.56905">
        <ele>514</ele>
        <time>2023-02-16T08:11:59Z</time>
      </trkpt>
      <trkpt lat="45.40602" lon="5.56908">
        <ele>515</ele>
        <time>2023-02-16T08:12:00Z</time>
      </trkpt>
      <trkpt lat="45.40599" lon="5.56911">
        <ele>515</ele>
        <time>2023-02-16T08:12:01Z</time>
      </trkpt>
      <trkpt lat="45.40596" lon="5.56915">
        <ele>515</ele>
        <time>2023-02-16T08:12:02Z</time>
      </trkpt>
      <trkpt lat="45.40593" lon="5.56918">
        <ele>515</ele>
        <time>2023-02-16T08:12:03Z</time>
      </trkpt>
      <trkpt lat="45.4059" lon="5.56921">
        <ele>515</ele>
        <time>2023-02-16T08:12:04Z</time>
      </trkpt>
      <trkpt lat="45.40587" lon="5.56925">
        <ele>515</ele>
        <time>2023-02-16T08:12:05Z</time>
      </trkpt>
      <trkpt lat="45.40585" lon="5.56928">
        <ele>515</ele>
        <time>2023-02-16T08:12:06Z</time>
      </trkpt>
      <trkpt lat="45.40582" lon="5.56931">
        <ele>515</ele>
        <time>2023-02-16T08:12:07Z</time>
      </trkpt>
      <trkpt lat="45.40579" lon="5.56935">
        <ele>515</ele>
        <time>2023-02-16T08:12:08Z</time>
      </trkpt>
      <trkpt lat="45.40576" lon="5.56938">
        <ele>515</ele>
        <time>2023-02-16T08:12:09Z</time>
      </trkpt>
      <trkpt lat="45.40573" lon="5.56941">
        <ele>516</ele>
        <time>2023-02-16T08:12:10Z</time>
      </trkpt>
      <trkpt lat="45.4057" lon="5.56944">
        <ele>516</ele>
        <time>2023-02-16T08:12:11Z</time>
      </trkpt>
      <trkpt lat="45.40567" lon="5.56947">
        <ele>516</ele>
        <time>2023-02-16T08:12:12Z</time>
      </trkpt>
      <trkpt lat="45.40563" lon="5.5695">
        <ele>516</ele>
        <time>2023-02-16T08:12:13Z</time>
      </trkpt>
      <trkpt lat="45.4056" lon="5.56954">
        <ele>516</ele>
        <time>2023-02-16T08:12:14Z</time>
      </trkpt>
      <trkpt lat="45.40557" lon="5.56957">
        <ele>516</ele>
        <time>2023-02-16T08:12:15Z</time>
      </trkpt>
      <trkpt lat="45.40554" lon="5.5696">
        <ele>517</ele>
        <time>2023-02-16T08:12:16Z</time>
      </trkpt>
      <trkpt lat="45.40551" lon="5.56964">
        <ele>517</ele>
        <time>2023-02-16T08:12:17Z</time>
      </trkpt>
      <trkpt lat="45.40548" lon="5.56967">
        <ele>517</ele>
        <time>2023-02-16T08:12:18Z</time>
      </trkpt>
      <trkpt lat="45.40545" lon="5.5697">
        <ele>517</ele>
        <time>2023-02-16T08:12:19Z</time>
      </trkpt>
      <trkpt lat="45.40543" lon="5.56974">
        <ele>517</ele>
        <time>2023-02-16T08:12:20Z</time>
      </trkpt>
      <trkpt lat="45.4054" lon="5.56977">
        <ele>517</ele>
        <time>2023-02-16T08:12:21Z</time>
      </trkpt>
      <trkpt lat="45.40538" lon="5.56981">
        <ele>517</ele>
        <time>2023-02-16T08:12:22Z</time>
      </trkpt>
      <trkpt lat="45.40535" lon="5.56984">
        <ele>517</ele>
        <time>2023-02-16T08:12:23Z</time>
      </trkpt>
      <trkpt lat="45.40532" lon="5.56987">
        <ele>517</ele>
        <time>2023-02-16T08:12:24Z</time>
      </trkpt>
      <trkpt lat="45.40529" lon="5.56991">
        <ele>517</ele>
        <time>2023-02-16T08:12:25Z</time>
      </trkpt>
      <trkpt lat="45.40526" lon="5.56994">
        <ele>517</ele>
        <time>2023-02-16T08:12:26Z</time>
      </trkpt>
      <trkpt lat="45.40523" lon="5.56997">
        <ele>518</ele>
        <time>2023-02-16T08:12:27Z</time>
      </trkpt>
      <trkpt lat="45.4052" lon="5.57">
        <ele>518</ele>
        <time>2023-02-16T08:12:28Z</time>
      </trkpt>
      <trkpt lat="45.40517" lon="5.57003">
        <ele>519</ele>
        <time>2023-02-16T08:12:29Z</time>
      </trkpt>
      <trkpt lat="45.40514" lon="5.57007">
        <ele>519</ele>
        <time>2023-02-16T08:12:30Z</time>
      </trkpt>
      <trkpt lat="45.40509" lon="5.57011">
        <ele>519</ele>
        <time>2023-02-16T08:12:31Z</time>
      </trkpt>
      <trkpt lat="45.40505" lon="5.57015">
        <ele>519</ele>
        <time>2023-02-16T08:12:32Z</time>
      </trkpt>
      <trkpt lat="45.405" lon="5.5702">
        <ele>519</ele>
        <time>2023-02-16T08:12:33Z</time>
      </trkpt>
      <trkpt lat="45.40494" lon="5.57024">
        <ele>518</ele>
        <time>2023-02-16T08:12:34Z</time>
      </trkpt>
      <trkpt lat="45.40488" lon="5.5703">
        <ele>518</ele>
        <time>2023-02-16T08:12:35Z</time>
      </trkpt>
      <trkpt lat="45.40482" lon="5.57036">
        <ele>516</ele>
        <time>2023-02-16T08:12:36Z</time>
      </trkpt>
      <trkpt lat="45.40475" lon="5.57042">
        <ele>516</ele>
        <time>2023-02-16T08:12:37Z</time>
      </trkpt>
      <trkpt lat="45.40469" lon="5.57048">
        <ele>514</ele>
        <time>2023-02-16T08:12:38Z</time>
      </trkpt>
      <trkpt lat="45.40462" lon="5.57054">
        <ele>514</ele>
        <time>2023-02-16T08:12:39Z</time>
      </trkpt>
      <trkpt lat="45.40455" lon="5.57061">
        <ele>514</ele>
        <time>2023-02-16T08:12:40Z</time>
      </trkpt>
      <trkpt lat="45.40448" lon="5.57067">
        <ele>514</ele>
        <time>2023-02-16T08:12:41Z</time>
      </trkpt>
      <trkpt lat="45.4044" lon="5.57073">
        <ele>514</ele>
        <time>2023-02-16T08:12:42Z</time>
      </trkpt>
      <trkpt lat="45.40432" lon="5.57079">
        <ele>512</ele>
        <time>2023-02-16T08:12:43Z</time>
      </trkpt>
      <trkpt lat="45.40424" lon="5.57085">
        <ele>512</ele>
        <time>2023-02-16T08:12:44Z</time>
      </trkpt>
      <trkpt lat="45.40416" lon="5.57091">
        <ele>510</ele>
        <time>2023-02-16T08:12:45Z</time>
      </trkpt>
      <trkpt lat="45.40408" lon="5.57098">
        <ele>510</ele>
        <time>2023-02-16T08:12:46Z</time>
      </trkpt>
      <trkpt lat="45.404" lon="5.57104">
        <ele>510</ele>
        <time>2023-02-16T08:12:47Z</time>
      </trkpt>
      <trkpt lat="45.40392" lon="5.57112">
        <ele>510</ele>
        <time>2023-02-16T08:12:48Z</time>
      </trkpt>
      <trkpt lat="45.40385" lon="5.5712">
        <ele>508</ele>
        <time>2023-02-16T08:12:49Z</time>
      </trkpt>
      <trkpt lat="45.40378" lon="5.57128">
        <ele>508</ele>
        <time>2023-02-16T08:12:50Z</time>
      </trkpt>
      <trkpt lat="45.40372" lon="5.57136">
        <ele>507</ele>
        <time>2023-02-16T08:12:51Z</time>
      </trkpt>
      <trkpt lat="45.40365" lon="5.57145">
        <ele>507</ele>
        <time>2023-02-16T08:12:52Z</time>
      </trkpt>
      <trkpt lat="45.40359" lon="5.57154">
        <ele>507</ele>
        <time>2023-02-16T08:12:53Z</time>
      </trkpt>
      <trkpt lat="45.40353" lon="5.57163">
        <ele>506</ele>
        <time>2023-02-16T08:12:54Z</time>
      </trkpt>
      <trkpt lat="45.40346" lon="5.57171">
        <ele>506</ele>
        <time>2023-02-16T08:12:55Z</time>
      </trkpt>
      <trkpt lat="45.40339" lon="5.5718">
        <ele>506</ele>
        <time>2023-02-16T08:12:56Z</time>
      </trkpt>
      <trkpt lat="45.40333" lon="5.57188">
        <ele>504</ele>
        <time>2023-02-16T08:12:57Z</time>
      </trkpt>
      <trkpt lat="45.40327" lon="5.57196">
        <ele>504</ele>
        <time>2023-02-16T08:12:58Z</time>
      </trkpt>
      <trkpt lat="45.40321" lon="5.57204">
        <ele>501</ele>
        <time>2023-02-16T08:12:59Z</time>
      </trkpt>
      <trkpt lat="45.40315" lon="5.57212">
        <ele>501</ele>
        <time>2023-02-16T08:13:00Z</time>
      </trkpt>
      <trkpt lat="45.4031" lon="5.5722">
        <ele>501</ele>
        <time>2023-02-16T08:13:01Z</time>
      </trkpt>
      <trkpt lat="45.40305" lon="5.57227">
        <ele>501</ele>
        <time>2023-02-16T08:13:02Z</time>
      </trkpt>
      <trkpt lat="45.40301" lon="5.57235">
        <ele>502</ele>
        <time>2023-02-16T08:13:03Z</time>
      </trkpt>
      <trkpt lat="45.40297" lon="5.57242">
        <ele>504</ele>
        <time>2023-02-16T08:13:04Z</time>
      </trkpt>
      <trkpt lat="45.40294" lon="5.57249">
        <ele>505</ele>
        <time>2023-02-16T08:13:05Z</time>
      </trkpt>
      <trkpt lat="45.40292" lon="5.57256">
        <ele>505</ele>
        <time>2023-02-16T08:13:06Z</time>
      </trkpt>
      <trkpt lat="45.40289" lon="5.57263">
        <ele>505</ele>
        <time>2023-02-16T08:13:07Z</time>
      </trkpt>
      <trkpt lat="45.40287" lon="5.5727">
        <ele>505</ele>
        <time>2023-02-16T08:13:08Z</time>
      </trkpt>
      <trkpt lat="45.40284" lon="5.57277">
        <ele>505</ele>
        <time>2023-02-16T08:13:09Z</time>
      </trkpt>
      <trkpt lat="45.40282" lon="5.57285">
        <ele>505</ele>
        <time>2023-02-16T08:13:10Z</time>
      </trkpt>
      <trkpt lat="45.40279" lon="5.57292">
        <ele>505</ele>
        <time>2023-02-16T08:13:11Z</time>
      </trkpt>
      <trkpt lat="45.40277" lon="5.573">
        <ele>506</ele>
        <time>2023-02-16T08:13:12Z</time>
      </trkpt>
      <trkpt lat="45.40274" lon="5.57307">
        <ele>506</ele>
        <time>2023-02-16T08:13:13Z</time>
      </trkpt>
      <trkpt lat="45.40271" lon="5.57315">
        <ele>506</ele>
        <time>2023-02-16T08:13:14Z</time>
      </trkpt>
      <trkpt lat="45.40269" lon="5.57322">
        <ele>506</ele>
        <time>2023-02-16T08:13:15Z</time>
      </trkpt>
      <trkpt lat="45.40267" lon="5.57329">
        <ele>506</ele>
        <time>2023-02-16T08:13:16Z</time>
      </trkpt>
      <trkpt lat="45.40264" lon="5.57336">
        <ele>506</ele>
        <time>2023-02-16T08:13:17Z</time>
      </trkpt>
      <trkpt lat="45.40262" lon="5.57343">
        <ele>506</ele>
        <time>2023-02-16T08:13:18Z</time>
      </trkpt>
      <trkpt lat="45.40259" lon="5.57351">
        <ele>506</ele>
        <time>2023-02-16T08:13:19Z</time>
      </trkpt>
      <trkpt lat="45.40257" lon="5.57358">
        <ele>506</ele>
        <time>2023-02-16T08:13:20Z</time>
      </trkpt>
      <trkpt lat="45.40254" lon="5.57365">
        <ele>506</ele>
        <time>2023-02-16T08:13:21Z</time>
      </trkpt>
      <trkpt lat="45.40251" lon="5.57372">
        <ele>506</ele>
        <time>2023-02-16T08:13:22Z</time>
      </trkpt>
      <trkpt lat="45.40248" lon="5.57379">
        <ele>506</ele>
        <time>2023-02-16T08:13:23Z</time>
      </trkpt>
      <trkpt lat="45.40245" lon="5.57386">
        <ele>506</ele>
        <time>2023-02-16T08:13:24Z</time>
      </trkpt>
      <trkpt lat="45.40242" lon="5.57393">
        <ele>506</ele>
        <time>2023-02-16T08:13:25Z</time>
      </trkpt>
      <trkpt lat="45.40239" lon="5.57401">
        <ele>505</ele>
        <time>2023-02-16T08:13:26Z</time>
      </trkpt>
      <trkpt lat="45.40237" lon="5.57408">
        <ele>505</ele>
        <time>2023-02-16T08:13:27Z</time>
      </trkpt>
      <trkpt lat="45.40234" lon="5.57416">
        <ele>505</ele>
        <time>2023-02-16T08:13:28Z</time>
      </trkpt>
      <trkpt lat="45.40231" lon="5.57423">
        <ele>505</ele>
        <time>2023-02-16T08:13:29Z</time>
      </trkpt>
      <trkpt lat="45.40228" lon="5.5743">
        <ele>505</ele>
        <time>2023-02-16T08:13:30Z</time>
      </trkpt>
      <trkpt lat="45.40226" lon="5.57438">
        <ele>506</ele>
        <time>2023-02-16T08:13:31Z</time>
      </trkpt>
      <trkpt lat="45.40223" lon="5.57445">
        <ele>506</ele>
        <time>2023-02-16T08:13:32Z</time>
      </trkpt>
      <trkpt lat="45.4022" lon="5.57452">
        <ele>506</ele>
        <time>2023-02-16T08:13:33Z</time>
      </trkpt>
      <trkpt lat="45.40217" lon="5.57459">
        <ele>506</ele>
        <time>2023-02-16T08:13:34Z</time>
      </trkpt>
      <trkpt lat="45.40214" lon="5.57466">
        <ele>505</ele>
        <time>2023-02-16T08:13:35Z</time>
      </trkpt>
      <trkpt lat="45.40211" lon="5.57473">
        <ele>505</ele>
        <time>2023-02-16T08:13:36Z</time>
      </trkpt>
      <trkpt lat="45.40208" lon="5.5748">
        <ele>505</ele>
        <time>2023-02-16T08:13:37Z</time>
      </trkpt>
      <trkpt lat="45.40205" lon="5.57487">
        <ele>505</ele>
        <time>2023-02-16T08:13:38Z</time>
      </trkpt>
      <trkpt lat="45.40202" lon="5.57494">
        <ele>505</ele>
        <time>2023-02-16T08:13:39Z</time>
      </trkpt>
      <trkpt lat="45.40199" lon="5.57502">
        <ele>506</ele>
        <time>2023-02-16T08:13:40Z</time>
      </trkpt>
      <trkpt lat="45.40196" lon="5.5751">
        <ele>506</ele>
        <time>2023-02-16T08:13:41Z</time>
      </trkpt>
      <trkpt lat="45.40193" lon="5.57519">
        <ele>506</ele>
        <time>2023-02-16T08:13:42Z</time>
      </trkpt>
      <trkpt lat="45.4019" lon="5.57528">
        <ele>505</ele>
        <time>2023-02-16T08:13:43Z</time>
      </trkpt>
      <trkpt lat="45.40187" lon="5.57536">
        <ele>505</ele>
        <time>2023-02-16T08:13:44Z</time>
      </trkpt>
      <trkpt lat="45.40183" lon="5.57545">
        <ele>505</ele>
        <time>2023-02-16T08:13:45Z</time>
      </trkpt>
      <trkpt lat="45.40179" lon="5.57554">
        <ele>504</ele>
        <time>2023-02-16T08:13:46Z</time>
      </trkpt>
      <trkpt lat="45.40175" lon="5.57562">
        <ele>503</ele>
        <time>2023-02-16T08:13:47Z</time>
      </trkpt>
      <trkpt lat="45.40171" lon="5.57571">
        <ele>503</ele>
        <time>2023-02-16T08:13:48Z</time>
      </trkpt>
      <trkpt lat="45.40167" lon="5.5758">
        <ele>503</ele>
        <time>2023-02-16T08:13:49Z</time>
      </trkpt>
      <trkpt lat="45.40163" lon="5.57589">
        <ele>503</ele>
        <time>2023-02-16T08:13:50Z</time>
      </trkpt>
      <trkpt lat="45.4016" lon="5.57598">
        <ele>503</ele>
        <time>2023-02-16T08:13:51Z</time>
      </trkpt>
      <trkpt lat="45.40157" lon="5.57607">
        <ele>503</ele>
        <time>2023-02-16T08:13:52Z</time>
      </trkpt>
      <trkpt lat="45.40154" lon="5.57616">
        <ele>503</ele>
        <time>2023-02-16T08:13:53Z</time>
      </trkpt>
      <trkpt lat="45.40152" lon="5.57625">
        <ele>502</ele>
        <time>2023-02-16T08:13:54Z</time>
      </trkpt>
      <trkpt lat="45.4015" lon="5.57634">
        <ele>502</ele>
        <time>2023-02-16T08:13:55Z</time>
      </trkpt>
      <trkpt lat="45.40149" lon="5.57642">
        <ele>502</ele>
        <time>2023-02-16T08:13:56Z</time>
      </trkpt>
      <trkpt lat="45.40148" lon="5.57651">
        <ele>502</ele>
        <time>2023-02-16T08:13:57Z</time>
      </trkpt>
      <trkpt lat="45.40148" lon="5.57659">
        <ele>502</ele>
        <time>2023-02-16T08:13:58Z</time>
      </trkpt>
      <trkpt lat="45.40148" lon="5.57667">
        <ele>503</ele>
        <time>2023-02-16T08:13:59Z</time>
      </trkpt>
      <trkpt lat="45.40147" lon="5.57674">
        <ele>503</ele>
        <time>2023-02-16T08:14:00Z</time>
      </trkpt>
      <trkpt lat="45.40146" lon="5.57682">
        <ele>503</ele>
        <time>2023-02-16T08:14:01Z</time>
      </trkpt>
      <trkpt lat="45.40145" lon="5.57689">
        <ele>503</ele>
        <time>2023-02-16T08:14:02Z</time>
      </trkpt>
      <trkpt lat="45.40143" lon="5.57697">
        <ele>503</ele>
        <time>2023-02-16T08:14:03Z</time>
      </trkpt>
      <trkpt lat="45.4014" lon="5.57704">
        <ele>503</ele>
        <time>2023-02-16T08:14:04Z</time>
      </trkpt>
      <trkpt lat="45.40138" lon="5.57711">
        <ele>504</ele>
        <time>2023-02-16T08:14:05Z</time>
      </trkpt>
      <trkpt lat="45.40135" lon="5.57717">
        <ele>504</ele>
        <time>2023-02-16T08:14:06Z</time>
      </trkpt>
      <trkpt lat="45.40132" lon="5.57724">
        <ele>504</ele>
        <time>2023-02-16T08:14:07Z</time>
      </trkpt>
      <trkpt lat="45.40128" lon="5.57731">
        <ele>504</ele>
        <time>2023-02-16T08:14:08Z</time>
      </trkpt>
      <trkpt lat="45.40125" lon="5.57738">
        <ele>504</ele>
        <time>2023-02-16T08:14:09Z</time>
      </trkpt>
      <trkpt lat="45.40122" lon="5.57744">
        <ele>503</ele>
        <time>2023-02-16T08:14:10Z</time>
      </trkpt>
      <trkpt lat="45.40119" lon="5.57751">
        <ele>503</ele>
        <time>2023-02-16T08:14:11Z</time>
      </trkpt>
      <trkpt lat="45.40116" lon="5.57758">
        <ele>503</ele>
        <time>2023-02-16T08:14:12Z</time>
      </trkpt>
      <trkpt lat="45.40113" lon="5.57766">
        <ele>503</ele>
        <time>2023-02-16T08:14:13Z</time>
      </trkpt>
      <trkpt lat="45.4011" lon="5.57773">
        <ele>503</ele>
        <time>2023-02-16T08:14:14Z</time>
      </trkpt>
      <trkpt lat="45.40108" lon="5.5778">
        <ele>503</ele>
        <time>2023-02-16T08:14:15Z</time>
      </trkpt>
      <trkpt lat="45.40105" lon="5.57788">
        <ele>503</ele>
        <time>2023-02-16T08:14:16Z</time>
      </trkpt>
      <trkpt lat="45.40103" lon="5.57795">
        <ele>503</ele>
        <time>2023-02-16T08:14:17Z</time>
      </trkpt>
      <trkpt lat="45.401" lon="5.57803">
        <ele>503</ele>
        <time>2023-02-16T08:14:18Z</time>
      </trkpt>
      <trkpt lat="45.40097" lon="5.5781">
        <ele>503</ele>
        <time>2023-02-16T08:14:19Z</time>
      </trkpt>
      <trkpt lat="45.40095" lon="5.57817">
        <ele>503</ele>
        <time>2023-02-16T08:14:20Z</time>
      </trkpt>
      <trkpt lat="45.40092" lon="5.57824">
        <ele>503</ele>
        <time>2023-02-16T08:14:21Z</time>
      </trkpt>
      <trkpt lat="45.40089" lon="5.57831">
        <ele>503</ele>
        <time>2023-02-16T08:14:22Z</time>
      </trkpt>
      <trkpt lat="45.40085" lon="5.57837">
        <ele>503</ele>
        <time>2023-02-16T08:14:23Z</time>
      </trkpt>
      <trkpt lat="45.40082" lon="5.57844">
        <ele>504</ele>
        <time>2023-02-16T08:14:24Z</time>
      </trkpt>
      <trkpt lat="45.40079" lon="5.5785">
        <ele>504</ele>
        <time>2023-02-16T08:14:25Z</time>
      </trkpt>
      <trkpt lat="45.40076" lon="5.57856">
        <ele>504</ele>
        <time>2023-02-16T08:14:26Z</time>
      </trkpt>
      <trkpt lat="45.40073" lon="5.57862">
        <ele>503</ele>
        <time>2023-02-16T08:14:27Z</time>
      </trkpt>
      <trkpt lat="45.4007" lon="5.57867">
        <ele>503</ele>
        <time>2023-02-16T08:14:28Z</time>
      </trkpt>
      <trkpt lat="45.40067" lon="5.57872">
        <ele>503</ele>
        <time>2023-02-16T08:14:29Z</time>
      </trkpt>
      <trkpt lat="45.40065" lon="5.57877">
        <ele>503</ele>
        <time>2023-02-16T08:14:30Z</time>
      </trkpt>
      <trkpt lat="45.40063" lon="5.57881">
        <ele>503</ele>
        <time>2023-02-16T08:14:31Z</time>
      </trkpt>
      <trkpt lat="45.4006" lon="5.57886">
        <ele>503</ele>
        <time>2023-02-16T08:14:32Z</time>
      </trkpt>
      <trkpt lat="45.40058" lon="5.5789">
        <ele>503</ele>
        <time>2023-02-16T08:14:33Z</time>
      </trkpt>
      <trkpt lat="45.40056" lon="5.57895">
        <ele>503</ele>
        <time>2023-02-16T08:14:34Z</time>
      </trkpt>
      <trkpt lat="45.40053" lon="5.579">
        <ele>503</ele>
        <time>2023-02-16T08:14:35Z</time>
      </trkpt>
      <trkpt lat="45.40051" lon="5.57905">
        <ele>503</ele>
        <time>2023-02-16T08:14:36Z</time>
      </trkpt>
      <trkpt lat="45.40048" lon="5.5791">
        <ele>503</ele>
        <time>2023-02-16T08:14:37Z</time>
      </trkpt>
      <trkpt lat="45.40046" lon="5.57916">
        <ele>503</ele>
        <time>2023-02-16T08:14:38Z</time>
      </trkpt>
      <trkpt lat="45.40044" lon="5.57921">
        <ele>503</ele>
        <time>2023-02-16T08:14:39Z</time>
      </trkpt>
      <trkpt lat="45.40042" lon="5.57927">
        <ele>503</ele>
        <time>2023-02-16T08:14:40Z</time>
      </trkpt>
      <trkpt lat="45.4004" lon="5.57932">
        <ele>504</ele>
        <time>2023-02-16T08:14:41Z</time>
      </trkpt>
      <trkpt lat="45.40038" lon="5.57937">
        <ele>504</ele>
        <time>2023-02-16T08:14:42Z</time>
      </trkpt>
      <trkpt lat="45.40036" lon="5.57943">
        <ele>504</ele>
        <time>2023-02-16T08:14:43Z</time>
      </trkpt>
      <trkpt lat="45.40034" lon="5.57949">
        <ele>504</ele>
        <time>2023-02-16T08:14:44Z</time>
      </trkpt>
      <trkpt lat="45.40032" lon="5.57955">
        <ele>504</ele>
        <time>2023-02-16T08:14:45Z</time>
      </trkpt>
      <trkpt lat="45.4003" lon="5.57961">
        <ele>504</ele>
        <time>2023-02-16T08:14:46Z</time>
      </trkpt>
      <trkpt lat="45.40029" lon="5.57968">
        <ele>504</ele>
        <time>2023-02-16T08:14:47Z</time>
      </trkpt>
      <trkpt lat="45.40027" lon="5.57975">
        <ele>504</ele>
        <time>2023-02-16T08:14:48Z</time>
      </trkpt>
      <trkpt lat="45.40025" lon="5.57982">
        <ele>504</ele>
        <time>2023-02-16T08:14:49Z</time>
      </trkpt>
      <trkpt lat="45.40023" lon="5.57989">
        <ele>504</ele>
        <time>2023-02-16T08:14:50Z</time>
      </trkpt>
      <trkpt lat="45.40021" lon="5.57996">
        <ele>504</ele>
        <time>2023-02-16T08:14:51Z</time>
      </trkpt>
      <trkpt lat="45.40019" lon="5.58003">
        <ele>504</ele>
        <time>2023-02-16T08:14:52Z</time>
      </trkpt>
      <trkpt lat="45.40017" lon="5.5801">
        <ele>504</ele>
        <time>2023-02-16T08:14:53Z</time>
      </trkpt>
      <trkpt lat="45.40015" lon="5.58017">
        <ele>504</ele>
        <time>2023-02-16T08:14:54Z</time>
      </trkpt>
      <trkpt lat="45.40013" lon="5.58024">
        <ele>504</ele>
        <time>2023-02-16T08:14:55Z</time>
      </trkpt>
      <trkpt lat="45.40011" lon="5.58032">
        <ele>505</ele>
        <time>2023-02-16T08:14:56Z</time>
      </trkpt>
      <trkpt lat="45.40009" lon="5.58039">
        <ele>505</ele>
        <time>2023-02-16T08:14:57Z</time>
      </trkpt>
      <trkpt lat="45.40007" lon="5.58046">
        <ele>505</ele>
        <time>2023-02-16T08:14:58Z</time>
      </trkpt>
      <trkpt lat="45.40005" lon="5.58053">
        <ele>505</ele>
        <time>2023-02-16T08:14:59Z</time>
      </trkpt>
      <trkpt lat="45.40003" lon="5.5806">
        <ele>505</ele>
        <time>2023-02-16T08:15:00Z</time>
      </trkpt>
      <trkpt lat="45.40001" lon="5.58067">
        <ele>505</ele>
        <time>2023-02-16T08:15:01Z</time>
      </trkpt>
      <trkpt lat="45.4" lon="5.58074">
        <ele>505</ele>
        <time>2023-02-16T08:15:02Z</time>
      </trkpt>
      <trkpt lat="45.39998" lon="5.5808">
        <ele>505</ele>
        <time>2023-02-16T08:15:03Z</time>
      </trkpt>
      <trkpt lat="45.39996" lon="5.58085">
        <ele>506</ele>
        <time>2023-02-16T08:15:04Z</time>
      </trkpt>
      <trkpt lat="45.39995" lon="5.5809">
        <ele>506</ele>
        <time>2023-02-16T08:15:05Z</time>
      </trkpt>
      <trkpt lat="45.39992" lon="5.58094">
        <ele>507</ele>
        <time>2023-02-16T08:15:06Z</time>
      </trkpt>
      <trkpt lat="45.39989" lon="5.58097">
        <ele>507</ele>
        <time>2023-02-16T08:15:07Z</time>
      </trkpt>
      <trkpt lat="45.39985" lon="5.581">
        <ele>507</ele>
        <time>2023-02-16T08:15:08Z</time>
      </trkpt>
      <trkpt lat="45.3998" lon="5.58101">
        <ele>507</ele>
        <time>2023-02-16T08:15:09Z</time>
      </trkpt>
      <trkpt lat="45.39976" lon="5.58104">
        <ele>507</ele>
        <time>2023-02-16T08:15:10Z</time>
      </trkpt>
      <trkpt lat="45.3997" lon="5.58106">
        <ele>507</ele>
        <time>2023-02-16T08:15:11Z</time>
      </trkpt>
      <trkpt lat="45.39966" lon="5.58107">
        <ele>507</ele>
        <time>2023-02-16T08:15:12Z</time>
      </trkpt>
      <trkpt lat="45.39962" lon="5.58108">
        <ele>507</ele>
        <time>2023-02-16T08:15:13Z</time>
      </trkpt>
      <trkpt lat="45.39958" lon="5.58109">
        <ele>507</ele>
        <time>2023-02-16T08:15:14Z</time>
      </trkpt>
      <trkpt lat="45.39955" lon="5.5811">
        <ele>506</ele>
        <time>2023-02-16T08:15:15Z</time>
      </trkpt>
      <trkpt lat="45.39953" lon="5.5811">
        <ele>506</ele>
        <time>2023-02-16T08:15:16Z</time>
      </trkpt>
      <trkpt lat="45.3995" lon="5.58111">
        <ele>506</ele>
        <time>2023-02-16T08:15:17Z</time>
      </trkpt>
      <trkpt lat="45.39948" lon="5.58111">
        <ele>505</ele>
        <time>2023-02-16T08:15:18Z</time>
      </trkpt>
      <trkpt lat="45.39946" lon="5.58112">
        <ele>505</ele>
        <time>2023-02-16T08:15:19Z</time>
      </trkpt>
      <trkpt lat="45.39943" lon="5.58112">
        <ele>504</ele>
        <time>2023-02-16T08:15:20Z</time>
      </trkpt>
      <trkpt lat="45.39939" lon="5.58113">
        <ele>504</ele>
        <time>2023-02-16T08:15:21Z</time>
      </trkpt>
      <trkpt lat="45.39935" lon="5.58114">
        <ele>504</ele>
        <time>2023-02-16T08:15:22Z</time>
      </trkpt>
      <trkpt lat="45.3993" lon="5.58114">
        <ele>503</ele>
        <time>2023-02-16T08:15:23Z</time>
      </trkpt>
      <trkpt lat="45.39926" lon="5.58114">
        <ele>503</ele>
        <time>2023-02-16T08:15:24Z</time>
      </trkpt>
      <trkpt lat="45.39921" lon="5.58114">
        <ele>503</ele>
        <time>2023-02-16T08:15:25Z</time>
      </trkpt>
      <trkpt lat="45.39917" lon="5.58113">
        <ele>503</ele>
        <time>2023-02-16T08:15:26Z</time>
      </trkpt>
      <trkpt lat="45.39912" lon="5.58112">
        <ele>503</ele>
        <time>2023-02-16T08:15:27Z</time>
      </trkpt>
      <trkpt lat="45.39907" lon="5.58111">
        <ele>503</ele>
        <time>2023-02-16T08:15:28Z</time>
      </trkpt>
      <trkpt lat="45.39902" lon="5.58109">
        <ele>504</ele>
        <time>2023-02-16T08:15:29Z</time>
      </trkpt>
      <trkpt lat="45.39897" lon="5.58107">
        <ele>504</ele>
        <time>2023-02-16T08:15:30Z</time>
      </trkpt>
      <trkpt lat="45.39893" lon="5.58105">
        <ele>505</ele>
        <time>2023-02-16T08:15:31Z</time>
      </trkpt>
      <trkpt lat="45.39888" lon="5.58103">
        <ele>505</ele>
        <time>2023-02-16T08:15:32Z</time>
      </trkpt>
      <trkpt lat="45.39883" lon="5.581">
        <ele>505</ele>
        <time>2023-02-16T08:15:33Z</time>
      </trkpt>
      <trkpt lat="45.39879" lon="5.58098">
        <ele>505</ele>
        <time>2023-02-16T08:15:34Z</time>
      </trkpt>
      <trkpt lat="45.39874" lon="5.58095">
        <ele>505</ele>
        <time>2023-02-16T08:15:35Z</time>
      </trkpt>
      <trkpt lat="45.3987" lon="5.58093">
        <ele>505</ele>
        <time>2023-02-16T08:15:36Z</time>
      </trkpt>
      <trkpt lat="45.39865" lon="5.5809">
        <ele>505</ele>
        <time>2023-02-16T08:15:37Z</time>
      </trkpt>
      <trkpt lat="45.3986" lon="5.58087">
        <ele>505</ele>
        <time>2023-02-16T08:15:38Z</time>
      </trkpt>
      <trkpt lat="45.39855" lon="5.58084">
        <ele>505</ele>
        <time>2023-02-16T08:15:39Z</time>
      </trkpt>
      <trkpt lat="45.39851" lon="5.58081">
        <ele>505</ele>
        <time>2023-02-16T08:15:40Z</time>
      </trkpt>
      <trkpt lat="45.39846" lon="5.58078">
        <ele>506</ele>
        <time>2023-02-16T08:15:41Z</time>
      </trkpt>
      <trkpt lat="45.39841" lon="5.58075">
        <ele>506</ele>
        <time>2023-02-16T08:15:42Z</time>
      </trkpt>
      <trkpt lat="45.39837" lon="5.58072">
        <ele>506</ele>
        <time>2023-02-16T08:15:43Z</time>
      </trkpt>
      <trkpt lat="45.39832" lon="5.58068">
        <ele>506</ele>
        <time>2023-02-16T08:15:44Z</time>
      </trkpt>
      <trkpt lat="45.39828" lon="5.58066">
        <ele>506</ele>
        <time>2023-02-16T08:15:45Z</time>
      </trkpt>
      <trkpt lat="45.39823" lon="5.58063">
        <ele>507</ele>
        <time>2023-02-16T08:15:46Z</time>
      </trkpt>
      <trkpt lat="45.39818" lon="5.58062">
        <ele>507</ele>
        <time>2023-02-16T08:15:47Z</time>
      </trkpt>
      <trkpt lat="45.39813" lon="5.5806">
        <ele>507</ele>
        <time>2023-02-16T08:15:48Z</time>
      </trkpt>
      <trkpt lat="45.39809" lon="5.5806">
        <ele>507</ele>
        <time>2023-02-16T08:15:49Z</time>
      </trkpt>
      <trkpt lat="45.39804" lon="5.58059">
        <ele>507</ele>
        <time>2023-02-16T08:15:50Z</time>
      </trkpt>
      <trkpt lat="45.398" lon="5.58059">
        <ele>507</ele>
        <time>2023-02-16T08:15:51Z</time>
      </trkpt>
      <trkpt lat="45.39796" lon="5.58058">
        <ele>507</ele>
        <time>2023-02-16T08:15:52Z</time>
      </trkpt>
      <trkpt lat="45.39792" lon="5.58058">
        <ele>507</ele>
        <time>2023-02-16T08:15:53Z</time>
      </trkpt>
      <trkpt lat="45.39788" lon="5.58058">
        <ele>507</ele>
        <time>2023-02-16T08:15:54Z</time>
      </trkpt>
      <trkpt lat="45.39784" lon="5.58058">
        <ele>507</ele>
        <time>2023-02-16T08:15:55Z</time>
      </trkpt>
      <trkpt lat="45.3978" lon="5.58059">
        <ele>507</ele>
        <time>2023-02-16T08:15:56Z</time>
      </trkpt>
      <trkpt lat="45.39777" lon="5.5806">
        <ele>508</ele>
        <time>2023-02-16T08:15:57Z</time>
      </trkpt>
      <trkpt lat="45.39773" lon="5.5806">
        <ele>508</ele>
        <time>2023-02-16T08:15:58Z</time>
      </trkpt>
      <trkpt lat="45.39769" lon="5.58061">
        <ele>508</ele>
        <time>2023-02-16T08:15:59Z</time>
      </trkpt>
      <trkpt lat="45.39765" lon="5.58061">
        <ele>508</ele>
        <time>2023-02-16T08:16:00Z</time>
      </trkpt>
      <trkpt lat="45.39762" lon="5.58062">
        <ele>509</ele>
        <time>2023-02-16T08:16:01Z</time>
      </trkpt>
      <trkpt lat="45.39758" lon="5.58062">
        <ele>509</ele>
        <time>2023-02-16T08:16:02Z</time>
      </trkpt>
      <trkpt lat="45.39754" lon="5.58062">
        <ele>509</ele>
        <time>2023-02-16T08:16:03Z</time>
      </trkpt>
      <trkpt lat="45.39751" lon="5.58062">
        <ele>509</ele>
        <time>2023-02-16T08:16:04Z</time>
      </trkpt>
      <trkpt lat="45.39747" lon="5.58062">
        <ele>510</ele>
        <time>2023-02-16T08:16:05Z</time>
      </trkpt>
      <trkpt lat="45.39743" lon="5.58062">
        <ele>510</ele>
        <time>2023-02-16T08:16:06Z</time>
      </trkpt>
      <trkpt lat="45.39739" lon="5.58061">
        <ele>510</ele>
        <time>2023-02-16T08:16:07Z</time>
      </trkpt>
      <trkpt lat="45.39736" lon="5.58061">
        <ele>510</ele>
        <time>2023-02-16T08:16:08Z</time>
      </trkpt>
      <trkpt lat="45.39732" lon="5.5806">
        <ele>510</ele>
        <time>2023-02-16T08:16:09Z</time>
      </trkpt>
      <trkpt lat="45.39729" lon="5.58059">
        <ele>511</ele>
        <time>2023-02-16T08:16:10Z</time>
      </trkpt>
      <trkpt lat="45.39725" lon="5.58057">
        <ele>511</ele>
        <time>2023-02-16T08:16:11Z</time>
      </trkpt>
      <trkpt lat="45.39721" lon="5.58055">
        <ele>511</ele>
        <time>2023-02-16T08:16:12Z</time>
      </trkpt>
      <trkpt lat="45.39718" lon="5.58053">
        <ele>512</ele>
        <time>2023-02-16T08:16:13Z</time>
      </trkpt>
      <trkpt lat="45.39714" lon="5.58051">
        <ele>512</ele>
        <time>2023-02-16T08:16:14Z</time>
      </trkpt>
      <trkpt lat="45.39711" lon="5.58049">
        <ele>512</ele>
        <time>2023-02-16T08:16:15Z</time>
      </trkpt>
      <trkpt lat="45.39708" lon="5.58047">
        <ele>512</ele>
        <time>2023-02-16T08:16:16Z</time>
      </trkpt>
      <trkpt lat="45.39705" lon="5.58045">
        <ele>512</ele>
        <time>2023-02-16T08:16:17Z</time>
      </trkpt>
      <trkpt lat="45.39702" lon="5.58043">
        <ele>512</ele>
        <time>2023-02-16T08:16:18Z</time>
      </trkpt>
      <trkpt lat="45.39699" lon="5.58041">
        <ele>513</ele>
        <time>2023-02-16T08:16:19Z</time>
      </trkpt>
      <trkpt lat="45.39696" lon="5.58039">
        <ele>513</ele>
        <time>2023-02-16T08:16:20Z</time>
      </trkpt>
      <trkpt lat="45.39693" lon="5.58036">
        <ele>513</ele>
        <time>2023-02-16T08:16:21Z</time>
      </trkpt>
      <trkpt lat="45.3969" lon="5.58034">
        <ele>513</ele>
        <time>2023-02-16T08:16:22Z</time>
      </trkpt>
      <trkpt lat="45.39687" lon="5.58033">
        <ele>513</ele>
        <time>2023-02-16T08:16:23Z</time>
      </trkpt>
      <trkpt lat="45.39685" lon="5.58031">
        <ele>513</ele>
        <time>2023-02-16T08:16:24Z</time>
      </trkpt>
      <trkpt lat="45.39682" lon="5.58028">
        <ele>513</ele>
        <time>2023-02-16T08:16:25Z</time>
      </trkpt>
      <trkpt lat="45.39679" lon="5.58026">
        <ele>513</ele>
        <time>2023-02-16T08:16:26Z</time>
      </trkpt>
      <trkpt lat="45.39676" lon="5.58024">
        <ele>513</ele>
        <time>2023-02-16T08:16:27Z</time>
      </trkpt>
      <trkpt lat="45.39674" lon="5.58022">
        <ele>513</ele>
        <time>2023-02-16T08:16:28Z</time>
      </trkpt>
      <trkpt lat="45.39671" lon="5.5802">
        <ele>513</ele>
        <time>2023-02-16T08:16:29Z</time>
      </trkpt>
      <trkpt lat="45.39668" lon="5.58018">
        <ele>513</ele>
        <time>2023-02-16T08:16:30Z</time>
      </trkpt>
      <trkpt lat="45.39666" lon="5.58016">
        <ele>513</ele>
        <time>2023-02-16T08:16:31Z</time>
      </trkpt>
      <trkpt lat="45.39663" lon="5.58014">
        <ele>513</ele>
        <time>2023-02-16T08:16:32Z</time>
      </trkpt>
      <trkpt lat="45.3966" lon="5.58012">
        <ele>514</ele>
        <time>2023-02-16T08:16:33Z</time>
      </trkpt>
      <trkpt lat="45.39657" lon="5.58011">
        <ele>514</ele>
        <time>2023-02-16T08:16:34Z</time>
      </trkpt>
      <trkpt lat="45.39655" lon="5.58009">
        <ele>515</ele>
        <time>2023-02-16T08:16:35Z</time>
      </trkpt>
      <trkpt lat="45.39652" lon="5.58008">
        <ele>515</ele>
        <time>2023-02-16T08:16:36Z</time>
      </trkpt>
      <trkpt lat="45.39649" lon="5.58007">
        <ele>515</ele>
        <time>2023-02-16T08:16:37Z</time>
      </trkpt>
      <trkpt lat="45.39646" lon="5.58006">
        <ele>516</ele>
        <time>2023-02-16T08:16:38Z</time>
      </trkpt>
      <trkpt lat="45.39643" lon="5.58005">
        <ele>516</ele>
        <time>2023-02-16T08:16:39Z</time>
      </trkpt>
      <trkpt lat="45.39641" lon="5.58004">
        <ele>516</ele>
        <time>2023-02-16T08:16:40Z</time>
      </trkpt>
      <trkpt lat="45.39638" lon="5.58004">
        <ele>516</ele>
        <time>2023-02-16T08:16:41Z</time>
      </trkpt>
      <trkpt lat="45.39635" lon="5.58003">
        <ele>517</ele>
        <time>2023-02-16T08:16:42Z</time>
      </trkpt>
      <trkpt lat="45.39632" lon="5.58002">
        <ele>517</ele>
        <time>2023-02-16T08:16:43Z</time>
      </trkpt>
      <trkpt lat="45.39629" lon="5.58002">
        <ele>518</ele>
        <time>2023-02-16T08:16:44Z</time>
      </trkpt>
      <trkpt lat="45.39626" lon="5.58001">
        <ele>518</ele>
        <time>2023-02-16T08:16:45Z</time>
      </trkpt>
      <trkpt lat="45.39623" lon="5.58001">
        <ele>518</ele>
        <time>2023-02-16T08:16:46Z</time>
      </trkpt>
      <trkpt lat="45.39621" lon="5.58">
        <ele>518</ele>
        <time>2023-02-16T08:16:47Z</time>
      </trkpt>
      <trkpt lat="45.39618" lon="5.58">
        <ele>518</ele>
        <time>2023-02-16T08:16:48Z</time>
      </trkpt>
      <trkpt lat="45.39615" lon="5.58">
        <ele>518</ele>
        <time>2023-02-16T08:16:49Z</time>
      </trkpt>
      <trkpt lat="45.39612" lon="5.58">
        <ele>518</ele>
        <time>2023-02-16T08:16:50Z</time>
      </trkpt>
      <trkpt lat="45.39609" lon="5.58001">
        <ele>518</ele>
        <time>2023-02-16T08:16:51Z</time>
      </trkpt>
      <trkpt lat="45.39607" lon="5.58001">
        <ele>518</ele>
        <time>2023-02-16T08:16:52Z</time>
      </trkpt>
      <trkpt lat="45.39604" lon="5.58002">
        <ele>518</ele>
        <time>2023-02-16T08:16:53Z</time>
      </trkpt>
      <trkpt lat="45.39601" lon="5.58003">
        <ele>518</ele>
        <time>2023-02-16T08:16:54Z</time>
      </trkpt>
      <trkpt lat="45.39598" lon="5.58004">
        <ele>518</ele>
        <time>2023-02-16T08:16:55Z</time>
      </trkpt>
      <trkpt lat="45.39595" lon="5.58005">
        <ele>518</ele>
        <time>2023-02-16T08:16:56Z</time>
      </trkpt>
      <trkpt lat="45.39593" lon="5.58006">
        <ele>519</ele>
        <time>2023-02-16T08:16:57Z</time>
      </trkpt>
      <trkpt lat="45.3959" lon="5.58007">
        <ele>519</ele>
        <time>2023-02-16T08:16:58Z</time>
      </trkpt>
      <trkpt lat="45.39587" lon="5.58009">
        <ele>519</ele>
        <time>2023-02-16T08:16:59Z</time>
      </trkpt>
      <trkpt lat="45.39584" lon="5.5801">
        <ele>519</ele>
        <time>2023-02-16T08:17:00Z</time>
      </trkpt>
      <trkpt lat="45.39581" lon="5.58012">
        <ele>519</ele>
        <time>2023-02-16T08:17:01Z</time>
      </trkpt>
      <trkpt lat="45.39578" lon="5.58014">
        <ele>520</ele>
        <time>2023-02-16T08:17:02Z</time>
      </trkpt>
      <trkpt lat="45.39575" lon="5.58015">
        <ele>520</ele>
        <time>2023-02-16T08:17:03Z</time>
      </trkpt>
      <trkpt lat="45.39573" lon="5.58017">
        <ele>520</ele>
        <time>2023-02-16T08:17:04Z</time>
      </trkpt>
      <trkpt lat="45.3957" lon="5.58019">
        <ele>520</ele>
        <time>2023-02-16T08:17:05Z</time>
      </trkpt>
      <trkpt lat="45.39567" lon="5.5802">
        <ele>521</ele>
        <time>2023-02-16T08:17:06Z</time>
      </trkpt>
      <trkpt lat="45.39565" lon="5.58022">
        <ele>521</ele>
        <time>2023-02-16T08:17:07Z</time>
      </trkpt>
      <trkpt lat="45.39562" lon="5.58024">
        <ele>521</ele>
        <time>2023-02-16T08:17:08Z</time>
      </trkpt>
      <trkpt lat="45.39559" lon="5.58025">
        <ele>521</ele>
        <time>2023-02-16T08:17:09Z</time>
      </trkpt>
      <trkpt lat="45.39557" lon="5.58027">
        <ele>521</ele>
        <time>2023-02-16T08:17:10Z</time>
      </trkpt>
      <trkpt lat="45.39554" lon="5.5803">
        <ele>522</ele>
        <time>2023-02-16T08:17:11Z</time>
      </trkpt>
      <trkpt lat="45.39552" lon="5.58032">
        <ele>522</ele>
        <time>2023-02-16T08:17:12Z</time>
      </trkpt>
      <trkpt lat="45.39549" lon="5.58034">
        <ele>522</ele>
        <time>2023-02-16T08:17:13Z</time>
      </trkpt>
      <trkpt lat="45.39547" lon="5.58036">
        <ele>522</ele>
        <time>2023-02-16T08:17:14Z</time>
      </trkpt>
      <trkpt lat="45.39544" lon="5.58038">
        <ele>522</ele>
        <time>2023-02-16T08:17:15Z</time>
      </trkpt>
      <trkpt lat="45.39542" lon="5.5804">
        <ele>522</ele>
        <time>2023-02-16T08:17:16Z</time>
      </trkpt>
      <trkpt lat="45.3954" lon="5.58042">
        <ele>522</ele>
        <time>2023-02-16T08:17:17Z</time>
      </trkpt>
      <trkpt lat="45.39538" lon="5.58045">
        <ele>523</ele>
        <time>2023-02-16T08:17:18Z</time>
      </trkpt>
      <trkpt lat="45.39536" lon="5.58047">
        <ele>523</ele>
        <time>2023-02-16T08:17:19Z</time>
      </trkpt>
      <trkpt lat="45.39534" lon="5.5805">
        <ele>523</ele>
        <time>2023-02-16T08:17:20Z</time>
      </trkpt>
      <trkpt lat="45.39533" lon="5.58053">
        <ele>523</ele>
        <time>2023-02-16T08:17:21Z</time>
      </trkpt>
      <trkpt lat="45.39532" lon="5.58055">
        <ele>524</ele>
        <time>2023-02-16T08:17:22Z</time>
      </trkpt>
      <trkpt lat="45.39531" lon="5.58058">
        <ele>524</ele>
        <time>2023-02-16T08:17:23Z</time>
      </trkpt>
      <trkpt lat="45.3953" lon="5.58061">
        <ele>524</ele>
        <time>2023-02-16T08:17:24Z</time>
      </trkpt>
      <trkpt lat="45.3953" lon="5.58064">
        <ele>524</ele>
        <time>2023-02-16T08:17:25Z</time>
      </trkpt>
      <trkpt lat="45.39529" lon="5.58067">
        <ele>524</ele>
        <time>2023-02-16T08:17:26Z</time>
      </trkpt>
      <trkpt lat="45.39529" lon="5.5807">
        <ele>524</ele>
        <time>2023-02-16T08:17:27Z</time>
      </trkpt>
      <trkpt lat="45.39529" lon="5.58073">
        <ele>525</ele>
        <time>2023-02-16T08:17:28Z</time>
      </trkpt>
      <trkpt lat="45.39528" lon="5.58076">
        <ele>525</ele>
        <time>2023-02-16T08:17:29Z</time>
      </trkpt>
      <trkpt lat="45.39528" lon="5.58079">
        <ele>525</ele>
        <time>2023-02-16T08:17:30Z</time>
      </trkpt>
      <trkpt lat="45.39527" lon="5.58082">
        <ele>526</ele>
        <time>2023-02-16T08:17:31Z</time>
      </trkpt>
      <trkpt lat="45.39527" lon="5.58084">
        <ele>526</ele>
        <time>2023-02-16T08:17:32Z</time>
      </trkpt>
      <trkpt lat="45.39526" lon="5.58087">
        <ele>527</ele>
        <time>2023-02-16T08:17:33Z</time>
      </trkpt>
      <trkpt lat="45.39526" lon="5.5809">
        <ele>527</ele>
        <time>2023-02-16T08:17:34Z</time>
      </trkpt>
      <trkpt lat="45.39525" lon="5.58093">
        <ele>528</ele>
        <time>2023-02-16T08:17:35Z</time>
      </trkpt>
      <trkpt lat="45.39525" lon="5.58096">
        <ele>528</ele>
        <time>2023-02-16T08:17:36Z</time>
      </trkpt>
      <trkpt lat="45.39523" lon="5.58098">
        <ele>529</ele>
        <time>2023-02-16T08:17:37Z</time>
      </trkpt>
      <trkpt lat="45.39522" lon="5.58101">
        <ele>529</ele>
        <time>2023-02-16T08:17:38Z</time>
      </trkpt>
      <trkpt lat="45.39521" lon="5.58103">
        <ele>530</ele>
        <time>2023-02-16T08:17:39Z</time>
      </trkpt>
      <trkpt lat="45.3952" lon="5.58105">
        <ele>530</ele>
        <time>2023-02-16T08:17:40Z</time>
      </trkpt>
      <trkpt lat="45.39519" lon="5.58107">
        <ele>530</ele>
        <time>2023-02-16T08:17:41Z</time>
      </trkpt>
      <trkpt lat="45.39518" lon="5.5811">
        <ele>530</ele>
        <time>2023-02-16T08:17:42Z</time>
      </trkpt>
      <trkpt lat="45.39517" lon="5.58113">
        <ele>531</ele>
        <time>2023-02-16T08:17:43Z</time>
      </trkpt>
      <trkpt lat="45.39517" lon="5.58116">
        <ele>531</ele>
        <time>2023-02-16T08:17:44Z</time>
      </trkpt>
      <trkpt lat="45.39516" lon="5.58119">
        <ele>531</ele>
        <time>2023-02-16T08:17:45Z</time>
      </trkpt>
      <trkpt lat="45.39516" lon="5.58123">
        <ele>531</ele>
        <time>2023-02-16T08:17:46Z</time>
      </trkpt>
      <trkpt lat="45.39515" lon="5.58126">
        <ele>531</ele>
        <time>2023-02-16T08:17:47Z</time>
      </trkpt>
      <trkpt lat="45.39516" lon="5.5813">
        <ele>531</ele>
        <time>2023-02-16T08:17:48Z</time>
      </trkpt>
      <trkpt lat="45.39516" lon="5.58134">
        <ele>531</ele>
        <time>2023-02-16T08:17:49Z</time>
      </trkpt>
      <trkpt lat="45.39515" lon="5.58138">
        <ele>531</ele>
        <time>2023-02-16T08:17:50Z</time>
      </trkpt>
      <trkpt lat="45.39516" lon="5.58142">
        <ele>532</ele>
        <time>2023-02-16T08:17:51Z</time>
      </trkpt>
      <trkpt lat="45.39515" lon="5.58146">
        <ele>532</ele>
        <time>2023-02-16T08:17:52Z</time>
      </trkpt>
      <trkpt lat="45.39515" lon="5.58151">
        <ele>532</ele>
        <time>2023-02-16T08:17:53Z</time>
      </trkpt>
      <trkpt lat="45.39515" lon="5.58155">
        <ele>532</ele>
        <time>2023-02-16T08:17:54Z</time>
      </trkpt>
      <trkpt lat="45.39515" lon="5.58159">
        <ele>532</ele>
        <time>2023-02-16T08:17:55Z</time>
      </trkpt>
      <trkpt lat="45.39515" lon="5.58164">
        <ele>532</ele>
        <time>2023-02-16T08:17:56Z</time>
      </trkpt>
      <trkpt lat="45.39515" lon="5.58168">
        <ele>532</ele>
        <time>2023-02-16T08:17:57Z</time>
      </trkpt>
      <trkpt lat="45.39515" lon="5.58172">
        <ele>532</ele>
        <time>2023-02-16T08:17:58Z</time>
      </trkpt>
      <trkpt lat="45.39515" lon="5.58177">
        <ele>532</ele>
        <time>2023-02-16T08:17:59Z</time>
      </trkpt>
      <trkpt lat="45.39515" lon="5.58181">
        <ele>533</ele>
        <time>2023-02-16T08:18:00Z</time>
      </trkpt>
      <trkpt lat="45.39515" lon="5.58185">
        <ele>533</ele>
        <time>2023-02-16T08:18:01Z</time>
      </trkpt>
      <trkpt lat="45.39515" lon="5.5819">
        <ele>533</ele>
        <time>2023-02-16T08:18:02Z</time>
      </trkpt>
      <trkpt lat="45.39515" lon="5.58194">
        <ele>533</ele>
        <time>2023-02-16T08:18:03Z</time>
      </trkpt>
      <trkpt lat="45.39515" lon="5.58198">
        <ele>533</ele>
        <time>2023-02-16T08:18:04Z</time>
      </trkpt>
      <trkpt lat="45.39515" lon="5.58203">
        <ele>533</ele>
        <time>2023-02-16T08:18:05Z</time>
      </trkpt>
      <trkpt lat="45.39514" lon="5.58207">
        <ele>533</ele>
        <time>2023-02-16T08:18:06Z</time>
      </trkpt>
      <trkpt lat="45.39514" lon="5.58211">
        <ele>533</ele>
        <time>2023-02-16T08:18:07Z</time>
      </trkpt>
      <trkpt lat="45.39514" lon="5.58215">
        <ele>533</ele>
        <time>2023-02-16T08:18:08Z</time>
      </trkpt>
      <trkpt lat="45.39513" lon="5.58219">
        <ele>534</ele>
        <time>2023-02-16T08:18:09Z</time>
      </trkpt>
      <trkpt lat="45.39513" lon="5.58223">
        <ele>534</ele>
        <time>2023-02-16T08:18:10Z</time>
      </trkpt>
      <trkpt lat="45.39512" lon="5.58227">
        <ele>535</ele>
        <time>2023-02-16T08:18:11Z</time>
      </trkpt>
      <trkpt lat="45.39512" lon="5.58231">
        <ele>535</ele>
        <time>2023-02-16T08:18:12Z</time>
      </trkpt>
      <trkpt lat="45.39511" lon="5.58234">
        <ele>535</ele>
        <time>2023-02-16T08:18:13Z</time>
      </trkpt>
      <trkpt lat="45.39511" lon="5.58238">
        <ele>535</ele>
        <time>2023-02-16T08:18:14Z</time>
      </trkpt>
      <trkpt lat="45.39511" lon="5.58242">
        <ele>536</ele>
        <time>2023-02-16T08:18:15Z</time>
      </trkpt>
      <trkpt lat="45.3951" lon="5.58246">
        <ele>536</ele>
        <time>2023-02-16T08:18:16Z</time>
      </trkpt>
      <trkpt lat="45.3951" lon="5.5825">
        <ele>536</ele>
        <time>2023-02-16T08:18:17Z</time>
      </trkpt>
      <trkpt lat="45.39509" lon="5.58254">
        <ele>536</ele>
        <time>2023-02-16T08:18:18Z</time>
      </trkpt>
      <trkpt lat="45.39508" lon="5.58258">
        <ele>537</ele>
        <time>2023-02-16T08:18:19Z</time>
      </trkpt>
      <trkpt lat="45.39507" lon="5.58262">
        <ele>537</ele>
        <time>2023-02-16T08:18:20Z</time>
      </trkpt>
      <trkpt lat="45.39506" lon="5.58266">
        <ele>537</ele>
        <time>2023-02-16T08:18:21Z</time>
      </trkpt>
      <trkpt lat="45.39504" lon="5.58269">
        <ele>537</ele>
        <time>2023-02-16T08:18:22Z</time>
      </trkpt>
      <trkpt lat="45.39503" lon="5.58273">
        <ele>537</ele>
        <time>2023-02-16T08:18:23Z</time>
      </trkpt>
      <trkpt lat="45.39501" lon="5.58276">
        <ele>537</ele>
        <time>2023-02-16T08:18:24Z</time>
      </trkpt>
      <trkpt lat="45.39499" lon="5.58279">
        <ele>537</ele>
        <time>2023-02-16T08:18:25Z</time>
      </trkpt>
      <trkpt lat="45.39497" lon="5.58282">
        <ele>537</ele>
        <time>2023-02-16T08:18:26Z</time>
      </trkpt>
      <trkpt lat="45.39495" lon="5.58285">
        <ele>537</ele>
        <time>2023-02-16T08:18:27Z</time>
      </trkpt>
      <trkpt lat="45.39493" lon="5.58288">
        <ele>538</ele>
        <time>2023-02-16T08:18:28Z</time>
      </trkpt>
      <trkpt lat="45.39491" lon="5.58292">
        <ele>538</ele>
        <time>2023-02-16T08:18:29Z</time>
      </trkpt>
      <trkpt lat="45.39489" lon="5.58295">
        <ele>539</ele>
        <time>2023-02-16T08:18:30Z</time>
      </trkpt>
      <trkpt lat="45.39487" lon="5.58298">
        <ele>539</ele>
        <time>2023-02-16T08:18:31Z</time>
      </trkpt>
      <trkpt lat="45.39485" lon="5.58302">
        <ele>539</ele>
        <time>2023-02-16T08:18:32Z</time>
      </trkpt>
      <trkpt lat="45.39483" lon="5.58305">
        <ele>539</ele>
        <time>2023-02-16T08:18:33Z</time>
      </trkpt>
      <trkpt lat="45.3948" lon="5.58308">
        <ele>539</ele>
        <time>2023-02-16T08:18:34Z</time>
      </trkpt>
      <trkpt lat="45.39478" lon="5.58311">
        <ele>539</ele>
        <time>2023-02-16T08:18:35Z</time>
      </trkpt>
      <trkpt lat="45.39475" lon="5.58313">
        <ele>540</ele>
        <time>2023-02-16T08:18:36Z</time>
      </trkpt>
      <trkpt lat="45.39473" lon="5.58316">
        <ele>540</ele>
        <time>2023-02-16T08:18:37Z</time>
      </trkpt>
      <trkpt lat="45.39471" lon="5.58319">
        <ele>540</ele>
        <time>2023-02-16T08:18:38Z</time>
      </trkpt>
      <trkpt lat="45.39468" lon="5.58322">
        <ele>540</ele>
        <time>2023-02-16T08:18:39Z</time>
      </trkpt>
      <trkpt lat="45.39466" lon="5.58325">
        <ele>540</ele>
        <time>2023-02-16T08:18:40Z</time>
      </trkpt>
      <trkpt lat="45.39463" lon="5.58328">
        <ele>540</ele>
        <time>2023-02-16T08:18:41Z</time>
      </trkpt>
      <trkpt lat="45.39461" lon="5.58331">
        <ele>540</ele>
        <time>2023-02-16T08:18:42Z</time>
      </trkpt>
      <trkpt lat="45.39458" lon="5.58335">
        <ele>540</ele>
        <time>2023-02-16T08:18:43Z</time>
      </trkpt>
      <trkpt lat="45.39456" lon="5.58338">
        <ele>540</ele>
        <time>2023-02-16T08:18:44Z</time>
      </trkpt>
      <trkpt lat="45.39453" lon="5.58342">
        <ele>540</ele>
        <time>2023-02-16T08:18:45Z</time>
      </trkpt>
      <trkpt lat="45.39451" lon="5.58346">
        <ele>540</ele>
        <time>2023-02-16T08:18:46Z</time>
      </trkpt>
      <trkpt lat="45.39449" lon="5.58351">
        <ele>541</ele>
        <time>2023-02-16T08:18:47Z</time>
      </trkpt>
      <trkpt lat="45.39447" lon="5.58355">
        <ele>541</ele>
        <time>2023-02-16T08:18:48Z</time>
      </trkpt>
      <trkpt lat="45.39445" lon="5.58359">
        <ele>541</ele>
        <time>2023-02-16T08:18:49Z</time>
      </trkpt>
      <trkpt lat="45.39444" lon="5.58364">
        <ele>541</ele>
        <time>2023-02-16T08:18:50Z</time>
      </trkpt>
      <trkpt lat="45.39445" lon="5.58368">
        <ele>541</ele>
        <time>2023-02-16T08:18:51Z</time>
      </trkpt>
      <trkpt lat="45.39446" lon="5.58373">
        <ele>541</ele>
        <time>2023-02-16T08:18:52Z</time>
      </trkpt>
      <trkpt lat="45.39449" lon="5.58378">
        <ele>541</ele>
        <time>2023-02-16T08:18:53Z</time>
      </trkpt>
      <trkpt lat="45.39451" lon="5.58384">
        <ele>541</ele>
        <time>2023-02-16T08:18:54Z</time>
      </trkpt>
      <trkpt lat="45.39453" lon="5.5839">
        <ele>541</ele>
        <time>2023-02-16T08:18:55Z</time>
      </trkpt>
      <trkpt lat="45.39456" lon="5.58398">
        <ele>541</ele>
        <time>2023-02-16T08:18:56Z</time>
      </trkpt>
      <trkpt lat="45.39458" lon="5.58405">
        <ele>540</ele>
        <time>2023-02-16T08:18:57Z</time>
      </trkpt>
      <trkpt lat="45.39459" lon="5.58413">
        <ele>540</ele>
        <time>2023-02-16T08:18:58Z</time>
      </trkpt>
      <trkpt lat="45.3946" lon="5.58419">
        <ele>537</ele>
        <time>2023-02-16T08:18:59Z</time>
      </trkpt>
      <trkpt lat="45.39467" lon="5.58438">
        <ele>536</ele>
        <time>2023-02-16T08:19:01Z</time>
      </trkpt>
      <trkpt lat="45.39471" lon="5.5845">
        <ele>536</ele>
        <time>2023-02-16T08:19:02Z</time>
      </trkpt>
      <trkpt lat="45.39475" lon="5.58463">
        <ele>535</ele>
        <time>2023-02-16T08:19:03Z</time>
      </trkpt>
      <trkpt lat="45.39482" lon="5.58475">
        <ele>533</ele>
        <time>2023-02-16T08:19:04Z</time>
      </trkpt>
      <trkpt lat="45.3949" lon="5.58486">
        <ele>531</ele>
        <time>2023-02-16T08:19:05Z</time>
      </trkpt>
      <trkpt lat="45.39497" lon="5.58497">
        <ele>530</ele>
        <time>2023-02-16T08:19:06Z</time>
      </trkpt>
      <trkpt lat="45.39506" lon="5.58508">
        <ele>530</ele>
        <time>2023-02-16T08:19:07Z</time>
      </trkpt>
      <trkpt lat="45.39513" lon="5.58519">
        <ele>530</ele>
        <time>2023-02-16T08:19:08Z</time>
      </trkpt>
      <trkpt lat="45.3952" lon="5.5853">
        <ele>528</ele>
        <time>2023-02-16T08:19:09Z</time>
      </trkpt>
      <trkpt lat="45.39527" lon="5.58542">
        <ele>527</ele>
        <time>2023-02-16T08:19:10Z</time>
      </trkpt>
      <trkpt lat="45.39535" lon="5.58554">
        <ele>526</ele>
        <time>2023-02-16T08:19:11Z</time>
      </trkpt>
      <trkpt lat="45.39541" lon="5.58564">
        <ele>526</ele>
        <time>2023-02-16T08:19:12Z</time>
      </trkpt>
      <trkpt lat="45.39548" lon="5.58575">
        <ele>524</ele>
        <time>2023-02-16T08:19:13Z</time>
      </trkpt>
      <trkpt lat="45.39554" lon="5.58586">
        <ele>523</ele>
        <time>2023-02-16T08:19:14Z</time>
      </trkpt>
      <trkpt lat="45.39561" lon="5.58598">
        <ele>523</ele>
        <time>2023-02-16T08:19:15Z</time>
      </trkpt>
      <trkpt lat="45.39566" lon="5.58611">
        <ele>523</ele>
        <time>2023-02-16T08:19:16Z</time>
      </trkpt>
      <trkpt lat="45.3957" lon="5.58623">
        <ele>523</ele>
        <time>2023-02-16T08:19:17Z</time>
      </trkpt>
      <trkpt lat="45.39574" lon="5.58634">
        <ele>521</ele>
        <time>2023-02-16T08:19:18Z</time>
      </trkpt>
      <trkpt lat="45.39577" lon="5.58643">
        <ele>520</ele>
        <time>2023-02-16T08:19:19Z</time>
      </trkpt>
      <trkpt lat="45.39581" lon="5.5865">
        <ele>520</ele>
        <time>2023-02-16T08:19:20Z</time>
      </trkpt>
      <trkpt lat="45.39583" lon="5.58655">
        <ele>520</ele>
        <time>2023-02-16T08:19:21Z</time>
      </trkpt>
      <trkpt lat="45.39586" lon="5.58659">
        <ele>518</ele>
        <time>2023-02-16T08:19:22Z</time>
      </trkpt>
      <trkpt lat="45.3959" lon="5.58662">
        <ele>518</ele>
        <time>2023-02-16T08:19:23Z</time>
      </trkpt>
      <trkpt lat="45.39592" lon="5.58665">
        <ele>517</ele>
        <time>2023-02-16T08:19:24Z</time>
      </trkpt>
      <trkpt lat="45.39593" lon="5.58667">
        <ele>517</ele>
        <time>2023-02-16T08:19:25Z</time>
      </trkpt>
      <trkpt lat="45.39591" lon="5.58668">
        <ele>517</ele>
        <time>2023-02-16T08:19:33Z</time>
      </trkpt>
      <trkpt lat="45.39605" lon="5.58669">
        <ele>515</ele>
        <time>2023-02-16T08:19:49Z</time>
      </trkpt>
      <trkpt lat="45.3961" lon="5.5867">
        <ele>515</ele>
        <time>2023-02-16T08:19:50Z</time>
      </trkpt>
      <trkpt lat="45.39616" lon="5.58673">
        <ele>515</ele>
        <time>2023-02-16T08:19:51Z</time>
      </trkpt>
      <trkpt lat="45.39621" lon="5.58676">
        <ele>515</ele>
        <time>2023-02-16T08:19:52Z</time>
      </trkpt>
      <trkpt lat="45.39627" lon="5.58681">
        <ele>515</ele>
        <time>2023-02-16T08:19:53Z</time>
      </trkpt>
      <trkpt lat="45.39633" lon="5.58687">
        <ele>515</ele>
        <time>2023-02-16T08:19:54Z</time>
      </trkpt>
      <trkpt lat="45.39638" lon="5.58693">
        <ele>514</ele>
        <time>2023-02-16T08:19:55Z</time>
      </trkpt>
      <trkpt lat="45.39644" lon="5.587">
        <ele>514</ele>
        <time>2023-02-16T08:19:56Z</time>
      </trkpt>
      <trkpt lat="45.39651" lon="5.58707">
        <ele>514</ele>
        <time>2023-02-16T08:19:57Z</time>
      </trkpt>
      <trkpt lat="45.39657" lon="5.58714">
        <ele>514</ele>
        <time>2023-02-16T08:19:58Z</time>
      </trkpt>
      <trkpt lat="45.39663" lon="5.58721">
        <ele>513</ele>
        <time>2023-02-16T08:19:59Z</time>
      </trkpt>
      <trkpt lat="45.39669" lon="5.58729">
        <ele>513</ele>
        <time>2023-02-16T08:20:00Z</time>
      </trkpt>
      <trkpt lat="45.39675" lon="5.58737">
        <ele>511</ele>
        <time>2023-02-16T08:20:01Z</time>
      </trkpt>
      <trkpt lat="45.3968" lon="5.58743">
        <ele>511</ele>
        <time>2023-02-16T08:20:02Z</time>
      </trkpt>
      <trkpt lat="45.39683" lon="5.58748">
        <ele>511</ele>
        <time>2023-02-16T08:20:03Z</time>
      </trkpt>
      <trkpt lat="45.39685" lon="5.58751">
        <ele>511</ele>
        <time>2023-02-16T08:20:04Z</time>
      </trkpt>
      <trkpt lat="45.39686" lon="5.58755">
        <ele>511</ele>
        <time>2023-02-16T08:20:05Z</time>
      </trkpt>
      <trkpt lat="45.39684" lon="5.5876">
        <ele>510</ele>
        <time>2023-02-16T08:20:06Z</time>
      </trkpt>
      <trkpt lat="45.39681" lon="5.58763">
        <ele>510</ele>
        <time>2023-02-16T08:20:07Z</time>
      </trkpt>
      <trkpt lat="45.39677" lon="5.58766">
        <ele>510</ele>
        <time>2023-02-16T08:20:08Z</time>
      </trkpt>
      <trkpt lat="45.39673" lon="5.58769">
        <ele>510</ele>
        <time>2023-02-16T08:20:09Z</time>
      </trkpt>
      <trkpt lat="45.39669" lon="5.58773">
        <ele>510</ele>
        <time>2023-02-16T08:20:10Z</time>
      </trkpt>
      <trkpt lat="45.39665" lon="5.58777">
        <ele>510</ele>
        <time>2023-02-16T08:20:11Z</time>
      </trkpt>
      <trkpt lat="45.3966" lon="5.58782">
        <ele>510</ele>
        <time>2023-02-16T08:20:12Z</time>
      </trkpt>
      <trkpt lat="45.39656" lon="5.58788">
        <ele>510</ele>
        <time>2023-02-16T08:20:13Z</time>
      </trkpt>
      <trkpt lat="45.39652" lon="5.58793">
        <ele>510</ele>
        <time>2023-02-16T08:20:14Z</time>
      </trkpt>
      <trkpt lat="45.39648" lon="5.58799">
        <ele>510</ele>
        <time>2023-02-16T08:20:15Z</time>
      </trkpt>
      <trkpt lat="45.39643" lon="5.58805">
        <ele>510</ele>
        <time>2023-02-16T08:20:16Z</time>
      </trkpt>
      <trkpt lat="45.39638" lon="5.58811">
        <ele>510</ele>
        <time>2023-02-16T08:20:17Z</time>
      </trkpt>
      <trkpt lat="45.39632" lon="5.58816">
        <ele>510</ele>
        <time>2023-02-16T08:20:18Z</time>
      </trkpt>
      <trkpt lat="45.39627" lon="5.58822">
        <ele>510</ele>
        <time>2023-02-16T08:20:19Z</time>
      </trkpt>
      <trkpt lat="45.39622" lon="5.58828">
        <ele>510</ele>
        <time>2023-02-16T08:20:20Z</time>
      </trkpt>
      <trkpt lat="45.39616" lon="5.58834">
        <ele>508</ele>
        <time>2023-02-16T08:20:21Z</time>
      </trkpt>
      <trkpt lat="45.3961" lon="5.5884">
        <ele>508</ele>
        <time>2023-02-16T08:20:22Z</time>
      </trkpt>
      <trkpt lat="45.39604" lon="5.58845">
        <ele>508</ele>
        <time>2023-02-16T08:20:23Z</time>
      </trkpt>
      <trkpt lat="45.39598" lon="5.5885">
        <ele>508</ele>
        <time>2023-02-16T08:20:24Z</time>
      </trkpt>
      <trkpt lat="45.39593" lon="5.58856">
        <ele>508</ele>
        <time>2023-02-16T08:20:25Z</time>
      </trkpt>
      <trkpt lat="45.39587" lon="5.58862">
        <ele>508</ele>
        <time>2023-02-16T08:20:26Z</time>
      </trkpt>
      <trkpt lat="45.39582" lon="5.58868">
        <ele>508</ele>
        <time>2023-02-16T08:20:27Z</time>
      </trkpt>
      <trkpt lat="45.39576" lon="5.58874">
        <ele>508</ele>
        <time>2023-02-16T08:20:28Z</time>
      </trkpt>
      <trkpt lat="45.39571" lon="5.5888">
        <ele>508</ele>
        <time>2023-02-16T08:20:29Z</time>
      </trkpt>
      <trkpt lat="45.39565" lon="5.58885">
        <ele>508</ele>
        <time>2023-02-16T08:20:30Z</time>
      </trkpt>
      <trkpt lat="45.3956" lon="5.58891">
        <ele>508</ele>
        <time>2023-02-16T08:20:31Z</time>
      </trkpt>
      <trkpt lat="45.39555" lon="5.58896">
        <ele>508</ele>
        <time>2023-02-16T08:20:32Z</time>
      </trkpt>
      <trkpt lat="45.3955" lon="5.58902">
        <ele>508</ele>
        <time>2023-02-16T08:20:33Z</time>
      </trkpt>
      <trkpt lat="45.39545" lon="5.58907">
        <ele>508</ele>
        <time>2023-02-16T08:20:34Z</time>
      </trkpt>
      <trkpt lat="45.39539" lon="5.58913">
        <ele>508</ele>
        <time>2023-02-16T08:20:35Z</time>
      </trkpt>
      <trkpt lat="45.39534" lon="5.58918">
        <ele>508</ele>
        <time>2023-02-16T08:20:36Z</time>
      </trkpt>
      <trkpt lat="45.39529" lon="5.58922">
        <ele>508</ele>
        <time>2023-02-16T08:20:37Z</time>
      </trkpt>
      <trkpt lat="45.39525" lon="5.58926">
        <ele>508</ele>
        <time>2023-02-16T08:20:38Z</time>
      </trkpt>
      <trkpt lat="45.39522" lon="5.58928">
        <ele>508</ele>
        <time>2023-02-16T08:20:39Z</time>
      </trkpt>
      <trkpt lat="45.3952" lon="5.5893">
        <ele>508</ele>
        <time>2023-02-16T08:20:40Z</time>
      </trkpt>
      <trkpt lat="45.39518" lon="5.58932">
        <ele>508</ele>
        <time>2023-02-16T08:20:41Z</time>
      </trkpt>
      <trkpt lat="45.39515" lon="5.58935">
        <ele>508</ele>
        <time>2023-02-16T08:20:42Z</time>
      </trkpt>
      <trkpt lat="45.3951" lon="5.5894">
        <ele>508</ele>
        <time>2023-02-16T08:20:43Z</time>
      </trkpt>
      <trkpt lat="45.39498" lon="5.58954">
        <ele>508</ele>
        <time>2023-02-16T08:20:45Z</time>
      </trkpt>
      <trkpt lat="45.39491" lon="5.58962">
        <ele>509</ele>
        <time>2023-02-16T08:20:46Z</time>
      </trkpt>
      <trkpt lat="45.39481" lon="5.58976">
        <ele>509</ele>
        <time>2023-02-16T08:20:48Z</time>
      </trkpt>
      <trkpt lat="45.39475" lon="5.58982">
        <ele>509</ele>
        <time>2023-02-16T08:20:49Z</time>
      </trkpt>
      <trkpt lat="45.3947" lon="5.58988">
        <ele>509</ele>
        <time>2023-02-16T08:20:50Z</time>
      </trkpt>
      <trkpt lat="45.39465" lon="5.58993">
        <ele>509</ele>
        <time>2023-02-16T08:20:51Z</time>
      </trkpt>
      <trkpt lat="45.39461" lon="5.58999">
        <ele>508</ele>
        <time>2023-02-16T08:20:52Z</time>
      </trkpt>
      <trkpt lat="45.39457" lon="5.59005">
        <ele>508</ele>
        <time>2023-02-16T08:20:53Z</time>
      </trkpt>
      <trkpt lat="45.39452" lon="5.5901">
        <ele>508</ele>
        <time>2023-02-16T08:20:54Z</time>
      </trkpt>
      <trkpt lat="45.39447" lon="5.59016">
        <ele>508</ele>
        <time>2023-02-16T08:20:55Z</time>
      </trkpt>
      <trkpt lat="45.39444" lon="5.59021">
        <ele>508</ele>
        <time>2023-02-16T08:20:56Z</time>
      </trkpt>
      <trkpt lat="45.39435" lon="5.59032">
        <ele>509</ele>
        <time>2023-02-16T08:20:58Z</time>
      </trkpt>
      <trkpt lat="45.39426" lon="5.59042">
        <ele>509</ele>
        <time>2023-02-16T08:21:00Z</time>
      </trkpt>
      <trkpt lat="45.39421" lon="5.59047">
        <ele>509</ele>
        <time>2023-02-16T08:21:01Z</time>
      </trkpt>
      <trkpt lat="45.39414" lon="5.59057">
        <ele>509</ele>
        <time>2023-02-16T08:21:03Z</time>
      </trkpt>
      <trkpt lat="45.39408" lon="5.5907">
        <ele>509</ele>
        <time>2023-02-16T08:21:05Z</time>
      </trkpt>
      <trkpt lat="45.394" lon="5.59086">
        <ele>509</ele>
        <time>2023-02-16T08:21:08Z</time>
      </trkpt>
      <trkpt lat="45.39394" lon="5.59098">
        <ele>509</ele>
        <time>2023-02-16T08:21:10Z</time>
      </trkpt>
      <trkpt lat="45.39386" lon="5.59109">
        <ele>510</ele>
        <time>2023-02-16T08:21:12Z</time>
      </trkpt>
      <trkpt lat="45.39383" lon="5.59114">
        <ele>510</ele>
        <time>2023-02-16T08:21:13Z</time>
      </trkpt>
      <trkpt lat="45.39379" lon="5.59119">
        <ele>510</ele>
        <time>2023-02-16T08:21:14Z</time>
      </trkpt>
      <trkpt lat="45.39376" lon="5.59124">
        <ele>510</ele>
        <time>2023-02-16T08:21:15Z</time>
      </trkpt>
      <trkpt lat="45.39372" lon="5.59128">
        <ele>511</ele>
        <time>2023-02-16T08:21:16Z</time>
      </trkpt>
      <trkpt lat="45.39369" lon="5.59133">
        <ele>511</ele>
        <time>2023-02-16T08:21:17Z</time>
      </trkpt>
      <trkpt lat="45.39366" lon="5.59137">
        <ele>511</ele>
        <time>2023-02-16T08:21:18Z</time>
      </trkpt>
      <trkpt lat="45.39363" lon="5.5914">
        <ele>511</ele>
        <time>2023-02-16T08:21:19Z</time>
      </trkpt>
      <trkpt lat="45.39361" lon="5.59144">
        <ele>512</ele>
        <time>2023-02-16T08:21:20Z</time>
      </trkpt>
      <trkpt lat="45.39358" lon="5.59147">
        <ele>512</ele>
        <time>2023-02-16T08:21:21Z</time>
      </trkpt>
      <trkpt lat="45.39355" lon="5.59149">
        <ele>512</ele>
        <time>2023-02-16T08:21:22Z</time>
      </trkpt>
      <trkpt lat="45.39353" lon="5.59151">
        <ele>512</ele>
        <time>2023-02-16T08:21:23Z</time>
      </trkpt>
      <trkpt lat="45.39352" lon="5.59153">
        <ele>513</ele>
        <time>2023-02-16T08:21:24Z</time>
      </trkpt>
      <trkpt lat="45.3935" lon="5.59156">
        <ele>513</ele>
        <time>2023-02-16T08:21:25Z</time>
      </trkpt>
      <trkpt lat="45.39348" lon="5.59159">
        <ele>513</ele>
        <time>2023-02-16T08:21:26Z</time>
      </trkpt>
      <trkpt lat="45.39344" lon="5.59162">
        <ele>513</ele>
        <time>2023-02-16T08:21:27Z</time>
      </trkpt>
      <trkpt lat="45.39341" lon="5.59166">
        <ele>514</ele>
        <time>2023-02-16T08:21:28Z</time>
      </trkpt>
      <trkpt lat="45.39337" lon="5.59169">
        <ele>514</ele>
        <time>2023-02-16T08:21:29Z</time>
      </trkpt>
      <trkpt lat="45.39333" lon="5.59172">
        <ele>514</ele>
        <time>2023-02-16T08:21:30Z</time>
      </trkpt>
      <trkpt lat="45.39329" lon="5.59175">
        <ele>514</ele>
        <time>2023-02-16T08:21:31Z</time>
      </trkpt>
      <trkpt lat="45.39326" lon="5.59177">
        <ele>514</ele>
        <time>2023-02-16T08:21:32Z</time>
      </trkpt>
      <trkpt lat="45.39323" lon="5.5918">
        <ele>514</ele>
        <time>2023-02-16T08:21:33Z</time>
      </trkpt>
      <trkpt lat="45.39319" lon="5.59184">
        <ele>514</ele>
        <time>2023-02-16T08:21:34Z</time>
      </trkpt>
      <trkpt lat="45.39315" lon="5.59186">
        <ele>514</ele>
        <time>2023-02-16T08:21:35Z</time>
      </trkpt>
      <trkpt lat="45.39312" lon="5.59189">
        <ele>514</ele>
        <time>2023-02-16T08:21:36Z</time>
      </trkpt>
      <trkpt lat="45.39308" lon="5.5919">
        <ele>514</ele>
        <time>2023-02-16T08:21:37Z</time>
      </trkpt>
      <trkpt lat="45.39304" lon="5.5919">
        <ele>515</ele>
        <time>2023-02-16T08:21:38Z</time>
      </trkpt>
      <trkpt lat="45.39301" lon="5.5919">
        <ele>515</ele>
        <time>2023-02-16T08:21:39Z</time>
      </trkpt>
      <trkpt lat="45.39298" lon="5.5919">
        <ele>515</ele>
        <time>2023-02-16T08:21:40Z</time>
      </trkpt>
      <trkpt lat="45.39295" lon="5.5919">
        <ele>515</ele>
        <time>2023-02-16T08:21:41Z</time>
      </trkpt>
      <trkpt lat="45.39293" lon="5.5919">
        <ele>516</ele>
        <time>2023-02-16T08:21:42Z</time>
      </trkpt>
      <trkpt lat="45.39291" lon="5.5919">
        <ele>516</ele>
        <time>2023-02-16T08:21:46Z</time>
      </trkpt>
      <trkpt lat="45.3929" lon="5.59191">
        <ele>516</ele>
        <time>2023-02-16T08:21:51Z</time>
      </trkpt>
      <trkpt lat="45.39295" lon="5.59214">
        <ele>517</ele>
        <time>2023-02-16T08:23:11Z</time>
      </trkpt>
      <trkpt lat="45.39296" lon="5.59219">
        <ele>516</ele>
        <time>2023-02-16T08:23:12Z</time>
      </trkpt>
      <trkpt lat="45.393" lon="5.59231">
        <ele>516</ele>
        <time>2023-02-16T08:23:14Z</time>
      </trkpt>
      <trkpt lat="45.39297" lon="5.59248">
        <ele>517</ele>
        <time>2023-02-16T08:23:17Z</time>
      </trkpt>
      <trkpt lat="45.39294" lon="5.59252">
        <ele>517</ele>
        <time>2023-02-16T08:23:18Z</time>
      </trkpt>
      <trkpt lat="45.39291" lon="5.59256">
        <ele>517</ele>
        <time>2023-02-16T08:23:19Z</time>
      </trkpt>
      <trkpt lat="45.39287" lon="5.5926">
        <ele>517</ele>
        <time>2023-02-16T08:23:20Z</time>
      </trkpt>
      <trkpt lat="45.39283" lon="5.59264">
        <ele>517</ele>
        <time>2023-02-16T08:23:21Z</time>
      </trkpt>
      <trkpt lat="45.39279" lon="5.59268">
        <ele>517</ele>
        <time>2023-02-16T08:23:22Z</time>
      </trkpt>
      <trkpt lat="45.39275" lon="5.59271">
        <ele>517</ele>
        <time>2023-02-16T08:23:23Z</time>
      </trkpt>
      <trkpt lat="45.39271" lon="5.59275">
        <ele>518</ele>
        <time>2023-02-16T08:23:24Z</time>
      </trkpt>
      <trkpt lat="45.39267" lon="5.5928">
        <ele>518</ele>
        <time>2023-02-16T08:23:25Z</time>
      </trkpt>
      <trkpt lat="45.39263" lon="5.59284">
        <ele>518</ele>
        <time>2023-02-16T08:23:26Z</time>
      </trkpt>
      <trkpt lat="45.39258" lon="5.59288">
        <ele>518</ele>
        <time>2023-02-16T08:23:27Z</time>
      </trkpt>
      <trkpt lat="45.39254" lon="5.59292">
        <ele>518</ele>
        <time>2023-02-16T08:23:28Z</time>
      </trkpt>
      <trkpt lat="45.39249" lon="5.59296">
        <ele>518</ele>
        <time>2023-02-16T08:23:29Z</time>
      </trkpt>
      <trkpt lat="45.39245" lon="5.593">
        <ele>518</ele>
        <time>2023-02-16T08:23:30Z</time>
      </trkpt>
      <trkpt lat="45.3924" lon="5.59303">
        <ele>518</ele>
        <time>2023-02-16T08:23:31Z</time>
      </trkpt>
      <trkpt lat="45.39236" lon="5.59307">
        <ele>518</ele>
        <time>2023-02-16T08:23:32Z</time>
      </trkpt>
      <trkpt lat="45.39232" lon="5.5931">
        <ele>518</ele>
        <time>2023-02-16T08:23:33Z</time>
      </trkpt>
      <trkpt lat="45.39228" lon="5.59313">
        <ele>518</ele>
        <time>2023-02-16T08:23:34Z</time>
      </trkpt>
      <trkpt lat="45.39224" lon="5.59316">
        <ele>518</ele>
        <time>2023-02-16T08:23:35Z</time>
      </trkpt>
      <trkpt lat="45.3922" lon="5.59319">
        <ele>518</ele>
        <time>2023-02-16T08:23:36Z</time>
      </trkpt>
      <trkpt lat="45.39217" lon="5.59322">
        <ele>518</ele>
        <time>2023-02-16T08:23:37Z</time>
      </trkpt>
      <trkpt lat="45.39213" lon="5.59325">
        <ele>518</ele>
        <time>2023-02-16T08:23:38Z</time>
      </trkpt>
      <trkpt lat="45.39209" lon="5.59328">
        <ele>517</ele>
        <time>2023-02-16T08:23:39Z</time>
      </trkpt>
      <trkpt lat="45.39205" lon="5.59331">
        <ele>517</ele>
        <time>2023-02-16T08:23:40Z</time>
      </trkpt>
      <trkpt lat="45.39201" lon="5.59334">
        <ele>517</ele>
        <time>2023-02-16T08:23:41Z</time>
      </trkpt>
      <trkpt lat="45.39196" lon="5.59337">
        <ele>517</ele>
        <time>2023-02-16T08:23:42Z</time>
      </trkpt>
      <trkpt lat="45.39192" lon="5.5934">
        <ele>518</ele>
        <time>2023-02-16T08:23:43Z</time>
      </trkpt>
      <trkpt lat="45.39187" lon="5.59342">
        <ele>518</ele>
        <time>2023-02-16T08:23:44Z</time>
      </trkpt>
      <trkpt lat="45.39183" lon="5.59345">
        <ele>518</ele>
        <time>2023-02-16T08:23:45Z</time>
      </trkpt>
      <trkpt lat="45.39178" lon="5.59347">
        <ele>518</ele>
        <time>2023-02-16T08:23:46Z</time>
      </trkpt>
      <trkpt lat="45.39173" lon="5.5935">
        <ele>518</ele>
        <time>2023-02-16T08:23:47Z</time>
      </trkpt>
      <trkpt lat="45.39168" lon="5.59352">
        <ele>518</ele>
        <time>2023-02-16T08:23:48Z</time>
      </trkpt>
      <trkpt lat="45.39163" lon="5.59354">
        <ele>518</ele>
        <time>2023-02-16T08:23:49Z</time>
      </trkpt>
      <trkpt lat="45.39158" lon="5.59356">
        <ele>518</ele>
        <time>2023-02-16T08:23:50Z</time>
      </trkpt>
      <trkpt lat="45.39152" lon="5.59359">
        <ele>518</ele>
        <time>2023-02-16T08:23:51Z</time>
      </trkpt>
      <trkpt lat="45.39147" lon="5.59362">
        <ele>517</ele>
        <time>2023-02-16T08:23:52Z</time>
      </trkpt>
      <trkpt lat="45.39142" lon="5.59365">
        <ele>517</ele>
        <time>2023-02-16T08:23:53Z</time>
      </trkpt>
      <trkpt lat="45.39137" lon="5.59367">
        <ele>517</ele>
        <time>2023-02-16T08:23:54Z</time>
      </trkpt>
      <trkpt lat="45.39131" lon="5.5937">
        <ele>517</ele>
        <time>2023-02-16T08:23:55Z</time>
      </trkpt>
      <trkpt lat="45.39126" lon="5.59373">
        <ele>517</ele>
        <time>2023-02-16T08:23:56Z</time>
      </trkpt>
      <trkpt lat="45.39121" lon="5.59376">
        <ele>517</ele>
        <time>2023-02-16T08:23:57Z</time>
      </trkpt>
      <trkpt lat="45.39116" lon="5.59379">
        <ele>517</ele>
        <time>2023-02-16T08:23:58Z</time>
      </trkpt>
      <trkpt lat="45.39111" lon="5.59382">
        <ele>517</ele>
        <time>2023-02-16T08:23:59Z</time>
      </trkpt>
      <trkpt lat="45.39106" lon="5.59385">
        <ele>517</ele>
        <time>2023-02-16T08:24:00Z</time>
      </trkpt>
      <trkpt lat="45.39101" lon="5.59388">
        <ele>517</ele>
        <time>2023-02-16T08:24:01Z</time>
      </trkpt>
      <trkpt lat="45.39096" lon="5.59392">
        <ele>517</ele>
        <time>2023-02-16T08:24:02Z</time>
      </trkpt>
      <trkpt lat="45.39092" lon="5.59396">
        <ele>517</ele>
        <time>2023-02-16T08:24:03Z</time>
      </trkpt>
      <trkpt lat="45.39088" lon="5.594">
        <ele>517</ele>
        <time>2023-02-16T08:24:04Z</time>
      </trkpt>
      <trkpt lat="45.39084" lon="5.59404">
        <ele>517</ele>
        <time>2023-02-16T08:24:05Z</time>
      </trkpt>
      <trkpt lat="45.3908" lon="5.59408">
        <ele>517</ele>
        <time>2023-02-16T08:24:06Z</time>
      </trkpt>
      <trkpt lat="45.39076" lon="5.59413">
        <ele>518</ele>
        <time>2023-02-16T08:24:07Z</time>
      </trkpt>
      <trkpt lat="45.39072" lon="5.59418">
        <ele>518</ele>
        <time>2023-02-16T08:24:08Z</time>
      </trkpt>
      <trkpt lat="45.39068" lon="5.59424">
        <ele>518</ele>
        <time>2023-02-16T08:24:09Z</time>
      </trkpt>
      <trkpt lat="45.39065" lon="5.5943">
        <ele>518</ele>
        <time>2023-02-16T08:24:10Z</time>
      </trkpt>
      <trkpt lat="45.39062" lon="5.59436">
        <ele>518</ele>
        <time>2023-02-16T08:24:11Z</time>
      </trkpt>
      <trkpt lat="45.3906" lon="5.59442">
        <ele>518</ele>
        <time>2023-02-16T08:24:12Z</time>
      </trkpt>
      <trkpt lat="45.39058" lon="5.59448">
        <ele>518</ele>
        <time>2023-02-16T08:24:13Z</time>
      </trkpt>
      <trkpt lat="45.39055" lon="5.59453">
        <ele>518</ele>
        <time>2023-02-16T08:24:14Z</time>
      </trkpt>
      <trkpt lat="45.39052" lon="5.59458">
        <ele>518</ele>
        <time>2023-02-16T08:24:15Z</time>
      </trkpt>
      <trkpt lat="45.39047" lon="5.59463">
        <ele>518</ele>
        <time>2023-02-16T08:24:16Z</time>
      </trkpt>
      <trkpt lat="45.3904" lon="5.59467">
        <ele>517</ele>
        <time>2023-02-16T08:24:17Z</time>
      </trkpt>
      <trkpt lat="45.39033" lon="5.5947">
        <ele>517</ele>
        <time>2023-02-16T08:24:18Z</time>
      </trkpt>
      <trkpt lat="45.39027" lon="5.59472">
        <ele>517</ele>
        <time>2023-02-16T08:24:19Z</time>
      </trkpt>
      <trkpt lat="45.39022" lon="5.59472">
        <ele>517</ele>
        <time>2023-02-16T08:24:20Z</time>
      </trkpt>
      <trkpt lat="45.39015" lon="5.59472">
        <ele>517</ele>
        <time>2023-02-16T08:24:21Z</time>
      </trkpt>
      <trkpt lat="45.39004" lon="5.59474">
        <ele>517</ele>
        <time>2023-02-16T08:24:23Z</time>
      </trkpt>
      <trkpt lat="45.38998" lon="5.59476">
        <ele>517</ele>
        <time>2023-02-16T08:24:24Z</time>
      </trkpt>
      <trkpt lat="45.38994" lon="5.59478">
        <ele>517</ele>
        <time>2023-02-16T08:24:25Z</time>
      </trkpt>
      <trkpt lat="45.38989" lon="5.59482">
        <ele>517</ele>
        <time>2023-02-16T08:24:26Z</time>
      </trkpt>
      <trkpt lat="45.38983" lon="5.59488">
        <ele>517</ele>
        <time>2023-02-16T08:24:27Z</time>
      </trkpt>
      <trkpt lat="45.38978" lon="5.59495">
        <ele>517</ele>
        <time>2023-02-16T08:24:28Z</time>
      </trkpt>
      <trkpt lat="45.38973" lon="5.59502">
        <ele>517</ele>
        <time>2023-02-16T08:24:29Z</time>
      </trkpt>
      <trkpt lat="45.38968" lon="5.59509">
        <ele>517</ele>
        <time>2023-02-16T08:24:30Z</time>
      </trkpt>
      <trkpt lat="45.38962" lon="5.59514">
        <ele>517</ele>
        <time>2023-02-16T08:24:31Z</time>
      </trkpt>
      <trkpt lat="45.38956" lon="5.59519">
        <ele>517</ele>
        <time>2023-02-16T08:24:32Z</time>
      </trkpt>
      <trkpt lat="45.3895" lon="5.59522">
        <ele>517</ele>
        <time>2023-02-16T08:24:33Z</time>
      </trkpt>
      <trkpt lat="45.38944" lon="5.59526">
        <ele>517</ele>
        <time>2023-02-16T08:24:34Z</time>
      </trkpt>
      <trkpt lat="45.38938" lon="5.5953">
        <ele>516</ele>
        <time>2023-02-16T08:24:35Z</time>
      </trkpt>
      <trkpt lat="45.38932" lon="5.59536">
        <ele>516</ele>
        <time>2023-02-16T08:24:36Z</time>
      </trkpt>
      <trkpt lat="45.38927" lon="5.59542">
        <ele>516</ele>
        <time>2023-02-16T08:24:37Z</time>
      </trkpt>
      <trkpt lat="45.38923" lon="5.59548">
        <ele>516</ele>
        <time>2023-02-16T08:24:38Z</time>
      </trkpt>
      <trkpt lat="45.38919" lon="5.59556">
        <ele>516</ele>
        <time>2023-02-16T08:24:39Z</time>
      </trkpt>
      <trkpt lat="45.38916" lon="5.59564">
        <ele>516</ele>
        <time>2023-02-16T08:24:40Z</time>
      </trkpt>
      <trkpt lat="45.38913" lon="5.59573">
        <ele>516</ele>
        <time>2023-02-16T08:24:41Z</time>
      </trkpt>
      <trkpt lat="45.38911" lon="5.59582">
        <ele>516</ele>
        <time>2023-02-16T08:24:42Z</time>
      </trkpt>
      <trkpt lat="45.38908" lon="5.5959">
        <ele>516</ele>
        <time>2023-02-16T08:24:43Z</time>
      </trkpt>
      <trkpt lat="45.38904" lon="5.59597">
        <ele>516</ele>
        <time>2023-02-16T08:24:44Z</time>
      </trkpt>
      <trkpt lat="45.389" lon="5.59603">
        <ele>516</ele>
        <time>2023-02-16T08:24:45Z</time>
      </trkpt>
      <trkpt lat="45.38895" lon="5.59607">
        <ele>516</ele>
        <time>2023-02-16T08:24:46Z</time>
      </trkpt>
      <trkpt lat="45.38891" lon="5.59611">
        <ele>516</ele>
        <time>2023-02-16T08:24:47Z</time>
      </trkpt>
      <trkpt lat="45.38889" lon="5.59615">
        <ele>516</ele>
        <time>2023-02-16T08:24:48Z</time>
      </trkpt>
      <trkpt lat="45.3889" lon="5.59619">
        <ele>516</ele>
        <time>2023-02-16T08:24:49Z</time>
      </trkpt>
      <trkpt lat="45.38892" lon="5.59621">
        <ele>516</ele>
        <time>2023-02-16T08:24:51Z</time>
      </trkpt>
      <trkpt lat="45.38896" lon="5.59621">
        <ele>517</ele>
        <time>2023-02-16T08:24:53Z</time>
      </trkpt>
      <trkpt lat="45.38899" lon="5.59621">
        <ele>518</ele>
        <time>2023-02-16T08:24:55Z</time>
      </trkpt>
      <trkpt lat="45.38901" lon="5.5962">
        <ele>518</ele>
        <time>2023-02-16T08:24:56Z</time>
      </trkpt>
      <trkpt lat="45.38905" lon="5.5962">
        <ele>518</ele>
        <time>2023-02-16T08:24:58Z</time>
      </trkpt>
      <trkpt lat="45.38908" lon="5.5962">
        <ele>519</ele>
        <time>2023-02-16T08:25:00Z</time>
      </trkpt>
      <trkpt lat="45.38911" lon="5.59619">
        <ele>520</ele>
        <time>2023-02-16T08:25:02Z</time>
      </trkpt>
      <trkpt lat="45.38914" lon="5.59619">
        <ele>520</ele>
        <time>2023-02-16T08:25:04Z</time>
      </trkpt>
      <trkpt lat="45.38917" lon="5.59617">
        <ele>520</ele>
        <time>2023-02-16T08:25:06Z</time>
      </trkpt>
      <trkpt lat="45.3892" lon="5.59615">
        <ele>521</ele>
        <time>2023-02-16T08:25:08Z</time>
      </trkpt>
      <trkpt lat="45.38922" lon="5.59613">
        <ele>521</ele>
        <time>2023-02-16T08:25:10Z</time>
      </trkpt>
      <trkpt lat="45.38924" lon="5.5961">
        <ele>521</ele>
        <time>2023-02-16T08:25:12Z</time>
      </trkpt>
      <trkpt lat="45.38926" lon="5.59607">
        <ele>522</ele>
        <time>2023-02-16T08:25:14Z</time>
      </trkpt>
      <trkpt lat="45.38928" lon="5.59604">
        <ele>523</ele>
        <time>2023-02-16T08:25:16Z</time>
      </trkpt>
      <trkpt lat="45.3893" lon="5.59601">
        <ele>524</ele>
        <time>2023-02-16T08:25:18Z</time>
      </trkpt>
      <trkpt lat="45.38932" lon="5.59599">
        <ele>524</ele>
        <time>2023-02-16T08:25:20Z</time>
      </trkpt>
      <trkpt lat="45.38935" lon="5.59596">
        <ele>525</ele>
        <time>2023-02-16T08:25:22Z</time>
      </trkpt>
      <trkpt lat="45.38938" lon="5.59594">
        <ele>527</ele>
        <time>2023-02-16T08:25:24Z</time>
      </trkpt>
      <trkpt lat="45.3894" lon="5.59593">
        <ele>527</ele>
        <time>2023-02-16T08:25:26Z</time>
      </trkpt>
      <trkpt lat="45.38943" lon="5.59593">
        <ele>527</ele>
        <time>2023-02-16T08:25:28Z</time>
      </trkpt>
      <trkpt lat="45.38945" lon="5.59593">
        <ele>528</ele>
        <time>2023-02-16T08:25:30Z</time>
      </trkpt>
      <trkpt lat="45.38947" lon="5.59593">
        <ele>528</ele>
        <time>2023-02-16T08:25:32Z</time>
      </trkpt>
      <trkpt lat="45.3895" lon="5.59592">
        <ele>529</ele>
        <time>2023-02-16T08:25:34Z</time>
      </trkpt>
      <trkpt lat="45.38952" lon="5.59592">
        <ele>529</ele>
        <time>2023-02-16T08:25:36Z</time>
      </trkpt>
      <trkpt lat="45.38954" lon="5.59592">
        <ele>530</ele>
        <time>2023-02-16T08:25:38Z</time>
      </trkpt>
      <trkpt lat="45.38957" lon="5.59592">
        <ele>531</ele>
        <time>2023-02-16T08:25:40Z</time>
      </trkpt>
      <trkpt lat="45.38959" lon="5.59592">
        <ele>532</ele>
        <time>2023-02-16T08:25:42Z</time>
      </trkpt>
      <trkpt lat="45.38962" lon="5.59592">
        <ele>532</ele>
        <time>2023-02-16T08:25:44Z</time>
      </trkpt>
      <trkpt lat="45.38964" lon="5.59593">
        <ele>533</ele>
        <time>2023-02-16T08:25:46Z</time>
      </trkpt>
      <trkpt lat="45.38967" lon="5.59593">
        <ele>533</ele>
        <time>2023-02-16T08:25:48Z</time>
      </trkpt>
      <trkpt lat="45.38969" lon="5.59593">
        <ele>534</ele>
        <time>2023-02-16T08:25:50Z</time>
      </trkpt>
      <trkpt lat="45.38971" lon="5.59594">
        <ele>535</ele>
        <time>2023-02-16T08:25:54Z</time>
      </trkpt>
      <trkpt lat="45.38974" lon="5.59594">
        <ele>536</ele>
        <time>2023-02-16T08:25:56Z</time>
      </trkpt>
      <trkpt lat="45.38976" lon="5.59595">
        <ele>536</ele>
        <time>2023-02-16T08:25:57Z</time>
      </trkpt>
      <trkpt lat="45.38978" lon="5.59596">
        <ele>536</ele>
        <time>2023-02-16T08:25:58Z</time>
      </trkpt>
      <trkpt lat="45.3898" lon="5.59597">
        <ele>536</ele>
        <time>2023-02-16T08:25:59Z</time>
      </trkpt>
      <trkpt lat="45.38982" lon="5.59598">
        <ele>538</ele>
        <time>2023-02-16T08:26:00Z</time>
      </trkpt>
      <trkpt lat="45.38984" lon="5.59599">
        <ele>538</ele>
        <time>2023-02-16T08:26:02Z</time>
      </trkpt>
      <trkpt lat="45.38986" lon="5.596">
        <ele>539</ele>
        <time>2023-02-16T08:26:04Z</time>
      </trkpt>
      <trkpt lat="45.38989" lon="5.596">
        <ele>539</ele>
        <time>2023-02-16T08:26:06Z</time>
      </trkpt>
      <trkpt lat="45.38991" lon="5.59602">
        <ele>540</ele>
        <time>2023-02-16T08:26:08Z</time>
      </trkpt>
      <trkpt lat="45.38994" lon="5.59603">
        <ele>541</ele>
        <time>2023-02-16T08:26:10Z</time>
      </trkpt>
      <trkpt lat="45.38997" lon="5.59603">
        <ele>541</ele>
        <time>2023-02-16T08:26:12Z</time>
      </trkpt>
      <trkpt lat="45.39" lon="5.59603">
        <ele>542</ele>
        <time>2023-02-16T08:26:14Z</time>
      </trkpt>
      <trkpt lat="45.39002" lon="5.59604">
        <ele>542</ele>
        <time>2023-02-16T08:26:16Z</time>
      </trkpt>
      <trkpt lat="45.39004" lon="5.59604">
        <ele>543</ele>
        <time>2023-02-16T08:26:18Z</time>
      </trkpt>
      <trkpt lat="45.39007" lon="5.59603">
        <ele>544</ele>
        <time>2023-02-16T08:26:20Z</time>
      </trkpt>
      <trkpt lat="45.39009" lon="5.59603">
        <ele>545</ele>
        <time>2023-02-16T08:26:22Z</time>
      </trkpt>
      <trkpt lat="45.39011" lon="5.59603">
        <ele>545</ele>
        <time>2023-02-16T08:26:23Z</time>
      </trkpt>
      <trkpt lat="45.39014" lon="5.59603">
        <ele>545</ele>
        <time>2023-02-16T08:26:25Z</time>
      </trkpt>
      <trkpt lat="45.39017" lon="5.59602">
        <ele>545</ele>
        <time>2023-02-16T08:26:27Z</time>
      </trkpt>
      <trkpt lat="45.39019" lon="5.59602">
        <ele>546</ele>
        <time>2023-02-16T08:26:29Z</time>
      </trkpt>
      <trkpt lat="45.39021" lon="5.59601">
        <ele>546</ele>
        <time>2023-02-16T08:26:31Z</time>
      </trkpt>
      <trkpt lat="45.39023" lon="5.596">
        <ele>547</ele>
        <time>2023-02-16T08:26:33Z</time>
      </trkpt>
      <trkpt lat="45.39025" lon="5.59599">
        <ele>547</ele>
        <time>2023-02-16T08:26:34Z</time>
      </trkpt>
      <trkpt lat="45.39028" lon="5.59599">
        <ele>547</ele>
        <time>2023-02-16T08:26:36Z</time>
      </trkpt>
      <trkpt lat="45.39031" lon="5.59597">
        <ele>547</ele>
        <time>2023-02-16T08:26:38Z</time>
      </trkpt>
      <trkpt lat="45.39034" lon="5.59596">
        <ele>548</ele>
        <time>2023-02-16T08:26:40Z</time>
      </trkpt>
      <trkpt lat="45.39036" lon="5.59595">
        <ele>548</ele>
        <time>2023-02-16T08:26:42Z</time>
      </trkpt>
      <trkpt lat="45.39039" lon="5.59595">
        <ele>548</ele>
        <time>2023-02-16T08:26:44Z</time>
      </trkpt>
      <trkpt lat="45.39042" lon="5.59595">
        <ele>549</ele>
        <time>2023-02-16T08:26:46Z</time>
      </trkpt>
      <trkpt lat="45.39044" lon="5.59596">
        <ele>549</ele>
        <time>2023-02-16T08:26:48Z</time>
      </trkpt>
      <trkpt lat="45.39047" lon="5.59596">
        <ele>549</ele>
        <time>2023-02-16T08:26:50Z</time>
      </trkpt>
      <trkpt lat="45.3905" lon="5.59596">
        <ele>551</ele>
        <time>2023-02-16T08:26:52Z</time>
      </trkpt>
      <trkpt lat="45.39053" lon="5.59596">
        <ele>551</ele>
        <time>2023-02-16T08:26:54Z</time>
      </trkpt>
      <trkpt lat="45.39055" lon="5.59596">
        <ele>551</ele>
        <time>2023-02-16T08:26:56Z</time>
      </trkpt>
      <trkpt lat="45.39058" lon="5.59596">
        <ele>552</ele>
        <time>2023-02-16T08:26:58Z</time>
      </trkpt>
      <trkpt lat="45.39061" lon="5.59597">
        <ele>552</ele>
        <time>2023-02-16T08:27:00Z</time>
      </trkpt>
      <trkpt lat="45.39064" lon="5.59597">
        <ele>552</ele>
        <time>2023-02-16T08:27:02Z</time>
      </trkpt>
      <trkpt lat="45.39068" lon="5.59596">
        <ele>553</ele>
        <time>2023-02-16T08:27:04Z</time>
      </trkpt>
      <trkpt lat="45.39071" lon="5.59596">
        <ele>553</ele>
        <time>2023-02-16T08:27:06Z</time>
      </trkpt>
      <trkpt lat="45.39074" lon="5.59596">
        <ele>554</ele>
        <time>2023-02-16T08:27:08Z</time>
      </trkpt>
      <trkpt lat="45.39076" lon="5.59596">
        <ele>554</ele>
        <time>2023-02-16T08:27:09Z</time>
      </trkpt>
      <trkpt lat="45.3908" lon="5.59595">
        <ele>554</ele>
        <time>2023-02-16T08:27:11Z</time>
      </trkpt>
      <trkpt lat="45.39082" lon="5.59595">
        <ele>554</ele>
        <time>2023-02-16T08:27:12Z</time>
      </trkpt>
      <trkpt lat="45.39084" lon="5.59595">
        <ele>554</ele>
        <time>2023-02-16T08:27:13Z</time>
      </trkpt>
      <trkpt lat="45.39086" lon="5.59594">
        <ele>555</ele>
        <time>2023-02-16T08:27:14Z</time>
      </trkpt>
      <trkpt lat="45.39088" lon="5.59594">
        <ele>555</ele>
        <time>2023-02-16T08:27:15Z</time>
      </trkpt>
      <trkpt lat="45.3909" lon="5.59593">
        <ele>555</ele>
        <time>2023-02-16T08:27:16Z</time>
      </trkpt>
      <trkpt lat="45.39091" lon="5.59592">
        <ele>555</ele>
        <time>2023-02-16T08:27:17Z</time>
      </trkpt>
      <trkpt lat="45.39095" lon="5.59591">
        <ele>555</ele>
        <time>2023-02-16T08:27:19Z</time>
      </trkpt>
      <trkpt lat="45.39097" lon="5.5959">
        <ele>555</ele>
        <time>2023-02-16T08:27:20Z</time>
      </trkpt>
      <trkpt lat="45.39101" lon="5.59589">
        <ele>555</ele>
        <time>2023-02-16T08:27:22Z</time>
      </trkpt>
      <trkpt lat="45.39103" lon="5.59588">
        <ele>556</ele>
        <time>2023-02-16T08:27:23Z</time>
      </trkpt>
      <trkpt lat="45.39105" lon="5.59588">
        <ele>556</ele>
        <time>2023-02-16T08:27:24Z</time>
      </trkpt>
      <trkpt lat="45.39107" lon="5.59588">
        <ele>556</ele>
        <time>2023-02-16T08:27:25Z</time>
      </trkpt>
      <trkpt lat="45.3911" lon="5.59588">
        <ele>556</ele>
        <time>2023-02-16T08:27:27Z</time>
      </trkpt>
      <trkpt lat="45.39112" lon="5.59588">
        <ele>557</ele>
        <time>2023-02-16T08:27:28Z</time>
      </trkpt>
      <trkpt lat="45.39115" lon="5.59587">
        <ele>557</ele>
        <time>2023-02-16T08:27:30Z</time>
      </trkpt>
      <trkpt lat="45.39119" lon="5.59586">
        <ele>559</ele>
        <time>2023-02-16T08:27:32Z</time>
      </trkpt>
      <trkpt lat="45.39122" lon="5.59585">
        <ele>559</ele>
        <time>2023-02-16T08:27:34Z</time>
      </trkpt>
      <trkpt lat="45.39126" lon="5.59584">
        <ele>559</ele>
        <time>2023-02-16T08:27:36Z</time>
      </trkpt>
      <trkpt lat="45.39128" lon="5.59583">
        <ele>559</ele>
        <time>2023-02-16T08:27:37Z</time>
      </trkpt>
      <trkpt lat="45.3913" lon="5.59582">
        <ele>559</ele>
        <time>2023-02-16T08:27:38Z</time>
      </trkpt>
      <trkpt lat="45.39132" lon="5.59582">
        <ele>559</ele>
        <time>2023-02-16T08:27:39Z</time>
      </trkpt>
      <trkpt lat="45.39134" lon="5.59582">
        <ele>559</ele>
        <time>2023-02-16T08:27:40Z</time>
      </trkpt>
      <trkpt lat="45.39137" lon="5.59582">
        <ele>559</ele>
        <time>2023-02-16T08:27:42Z</time>
      </trkpt>
      <trkpt lat="45.3914" lon="5.59582">
        <ele>560</ele>
        <time>2023-02-16T08:27:43Z</time>
      </trkpt>
      <trkpt lat="45.39142" lon="5.59583">
        <ele>560</ele>
        <time>2023-02-16T08:27:44Z</time>
      </trkpt>
      <trkpt lat="45.39144" lon="5.59583">
        <ele>560</ele>
        <time>2023-02-16T08:27:45Z</time>
      </trkpt>
      <trkpt lat="45.39146" lon="5.59583">
        <ele>561</ele>
        <time>2023-02-16T08:27:46Z</time>
      </trkpt>
      <trkpt lat="45.39149" lon="5.59583">
        <ele>561</ele>
        <time>2023-02-16T08:27:47Z</time>
      </trkpt>
      <trkpt lat="45.39152" lon="5.59583">
        <ele>561</ele>
        <time>2023-02-16T08:27:49Z</time>
      </trkpt>
      <trkpt lat="45.39156" lon="5.59582">
        <ele>561</ele>
        <time>2023-02-16T08:27:51Z</time>
      </trkpt>
      <trkpt lat="45.39158" lon="5.59582">
        <ele>561</ele>
        <time>2023-02-16T08:27:52Z</time>
      </trkpt>
      <trkpt lat="45.3916" lon="5.59582">
        <ele>561</ele>
        <time>2023-02-16T08:27:53Z</time>
      </trkpt>
      <trkpt lat="45.39162" lon="5.59581">
        <ele>561</ele>
        <time>2023-02-16T08:27:54Z</time>
      </trkpt>
      <trkpt lat="45.39164" lon="5.5958">
        <ele>562</ele>
        <time>2023-02-16T08:27:55Z</time>
      </trkpt>
      <trkpt lat="45.39165" lon="5.5958">
        <ele>562</ele>
        <time>2023-02-16T08:27:56Z</time>
      </trkpt>
      <trkpt lat="45.39167" lon="5.59579">
        <ele>562</ele>
        <time>2023-02-16T08:27:57Z</time>
      </trkpt>
      <trkpt lat="45.39169" lon="5.59579">
        <ele>563</ele>
        <time>2023-02-16T08:27:58Z</time>
      </trkpt>
      <trkpt lat="45.39172" lon="5.59578">
        <ele>563</ele>
        <time>2023-02-16T08:28:00Z</time>
      </trkpt>
      <trkpt lat="45.39174" lon="5.59577">
        <ele>563</ele>
        <time>2023-02-16T08:28:01Z</time>
      </trkpt>
      <trkpt lat="45.39176" lon="5.59577">
        <ele>564</ele>
        <time>2023-02-16T08:28:02Z</time>
      </trkpt>
      <trkpt lat="45.39178" lon="5.59576">
        <ele>564</ele>
        <time>2023-02-16T08:28:03Z</time>
      </trkpt>
      <trkpt lat="45.3918" lon="5.59575">
        <ele>564</ele>
        <time>2023-02-16T08:28:04Z</time>
      </trkpt>
      <trkpt lat="45.39182" lon="5.59574">
        <ele>564</ele>
        <time>2023-02-16T08:28:05Z</time>
      </trkpt>
      <trkpt lat="45.39184" lon="5.59573">
        <ele>564</ele>
        <time>2023-02-16T08:28:06Z</time>
      </trkpt>
      <trkpt lat="45.39186" lon="5.59571">
        <ele>565</ele>
        <time>2023-02-16T08:28:07Z</time>
      </trkpt>
      <trkpt lat="45.39188" lon="5.5957">
        <ele>565</ele>
        <time>2023-02-16T08:28:08Z</time>
      </trkpt>
      <trkpt lat="45.3919" lon="5.59569">
        <ele>565</ele>
        <time>2023-02-16T08:28:09Z</time>
      </trkpt>
      <trkpt lat="45.39192" lon="5.59568">
        <ele>565</ele>
        <time>2023-02-16T08:28:10Z</time>
      </trkpt>
      <trkpt lat="45.39194" lon="5.59567">
        <ele>566</ele>
        <time>2023-02-16T08:28:11Z</time>
      </trkpt>
      <trkpt lat="45.39196" lon="5.59566">
        <ele>566</ele>
        <time>2023-02-16T08:28:12Z</time>
      </trkpt>
      <trkpt lat="45.39198" lon="5.59565">
        <ele>566</ele>
        <time>2023-02-16T08:28:13Z</time>
      </trkpt>
      <trkpt lat="45.39201" lon="5.59564">
        <ele>566</ele>
        <time>2023-02-16T08:28:14Z</time>
      </trkpt>
      <trkpt lat="45.39203" lon="5.59563">
        <ele>566</ele>
        <time>2023-02-16T08:28:15Z</time>
      </trkpt>
      <trkpt lat="45.39205" lon="5.59563">
        <ele>566</ele>
        <time>2023-02-16T08:28:16Z</time>
      </trkpt>
      <trkpt lat="45.39207" lon="5.59562">
        <ele>567</ele>
        <time>2023-02-16T08:28:17Z</time>
      </trkpt>
      <trkpt lat="45.3921" lon="5.5956">
        <ele>567</ele>
        <time>2023-02-16T08:28:18Z</time>
      </trkpt>
      <trkpt lat="45.39212" lon="5.59559">
        <ele>568</ele>
        <time>2023-02-16T08:28:19Z</time>
      </trkpt>
      <trkpt lat="45.39214" lon="5.59558">
        <ele>568</ele>
        <time>2023-02-16T08:28:20Z</time>
      </trkpt>
      <trkpt lat="45.39216" lon="5.59556">
        <ele>568</ele>
        <time>2023-02-16T08:28:21Z</time>
      </trkpt>
      <trkpt lat="45.39218" lon="5.59555">
        <ele>568</ele>
        <time>2023-02-16T08:28:22Z</time>
      </trkpt>
      <trkpt lat="45.39221" lon="5.59554">
        <ele>569</ele>
        <time>2023-02-16T08:28:23Z</time>
      </trkpt>
      <trkpt lat="45.39223" lon="5.59553">
        <ele>569</ele>
        <time>2023-02-16T08:28:24Z</time>
      </trkpt>
      <trkpt lat="45.39226" lon="5.59552">
        <ele>569</ele>
        <time>2023-02-16T08:28:25Z</time>
      </trkpt>
      <trkpt lat="45.39228" lon="5.59551">
        <ele>569</ele>
        <time>2023-02-16T08:28:26Z</time>
      </trkpt>
      <trkpt lat="45.39231" lon="5.5955">
        <ele>569</ele>
        <time>2023-02-16T08:28:27Z</time>
      </trkpt>
      <trkpt lat="45.39234" lon="5.59549">
        <ele>569</ele>
        <time>2023-02-16T08:28:28Z</time>
      </trkpt>
      <trkpt lat="45.39236" lon="5.59548">
        <ele>569</ele>
        <time>2023-02-16T08:28:29Z</time>
      </trkpt>
      <trkpt lat="45.39239" lon="5.59547">
        <ele>569</ele>
        <time>2023-02-16T08:28:30Z</time>
      </trkpt>
      <trkpt lat="45.39241" lon="5.59546">
        <ele>569</ele>
        <time>2023-02-16T08:28:31Z</time>
      </trkpt>
      <trkpt lat="45.39244" lon="5.59544">
        <ele>570</ele>
        <time>2023-02-16T08:28:32Z</time>
      </trkpt>
      <trkpt lat="45.39246" lon="5.59543">
        <ele>570</ele>
        <time>2023-02-16T08:28:33Z</time>
      </trkpt>
      <trkpt lat="45.39248" lon="5.59542">
        <ele>570</ele>
        <time>2023-02-16T08:28:34Z</time>
      </trkpt>
      <trkpt lat="45.3925" lon="5.5954">
        <ele>570</ele>
        <time>2023-02-16T08:28:35Z</time>
      </trkpt>
      <trkpt lat="45.39252" lon="5.59538">
        <ele>570</ele>
        <time>2023-02-16T08:28:36Z</time>
      </trkpt>
      <trkpt lat="45.39255" lon="5.59537">
        <ele>570</ele>
        <time>2023-02-16T08:28:37Z</time>
      </trkpt>
      <trkpt lat="45.39257" lon="5.59536">
        <ele>571</ele>
        <time>2023-02-16T08:28:38Z</time>
      </trkpt>
      <trkpt lat="45.39259" lon="5.59534">
        <ele>571</ele>
        <time>2023-02-16T08:28:39Z</time>
      </trkpt>
      <trkpt lat="45.39261" lon="5.59533">
        <ele>571</ele>
        <time>2023-02-16T08:28:40Z</time>
      </trkpt>
      <trkpt lat="45.39264" lon="5.59532">
        <ele>571</ele>
        <time>2023-02-16T08:28:41Z</time>
      </trkpt>
      <trkpt lat="45.39272" lon="5.59528">
        <ele>571</ele>
        <time>2023-02-16T08:28:45Z</time>
      </trkpt>
      <trkpt lat="45.39274" lon="5.59528">
        <ele>572</ele>
        <time>2023-02-16T08:28:46Z</time>
      </trkpt>
      <trkpt lat="45.39284" lon="5.59524">
        <ele>572</ele>
        <time>2023-02-16T08:28:51Z</time>
      </trkpt>
      <trkpt lat="45.39286" lon="5.59524">
        <ele>573</ele>
        <time>2023-02-16T08:28:52Z</time>
      </trkpt>
      <trkpt lat="45.39288" lon="5.59523">
        <ele>573</ele>
        <time>2023-02-16T08:28:53Z</time>
      </trkpt>
      <trkpt lat="45.39298" lon="5.59521">
        <ele>573</ele>
        <time>2023-02-16T08:28:57Z</time>
      </trkpt>
      <trkpt lat="45.39307" lon="5.59522">
        <ele>577</ele>
        <time>2023-02-16T08:29:02Z</time>
      </trkpt>
      <trkpt lat="45.39309" lon="5.59524">
        <ele>577</ele>
        <time>2023-02-16T08:29:03Z</time>
      </trkpt>
      <trkpt lat="45.39312" lon="5.59526">
        <ele>579</ele>
        <time>2023-02-16T08:29:05Z</time>
      </trkpt>
      <trkpt lat="45.39318" lon="5.59538">
        <ele>579</ele>
        <time>2023-02-16T08:29:12Z</time>
      </trkpt>
      <trkpt lat="45.3932" lon="5.59543">
        <ele>582</ele>
        <time>2023-02-16T08:29:17Z</time>
      </trkpt>
      <trkpt lat="45.39323" lon="5.59545">
        <ele>582</ele>
        <time>2023-02-16T08:29:19Z</time>
      </trkpt>
      <trkpt lat="45.39325" lon="5.59546">
        <ele>582</ele>
        <time>2023-02-16T08:29:21Z</time>
      </trkpt>
      <trkpt lat="45.39328" lon="5.59547">
        <ele>582</ele>
        <time>2023-02-16T08:29:23Z</time>
      </trkpt>
      <trkpt lat="45.39331" lon="5.59548">
        <ele>583</ele>
        <time>2023-02-16T08:29:25Z</time>
      </trkpt>
      <trkpt lat="45.39333" lon="5.59548">
        <ele>583</ele>
        <time>2023-02-16T08:29:27Z</time>
      </trkpt>
      <trkpt lat="45.39339" lon="5.59547">
        <ele>586</ele>
        <time>2023-02-16T08:29:32Z</time>
      </trkpt>
      <trkpt lat="45.39342" lon="5.59547">
        <ele>586</ele>
        <time>2023-02-16T08:29:33Z</time>
      </trkpt>
      <trkpt lat="45.39344" lon="5.59546">
        <ele>586</ele>
        <time>2023-02-16T08:29:34Z</time>
      </trkpt>
      <trkpt lat="45.39346" lon="5.59546">
        <ele>587</ele>
        <time>2023-02-16T08:29:35Z</time>
      </trkpt>
      <trkpt lat="45.3935" lon="5.59546">
        <ele>587</ele>
        <time>2023-02-16T08:29:37Z</time>
      </trkpt>
      <trkpt lat="45.39353" lon="5.59547">
        <ele>588</ele>
        <time>2023-02-16T08:29:39Z</time>
      </trkpt>
      <trkpt lat="45.39355" lon="5.59547">
        <ele>588</ele>
        <time>2023-02-16T08:29:41Z</time>
      </trkpt>
      <trkpt lat="45.39359" lon="5.59548">
        <ele>588</ele>
        <time>2023-02-16T08:29:43Z</time>
      </trkpt>
      <trkpt lat="45.3936" lon="5.59548">
        <ele>588</ele>
        <time>2023-02-16T08:29:44Z</time>
      </trkpt>
      <trkpt lat="45.39363" lon="5.59549">
        <ele>588</ele>
        <time>2023-02-16T08:29:46Z</time>
      </trkpt>
      <trkpt lat="45.39366" lon="5.5955">
        <ele>590</ele>
        <time>2023-02-16T08:29:48Z</time>
      </trkpt>
      <trkpt lat="45.39368" lon="5.59551">
        <ele>590</ele>
        <time>2023-02-16T08:29:50Z</time>
      </trkpt>
      <trkpt lat="45.39371" lon="5.59552">
        <ele>590</ele>
        <time>2023-02-16T08:29:52Z</time>
      </trkpt>
      <trkpt lat="45.39374" lon="5.59552">
        <ele>591</ele>
        <time>2023-02-16T08:29:54Z</time>
      </trkpt>
      <trkpt lat="45.39377" lon="5.59553">
        <ele>591</ele>
        <time>2023-02-16T08:29:56Z</time>
      </trkpt>
      <trkpt lat="45.3938" lon="5.59554">
        <ele>592</ele>
        <time>2023-02-16T08:29:58Z</time>
      </trkpt>
      <trkpt lat="45.39382" lon="5.59555">
        <ele>593</ele>
        <time>2023-02-16T08:30:00Z</time>
      </trkpt>
      <trkpt lat="45.39385" lon="5.59557">
        <ele>593</ele>
        <time>2023-02-16T08:30:02Z</time>
      </trkpt>
      <trkpt lat="45.39387" lon="5.59558">
        <ele>594</ele>
        <time>2023-02-16T08:30:03Z</time>
      </trkpt>
      <trkpt lat="45.39389" lon="5.5956">
        <ele>594</ele>
        <time>2023-02-16T08:30:05Z</time>
      </trkpt>
      <trkpt lat="45.39392" lon="5.59561">
        <ele>594</ele>
        <time>2023-02-16T08:30:07Z</time>
      </trkpt>
      <trkpt lat="45.39394" lon="5.59563">
        <ele>596</ele>
        <time>2023-02-16T08:30:10Z</time>
      </trkpt>
      <trkpt lat="45.39396" lon="5.59564">
        <ele>597</ele>
        <time>2023-02-16T08:30:11Z</time>
      </trkpt>
      <trkpt lat="45.39398" lon="5.59566">
        <ele>597</ele>
        <time>2023-02-16T08:30:13Z</time>
      </trkpt>
      <trkpt lat="45.394" lon="5.59567">
        <ele>597</ele>
        <time>2023-02-16T08:30:14Z</time>
      </trkpt>
      <trkpt lat="45.39402" lon="5.59568">
        <ele>597</ele>
        <time>2023-02-16T08:30:15Z</time>
      </trkpt>
      <trkpt lat="45.39405" lon="5.59569">
        <ele>597</ele>
        <time>2023-02-16T08:30:17Z</time>
      </trkpt>
      <trkpt lat="45.39407" lon="5.59571">
        <ele>597</ele>
        <time>2023-02-16T08:30:19Z</time>
      </trkpt>
      <trkpt lat="45.3941" lon="5.59572">
        <ele>598</ele>
        <time>2023-02-16T08:30:21Z</time>
      </trkpt>
      <trkpt lat="45.39412" lon="5.59573">
        <ele>598</ele>
        <time>2023-02-16T08:30:23Z</time>
      </trkpt>
      <trkpt lat="45.39415" lon="5.59574">
        <ele>598</ele>
        <time>2023-02-16T08:30:25Z</time>
      </trkpt>
      <trkpt lat="45.39418" lon="5.59575">
        <ele>600</ele>
        <time>2023-02-16T08:30:27Z</time>
      </trkpt>
      <trkpt lat="45.39421" lon="5.59577">
        <ele>600</ele>
        <time>2023-02-16T08:30:29Z</time>
      </trkpt>
      <trkpt lat="45.39423" lon="5.59578">
        <ele>601</ele>
        <time>2023-02-16T08:30:30Z</time>
      </trkpt>
      <trkpt lat="45.39425" lon="5.59579">
        <ele>601</ele>
        <time>2023-02-16T08:30:31Z</time>
      </trkpt>
      <trkpt lat="45.39427" lon="5.5958">
        <ele>601</ele>
        <time>2023-02-16T08:30:32Z</time>
      </trkpt>
      <trkpt lat="45.39429" lon="5.59582">
        <ele>601</ele>
        <time>2023-02-16T08:30:34Z</time>
      </trkpt>
      <trkpt lat="45.39432" lon="5.59584">
        <ele>602</ele>
        <time>2023-02-16T08:30:36Z</time>
      </trkpt>
      <trkpt lat="45.39433" lon="5.59587">
        <ele>603</ele>
        <time>2023-02-16T08:30:38Z</time>
      </trkpt>
      <trkpt lat="45.39436" lon="5.5959">
        <ele>603</ele>
        <time>2023-02-16T08:30:40Z</time>
      </trkpt>
      <trkpt lat="45.39438" lon="5.59592">
        <ele>603</ele>
        <time>2023-02-16T08:30:42Z</time>
      </trkpt>
      <trkpt lat="45.3944" lon="5.59595">
        <ele>605</ele>
        <time>2023-02-16T08:30:44Z</time>
      </trkpt>
      <trkpt lat="45.39443" lon="5.59597">
        <ele>605</ele>
        <time>2023-02-16T08:30:46Z</time>
      </trkpt>
      <trkpt lat="45.39445" lon="5.59599">
        <ele>605</ele>
        <time>2023-02-16T08:30:48Z</time>
      </trkpt>
      <trkpt lat="45.39448" lon="5.59601">
        <ele>606</ele>
        <time>2023-02-16T08:30:50Z</time>
      </trkpt>
      <trkpt lat="45.3945" lon="5.59603">
        <ele>606</ele>
        <time>2023-02-16T08:30:52Z</time>
      </trkpt>
      <trkpt lat="45.39452" lon="5.59603">
        <ele>606</ele>
        <time>2023-02-16T08:30:54Z</time>
      </trkpt>
      <trkpt lat="45.39455" lon="5.59604">
        <ele>607</ele>
        <time>2023-02-16T08:30:56Z</time>
      </trkpt>
      <trkpt lat="45.39457" lon="5.59604">
        <ele>608</ele>
        <time>2023-02-16T08:30:58Z</time>
      </trkpt>
      <trkpt lat="45.39459" lon="5.59603">
        <ele>609</ele>
        <time>2023-02-16T08:31:01Z</time>
      </trkpt>
      <trkpt lat="45.39462" lon="5.59603">
        <ele>609</ele>
        <time>2023-02-16T08:31:03Z</time>
      </trkpt>
      <trkpt lat="45.39465" lon="5.59603">
        <ele>610</ele>
        <time>2023-02-16T08:31:05Z</time>
      </trkpt>
      <trkpt lat="45.39468" lon="5.59604">
        <ele>610</ele>
        <time>2023-02-16T08:31:07Z</time>
      </trkpt>
      <trkpt lat="45.39471" lon="5.59604">
        <ele>611</ele>
        <time>2023-02-16T08:31:09Z</time>
      </trkpt>
      <trkpt lat="45.39473" lon="5.59605">
        <ele>611</ele>
        <time>2023-02-16T08:31:11Z</time>
      </trkpt>
      <trkpt lat="45.39476" lon="5.59605">
        <ele>611</ele>
        <time>2023-02-16T08:31:13Z</time>
      </trkpt>
      <trkpt lat="45.39478" lon="5.59605">
        <ele>612</ele>
        <time>2023-02-16T08:31:15Z</time>
      </trkpt>
      <trkpt lat="45.3948" lon="5.59606">
        <ele>613</ele>
        <time>2023-02-16T08:31:18Z</time>
      </trkpt>
      <trkpt lat="45.39483" lon="5.59606">
        <ele>615</ele>
        <time>2023-02-16T08:31:21Z</time>
      </trkpt>
      <trkpt lat="45.39486" lon="5.59608">
        <ele>615</ele>
        <time>2023-02-16T08:31:23Z</time>
      </trkpt>
      <trkpt lat="45.39488" lon="5.59609">
        <ele>615</ele>
        <time>2023-02-16T08:31:24Z</time>
      </trkpt>
      <trkpt lat="45.3949" lon="5.59611">
        <ele>615</ele>
        <time>2023-02-16T08:31:26Z</time>
      </trkpt>
      <trkpt lat="45.39493" lon="5.59613">
        <ele>615</ele>
        <time>2023-02-16T08:31:28Z</time>
      </trkpt>
      <trkpt lat="45.39495" lon="5.59615">
        <ele>615</ele>
        <time>2023-02-16T08:31:30Z</time>
      </trkpt>
      <trkpt lat="45.39497" lon="5.59616">
        <ele>616</ele>
        <time>2023-02-16T08:31:31Z</time>
      </trkpt>
      <trkpt lat="45.39499" lon="5.59618">
        <ele>616</ele>
        <time>2023-02-16T08:31:32Z</time>
      </trkpt>
      <trkpt lat="45.395" lon="5.5962">
        <ele>617</ele>
        <time>2023-02-16T08:31:33Z</time>
      </trkpt>
      <trkpt lat="45.39502" lon="5.59622">
        <ele>617</ele>
        <time>2023-02-16T08:31:34Z</time>
      </trkpt>
      <trkpt lat="45.39504" lon="5.59626">
        <ele>618</ele>
        <time>2023-02-16T08:31:36Z</time>
      </trkpt>
      <trkpt lat="45.39506" lon="5.59629">
        <ele>618</ele>
        <time>2023-02-16T08:31:38Z</time>
      </trkpt>
      <trkpt lat="45.39508" lon="5.59631">
        <ele>618</ele>
        <time>2023-02-16T08:31:40Z</time>
      </trkpt>
      <trkpt lat="45.39511" lon="5.59634">
        <ele>618</ele>
        <time>2023-02-16T08:31:42Z</time>
      </trkpt>
      <trkpt lat="45.39513" lon="5.59636">
        <ele>618</ele>
        <time>2023-02-16T08:31:44Z</time>
      </trkpt>
      <trkpt lat="45.39516" lon="5.59638">
        <ele>619</ele>
        <time>2023-02-16T08:31:46Z</time>
      </trkpt>
      <trkpt lat="45.39518" lon="5.5964">
        <ele>619</ele>
        <time>2023-02-16T08:31:48Z</time>
      </trkpt>
      <trkpt lat="45.39521" lon="5.59642">
        <ele>619</ele>
        <time>2023-02-16T08:31:50Z</time>
      </trkpt>
      <trkpt lat="45.39522" lon="5.59643">
        <ele>620</ele>
        <time>2023-02-16T08:31:51Z</time>
      </trkpt>
      <trkpt lat="45.39524" lon="5.59644">
        <ele>620</ele>
        <time>2023-02-16T08:31:52Z</time>
      </trkpt>
      <trkpt lat="45.39527" lon="5.59646">
        <ele>620</ele>
        <time>2023-02-16T08:31:54Z</time>
      </trkpt>
      <trkpt lat="45.3953" lon="5.59648">
        <ele>621</ele>
        <time>2023-02-16T08:31:56Z</time>
      </trkpt>
      <trkpt lat="45.39533" lon="5.5965">
        <ele>621</ele>
        <time>2023-02-16T08:31:58Z</time>
      </trkpt>
      <trkpt lat="45.39536" lon="5.59651">
        <ele>622</ele>
        <time>2023-02-16T08:32:00Z</time>
      </trkpt>
      <trkpt lat="45.39538" lon="5.59652">
        <ele>622</ele>
        <time>2023-02-16T08:32:01Z</time>
      </trkpt>
      <trkpt lat="45.39541" lon="5.59653">
        <ele>622</ele>
        <time>2023-02-16T08:32:02Z</time>
      </trkpt>
      <trkpt lat="45.39544" lon="5.59655">
        <ele>622</ele>
        <time>2023-02-16T08:32:03Z</time>
      </trkpt>
      <trkpt lat="45.39546" lon="5.59656">
        <ele>623</ele>
        <time>2023-02-16T08:32:04Z</time>
      </trkpt>
      <trkpt lat="45.39548" lon="5.59657">
        <ele>623</ele>
        <time>2023-02-16T08:32:05Z</time>
      </trkpt>
      <trkpt lat="45.39551" lon="5.5966">
        <ele>623</ele>
        <time>2023-02-16T08:32:07Z</time>
      </trkpt>
      <trkpt lat="45.39553" lon="5.59662">
        <ele>624</ele>
        <time>2023-02-16T08:32:08Z</time>
      </trkpt>
      <trkpt lat="45.39555" lon="5.59666">
        <ele>624</ele>
        <time>2023-02-16T08:32:10Z</time>
      </trkpt>
      <trkpt lat="45.39556" lon="5.59668">
        <ele>624</ele>
        <time>2023-02-16T08:32:11Z</time>
      </trkpt>
      <trkpt lat="45.39558" lon="5.5967">
        <ele>624</ele>
        <time>2023-02-16T08:32:13Z</time>
      </trkpt>
      <trkpt lat="45.39559" lon="5.59672">
        <ele>624</ele>
        <time>2023-02-16T08:32:14Z</time>
      </trkpt>
      <trkpt lat="45.39561" lon="5.59675">
        <ele>624</ele>
        <time>2023-02-16T08:32:15Z</time>
      </trkpt>
      <trkpt lat="45.39563" lon="5.59679">
        <ele>625</ele>
        <time>2023-02-16T08:32:17Z</time>
      </trkpt>
      <trkpt lat="45.39565" lon="5.59682">
        <ele>626</ele>
        <time>2023-02-16T08:32:19Z</time>
      </trkpt>
      <trkpt lat="45.39567" lon="5.59686">
        <ele>627</ele>
        <time>2023-02-16T08:32:21Z</time>
      </trkpt>
      <trkpt lat="45.39568" lon="5.59688">
        <ele>627</ele>
        <time>2023-02-16T08:32:22Z</time>
      </trkpt>
      <trkpt lat="45.39568" lon="5.59691">
        <ele>628</ele>
        <time>2023-02-16T08:32:23Z</time>
      </trkpt>
      <trkpt lat="45.39569" lon="5.59694">
        <ele>628</ele>
        <time>2023-02-16T08:32:24Z</time>
      </trkpt>
      <trkpt lat="45.3957" lon="5.59697">
        <ele>628</ele>
        <time>2023-02-16T08:32:25Z</time>
      </trkpt>
      <trkpt lat="45.39571" lon="5.597">
        <ele>628</ele>
        <time>2023-02-16T08:32:26Z</time>
      </trkpt>
      <trkpt lat="45.39572" lon="5.59703">
        <ele>628</ele>
        <time>2023-02-16T08:32:27Z</time>
      </trkpt>
      <trkpt lat="45.39572" lon="5.59706">
        <ele>628</ele>
        <time>2023-02-16T08:32:28Z</time>
      </trkpt>
      <trkpt lat="45.39573" lon="5.59709">
        <ele>628</ele>
        <time>2023-02-16T08:32:29Z</time>
      </trkpt>
      <trkpt lat="45.39573" lon="5.59713">
        <ele>628</ele>
        <time>2023-02-16T08:32:30Z</time>
      </trkpt>
      <trkpt lat="45.39574" lon="5.59716">
        <ele>628</ele>
        <time>2023-02-16T08:32:31Z</time>
      </trkpt>
      <trkpt lat="45.39574" lon="5.5972">
        <ele>628</ele>
        <time>2023-02-16T08:32:32Z</time>
      </trkpt>
      <trkpt lat="45.39575" lon="5.59724">
        <ele>628</ele>
        <time>2023-02-16T08:32:33Z</time>
      </trkpt>
      <trkpt lat="45.39575" lon="5.59728">
        <ele>628</ele>
        <time>2023-02-16T08:32:34Z</time>
      </trkpt>
      <trkpt lat="45.39576" lon="5.59732">
        <ele>628</ele>
        <time>2023-02-16T08:32:35Z</time>
      </trkpt>
      <trkpt lat="45.39576" lon="5.59736">
        <ele>628</ele>
        <time>2023-02-16T08:32:36Z</time>
      </trkpt>
      <trkpt lat="45.39577" lon="5.5974">
        <ele>628</ele>
        <time>2023-02-16T08:32:37Z</time>
      </trkpt>
      <trkpt lat="45.39578" lon="5.59743">
        <ele>628</ele>
        <time>2023-02-16T08:32:38Z</time>
      </trkpt>
      <trkpt lat="45.39579" lon="5.59747">
        <ele>628</ele>
        <time>2023-02-16T08:32:39Z</time>
      </trkpt>
      <trkpt lat="45.3958" lon="5.5975">
        <ele>628</ele>
        <time>2023-02-16T08:32:40Z</time>
      </trkpt>
      <trkpt lat="45.39581" lon="5.59754">
        <ele>629</ele>
        <time>2023-02-16T08:32:41Z</time>
      </trkpt>
      <trkpt lat="45.39581" lon="5.59757">
        <ele>629</ele>
        <time>2023-02-16T08:32:42Z</time>
      </trkpt>
      <trkpt lat="45.39582" lon="5.59761">
        <ele>629</ele>
        <time>2023-02-16T08:32:43Z</time>
      </trkpt>
      <trkpt lat="45.39583" lon="5.59764">
        <ele>629</ele>
        <time>2023-02-16T08:32:44Z</time>
      </trkpt>
      <trkpt lat="45.39583" lon="5.59766">
        <ele>629</ele>
        <time>2023-02-16T08:32:45Z</time>
      </trkpt>
      <trkpt lat="45.39584" lon="5.59769">
        <ele>629</ele>
        <time>2023-02-16T08:32:46Z</time>
      </trkpt>
      <trkpt lat="45.39584" lon="5.59773">
        <ele>630</ele>
        <time>2023-02-16T08:32:47Z</time>
      </trkpt>
      <trkpt lat="45.39585" lon="5.59777">
        <ele>630</ele>
        <time>2023-02-16T08:32:48Z</time>
      </trkpt>
      <trkpt lat="45.39585" lon="5.59781">
        <ele>630</ele>
        <time>2023-02-16T08:32:49Z</time>
      </trkpt>
      <trkpt lat="45.39586" lon="5.59784">
        <ele>630</ele>
        <time>2023-02-16T08:32:50Z</time>
      </trkpt>
      <trkpt lat="45.39586" lon="5.59787">
        <ele>631</ele>
        <time>2023-02-16T08:32:51Z</time>
      </trkpt>
      <trkpt lat="45.39587" lon="5.5979">
        <ele>630</ele>
        <time>2023-02-16T08:32:52Z</time>
      </trkpt>
      <trkpt lat="45.39588" lon="5.59793">
        <ele>630</ele>
        <time>2023-02-16T08:32:53Z</time>
      </trkpt>
      <trkpt lat="45.39589" lon="5.59797">
        <ele>630</ele>
        <time>2023-02-16T08:32:54Z</time>
      </trkpt>
      <trkpt lat="45.39589" lon="5.598">
        <ele>630</ele>
        <time>2023-02-16T08:32:55Z</time>
      </trkpt>
      <trkpt lat="45.39589" lon="5.59804">
        <ele>630</ele>
        <time>2023-02-16T08:32:56Z</time>
      </trkpt>
      <trkpt lat="45.39589" lon="5.59808">
        <ele>631</ele>
        <time>2023-02-16T08:32:57Z</time>
      </trkpt>
      <trkpt lat="45.39589" lon="5.59811">
        <ele>631</ele>
        <time>2023-02-16T08:32:58Z</time>
      </trkpt>
      <trkpt lat="45.3959" lon="5.59814">
        <ele>631</ele>
        <time>2023-02-16T08:32:59Z</time>
      </trkpt>
      <trkpt lat="45.3959" lon="5.59817">
        <ele>631</ele>
        <time>2023-02-16T08:33:00Z</time>
      </trkpt>
      <trkpt lat="45.3959" lon="5.5982">
        <ele>631</ele>
        <time>2023-02-16T08:33:01Z</time>
      </trkpt>
      <trkpt lat="45.39591" lon="5.59823">
        <ele>631</ele>
        <time>2023-02-16T08:33:02Z</time>
      </trkpt>
      <trkpt lat="45.39592" lon="5.59827">
        <ele>632</ele>
        <time>2023-02-16T08:33:03Z</time>
      </trkpt>
      <trkpt lat="45.39594" lon="5.5983">
        <ele>632</ele>
        <time>2023-02-16T08:33:04Z</time>
      </trkpt>
      <trkpt lat="45.39595" lon="5.59834">
        <ele>632</ele>
        <time>2023-02-16T08:33:05Z</time>
      </trkpt>
      <trkpt lat="45.39595" lon="5.59838">
        <ele>632</ele>
        <time>2023-02-16T08:33:06Z</time>
      </trkpt>
      <trkpt lat="45.39596" lon="5.59841">
        <ele>632</ele>
        <time>2023-02-16T08:33:07Z</time>
      </trkpt>
      <trkpt lat="45.39597" lon="5.59844">
        <ele>632</ele>
        <time>2023-02-16T08:33:08Z</time>
      </trkpt>
      <trkpt lat="45.39598" lon="5.59847">
        <ele>632</ele>
        <time>2023-02-16T08:33:09Z</time>
      </trkpt>
      <trkpt lat="45.39599" lon="5.59851">
        <ele>632</ele>
        <time>2023-02-16T08:33:10Z</time>
      </trkpt>
      <trkpt lat="45.396" lon="5.59854">
        <ele>633</ele>
        <time>2023-02-16T08:33:11Z</time>
      </trkpt>
      <trkpt lat="45.39599" lon="5.59858">
        <ele>633</ele>
        <time>2023-02-16T08:33:12Z</time>
      </trkpt>
      <trkpt lat="45.39599" lon="5.59861">
        <ele>634</ele>
        <time>2023-02-16T08:33:13Z</time>
      </trkpt>
      <trkpt lat="45.39598" lon="5.59863">
        <ele>634</ele>
        <time>2023-02-16T08:33:14Z</time>
      </trkpt>
      <trkpt lat="45.39598" lon="5.59866">
        <ele>634</ele>
        <time>2023-02-16T08:33:15Z</time>
      </trkpt>
      <trkpt lat="45.39597" lon="5.59868">
        <ele>634</ele>
        <time>2023-02-16T08:33:16Z</time>
      </trkpt>
      <trkpt lat="45.39597" lon="5.59873">
        <ele>635</ele>
        <time>2023-02-16T08:33:18Z</time>
      </trkpt>
      <trkpt lat="45.39596" lon="5.59876">
        <ele>635</ele>
        <time>2023-02-16T08:33:19Z</time>
      </trkpt>
      <trkpt lat="45.39596" lon="5.59881">
        <ele>635</ele>
        <time>2023-02-16T08:33:21Z</time>
      </trkpt>
      <trkpt lat="45.39595" lon="5.59884">
        <ele>635</ele>
        <time>2023-02-16T08:33:22Z</time>
      </trkpt>
      <trkpt lat="45.39594" lon="5.59888">
        <ele>636</ele>
        <time>2023-02-16T08:33:24Z</time>
      </trkpt>
      <trkpt lat="45.39593" lon="5.59892">
        <ele>637</ele>
        <time>2023-02-16T08:33:26Z</time>
      </trkpt>
      <trkpt lat="45.39592" lon="5.59897">
        <ele>638</ele>
        <time>2023-02-16T08:33:28Z</time>
      </trkpt>
      <trkpt lat="45.39591" lon="5.599">
        <ele>638</ele>
        <time>2023-02-16T08:33:29Z</time>
      </trkpt>
      <trkpt lat="45.3959" lon="5.59902">
        <ele>638</ele>
        <time>2023-02-16T08:33:30Z</time>
      </trkpt>
      <trkpt lat="45.39588" lon="5.59906">
        <ele>638</ele>
        <time>2023-02-16T08:33:32Z</time>
      </trkpt>
      <trkpt lat="45.39586" lon="5.59909">
        <ele>638</ele>
        <time>2023-02-16T08:33:34Z</time>
      </trkpt>
      <trkpt lat="45.39585" lon="5.59912">
        <ele>639</ele>
        <time>2023-02-16T08:33:35Z</time>
      </trkpt>
      <trkpt lat="45.39584" lon="5.59914">
        <ele>639</ele>
        <time>2023-02-16T08:33:36Z</time>
      </trkpt>
      <trkpt lat="45.39583" lon="5.59917">
        <ele>639</ele>
        <time>2023-02-16T08:33:37Z</time>
      </trkpt>
      <trkpt lat="45.39582" lon="5.59919">
        <ele>639</ele>
        <time>2023-02-16T08:33:38Z</time>
      </trkpt>
      <trkpt lat="45.39581" lon="5.59922">
        <ele>639</ele>
        <time>2023-02-16T08:33:39Z</time>
      </trkpt>
      <trkpt lat="45.3958" lon="5.59926">
        <ele>640</ele>
        <time>2023-02-16T08:33:41Z</time>
      </trkpt>
      <trkpt lat="45.39578" lon="5.59929">
        <ele>641</ele>
        <time>2023-02-16T08:33:43Z</time>
      </trkpt>
      <trkpt lat="45.39576" lon="5.59933">
        <ele>641</ele>
        <time>2023-02-16T08:33:45Z</time>
      </trkpt>
      <trkpt lat="45.39574" lon="5.59937">
        <ele>642</ele>
        <time>2023-02-16T08:33:47Z</time>
      </trkpt>
      <trkpt lat="45.39572" lon="5.59939">
        <ele>642</ele>
        <time>2023-02-16T08:33:48Z</time>
      </trkpt>
      <trkpt lat="45.39571" lon="5.59941">
        <ele>643</ele>
        <time>2023-02-16T08:33:49Z</time>
      </trkpt>
      <trkpt lat="45.3957" lon="5.59944">
        <ele>643</ele>
        <time>2023-02-16T08:33:50Z</time>
      </trkpt>
      <trkpt lat="45.39569" lon="5.59946">
        <ele>643</ele>
        <time>2023-02-16T08:33:51Z</time>
      </trkpt>
      <trkpt lat="45.39568" lon="5.59948">
        <ele>643</ele>
        <time>2023-02-16T08:33:52Z</time>
      </trkpt>
      <trkpt lat="45.39567" lon="5.59951">
        <ele>643</ele>
        <time>2023-02-16T08:33:53Z</time>
      </trkpt>
      <trkpt lat="45.39566" lon="5.59953">
        <ele>643</ele>
        <time>2023-02-16T08:33:54Z</time>
      </trkpt>
      <trkpt lat="45.39564" lon="5.59956">
        <ele>643</ele>
        <time>2023-02-16T08:33:55Z</time>
      </trkpt>
      <trkpt lat="45.39562" lon="5.5996">
        <ele>643</ele>
        <time>2023-02-16T08:33:56Z</time>
      </trkpt>
      <trkpt lat="45.39561" lon="5.59963">
        <ele>643</ele>
        <time>2023-02-16T08:33:57Z</time>
      </trkpt>
      <trkpt lat="45.39559" lon="5.59965">
        <ele>643</ele>
        <time>2023-02-16T08:33:58Z</time>
      </trkpt>
      <trkpt lat="45.39558" lon="5.59968">
        <ele>644</ele>
        <time>2023-02-16T08:33:59Z</time>
      </trkpt>
      <trkpt lat="45.39556" lon="5.59971">
        <ele>644</ele>
        <time>2023-02-16T08:34:00Z</time>
      </trkpt>
      <trkpt lat="45.39554" lon="5.59974">
        <ele>644</ele>
        <time>2023-02-16T08:34:01Z</time>
      </trkpt>
      <trkpt lat="45.39553" lon="5.59977">
        <ele>644</ele>
        <time>2023-02-16T08:34:02Z</time>
      </trkpt>
      <trkpt lat="45.39552" lon="5.59979">
        <ele>644</ele>
        <time>2023-02-16T08:34:03Z</time>
      </trkpt>
      <trkpt lat="45.39551" lon="5.59982">
        <ele>645</ele>
        <time>2023-02-16T08:34:04Z</time>
      </trkpt>
      <trkpt lat="45.3955" lon="5.59984">
        <ele>646</ele>
        <time>2023-02-16T08:34:05Z</time>
      </trkpt>
      <trkpt lat="45.39549" lon="5.59987">
        <ele>646</ele>
        <time>2023-02-16T08:34:06Z</time>
      </trkpt>
      <trkpt lat="45.39548" lon="5.59989">
        <ele>646</ele>
        <time>2023-02-16T08:34:07Z</time>
      </trkpt>
      <trkpt lat="45.39547" lon="5.59992">
        <ele>646</ele>
        <time>2023-02-16T08:34:08Z</time>
      </trkpt>
      <trkpt lat="45.39545" lon="5.59994">
        <ele>646</ele>
        <time>2023-02-16T08:34:09Z</time>
      </trkpt>
      <trkpt lat="45.39544" lon="5.59996">
        <ele>646</ele>
        <time>2023-02-16T08:34:10Z</time>
      </trkpt>
      <trkpt lat="45.39543" lon="5.59998">
        <ele>646</ele>
        <time>2023-02-16T08:34:11Z</time>
      </trkpt>
      <trkpt lat="45.39542" lon="5.60002">
        <ele>647</ele>
        <time>2023-02-16T08:34:13Z</time>
      </trkpt>
      <trkpt lat="45.39541" lon="5.60004">
        <ele>647</ele>
        <time>2023-02-16T08:34:14Z</time>
      </trkpt>
      <trkpt lat="45.39539" lon="5.60008">
        <ele>647</ele>
        <time>2023-02-16T08:34:16Z</time>
      </trkpt>
      <trkpt lat="45.39536" lon="5.60012">
        <ele>647</ele>
        <time>2023-02-16T08:34:18Z</time>
      </trkpt>
      <trkpt lat="45.39535" lon="5.60016">
        <ele>649</ele>
        <time>2023-02-16T08:34:20Z</time>
      </trkpt>
      <trkpt lat="45.39533" lon="5.60019">
        <ele>649</ele>
        <time>2023-02-16T08:34:21Z</time>
      </trkpt>
      <trkpt lat="45.39532" lon="5.60021">
        <ele>649</ele>
        <time>2023-02-16T08:34:22Z</time>
      </trkpt>
      <trkpt lat="45.39531" lon="5.60025">
        <ele>649</ele>
        <time>2023-02-16T08:34:24Z</time>
      </trkpt>
      <trkpt lat="45.3953" lon="5.60028">
        <ele>649</ele>
        <time>2023-02-16T08:34:25Z</time>
      </trkpt>
      <trkpt lat="45.39529" lon="5.6003">
        <ele>649</ele>
        <time>2023-02-16T08:34:26Z</time>
      </trkpt>
      <trkpt lat="45.39527" lon="5.60034">
        <ele>650</ele>
        <time>2023-02-16T08:34:28Z</time>
      </trkpt>
      <trkpt lat="45.39525" lon="5.60038">
        <ele>650</ele>
        <time>2023-02-16T08:34:30Z</time>
      </trkpt>
      <trkpt lat="45.39524" lon="5.60041">
        <ele>651</ele>
        <time>2023-02-16T08:34:32Z</time>
      </trkpt>
      <trkpt lat="45.39522" lon="5.60044">
        <ele>651</ele>
        <time>2023-02-16T08:34:34Z</time>
      </trkpt>
      <trkpt lat="45.3952" lon="5.60046">
        <ele>652</ele>
        <time>2023-02-16T08:34:35Z</time>
      </trkpt>
      <trkpt lat="45.39518" lon="5.60049">
        <ele>653</ele>
        <time>2023-02-16T08:34:37Z</time>
      </trkpt>
      <trkpt lat="45.39516" lon="5.60052">
        <ele>653</ele>
        <time>2023-02-16T08:34:39Z</time>
      </trkpt>
      <trkpt lat="45.39514" lon="5.60053">
        <ele>654</ele>
        <time>2023-02-16T08:34:40Z</time>
      </trkpt>
      <trkpt lat="45.39511" lon="5.60055">
        <ele>654</ele>
        <time>2023-02-16T08:34:42Z</time>
      </trkpt>
      <trkpt lat="45.39508" lon="5.60056">
        <ele>654</ele>
        <time>2023-02-16T08:34:43Z</time>
      </trkpt>
      <trkpt lat="45.39505" lon="5.60056">
        <ele>654</ele>
        <time>2023-02-16T08:34:44Z</time>
      </trkpt>
      <trkpt lat="45.39502" lon="5.60057">
        <ele>654</ele>
        <time>2023-02-16T08:34:45Z</time>
      </trkpt>
      <trkpt lat="45.395" lon="5.60058">
        <ele>654</ele>
        <time>2023-02-16T08:34:46Z</time>
      </trkpt>
      <trkpt lat="45.39498" lon="5.60058">
        <ele>654</ele>
        <time>2023-02-16T08:34:47Z</time>
      </trkpt>
      <trkpt lat="45.39496" lon="5.60059">
        <ele>654</ele>
        <time>2023-02-16T08:34:48Z</time>
      </trkpt>
      <trkpt lat="45.39493" lon="5.6006">
        <ele>654</ele>
        <time>2023-02-16T08:34:49Z</time>
      </trkpt>
      <trkpt lat="45.39491" lon="5.60061">
        <ele>654</ele>
        <time>2023-02-16T08:34:50Z</time>
      </trkpt>
      <trkpt lat="45.39488" lon="5.60062">
        <ele>654</ele>
        <time>2023-02-16T08:34:51Z</time>
      </trkpt>
      <trkpt lat="45.39485" lon="5.60063">
        <ele>654</ele>
        <time>2023-02-16T08:34:52Z</time>
      </trkpt>
      <trkpt lat="45.39483" lon="5.60064">
        <ele>654</ele>
        <time>2023-02-16T08:34:53Z</time>
      </trkpt>
      <trkpt lat="45.3948" lon="5.60065">
        <ele>654</ele>
        <time>2023-02-16T08:34:54Z</time>
      </trkpt>
      <trkpt lat="45.39478" lon="5.60065">
        <ele>654</ele>
        <time>2023-02-16T08:34:55Z</time>
      </trkpt>
      <trkpt lat="45.39475" lon="5.60065">
        <ele>654</ele>
        <time>2023-02-16T08:34:56Z</time>
      </trkpt>
      <trkpt lat="45.39472" lon="5.60064">
        <ele>654</ele>
        <time>2023-02-16T08:34:57Z</time>
      </trkpt>
      <trkpt lat="45.39469" lon="5.60064">
        <ele>655</ele>
        <time>2023-02-16T08:34:58Z</time>
      </trkpt>
      <trkpt lat="45.39466" lon="5.60064">
        <ele>655</ele>
        <time>2023-02-16T08:34:59Z</time>
      </trkpt>
      <trkpt lat="45.39463" lon="5.60064">
        <ele>655</ele>
        <time>2023-02-16T08:35:00Z</time>
      </trkpt>
      <trkpt lat="45.39461" lon="5.60063">
        <ele>655</ele>
        <time>2023-02-16T08:35:01Z</time>
      </trkpt>
      <trkpt lat="45.39458" lon="5.60063">
        <ele>656</ele>
        <time>2023-02-16T08:35:02Z</time>
      </trkpt>
      <trkpt lat="45.39455" lon="5.60063">
        <ele>656</ele>
        <time>2023-02-16T08:35:03Z</time>
      </trkpt>
      <trkpt lat="45.39452" lon="5.60062">
        <ele>656</ele>
        <time>2023-02-16T08:35:04Z</time>
      </trkpt>
      <trkpt lat="45.39449" lon="5.60062">
        <ele>656</ele>
        <time>2023-02-16T08:35:05Z</time>
      </trkpt>
      <trkpt lat="45.39447" lon="5.60061">
        <ele>656</ele>
        <time>2023-02-16T08:35:06Z</time>
      </trkpt>
      <trkpt lat="45.39444" lon="5.60061">
        <ele>656</ele>
        <time>2023-02-16T08:35:07Z</time>
      </trkpt>
      <trkpt lat="45.39441" lon="5.6006">
        <ele>656</ele>
        <time>2023-02-16T08:35:10Z</time>
      </trkpt>
      <trkpt lat="45.39438" lon="5.60059">
        <ele>657</ele>
        <time>2023-02-16T08:35:11Z</time>
      </trkpt>
      <trkpt lat="45.39436" lon="5.60058">
        <ele>657</ele>
        <time>2023-02-16T08:35:12Z</time>
      </trkpt>
      <trkpt lat="45.39434" lon="5.60058">
        <ele>657</ele>
        <time>2023-02-16T08:35:13Z</time>
      </trkpt>
      <trkpt lat="45.39432" lon="5.60058">
        <ele>657</ele>
        <time>2023-02-16T08:35:14Z</time>
      </trkpt>
      <trkpt lat="45.3943" lon="5.60057">
        <ele>658</ele>
        <time>2023-02-16T08:35:15Z</time>
      </trkpt>
      <trkpt lat="45.39428" lon="5.60057">
        <ele>658</ele>
        <time>2023-02-16T08:35:16Z</time>
      </trkpt>
      <trkpt lat="45.39426" lon="5.60056">
        <ele>660</ele>
        <time>2023-02-16T08:35:17Z</time>
      </trkpt>
      <trkpt lat="45.39424" lon="5.60056">
        <ele>660</ele>
        <time>2023-02-16T08:35:18Z</time>
      </trkpt>
      <trkpt lat="45.39422" lon="5.60056">
        <ele>660</ele>
        <time>2023-02-16T08:35:19Z</time>
      </trkpt>
      <trkpt lat="45.3942" lon="5.60057">
        <ele>660</ele>
        <time>2023-02-16T08:35:20Z</time>
      </trkpt>
      <trkpt lat="45.39418" lon="5.60057">
        <ele>660</ele>
        <time>2023-02-16T08:35:21Z</time>
      </trkpt>
      <trkpt lat="45.39417" lon="5.60058">
        <ele>660</ele>
        <time>2023-02-16T08:35:22Z</time>
      </trkpt>
      <trkpt lat="45.39414" lon="5.6006">
        <ele>660</ele>
        <time>2023-02-16T08:35:23Z</time>
      </trkpt>
      <trkpt lat="45.39412" lon="5.60062">
        <ele>660</ele>
        <time>2023-02-16T08:35:24Z</time>
      </trkpt>
      <trkpt lat="45.3941" lon="5.60064">
        <ele>661</ele>
        <time>2023-02-16T08:35:25Z</time>
      </trkpt>
      <trkpt lat="45.39408" lon="5.60065">
        <ele>661</ele>
        <time>2023-02-16T08:35:26Z</time>
      </trkpt>
      <trkpt lat="45.39406" lon="5.60067">
        <ele>661</ele>
        <time>2023-02-16T08:35:27Z</time>
      </trkpt>
      <trkpt lat="45.39405" lon="5.60069">
        <ele>661</ele>
        <time>2023-02-16T08:35:28Z</time>
      </trkpt>
      <trkpt lat="45.39403" lon="5.60071">
        <ele>661</ele>
        <time>2023-02-16T08:35:29Z</time>
      </trkpt>
      <trkpt lat="45.39401" lon="5.60072">
        <ele>661</ele>
        <time>2023-02-16T08:35:30Z</time>
      </trkpt>
      <trkpt lat="45.394" lon="5.60074">
        <ele>662</ele>
        <time>2023-02-16T08:35:31Z</time>
      </trkpt>
      <trkpt lat="45.39398" lon="5.60076">
        <ele>662</ele>
        <time>2023-02-16T08:35:32Z</time>
      </trkpt>
      <trkpt lat="45.39396" lon="5.6008">
        <ele>663</ele>
        <time>2023-02-16T08:35:34Z</time>
      </trkpt>
      <trkpt lat="45.39394" lon="5.60082">
        <ele>663</ele>
        <time>2023-02-16T08:35:35Z</time>
      </trkpt>
      <trkpt lat="45.39391" lon="5.60084">
        <ele>664</ele>
        <time>2023-02-16T08:35:37Z</time>
      </trkpt>
      <trkpt lat="45.3939" lon="5.60086">
        <ele>664</ele>
        <time>2023-02-16T08:35:38Z</time>
      </trkpt>
      <trkpt lat="45.39388" lon="5.60087">
        <ele>664</ele>
        <time>2023-02-16T08:35:39Z</time>
      </trkpt>
      <trkpt lat="45.39386" lon="5.60089">
        <ele>664</ele>
        <time>2023-02-16T08:35:40Z</time>
      </trkpt>
      <trkpt lat="45.39385" lon="5.60091">
        <ele>664</ele>
        <time>2023-02-16T08:35:41Z</time>
      </trkpt>
      <trkpt lat="45.39384" lon="5.60093">
        <ele>665</ele>
        <time>2023-02-16T08:35:42Z</time>
      </trkpt>
      <trkpt lat="45.39382" lon="5.60096">
        <ele>665</ele>
        <time>2023-02-16T08:35:43Z</time>
      </trkpt>
      <trkpt lat="45.39381" lon="5.60098">
        <ele>665</ele>
        <time>2023-02-16T08:35:44Z</time>
      </trkpt>
      <trkpt lat="45.39379" lon="5.601">
        <ele>665</ele>
        <time>2023-02-16T08:35:45Z</time>
      </trkpt>
      <trkpt lat="45.39377" lon="5.60102">
        <ele>665</ele>
        <time>2023-02-16T08:35:46Z</time>
      </trkpt>
      <trkpt lat="45.39375" lon="5.60104">
        <ele>665</ele>
        <time>2023-02-16T08:35:47Z</time>
      </trkpt>
      <trkpt lat="45.39373" lon="5.60107">
        <ele>665</ele>
        <time>2023-02-16T08:35:48Z</time>
      </trkpt>
      <trkpt lat="45.39372" lon="5.60109">
        <ele>665</ele>
        <time>2023-02-16T08:35:49Z</time>
      </trkpt>
      <trkpt lat="45.39371" lon="5.60111">
        <ele>665</ele>
        <time>2023-02-16T08:35:50Z</time>
      </trkpt>
      <trkpt lat="45.39369" lon="5.60113">
        <ele>666</ele>
        <time>2023-02-16T08:35:51Z</time>
      </trkpt>
      <trkpt lat="45.39368" lon="5.60116">
        <ele>666</ele>
        <time>2023-02-16T08:35:52Z</time>
      </trkpt>
      <trkpt lat="45.39367" lon="5.60118">
        <ele>666</ele>
        <time>2023-02-16T08:35:53Z</time>
      </trkpt>
      <trkpt lat="45.39366" lon="5.60121">
        <ele>666</ele>
        <time>2023-02-16T08:35:54Z</time>
      </trkpt>
      <trkpt lat="45.39365" lon="5.60123">
        <ele>667</ele>
        <time>2023-02-16T08:35:55Z</time>
      </trkpt>
      <trkpt lat="45.39363" lon="5.60126">
        <ele>667</ele>
        <time>2023-02-16T08:35:56Z</time>
      </trkpt>
      <trkpt lat="45.39362" lon="5.60127">
        <ele>667</ele>
        <time>2023-02-16T08:35:57Z</time>
      </trkpt>
      <trkpt lat="45.3936" lon="5.60129">
        <ele>667</ele>
        <time>2023-02-16T08:35:58Z</time>
      </trkpt>
      <trkpt lat="45.39358" lon="5.6013">
        <ele>668</ele>
        <time>2023-02-16T08:35:59Z</time>
      </trkpt>
      <trkpt lat="45.39356" lon="5.60131">
        <ele>668</ele>
        <time>2023-02-16T08:36:00Z</time>
      </trkpt>
      <trkpt lat="45.39354" lon="5.60132">
        <ele>669</ele>
        <time>2023-02-16T08:36:01Z</time>
      </trkpt>
      <trkpt lat="45.39351" lon="5.60133">
        <ele>669</ele>
        <time>2023-02-16T08:36:02Z</time>
      </trkpt>
      <trkpt lat="45.39349" lon="5.60134">
        <ele>669</ele>
        <time>2023-02-16T08:36:03Z</time>
      </trkpt>
      <trkpt lat="45.39346" lon="5.60136">
        <ele>669</ele>
        <time>2023-02-16T08:36:04Z</time>
      </trkpt>
      <trkpt lat="45.39342" lon="5.60137">
        <ele>669</ele>
        <time>2023-02-16T08:36:05Z</time>
      </trkpt>
      <trkpt lat="45.39338" lon="5.60138">
        <ele>669</ele>
        <time>2023-02-16T08:36:06Z</time>
      </trkpt>
      <trkpt lat="45.39333" lon="5.6014">
        <ele>668</ele>
        <time>2023-02-16T08:36:07Z</time>
      </trkpt>
      <trkpt lat="45.39328" lon="5.60143">
        <ele>668</ele>
        <time>2023-02-16T08:36:08Z</time>
      </trkpt>
      <trkpt lat="45.39324" lon="5.60146">
        <ele>668</ele>
        <time>2023-02-16T08:36:09Z</time>
      </trkpt>
      <trkpt lat="45.3932" lon="5.60149">
        <ele>668</ele>
        <time>2023-02-16T08:36:10Z</time>
      </trkpt>
      <trkpt lat="45.39316" lon="5.60151">
        <ele>668</ele>
        <time>2023-02-16T08:36:11Z</time>
      </trkpt>
      <trkpt lat="45.39313" lon="5.60153">
        <ele>668</ele>
        <time>2023-02-16T08:36:12Z</time>
      </trkpt>
      <trkpt lat="45.3931" lon="5.60155">
        <ele>669</ele>
        <time>2023-02-16T08:36:13Z</time>
      </trkpt>
      <trkpt lat="45.39306" lon="5.60157">
        <ele>669</ele>
        <time>2023-02-16T08:36:14Z</time>
      </trkpt>
      <trkpt lat="45.39303" lon="5.60159">
        <ele>669</ele>
        <time>2023-02-16T08:36:15Z</time>
      </trkpt>
      <trkpt lat="45.393" lon="5.6016">
        <ele>669</ele>
        <time>2023-02-16T08:36:16Z</time>
      </trkpt>
      <trkpt lat="45.39297" lon="5.60162">
        <ele>669</ele>
        <time>2023-02-16T08:36:17Z</time>
      </trkpt>
      <trkpt lat="45.39294" lon="5.60164">
        <ele>669</ele>
        <time>2023-02-16T08:36:18Z</time>
      </trkpt>
      <trkpt lat="45.3929" lon="5.60167">
        <ele>670</ele>
        <time>2023-02-16T08:36:19Z</time>
      </trkpt>
      <trkpt lat="45.39286" lon="5.60169">
        <ele>670</ele>
        <time>2023-02-16T08:36:20Z</time>
      </trkpt>
      <trkpt lat="45.39283" lon="5.60171">
        <ele>670</ele>
        <time>2023-02-16T08:36:21Z</time>
      </trkpt>
      <trkpt lat="45.39279" lon="5.60174">
        <ele>670</ele>
        <time>2023-02-16T08:36:22Z</time>
      </trkpt>
      <trkpt lat="45.39276" lon="5.60176">
        <ele>670</ele>
        <time>2023-02-16T08:36:23Z</time>
      </trkpt>
      <trkpt lat="45.39273" lon="5.60178">
        <ele>671</ele>
        <time>2023-02-16T08:36:24Z</time>
      </trkpt>
      <trkpt lat="45.3927" lon="5.6018">
        <ele>671</ele>
        <time>2023-02-16T08:36:25Z</time>
      </trkpt>
      <trkpt lat="45.39267" lon="5.60182">
        <ele>671</ele>
        <time>2023-02-16T08:36:26Z</time>
      </trkpt>
      <trkpt lat="45.39264" lon="5.60184">
        <ele>671</ele>
        <time>2023-02-16T08:36:27Z</time>
      </trkpt>
      <trkpt lat="45.39263" lon="5.60185">
        <ele>671</ele>
        <time>2023-02-16T08:36:28Z</time>
      </trkpt>
      <trkpt lat="45.39259" lon="5.60188">
        <ele>671</ele>
        <time>2023-02-16T08:36:30Z</time>
      </trkpt>
      <trkpt lat="45.39257" lon="5.60191">
        <ele>671</ele>
        <time>2023-02-16T08:36:32Z</time>
      </trkpt>
      <trkpt lat="45.39253" lon="5.60194">
        <ele>673</ele>
        <time>2023-02-16T08:36:34Z</time>
      </trkpt>
      <trkpt lat="45.39252" lon="5.60197">
        <ele>674</ele>
        <time>2023-02-16T08:36:35Z</time>
      </trkpt>
      <trkpt lat="45.3925" lon="5.602">
        <ele>674</ele>
        <time>2023-02-16T08:36:36Z</time>
      </trkpt>
      <trkpt lat="45.39248" lon="5.60202">
        <ele>674</ele>
        <time>2023-02-16T08:36:37Z</time>
      </trkpt>
      <trkpt lat="45.39246" lon="5.60204">
        <ele>674</ele>
        <time>2023-02-16T08:36:38Z</time>
      </trkpt>
      <trkpt lat="45.39244" lon="5.60206">
        <ele>674</ele>
        <time>2023-02-16T08:36:39Z</time>
      </trkpt>
      <trkpt lat="45.39242" lon="5.60209">
        <ele>674</ele>
        <time>2023-02-16T08:36:40Z</time>
      </trkpt>
      <trkpt lat="45.3924" lon="5.60211">
        <ele>674</ele>
        <time>2023-02-16T08:36:41Z</time>
      </trkpt>
      <trkpt lat="45.39237" lon="5.60215">
        <ele>675</ele>
        <time>2023-02-16T08:36:42Z</time>
      </trkpt>
      <trkpt lat="45.39235" lon="5.60218">
        <ele>675</ele>
        <time>2023-02-16T08:36:43Z</time>
      </trkpt>
      <trkpt lat="45.39233" lon="5.60222">
        <ele>675</ele>
        <time>2023-02-16T08:36:44Z</time>
      </trkpt>
      <trkpt lat="45.39231" lon="5.60226">
        <ele>675</ele>
        <time>2023-02-16T08:36:45Z</time>
      </trkpt>
      <trkpt lat="45.39228" lon="5.6023">
        <ele>675</ele>
        <time>2023-02-16T08:36:46Z</time>
      </trkpt>
      <trkpt lat="45.39225" lon="5.60233">
        <ele>675</ele>
        <time>2023-02-16T08:36:47Z</time>
      </trkpt>
      <trkpt lat="45.39223" lon="5.60236">
        <ele>675</ele>
        <time>2023-02-16T08:36:48Z</time>
      </trkpt>
      <trkpt lat="45.39221" lon="5.60239">
        <ele>675</ele>
        <time>2023-02-16T08:36:49Z</time>
      </trkpt>
      <trkpt lat="45.39219" lon="5.60242">
        <ele>675</ele>
        <time>2023-02-16T08:36:50Z</time>
      </trkpt>
      <trkpt lat="45.39217" lon="5.60245">
        <ele>675</ele>
        <time>2023-02-16T08:36:51Z</time>
      </trkpt>
      <trkpt lat="45.39215" lon="5.60246">
        <ele>675</ele>
        <time>2023-02-16T08:36:52Z</time>
      </trkpt>
      <trkpt lat="45.39214" lon="5.60248">
        <ele>675</ele>
        <time>2023-02-16T08:36:53Z</time>
      </trkpt>
      <trkpt lat="45.39211" lon="5.60251">
        <ele>675</ele>
        <time>2023-02-16T08:36:55Z</time>
      </trkpt>
      <trkpt lat="45.39209" lon="5.60253">
        <ele>676</ele>
        <time>2023-02-16T08:36:57Z</time>
      </trkpt>
      <trkpt lat="45.39206" lon="5.60254">
        <ele>676</ele>
        <time>2023-02-16T08:36:59Z</time>
      </trkpt>
      <trkpt lat="45.39203" lon="5.60256">
        <ele>676</ele>
        <time>2023-02-16T08:37:01Z</time>
      </trkpt>
      <trkpt lat="45.392" lon="5.60257">
        <ele>676</ele>
        <time>2023-02-16T08:37:03Z</time>
      </trkpt>
      <trkpt lat="45.39198" lon="5.60259">
        <ele>676</ele>
        <time>2023-02-16T08:37:05Z</time>
      </trkpt>
      <trkpt lat="45.39196" lon="5.60261">
        <ele>676</ele>
        <time>2023-02-16T08:37:07Z</time>
      </trkpt>
      <trkpt lat="45.39193" lon="5.60262">
        <ele>680</ele>
        <time>2023-02-16T08:37:09Z</time>
      </trkpt>
      <trkpt lat="45.39191" lon="5.60262">
        <ele>682</ele>
        <time>2023-02-16T08:37:11Z</time>
      </trkpt>
      <trkpt lat="45.39189" lon="5.60263">
        <ele>682</ele>
        <time>2023-02-16T08:37:13Z</time>
      </trkpt>
      <trkpt lat="45.39186" lon="5.60263">
        <ele>682</ele>
        <time>2023-02-16T08:37:15Z</time>
      </trkpt>
      <trkpt lat="45.39184" lon="5.60264">
        <ele>684</ele>
        <time>2023-02-16T08:37:18Z</time>
      </trkpt>
      <trkpt lat="45.39182" lon="5.60265">
        <ele>684</ele>
        <time>2023-02-16T08:37:20Z</time>
      </trkpt>
      <trkpt lat="45.3918" lon="5.60265">
        <ele>685</ele>
        <time>2023-02-16T08:37:23Z</time>
      </trkpt>
      <trkpt lat="45.39178" lon="5.60266">
        <ele>685</ele>
        <time>2023-02-16T08:37:26Z</time>
      </trkpt>
      <trkpt lat="45.39176" lon="5.60266">
        <ele>686</ele>
        <time>2023-02-16T08:37:29Z</time>
      </trkpt>
      <trkpt lat="45.39174" lon="5.60267">
        <ele>687</ele>
        <time>2023-02-16T08:37:32Z</time>
      </trkpt>
      <trkpt lat="45.39172" lon="5.60269">
        <ele>688</ele>
        <time>2023-02-16T08:37:35Z</time>
      </trkpt>
      <trkpt lat="45.39171" lon="5.60271">
        <ele>688</ele>
        <time>2023-02-16T08:37:37Z</time>
      </trkpt>
      <trkpt lat="45.39169" lon="5.60272">
        <ele>689</ele>
        <time>2023-02-16T08:37:39Z</time>
      </trkpt>
      <trkpt lat="45.39167" lon="5.60275">
        <ele>691</ele>
        <time>2023-02-16T08:37:42Z</time>
      </trkpt>
      <trkpt lat="45.39165" lon="5.60277">
        <ele>691</ele>
        <time>2023-02-16T08:37:44Z</time>
      </trkpt>
      <trkpt lat="45.39164" lon="5.60279">
        <ele>691</ele>
        <time>2023-02-16T08:37:46Z</time>
      </trkpt>
      <trkpt lat="45.39162" lon="5.60281">
        <ele>691</ele>
        <time>2023-02-16T08:37:48Z</time>
      </trkpt>
      <trkpt lat="45.39161" lon="5.60284">
        <ele>692</ele>
        <time>2023-02-16T08:37:50Z</time>
      </trkpt>
      <trkpt lat="45.3916" lon="5.60287">
        <ele>692</ele>
        <time>2023-02-16T08:37:52Z</time>
      </trkpt>
      <trkpt lat="45.39158" lon="5.60289">
        <ele>692</ele>
        <time>2023-02-16T08:37:54Z</time>
      </trkpt>
      <trkpt lat="45.39158" lon="5.6029">
        <ele>693</ele>
        <time>2023-02-16T08:38:01Z</time>
      </trkpt>
      <trkpt lat="45.39153" lon="5.60297">
        <ele>693</ele>
        <time>2023-02-16T08:38:24Z</time>
      </trkpt>
      <trkpt lat="45.39152" lon="5.60298">
        <ele>693</ele>
        <time>2023-02-16T08:38:25Z</time>
      </trkpt>
      <trkpt lat="45.3915" lon="5.60302">
        <ele>693</ele>
        <time>2023-02-16T08:38:27Z</time>
      </trkpt>
      <trkpt lat="45.39149" lon="5.60306">
        <ele>693</ele>
        <time>2023-02-16T08:38:29Z</time>
      </trkpt>
      <trkpt lat="45.39147" lon="5.60311">
        <ele>693</ele>
        <time>2023-02-16T08:38:31Z</time>
      </trkpt>
      <trkpt lat="45.39146" lon="5.60313">
        <ele>694</ele>
        <time>2023-02-16T08:38:32Z</time>
      </trkpt>
      <trkpt lat="45.39144" lon="5.60317">
        <ele>694</ele>
        <time>2023-02-16T08:38:34Z</time>
      </trkpt>
      <trkpt lat="45.39143" lon="5.60319">
        <ele>694</ele>
        <time>2023-02-16T08:38:35Z</time>
      </trkpt>
      <trkpt lat="45.39141" lon="5.60321">
        <ele>694</ele>
        <time>2023-02-16T08:38:36Z</time>
      </trkpt>
      <trkpt lat="45.39139" lon="5.60323">
        <ele>694</ele>
        <time>2023-02-16T08:38:37Z</time>
      </trkpt>
      <trkpt lat="45.39138" lon="5.60325">
        <ele>694</ele>
        <time>2023-02-16T08:38:38Z</time>
      </trkpt>
      <trkpt lat="45.39136" lon="5.60327">
        <ele>695</ele>
        <time>2023-02-16T08:38:39Z</time>
      </trkpt>
      <trkpt lat="45.39134" lon="5.60329">
        <ele>695</ele>
        <time>2023-02-16T08:38:40Z</time>
      </trkpt>
      <trkpt lat="45.39132" lon="5.60332">
        <ele>695</ele>
        <time>2023-02-16T08:38:41Z</time>
      </trkpt>
      <trkpt lat="45.39131" lon="5.60335">
        <ele>695</ele>
        <time>2023-02-16T08:38:42Z</time>
      </trkpt>
      <trkpt lat="45.39129" lon="5.60338">
        <ele>695</ele>
        <time>2023-02-16T08:38:43Z</time>
      </trkpt>
      <trkpt lat="45.39128" lon="5.60341">
        <ele>695</ele>
        <time>2023-02-16T08:38:44Z</time>
      </trkpt>
      <trkpt lat="45.39125" lon="5.60346">
        <ele>695</ele>
        <time>2023-02-16T08:38:45Z</time>
      </trkpt>
      <trkpt lat="45.39123" lon="5.60349">
        <ele>695</ele>
        <time>2023-02-16T08:38:46Z</time>
      </trkpt>
      <trkpt lat="45.3912" lon="5.60353">
        <ele>695</ele>
        <time>2023-02-16T08:38:47Z</time>
      </trkpt>
      <trkpt lat="45.39118" lon="5.60356">
        <ele>695</ele>
        <time>2023-02-16T08:38:48Z</time>
      </trkpt>
      <trkpt lat="45.39115" lon="5.6036">
        <ele>695</ele>
        <time>2023-02-16T08:38:49Z</time>
      </trkpt>
      <trkpt lat="45.39113" lon="5.60364">
        <ele>695</ele>
        <time>2023-02-16T08:38:50Z</time>
      </trkpt>
      <trkpt lat="45.39111" lon="5.60368">
        <ele>695</ele>
        <time>2023-02-16T08:38:51Z</time>
      </trkpt>
      <trkpt lat="45.39107" lon="5.60371">
        <ele>695</ele>
        <time>2023-02-16T08:38:52Z</time>
      </trkpt>
      <trkpt lat="45.39104" lon="5.60375">
        <ele>695</ele>
        <time>2023-02-16T08:38:53Z</time>
      </trkpt>
      <trkpt lat="45.391" lon="5.60379">
        <ele>695</ele>
        <time>2023-02-16T08:38:54Z</time>
      </trkpt>
      <trkpt lat="45.39097" lon="5.60382">
        <ele>695</ele>
        <time>2023-02-16T08:38:55Z</time>
      </trkpt>
      <trkpt lat="45.39093" lon="5.60386">
        <ele>695</ele>
        <time>2023-02-16T08:38:56Z</time>
      </trkpt>
      <trkpt lat="45.39091" lon="5.60388">
        <ele>695</ele>
        <time>2023-02-16T08:38:57Z</time>
      </trkpt>
      <trkpt lat="45.39089" lon="5.60391">
        <ele>695</ele>
        <time>2023-02-16T08:38:58Z</time>
      </trkpt>
      <trkpt lat="45.39087" lon="5.60394">
        <ele>695</ele>
        <time>2023-02-16T08:38:59Z</time>
      </trkpt>
      <trkpt lat="45.39085" lon="5.60398">
        <ele>696</ele>
        <time>2023-02-16T08:39:00Z</time>
      </trkpt>
      <trkpt lat="45.39083" lon="5.60401">
        <ele>696</ele>
        <time>2023-02-16T08:39:01Z</time>
      </trkpt>
      <trkpt lat="45.39081" lon="5.60405">
        <ele>696</ele>
        <time>2023-02-16T08:39:02Z</time>
      </trkpt>
      <trkpt lat="45.3908" lon="5.60408">
        <ele>697</ele>
        <time>2023-02-16T08:39:03Z</time>
      </trkpt>
      <trkpt lat="45.39078" lon="5.60413">
        <ele>697</ele>
        <time>2023-02-16T08:39:04Z</time>
      </trkpt>
      <trkpt lat="45.39076" lon="5.60419">
        <ele>697</ele>
        <time>2023-02-16T08:39:05Z</time>
      </trkpt>
      <trkpt lat="45.39074" lon="5.60425">
        <ele>697</ele>
        <time>2023-02-16T08:39:06Z</time>
      </trkpt>
      <trkpt lat="45.39071" lon="5.60433">
        <ele>697</ele>
        <time>2023-02-16T08:39:07Z</time>
      </trkpt>
      <trkpt lat="45.39069" lon="5.60441">
        <ele>697</ele>
        <time>2023-02-16T08:39:08Z</time>
      </trkpt>
      <trkpt lat="45.39066" lon="5.6045">
        <ele>696</ele>
        <time>2023-02-16T08:39:09Z</time>
      </trkpt>
      <trkpt lat="45.39063" lon="5.60459">
        <ele>696</ele>
        <time>2023-02-16T08:39:10Z</time>
      </trkpt>
      <trkpt lat="45.39059" lon="5.60466">
        <ele>696</ele>
        <time>2023-02-16T08:39:11Z</time>
      </trkpt>
      <trkpt lat="45.39055" lon="5.60472">
        <ele>695</ele>
        <time>2023-02-16T08:39:12Z</time>
      </trkpt>
      <trkpt lat="45.39052" lon="5.60477">
        <ele>695</ele>
        <time>2023-02-16T08:39:13Z</time>
      </trkpt>
      <trkpt lat="45.39048" lon="5.60482">
        <ele>695</ele>
        <time>2023-02-16T08:39:14Z</time>
      </trkpt>
      <trkpt lat="45.39046" lon="5.60485">
        <ele>695</ele>
        <time>2023-02-16T08:39:15Z</time>
      </trkpt>
      <trkpt lat="45.39042" lon="5.60489">
        <ele>695</ele>
        <time>2023-02-16T08:39:16Z</time>
      </trkpt>
      <trkpt lat="45.39037" lon="5.60493">
        <ele>695</ele>
        <time>2023-02-16T08:39:17Z</time>
      </trkpt>
      <trkpt lat="45.39033" lon="5.60498">
        <ele>695</ele>
        <time>2023-02-16T08:39:18Z</time>
      </trkpt>
      <trkpt lat="45.39029" lon="5.60503">
        <ele>695</ele>
        <time>2023-02-16T08:39:19Z</time>
      </trkpt>
      <trkpt lat="45.39024" lon="5.6051">
        <ele>695</ele>
        <time>2023-02-16T08:39:20Z</time>
      </trkpt>
      <trkpt lat="45.3902" lon="5.60517">
        <ele>695</ele>
        <time>2023-02-16T08:39:21Z</time>
      </trkpt>
      <trkpt lat="45.39018" lon="5.60524">
        <ele>695</ele>
        <time>2023-02-16T08:39:22Z</time>
      </trkpt>
      <trkpt lat="45.39015" lon="5.60531">
        <ele>695</ele>
        <time>2023-02-16T08:39:23Z</time>
      </trkpt>
      <trkpt lat="45.39013" lon="5.60539">
        <ele>695</ele>
        <time>2023-02-16T08:39:24Z</time>
      </trkpt>
      <trkpt lat="45.39009" lon="5.60552">
        <ele>695</ele>
        <time>2023-02-16T08:39:26Z</time>
      </trkpt>
      <trkpt lat="45.39005" lon="5.60565">
        <ele>691</ele>
        <time>2023-02-16T08:39:29Z</time>
      </trkpt>
      <trkpt lat="45.38997" lon="5.60574">
        <ele>691</ele>
        <time>2023-02-16T08:39:31Z</time>
      </trkpt>
      <trkpt lat="45.38994" lon="5.60578">
        <ele>690</ele>
        <time>2023-02-16T08:39:32Z</time>
      </trkpt>
      <trkpt lat="45.38991" lon="5.60583">
        <ele>690</ele>
        <time>2023-02-16T08:39:33Z</time>
      </trkpt>
      <trkpt lat="45.38984" lon="5.606">
        <ele>690</ele>
        <time>2023-02-16T08:39:36Z</time>
      </trkpt>
      <trkpt lat="45.38981" lon="5.60606">
        <ele>690</ele>
        <time>2023-02-16T08:39:37Z</time>
      </trkpt>
      <trkpt lat="45.38978" lon="5.60611">
        <ele>690</ele>
        <time>2023-02-16T08:39:38Z</time>
      </trkpt>
      <trkpt lat="45.38976" lon="5.60616">
        <ele>690</ele>
        <time>2023-02-16T08:39:39Z</time>
      </trkpt>
      <trkpt lat="45.38974" lon="5.60621">
        <ele>690</ele>
        <time>2023-02-16T08:39:40Z</time>
      </trkpt>
      <trkpt lat="45.38971" lon="5.60625">
        <ele>691</ele>
        <time>2023-02-16T08:39:41Z</time>
      </trkpt>
      <trkpt lat="45.38968" lon="5.60632">
        <ele>691</ele>
        <time>2023-02-16T08:39:42Z</time>
      </trkpt>
      <trkpt lat="45.38965" lon="5.6064">
        <ele>691</ele>
        <time>2023-02-16T08:39:43Z</time>
      </trkpt>
      <trkpt lat="45.38962" lon="5.60649">
        <ele>690</ele>
        <time>2023-02-16T08:39:44Z</time>
      </trkpt>
      <trkpt lat="45.38953" lon="5.60666">
        <ele>690</ele>
        <time>2023-02-16T08:39:46Z</time>
      </trkpt>
      <trkpt lat="45.3894" lon="5.6068">
        <ele>685</ele>
        <time>2023-02-16T08:39:48Z</time>
      </trkpt>
      <trkpt lat="45.38931" lon="5.60682">
        <ele>685</ele>
        <time>2023-02-16T08:39:49Z</time>
      </trkpt>
      <trkpt lat="45.38916" lon="5.60681">
        <ele>683</ele>
        <time>2023-02-16T08:39:51Z</time>
      </trkpt>
      <trkpt lat="45.38909" lon="5.6068">
        <ele>683</ele>
        <time>2023-02-16T08:39:52Z</time>
      </trkpt>
      <trkpt lat="45.38904" lon="5.60679">
        <ele>682</ele>
        <time>2023-02-16T08:39:53Z</time>
      </trkpt>
      <trkpt lat="45.389" lon="5.60677">
        <ele>682</ele>
        <time>2023-02-16T08:39:54Z</time>
      </trkpt>
      <trkpt lat="45.38898" lon="5.60676">
        <ele>682</ele>
        <time>2023-02-16T08:39:55Z</time>
      </trkpt>
      <trkpt lat="45.38893" lon="5.60678">
        <ele>682</ele>
        <time>2023-02-16T08:39:58Z</time>
      </trkpt>
      <trkpt lat="45.38893" lon="5.60682">
        <ele>681</ele>
        <time>2023-02-16T08:40:00Z</time>
      </trkpt>
      <trkpt lat="45.38893" lon="5.60685">
        <ele>681</ele>
        <time>2023-02-16T08:40:02Z</time>
      </trkpt>
      <trkpt lat="45.38892" lon="5.6069">
        <ele>681</ele>
        <time>2023-02-16T08:40:04Z</time>
      </trkpt>
      <trkpt lat="45.38892" lon="5.60693">
        <ele>681</ele>
        <time>2023-02-16T08:40:05Z</time>
      </trkpt>
      <trkpt lat="45.38891" lon="5.60696">
        <ele>682</ele>
        <time>2023-02-16T08:40:06Z</time>
      </trkpt>
      <trkpt lat="45.38891" lon="5.60701">
        <ele>682</ele>
        <time>2023-02-16T08:40:07Z</time>
      </trkpt>
      <trkpt lat="45.3889" lon="5.60707">
        <ele>682</ele>
        <time>2023-02-16T08:40:08Z</time>
      </trkpt>
      <trkpt lat="45.38889" lon="5.60712">
        <ele>682</ele>
        <time>2023-02-16T08:40:09Z</time>
      </trkpt>
      <trkpt lat="45.38887" lon="5.60716">
        <ele>682</ele>
        <time>2023-02-16T08:40:10Z</time>
      </trkpt>
      <trkpt lat="45.38886" lon="5.60721">
        <ele>684</ele>
        <time>2023-02-16T08:40:11Z</time>
      </trkpt>
      <trkpt lat="45.38885" lon="5.60726">
        <ele>684</ele>
        <time>2023-02-16T08:40:12Z</time>
      </trkpt>
      <trkpt lat="45.38884" lon="5.6073">
        <ele>684</ele>
        <time>2023-02-16T08:40:13Z</time>
      </trkpt>
      <trkpt lat="45.38883" lon="5.60734">
        <ele>684</ele>
        <time>2023-02-16T08:40:14Z</time>
      </trkpt>
      <trkpt lat="45.38882" lon="5.60738">
        <ele>684</ele>
        <time>2023-02-16T08:40:15Z</time>
      </trkpt>
      <trkpt lat="45.38881" lon="5.60741">
        <ele>684</ele>
        <time>2023-02-16T08:40:16Z</time>
      </trkpt>
      <trkpt lat="45.3888" lon="5.60745">
        <ele>685</ele>
        <time>2023-02-16T08:40:17Z</time>
      </trkpt>
      <trkpt lat="45.38879" lon="5.60749">
        <ele>685</ele>
        <time>2023-02-16T08:40:18Z</time>
      </trkpt>
      <trkpt lat="45.38878" lon="5.60753">
        <ele>685</ele>
        <time>2023-02-16T08:40:19Z</time>
      </trkpt>
      <trkpt lat="45.38877" lon="5.60757">
        <ele>685</ele>
        <time>2023-02-16T08:40:20Z</time>
      </trkpt>
      <trkpt lat="45.38877" lon="5.60761">
        <ele>685</ele>
        <time>2023-02-16T08:40:21Z</time>
      </trkpt>
      <trkpt lat="45.38875" lon="5.60765">
        <ele>687</ele>
        <time>2023-02-16T08:40:22Z</time>
      </trkpt>
      <trkpt lat="45.38873" lon="5.6077">
        <ele>687</ele>
        <time>2023-02-16T08:40:23Z</time>
      </trkpt>
      <trkpt lat="45.3887" lon="5.60774">
        <ele>687</ele>
        <time>2023-02-16T08:40:24Z</time>
      </trkpt>
      <trkpt lat="45.38868" lon="5.60779">
        <ele>687</ele>
        <time>2023-02-16T08:40:25Z</time>
      </trkpt>
      <trkpt lat="45.38866" lon="5.60783">
        <ele>687</ele>
        <time>2023-02-16T08:40:26Z</time>
      </trkpt>
      <trkpt lat="45.38863" lon="5.60788">
        <ele>687</ele>
        <time>2023-02-16T08:40:27Z</time>
      </trkpt>
      <trkpt lat="45.38861" lon="5.60792">
        <ele>687</ele>
        <time>2023-02-16T08:40:28Z</time>
      </trkpt>
      <trkpt lat="45.38858" lon="5.60796">
        <ele>687</ele>
        <time>2023-02-16T08:40:29Z</time>
      </trkpt>
      <trkpt lat="45.38856" lon="5.60799">
        <ele>687</ele>
        <time>2023-02-16T08:40:30Z</time>
      </trkpt>
      <trkpt lat="45.38853" lon="5.60803">
        <ele>687</ele>
        <time>2023-02-16T08:40:31Z</time>
      </trkpt>
      <trkpt lat="45.38849" lon="5.60806">
        <ele>686</ele>
        <time>2023-02-16T08:40:32Z</time>
      </trkpt>
      <trkpt lat="45.38846" lon="5.60812">
        <ele>686</ele>
        <time>2023-02-16T08:40:33Z</time>
      </trkpt>
      <trkpt lat="45.38842" lon="5.60817">
        <ele>686</ele>
        <time>2023-02-16T08:40:34Z</time>
      </trkpt>
      <trkpt lat="45.3884" lon="5.60823">
        <ele>686</ele>
        <time>2023-02-16T08:40:35Z</time>
      </trkpt>
      <trkpt lat="45.38839" lon="5.60827">
        <ele>686</ele>
        <time>2023-02-16T08:40:36Z</time>
      </trkpt>
      <trkpt lat="45.38839" lon="5.60831">
        <ele>686</ele>
        <time>2023-02-16T08:40:37Z</time>
      </trkpt>
      <trkpt lat="45.38838" lon="5.60836">
        <ele>686</ele>
        <time>2023-02-16T08:40:38Z</time>
      </trkpt>
      <trkpt lat="45.38839" lon="5.60841">
        <ele>686</ele>
        <time>2023-02-16T08:40:39Z</time>
      </trkpt>
      <trkpt lat="45.38839" lon="5.60843">
        <ele>686</ele>
        <time>2023-02-16T08:40:40Z</time>
      </trkpt>
      <trkpt lat="45.3884" lon="5.60846">
        <ele>686</ele>
        <time>2023-02-16T08:40:41Z</time>
      </trkpt>
      <trkpt lat="45.38841" lon="5.60849">
        <ele>686</ele>
        <time>2023-02-16T08:40:42Z</time>
      </trkpt>
      <trkpt lat="45.38841" lon="5.60851">
        <ele>686</ele>
        <time>2023-02-16T08:40:43Z</time>
      </trkpt>
      <trkpt lat="45.38841" lon="5.60855">
        <ele>686</ele>
        <time>2023-02-16T08:40:45Z</time>
      </trkpt>
      <trkpt lat="45.38842" lon="5.60859">
        <ele>686</ele>
        <time>2023-02-16T08:40:47Z</time>
      </trkpt>
      <trkpt lat="45.38844" lon="5.60863">
        <ele>686</ele>
        <time>2023-02-16T08:40:49Z</time>
      </trkpt>
      <trkpt lat="45.38846" lon="5.60865">
        <ele>686</ele>
        <time>2023-02-16T08:40:50Z</time>
      </trkpt>
      <trkpt lat="45.38847" lon="5.60867">
        <ele>686</ele>
        <time>2023-02-16T08:40:51Z</time>
      </trkpt>
      <trkpt lat="45.38848" lon="5.6087">
        <ele>686</ele>
        <time>2023-02-16T08:40:52Z</time>
      </trkpt>
      <trkpt lat="45.3885" lon="5.60872">
        <ele>686</ele>
        <time>2023-02-16T08:40:53Z</time>
      </trkpt>
      <trkpt lat="45.38851" lon="5.60874">
        <ele>686</ele>
        <time>2023-02-16T08:40:54Z</time>
      </trkpt>
      <trkpt lat="45.38853" lon="5.60877">
        <ele>686</ele>
        <time>2023-02-16T08:40:56Z</time>
      </trkpt>
      <trkpt lat="45.38854" lon="5.6088">
        <ele>686</ele>
        <time>2023-02-16T08:40:57Z</time>
      </trkpt>
      <trkpt lat="45.38855" lon="5.60885">
        <ele>686</ele>
        <time>2023-02-16T08:40:59Z</time>
      </trkpt>
      <trkpt lat="45.38855" lon="5.60888">
        <ele>686</ele>
        <time>2023-02-16T08:41:00Z</time>
      </trkpt>
      <trkpt lat="45.38855" lon="5.60891">
        <ele>686</ele>
        <time>2023-02-16T08:41:01Z</time>
      </trkpt>
      <trkpt lat="45.38856" lon="5.60895">
        <ele>685</ele>
        <time>2023-02-16T08:41:02Z</time>
      </trkpt>
      <trkpt lat="45.38856" lon="5.60901">
        <ele>685</ele>
        <time>2023-02-16T08:41:03Z</time>
      </trkpt>
      <trkpt lat="45.38856" lon="5.60906">
        <ele>685</ele>
        <time>2023-02-16T08:41:04Z</time>
      </trkpt>
      <trkpt lat="45.38855" lon="5.60909">
        <ele>685</ele>
        <time>2023-02-16T08:41:05Z</time>
      </trkpt>
      <trkpt lat="45.38852" lon="5.60911">
        <ele>685</ele>
        <time>2023-02-16T08:41:07Z</time>
      </trkpt>
      <trkpt lat="45.3885" lon="5.60913">
        <ele>684</ele>
        <time>2023-02-16T08:41:08Z</time>
      </trkpt>
      <trkpt lat="45.38848" lon="5.60915">
        <ele>684</ele>
        <time>2023-02-16T08:41:09Z</time>
      </trkpt>
      <trkpt lat="45.38846" lon="5.60918">
        <ele>683</ele>
        <time>2023-02-16T08:41:10Z</time>
      </trkpt>
      <trkpt lat="45.38844" lon="5.6092">
        <ele>683</ele>
        <time>2023-02-16T08:41:11Z</time>
      </trkpt>
      <trkpt lat="45.38842" lon="5.60922">
        <ele>683</ele>
        <time>2023-02-16T08:41:12Z</time>
      </trkpt>
      <trkpt lat="45.3884" lon="5.60923">
        <ele>683</ele>
        <time>2023-02-16T08:41:14Z</time>
      </trkpt>
      <trkpt lat="45.3884" lon="5.60924">
        <ele>681</ele>
        <time>2023-02-16T08:41:24Z</time>
      </trkpt>
      <trkpt lat="45.3884" lon="5.60932">
        <ele>683</ele>
        <time>2023-02-16T08:42:20Z</time>
      </trkpt>
      <trkpt lat="45.38838" lon="5.60934">
        <ele>683</ele>
        <time>2023-02-16T08:42:21Z</time>
      </trkpt>
      <trkpt lat="45.38835" lon="5.60937">
        <ele>683</ele>
        <time>2023-02-16T08:42:22Z</time>
      </trkpt>
      <trkpt lat="45.38831" lon="5.6094">
        <ele>682</ele>
        <time>2023-02-16T08:42:23Z</time>
      </trkpt>
      <trkpt lat="45.38825" lon="5.60944">
        <ele>682</ele>
        <time>2023-02-16T08:42:24Z</time>
      </trkpt>
      <trkpt lat="45.3882" lon="5.60947">
        <ele>682</ele>
        <time>2023-02-16T08:42:25Z</time>
      </trkpt>
      <trkpt lat="45.38814" lon="5.60949">
        <ele>681</ele>
        <time>2023-02-16T08:42:26Z</time>
      </trkpt>
      <trkpt lat="45.38808" lon="5.60949">
        <ele>681</ele>
        <time>2023-02-16T08:42:27Z</time>
      </trkpt>
      <trkpt lat="45.38802" lon="5.6095">
        <ele>680</ele>
        <time>2023-02-16T08:42:28Z</time>
      </trkpt>
      <trkpt lat="45.38797" lon="5.60953">
        <ele>680</ele>
        <time>2023-02-16T08:42:29Z</time>
      </trkpt>
      <trkpt lat="45.38793" lon="5.60958">
        <ele>679</ele>
        <time>2023-02-16T08:42:30Z</time>
      </trkpt>
      <trkpt lat="45.38789" lon="5.60963">
        <ele>678</ele>
        <time>2023-02-16T08:42:31Z</time>
      </trkpt>
      <trkpt lat="45.38785" lon="5.60968">
        <ele>675</ele>
        <time>2023-02-16T08:42:32Z</time>
      </trkpt>
      <trkpt lat="45.38782" lon="5.60972">
        <ele>675</ele>
        <time>2023-02-16T08:42:33Z</time>
      </trkpt>
      <trkpt lat="45.3878" lon="5.60974">
        <ele>675</ele>
        <time>2023-02-16T08:42:34Z</time>
      </trkpt>
      <trkpt lat="45.3878" lon="5.60972">
        <ele>672</ele>
        <time>2023-02-16T08:42:43Z</time>
      </trkpt>
      <trkpt lat="45.38783" lon="5.60961">
        <ele>671</ele>
        <time>2023-02-16T08:42:49Z</time>
      </trkpt>
      <trkpt lat="45.38785" lon="5.60959">
        <ele>671</ele>
        <time>2023-02-16T08:42:50Z</time>
      </trkpt>
      <trkpt lat="45.38786" lon="5.60956">
        <ele>671</ele>
        <time>2023-02-16T08:42:51Z</time>
      </trkpt>
      <trkpt lat="45.38788" lon="5.60953">
        <ele>673</ele>
        <time>2023-02-16T08:42:52Z</time>
      </trkpt>
      <trkpt lat="45.38789" lon="5.6095">
        <ele>673</ele>
        <time>2023-02-16T08:42:53Z</time>
      </trkpt>
      <trkpt lat="45.3879" lon="5.60948">
        <ele>673</ele>
        <time>2023-02-16T08:42:54Z</time>
      </trkpt>
      <trkpt lat="45.38791" lon="5.60943">
        <ele>674</ele>
        <time>2023-02-16T08:42:56Z</time>
      </trkpt>
      <trkpt lat="45.38792" lon="5.6094">
        <ele>675</ele>
        <time>2023-02-16T08:42:58Z</time>
      </trkpt>
      <trkpt lat="45.3879" lon="5.60938">
        <ele>676</ele>
        <time>2023-02-16T08:43:01Z</time>
      </trkpt>
      <trkpt lat="45.38788" lon="5.60937">
        <ele>677</ele>
        <time>2023-02-16T08:43:03Z</time>
      </trkpt>
      <trkpt lat="45.38786" lon="5.60936">
        <ele>677</ele>
        <time>2023-02-16T08:43:05Z</time>
      </trkpt>
      <trkpt lat="45.38782" lon="5.60935">
        <ele>677</ele>
        <time>2023-02-16T08:43:07Z</time>
      </trkpt>
      <trkpt lat="45.3878" lon="5.60934">
        <ele>677</ele>
        <time>2023-02-16T08:43:08Z</time>
      </trkpt>
      <trkpt lat="45.38778" lon="5.60933">
        <ele>678</ele>
        <time>2023-02-16T08:43:09Z</time>
      </trkpt>
      <trkpt lat="45.38776" lon="5.60932">
        <ele>678</ele>
        <time>2023-02-16T08:43:10Z</time>
      </trkpt>
      <trkpt lat="45.38772" lon="5.60933">
        <ele>678</ele>
        <time>2023-02-16T08:43:12Z</time>
      </trkpt>
      <trkpt lat="45.3877" lon="5.60934">
        <ele>678</ele>
        <time>2023-02-16T08:43:13Z</time>
      </trkpt>
      <trkpt lat="45.38767" lon="5.60937">
        <ele>678</ele>
        <time>2023-02-16T08:43:14Z</time>
      </trkpt>
      <trkpt lat="45.38764" lon="5.6094">
        <ele>676</ele>
        <time>2023-02-16T08:43:15Z</time>
      </trkpt>
      <trkpt lat="45.38762" lon="5.60944">
        <ele>676</ele>
        <time>2023-02-16T08:43:16Z</time>
      </trkpt>
      <trkpt lat="45.3876" lon="5.60948">
        <ele>676</ele>
        <time>2023-02-16T08:43:17Z</time>
      </trkpt>
      <trkpt lat="45.3876" lon="5.60951">
        <ele>675</ele>
        <time>2023-02-16T08:43:18Z</time>
      </trkpt>
      <trkpt lat="45.3876" lon="5.60955">
        <ele>673</ele>
        <time>2023-02-16T08:43:21Z</time>
      </trkpt>
      <trkpt lat="45.38759" lon="5.60957">
        <ele>672</ele>
        <time>2023-02-16T08:43:22Z</time>
      </trkpt>
      <trkpt lat="45.38757" lon="5.6096">
        <ele>672</ele>
        <time>2023-02-16T08:43:23Z</time>
      </trkpt>
      <trkpt lat="45.38755" lon="5.60963">
        <ele>672</ele>
        <time>2023-02-16T08:43:25Z</time>
      </trkpt>
      <trkpt lat="45.38753" lon="5.60965">
        <ele>670</ele>
        <time>2023-02-16T08:43:27Z</time>
      </trkpt>
      <trkpt lat="45.38751" lon="5.60967">
        <ele>669</ele>
        <time>2023-02-16T08:43:29Z</time>
      </trkpt>
      <trkpt lat="45.38751" lon="5.60968">
        <ele>666</ele>
        <time>2023-02-16T08:43:36Z</time>
      </trkpt>
      <trkpt lat="45.38748" lon="5.60976">
        <ele>666</ele>
        <time>2023-02-16T08:43:47Z</time>
      </trkpt>
      <trkpt lat="45.38746" lon="5.60979">
        <ele>664</ele>
        <time>2023-02-16T08:43:48Z</time>
      </trkpt>
      <trkpt lat="45.38746" lon="5.60982">
        <ele>664</ele>
        <time>2023-02-16T08:43:50Z</time>
      </trkpt>
      <trkpt lat="45.38746" lon="5.60985">
        <ele>662</ele>
        <time>2023-02-16T08:43:52Z</time>
      </trkpt>
      <trkpt lat="45.38745" lon="5.60989">
        <ele>661</ele>
        <time>2023-02-16T08:43:55Z</time>
      </trkpt>
      <trkpt lat="45.38744" lon="5.60992">
        <ele>660</ele>
        <time>2023-02-16T08:43:57Z</time>
      </trkpt>
      <trkpt lat="45.38742" lon="5.60994">
        <ele>660</ele>
        <time>2023-02-16T08:43:59Z</time>
      </trkpt>
      <trkpt lat="45.3874" lon="5.60996">
        <ele>655</ele>
        <time>2023-02-16T08:44:01Z</time>
      </trkpt>
      <trkpt lat="45.38738" lon="5.60997">
        <ele>655</ele>
        <time>2023-02-16T08:44:03Z</time>
      </trkpt>
      <trkpt lat="45.38736" lon="5.60996">
        <ele>655</ele>
        <time>2023-02-16T08:44:05Z</time>
      </trkpt>
      <trkpt lat="45.38734" lon="5.60995">
        <ele>655</ele>
        <time>2023-02-16T08:44:07Z</time>
      </trkpt>
      <trkpt lat="45.38733" lon="5.60998">
        <ele>655</ele>
        <time>2023-02-16T08:44:11Z</time>
      </trkpt>
      <trkpt lat="45.38733" lon="5.61">
        <ele>653</ele>
        <time>2023-02-16T08:44:16Z</time>
      </trkpt>
      <trkpt lat="45.38734" lon="5.61006">
        <ele>653</ele>
        <time>2023-02-16T08:44:19Z</time>
      </trkpt>
      <trkpt lat="45.38735" lon="5.61008">
        <ele>653</ele>
        <time>2023-02-16T08:44:21Z</time>
      </trkpt>
      <trkpt lat="45.38737" lon="5.61011">
        <ele>652</ele>
        <time>2023-02-16T08:44:23Z</time>
      </trkpt>
      <trkpt lat="45.38737" lon="5.61014">
        <ele>651</ele>
        <time>2023-02-16T08:44:25Z</time>
      </trkpt>
      <trkpt lat="45.38736" lon="5.61018">
        <ele>651</ele>
        <time>2023-02-16T08:44:27Z</time>
      </trkpt>
      <trkpt lat="45.38736" lon="5.61022">
        <ele>650</ele>
        <time>2023-02-16T08:44:29Z</time>
      </trkpt>
      <trkpt lat="45.38736" lon="5.61025">
        <ele>649</ele>
        <time>2023-02-16T08:44:31Z</time>
      </trkpt>
      <trkpt lat="45.38737" lon="5.61029">
        <ele>648</ele>
        <time>2023-02-16T08:44:33Z</time>
      </trkpt>
      <trkpt lat="45.38736" lon="5.61032">
        <ele>648</ele>
        <time>2023-02-16T08:44:35Z</time>
      </trkpt>
      <trkpt lat="45.38735" lon="5.61035">
        <ele>648</ele>
        <time>2023-02-16T08:44:36Z</time>
      </trkpt>
      <trkpt lat="45.38734" lon="5.6104">
        <ele>648</ele>
        <time>2023-02-16T08:44:37Z</time>
      </trkpt>
      <trkpt lat="45.38734" lon="5.61044">
        <ele>647</ele>
        <time>2023-02-16T08:44:38Z</time>
      </trkpt>
      <trkpt lat="45.38733" lon="5.61048">
        <ele>646</ele>
        <time>2023-02-16T08:44:39Z</time>
      </trkpt>
      <trkpt lat="45.38732" lon="5.61052">
        <ele>646</ele>
        <time>2023-02-16T08:44:40Z</time>
      </trkpt>
      <trkpt lat="45.38731" lon="5.61054">
        <ele>645</ele>
        <time>2023-02-16T08:44:41Z</time>
      </trkpt>
      <trkpt lat="45.3873" lon="5.61055">
        <ele>645</ele>
        <time>2023-02-16T08:44:42Z</time>
      </trkpt>
      <trkpt lat="45.38727" lon="5.61054">
        <ele>645</ele>
        <time>2023-02-16T08:44:44Z</time>
      </trkpt>
      <trkpt lat="45.38725" lon="5.61051">
        <ele>644</ele>
        <time>2023-02-16T08:44:46Z</time>
      </trkpt>
      <trkpt lat="45.38724" lon="5.61049">
        <ele>644</ele>
        <time>2023-02-16T08:44:47Z</time>
      </trkpt>
      <trkpt lat="45.38722" lon="5.61047">
        <ele>644</ele>
        <time>2023-02-16T08:44:48Z</time>
      </trkpt>
      <trkpt lat="45.3872" lon="5.61046">
        <ele>644</ele>
        <time>2023-02-16T08:44:49Z</time>
      </trkpt>
      <trkpt lat="45.38718" lon="5.61044">
        <ele>644</ele>
        <time>2023-02-16T08:44:50Z</time>
      </trkpt>
      <trkpt lat="45.38716" lon="5.61042">
        <ele>643</ele>
        <time>2023-02-16T08:44:51Z</time>
      </trkpt>
      <trkpt lat="45.38713" lon="5.6104">
        <ele>643</ele>
        <time>2023-02-16T08:44:53Z</time>
      </trkpt>
      <trkpt lat="45.3871" lon="5.6104">
        <ele>642</ele>
        <time>2023-02-16T08:44:56Z</time>
      </trkpt>
      <trkpt lat="45.38708" lon="5.6104">
        <ele>643</ele>
        <time>2023-02-16T08:44:59Z</time>
      </trkpt>
      <trkpt lat="45.38706" lon="5.61039">
        <ele>643</ele>
        <time>2023-02-16T08:45:01Z</time>
      </trkpt>
      <trkpt lat="45.38704" lon="5.61038">
        <ele>643</ele>
        <time>2023-02-16T08:45:03Z</time>
      </trkpt>
      <trkpt lat="45.38702" lon="5.61035">
        <ele>642</ele>
        <time>2023-02-16T08:45:07Z</time>
      </trkpt>
      <trkpt lat="45.38701" lon="5.61032">
        <ele>642</ele>
        <time>2023-02-16T08:45:09Z</time>
      </trkpt>
      <trkpt lat="45.387" lon="5.61028">
        <ele>641</ele>
        <time>2023-02-16T08:45:11Z</time>
      </trkpt>
      <trkpt lat="45.38701" lon="5.61024">
        <ele>641</ele>
        <time>2023-02-16T08:45:13Z</time>
      </trkpt>
      <trkpt lat="45.38701" lon="5.61021">
        <ele>641</ele>
        <time>2023-02-16T08:45:15Z</time>
      </trkpt>
      <trkpt lat="45.387" lon="5.61017">
        <ele>641</ele>
        <time>2023-02-16T08:45:17Z</time>
      </trkpt>
      <trkpt lat="45.38698" lon="5.61013">
        <ele>640</ele>
        <time>2023-02-16T08:45:19Z</time>
      </trkpt>
      <trkpt lat="45.38696" lon="5.61009">
        <ele>640</ele>
        <time>2023-02-16T08:45:21Z</time>
      </trkpt>
      <trkpt lat="45.38695" lon="5.61006">
        <ele>640</ele>
        <time>2023-02-16T08:45:22Z</time>
      </trkpt>
      <trkpt lat="45.38693" lon="5.61004">
        <ele>640</ele>
        <time>2023-02-16T08:45:23Z</time>
      </trkpt>
      <trkpt lat="45.38692" lon="5.61001">
        <ele>640</ele>
        <time>2023-02-16T08:45:24Z</time>
      </trkpt>
      <trkpt lat="45.38689" lon="5.60989">
        <ele>639</ele>
        <time>2023-02-16T08:45:27Z</time>
      </trkpt>
      <trkpt lat="45.38688" lon="5.60984">
        <ele>639</ele>
        <time>2023-02-16T08:45:28Z</time>
      </trkpt>
      <trkpt lat="45.38684" lon="5.60972">
        <ele>639</ele>
        <time>2023-02-16T08:45:31Z</time>
      </trkpt>
      <trkpt lat="45.38681" lon="5.60955">
        <ele>637</ele>
        <time>2023-02-16T08:45:35Z</time>
      </trkpt>
      <trkpt lat="45.38678" lon="5.60946">
        <ele>637</ele>
        <time>2023-02-16T08:45:37Z</time>
      </trkpt>
      <trkpt lat="45.38673" lon="5.60938">
        <ele>636</ele>
        <time>2023-02-16T08:45:38Z</time>
      </trkpt>
      <trkpt lat="45.38671" lon="5.60934">
        <ele>636</ele>
        <time>2023-02-16T08:45:40Z</time>
      </trkpt>
      <trkpt lat="45.38669" lon="5.60929">
        <ele>635</ele>
        <time>2023-02-16T08:45:41Z</time>
      </trkpt>
      <trkpt lat="45.38668" lon="5.60925">
        <ele>635</ele>
        <time>2023-02-16T08:45:42Z</time>
      </trkpt>
      <trkpt lat="45.38667" lon="5.60921">
        <ele>635</ele>
        <time>2023-02-16T08:45:43Z</time>
      </trkpt>
      <trkpt lat="45.38666" lon="5.60917">
        <ele>635</ele>
        <time>2023-02-16T08:45:44Z</time>
      </trkpt>
      <trkpt lat="45.38664" lon="5.60913">
        <ele>633</ele>
        <time>2023-02-16T08:45:45Z</time>
      </trkpt>
      <trkpt lat="45.38662" lon="5.60908">
        <ele>633</ele>
        <time>2023-02-16T08:45:46Z</time>
      </trkpt>
      <trkpt lat="45.3866" lon="5.60903">
        <ele>633</ele>
        <time>2023-02-16T08:45:47Z</time>
      </trkpt>
      <trkpt lat="45.38658" lon="5.60899">
        <ele>633</ele>
        <time>2023-02-16T08:45:48Z</time>
      </trkpt>
      <trkpt lat="45.38657" lon="5.60895">
        <ele>632</ele>
        <time>2023-02-16T08:45:49Z</time>
      </trkpt>
      <trkpt lat="45.38655" lon="5.60891">
        <ele>632</ele>
        <time>2023-02-16T08:45:50Z</time>
      </trkpt>
      <trkpt lat="45.38654" lon="5.60888">
        <ele>631</ele>
        <time>2023-02-16T08:45:51Z</time>
      </trkpt>
      <trkpt lat="45.38653" lon="5.60885">
        <ele>631</ele>
        <time>2023-02-16T08:45:52Z</time>
      </trkpt>
      <trkpt lat="45.38651" lon="5.6088">
        <ele>630</ele>
        <time>2023-02-16T08:45:55Z</time>
      </trkpt>
      <trkpt lat="45.38648" lon="5.60878">
        <ele>630</ele>
        <time>2023-02-16T08:45:57Z</time>
      </trkpt>
      <trkpt lat="45.38647" lon="5.60875">
        <ele>629</ele>
        <time>2023-02-16T08:45:59Z</time>
      </trkpt>
      <trkpt lat="45.38646" lon="5.60871">
        <ele>629</ele>
        <time>2023-02-16T08:46:01Z</time>
      </trkpt>
      <trkpt lat="45.38646" lon="5.60869">
        <ele>628</ele>
        <time>2023-02-16T08:46:03Z</time>
      </trkpt>
      <trkpt lat="45.38645" lon="5.60866">
        <ele>628</ele>
        <time>2023-02-16T08:46:05Z</time>
      </trkpt>
      <trkpt lat="45.38644" lon="5.60861">
        <ele>627</ele>
        <time>2023-02-16T08:46:07Z</time>
      </trkpt>
      <trkpt lat="45.38644" lon="5.60858">
        <ele>627</ele>
        <time>2023-02-16T08:46:09Z</time>
      </trkpt>
      <trkpt lat="45.38645" lon="5.60855">
        <ele>627</ele>
        <time>2023-02-16T08:46:12Z</time>
      </trkpt>
      <trkpt lat="45.38645" lon="5.60855">
        <ele>627</ele>
        <time>2023-02-16T08:46:17Z</time>
      </trkpt>
      <trkpt lat="45.38645" lon="5.60848">
        <ele>626</ele>
        <time>2023-02-16T08:46:24Z</time>
      </trkpt>
      <trkpt lat="45.38644" lon="5.60844">
        <ele>626</ele>
        <time>2023-02-16T08:46:25Z</time>
      </trkpt>
      <trkpt lat="45.38644" lon="5.6084">
        <ele>624</ele>
        <time>2023-02-16T08:46:26Z</time>
      </trkpt>
      <trkpt lat="45.38644" lon="5.60838">
        <ele>624</ele>
        <time>2023-02-16T08:46:27Z</time>
      </trkpt>
      <trkpt lat="45.38643" lon="5.60835">
        <ele>623</ele>
        <time>2023-02-16T08:46:29Z</time>
      </trkpt>
      <trkpt lat="45.38644" lon="5.60832">
        <ele>622</ele>
        <time>2023-02-16T08:46:32Z</time>
      </trkpt>
      <trkpt lat="45.38643" lon="5.60828">
        <ele>621</ele>
        <time>2023-02-16T08:46:35Z</time>
      </trkpt>
      <trkpt lat="45.38643" lon="5.60823">
        <ele>621</ele>
        <time>2023-02-16T08:46:37Z</time>
      </trkpt>
      <trkpt lat="45.38642" lon="5.60819">
        <ele>621</ele>
        <time>2023-02-16T08:46:38Z</time>
      </trkpt>
      <trkpt lat="45.38641" lon="5.60815">
        <ele>620</ele>
        <time>2023-02-16T08:46:39Z</time>
      </trkpt>
      <trkpt lat="45.38641" lon="5.60811">
        <ele>620</ele>
        <time>2023-02-16T08:46:40Z</time>
      </trkpt>
      <trkpt lat="45.3864" lon="5.60807">
        <ele>620</ele>
        <time>2023-02-16T08:46:41Z</time>
      </trkpt>
      <trkpt lat="45.3864" lon="5.60803">
        <ele>619</ele>
        <time>2023-02-16T08:46:42Z</time>
      </trkpt>
      <trkpt lat="45.3864" lon="5.60799">
        <ele>619</ele>
        <time>2023-02-16T08:46:43Z</time>
      </trkpt>
      <trkpt lat="45.3864" lon="5.60796">
        <ele>617</ele>
        <time>2023-02-16T08:46:44Z</time>
      </trkpt>
      <trkpt lat="45.38639" lon="5.60793">
        <ele>617</ele>
        <time>2023-02-16T08:46:45Z</time>
      </trkpt>
      <trkpt lat="45.38639" lon="5.60789">
        <ele>617</ele>
        <time>2023-02-16T08:46:46Z</time>
      </trkpt>
      <trkpt lat="45.38638" lon="5.60785">
        <ele>616</ele>
        <time>2023-02-16T08:46:47Z</time>
      </trkpt>
      <trkpt lat="45.38638" lon="5.60782">
        <ele>616</ele>
        <time>2023-02-16T08:46:48Z</time>
      </trkpt>
      <trkpt lat="45.38638" lon="5.60779">
        <ele>615</ele>
        <time>2023-02-16T08:46:49Z</time>
      </trkpt>
      <trkpt lat="45.38639" lon="5.60777">
        <ele>614</ele>
        <time>2023-02-16T08:46:50Z</time>
      </trkpt>
      <trkpt lat="45.38638" lon="5.60773">
        <ele>614</ele>
        <time>2023-02-16T08:46:51Z</time>
      </trkpt>
      <trkpt lat="45.38638" lon="5.60771">
        <ele>612</ele>
        <time>2023-02-16T08:46:52Z</time>
      </trkpt>
      <trkpt lat="45.38638" lon="5.60768">
        <ele>611</ele>
        <time>2023-02-16T08:46:53Z</time>
      </trkpt>
      <trkpt lat="45.38636" lon="5.60755">
        <ele>608</ele>
        <time>2023-02-16T08:46:58Z</time>
      </trkpt>
      <trkpt lat="45.38633" lon="5.60752">
        <ele>606</ele>
        <time>2023-02-16T08:47:00Z</time>
      </trkpt>
      <trkpt lat="45.38632" lon="5.6075">
        <ele>606</ele>
        <time>2023-02-16T08:47:01Z</time>
      </trkpt>
      <trkpt lat="45.3863" lon="5.6075">
        <ele>603</ele>
        <time>2023-02-16T08:47:03Z</time>
      </trkpt>
      <trkpt lat="45.38627" lon="5.6075">
        <ele>602</ele>
        <time>2023-02-16T08:47:07Z</time>
      </trkpt>
      <trkpt lat="45.38625" lon="5.60751">
        <ele>602</ele>
        <time>2023-02-16T08:47:10Z</time>
      </trkpt>
      <trkpt lat="45.38623" lon="5.6075">
        <ele>602</ele>
        <time>2023-02-16T08:47:13Z</time>
      </trkpt>
      <trkpt lat="45.38621" lon="5.60749">
        <ele>602</ele>
        <time>2023-02-16T08:47:15Z</time>
      </trkpt>
      <trkpt lat="45.38618" lon="5.60748">
        <ele>601</ele>
        <time>2023-02-16T08:47:18Z</time>
      </trkpt>
      <trkpt lat="45.38615" lon="5.60747">
        <ele>600</ele>
        <time>2023-02-16T08:47:21Z</time>
      </trkpt>
      <trkpt lat="45.38613" lon="5.60747">
        <ele>600</ele>
        <time>2023-02-16T08:47:23Z</time>
      </trkpt>
      <trkpt lat="45.38611" lon="5.60748">
        <ele>597</ele>
        <time>2023-02-16T08:47:26Z</time>
      </trkpt>
      <trkpt lat="45.38609" lon="5.60747">
        <ele>597</ele>
        <time>2023-02-16T08:47:29Z</time>
      </trkpt>
      <trkpt lat="45.38606" lon="5.60748">
        <ele>597</ele>
        <time>2023-02-16T08:47:31Z</time>
      </trkpt>
      <trkpt lat="45.38604" lon="5.60748">
        <ele>595</ele>
        <time>2023-02-16T08:47:34Z</time>
      </trkpt>
      <trkpt lat="45.38602" lon="5.60748">
        <ele>595</ele>
        <time>2023-02-16T08:47:37Z</time>
      </trkpt>
      <trkpt lat="45.386" lon="5.60748">
        <ele>595</ele>
        <time>2023-02-16T08:47:40Z</time>
      </trkpt>
      <trkpt lat="45.38597" lon="5.60748">
        <ele>593</ele>
        <time>2023-02-16T08:47:43Z</time>
      </trkpt>
      <trkpt lat="45.38594" lon="5.60748">
        <ele>593</ele>
        <time>2023-02-16T08:47:45Z</time>
      </trkpt>
      <trkpt lat="45.38591" lon="5.60748">
        <ele>593</ele>
        <time>2023-02-16T08:47:47Z</time>
      </trkpt>
      <trkpt lat="45.38589" lon="5.60747">
        <ele>592</ele>
        <time>2023-02-16T08:47:48Z</time>
      </trkpt>
      <trkpt lat="45.38587" lon="5.60748">
        <ele>592</ele>
        <time>2023-02-16T08:47:49Z</time>
      </trkpt>
      <trkpt lat="45.38584" lon="5.60748">
        <ele>591</ele>
        <time>2023-02-16T08:47:51Z</time>
      </trkpt>
      <trkpt lat="45.38582" lon="5.60749">
        <ele>590</ele>
        <time>2023-02-16T08:47:53Z</time>
      </trkpt>
      <trkpt lat="45.38578" lon="5.6075">
        <ele>587</ele>
        <time>2023-02-16T08:47:55Z</time>
      </trkpt>
      <trkpt lat="45.38575" lon="5.6075">
        <ele>586</ele>
        <time>2023-02-16T08:47:57Z</time>
      </trkpt>
      <trkpt lat="45.38572" lon="5.6075">
        <ele>586</ele>
        <time>2023-02-16T08:47:59Z</time>
      </trkpt>
      <trkpt lat="45.38569" lon="5.6075">
        <ele>585</ele>
        <time>2023-02-16T08:48:00Z</time>
      </trkpt>
      <trkpt lat="45.38567" lon="5.60751">
        <ele>585</ele>
        <time>2023-02-16T08:48:01Z</time>
      </trkpt>
      <trkpt lat="45.38565" lon="5.60752">
        <ele>585</ele>
        <time>2023-02-16T08:48:02Z</time>
      </trkpt>
      <trkpt lat="45.38564" lon="5.60753">
        <ele>585</ele>
        <time>2023-02-16T08:48:03Z</time>
      </trkpt>
      <trkpt lat="45.38562" lon="5.60756">
        <ele>585</ele>
        <time>2023-02-16T08:48:05Z</time>
      </trkpt>
      <trkpt lat="45.38562" lon="5.60756">
        <ele>584</ele>
        <time>2023-02-16T08:48:10Z</time>
      </trkpt>
      <trkpt lat="45.3856" lon="5.60755">
        <ele>583</ele>
        <time>2023-02-16T08:48:26Z</time>
      </trkpt>
      <trkpt lat="45.3856" lon="5.60754">
        <ele>583</ele>
        <time>2023-02-16T08:48:27Z</time>
      </trkpt>
      <trkpt lat="45.3856" lon="5.60754">
        <ele>583</ele>
        <time>2023-02-16T08:48:32Z</time>
      </trkpt>
      <trkpt lat="45.38549" lon="5.60757">
        <ele>582</ele>
        <time>2023-02-16T08:48:42Z</time>
      </trkpt>
      <trkpt lat="45.38545" lon="5.60755">
        <ele>582</ele>
        <time>2023-02-16T08:48:43Z</time>
      </trkpt>
      <trkpt lat="45.38542" lon="5.60753">
        <ele>582</ele>
        <time>2023-02-16T08:48:44Z</time>
      </trkpt>
      <trkpt lat="45.38538" lon="5.60751">
        <ele>582</ele>
        <time>2023-02-16T08:48:45Z</time>
      </trkpt>
      <trkpt lat="45.38535" lon="5.60749">
        <ele>582</ele>
        <time>2023-02-16T08:48:46Z</time>
      </trkpt>
      <trkpt lat="45.38531" lon="5.60747">
        <ele>582</ele>
        <time>2023-02-16T08:48:47Z</time>
      </trkpt>
      <trkpt lat="45.38528" lon="5.60745">
        <ele>581</ele>
        <time>2023-02-16T08:48:48Z</time>
      </trkpt>
      <trkpt lat="45.38524" lon="5.60743">
        <ele>581</ele>
        <time>2023-02-16T08:48:49Z</time>
      </trkpt>
      <trkpt lat="45.38521" lon="5.60741">
        <ele>580</ele>
        <time>2023-02-16T08:48:50Z</time>
      </trkpt>
      <trkpt lat="45.38517" lon="5.60739">
        <ele>580</ele>
        <time>2023-02-16T08:48:51Z</time>
      </trkpt>
      <trkpt lat="45.38513" lon="5.60737">
        <ele>580</ele>
        <time>2023-02-16T08:48:52Z</time>
      </trkpt>
      <trkpt lat="45.38509" lon="5.60735">
        <ele>580</ele>
        <time>2023-02-16T08:48:53Z</time>
      </trkpt>
      <trkpt lat="45.38506" lon="5.60734">
        <ele>579</ele>
        <time>2023-02-16T08:48:54Z</time>
      </trkpt>
      <trkpt lat="45.38503" lon="5.60733">
        <ele>578</ele>
        <time>2023-02-16T08:48:55Z</time>
      </trkpt>
      <trkpt lat="45.38501" lon="5.60731">
        <ele>578</ele>
        <time>2023-02-16T08:48:57Z</time>
      </trkpt>
      <trkpt lat="45.38497" lon="5.60728">
        <ele>575</ele>
        <time>2023-02-16T08:48:59Z</time>
      </trkpt>
      <trkpt lat="45.38496" lon="5.60726">
        <ele>575</ele>
        <time>2023-02-16T08:49:00Z</time>
      </trkpt>
      <trkpt lat="45.38494" lon="5.60724">
        <ele>575</ele>
        <time>2023-02-16T08:49:01Z</time>
      </trkpt>
      <trkpt lat="45.38491" lon="5.60722">
        <ele>574</ele>
        <time>2023-02-16T08:49:02Z</time>
      </trkpt>
      <trkpt lat="45.38489" lon="5.6072">
        <ele>574</ele>
        <time>2023-02-16T08:49:03Z</time>
      </trkpt>
      <trkpt lat="45.38487" lon="5.6072">
        <ele>573</ele>
        <time>2023-02-16T08:49:04Z</time>
      </trkpt>
      <trkpt lat="45.38483" lon="5.60722">
        <ele>572</ele>
        <time>2023-02-16T08:49:06Z</time>
      </trkpt>
      <trkpt lat="45.38482" lon="5.60725">
        <ele>572</ele>
        <time>2023-02-16T08:49:07Z</time>
      </trkpt>
      <trkpt lat="45.38482" lon="5.60729">
        <ele>570</ele>
        <time>2023-02-16T08:49:08Z</time>
      </trkpt>
      <trkpt lat="45.38483" lon="5.60734">
        <ele>569</ele>
        <time>2023-02-16T08:49:09Z</time>
      </trkpt>
      <trkpt lat="45.38484" lon="5.60738">
        <ele>569</ele>
        <time>2023-02-16T08:49:10Z</time>
      </trkpt>
      <trkpt lat="45.38486" lon="5.60742">
        <ele>569</ele>
        <time>2023-02-16T08:49:11Z</time>
      </trkpt>
      <trkpt lat="45.38487" lon="5.60745">
        <ele>568</ele>
        <time>2023-02-16T08:49:12Z</time>
      </trkpt>
      <trkpt lat="45.38489" lon="5.60747">
        <ele>568</ele>
        <time>2023-02-16T08:49:14Z</time>
      </trkpt>
      <trkpt lat="45.38488" lon="5.60746">
        <ele>567</ele>
        <time>2023-02-16T08:49:20Z</time>
      </trkpt>
      <trkpt lat="45.38485" lon="5.60742">
        <ele>567</ele>
        <time>2023-02-16T08:49:25Z</time>
      </trkpt>
      <trkpt lat="45.38482" lon="5.60738">
        <ele>566</ele>
        <time>2023-02-16T08:49:26Z</time>
      </trkpt>
      <trkpt lat="45.3848" lon="5.60735">
        <ele>566</ele>
        <time>2023-02-16T08:49:27Z</time>
      </trkpt>
      <trkpt lat="45.38478" lon="5.60732">
        <ele>566</ele>
        <time>2023-02-16T08:49:28Z</time>
      </trkpt>
      <trkpt lat="45.38476" lon="5.60728">
        <ele>566</ele>
        <time>2023-02-16T08:49:29Z</time>
      </trkpt>
      <trkpt lat="45.38475" lon="5.60724">
        <ele>566</ele>
        <time>2023-02-16T08:49:30Z</time>
      </trkpt>
      <trkpt lat="45.38473" lon="5.60721">
        <ele>566</ele>
        <time>2023-02-16T08:49:31Z</time>
      </trkpt>
      <trkpt lat="45.38473" lon="5.60717">
        <ele>565</ele>
        <time>2023-02-16T08:49:32Z</time>
      </trkpt>
      <trkpt lat="45.38472" lon="5.60713">
        <ele>565</ele>
        <time>2023-02-16T08:49:33Z</time>
      </trkpt>
      <trkpt lat="45.38471" lon="5.6071">
        <ele>565</ele>
        <time>2023-02-16T08:49:34Z</time>
      </trkpt>
      <trkpt lat="45.3847" lon="5.60706">
        <ele>566</ele>
        <time>2023-02-16T08:49:35Z</time>
      </trkpt>
      <trkpt lat="45.3847" lon="5.60703">
        <ele>566</ele>
        <time>2023-02-16T08:49:36Z</time>
      </trkpt>
      <trkpt lat="45.3847" lon="5.607">
        <ele>566</ele>
        <time>2023-02-16T08:49:37Z</time>
      </trkpt>
      <trkpt lat="45.38469" lon="5.60697">
        <ele>566</ele>
        <time>2023-02-16T08:49:38Z</time>
      </trkpt>
      <trkpt lat="45.38469" lon="5.60694">
        <ele>566</ele>
        <time>2023-02-16T08:49:39Z</time>
      </trkpt>
      <trkpt lat="45.38468" lon="5.6069">
        <ele>566</ele>
        <time>2023-02-16T08:49:40Z</time>
      </trkpt>
      <trkpt lat="45.38467" lon="5.60687">
        <ele>566</ele>
        <time>2023-02-16T08:49:41Z</time>
      </trkpt>
      <trkpt lat="45.38466" lon="5.60684">
        <ele>566</ele>
        <time>2023-02-16T08:49:42Z</time>
      </trkpt>
      <trkpt lat="45.38466" lon="5.6068">
        <ele>566</ele>
        <time>2023-02-16T08:49:43Z</time>
      </trkpt>
      <trkpt lat="45.38465" lon="5.60676">
        <ele>566</ele>
        <time>2023-02-16T08:49:44Z</time>
      </trkpt>
      <trkpt lat="45.38464" lon="5.60673">
        <ele>566</ele>
        <time>2023-02-16T08:49:45Z</time>
      </trkpt>
      <trkpt lat="45.38463" lon="5.60669">
        <ele>566</ele>
        <time>2023-02-16T08:49:46Z</time>
      </trkpt>
      <trkpt lat="45.38463" lon="5.60666">
        <ele>568</ele>
        <time>2023-02-16T08:49:47Z</time>
      </trkpt>
      <trkpt lat="45.38462" lon="5.60662">
        <ele>568</ele>
        <time>2023-02-16T08:49:48Z</time>
      </trkpt>
      <trkpt lat="45.38462" lon="5.60659">
        <ele>568</ele>
        <time>2023-02-16T08:49:49Z</time>
      </trkpt>
      <trkpt lat="45.38462" lon="5.60656">
        <ele>568</ele>
        <time>2023-02-16T08:49:50Z</time>
      </trkpt>
      <trkpt lat="45.38461" lon="5.60652">
        <ele>568</ele>
        <time>2023-02-16T08:49:51Z</time>
      </trkpt>
      <trkpt lat="45.38461" lon="5.60649">
        <ele>569</ele>
        <time>2023-02-16T08:49:52Z</time>
      </trkpt>
      <trkpt lat="45.38461" lon="5.60645">
        <ele>569</ele>
        <time>2023-02-16T08:49:53Z</time>
      </trkpt>
      <trkpt lat="45.3846" lon="5.60641">
        <ele>569</ele>
        <time>2023-02-16T08:49:54Z</time>
      </trkpt>
      <trkpt lat="45.3846" lon="5.60638">
        <ele>569</ele>
        <time>2023-02-16T08:49:55Z</time>
      </trkpt>
      <trkpt lat="45.38459" lon="5.60634">
        <ele>570</ele>
        <time>2023-02-16T08:49:56Z</time>
      </trkpt>
      <trkpt lat="45.38459" lon="5.60631">
        <ele>570</ele>
        <time>2023-02-16T08:49:57Z</time>
      </trkpt>
      <trkpt lat="45.38458" lon="5.60628">
        <ele>571</ele>
        <time>2023-02-16T08:49:58Z</time>
      </trkpt>
      <trkpt lat="45.38458" lon="5.60625">
        <ele>571</ele>
        <time>2023-02-16T08:49:59Z</time>
      </trkpt>
      <trkpt lat="45.38458" lon="5.60623">
        <ele>571</ele>
        <time>2023-02-16T08:50:00Z</time>
      </trkpt>
      <trkpt lat="45.38458" lon="5.60619">
        <ele>571</ele>
        <time>2023-02-16T08:50:01Z</time>
      </trkpt>
      <trkpt lat="45.38457" lon="5.60616">
        <ele>571</ele>
        <time>2023-02-16T08:50:02Z</time>
      </trkpt>
      <trkpt lat="45.38457" lon="5.60614">
        <ele>571</ele>
        <time>2023-02-16T08:50:03Z</time>
      </trkpt>
      <trkpt lat="45.38456" lon="5.6061">
        <ele>571</ele>
        <time>2023-02-16T08:50:05Z</time>
      </trkpt>
      <trkpt lat="45.38456" lon="5.60606">
        <ele>571</ele>
        <time>2023-02-16T08:50:07Z</time>
      </trkpt>
      <trkpt lat="45.38456" lon="5.60602">
        <ele>571</ele>
        <time>2023-02-16T08:50:09Z</time>
      </trkpt>
      <trkpt lat="45.38456" lon="5.60599">
        <ele>572</ele>
        <time>2023-02-16T08:50:11Z</time>
      </trkpt>
      <trkpt lat="45.38457" lon="5.60596">
        <ele>572</ele>
        <time>2023-02-16T08:50:13Z</time>
      </trkpt>
      <trkpt lat="45.38457" lon="5.60593">
        <ele>573</ele>
        <time>2023-02-16T08:50:15Z</time>
      </trkpt>
      <trkpt lat="45.38457" lon="5.60589">
        <ele>573</ele>
        <time>2023-02-16T08:50:17Z</time>
      </trkpt>
      <trkpt lat="45.38457" lon="5.60586">
        <ele>573</ele>
        <time>2023-02-16T08:50:19Z</time>
      </trkpt>
      <trkpt lat="45.38458" lon="5.60582">
        <ele>574</ele>
        <time>2023-02-16T08:50:21Z</time>
      </trkpt>
      <trkpt lat="45.38458" lon="5.60579">
        <ele>575</ele>
        <time>2023-02-16T08:50:23Z</time>
      </trkpt>
      <trkpt lat="45.38458" lon="5.60576">
        <ele>575</ele>
        <time>2023-02-16T08:50:25Z</time>
      </trkpt>
      <trkpt lat="45.38459" lon="5.60573">
        <ele>576</ele>
        <time>2023-02-16T08:50:27Z</time>
      </trkpt>
      <trkpt lat="45.38459" lon="5.6057">
        <ele>576</ele>
        <time>2023-02-16T08:50:29Z</time>
      </trkpt>
      <trkpt lat="45.38458" lon="5.60566">
        <ele>576</ele>
        <time>2023-02-16T08:50:31Z</time>
      </trkpt>
      <trkpt lat="45.38458" lon="5.60563">
        <ele>578</ele>
        <time>2023-02-16T08:50:33Z</time>
      </trkpt>
      <trkpt lat="45.38458" lon="5.60562">
        <ele>577</ele>
        <time>2023-02-16T08:50:41Z</time>
      </trkpt>
      <trkpt lat="45.38457" lon="5.60552">
        <ele>577</ele>
        <time>2023-02-16T08:52:11Z</time>
      </trkpt>
      <trkpt lat="45.38457" lon="5.60557">
        <ele>573</ele>
        <time>2023-02-16T08:52:15Z</time>
      </trkpt>
      <trkpt lat="45.38458" lon="5.6056">
        <ele>573</ele>
        <time>2023-02-16T08:52:16Z</time>
      </trkpt>
      <trkpt lat="45.38457" lon="5.60562">
        <ele>573</ele>
        <time>2023-02-16T08:52:17Z</time>
      </trkpt>
      <trkpt lat="45.38457" lon="5.60565">
        <ele>573</ele>
        <time>2023-02-16T08:52:18Z</time>
      </trkpt>
      <trkpt lat="45.38457" lon="5.6057">
        <ele>573</ele>
        <time>2023-02-16T08:52:19Z</time>
      </trkpt>
      <trkpt lat="45.38456" lon="5.60575">
        <ele>573</ele>
        <time>2023-02-16T08:52:20Z</time>
      </trkpt>
      <trkpt lat="45.38457" lon="5.60581">
        <ele>573</ele>
        <time>2023-02-16T08:52:21Z</time>
      </trkpt>
      <trkpt lat="45.38457" lon="5.60588">
        <ele>572</ele>
        <time>2023-02-16T08:52:22Z</time>
      </trkpt>
      <trkpt lat="45.38457" lon="5.60596">
        <ele>572</ele>
        <time>2023-02-16T08:52:23Z</time>
      </trkpt>
      <trkpt lat="45.38458" lon="5.60605">
        <ele>571</ele>
        <time>2023-02-16T08:52:24Z</time>
      </trkpt>
      <trkpt lat="45.38458" lon="5.60614">
        <ele>571</ele>
        <time>2023-02-16T08:52:25Z</time>
      </trkpt>
      <trkpt lat="45.38458" lon="5.60624">
        <ele>571</ele>
        <time>2023-02-16T08:52:26Z</time>
      </trkpt>
      <trkpt lat="45.38458" lon="5.60634">
        <ele>571</ele>
        <time>2023-02-16T08:52:27Z</time>
      </trkpt>
      <trkpt lat="45.3846" lon="5.60658">
        <ele>571</ele>
        <time>2023-02-16T08:52:29Z</time>
      </trkpt>
      <trkpt lat="45.38464" lon="5.60683">
        <ele>566</ele>
        <time>2023-02-16T08:52:31Z</time>
      </trkpt>
      <trkpt lat="45.38465" lon="5.60697">
        <ele>563</ele>
        <time>2023-02-16T08:52:32Z</time>
      </trkpt>
      <trkpt lat="45.38467" lon="5.60709">
        <ele>563</ele>
        <time>2023-02-16T08:52:33Z</time>
      </trkpt>
      <trkpt lat="45.38471" lon="5.6073">
        <ele>563</ele>
        <time>2023-02-16T08:52:35Z</time>
      </trkpt>
      <trkpt lat="45.38476" lon="5.60748">
        <ele>562</ele>
        <time>2023-02-16T08:52:37Z</time>
      </trkpt>
      <trkpt lat="45.38483" lon="5.60763">
        <ele>563</ele>
        <time>2023-02-16T08:52:39Z</time>
      </trkpt>
      <trkpt lat="45.38491" lon="5.60781">
        <ele>563</ele>
        <time>2023-02-16T08:52:41Z</time>
      </trkpt>
      <trkpt lat="45.38499" lon="5.60803">
        <ele>562</ele>
        <time>2023-02-16T08:52:43Z</time>
      </trkpt>
      <trkpt lat="45.38502" lon="5.60815">
        <ele>562</ele>
        <time>2023-02-16T08:52:44Z</time>
      </trkpt>
      <trkpt lat="45.38504" lon="5.60827">
        <ele>562</ele>
        <time>2023-02-16T08:52:45Z</time>
      </trkpt>
      <trkpt lat="45.38505" lon="5.60837">
        <ele>560</ele>
        <time>2023-02-16T08:52:46Z</time>
      </trkpt>
      <trkpt lat="45.38507" lon="5.60848">
        <ele>560</ele>
        <time>2023-02-16T08:52:47Z</time>
      </trkpt>
      <trkpt lat="45.38508" lon="5.60857">
        <ele>559</ele>
        <time>2023-02-16T08:52:48Z</time>
      </trkpt>
      <trkpt lat="45.38509" lon="5.60866">
        <ele>559</ele>
        <time>2023-02-16T08:52:49Z</time>
      </trkpt>
      <trkpt lat="45.38511" lon="5.60874">
        <ele>559</ele>
        <time>2023-02-16T08:52:50Z</time>
      </trkpt>
      <trkpt lat="45.38513" lon="5.60883">
        <ele>559</ele>
        <time>2023-02-16T08:52:51Z</time>
      </trkpt>
      <trkpt lat="45.38514" lon="5.60892">
        <ele>560</ele>
        <time>2023-02-16T08:52:52Z</time>
      </trkpt>
      <trkpt lat="45.38515" lon="5.60901">
        <ele>560</ele>
        <time>2023-02-16T08:52:53Z</time>
      </trkpt>
      <trkpt lat="45.38515" lon="5.60909">
        <ele>560</ele>
        <time>2023-02-16T08:52:54Z</time>
      </trkpt>
      <trkpt lat="45.38514" lon="5.60917">
        <ele>560</ele>
        <time>2023-02-16T08:52:55Z</time>
      </trkpt>
      <trkpt lat="45.38512" lon="5.60925">
        <ele>560</ele>
        <time>2023-02-16T08:52:56Z</time>
      </trkpt>
      <trkpt lat="45.3851" lon="5.60933">
        <ele>560</ele>
        <time>2023-02-16T08:52:57Z</time>
      </trkpt>
      <trkpt lat="45.38506" lon="5.60941">
        <ele>559</ele>
        <time>2023-02-16T08:52:58Z</time>
      </trkpt>
      <trkpt lat="45.38501" lon="5.60946">
        <ele>559</ele>
        <time>2023-02-16T08:52:59Z</time>
      </trkpt>
      <trkpt lat="45.38494" lon="5.60949">
        <ele>559</ele>
        <time>2023-02-16T08:53:00Z</time>
      </trkpt>
      <trkpt lat="45.38487" lon="5.6095">
        <ele>556</ele>
        <time>2023-02-16T08:53:01Z</time>
      </trkpt>
      <trkpt lat="45.38479" lon="5.60949">
        <ele>556</ele>
        <time>2023-02-16T08:53:02Z</time>
      </trkpt>
      <trkpt lat="45.38471" lon="5.60949">
        <ele>556</ele>
        <time>2023-02-16T08:53:03Z</time>
      </trkpt>
      <trkpt lat="45.38463" lon="5.60949">
        <ele>556</ele>
        <time>2023-02-16T08:53:04Z</time>
      </trkpt>
      <trkpt lat="45.38454" lon="5.60951">
        <ele>556</ele>
        <time>2023-02-16T08:53:05Z</time>
      </trkpt>
      <trkpt lat="45.38446" lon="5.60956">
        <ele>555</ele>
        <time>2023-02-16T08:53:06Z</time>
      </trkpt>
      <trkpt lat="45.38438" lon="5.60962">
        <ele>555</ele>
        <time>2023-02-16T08:53:07Z</time>
      </trkpt>
      <trkpt lat="45.38431" lon="5.60969">
        <ele>555</ele>
        <time>2023-02-16T08:53:08Z</time>
      </trkpt>
      <trkpt lat="45.38424" lon="5.60978">
        <ele>555</ele>
        <time>2023-02-16T08:53:09Z</time>
      </trkpt>
      <trkpt lat="45.38417" lon="5.60987">
        <ele>552</ele>
        <time>2023-02-16T08:53:10Z</time>
      </trkpt>
      <trkpt lat="45.38412" lon="5.60999">
        <ele>552</ele>
        <time>2023-02-16T08:53:11Z</time>
      </trkpt>
      <trkpt lat="45.38409" lon="5.61013">
        <ele>551</ele>
        <time>2023-02-16T08:53:12Z</time>
      </trkpt>
      <trkpt lat="45.38407" lon="5.61028">
        <ele>550</ele>
        <time>2023-02-16T08:53:13Z</time>
      </trkpt>
      <trkpt lat="45.38406" lon="5.61041">
        <ele>550</ele>
        <time>2023-02-16T08:53:14Z</time>
      </trkpt>
      <trkpt lat="45.38404" lon="5.61051">
        <ele>550</ele>
        <time>2023-02-16T08:53:15Z</time>
      </trkpt>
      <trkpt lat="45.38402" lon="5.61059">
        <ele>549</ele>
        <time>2023-02-16T08:53:16Z</time>
      </trkpt>
      <trkpt lat="45.38399" lon="5.61062">
        <ele>549</ele>
        <time>2023-02-16T08:53:17Z</time>
      </trkpt>
      <trkpt lat="45.38395" lon="5.61059">
        <ele>545</ele>
        <time>2023-02-16T08:53:18Z</time>
      </trkpt>
      <trkpt lat="45.38393" lon="5.61052">
        <ele>543</ele>
        <time>2023-02-16T08:53:19Z</time>
      </trkpt>
      <trkpt lat="45.38391" lon="5.61046">
        <ele>543</ele>
        <time>2023-02-16T08:53:20Z</time>
      </trkpt>
      <trkpt lat="45.38388" lon="5.61043">
        <ele>543</ele>
        <time>2023-02-16T08:53:21Z</time>
      </trkpt>
      <trkpt lat="45.38384" lon="5.61045">
        <ele>543</ele>
        <time>2023-02-16T08:53:22Z</time>
      </trkpt>
      <trkpt lat="45.38382" lon="5.61051">
        <ele>541</ele>
        <time>2023-02-16T08:53:23Z</time>
      </trkpt>
      <trkpt lat="45.3838" lon="5.6106">
        <ele>540</ele>
        <time>2023-02-16T08:53:24Z</time>
      </trkpt>
      <trkpt lat="45.38378" lon="5.6107">
        <ele>540</ele>
        <time>2023-02-16T08:53:25Z</time>
      </trkpt>
      <trkpt lat="45.38376" lon="5.61081">
        <ele>540</ele>
        <time>2023-02-16T08:53:26Z</time>
      </trkpt>
      <trkpt lat="45.38374" lon="5.61092">
        <ele>539</ele>
        <time>2023-02-16T08:53:27Z</time>
      </trkpt>
      <trkpt lat="45.38373" lon="5.61105">
        <ele>539</ele>
        <time>2023-02-16T08:53:28Z</time>
      </trkpt>
      <trkpt lat="45.38373" lon="5.61117">
        <ele>539</ele>
        <time>2023-02-16T08:53:29Z</time>
      </trkpt>
      <trkpt lat="45.38375" lon="5.61129">
        <ele>536</ele>
        <time>2023-02-16T08:53:30Z</time>
      </trkpt>
      <trkpt lat="45.38376" lon="5.6114">
        <ele>536</ele>
        <time>2023-02-16T08:53:31Z</time>
      </trkpt>
      <trkpt lat="45.38374" lon="5.6115">
        <ele>534</ele>
        <time>2023-02-16T08:53:32Z</time>
      </trkpt>
      <trkpt lat="45.38368" lon="5.61159">
        <ele>531</ele>
        <time>2023-02-16T08:53:33Z</time>
      </trkpt>
      <trkpt lat="45.38361" lon="5.61167">
        <ele>531</ele>
        <time>2023-02-16T08:53:34Z</time>
      </trkpt>
      <trkpt lat="45.38352" lon="5.61175">
        <ele>531</ele>
        <time>2023-02-16T08:53:35Z</time>
      </trkpt>
      <trkpt lat="45.38345" lon="5.61184">
        <ele>528</ele>
        <time>2023-02-16T08:53:36Z</time>
      </trkpt>
      <trkpt lat="45.38338" lon="5.61192">
        <ele>528</ele>
        <time>2023-02-16T08:53:37Z</time>
      </trkpt>
      <trkpt lat="45.38332" lon="5.612">
        <ele>524</ele>
        <time>2023-02-16T08:53:38Z</time>
      </trkpt>
      <trkpt lat="45.38328" lon="5.61207">
        <ele>520</ele>
        <time>2023-02-16T08:53:39Z</time>
      </trkpt>
      <trkpt lat="45.38325" lon="5.61214">
        <ele>520</ele>
        <time>2023-02-16T08:53:40Z</time>
      </trkpt>
      <trkpt lat="45.38323" lon="5.61221">
        <ele>520</ele>
        <time>2023-02-16T08:53:41Z</time>
      </trkpt>
      <trkpt lat="45.38322" lon="5.61228">
        <ele>519</ele>
        <time>2023-02-16T08:53:42Z</time>
      </trkpt>
      <trkpt lat="45.38322" lon="5.61235">
        <ele>519</ele>
        <time>2023-02-16T08:53:43Z</time>
      </trkpt>
      <trkpt lat="45.38322" lon="5.61242">
        <ele>517</ele>
        <time>2023-02-16T08:53:44Z</time>
      </trkpt>
      <trkpt lat="45.38322" lon="5.61249">
        <ele>517</ele>
        <time>2023-02-16T08:53:45Z</time>
      </trkpt>
      <trkpt lat="45.38321" lon="5.61257">
        <ele>516</ele>
        <time>2023-02-16T08:53:46Z</time>
      </trkpt>
      <trkpt lat="45.38321" lon="5.61265">
        <ele>516</ele>
        <time>2023-02-16T08:53:47Z</time>
      </trkpt>
      <trkpt lat="45.3832" lon="5.61273">
        <ele>516</ele>
        <time>2023-02-16T08:53:48Z</time>
      </trkpt>
      <trkpt lat="45.3832" lon="5.61282">
        <ele>516</ele>
        <time>2023-02-16T08:53:49Z</time>
      </trkpt>
      <trkpt lat="45.38319" lon="5.6129">
        <ele>516</ele>
        <time>2023-02-16T08:53:50Z</time>
      </trkpt>
      <trkpt lat="45.38319" lon="5.61298">
        <ele>516</ele>
        <time>2023-02-16T08:53:51Z</time>
      </trkpt>
      <trkpt lat="45.38318" lon="5.61307">
        <ele>516</ele>
        <time>2023-02-16T08:53:52Z</time>
      </trkpt>
      <trkpt lat="45.38318" lon="5.61316">
        <ele>516</ele>
        <time>2023-02-16T08:53:53Z</time>
      </trkpt>
      <trkpt lat="45.38318" lon="5.61324">
        <ele>516</ele>
        <time>2023-02-16T08:53:54Z</time>
      </trkpt>
      <trkpt lat="45.38318" lon="5.61333">
        <ele>516</ele>
        <time>2023-02-16T08:53:55Z</time>
      </trkpt>
      <trkpt lat="45.38318" lon="5.61342">
        <ele>517</ele>
        <time>2023-02-16T08:53:56Z</time>
      </trkpt>
      <trkpt lat="45.38318" lon="5.61351">
        <ele>517</ele>
        <time>2023-02-16T08:53:57Z</time>
      </trkpt>
      <trkpt lat="45.38318" lon="5.6136">
        <ele>517</ele>
        <time>2023-02-16T08:53:58Z</time>
      </trkpt>
      <trkpt lat="45.38318" lon="5.61369">
        <ele>517</ele>
        <time>2023-02-16T08:53:59Z</time>
      </trkpt>
      <trkpt lat="45.38318" lon="5.61378">
        <ele>516</ele>
        <time>2023-02-16T08:54:00Z</time>
      </trkpt>
      <trkpt lat="45.38317" lon="5.61387">
        <ele>516</ele>
        <time>2023-02-16T08:54:01Z</time>
      </trkpt>
      <trkpt lat="45.38318" lon="5.61396">
        <ele>515</ele>
        <time>2023-02-16T08:54:02Z</time>
      </trkpt>
      <trkpt lat="45.38318" lon="5.61403">
        <ele>515</ele>
        <time>2023-02-16T08:54:03Z</time>
      </trkpt>
      <trkpt lat="45.38318" lon="5.61408">
        <ele>515</ele>
        <time>2023-02-16T08:54:04Z</time>
      </trkpt>
      <trkpt lat="45.38316" lon="5.61412">
        <ele>515</ele>
        <time>2023-02-16T08:54:05Z</time>
      </trkpt>
      <trkpt lat="45.38314" lon="5.61415">
        <ele>514</ele>
        <time>2023-02-16T08:54:06Z</time>
      </trkpt>
      <trkpt lat="45.38311" lon="5.61417">
        <ele>514</ele>
        <time>2023-02-16T08:54:07Z</time>
      </trkpt>
      <trkpt lat="45.38308" lon="5.61417">
        <ele>515</ele>
        <time>2023-02-16T08:54:08Z</time>
      </trkpt>
      <trkpt lat="45.38306" lon="5.61416">
        <ele>515</ele>
        <time>2023-02-16T08:54:09Z</time>
      </trkpt>
      <trkpt lat="45.38303" lon="5.61415">
        <ele>515</ele>
        <time>2023-02-16T08:54:10Z</time>
      </trkpt>
      <trkpt lat="45.383" lon="5.61415">
        <ele>515</ele>
        <time>2023-02-16T08:54:11Z</time>
      </trkpt>
      <trkpt lat="45.38297" lon="5.61415">
        <ele>515</ele>
        <time>2023-02-16T08:54:12Z</time>
      </trkpt>
      <trkpt lat="45.38294" lon="5.61415">
        <ele>515</ele>
        <time>2023-02-16T08:54:13Z</time>
      </trkpt>
      <trkpt lat="45.38291" lon="5.61415">
        <ele>515</ele>
        <time>2023-02-16T08:54:14Z</time>
      </trkpt>
      <trkpt lat="45.38288" lon="5.61415">
        <ele>515</ele>
        <time>2023-02-16T08:54:15Z</time>
      </trkpt>
      <trkpt lat="45.38285" lon="5.61415">
        <ele>515</ele>
        <time>2023-02-16T08:54:16Z</time>
      </trkpt>
      <trkpt lat="45.38282" lon="5.61415">
        <ele>516</ele>
        <time>2023-02-16T08:54:17Z</time>
      </trkpt>
      <trkpt lat="45.38279" lon="5.61415">
        <ele>516</ele>
        <time>2023-02-16T08:54:18Z</time>
      </trkpt>
      <trkpt lat="45.38277" lon="5.61415">
        <ele>516</ele>
        <time>2023-02-16T08:54:19Z</time>
      </trkpt>
      <trkpt lat="45.38274" lon="5.61414">
        <ele>516</ele>
        <time>2023-02-16T08:54:20Z</time>
      </trkpt>
      <trkpt lat="45.38271" lon="5.61414">
        <ele>516</ele>
        <time>2023-02-16T08:54:21Z</time>
      </trkpt>
      <trkpt lat="45.38268" lon="5.61414">
        <ele>516</ele>
        <time>2023-02-16T08:54:22Z</time>
      </trkpt>
      <trkpt lat="45.38266" lon="5.61415">
        <ele>517</ele>
        <time>2023-02-16T08:54:23Z</time>
      </trkpt>
      <trkpt lat="45.38263" lon="5.61416">
        <ele>517</ele>
        <time>2023-02-16T08:54:24Z</time>
      </trkpt>
      <trkpt lat="45.3826" lon="5.61417">
        <ele>518</ele>
        <time>2023-02-16T08:54:25Z</time>
      </trkpt>
      <trkpt lat="45.38258" lon="5.61418">
        <ele>518</ele>
        <time>2023-02-16T08:54:26Z</time>
      </trkpt>
      <trkpt lat="45.38256" lon="5.61419">
        <ele>519</ele>
        <time>2023-02-16T08:54:27Z</time>
      </trkpt>
      <trkpt lat="45.38253" lon="5.61421">
        <ele>519</ele>
        <time>2023-02-16T08:54:28Z</time>
      </trkpt>
      <trkpt lat="45.38252" lon="5.61424">
        <ele>519</ele>
        <time>2023-02-16T08:54:29Z</time>
      </trkpt>
      <trkpt lat="45.38251" lon="5.61427">
        <ele>519</ele>
        <time>2023-02-16T08:54:30Z</time>
      </trkpt>
      <trkpt lat="45.3825" lon="5.6143">
        <ele>519</ele>
        <time>2023-02-16T08:54:31Z</time>
      </trkpt>
      <trkpt lat="45.38249" lon="5.61434">
        <ele>520</ele>
        <time>2023-02-16T08:54:32Z</time>
      </trkpt>
      <trkpt lat="45.38249" lon="5.61437">
        <ele>521</ele>
        <time>2023-02-16T08:54:33Z</time>
      </trkpt>
      <trkpt lat="45.38249" lon="5.61441">
        <ele>521</ele>
        <time>2023-02-16T08:54:34Z</time>
      </trkpt>
      <trkpt lat="45.38248" lon="5.61445">
        <ele>522</ele>
        <time>2023-02-16T08:54:35Z</time>
      </trkpt>
      <trkpt lat="45.38248" lon="5.61448">
        <ele>522</ele>
        <time>2023-02-16T08:54:36Z</time>
      </trkpt>
      <trkpt lat="45.38248" lon="5.61452">
        <ele>522</ele>
        <time>2023-02-16T08:54:37Z</time>
      </trkpt>
      <trkpt lat="45.38249" lon="5.61457">
        <ele>522</ele>
        <time>2023-02-16T08:54:38Z</time>
      </trkpt>
      <trkpt lat="45.38249" lon="5.61461">
        <ele>523</ele>
        <time>2023-02-16T08:54:39Z</time>
      </trkpt>
      <trkpt lat="45.3825" lon="5.61466">
        <ele>523</ele>
        <time>2023-02-16T08:54:40Z</time>
      </trkpt>
      <trkpt lat="45.3825" lon="5.61471">
        <ele>523</ele>
        <time>2023-02-16T08:54:41Z</time>
      </trkpt>
      <trkpt lat="45.38251" lon="5.61476">
        <ele>523</ele>
        <time>2023-02-16T08:54:42Z</time>
      </trkpt>
      <trkpt lat="45.38251" lon="5.61482">
        <ele>523</ele>
        <time>2023-02-16T08:54:43Z</time>
      </trkpt>
      <trkpt lat="45.38252" lon="5.61487">
        <ele>523</ele>
        <time>2023-02-16T08:54:44Z</time>
      </trkpt>
      <trkpt lat="45.38252" lon="5.61493">
        <ele>523</ele>
        <time>2023-02-16T08:54:45Z</time>
      </trkpt>
      <trkpt lat="45.38252" lon="5.61499">
        <ele>523</ele>
        <time>2023-02-16T08:54:46Z</time>
      </trkpt>
      <trkpt lat="45.38252" lon="5.61505">
        <ele>523</ele>
        <time>2023-02-16T08:54:47Z</time>
      </trkpt>
      <trkpt lat="45.38252" lon="5.61512">
        <ele>523</ele>
        <time>2023-02-16T08:54:48Z</time>
      </trkpt>
      <trkpt lat="45.38252" lon="5.61517">
        <ele>523</ele>
        <time>2023-02-16T08:54:49Z</time>
      </trkpt>
      <trkpt lat="45.38252" lon="5.61523">
        <ele>523</ele>
        <time>2023-02-16T08:54:50Z</time>
      </trkpt>
      <trkpt lat="45.38251" lon="5.61529">
        <ele>524</ele>
        <time>2023-02-16T08:54:51Z</time>
      </trkpt>
      <trkpt lat="45.38251" lon="5.61534">
        <ele>524</ele>
        <time>2023-02-16T08:54:52Z</time>
      </trkpt>
      <trkpt lat="45.38251" lon="5.61539">
        <ele>524</ele>
        <time>2023-02-16T08:54:53Z</time>
      </trkpt>
      <trkpt lat="45.38251" lon="5.61545">
        <ele>524</ele>
        <time>2023-02-16T08:54:54Z</time>
      </trkpt>
      <trkpt lat="45.3825" lon="5.61551">
        <ele>524</ele>
        <time>2023-02-16T08:54:55Z</time>
      </trkpt>
      <trkpt lat="45.38249" lon="5.61557">
        <ele>524</ele>
        <time>2023-02-16T08:54:56Z</time>
      </trkpt>
      <trkpt lat="45.38248" lon="5.61563">
        <ele>524</ele>
        <time>2023-02-16T08:54:57Z</time>
      </trkpt>
      <trkpt lat="45.38247" lon="5.61568">
        <ele>524</ele>
        <time>2023-02-16T08:54:58Z</time>
      </trkpt>
      <trkpt lat="45.38246" lon="5.61573">
        <ele>524</ele>
        <time>2023-02-16T08:54:59Z</time>
      </trkpt>
      <trkpt lat="45.38244" lon="5.61578">
        <ele>524</ele>
        <time>2023-02-16T08:55:00Z</time>
      </trkpt>
      <trkpt lat="45.38242" lon="5.61582">
        <ele>524</ele>
        <time>2023-02-16T08:55:01Z</time>
      </trkpt>
      <trkpt lat="45.38241" lon="5.61586">
        <ele>525</ele>
        <time>2023-02-16T08:55:02Z</time>
      </trkpt>
      <trkpt lat="45.38239" lon="5.6159">
        <ele>525</ele>
        <time>2023-02-16T08:55:03Z</time>
      </trkpt>
      <trkpt lat="45.38237" lon="5.61593">
        <ele>525</ele>
        <time>2023-02-16T08:55:04Z</time>
      </trkpt>
      <trkpt lat="45.38235" lon="5.61596">
        <ele>525</ele>
        <time>2023-02-16T08:55:05Z</time>
      </trkpt>
      <trkpt lat="45.38233" lon="5.61598">
        <ele>525</ele>
        <time>2023-02-16T08:55:06Z</time>
      </trkpt>
      <trkpt lat="45.38231" lon="5.61601">
        <ele>525</ele>
        <time>2023-02-16T08:55:07Z</time>
      </trkpt>
      <trkpt lat="45.3823" lon="5.61604">
        <ele>525</ele>
        <time>2023-02-16T08:55:08Z</time>
      </trkpt>
      <trkpt lat="45.38228" lon="5.61607">
        <ele>526</ele>
        <time>2023-02-16T08:55:09Z</time>
      </trkpt>
      <trkpt lat="45.38227" lon="5.6161">
        <ele>526</ele>
        <time>2023-02-16T08:55:10Z</time>
      </trkpt>
      <trkpt lat="45.38226" lon="5.61613">
        <ele>526</ele>
        <time>2023-02-16T08:55:11Z</time>
      </trkpt>
      <trkpt lat="45.38225" lon="5.61616">
        <ele>527</ele>
        <time>2023-02-16T08:55:12Z</time>
      </trkpt>
      <trkpt lat="45.38223" lon="5.61619">
        <ele>527</ele>
        <time>2023-02-16T08:55:13Z</time>
      </trkpt>
      <trkpt lat="45.38221" lon="5.61622">
        <ele>527</ele>
        <time>2023-02-16T08:55:14Z</time>
      </trkpt>
      <trkpt lat="45.38219" lon="5.61624">
        <ele>528</ele>
        <time>2023-02-16T08:55:15Z</time>
      </trkpt>
      <trkpt lat="45.38217" lon="5.61626">
        <ele>528</ele>
        <time>2023-02-16T08:55:16Z</time>
      </trkpt>
      <trkpt lat="45.38216" lon="5.61628">
        <ele>528</ele>
        <time>2023-02-16T08:55:17Z</time>
      </trkpt>
      <trkpt lat="45.38214" lon="5.61629">
        <ele>529</ele>
        <time>2023-02-16T08:55:18Z</time>
      </trkpt>
      <trkpt lat="45.38211" lon="5.61632">
        <ele>529</ele>
        <time>2023-02-16T08:55:20Z</time>
      </trkpt>
      <trkpt lat="45.38209" lon="5.61635">
        <ele>530</ele>
        <time>2023-02-16T08:55:21Z</time>
      </trkpt>
      <trkpt lat="45.38207" lon="5.61637">
        <ele>530</ele>
        <time>2023-02-16T08:55:22Z</time>
      </trkpt>
      <trkpt lat="45.38205" lon="5.61639">
        <ele>530</ele>
        <time>2023-02-16T08:55:23Z</time>
      </trkpt>
      <trkpt lat="45.38204" lon="5.61642">
        <ele>530</ele>
        <time>2023-02-16T08:55:24Z</time>
      </trkpt>
      <trkpt lat="45.38203" lon="5.61646">
        <ele>530</ele>
        <time>2023-02-16T08:55:25Z</time>
      </trkpt>
      <trkpt lat="45.38201" lon="5.61649">
        <ele>531</ele>
        <time>2023-02-16T08:55:26Z</time>
      </trkpt>
      <trkpt lat="45.382" lon="5.61652">
        <ele>531</ele>
        <time>2023-02-16T08:55:27Z</time>
      </trkpt>
      <trkpt lat="45.38198" lon="5.61655">
        <ele>531</ele>
        <time>2023-02-16T08:55:28Z</time>
      </trkpt>
      <trkpt lat="45.38196" lon="5.61659">
        <ele>531</ele>
        <time>2023-02-16T08:55:29Z</time>
      </trkpt>
      <trkpt lat="45.38195" lon="5.61662">
        <ele>531</ele>
        <time>2023-02-16T08:55:30Z</time>
      </trkpt>
      <trkpt lat="45.38193" lon="5.61665">
        <ele>531</ele>
        <time>2023-02-16T08:55:31Z</time>
      </trkpt>
      <trkpt lat="45.38191" lon="5.61668">
        <ele>531</ele>
        <time>2023-02-16T08:55:32Z</time>
      </trkpt>
      <trkpt lat="45.3819" lon="5.61672">
        <ele>531</ele>
        <time>2023-02-16T08:55:33Z</time>
      </trkpt>
      <trkpt lat="45.38185" lon="5.61686">
        <ele>531</ele>
        <time>2023-02-16T08:55:37Z</time>
      </trkpt>
      <trkpt lat="45.3818" lon="5.61698">
        <ele>532</ele>
        <time>2023-02-16T08:55:40Z</time>
      </trkpt>
      <trkpt lat="45.38173" lon="5.6171">
        <ele>532</ele>
        <time>2023-02-16T08:55:43Z</time>
      </trkpt>
      <trkpt lat="45.38171" lon="5.61714">
        <ele>532</ele>
        <time>2023-02-16T08:55:44Z</time>
      </trkpt>
      <trkpt lat="45.38168" lon="5.61717">
        <ele>532</ele>
        <time>2023-02-16T08:55:45Z</time>
      </trkpt>
      <trkpt lat="45.38166" lon="5.61721">
        <ele>532</ele>
        <time>2023-02-16T08:55:46Z</time>
      </trkpt>
      <trkpt lat="45.38163" lon="5.61724">
        <ele>532</ele>
        <time>2023-02-16T08:55:47Z</time>
      </trkpt>
      <trkpt lat="45.38161" lon="5.61727">
        <ele>533</ele>
        <time>2023-02-16T08:55:48Z</time>
      </trkpt>
      <trkpt lat="45.38159" lon="5.6173">
        <ele>533</ele>
        <time>2023-02-16T08:55:49Z</time>
      </trkpt>
      <trkpt lat="45.38157" lon="5.61732">
        <ele>533</ele>
        <time>2023-02-16T08:55:50Z</time>
      </trkpt>
      <trkpt lat="45.38155" lon="5.61735">
        <ele>533</ele>
        <time>2023-02-16T08:55:51Z</time>
      </trkpt>
      <trkpt lat="45.38152" lon="5.61737">
        <ele>534</ele>
        <time>2023-02-16T08:55:52Z</time>
      </trkpt>
      <trkpt lat="45.3815" lon="5.61739">
        <ele>534</ele>
        <time>2023-02-16T08:55:53Z</time>
      </trkpt>
      <trkpt lat="45.38148" lon="5.6174">
        <ele>534</ele>
        <time>2023-02-16T08:55:54Z</time>
      </trkpt>
      <trkpt lat="45.38146" lon="5.61741">
        <ele>534</ele>
        <time>2023-02-16T08:55:55Z</time>
      </trkpt>
      <trkpt lat="45.38144" lon="5.61743">
        <ele>535</ele>
        <time>2023-02-16T08:55:56Z</time>
      </trkpt>
      <trkpt lat="45.38136" lon="5.6175">
        <ele>535</ele>
        <time>2023-02-16T08:56:00Z</time>
      </trkpt>
      <trkpt lat="45.38129" lon="5.61758">
        <ele>536</ele>
        <time>2023-02-16T08:56:04Z</time>
      </trkpt>
      <trkpt lat="45.38125" lon="5.61761">
        <ele>537</ele>
        <time>2023-02-16T08:56:06Z</time>
      </trkpt>
      <trkpt lat="45.38123" lon="5.61763">
        <ele>537</ele>
        <time>2023-02-16T08:56:07Z</time>
      </trkpt>
      <trkpt lat="45.38122" lon="5.61764">
        <ele>537</ele>
        <time>2023-02-16T08:56:08Z</time>
      </trkpt>
      <trkpt lat="45.3812" lon="5.61766">
        <ele>537</ele>
        <time>2023-02-16T08:56:09Z</time>
      </trkpt>
      <trkpt lat="45.38119" lon="5.61769">
        <ele>537</ele>
        <time>2023-02-16T08:56:10Z</time>
      </trkpt>
      <trkpt lat="45.38117" lon="5.61771">
        <ele>537</ele>
        <time>2023-02-16T08:56:11Z</time>
      </trkpt>
      <trkpt lat="45.38115" lon="5.61774">
        <ele>537</ele>
        <time>2023-02-16T08:56:13Z</time>
      </trkpt>
      <trkpt lat="45.38113" lon="5.61777">
        <ele>538</ele>
        <time>2023-02-16T08:56:15Z</time>
      </trkpt>
      <trkpt lat="45.38111" lon="5.61779">
        <ele>538</ele>
        <time>2023-02-16T08:56:16Z</time>
      </trkpt>
      <trkpt lat="45.38109" lon="5.6178">
        <ele>538</ele>
        <time>2023-02-16T08:56:17Z</time>
      </trkpt>
      <trkpt lat="45.38108" lon="5.61781">
        <ele>539</ele>
        <time>2023-02-16T08:56:18Z</time>
      </trkpt>
      <trkpt lat="45.38106" lon="5.61782">
        <ele>539</ele>
        <time>2023-02-16T08:56:19Z</time>
      </trkpt>
      <trkpt lat="45.38104" lon="5.61784">
        <ele>539</ele>
        <time>2023-02-16T08:56:20Z</time>
      </trkpt>
      <trkpt lat="45.38102" lon="5.61785">
        <ele>540</ele>
        <time>2023-02-16T08:56:21Z</time>
      </trkpt>
      <trkpt lat="45.381" lon="5.61786">
        <ele>540</ele>
        <time>2023-02-16T08:56:22Z</time>
      </trkpt>
      <trkpt lat="45.38099" lon="5.61787">
        <ele>541</ele>
        <time>2023-02-16T08:56:23Z</time>
      </trkpt>
      <trkpt lat="45.38097" lon="5.61789">
        <ele>541</ele>
        <time>2023-02-16T08:56:24Z</time>
      </trkpt>
      <trkpt lat="45.38095" lon="5.6179">
        <ele>542</ele>
        <time>2023-02-16T08:56:25Z</time>
      </trkpt>
      <trkpt lat="45.38093" lon="5.61791">
        <ele>542</ele>
        <time>2023-02-16T08:56:26Z</time>
      </trkpt>
      <trkpt lat="45.38091" lon="5.61792">
        <ele>542</ele>
        <time>2023-02-16T08:56:27Z</time>
      </trkpt>
      <trkpt lat="45.38089" lon="5.61794">
        <ele>542</ele>
        <time>2023-02-16T08:56:28Z</time>
      </trkpt>
      <trkpt lat="45.38087" lon="5.61795">
        <ele>543</ele>
        <time>2023-02-16T08:56:29Z</time>
      </trkpt>
      <trkpt lat="45.38086" lon="5.61795">
        <ele>543</ele>
        <time>2023-02-16T08:56:30Z</time>
      </trkpt>
      <trkpt lat="45.38084" lon="5.61796">
        <ele>543</ele>
        <time>2023-02-16T08:56:31Z</time>
      </trkpt>
      <trkpt lat="45.38082" lon="5.61797">
        <ele>543</ele>
        <time>2023-02-16T08:56:32Z</time>
      </trkpt>
      <trkpt lat="45.38078" lon="5.61797">
        <ele>543</ele>
        <time>2023-02-16T08:56:34Z</time>
      </trkpt>
      <trkpt lat="45.38075" lon="5.61797">
        <ele>543</ele>
        <time>2023-02-16T08:56:36Z</time>
      </trkpt>
      <trkpt lat="45.38071" lon="5.61797">
        <ele>544</ele>
        <time>2023-02-16T08:56:38Z</time>
      </trkpt>
      <trkpt lat="45.38068" lon="5.61797">
        <ele>545</ele>
        <time>2023-02-16T08:56:40Z</time>
      </trkpt>
      <trkpt lat="45.38065" lon="5.61797">
        <ele>546</ele>
        <time>2023-02-16T08:56:42Z</time>
      </trkpt>
      <trkpt lat="45.38062" lon="5.61797">
        <ele>546</ele>
        <time>2023-02-16T08:56:44Z</time>
      </trkpt>
      <trkpt lat="45.38059" lon="5.61798">
        <ele>547</ele>
        <time>2023-02-16T08:56:46Z</time>
      </trkpt>
      <trkpt lat="45.38056" lon="5.61798">
        <ele>548</ele>
        <time>2023-02-16T08:56:48Z</time>
      </trkpt>
      <trkpt lat="45.38054" lon="5.61799">
        <ele>548</ele>
        <time>2023-02-16T08:56:50Z</time>
      </trkpt>
      <trkpt lat="45.38051" lon="5.618">
        <ele>548</ele>
        <time>2023-02-16T08:56:52Z</time>
      </trkpt>
      <trkpt lat="45.38048" lon="5.61801">
        <ele>549</ele>
        <time>2023-02-16T08:56:54Z</time>
      </trkpt>
      <trkpt lat="45.38045" lon="5.61802">
        <ele>550</ele>
        <time>2023-02-16T08:56:56Z</time>
      </trkpt>
      <trkpt lat="45.38042" lon="5.61803">
        <ele>550</ele>
        <time>2023-02-16T08:56:58Z</time>
      </trkpt>
      <trkpt lat="45.38039" lon="5.61805">
        <ele>550</ele>
        <time>2023-02-16T08:57:00Z</time>
      </trkpt>
      <trkpt lat="45.38037" lon="5.61807">
        <ele>550</ele>
        <time>2023-02-16T08:57:02Z</time>
      </trkpt>
      <trkpt lat="45.38034" lon="5.61808">
        <ele>551</ele>
        <time>2023-02-16T08:57:04Z</time>
      </trkpt>
      <trkpt lat="45.38031" lon="5.61809">
        <ele>552</ele>
        <time>2023-02-16T08:57:06Z</time>
      </trkpt>
      <trkpt lat="45.38029" lon="5.61812">
        <ele>553</ele>
        <time>2023-02-16T08:57:08Z</time>
      </trkpt>
      <trkpt lat="45.38026" lon="5.61814">
        <ele>554</ele>
        <time>2023-02-16T08:57:10Z</time>
      </trkpt>
      <trkpt lat="45.38021" lon="5.61819">
        <ele>554</ele>
        <time>2023-02-16T08:57:13Z</time>
      </trkpt>
      <trkpt lat="45.38018" lon="5.61822">
        <ele>555</ele>
        <time>2023-02-16T08:57:15Z</time>
      </trkpt>
      <trkpt lat="45.38016" lon="5.61823">
        <ele>555</ele>
        <time>2023-02-16T08:57:16Z</time>
      </trkpt>
      <trkpt lat="45.38014" lon="5.61825">
        <ele>555</ele>
        <time>2023-02-16T08:57:17Z</time>
      </trkpt>
      <trkpt lat="45.3801" lon="5.61829">
        <ele>555</ele>
        <time>2023-02-16T08:57:19Z</time>
      </trkpt>
      <trkpt lat="45.38008" lon="5.61832">
        <ele>555</ele>
        <time>2023-02-16T08:57:20Z</time>
      </trkpt>
      <trkpt lat="45.38006" lon="5.61834">
        <ele>555</ele>
        <time>2023-02-16T08:57:21Z</time>
      </trkpt>
      <trkpt lat="45.38002" lon="5.61837">
        <ele>555</ele>
        <time>2023-02-16T08:57:23Z</time>
      </trkpt>
      <trkpt lat="45.38001" lon="5.61839">
        <ele>555</ele>
        <time>2023-02-16T08:57:24Z</time>
      </trkpt>
      <trkpt lat="45.37999" lon="5.61841">
        <ele>555</ele>
        <time>2023-02-16T08:57:25Z</time>
      </trkpt>
      <trkpt lat="45.37998" lon="5.61844">
        <ele>555</ele>
        <time>2023-02-16T08:57:26Z</time>
      </trkpt>
      <trkpt lat="45.37996" lon="5.61847">
        <ele>555</ele>
        <time>2023-02-16T08:57:27Z</time>
      </trkpt>
      <trkpt lat="45.37995" lon="5.61849">
        <ele>555</ele>
        <time>2023-02-16T08:57:28Z</time>
      </trkpt>
      <trkpt lat="45.37989" lon="5.61862">
        <ele>556</ele>
        <time>2023-02-16T08:57:32Z</time>
      </trkpt>
      <trkpt lat="45.37986" lon="5.61865">
        <ele>557</ele>
        <time>2023-02-16T08:57:33Z</time>
      </trkpt>
      <trkpt lat="45.37984" lon="5.61869">
        <ele>557</ele>
        <time>2023-02-16T08:57:34Z</time>
      </trkpt>
      <trkpt lat="45.37981" lon="5.61872">
        <ele>557</ele>
        <time>2023-02-16T08:57:35Z</time>
      </trkpt>
      <trkpt lat="45.37979" lon="5.61875">
        <ele>557</ele>
        <time>2023-02-16T08:57:36Z</time>
      </trkpt>
      <trkpt lat="45.37977" lon="5.61877">
        <ele>557</ele>
        <time>2023-02-16T08:57:37Z</time>
      </trkpt>
      <trkpt lat="45.37974" lon="5.61879">
        <ele>557</ele>
        <time>2023-02-16T08:57:38Z</time>
      </trkpt>
      <trkpt lat="45.37972" lon="5.61882">
        <ele>557</ele>
        <time>2023-02-16T08:57:39Z</time>
      </trkpt>
      <trkpt lat="45.37969" lon="5.61885">
        <ele>557</ele>
        <time>2023-02-16T08:57:40Z</time>
      </trkpt>
      <trkpt lat="45.37967" lon="5.61888">
        <ele>557</ele>
        <time>2023-02-16T08:57:41Z</time>
      </trkpt>
      <trkpt lat="45.37965" lon="5.61891">
        <ele>557</ele>
        <time>2023-02-16T08:57:42Z</time>
      </trkpt>
      <trkpt lat="45.37963" lon="5.61894">
        <ele>557</ele>
        <time>2023-02-16T08:57:43Z</time>
      </trkpt>
      <trkpt lat="45.37962" lon="5.61897">
        <ele>558</ele>
        <time>2023-02-16T08:57:44Z</time>
      </trkpt>
      <trkpt lat="45.37959" lon="5.619">
        <ele>558</ele>
        <time>2023-02-16T08:57:45Z</time>
      </trkpt>
      <trkpt lat="45.37957" lon="5.61902">
        <ele>558</ele>
        <time>2023-02-16T08:57:46Z</time>
      </trkpt>
      <trkpt lat="45.37955" lon="5.61904">
        <ele>558</ele>
        <time>2023-02-16T08:57:47Z</time>
      </trkpt>
      <trkpt lat="45.37948" lon="5.61915">
        <ele>558</ele>
        <time>2023-02-16T08:57:50Z</time>
      </trkpt>
      <trkpt lat="45.37939" lon="5.61929">
        <ele>558</ele>
        <time>2023-02-16T08:57:53Z</time>
      </trkpt>
      <trkpt lat="45.3793" lon="5.61942">
        <ele>558</ele>
        <time>2023-02-16T08:57:56Z</time>
      </trkpt>
      <trkpt lat="45.37923" lon="5.61958">
        <ele>558</ele>
        <time>2023-02-16T08:57:59Z</time>
      </trkpt>
      <trkpt lat="45.37916" lon="5.61973">
        <ele>557</ele>
        <time>2023-02-16T08:58:01Z</time>
      </trkpt>
      <trkpt lat="45.37909" lon="5.61984">
        <ele>557</ele>
        <time>2023-02-16T08:58:03Z</time>
      </trkpt>
      <trkpt lat="45.37901" lon="5.61999">
        <ele>556</ele>
        <time>2023-02-16T08:58:06Z</time>
      </trkpt>
      <trkpt lat="45.37896" lon="5.62011">
        <ele>556</ele>
        <time>2023-02-16T08:58:08Z</time>
      </trkpt>
      <trkpt lat="45.37891" lon="5.62024">
        <ele>556</ele>
        <time>2023-02-16T08:58:10Z</time>
      </trkpt>
      <trkpt lat="45.37886" lon="5.62037">
        <ele>556</ele>
        <time>2023-02-16T08:58:12Z</time>
      </trkpt>
      <trkpt lat="45.3788" lon="5.62052">
        <ele>557</ele>
        <time>2023-02-16T08:58:15Z</time>
      </trkpt>
      <trkpt lat="45.37873" lon="5.62068">
        <ele>558</ele>
        <time>2023-02-16T08:58:18Z</time>
      </trkpt>
      <trkpt lat="45.3787" lon="5.62083">
        <ele>557</ele>
        <time>2023-02-16T08:58:21Z</time>
      </trkpt>
      <trkpt lat="45.37867" lon="5.62098">
        <ele>556</ele>
        <time>2023-02-16T08:58:23Z</time>
      </trkpt>
      <trkpt lat="45.37867" lon="5.62118">
        <ele>555</ele>
        <time>2023-02-16T08:58:26Z</time>
      </trkpt>
      <trkpt lat="45.37864" lon="5.62131">
        <ele>550</ele>
        <time>2023-02-16T08:58:28Z</time>
      </trkpt>
      <trkpt lat="45.37862" lon="5.62151">
        <ele>550</ele>
        <time>2023-02-16T08:58:31Z</time>
      </trkpt>
      <trkpt lat="45.37862" lon="5.62164">
        <ele>550</ele>
        <time>2023-02-16T08:58:33Z</time>
      </trkpt>
      <trkpt lat="45.3786" lon="5.62178">
        <ele>550</ele>
        <time>2023-02-16T08:58:35Z</time>
      </trkpt>
      <trkpt lat="45.37858" lon="5.62196">
        <ele>549</ele>
        <time>2023-02-16T08:58:37Z</time>
      </trkpt>
      <trkpt lat="45.37858" lon="5.62214">
        <ele>548</ele>
        <time>2023-02-16T08:58:40Z</time>
      </trkpt>
      <trkpt lat="45.37859" lon="5.62229">
        <ele>549</ele>
        <time>2023-02-16T08:58:43Z</time>
      </trkpt>
      <trkpt lat="45.3786" lon="5.62246">
        <ele>547</ele>
        <time>2023-02-16T08:58:46Z</time>
      </trkpt>
      <trkpt lat="45.37858" lon="5.62257">
        <ele>547</ele>
        <time>2023-02-16T08:58:51Z</time>
      </trkpt>
      <trkpt lat="45.3786" lon="5.62265">
        <ele>545</ele>
        <time>2023-02-16T08:58:54Z</time>
      </trkpt>
      <trkpt lat="45.37861" lon="5.62282">
        <ele>544</ele>
        <time>2023-02-16T08:58:58Z</time>
      </trkpt>
      <trkpt lat="45.37867" lon="5.62294">
        <ele>541</ele>
        <time>2023-02-16T08:59:01Z</time>
      </trkpt>
      <trkpt lat="45.37876" lon="5.62298">
        <ele>538</ele>
        <time>2023-02-16T08:59:03Z</time>
      </trkpt>
      <trkpt lat="45.37886" lon="5.6231">
        <ele>535</ele>
        <time>2023-02-16T08:59:06Z</time>
      </trkpt>
      <trkpt lat="45.37888" lon="5.62317">
        <ele>533</ele>
        <time>2023-02-16T08:59:07Z</time>
      </trkpt>
      <trkpt lat="45.37891" lon="5.62325">
        <ele>533</ele>
        <time>2023-02-16T08:59:08Z</time>
      </trkpt>
      <trkpt lat="45.37893" lon="5.62333">
        <ele>532</ele>
        <time>2023-02-16T08:59:09Z</time>
      </trkpt>
      <trkpt lat="45.37895" lon="5.6234">
        <ele>532</ele>
        <time>2023-02-16T08:59:10Z</time>
      </trkpt>
      <trkpt lat="45.37896" lon="5.62348">
        <ele>532</ele>
        <time>2023-02-16T08:59:11Z</time>
      </trkpt>
      <trkpt lat="45.37898" lon="5.62356">
        <ele>532</ele>
        <time>2023-02-16T08:59:12Z</time>
      </trkpt>
      <trkpt lat="45.37899" lon="5.62363">
        <ele>532</ele>
        <time>2023-02-16T08:59:13Z</time>
      </trkpt>
      <trkpt lat="45.37901" lon="5.6237">
        <ele>532</ele>
        <time>2023-02-16T08:59:14Z</time>
      </trkpt>
      <trkpt lat="45.37902" lon="5.62378">
        <ele>532</ele>
        <time>2023-02-16T08:59:15Z</time>
      </trkpt>
      <trkpt lat="45.37904" lon="5.62387">
        <ele>532</ele>
        <time>2023-02-16T08:59:16Z</time>
      </trkpt>
      <trkpt lat="45.37906" lon="5.62402">
        <ele>532</ele>
        <time>2023-02-16T08:59:18Z</time>
      </trkpt>
      <trkpt lat="45.3791" lon="5.6242">
        <ele>531</ele>
        <time>2023-02-16T08:59:20Z</time>
      </trkpt>
      <trkpt lat="45.37917" lon="5.62438">
        <ele>528</ele>
        <time>2023-02-16T08:59:22Z</time>
      </trkpt>
      <trkpt lat="45.37925" lon="5.62456">
        <ele>528</ele>
        <time>2023-02-16T08:59:24Z</time>
      </trkpt>
      <trkpt lat="45.37932" lon="5.6248">
        <ele>517</ele>
        <time>2023-02-16T08:59:26Z</time>
      </trkpt>
      <trkpt lat="45.37934" lon="5.62492">
        <ele>517</ele>
        <time>2023-02-16T08:59:27Z</time>
      </trkpt>
      <trkpt lat="45.37937" lon="5.62504">
        <ele>515</ele>
        <time>2023-02-16T08:59:28Z</time>
      </trkpt>
      <trkpt lat="45.37939" lon="5.62516">
        <ele>513</ele>
        <time>2023-02-16T08:59:29Z</time>
      </trkpt>
      <trkpt lat="45.37943" lon="5.62529">
        <ele>513</ele>
        <time>2023-02-16T08:59:30Z</time>
      </trkpt>
      <trkpt lat="45.37945" lon="5.62542">
        <ele>513</ele>
        <time>2023-02-16T08:59:31Z</time>
      </trkpt>
      <trkpt lat="45.37948" lon="5.62566">
        <ele>513</ele>
        <time>2023-02-16T08:59:33Z</time>
      </trkpt>
      <trkpt lat="45.37947" lon="5.62579">
        <ele>512</ele>
        <time>2023-02-16T08:59:34Z</time>
      </trkpt>
      <trkpt lat="45.37942" lon="5.62605">
        <ele>512</ele>
        <time>2023-02-16T08:59:36Z</time>
      </trkpt>
      <trkpt lat="45.37939" lon="5.62618">
        <ele>511</ele>
        <time>2023-02-16T08:59:37Z</time>
      </trkpt>
      <trkpt lat="45.37935" lon="5.62633">
        <ele>509</ele>
        <time>2023-02-16T08:59:38Z</time>
      </trkpt>
      <trkpt lat="45.37932" lon="5.62646">
        <ele>509</ele>
        <time>2023-02-16T08:59:39Z</time>
      </trkpt>
      <trkpt lat="45.37926" lon="5.62658">
        <ele>508</ele>
        <time>2023-02-16T08:59:40Z</time>
      </trkpt>
      <trkpt lat="45.37921" lon="5.62671">
        <ele>507</ele>
        <time>2023-02-16T08:59:41Z</time>
      </trkpt>
      <trkpt lat="45.37916" lon="5.62682">
        <ele>507</ele>
        <time>2023-02-16T08:59:42Z</time>
      </trkpt>
      <trkpt lat="45.37906" lon="5.62701">
        <ele>507</ele>
        <time>2023-02-16T08:59:44Z</time>
      </trkpt>
      <trkpt lat="45.37901" lon="5.62709">
        <ele>506</ele>
        <time>2023-02-16T08:59:45Z</time>
      </trkpt>
      <trkpt lat="45.37896" lon="5.62716">
        <ele>505</ele>
        <time>2023-02-16T08:59:46Z</time>
      </trkpt>
      <trkpt lat="45.37891" lon="5.62722">
        <ele>502</ele>
        <time>2023-02-16T08:59:47Z</time>
      </trkpt>
      <trkpt lat="45.37882" lon="5.62732">
        <ele>500</ele>
        <time>2023-02-16T08:59:50Z</time>
      </trkpt>
      <trkpt lat="45.37873" lon="5.62742">
        <ele>495</ele>
        <time>2023-02-16T08:59:55Z</time>
      </trkpt>
      <trkpt lat="45.37864" lon="5.62749">
        <ele>493</ele>
        <time>2023-02-16T09:00:01Z</time>
      </trkpt>
      <trkpt lat="45.37855" lon="5.62759">
        <ele>491</ele>
        <time>2023-02-16T09:00:06Z</time>
      </trkpt>
      <trkpt lat="45.37846" lon="5.62767">
        <ele>491</ele>
        <time>2023-02-16T09:00:09Z</time>
      </trkpt>
      <trkpt lat="45.37838" lon="5.62775">
        <ele>491</ele>
        <time>2023-02-16T09:00:13Z</time>
      </trkpt>
      <trkpt lat="45.37835" lon="5.62777">
        <ele>489</ele>
        <time>2023-02-16T09:00:14Z</time>
      </trkpt>
      <trkpt lat="45.37833" lon="5.62778">
        <ele>489</ele>
        <time>2023-02-16T09:00:15Z</time>
      </trkpt>
      <trkpt lat="45.37831" lon="5.62779">
        <ele>489</ele>
        <time>2023-02-16T09:00:16Z</time>
      </trkpt>
      <trkpt lat="45.37829" lon="5.62781">
        <ele>489</ele>
        <time>2023-02-16T09:00:17Z</time>
      </trkpt>
      <trkpt lat="45.37826" lon="5.62782">
        <ele>489</ele>
        <time>2023-02-16T09:00:18Z</time>
      </trkpt>
      <trkpt lat="45.37823" lon="5.62784">
        <ele>489</ele>
        <time>2023-02-16T09:00:19Z</time>
      </trkpt>
      <trkpt lat="45.3782" lon="5.62785">
        <ele>489</ele>
        <time>2023-02-16T09:00:20Z</time>
      </trkpt>
      <trkpt lat="45.37816" lon="5.62786">
        <ele>489</ele>
        <time>2023-02-16T09:00:21Z</time>
      </trkpt>
      <trkpt lat="45.37811" lon="5.62787">
        <ele>489</ele>
        <time>2023-02-16T09:00:22Z</time>
      </trkpt>
      <trkpt lat="45.37805" lon="5.6279">
        <ele>488</ele>
        <time>2023-02-16T09:00:23Z</time>
      </trkpt>
      <trkpt lat="45.37799" lon="5.62792">
        <ele>486</ele>
        <time>2023-02-16T09:00:24Z</time>
      </trkpt>
      <trkpt lat="45.37792" lon="5.62794">
        <ele>486</ele>
        <time>2023-02-16T09:00:25Z</time>
      </trkpt>
      <trkpt lat="45.37787" lon="5.62795">
        <ele>484</ele>
        <time>2023-02-16T09:00:26Z</time>
      </trkpt>
      <trkpt lat="45.37768" lon="5.62792">
        <ele>484</ele>
        <time>2023-02-16T09:00:28Z</time>
      </trkpt>
      <trkpt lat="45.37757" lon="5.62796">
        <ele>476</ele>
        <time>2023-02-16T09:00:30Z</time>
      </trkpt>
      <trkpt lat="45.37751" lon="5.62808">
        <ele>474</ele>
        <time>2023-02-16T09:00:32Z</time>
      </trkpt>
      <trkpt lat="45.37747" lon="5.62824">
        <ele>470</ele>
        <time>2023-02-16T09:00:34Z</time>
      </trkpt>
      <trkpt lat="45.37744" lon="5.62841">
        <ele>470</ele>
        <time>2023-02-16T09:00:36Z</time>
      </trkpt>
      <trkpt lat="45.37741" lon="5.62847">
        <ele>466</ele>
        <time>2023-02-16T09:00:37Z</time>
      </trkpt>
      <trkpt lat="45.37737" lon="5.62848">
        <ele>465</ele>
        <time>2023-02-16T09:00:38Z</time>
      </trkpt>
      <trkpt lat="45.37734" lon="5.6285">
        <ele>464</ele>
        <time>2023-02-16T09:00:39Z</time>
      </trkpt>
      <trkpt lat="45.37729" lon="5.6285">
        <ele>463</ele>
        <time>2023-02-16T09:00:40Z</time>
      </trkpt>
      <trkpt lat="45.37724" lon="5.62849">
        <ele>462</ele>
        <time>2023-02-16T09:00:41Z</time>
      </trkpt>
      <trkpt lat="45.37717" lon="5.62848">
        <ele>461</ele>
        <time>2023-02-16T09:00:42Z</time>
      </trkpt>
      <trkpt lat="45.3771" lon="5.62846">
        <ele>461</ele>
        <time>2023-02-16T09:00:43Z</time>
      </trkpt>
      <trkpt lat="45.37704" lon="5.62843">
        <ele>460</ele>
        <time>2023-02-16T09:00:44Z</time>
      </trkpt>
      <trkpt lat="45.377" lon="5.6284">
        <ele>460</ele>
        <time>2023-02-16T09:00:45Z</time>
      </trkpt>
      <trkpt lat="45.37697" lon="5.62837">
        <ele>461</ele>
        <time>2023-02-16T09:00:46Z</time>
      </trkpt>
      <trkpt lat="45.37694" lon="5.62834">
        <ele>462</ele>
        <time>2023-02-16T09:00:47Z</time>
      </trkpt>
      <trkpt lat="45.37691" lon="5.62831">
        <ele>462</ele>
        <time>2023-02-16T09:00:48Z</time>
      </trkpt>
      <trkpt lat="45.37689" lon="5.62829">
        <ele>463</ele>
        <time>2023-02-16T09:00:49Z</time>
      </trkpt>
      <trkpt lat="45.37686" lon="5.62827">
        <ele>463</ele>
        <time>2023-02-16T09:00:50Z</time>
      </trkpt>
      <trkpt lat="45.37684" lon="5.62825">
        <ele>463</ele>
        <time>2023-02-16T09:00:51Z</time>
      </trkpt>
      <trkpt lat="45.37681" lon="5.62822">
        <ele>463</ele>
        <time>2023-02-16T09:00:52Z</time>
      </trkpt>
      <trkpt lat="45.37679" lon="5.6282">
        <ele>463</ele>
        <time>2023-02-16T09:00:53Z</time>
      </trkpt>
      <trkpt lat="45.37677" lon="5.62817">
        <ele>463</ele>
        <time>2023-02-16T09:00:54Z</time>
      </trkpt>
      <trkpt lat="45.37674" lon="5.62815">
        <ele>464</ele>
        <time>2023-02-16T09:00:55Z</time>
      </trkpt>
      <trkpt lat="45.37672" lon="5.62812">
        <ele>464</ele>
        <time>2023-02-16T09:00:56Z</time>
      </trkpt>
      <trkpt lat="45.3767" lon="5.62811">
        <ele>464</ele>
        <time>2023-02-16T09:00:57Z</time>
      </trkpt>
      <trkpt lat="45.37668" lon="5.62809">
        <ele>464</ele>
        <time>2023-02-16T09:00:58Z</time>
      </trkpt>
      <trkpt lat="45.37666" lon="5.62807">
        <ele>464</ele>
        <time>2023-02-16T09:00:59Z</time>
      </trkpt>
      <trkpt lat="45.37664" lon="5.62806">
        <ele>464</ele>
        <time>2023-02-16T09:01:00Z</time>
      </trkpt>
      <trkpt lat="45.37662" lon="5.62804">
        <ele>464</ele>
        <time>2023-02-16T09:01:01Z</time>
      </trkpt>
      <trkpt lat="45.3766" lon="5.62802">
        <ele>464</ele>
        <time>2023-02-16T09:01:02Z</time>
      </trkpt>
      <trkpt lat="45.37658" lon="5.62801">
        <ele>466</ele>
        <time>2023-02-16T09:01:03Z</time>
      </trkpt>
      <trkpt lat="45.37656" lon="5.62799">
        <ele>466</ele>
        <time>2023-02-16T09:01:04Z</time>
      </trkpt>
      <trkpt lat="45.37654" lon="5.62797">
        <ele>466</ele>
        <time>2023-02-16T09:01:05Z</time>
      </trkpt>
      <trkpt lat="45.37652" lon="5.62796">
        <ele>468</ele>
        <time>2023-02-16T09:01:06Z</time>
      </trkpt>
      <trkpt lat="45.37649" lon="5.62794">
        <ele>468</ele>
        <time>2023-02-16T09:01:07Z</time>
      </trkpt>
      <trkpt lat="45.37647" lon="5.62793">
        <ele>468</ele>
        <time>2023-02-16T09:01:08Z</time>
      </trkpt>
      <trkpt lat="45.37645" lon="5.62793">
        <ele>469</ele>
        <time>2023-02-16T09:01:09Z</time>
      </trkpt>
      <trkpt lat="45.37643" lon="5.62793">
        <ele>469</ele>
        <time>2023-02-16T09:01:10Z</time>
      </trkpt>
      <trkpt lat="45.37641" lon="5.62795">
        <ele>469</ele>
        <time>2023-02-16T09:01:11Z</time>
      </trkpt>
      <trkpt lat="45.37638" lon="5.62799">
        <ele>469</ele>
        <time>2023-02-16T09:01:12Z</time>
      </trkpt>
      <trkpt lat="45.37634" lon="5.62804">
        <ele>469</ele>
        <time>2023-02-16T09:01:13Z</time>
      </trkpt>
      <trkpt lat="45.37629" lon="5.62809">
        <ele>469</ele>
        <time>2023-02-16T09:01:14Z</time>
      </trkpt>
      <trkpt lat="45.37624" lon="5.62813">
        <ele>468</ele>
        <time>2023-02-16T09:01:15Z</time>
      </trkpt>
      <trkpt lat="45.37618" lon="5.62819">
        <ele>468</ele>
        <time>2023-02-16T09:01:16Z</time>
      </trkpt>
      <trkpt lat="45.37612" lon="5.62827">
        <ele>466</ele>
        <time>2023-02-16T09:01:17Z</time>
      </trkpt>
      <trkpt lat="45.37607" lon="5.62836">
        <ele>464</ele>
        <time>2023-02-16T09:01:18Z</time>
      </trkpt>
      <trkpt lat="45.37603" lon="5.62846">
        <ele>464</ele>
        <time>2023-02-16T09:01:19Z</time>
      </trkpt>
      <trkpt lat="45.37597" lon="5.62855">
        <ele>464</ele>
        <time>2023-02-16T09:01:20Z</time>
      </trkpt>
      <trkpt lat="45.37592" lon="5.6286">
        <ele>461</ele>
        <time>2023-02-16T09:01:21Z</time>
      </trkpt>
      <trkpt lat="45.37586" lon="5.62863">
        <ele>461</ele>
        <time>2023-02-16T09:01:22Z</time>
      </trkpt>
      <trkpt lat="45.37579" lon="5.62866">
        <ele>458</ele>
        <time>2023-02-16T09:01:23Z</time>
      </trkpt>
      <trkpt lat="45.37567" lon="5.62873">
        <ele>458</ele>
        <time>2023-02-16T09:01:25Z</time>
      </trkpt>
      <trkpt lat="45.37551" lon="5.62885">
        <ele>454</ele>
        <time>2023-02-16T09:01:27Z</time>
      </trkpt>
      <trkpt lat="45.37543" lon="5.6289">
        <ele>454</ele>
        <time>2023-02-16T09:01:28Z</time>
      </trkpt>
      <trkpt lat="45.37534" lon="5.62895">
        <ele>454</ele>
        <time>2023-02-16T09:01:29Z</time>
      </trkpt>
      <trkpt lat="45.37527" lon="5.62899">
        <ele>452</ele>
        <time>2023-02-16T09:01:30Z</time>
      </trkpt>
      <trkpt lat="45.37521" lon="5.62904">
        <ele>452</ele>
        <time>2023-02-16T09:01:31Z</time>
      </trkpt>
      <trkpt lat="45.37516" lon="5.62907">
        <ele>448</ele>
        <time>2023-02-16T09:01:32Z</time>
      </trkpt>
      <trkpt lat="45.37512" lon="5.6291">
        <ele>447</ele>
        <time>2023-02-16T09:01:33Z</time>
      </trkpt>
      <trkpt lat="45.37508" lon="5.62913">
        <ele>447</ele>
        <time>2023-02-16T09:01:34Z</time>
      </trkpt>
      <trkpt lat="45.37505" lon="5.62916">
        <ele>447</ele>
        <time>2023-02-16T09:01:35Z</time>
      </trkpt>
      <trkpt lat="45.37502" lon="5.6292">
        <ele>446</ele>
        <time>2023-02-16T09:01:36Z</time>
      </trkpt>
      <trkpt lat="45.37499" lon="5.62923">
        <ele>446</ele>
        <time>2023-02-16T09:01:37Z</time>
      </trkpt>
      <trkpt lat="45.37496" lon="5.62926">
        <ele>444</ele>
        <time>2023-02-16T09:01:38Z</time>
      </trkpt>
      <trkpt lat="45.37494" lon="5.62928">
        <ele>443</ele>
        <time>2023-02-16T09:01:39Z</time>
      </trkpt>
      <trkpt lat="45.37492" lon="5.62932">
        <ele>443</ele>
        <time>2023-02-16T09:01:40Z</time>
      </trkpt>
      <trkpt lat="45.3749" lon="5.62937">
        <ele>442</ele>
        <time>2023-02-16T09:01:41Z</time>
      </trkpt>
      <trkpt lat="45.37487" lon="5.62943">
        <ele>441</ele>
        <time>2023-02-16T09:01:42Z</time>
      </trkpt>
      <trkpt lat="45.37483" lon="5.6295">
        <ele>441</ele>
        <time>2023-02-16T09:01:43Z</time>
      </trkpt>
      <trkpt lat="45.37478" lon="5.62957">
        <ele>439</ele>
        <time>2023-02-16T09:01:44Z</time>
      </trkpt>
      <trkpt lat="45.37473" lon="5.62965">
        <ele>438</ele>
        <time>2023-02-16T09:01:45Z</time>
      </trkpt>
      <trkpt lat="45.37469" lon="5.62971">
        <ele>438</ele>
        <time>2023-02-16T09:01:46Z</time>
      </trkpt>
      <trkpt lat="45.37464" lon="5.62977">
        <ele>436</ele>
        <time>2023-02-16T09:01:47Z</time>
      </trkpt>
      <trkpt lat="45.37461" lon="5.62982">
        <ele>435</ele>
        <time>2023-02-16T09:01:48Z</time>
      </trkpt>
      <trkpt lat="45.37459" lon="5.62987">
        <ele>435</ele>
        <time>2023-02-16T09:01:49Z</time>
      </trkpt>
      <trkpt lat="45.37458" lon="5.62991">
        <ele>433</ele>
        <time>2023-02-16T09:01:50Z</time>
      </trkpt>
      <trkpt lat="45.37457" lon="5.62995">
        <ele>433</ele>
        <time>2023-02-16T09:01:51Z</time>
      </trkpt>
      <trkpt lat="45.37458" lon="5.62999">
        <ele>430</ele>
        <time>2023-02-16T09:01:52Z</time>
      </trkpt>
      <trkpt lat="45.37458" lon="5.63003">
        <ele>428</ele>
        <time>2023-02-16T09:01:53Z</time>
      </trkpt>
      <trkpt lat="45.37459" lon="5.63008">
        <ele>428</ele>
        <time>2023-02-16T09:01:54Z</time>
      </trkpt>
      <trkpt lat="45.37461" lon="5.63012">
        <ele>427</ele>
        <time>2023-02-16T09:01:55Z</time>
      </trkpt>
      <trkpt lat="45.37462" lon="5.63015">
        <ele>427</ele>
        <time>2023-02-16T09:01:56Z</time>
      </trkpt>
      <trkpt lat="45.37463" lon="5.63017">
        <ele>426</ele>
        <time>2023-02-16T09:01:58Z</time>
      </trkpt>
      <trkpt lat="45.37465" lon="5.63018">
        <ele>424</ele>
        <time>2023-02-16T09:02:01Z</time>
      </trkpt>
      <trkpt lat="45.37465" lon="5.6302">
        <ele>424</ele>
        <time>2023-02-16T09:02:07Z</time>
      </trkpt>
      <trkpt lat="45.3746" lon="5.6301">
        <ele>425</ele>
        <time>2023-02-16T09:02:27Z</time>
      </trkpt>
      <trkpt lat="45.3746" lon="5.63007">
        <ele>425</ele>
        <time>2023-02-16T09:02:28Z</time>
      </trkpt>
      <trkpt lat="45.3746" lon="5.63005">
        <ele>426</ele>
        <time>2023-02-16T09:02:29Z</time>
      </trkpt>
      <trkpt lat="45.3746" lon="5.63002">
        <ele>426</ele>
        <time>2023-02-16T09:02:30Z</time>
      </trkpt>
      <trkpt lat="45.37459" lon="5.62999">
        <ele>427</ele>
        <time>2023-02-16T09:02:31Z</time>
      </trkpt>
      <trkpt lat="45.37458" lon="5.62995">
        <ele>427</ele>
        <time>2023-02-16T09:02:33Z</time>
      </trkpt>
      <trkpt lat="45.37459" lon="5.62992">
        <ele>428</ele>
        <time>2023-02-16T09:02:35Z</time>
      </trkpt>
      <trkpt lat="45.37461" lon="5.62988">
        <ele>428</ele>
        <time>2023-02-16T09:02:37Z</time>
      </trkpt>
      <trkpt lat="45.37462" lon="5.62985">
        <ele>428</ele>
        <time>2023-02-16T09:02:38Z</time>
      </trkpt>
      <trkpt lat="45.37464" lon="5.62983">
        <ele>429</ele>
        <time>2023-02-16T09:02:39Z</time>
      </trkpt>
      <trkpt lat="45.37465" lon="5.62981">
        <ele>431</ele>
        <time>2023-02-16T09:02:40Z</time>
      </trkpt>
      <trkpt lat="45.37466" lon="5.62979">
        <ele>431</ele>
        <time>2023-02-16T09:02:41Z</time>
      </trkpt>
      <trkpt lat="45.37469" lon="5.62975">
        <ele>432</ele>
        <time>2023-02-16T09:02:43Z</time>
      </trkpt>
      <trkpt lat="45.3747" lon="5.62973">
        <ele>432</ele>
        <time>2023-02-16T09:02:44Z</time>
      </trkpt>
      <trkpt lat="45.37472" lon="5.62971">
        <ele>432</ele>
        <time>2023-02-16T09:02:45Z</time>
      </trkpt>
      <trkpt lat="45.37473" lon="5.62969">
        <ele>432</ele>
        <time>2023-02-16T09:02:46Z</time>
      </trkpt>
      <trkpt lat="45.37475" lon="5.62967">
        <ele>433</ele>
        <time>2023-02-16T09:02:47Z</time>
      </trkpt>
      <trkpt lat="45.37476" lon="5.62965">
        <ele>433</ele>
        <time>2023-02-16T09:02:48Z</time>
      </trkpt>
      <trkpt lat="45.37478" lon="5.62961">
        <ele>433</ele>
        <time>2023-02-16T09:02:50Z</time>
      </trkpt>
      <trkpt lat="45.37479" lon="5.62959">
        <ele>433</ele>
        <time>2023-02-16T09:02:51Z</time>
      </trkpt>
      <trkpt lat="45.37481" lon="5.62957">
        <ele>434</ele>
        <time>2023-02-16T09:02:52Z</time>
      </trkpt>
      <trkpt lat="45.37481" lon="5.62955">
        <ele>434</ele>
        <time>2023-02-16T09:02:53Z</time>
      </trkpt>
      <trkpt lat="45.37483" lon="5.62953">
        <ele>435</ele>
        <time>2023-02-16T09:02:54Z</time>
      </trkpt>
      <trkpt lat="45.37484" lon="5.6295">
        <ele>436</ele>
        <time>2023-02-16T09:02:55Z</time>
      </trkpt>
      <trkpt lat="45.37485" lon="5.62948">
        <ele>436</ele>
        <time>2023-02-16T09:02:56Z</time>
      </trkpt>
      <trkpt lat="45.37487" lon="5.62945">
        <ele>436</ele>
        <time>2023-02-16T09:02:58Z</time>
      </trkpt>
      <trkpt lat="45.37488" lon="5.62943">
        <ele>436</ele>
        <time>2023-02-16T09:02:59Z</time>
      </trkpt>
      <trkpt lat="45.3749" lon="5.6294">
        <ele>436</ele>
        <time>2023-02-16T09:03:00Z</time>
      </trkpt>
      <trkpt lat="45.37491" lon="5.62937">
        <ele>436</ele>
        <time>2023-02-16T09:03:02Z</time>
      </trkpt>
      <trkpt lat="45.37493" lon="5.62934">
        <ele>438</ele>
        <time>2023-02-16T09:03:04Z</time>
      </trkpt>
      <trkpt lat="45.37493" lon="5.62931">
        <ele>438</ele>
        <time>2023-02-16T09:03:06Z</time>
      </trkpt>
      <trkpt lat="45.37492" lon="5.62929">
        <ele>438</ele>
        <time>2023-02-16T09:03:08Z</time>
      </trkpt>
      <trkpt lat="45.37491" lon="5.62928">
        <ele>439</ele>
        <time>2023-02-16T09:03:15Z</time>
      </trkpt>
      <trkpt lat="45.37491" lon="5.62926">
        <ele>439</ele>
        <time>2023-02-16T09:05:26Z</time>
      </trkpt>
      <trkpt lat="45.37494" lon="5.62926">
        <ele>439</ele>
        <time>2023-02-16T09:05:27Z</time>
      </trkpt>
      <trkpt lat="45.37496" lon="5.62926">
        <ele>439</ele>
        <time>2023-02-16T09:05:28Z</time>
      </trkpt>
      <trkpt lat="45.37497" lon="5.62925">
        <ele>439</ele>
        <time>2023-02-16T09:05:29Z</time>
      </trkpt>
      <trkpt lat="45.37499" lon="5.62924">
        <ele>439</ele>
        <time>2023-02-16T09:05:30Z</time>
      </trkpt>
      <trkpt lat="45.37501" lon="5.62923">
        <ele>439</ele>
        <time>2023-02-16T09:05:31Z</time>
      </trkpt>
      <trkpt lat="45.37503" lon="5.62922">
        <ele>440</ele>
        <time>2023-02-16T09:05:32Z</time>
      </trkpt>
      <trkpt lat="45.37505" lon="5.62921">
        <ele>440</ele>
        <time>2023-02-16T09:05:33Z</time>
      </trkpt>
      <trkpt lat="45.37508" lon="5.62918">
        <ele>441</ele>
        <time>2023-02-16T09:05:35Z</time>
      </trkpt>
      <trkpt lat="45.37509" lon="5.62917">
        <ele>442</ele>
        <time>2023-02-16T09:05:36Z</time>
      </trkpt>
      <trkpt lat="45.37511" lon="5.62915">
        <ele>442</ele>
        <time>2023-02-16T09:05:37Z</time>
      </trkpt>
      <trkpt lat="45.37512" lon="5.62914">
        <ele>442</ele>
        <time>2023-02-16T09:05:38Z</time>
      </trkpt>
      <trkpt lat="45.37514" lon="5.62913">
        <ele>444</ele>
        <time>2023-02-16T09:05:39Z</time>
      </trkpt>
      <trkpt lat="45.37516" lon="5.62912">
        <ele>444</ele>
        <time>2023-02-16T09:05:40Z</time>
      </trkpt>
      <trkpt lat="45.37518" lon="5.62911">
        <ele>444</ele>
        <time>2023-02-16T09:05:41Z</time>
      </trkpt>
      <trkpt lat="45.37521" lon="5.62908">
        <ele>444</ele>
        <time>2023-02-16T09:05:43Z</time>
      </trkpt>
      <trkpt lat="45.37522" lon="5.62907">
        <ele>445</ele>
        <time>2023-02-16T09:05:44Z</time>
      </trkpt>
      <trkpt lat="45.37526" lon="5.62904">
        <ele>445</ele>
        <time>2023-02-16T09:05:46Z</time>
      </trkpt>
      <trkpt lat="45.37529" lon="5.62902">
        <ele>446</ele>
        <time>2023-02-16T09:05:48Z</time>
      </trkpt>
      <trkpt lat="45.37532" lon="5.629">
        <ele>447</ele>
        <time>2023-02-16T09:05:50Z</time>
      </trkpt>
      <trkpt lat="45.37534" lon="5.62899">
        <ele>448</ele>
        <time>2023-02-16T09:05:51Z</time>
      </trkpt>
      <trkpt lat="45.37537" lon="5.62897">
        <ele>448</ele>
        <time>2023-02-16T09:05:53Z</time>
      </trkpt>
      <trkpt lat="45.37539" lon="5.62896">
        <ele>448</ele>
        <time>2023-02-16T09:05:54Z</time>
      </trkpt>
      <trkpt lat="45.3754" lon="5.62896">
        <ele>448</ele>
        <time>2023-02-16T09:05:55Z</time>
      </trkpt>
      <trkpt lat="45.37544" lon="5.62894">
        <ele>450</ele>
        <time>2023-02-16T09:05:57Z</time>
      </trkpt>
      <trkpt lat="45.37545" lon="5.62893">
        <ele>450</ele>
        <time>2023-02-16T09:05:58Z</time>
      </trkpt>
      <trkpt lat="45.37547" lon="5.62892">
        <ele>450</ele>
        <time>2023-02-16T09:05:59Z</time>
      </trkpt>
      <trkpt lat="45.37549" lon="5.62891">
        <ele>450</ele>
        <time>2023-02-16T09:06:00Z</time>
      </trkpt>
      <trkpt lat="45.37551" lon="5.6289">
        <ele>450</ele>
        <time>2023-02-16T09:06:01Z</time>
      </trkpt>
      <trkpt lat="45.37552" lon="5.62889">
        <ele>450</ele>
        <time>2023-02-16T09:06:02Z</time>
      </trkpt>
      <trkpt lat="45.37554" lon="5.62888">
        <ele>450</ele>
        <time>2023-02-16T09:06:03Z</time>
      </trkpt>
      <trkpt lat="45.37556" lon="5.62887">
        <ele>450</ele>
        <time>2023-02-16T09:06:04Z</time>
      </trkpt>
      <trkpt lat="45.37558" lon="5.62886">
        <ele>450</ele>
        <time>2023-02-16T09:06:05Z</time>
      </trkpt>
      <trkpt lat="45.37559" lon="5.62884">
        <ele>451</ele>
        <time>2023-02-16T09:06:06Z</time>
      </trkpt>
      <trkpt lat="45.37561" lon="5.62882">
        <ele>451</ele>
        <time>2023-02-16T09:06:07Z</time>
      </trkpt>
      <trkpt lat="45.37562" lon="5.62881">
        <ele>451</ele>
        <time>2023-02-16T09:06:08Z</time>
      </trkpt>
      <trkpt lat="45.37564" lon="5.6288">
        <ele>451</ele>
        <time>2023-02-16T09:06:09Z</time>
      </trkpt>
      <trkpt lat="45.37566" lon="5.62879">
        <ele>451</ele>
        <time>2023-02-16T09:06:10Z</time>
      </trkpt>
      <trkpt lat="45.37568" lon="5.62878">
        <ele>451</ele>
        <time>2023-02-16T09:06:11Z</time>
      </trkpt>
      <trkpt lat="45.3757" lon="5.62877">
        <ele>452</ele>
        <time>2023-02-16T09:06:12Z</time>
      </trkpt>
      <trkpt lat="45.37572" lon="5.62876">
        <ele>452</ele>
        <time>2023-02-16T09:06:13Z</time>
      </trkpt>
      <trkpt lat="45.37573" lon="5.62875">
        <ele>453</ele>
        <time>2023-02-16T09:06:14Z</time>
      </trkpt>
      <trkpt lat="45.37576" lon="5.62873">
        <ele>453</ele>
        <time>2023-02-16T09:06:16Z</time>
      </trkpt>
      <trkpt lat="45.3758" lon="5.6287">
        <ele>453</ele>
        <time>2023-02-16T09:06:18Z</time>
      </trkpt>
      <trkpt lat="45.37581" lon="5.62869">
        <ele>453</ele>
        <time>2023-02-16T09:06:19Z</time>
      </trkpt>
      <trkpt lat="45.37584" lon="5.62866">
        <ele>454</ele>
        <time>2023-02-16T09:06:21Z</time>
      </trkpt>
      <trkpt lat="45.37586" lon="5.62865">
        <ele>454</ele>
        <time>2023-02-16T09:06:22Z</time>
      </trkpt>
      <trkpt lat="45.37588" lon="5.62864">
        <ele>455</ele>
        <time>2023-02-16T09:06:23Z</time>
      </trkpt>
      <trkpt lat="45.37591" lon="5.62862">
        <ele>455</ele>
        <time>2023-02-16T09:06:25Z</time>
      </trkpt>
      <trkpt lat="45.37592" lon="5.62861">
        <ele>455</ele>
        <time>2023-02-16T09:06:26Z</time>
      </trkpt>
      <trkpt lat="45.37595" lon="5.6286">
        <ele>455</ele>
        <time>2023-02-16T09:06:27Z</time>
      </trkpt>
      <trkpt lat="45.37596" lon="5.62859">
        <ele>455</ele>
        <time>2023-02-16T09:06:28Z</time>
      </trkpt>
      <trkpt lat="45.37599" lon="5.62856">
        <ele>455</ele>
        <time>2023-02-16T09:06:30Z</time>
      </trkpt>
      <trkpt lat="45.37601" lon="5.62853">
        <ele>455</ele>
        <time>2023-02-16T09:06:32Z</time>
      </trkpt>
      <trkpt lat="45.37603" lon="5.6285">
        <ele>455</ele>
        <time>2023-02-16T09:06:34Z</time>
      </trkpt>
      <trkpt lat="45.37605" lon="5.62847">
        <ele>456</ele>
        <time>2023-02-16T09:06:36Z</time>
      </trkpt>
      <trkpt lat="45.37607" lon="5.62844">
        <ele>456</ele>
        <time>2023-02-16T09:06:38Z</time>
      </trkpt>
      <trkpt lat="45.37609" lon="5.6284">
        <ele>456</ele>
        <time>2023-02-16T09:06:40Z</time>
      </trkpt>
      <trkpt lat="45.3761" lon="5.62837">
        <ele>458</ele>
        <time>2023-02-16T09:06:42Z</time>
      </trkpt>
      <trkpt lat="45.37612" lon="5.62833">
        <ele>458</ele>
        <time>2023-02-16T09:06:44Z</time>
      </trkpt>
      <trkpt lat="45.37614" lon="5.6283">
        <ele>458</ele>
        <time>2023-02-16T09:06:46Z</time>
      </trkpt>
      <trkpt lat="45.37617" lon="5.62828">
        <ele>460</ele>
        <time>2023-02-16T09:06:48Z</time>
      </trkpt>
      <trkpt lat="45.37619" lon="5.62825">
        <ele>460</ele>
        <time>2023-02-16T09:06:50Z</time>
      </trkpt>
      <trkpt lat="45.37621" lon="5.62823">
        <ele>460</ele>
        <time>2023-02-16T09:06:52Z</time>
      </trkpt>
      <trkpt lat="45.37624" lon="5.6282">
        <ele>461</ele>
        <time>2023-02-16T09:06:54Z</time>
      </trkpt>
      <trkpt lat="45.37626" lon="5.62818">
        <ele>461</ele>
        <time>2023-02-16T09:06:56Z</time>
      </trkpt>
      <trkpt lat="45.37628" lon="5.62815">
        <ele>461</ele>
        <time>2023-02-16T09:06:58Z</time>
      </trkpt>
      <trkpt lat="45.37631" lon="5.62813">
        <ele>463</ele>
        <time>2023-02-16T09:07:00Z</time>
      </trkpt>
      <trkpt lat="45.37633" lon="5.62811">
        <ele>464</ele>
        <time>2023-02-16T09:07:02Z</time>
      </trkpt>
      <trkpt lat="45.37635" lon="5.62808">
        <ele>464</ele>
        <time>2023-02-16T09:07:04Z</time>
      </trkpt>
      <trkpt lat="45.37637" lon="5.62805">
        <ele>466</ele>
        <time>2023-02-16T09:07:06Z</time>
      </trkpt>
      <trkpt lat="45.37639" lon="5.62803">
        <ele>466</ele>
        <time>2023-02-16T09:07:08Z</time>
      </trkpt>
      <trkpt lat="45.37641" lon="5.62801">
        <ele>466</ele>
        <time>2023-02-16T09:07:10Z</time>
      </trkpt>
      <trkpt lat="45.37644" lon="5.62799">
        <ele>467</ele>
        <time>2023-02-16T09:07:12Z</time>
      </trkpt>
      <trkpt lat="45.37647" lon="5.628">
        <ele>467</ele>
        <time>2023-02-16T09:07:14Z</time>
      </trkpt>
      <trkpt lat="45.3765" lon="5.628">
        <ele>467</ele>
        <time>2023-02-16T09:07:16Z</time>
      </trkpt>
      <trkpt lat="45.37653" lon="5.62801">
        <ele>467</ele>
        <time>2023-02-16T09:07:17Z</time>
      </trkpt>
      <trkpt lat="45.37657" lon="5.62803">
        <ele>467</ele>
        <time>2023-02-16T09:07:18Z</time>
      </trkpt>
      <trkpt lat="45.37661" lon="5.62806">
        <ele>467</ele>
        <time>2023-02-16T09:07:19Z</time>
      </trkpt>
      <trkpt lat="45.37667" lon="5.62811">
        <ele>467</ele>
        <time>2023-02-16T09:07:20Z</time>
      </trkpt>
      <trkpt lat="45.37673" lon="5.62815">
        <ele>467</ele>
        <time>2023-02-16T09:07:21Z</time>
      </trkpt>
      <trkpt lat="45.3768" lon="5.6282">
        <ele>467</ele>
        <time>2023-02-16T09:07:22Z</time>
      </trkpt>
      <trkpt lat="45.37687" lon="5.62827">
        <ele>467</ele>
        <time>2023-02-16T09:07:23Z</time>
      </trkpt>
      <trkpt lat="45.37695" lon="5.62834">
        <ele>466</ele>
        <time>2023-02-16T09:07:24Z</time>
      </trkpt>
      <trkpt lat="45.37703" lon="5.62841">
        <ele>466</ele>
        <time>2023-02-16T09:07:25Z</time>
      </trkpt>
      <trkpt lat="45.37712" lon="5.62848">
        <ele>463</ele>
        <time>2023-02-16T09:07:26Z</time>
      </trkpt>
      <trkpt lat="45.37721" lon="5.62856">
        <ele>461</ele>
        <time>2023-02-16T09:07:27Z</time>
      </trkpt>
      <trkpt lat="45.3773" lon="5.62863">
        <ele>461</ele>
        <time>2023-02-16T09:07:28Z</time>
      </trkpt>
      <trkpt lat="45.3774" lon="5.6287">
        <ele>461</ele>
        <time>2023-02-16T09:07:29Z</time>
      </trkpt>
      <trkpt lat="45.37751" lon="5.62877">
        <ele>461</ele>
        <time>2023-02-16T09:07:30Z</time>
      </trkpt>
      <trkpt lat="45.37762" lon="5.62883">
        <ele>461</ele>
        <time>2023-02-16T09:07:31Z</time>
      </trkpt>
      <trkpt lat="45.37773" lon="5.62889">
        <ele>458</ele>
        <time>2023-02-16T09:07:32Z</time>
      </trkpt>
      <trkpt lat="45.37785" lon="5.62894">
        <ele>454</ele>
        <time>2023-02-16T09:07:33Z</time>
      </trkpt>
      <trkpt lat="45.37796" lon="5.62899">
        <ele>454</ele>
        <time>2023-02-16T09:07:34Z</time>
      </trkpt>
      <trkpt lat="45.37808" lon="5.62905">
        <ele>452</ele>
        <time>2023-02-16T09:07:35Z</time>
      </trkpt>
      <trkpt lat="45.37819" lon="5.6291">
        <ele>452</ele>
        <time>2023-02-16T09:07:36Z</time>
      </trkpt>
      <trkpt lat="45.3783" lon="5.62915">
        <ele>452</ele>
        <time>2023-02-16T09:07:37Z</time>
      </trkpt>
      <trkpt lat="45.37839" lon="5.62917">
        <ele>452</ele>
        <time>2023-02-16T09:07:38Z</time>
      </trkpt>
      <trkpt lat="45.37849" lon="5.62917">
        <ele>451</ele>
        <time>2023-02-16T09:07:39Z</time>
      </trkpt>
      <trkpt lat="45.37858" lon="5.62913">
        <ele>451</ele>
        <time>2023-02-16T09:07:40Z</time>
      </trkpt>
      <trkpt lat="45.37866" lon="5.62909">
        <ele>451</ele>
        <time>2023-02-16T09:07:41Z</time>
      </trkpt>
      <trkpt lat="45.37874" lon="5.62903">
        <ele>448</ele>
        <time>2023-02-16T09:07:42Z</time>
      </trkpt>
      <trkpt lat="45.37882" lon="5.62896">
        <ele>448</ele>
        <time>2023-02-16T09:07:43Z</time>
      </trkpt>
      <trkpt lat="45.37889" lon="5.6289">
        <ele>446</ele>
        <time>2023-02-16T09:07:44Z</time>
      </trkpt>
      <trkpt lat="45.37898" lon="5.62883">
        <ele>446</ele>
        <time>2023-02-16T09:07:45Z</time>
      </trkpt>
      <trkpt lat="45.37906" lon="5.62876">
        <ele>446</ele>
        <time>2023-02-16T09:07:46Z</time>
      </trkpt>
      <trkpt lat="45.37914" lon="5.62868">
        <ele>446</ele>
        <time>2023-02-16T09:07:47Z</time>
      </trkpt>
      <trkpt lat="45.37923" lon="5.62861">
        <ele>445</ele>
        <time>2023-02-16T09:07:48Z</time>
      </trkpt>
      <trkpt lat="45.37931" lon="5.62853">
        <ele>445</ele>
        <time>2023-02-16T09:07:49Z</time>
      </trkpt>
      <trkpt lat="45.3794" lon="5.62847">
        <ele>444</ele>
        <time>2023-02-16T09:07:50Z</time>
      </trkpt>
      <trkpt lat="45.37947" lon="5.62841">
        <ele>444</ele>
        <time>2023-02-16T09:07:51Z</time>
      </trkpt>
      <trkpt lat="45.37955" lon="5.62836">
        <ele>444</ele>
        <time>2023-02-16T09:07:52Z</time>
      </trkpt>
      <trkpt lat="45.37963" lon="5.62831">
        <ele>445</ele>
        <time>2023-02-16T09:07:53Z</time>
      </trkpt>
      <trkpt lat="45.3797" lon="5.62826">
        <ele>445</ele>
        <time>2023-02-16T09:07:54Z</time>
      </trkpt>
      <trkpt lat="45.37977" lon="5.62821">
        <ele>445</ele>
        <time>2023-02-16T09:07:55Z</time>
      </trkpt>
      <trkpt lat="45.37986" lon="5.62818">
        <ele>445</ele>
        <time>2023-02-16T09:07:56Z</time>
      </trkpt>
      <trkpt lat="45.37995" lon="5.62814">
        <ele>445</ele>
        <time>2023-02-16T09:07:57Z</time>
      </trkpt>
      <trkpt lat="45.38005" lon="5.62809">
        <ele>445</ele>
        <time>2023-02-16T09:07:58Z</time>
      </trkpt>
      <trkpt lat="45.38014" lon="5.62802">
        <ele>444</ele>
        <time>2023-02-16T09:07:59Z</time>
      </trkpt>
      <trkpt lat="45.38024" lon="5.62794">
        <ele>444</ele>
        <time>2023-02-16T09:08:00Z</time>
      </trkpt>
      <trkpt lat="45.38033" lon="5.62788">
        <ele>441</ele>
        <time>2023-02-16T09:08:01Z</time>
      </trkpt>
      <trkpt lat="45.38041" lon="5.62783">
        <ele>441</ele>
        <time>2023-02-16T09:08:02Z</time>
      </trkpt>
      <trkpt lat="45.38048" lon="5.6278">
        <ele>439</ele>
        <time>2023-02-16T09:08:03Z</time>
      </trkpt>
      <trkpt lat="45.38054" lon="5.6278">
        <ele>439</ele>
        <time>2023-02-16T09:08:04Z</time>
      </trkpt>
      <trkpt lat="45.38059" lon="5.62782">
        <ele>438</ele>
        <time>2023-02-16T09:08:05Z</time>
      </trkpt>
      <trkpt lat="45.38062" lon="5.62788">
        <ele>436</ele>
        <time>2023-02-16T09:08:06Z</time>
      </trkpt>
      <trkpt lat="45.38063" lon="5.62797">
        <ele>436</ele>
        <time>2023-02-16T09:08:07Z</time>
      </trkpt>
      <trkpt lat="45.38063" lon="5.62806">
        <ele>435</ele>
        <time>2023-02-16T09:08:08Z</time>
      </trkpt>
      <trkpt lat="45.38063" lon="5.62815">
        <ele>434</ele>
        <time>2023-02-16T09:08:09Z</time>
      </trkpt>
      <trkpt lat="45.38063" lon="5.62825">
        <ele>434</ele>
        <time>2023-02-16T09:08:10Z</time>
      </trkpt>
      <trkpt lat="45.38063" lon="5.62835">
        <ele>433</ele>
        <time>2023-02-16T09:08:11Z</time>
      </trkpt>
      <trkpt lat="45.38063" lon="5.62846">
        <ele>433</ele>
        <time>2023-02-16T09:08:12Z</time>
      </trkpt>
      <trkpt lat="45.38064" lon="5.62857">
        <ele>433</ele>
        <time>2023-02-16T09:08:13Z</time>
      </trkpt>
      <trkpt lat="45.38064" lon="5.62869">
        <ele>433</ele>
        <time>2023-02-16T09:08:14Z</time>
      </trkpt>
      <trkpt lat="45.38064" lon="5.6288">
        <ele>432</ele>
        <time>2023-02-16T09:08:15Z</time>
      </trkpt>
      <trkpt lat="45.38063" lon="5.62892">
        <ele>432</ele>
        <time>2023-02-16T09:08:16Z</time>
      </trkpt>
      <trkpt lat="45.38062" lon="5.62904">
        <ele>432</ele>
        <time>2023-02-16T09:08:17Z</time>
      </trkpt>
      <trkpt lat="45.3806" lon="5.62917">
        <ele>431</ele>
        <time>2023-02-16T09:08:18Z</time>
      </trkpt>
      <trkpt lat="45.38058" lon="5.62929">
        <ele>431</ele>
        <time>2023-02-16T09:08:19Z</time>
      </trkpt>
      <trkpt lat="45.38056" lon="5.62941">
        <ele>431</ele>
        <time>2023-02-16T09:08:20Z</time>
      </trkpt>
      <trkpt lat="45.38052" lon="5.62954">
        <ele>429</ele>
        <time>2023-02-16T09:08:21Z</time>
      </trkpt>
      <trkpt lat="45.38048" lon="5.62966">
        <ele>429</ele>
        <time>2023-02-16T09:08:22Z</time>
      </trkpt>
      <trkpt lat="45.38043" lon="5.62978">
        <ele>428</ele>
        <time>2023-02-16T09:08:23Z</time>
      </trkpt>
      <trkpt lat="45.38038" lon="5.6299">
        <ele>427</ele>
        <time>2023-02-16T09:08:24Z</time>
      </trkpt>
      <trkpt lat="45.38033" lon="5.63003">
        <ele>427</ele>
        <time>2023-02-16T09:08:25Z</time>
      </trkpt>
      <trkpt lat="45.38028" lon="5.63016">
        <ele>427</ele>
        <time>2023-02-16T09:08:26Z</time>
      </trkpt>
      <trkpt lat="45.38023" lon="5.6303">
        <ele>424</ele>
        <time>2023-02-16T09:08:27Z</time>
      </trkpt>
      <trkpt lat="45.3802" lon="5.63043">
        <ele>424</ele>
        <time>2023-02-16T09:08:28Z</time>
      </trkpt>
      <trkpt lat="45.38019" lon="5.63057">
        <ele>424</ele>
        <time>2023-02-16T09:08:29Z</time>
      </trkpt>
      <trkpt lat="45.38018" lon="5.6307">
        <ele>423</ele>
        <time>2023-02-16T09:08:30Z</time>
      </trkpt>
      <trkpt lat="45.38017" lon="5.63083">
        <ele>423</ele>
        <time>2023-02-16T09:08:31Z</time>
      </trkpt>
      <trkpt lat="45.38017" lon="5.63096">
        <ele>422</ele>
        <time>2023-02-16T09:08:32Z</time>
      </trkpt>
      <trkpt lat="45.38015" lon="5.63108">
        <ele>422</ele>
        <time>2023-02-16T09:08:33Z</time>
      </trkpt>
      <trkpt lat="45.38013" lon="5.6312">
        <ele>422</ele>
        <time>2023-02-16T09:08:34Z</time>
      </trkpt>
      <trkpt lat="45.38012" lon="5.63131">
        <ele>422</ele>
        <time>2023-02-16T09:08:35Z</time>
      </trkpt>
      <trkpt lat="45.3801" lon="5.63142">
        <ele>422</ele>
        <time>2023-02-16T09:08:36Z</time>
      </trkpt>
      <trkpt lat="45.38009" lon="5.63152">
        <ele>422</ele>
        <time>2023-02-16T09:08:37Z</time>
      </trkpt>
      <trkpt lat="45.38007" lon="5.63161">
        <ele>422</ele>
        <time>2023-02-16T09:08:38Z</time>
      </trkpt>
      <trkpt lat="45.38006" lon="5.6317">
        <ele>422</ele>
        <time>2023-02-16T09:08:39Z</time>
      </trkpt>
      <trkpt lat="45.38004" lon="5.63178">
        <ele>422</ele>
        <time>2023-02-16T09:08:40Z</time>
      </trkpt>
      <trkpt lat="45.38003" lon="5.63184">
        <ele>422</ele>
        <time>2023-02-16T09:08:41Z</time>
      </trkpt>
      <trkpt lat="45.38002" lon="5.6319">
        <ele>423</ele>
        <time>2023-02-16T09:08:42Z</time>
      </trkpt>
      <trkpt lat="45.38002" lon="5.63195">
        <ele>423</ele>
        <time>2023-02-16T09:08:43Z</time>
      </trkpt>
      <trkpt lat="45.38001" lon="5.63199">
        <ele>423</ele>
        <time>2023-02-16T09:08:44Z</time>
      </trkpt>
      <trkpt lat="45.38001" lon="5.63203">
        <ele>424</ele>
        <time>2023-02-16T09:08:45Z</time>
      </trkpt>
      <trkpt lat="45.38001" lon="5.63208">
        <ele>424</ele>
        <time>2023-02-16T09:08:46Z</time>
      </trkpt>
      <trkpt lat="45.38001" lon="5.63212">
        <ele>424</ele>
        <time>2023-02-16T09:08:47Z</time>
      </trkpt>
      <trkpt lat="45.38002" lon="5.63216">
        <ele>426</ele>
        <time>2023-02-16T09:08:48Z</time>
      </trkpt>
      <trkpt lat="45.38002" lon="5.6322">
        <ele>426</ele>
        <time>2023-02-16T09:08:49Z</time>
      </trkpt>
      <trkpt lat="45.38003" lon="5.63225">
        <ele>426</ele>
        <time>2023-02-16T09:08:50Z</time>
      </trkpt>
      <trkpt lat="45.38004" lon="5.63229">
        <ele>427</ele>
        <time>2023-02-16T09:08:51Z</time>
      </trkpt>
      <trkpt lat="45.38005" lon="5.63233">
        <ele>427</ele>
        <time>2023-02-16T09:08:52Z</time>
      </trkpt>
      <trkpt lat="45.38007" lon="5.63237">
        <ele>428</ele>
        <time>2023-02-16T09:08:53Z</time>
      </trkpt>
      <trkpt lat="45.38009" lon="5.63241">
        <ele>428</ele>
        <time>2023-02-16T09:08:54Z</time>
      </trkpt>
      <trkpt lat="45.3801" lon="5.63245">
        <ele>428</ele>
        <time>2023-02-16T09:08:55Z</time>
      </trkpt>
      <trkpt lat="45.38012" lon="5.63249">
        <ele>428</ele>
        <time>2023-02-16T09:08:56Z</time>
      </trkpt>
      <trkpt lat="45.38013" lon="5.63253">
        <ele>428</ele>
        <time>2023-02-16T09:08:57Z</time>
      </trkpt>
      <trkpt lat="45.38015" lon="5.63257">
        <ele>428</ele>
        <time>2023-02-16T09:08:58Z</time>
      </trkpt>
      <trkpt lat="45.38017" lon="5.63261">
        <ele>429</ele>
        <time>2023-02-16T09:08:59Z</time>
      </trkpt>
      <trkpt lat="45.38019" lon="5.63265">
        <ele>429</ele>
        <time>2023-02-16T09:09:00Z</time>
      </trkpt>
      <trkpt lat="45.3802" lon="5.63269">
        <ele>429</ele>
        <time>2023-02-16T09:09:01Z</time>
      </trkpt>
      <trkpt lat="45.38022" lon="5.63273">
        <ele>429</ele>
        <time>2023-02-16T09:09:02Z</time>
      </trkpt>
      <trkpt lat="45.38024" lon="5.63277">
        <ele>429</ele>
        <time>2023-02-16T09:09:03Z</time>
      </trkpt>
      <trkpt lat="45.38026" lon="5.63281">
        <ele>429</ele>
        <time>2023-02-16T09:09:04Z</time>
      </trkpt>
      <trkpt lat="45.38028" lon="5.63285">
        <ele>430</ele>
        <time>2023-02-16T09:09:05Z</time>
      </trkpt>
      <trkpt lat="45.3803" lon="5.63288">
        <ele>431</ele>
        <time>2023-02-16T09:09:06Z</time>
      </trkpt>
      <trkpt lat="45.38031" lon="5.63292">
        <ele>431</ele>
        <time>2023-02-16T09:09:07Z</time>
      </trkpt>
      <trkpt lat="45.38033" lon="5.63295">
        <ele>432</ele>
        <time>2023-02-16T09:09:08Z</time>
      </trkpt>
      <trkpt lat="45.38034" lon="5.63298">
        <ele>432</ele>
        <time>2023-02-16T09:09:09Z</time>
      </trkpt>
      <trkpt lat="45.38035" lon="5.633">
        <ele>432</ele>
        <time>2023-02-16T09:09:10Z</time>
      </trkpt>
      <trkpt lat="45.38037" lon="5.63303">
        <ele>432</ele>
        <time>2023-02-16T09:09:11Z</time>
      </trkpt>
      <trkpt lat="45.38038" lon="5.63306">
        <ele>432</ele>
        <time>2023-02-16T09:09:12Z</time>
      </trkpt>
      <trkpt lat="45.38039" lon="5.63309">
        <ele>432</ele>
        <time>2023-02-16T09:09:13Z</time>
      </trkpt>
      <trkpt lat="45.38041" lon="5.63312">
        <ele>433</ele>
        <time>2023-02-16T09:09:14Z</time>
      </trkpt>
      <trkpt lat="45.38042" lon="5.63315">
        <ele>433</ele>
        <time>2023-02-16T09:09:15Z</time>
      </trkpt>
      <trkpt lat="45.38043" lon="5.63318">
        <ele>433</ele>
        <time>2023-02-16T09:09:16Z</time>
      </trkpt>
      <trkpt lat="45.38044" lon="5.63321">
        <ele>434</ele>
        <time>2023-02-16T09:09:17Z</time>
      </trkpt>
      <trkpt lat="45.38045" lon="5.63324">
        <ele>434</ele>
        <time>2023-02-16T09:09:18Z</time>
      </trkpt>
      <trkpt lat="45.38046" lon="5.63326">
        <ele>434</ele>
        <time>2023-02-16T09:09:19Z</time>
      </trkpt>
      <trkpt lat="45.38047" lon="5.63329">
        <ele>434</ele>
        <time>2023-02-16T09:09:20Z</time>
      </trkpt>
      <trkpt lat="45.38048" lon="5.63332">
        <ele>435</ele>
        <time>2023-02-16T09:09:21Z</time>
      </trkpt>
      <trkpt lat="45.3805" lon="5.63335">
        <ele>435</ele>
        <time>2023-02-16T09:09:22Z</time>
      </trkpt>
      <trkpt lat="45.38051" lon="5.63338">
        <ele>435</ele>
        <time>2023-02-16T09:09:23Z</time>
      </trkpt>
      <trkpt lat="45.38052" lon="5.63341">
        <ele>436</ele>
        <time>2023-02-16T09:09:24Z</time>
      </trkpt>
      <trkpt lat="45.38053" lon="5.63344">
        <ele>436</ele>
        <time>2023-02-16T09:09:25Z</time>
      </trkpt>
      <trkpt lat="45.38054" lon="5.63348">
        <ele>436</ele>
        <time>2023-02-16T09:09:26Z</time>
      </trkpt>
      <trkpt lat="45.38055" lon="5.63351">
        <ele>437</ele>
        <time>2023-02-16T09:09:27Z</time>
      </trkpt>
      <trkpt lat="45.38056" lon="5.63355">
        <ele>437</ele>
        <time>2023-02-16T09:09:28Z</time>
      </trkpt>
      <trkpt lat="45.38057" lon="5.63359">
        <ele>437</ele>
        <time>2023-02-16T09:09:29Z</time>
      </trkpt>
      <trkpt lat="45.38058" lon="5.63362">
        <ele>439</ele>
        <time>2023-02-16T09:09:30Z</time>
      </trkpt>
      <trkpt lat="45.38059" lon="5.63366">
        <ele>439</ele>
        <time>2023-02-16T09:09:31Z</time>
      </trkpt>
      <trkpt lat="45.3806" lon="5.6337">
        <ele>439</ele>
        <time>2023-02-16T09:09:32Z</time>
      </trkpt>
      <trkpt lat="45.38061" lon="5.63374">
        <ele>439</ele>
        <time>2023-02-16T09:09:33Z</time>
      </trkpt>
      <trkpt lat="45.38062" lon="5.63377">
        <ele>439</ele>
        <time>2023-02-16T09:09:34Z</time>
      </trkpt>
      <trkpt lat="45.38063" lon="5.63381">
        <ele>439</ele>
        <time>2023-02-16T09:09:35Z</time>
      </trkpt>
      <trkpt lat="45.38064" lon="5.63385">
        <ele>440</ele>
        <time>2023-02-16T09:09:36Z</time>
      </trkpt>
      <trkpt lat="45.38064" lon="5.63389">
        <ele>440</ele>
        <time>2023-02-16T09:09:37Z</time>
      </trkpt>
      <trkpt lat="45.38065" lon="5.63393">
        <ele>440</ele>
        <time>2023-02-16T09:09:38Z</time>
      </trkpt>
      <trkpt lat="45.38065" lon="5.63396">
        <ele>440</ele>
        <time>2023-02-16T09:09:39Z</time>
      </trkpt>
      <trkpt lat="45.38065" lon="5.634">
        <ele>440</ele>
        <time>2023-02-16T09:09:40Z</time>
      </trkpt>
      <trkpt lat="45.38065" lon="5.63404">
        <ele>440</ele>
        <time>2023-02-16T09:09:41Z</time>
      </trkpt>
      <trkpt lat="45.38065" lon="5.63408">
        <ele>440</ele>
        <time>2023-02-16T09:09:42Z</time>
      </trkpt>
      <trkpt lat="45.38065" lon="5.63412">
        <ele>440</ele>
        <time>2023-02-16T09:09:43Z</time>
      </trkpt>
      <trkpt lat="45.38065" lon="5.63417">
        <ele>441</ele>
        <time>2023-02-16T09:09:44Z</time>
      </trkpt>
      <trkpt lat="45.38065" lon="5.63421">
        <ele>441</ele>
        <time>2023-02-16T09:09:45Z</time>
      </trkpt>
      <trkpt lat="45.38065" lon="5.63425">
        <ele>441</ele>
        <time>2023-02-16T09:09:46Z</time>
      </trkpt>
      <trkpt lat="45.38064" lon="5.63429">
        <ele>442</ele>
        <time>2023-02-16T09:09:47Z</time>
      </trkpt>
      <trkpt lat="45.38064" lon="5.63433">
        <ele>442</ele>
        <time>2023-02-16T09:09:48Z</time>
      </trkpt>
      <trkpt lat="45.38063" lon="5.63438">
        <ele>442</ele>
        <time>2023-02-16T09:09:49Z</time>
      </trkpt>
      <trkpt lat="45.38062" lon="5.63442">
        <ele>442</ele>
        <time>2023-02-16T09:09:50Z</time>
      </trkpt>
      <trkpt lat="45.38062" lon="5.63446">
        <ele>443</ele>
        <time>2023-02-16T09:09:51Z</time>
      </trkpt>
      <trkpt lat="45.38061" lon="5.63451">
        <ele>443</ele>
        <time>2023-02-16T09:09:52Z</time>
      </trkpt>
      <trkpt lat="45.3806" lon="5.63455">
        <ele>443</ele>
        <time>2023-02-16T09:09:53Z</time>
      </trkpt>
      <trkpt lat="45.38059" lon="5.63459">
        <ele>443</ele>
        <time>2023-02-16T09:09:54Z</time>
      </trkpt>
      <trkpt lat="45.38058" lon="5.63464">
        <ele>443</ele>
        <time>2023-02-16T09:09:55Z</time>
      </trkpt>
      <trkpt lat="45.38057" lon="5.63468">
        <ele>443</ele>
        <time>2023-02-16T09:09:56Z</time>
      </trkpt>
      <trkpt lat="45.38056" lon="5.63473">
        <ele>443</ele>
        <time>2023-02-16T09:09:57Z</time>
      </trkpt>
      <trkpt lat="45.38055" lon="5.63477">
        <ele>443</ele>
        <time>2023-02-16T09:09:58Z</time>
      </trkpt>
      <trkpt lat="45.38054" lon="5.63482">
        <ele>443</ele>
        <time>2023-02-16T09:09:59Z</time>
      </trkpt>
      <trkpt lat="45.38053" lon="5.63487">
        <ele>444</ele>
        <time>2023-02-16T09:10:00Z</time>
      </trkpt>
      <trkpt lat="45.38052" lon="5.63492">
        <ele>444</ele>
        <time>2023-02-16T09:10:01Z</time>
      </trkpt>
      <trkpt lat="45.3805" lon="5.63497">
        <ele>444</ele>
        <time>2023-02-16T09:10:02Z</time>
      </trkpt>
      <trkpt lat="45.38049" lon="5.63502">
        <ele>444</ele>
        <time>2023-02-16T09:10:03Z</time>
      </trkpt>
      <trkpt lat="45.38047" lon="5.63507">
        <ele>444</ele>
        <time>2023-02-16T09:10:04Z</time>
      </trkpt>
      <trkpt lat="45.38045" lon="5.63512">
        <ele>444</ele>
        <time>2023-02-16T09:10:05Z</time>
      </trkpt>
      <trkpt lat="45.38043" lon="5.63517">
        <ele>445</ele>
        <time>2023-02-16T09:10:06Z</time>
      </trkpt>
      <trkpt lat="45.38041" lon="5.63522">
        <ele>445</ele>
        <time>2023-02-16T09:10:07Z</time>
      </trkpt>
      <trkpt lat="45.38039" lon="5.63527">
        <ele>445</ele>
        <time>2023-02-16T09:10:08Z</time>
      </trkpt>
      <trkpt lat="45.38037" lon="5.63532">
        <ele>445</ele>
        <time>2023-02-16T09:10:09Z</time>
      </trkpt>
      <trkpt lat="45.38035" lon="5.63537">
        <ele>445</ele>
        <time>2023-02-16T09:10:10Z</time>
      </trkpt>
      <trkpt lat="45.38033" lon="5.63542">
        <ele>445</ele>
        <time>2023-02-16T09:10:11Z</time>
      </trkpt>
      <trkpt lat="45.38031" lon="5.63548">
        <ele>445</ele>
        <time>2023-02-16T09:10:12Z</time>
      </trkpt>
      <trkpt lat="45.38029" lon="5.63553">
        <ele>445</ele>
        <time>2023-02-16T09:10:13Z</time>
      </trkpt>
      <trkpt lat="45.38027" lon="5.63558">
        <ele>445</ele>
        <time>2023-02-16T09:10:14Z</time>
      </trkpt>
      <trkpt lat="45.38025" lon="5.63564">
        <ele>445</ele>
        <time>2023-02-16T09:10:15Z</time>
      </trkpt>
      <trkpt lat="45.38023" lon="5.63569">
        <ele>445</ele>
        <time>2023-02-16T09:10:16Z</time>
      </trkpt>
      <trkpt lat="45.3802" lon="5.63575">
        <ele>445</ele>
        <time>2023-02-16T09:10:17Z</time>
      </trkpt>
      <trkpt lat="45.38018" lon="5.63581">
        <ele>445</ele>
        <time>2023-02-16T09:10:18Z</time>
      </trkpt>
      <trkpt lat="45.38016" lon="5.63586">
        <ele>445</ele>
        <time>2023-02-16T09:10:19Z</time>
      </trkpt>
      <trkpt lat="45.38014" lon="5.63592">
        <ele>445</ele>
        <time>2023-02-16T09:10:20Z</time>
      </trkpt>
      <trkpt lat="45.38011" lon="5.63598">
        <ele>445</ele>
        <time>2023-02-16T09:10:21Z</time>
      </trkpt>
      <trkpt lat="45.38009" lon="5.63603">
        <ele>445</ele>
        <time>2023-02-16T09:10:22Z</time>
      </trkpt>
      <trkpt lat="45.38007" lon="5.63609">
        <ele>445</ele>
        <time>2023-02-16T09:10:23Z</time>
      </trkpt>
      <trkpt lat="45.38004" lon="5.63615">
        <ele>445</ele>
        <time>2023-02-16T09:10:24Z</time>
      </trkpt>
      <trkpt lat="45.38002" lon="5.63621">
        <ele>445</ele>
        <time>2023-02-16T09:10:25Z</time>
      </trkpt>
      <trkpt lat="45.38" lon="5.63627">
        <ele>445</ele>
        <time>2023-02-16T09:10:26Z</time>
      </trkpt>
      <trkpt lat="45.37998" lon="5.63633">
        <ele>445</ele>
        <time>2023-02-16T09:10:27Z</time>
      </trkpt>
      <trkpt lat="45.37995" lon="5.63639">
        <ele>445</ele>
        <time>2023-02-16T09:10:28Z</time>
      </trkpt>
      <trkpt lat="45.37993" lon="5.63645">
        <ele>446</ele>
        <time>2023-02-16T09:10:29Z</time>
      </trkpt>
      <trkpt lat="45.37991" lon="5.63651">
        <ele>446</ele>
        <time>2023-02-16T09:10:30Z</time>
      </trkpt>
      <trkpt lat="45.37989" lon="5.63657">
        <ele>446</ele>
        <time>2023-02-16T09:10:31Z</time>
      </trkpt>
      <trkpt lat="45.37987" lon="5.63664">
        <ele>446</ele>
        <time>2023-02-16T09:10:32Z</time>
      </trkpt>
      <trkpt lat="45.37985" lon="5.6367">
        <ele>446</ele>
        <time>2023-02-16T09:10:33Z</time>
      </trkpt>
      <trkpt lat="45.37983" lon="5.63676">
        <ele>446</ele>
        <time>2023-02-16T09:10:34Z</time>
      </trkpt>
      <trkpt lat="45.37981" lon="5.63682">
        <ele>446</ele>
        <time>2023-02-16T09:10:35Z</time>
      </trkpt>
      <trkpt lat="45.3798" lon="5.63689">
        <ele>446</ele>
        <time>2023-02-16T09:10:36Z</time>
      </trkpt>
      <trkpt lat="45.37978" lon="5.63695">
        <ele>446</ele>
        <time>2023-02-16T09:10:37Z</time>
      </trkpt>
      <trkpt lat="45.37976" lon="5.63702">
        <ele>446</ele>
        <time>2023-02-16T09:10:38Z</time>
      </trkpt>
      <trkpt lat="45.37975" lon="5.63709">
        <ele>446</ele>
        <time>2023-02-16T09:10:39Z</time>
      </trkpt>
      <trkpt lat="45.37973" lon="5.63715">
        <ele>446</ele>
        <time>2023-02-16T09:10:40Z</time>
      </trkpt>
      <trkpt lat="45.37972" lon="5.63722">
        <ele>446</ele>
        <time>2023-02-16T09:10:41Z</time>
      </trkpt>
      <trkpt lat="45.3797" lon="5.63729">
        <ele>446</ele>
        <time>2023-02-16T09:10:42Z</time>
      </trkpt>
      <trkpt lat="45.37969" lon="5.63735">
        <ele>446</ele>
        <time>2023-02-16T09:10:43Z</time>
      </trkpt>
      <trkpt lat="45.37967" lon="5.63742">
        <ele>447</ele>
        <time>2023-02-16T09:10:44Z</time>
      </trkpt>
      <trkpt lat="45.37965" lon="5.63749">
        <ele>447</ele>
        <time>2023-02-16T09:10:45Z</time>
      </trkpt>
      <trkpt lat="45.37964" lon="5.63756">
        <ele>447</ele>
        <time>2023-02-16T09:10:46Z</time>
      </trkpt>
      <trkpt lat="45.37962" lon="5.63763">
        <ele>447</ele>
        <time>2023-02-16T09:10:47Z</time>
      </trkpt>
      <trkpt lat="45.37961" lon="5.6377">
        <ele>447</ele>
        <time>2023-02-16T09:10:48Z</time>
      </trkpt>
      <trkpt lat="45.37959" lon="5.63777">
        <ele>447</ele>
        <time>2023-02-16T09:10:49Z</time>
      </trkpt>
      <trkpt lat="45.37958" lon="5.63784">
        <ele>447</ele>
        <time>2023-02-16T09:10:50Z</time>
      </trkpt>
      <trkpt lat="45.37956" lon="5.63791">
        <ele>447</ele>
        <time>2023-02-16T09:10:51Z</time>
      </trkpt>
      <trkpt lat="45.37955" lon="5.63798">
        <ele>447</ele>
        <time>2023-02-16T09:10:52Z</time>
      </trkpt>
      <trkpt lat="45.37953" lon="5.63805">
        <ele>447</ele>
        <time>2023-02-16T09:10:53Z</time>
      </trkpt>
      <trkpt lat="45.37952" lon="5.63812">
        <ele>447</ele>
        <time>2023-02-16T09:10:54Z</time>
      </trkpt>
      <trkpt lat="45.3795" lon="5.63819">
        <ele>447</ele>
        <time>2023-02-16T09:10:55Z</time>
      </trkpt>
      <trkpt lat="45.37948" lon="5.63826">
        <ele>447</ele>
        <time>2023-02-16T09:10:56Z</time>
      </trkpt>
      <trkpt lat="45.37947" lon="5.63833">
        <ele>447</ele>
        <time>2023-02-16T09:10:57Z</time>
      </trkpt>
      <trkpt lat="45.37945" lon="5.6384">
        <ele>448</ele>
        <time>2023-02-16T09:10:58Z</time>
      </trkpt>
      <trkpt lat="45.37944" lon="5.63848">
        <ele>448</ele>
        <time>2023-02-16T09:10:59Z</time>
      </trkpt>
      <trkpt lat="45.37942" lon="5.63855">
        <ele>448</ele>
        <time>2023-02-16T09:11:00Z</time>
      </trkpt>
      <trkpt lat="45.37941" lon="5.63862">
        <ele>448</ele>
        <time>2023-02-16T09:11:01Z</time>
      </trkpt>
      <trkpt lat="45.37939" lon="5.63869">
        <ele>448</ele>
        <time>2023-02-16T09:11:02Z</time>
      </trkpt>
      <trkpt lat="45.37938" lon="5.63877">
        <ele>448</ele>
        <time>2023-02-16T09:11:03Z</time>
      </trkpt>
      <trkpt lat="45.37936" lon="5.63884">
        <ele>448</ele>
        <time>2023-02-16T09:11:04Z</time>
      </trkpt>
      <trkpt lat="45.37934" lon="5.63891">
        <ele>448</ele>
        <time>2023-02-16T09:11:05Z</time>
      </trkpt>
      <trkpt lat="45.37933" lon="5.63898">
        <ele>448</ele>
        <time>2023-02-16T09:11:06Z</time>
      </trkpt>
      <trkpt lat="45.37931" lon="5.63905">
        <ele>448</ele>
        <time>2023-02-16T09:11:07Z</time>
      </trkpt>
      <trkpt lat="45.3793" lon="5.63912">
        <ele>448</ele>
        <time>2023-02-16T09:11:08Z</time>
      </trkpt>
      <trkpt lat="45.37928" lon="5.63919">
        <ele>448</ele>
        <time>2023-02-16T09:11:09Z</time>
      </trkpt>
      <trkpt lat="45.37927" lon="5.63926">
        <ele>448</ele>
        <time>2023-02-16T09:11:10Z</time>
      </trkpt>
      <trkpt lat="45.37926" lon="5.63933">
        <ele>448</ele>
        <time>2023-02-16T09:11:11Z</time>
      </trkpt>
      <trkpt lat="45.37925" lon="5.6394">
        <ele>448</ele>
        <time>2023-02-16T09:11:12Z</time>
      </trkpt>
      <trkpt lat="45.37924" lon="5.63947">
        <ele>449</ele>
        <time>2023-02-16T09:11:13Z</time>
      </trkpt>
      <trkpt lat="45.37923" lon="5.63954">
        <ele>449</ele>
        <time>2023-02-16T09:11:14Z</time>
      </trkpt>
      <trkpt lat="45.37921" lon="5.63961">
        <ele>449</ele>
        <time>2023-02-16T09:11:15Z</time>
      </trkpt>
      <trkpt lat="45.3792" lon="5.63968">
        <ele>449</ele>
        <time>2023-02-16T09:11:16Z</time>
      </trkpt>
      <trkpt lat="45.37919" lon="5.63975">
        <ele>449</ele>
        <time>2023-02-16T09:11:17Z</time>
      </trkpt>
      <trkpt lat="45.37918" lon="5.63982">
        <ele>449</ele>
        <time>2023-02-16T09:11:18Z</time>
      </trkpt>
      <trkpt lat="45.37917" lon="5.63989">
        <ele>449</ele>
        <time>2023-02-16T09:11:19Z</time>
      </trkpt>
      <trkpt lat="45.37916" lon="5.63996">
        <ele>449</ele>
        <time>2023-02-16T09:11:20Z</time>
      </trkpt>
      <trkpt lat="45.37915" lon="5.64003">
        <ele>449</ele>
        <time>2023-02-16T09:11:21Z</time>
      </trkpt>
      <trkpt lat="45.37914" lon="5.6401">
        <ele>449</ele>
        <time>2023-02-16T09:11:22Z</time>
      </trkpt>
      <trkpt lat="45.37913" lon="5.64017">
        <ele>449</ele>
        <time>2023-02-16T09:11:23Z</time>
      </trkpt>
      <trkpt lat="45.37912" lon="5.64024">
        <ele>449</ele>
        <time>2023-02-16T09:11:24Z</time>
      </trkpt>
      <trkpt lat="45.37911" lon="5.64031">
        <ele>449</ele>
        <time>2023-02-16T09:11:25Z</time>
      </trkpt>
      <trkpt lat="45.3791" lon="5.64038">
        <ele>449</ele>
        <time>2023-02-16T09:11:26Z</time>
      </trkpt>
      <trkpt lat="45.37909" lon="5.64045">
        <ele>449</ele>
        <time>2023-02-16T09:11:27Z</time>
      </trkpt>
      <trkpt lat="45.37908" lon="5.64052">
        <ele>449</ele>
        <time>2023-02-16T09:11:28Z</time>
      </trkpt>
      <trkpt lat="45.37907" lon="5.64058">
        <ele>449</ele>
        <time>2023-02-16T09:11:29Z</time>
      </trkpt>
      <trkpt lat="45.37906" lon="5.64065">
        <ele>450</ele>
        <time>2023-02-16T09:11:30Z</time>
      </trkpt>
      <trkpt lat="45.37905" lon="5.64072">
        <ele>450</ele>
        <time>2023-02-16T09:11:31Z</time>
      </trkpt>
      <trkpt lat="45.37905" lon="5.64079">
        <ele>450</ele>
        <time>2023-02-16T09:11:32Z</time>
      </trkpt>
      <trkpt lat="45.37904" lon="5.64086">
        <ele>450</ele>
        <time>2023-02-16T09:11:33Z</time>
      </trkpt>
      <trkpt lat="45.37901" lon="5.64091">
        <ele>450</ele>
        <time>2023-02-16T09:11:34Z</time>
      </trkpt>
      <trkpt lat="45.37897" lon="5.64094">
        <ele>451</ele>
        <time>2023-02-16T09:11:35Z</time>
      </trkpt>
      <trkpt lat="45.37892" lon="5.64093">
        <ele>451</ele>
        <time>2023-02-16T09:11:36Z</time>
      </trkpt>
      <trkpt lat="45.37887" lon="5.64089">
        <ele>451</ele>
        <time>2023-02-16T09:11:37Z</time>
      </trkpt>
      <trkpt lat="45.37883" lon="5.64085">
        <ele>451</ele>
        <time>2023-02-16T09:11:38Z</time>
      </trkpt>
      <trkpt lat="45.37879" lon="5.64081">
        <ele>451</ele>
        <time>2023-02-16T09:11:39Z</time>
      </trkpt>
      <trkpt lat="45.37874" lon="5.64076">
        <ele>451</ele>
        <time>2023-02-16T09:11:40Z</time>
      </trkpt>
      <trkpt lat="45.3787" lon="5.64072">
        <ele>451</ele>
        <time>2023-02-16T09:11:41Z</time>
      </trkpt>
      <trkpt lat="45.37866" lon="5.64067">
        <ele>451</ele>
        <time>2023-02-16T09:11:42Z</time>
      </trkpt>
      <trkpt lat="45.37861" lon="5.64063">
        <ele>451</ele>
        <time>2023-02-16T09:11:43Z</time>
      </trkpt>
      <trkpt lat="45.37857" lon="5.64058">
        <ele>451</ele>
        <time>2023-02-16T09:11:44Z</time>
      </trkpt>
      <trkpt lat="45.37852" lon="5.64054">
        <ele>451</ele>
        <time>2023-02-16T09:11:45Z</time>
      </trkpt>
      <trkpt lat="45.37848" lon="5.64049">
        <ele>451</ele>
        <time>2023-02-16T09:11:46Z</time>
      </trkpt>
      <trkpt lat="45.37843" lon="5.64045">
        <ele>451</ele>
        <time>2023-02-16T09:11:47Z</time>
      </trkpt>
      <trkpt lat="45.37838" lon="5.64042">
        <ele>451</ele>
        <time>2023-02-16T09:11:48Z</time>
      </trkpt>
      <trkpt lat="45.37833" lon="5.64042">
        <ele>451</ele>
        <time>2023-02-16T09:11:49Z</time>
      </trkpt>
      <trkpt lat="45.37828" lon="5.64045">
        <ele>450</ele>
        <time>2023-02-16T09:11:50Z</time>
      </trkpt>
      <trkpt lat="45.37824" lon="5.64051">
        <ele>450</ele>
        <time>2023-02-16T09:11:51Z</time>
      </trkpt>
      <trkpt lat="45.37821" lon="5.64057">
        <ele>451</ele>
        <time>2023-02-16T09:11:52Z</time>
      </trkpt>
      <trkpt lat="45.37818" lon="5.64064">
        <ele>451</ele>
        <time>2023-02-16T09:11:53Z</time>
      </trkpt>
      <trkpt lat="45.37815" lon="5.6407">
        <ele>451</ele>
        <time>2023-02-16T09:11:54Z</time>
      </trkpt>
      <trkpt lat="45.37813" lon="5.64077">
        <ele>451</ele>
        <time>2023-02-16T09:11:55Z</time>
      </trkpt>
      <trkpt lat="45.3781" lon="5.64084">
        <ele>451</ele>
        <time>2023-02-16T09:11:56Z</time>
      </trkpt>
      <trkpt lat="45.37807" lon="5.6409">
        <ele>451</ele>
        <time>2023-02-16T09:11:57Z</time>
      </trkpt>
      <trkpt lat="45.37804" lon="5.64097">
        <ele>451</ele>
        <time>2023-02-16T09:11:58Z</time>
      </trkpt>
      <trkpt lat="45.37801" lon="5.64103">
        <ele>451</ele>
        <time>2023-02-16T09:11:59Z</time>
      </trkpt>
      <trkpt lat="45.37798" lon="5.64109">
        <ele>451</ele>
        <time>2023-02-16T09:12:00Z</time>
      </trkpt>
      <trkpt lat="45.37796" lon="5.64116">
        <ele>451</ele>
        <time>2023-02-16T09:12:01Z</time>
      </trkpt>
      <trkpt lat="45.37794" lon="5.64123">
        <ele>451</ele>
        <time>2023-02-16T09:12:02Z</time>
      </trkpt>
      <trkpt lat="45.37792" lon="5.6413">
        <ele>451</ele>
        <time>2023-02-16T09:12:03Z</time>
      </trkpt>
      <trkpt lat="45.3779" lon="5.64137">
        <ele>451</ele>
        <time>2023-02-16T09:12:04Z</time>
      </trkpt>
      <trkpt lat="45.37788" lon="5.64143">
        <ele>451</ele>
        <time>2023-02-16T09:12:05Z</time>
      </trkpt>
      <trkpt lat="45.37785" lon="5.64149">
        <ele>451</ele>
        <time>2023-02-16T09:12:06Z</time>
      </trkpt>
      <trkpt lat="45.37783" lon="5.64156">
        <ele>452</ele>
        <time>2023-02-16T09:12:07Z</time>
      </trkpt>
      <trkpt lat="45.3778" lon="5.64162">
        <ele>452</ele>
        <time>2023-02-16T09:12:08Z</time>
      </trkpt>
      <trkpt lat="45.37778" lon="5.64169">
        <ele>452</ele>
        <time>2023-02-16T09:12:09Z</time>
      </trkpt>
      <trkpt lat="45.37775" lon="5.64175">
        <ele>452</ele>
        <time>2023-02-16T09:12:10Z</time>
      </trkpt>
      <trkpt lat="45.37772" lon="5.64181">
        <ele>452</ele>
        <time>2023-02-16T09:12:11Z</time>
      </trkpt>
      <trkpt lat="45.3777" lon="5.64186">
        <ele>452</ele>
        <time>2023-02-16T09:12:12Z</time>
      </trkpt>
      <trkpt lat="45.37767" lon="5.64192">
        <ele>452</ele>
        <time>2023-02-16T09:12:13Z</time>
      </trkpt>
      <trkpt lat="45.37764" lon="5.64196">
        <ele>452</ele>
        <time>2023-02-16T09:12:14Z</time>
      </trkpt>
      <trkpt lat="45.3776" lon="5.64199">
        <ele>452</ele>
        <time>2023-02-16T09:12:15Z</time>
      </trkpt>
      <trkpt lat="45.37757" lon="5.64204">
        <ele>452</ele>
        <time>2023-02-16T09:12:16Z</time>
      </trkpt>
      <trkpt lat="45.37756" lon="5.6421">
        <ele>452</ele>
        <time>2023-02-16T09:12:17Z</time>
      </trkpt>
      <trkpt lat="45.37757" lon="5.64216">
        <ele>452</ele>
        <time>2023-02-16T09:12:18Z</time>
      </trkpt>
      <trkpt lat="45.37759" lon="5.64222">
        <ele>452</ele>
        <time>2023-02-16T09:12:19Z</time>
      </trkpt>
      <trkpt lat="45.37762" lon="5.64227">
        <ele>452</ele>
        <time>2023-02-16T09:12:20Z</time>
      </trkpt>
      <trkpt lat="45.37765" lon="5.64232">
        <ele>453</ele>
        <time>2023-02-16T09:12:21Z</time>
      </trkpt>
      <trkpt lat="45.37768" lon="5.64237">
        <ele>453</ele>
        <time>2023-02-16T09:12:22Z</time>
      </trkpt>
      <trkpt lat="45.37772" lon="5.64242">
        <ele>453</ele>
        <time>2023-02-16T09:12:23Z</time>
      </trkpt>
      <trkpt lat="45.37776" lon="5.64247">
        <ele>453</ele>
        <time>2023-02-16T09:12:24Z</time>
      </trkpt>
      <trkpt lat="45.37779" lon="5.64252">
        <ele>453</ele>
        <time>2023-02-16T09:12:25Z</time>
      </trkpt>
      <trkpt lat="45.37783" lon="5.64257">
        <ele>453</ele>
        <time>2023-02-16T09:12:26Z</time>
      </trkpt>
      <trkpt lat="45.37787" lon="5.64262">
        <ele>453</ele>
        <time>2023-02-16T09:12:27Z</time>
      </trkpt>
      <trkpt lat="45.3779" lon="5.64268">
        <ele>453</ele>
        <time>2023-02-16T09:12:28Z</time>
      </trkpt>
      <trkpt lat="45.37793" lon="5.64273">
        <ele>453</ele>
        <time>2023-02-16T09:12:29Z</time>
      </trkpt>
      <trkpt lat="45.37797" lon="5.64279">
        <ele>453</ele>
        <time>2023-02-16T09:12:30Z</time>
      </trkpt>
      <trkpt lat="45.378" lon="5.64285">
        <ele>453</ele>
        <time>2023-02-16T09:12:31Z</time>
      </trkpt>
      <trkpt lat="45.37803" lon="5.64292">
        <ele>453</ele>
        <time>2023-02-16T09:12:32Z</time>
      </trkpt>
      <trkpt lat="45.37806" lon="5.64298">
        <ele>453</ele>
        <time>2023-02-16T09:12:33Z</time>
      </trkpt>
      <trkpt lat="45.37808" lon="5.64304">
        <ele>453</ele>
        <time>2023-02-16T09:12:34Z</time>
      </trkpt>
      <trkpt lat="45.37809" lon="5.64311">
        <ele>453</ele>
        <time>2023-02-16T09:12:35Z</time>
      </trkpt>
      <trkpt lat="45.37809" lon="5.64319">
        <ele>453</ele>
        <time>2023-02-16T09:12:36Z</time>
      </trkpt>
      <trkpt lat="45.37807" lon="5.64326">
        <ele>453</ele>
        <time>2023-02-16T09:12:37Z</time>
      </trkpt>
      <trkpt lat="45.37805" lon="5.64332">
        <ele>453</ele>
        <time>2023-02-16T09:12:38Z</time>
      </trkpt>
      <trkpt lat="45.37802" lon="5.64338">
        <ele>453</ele>
        <time>2023-02-16T09:12:39Z</time>
      </trkpt>
      <trkpt lat="45.37798" lon="5.64344">
        <ele>453</ele>
        <time>2023-02-16T09:12:40Z</time>
      </trkpt>
      <trkpt lat="45.37795" lon="5.6435">
        <ele>453</ele>
        <time>2023-02-16T09:12:41Z</time>
      </trkpt>
      <trkpt lat="45.37793" lon="5.64357">
        <ele>453</ele>
        <time>2023-02-16T09:12:42Z</time>
      </trkpt>
      <trkpt lat="45.3779" lon="5.64363">
        <ele>453</ele>
        <time>2023-02-16T09:12:43Z</time>
      </trkpt>
      <trkpt lat="45.37787" lon="5.64369">
        <ele>453</ele>
        <time>2023-02-16T09:12:44Z</time>
      </trkpt>
      <trkpt lat="45.37784" lon="5.64375">
        <ele>453</ele>
        <time>2023-02-16T09:12:45Z</time>
      </trkpt>
      <trkpt lat="45.37781" lon="5.64381">
        <ele>453</ele>
        <time>2023-02-16T09:12:46Z</time>
      </trkpt>
      <trkpt lat="45.37778" lon="5.64387">
        <ele>453</ele>
        <time>2023-02-16T09:12:47Z</time>
      </trkpt>
      <trkpt lat="45.37775" lon="5.64393">
        <ele>453</ele>
        <time>2023-02-16T09:12:48Z</time>
      </trkpt>
      <trkpt lat="45.37773" lon="5.64399">
        <ele>454</ele>
        <time>2023-02-16T09:12:49Z</time>
      </trkpt>
      <trkpt lat="45.37771" lon="5.64405">
        <ele>454</ele>
        <time>2023-02-16T09:12:50Z</time>
      </trkpt>
      <trkpt lat="45.37769" lon="5.64409">
        <ele>454</ele>
        <time>2023-02-16T09:12:51Z</time>
      </trkpt>
      <trkpt lat="45.37767" lon="5.64411">
        <ele>454</ele>
        <time>2023-02-16T09:12:52Z</time>
      </trkpt>
      <trkpt lat="45.37765" lon="5.64411">
        <ele>454</ele>
        <time>2023-02-16T09:12:54Z</time>
      </trkpt>
      <trkpt lat="45.37766" lon="5.64413">
        <ele>454</ele>
        <time>2023-02-16T09:12:57Z</time>
      </trkpt>
      <trkpt lat="45.37767" lon="5.64415">
        <ele>454</ele>
        <time>2023-02-16T09:12:59Z</time>
      </trkpt>
      <trkpt lat="45.37767" lon="5.64419">
        <ele>453</ele>
        <time>2023-02-16T09:13:01Z</time>
      </trkpt>
      <trkpt lat="45.37767" lon="5.64422">
        <ele>453</ele>
        <time>2023-02-16T09:13:02Z</time>
      </trkpt>
      <trkpt lat="45.37768" lon="5.64425">
        <ele>453</ele>
        <time>2023-02-16T09:13:03Z</time>
      </trkpt>
      <trkpt lat="45.37769" lon="5.64428">
        <ele>453</ele>
        <time>2023-02-16T09:13:04Z</time>
      </trkpt>
      <trkpt lat="45.37772" lon="5.64431">
        <ele>453</ele>
        <time>2023-02-16T09:13:05Z</time>
      </trkpt>
      <trkpt lat="45.37774" lon="5.64434">
        <ele>453</ele>
        <time>2023-02-16T09:13:06Z</time>
      </trkpt>
      <trkpt lat="45.37776" lon="5.64437">
        <ele>453</ele>
        <time>2023-02-16T09:13:07Z</time>
      </trkpt>
      <trkpt lat="45.37778" lon="5.64435">
        <ele>453</ele>
        <time>2023-02-16T09:13:09Z</time>
      </trkpt>
      <trkpt lat="45.37776" lon="5.64432">
        <ele>454</ele>
        <time>2023-02-16T09:13:10Z</time>
      </trkpt>
      <trkpt lat="45.37774" lon="5.6443">
        <ele>454</ele>
        <time>2023-02-16T09:13:11Z</time>
      </trkpt>
      <trkpt lat="45.3777" lon="5.64429">
        <ele>454</ele>
        <time>2023-02-16T09:13:12Z</time>
      </trkpt>
      <trkpt lat="45.37766" lon="5.6443">
        <ele>454</ele>
        <time>2023-02-16T09:13:13Z</time>
      </trkpt>
      <trkpt lat="45.37762" lon="5.64431">
        <ele>454</ele>
        <time>2023-02-16T09:13:14Z</time>
      </trkpt>
      <trkpt lat="45.37758" lon="5.64435">
        <ele>454</ele>
        <time>2023-02-16T09:13:15Z</time>
      </trkpt>
      <trkpt lat="45.37755" lon="5.64439">
        <ele>454</ele>
        <time>2023-02-16T09:13:16Z</time>
      </trkpt>
      <trkpt lat="45.37751" lon="5.64444">
        <ele>454</ele>
        <time>2023-02-16T09:13:17Z</time>
      </trkpt>
      <trkpt lat="45.37748" lon="5.64449">
        <ele>454</ele>
        <time>2023-02-16T09:13:18Z</time>
      </trkpt>
      <trkpt lat="45.37745" lon="5.64454">
        <ele>454</ele>
        <time>2023-02-16T09:13:19Z</time>
      </trkpt>
      <trkpt lat="45.37742" lon="5.64458">
        <ele>454</ele>
        <time>2023-02-16T09:13:20Z</time>
      </trkpt>
      <trkpt lat="45.37738" lon="5.64463">
        <ele>454</ele>
        <time>2023-02-16T09:13:21Z</time>
      </trkpt>
      <trkpt lat="45.37734" lon="5.64466">
        <ele>454</ele>
        <time>2023-02-16T09:13:22Z</time>
      </trkpt>
      <trkpt lat="45.37729" lon="5.64469">
        <ele>454</ele>
        <time>2023-02-16T09:13:23Z</time>
      </trkpt>
      <trkpt lat="45.37725" lon="5.6447">
        <ele>454</ele>
        <time>2023-02-16T09:13:24Z</time>
      </trkpt>
      <trkpt lat="45.3772" lon="5.64471">
        <ele>454</ele>
        <time>2023-02-16T09:13:25Z</time>
      </trkpt>
      <trkpt lat="45.37716" lon="5.64471">
        <ele>454</ele>
        <time>2023-02-16T09:13:26Z</time>
      </trkpt>
      <trkpt lat="45.37712" lon="5.64473">
        <ele>454</ele>
        <time>2023-02-16T09:13:27Z</time>
      </trkpt>
      <trkpt lat="45.37708" lon="5.64476">
        <ele>455</ele>
        <time>2023-02-16T09:13:28Z</time>
      </trkpt>
      <trkpt lat="45.37703" lon="5.64478">
        <ele>455</ele>
        <time>2023-02-16T09:13:29Z</time>
      </trkpt>
      <trkpt lat="45.37699" lon="5.6448">
        <ele>455</ele>
        <time>2023-02-16T09:13:30Z</time>
      </trkpt>
      <trkpt lat="45.37694" lon="5.64481">
        <ele>455</ele>
        <time>2023-02-16T09:13:31Z</time>
      </trkpt>
      <trkpt lat="45.37689" lon="5.64483">
        <ele>455</ele>
        <time>2023-02-16T09:13:32Z</time>
      </trkpt>
      <trkpt lat="45.37685" lon="5.64484">
        <ele>455</ele>
        <time>2023-02-16T09:13:33Z</time>
      </trkpt>
      <trkpt lat="45.3768" lon="5.64485">
        <ele>455</ele>
        <time>2023-02-16T09:13:34Z</time>
      </trkpt>
      <trkpt lat="45.37675" lon="5.64485">
        <ele>455</ele>
        <time>2023-02-16T09:13:35Z</time>
      </trkpt>
      <trkpt lat="45.3767" lon="5.64485">
        <ele>455</ele>
        <time>2023-02-16T09:13:36Z</time>
      </trkpt>
      <trkpt lat="45.37665" lon="5.64486">
        <ele>455</ele>
        <time>2023-02-16T09:13:37Z</time>
      </trkpt>
      <trkpt lat="45.3766" lon="5.64487">
        <ele>455</ele>
        <time>2023-02-16T09:13:38Z</time>
      </trkpt>
      <trkpt lat="45.37654" lon="5.64489">
        <ele>455</ele>
        <time>2023-02-16T09:13:39Z</time>
      </trkpt>
      <trkpt lat="45.37649" lon="5.6449">
        <ele>455</ele>
        <time>2023-02-16T09:13:40Z</time>
      </trkpt>
      <trkpt lat="45.37643" lon="5.64491">
        <ele>455</ele>
        <time>2023-02-16T09:13:41Z</time>
      </trkpt>
      <trkpt lat="45.37638" lon="5.64493">
        <ele>455</ele>
        <time>2023-02-16T09:13:42Z</time>
      </trkpt>
      <trkpt lat="45.37633" lon="5.64495">
        <ele>454</ele>
        <time>2023-02-16T09:13:43Z</time>
      </trkpt>
      <trkpt lat="45.37629" lon="5.64497">
        <ele>454</ele>
        <time>2023-02-16T09:13:44Z</time>
      </trkpt>
      <trkpt lat="45.37627" lon="5.64499">
        <ele>454</ele>
        <time>2023-02-16T09:13:45Z</time>
      </trkpt>
      <trkpt lat="45.37625" lon="5.64501">
        <ele>454</ele>
        <time>2023-02-16T09:13:46Z</time>
      </trkpt>
      <trkpt lat="45.37624" lon="5.64503">
        <ele>454</ele>
        <time>2023-02-16T09:13:48Z</time>
      </trkpt>
      <trkpt lat="45.37625" lon="5.64506">
        <ele>452</ele>
        <time>2023-02-16T09:13:51Z</time>
      </trkpt>
      <trkpt lat="45.37627" lon="5.64507">
        <ele>452</ele>
        <time>2023-02-16T09:13:53Z</time>
      </trkpt>
      <trkpt lat="45.37629" lon="5.64507">
        <ele>452</ele>
        <time>2023-02-16T09:13:54Z</time>
      </trkpt>
      <trkpt lat="45.37632" lon="5.64509">
        <ele>452</ele>
        <time>2023-02-16T09:13:55Z</time>
      </trkpt>
      <trkpt lat="45.37636" lon="5.6451">
        <ele>452</ele>
        <time>2023-02-16T09:13:56Z</time>
      </trkpt>
      <trkpt lat="45.37639" lon="5.64512">
        <ele>451</ele>
        <time>2023-02-16T09:13:57Z</time>
      </trkpt>
      <trkpt lat="45.37642" lon="5.64513">
        <ele>451</ele>
        <time>2023-02-16T09:13:58Z</time>
      </trkpt>
      <trkpt lat="45.37643" lon="5.64515">
        <ele>450</ele>
        <time>2023-02-16T09:14:01Z</time>
      </trkpt>
      <trkpt lat="45.37643" lon="5.64515">
        <ele>450</ele>
        <time>2023-02-16T09:14:06Z</time>
      </trkpt>
      <trkpt lat="45.37636" lon="5.64524">
        <ele>450</ele>
        <time>2023-02-16T09:14:30Z</time>
      </trkpt>
      <trkpt lat="45.37633" lon="5.64525">
        <ele>450</ele>
        <time>2023-02-16T09:14:31Z</time>
      </trkpt>
      <trkpt lat="45.37629" lon="5.64526">
        <ele>450</ele>
        <time>2023-02-16T09:14:32Z</time>
      </trkpt>
      <trkpt lat="45.37626" lon="5.64528">
        <ele>449</ele>
        <time>2023-02-16T09:14:33Z</time>
      </trkpt>
      <trkpt lat="45.37623" lon="5.6453">
        <ele>449</ele>
        <time>2023-02-16T09:14:34Z</time>
      </trkpt>
      <trkpt lat="45.37618" lon="5.64533">
        <ele>446</ele>
        <time>2023-02-16T09:14:35Z</time>
      </trkpt>
      <trkpt lat="45.37612" lon="5.64536">
        <ele>445</ele>
        <time>2023-02-16T09:14:36Z</time>
      </trkpt>
      <trkpt lat="45.37596" lon="5.6454">
        <ele>441</ele>
        <time>2023-02-16T09:14:38Z</time>
      </trkpt>
      <trkpt lat="45.37586" lon="5.64541">
        <ele>440</ele>
        <time>2023-02-16T09:14:39Z</time>
      </trkpt>
      <trkpt lat="45.37578" lon="5.64542">
        <ele>439</ele>
        <time>2023-02-16T09:14:40Z</time>
      </trkpt>
      <trkpt lat="45.37569" lon="5.64543">
        <ele>439</ele>
        <time>2023-02-16T09:14:41Z</time>
      </trkpt>
      <trkpt lat="45.37561" lon="5.64542">
        <ele>435</ele>
        <time>2023-02-16T09:14:42Z</time>
      </trkpt>
      <trkpt lat="45.37553" lon="5.64541">
        <ele>434</ele>
        <time>2023-02-16T09:14:43Z</time>
      </trkpt>
      <trkpt lat="45.37548" lon="5.64542">
        <ele>433</ele>
        <time>2023-02-16T09:14:44Z</time>
      </trkpt>
      <trkpt lat="45.37547" lon="5.64544">
        <ele>433</ele>
        <time>2023-02-16T09:14:45Z</time>
      </trkpt>
      <trkpt lat="45.37548" lon="5.64548">
        <ele>432</ele>
        <time>2023-02-16T09:14:46Z</time>
      </trkpt>
      <trkpt lat="45.3755" lon="5.6455">
        <ele>431</ele>
        <time>2023-02-16T09:14:47Z</time>
      </trkpt>
      <trkpt lat="45.37553" lon="5.64553">
        <ele>430</ele>
        <time>2023-02-16T09:14:48Z</time>
      </trkpt>
      <trkpt lat="45.37553" lon="5.64556">
        <ele>430</ele>
        <time>2023-02-16T09:14:49Z</time>
      </trkpt>
      <trkpt lat="45.37552" lon="5.6456">
        <ele>429</ele>
        <time>2023-02-16T09:14:50Z</time>
      </trkpt>
      <trkpt lat="45.3755" lon="5.64564">
        <ele>427</ele>
        <time>2023-02-16T09:14:51Z</time>
      </trkpt>
      <trkpt lat="45.37547" lon="5.64568">
        <ele>427</ele>
        <time>2023-02-16T09:14:52Z</time>
      </trkpt>
      <trkpt lat="45.37543" lon="5.64573">
        <ele>424</ele>
        <time>2023-02-16T09:14:53Z</time>
      </trkpt>
      <trkpt lat="45.37538" lon="5.64576">
        <ele>422</ele>
        <time>2023-02-16T09:14:54Z</time>
      </trkpt>
      <trkpt lat="45.37534" lon="5.64579">
        <ele>421</ele>
        <time>2023-02-16T09:14:55Z</time>
      </trkpt>
      <trkpt lat="45.37527" lon="5.64582">
        <ele>420</ele>
        <time>2023-02-16T09:14:56Z</time>
      </trkpt>
      <trkpt lat="45.37521" lon="5.64582">
        <ele>418</ele>
        <time>2023-02-16T09:14:57Z</time>
      </trkpt>
      <trkpt lat="45.37517" lon="5.64583">
        <ele>417</ele>
        <time>2023-02-16T09:14:58Z</time>
      </trkpt>
      <trkpt lat="45.37516" lon="5.64587">
        <ele>414</ele>
        <time>2023-02-16T09:15:00Z</time>
      </trkpt>
      <trkpt lat="45.37518" lon="5.64591">
        <ele>414</ele>
        <time>2023-02-16T09:15:01Z</time>
      </trkpt>
      <trkpt lat="45.37526" lon="5.64599">
        <ele>414</ele>
        <time>2023-02-16T09:15:03Z</time>
      </trkpt>
      <trkpt lat="45.37529" lon="5.64606">
        <ele>411</ele>
        <time>2023-02-16T09:15:04Z</time>
      </trkpt>
      <trkpt lat="45.3753" lon="5.64614">
        <ele>411</ele>
        <time>2023-02-16T09:15:05Z</time>
      </trkpt>
      <trkpt lat="45.37531" lon="5.64622">
        <ele>410</ele>
        <time>2023-02-16T09:15:06Z</time>
      </trkpt>
      <trkpt lat="45.37531" lon="5.64631">
        <ele>409</ele>
        <time>2023-02-16T09:15:07Z</time>
      </trkpt>
      <trkpt lat="45.3753" lon="5.6464">
        <ele>409</ele>
        <time>2023-02-16T09:15:08Z</time>
      </trkpt>
      <trkpt lat="45.37529" lon="5.64651">
        <ele>409</ele>
        <time>2023-02-16T09:15:09Z</time>
      </trkpt>
      <trkpt lat="45.37528" lon="5.64661">
        <ele>408</ele>
        <time>2023-02-16T09:15:10Z</time>
      </trkpt>
      <trkpt lat="45.37527" lon="5.6467">
        <ele>408</ele>
        <time>2023-02-16T09:15:11Z</time>
      </trkpt>
      <trkpt lat="45.37526" lon="5.64679">
        <ele>408</ele>
        <time>2023-02-16T09:15:12Z</time>
      </trkpt>
      <trkpt lat="45.37526" lon="5.64688">
        <ele>408</ele>
        <time>2023-02-16T09:15:13Z</time>
      </trkpt>
      <trkpt lat="45.37526" lon="5.64698">
        <ele>408</ele>
        <time>2023-02-16T09:15:14Z</time>
      </trkpt>
      <trkpt lat="45.37527" lon="5.64707">
        <ele>408</ele>
        <time>2023-02-16T09:15:15Z</time>
      </trkpt>
      <trkpt lat="45.37527" lon="5.64714">
        <ele>408</ele>
        <time>2023-02-16T09:15:16Z</time>
      </trkpt>
      <trkpt lat="45.37527" lon="5.64721">
        <ele>408</ele>
        <time>2023-02-16T09:15:17Z</time>
      </trkpt>
      <trkpt lat="45.37527" lon="5.64726">
        <ele>408</ele>
        <time>2023-02-16T09:15:18Z</time>
      </trkpt>
      <trkpt lat="45.37527" lon="5.64732">
        <ele>409</ele>
        <time>2023-02-16T09:15:19Z</time>
      </trkpt>
      <trkpt lat="45.37527" lon="5.64736">
        <ele>409</ele>
        <time>2023-02-16T09:15:20Z</time>
      </trkpt>
      <trkpt lat="45.37527" lon="5.6474">
        <ele>409</ele>
        <time>2023-02-16T09:15:21Z</time>
      </trkpt>
      <trkpt lat="45.37527" lon="5.64744">
        <ele>410</ele>
        <time>2023-02-16T09:15:22Z</time>
      </trkpt>
      <trkpt lat="45.37527" lon="5.64747">
        <ele>410</ele>
        <time>2023-02-16T09:15:23Z</time>
      </trkpt>
      <trkpt lat="45.37527" lon="5.6475">
        <ele>411</ele>
        <time>2023-02-16T09:15:24Z</time>
      </trkpt>
      <trkpt lat="45.37526" lon="5.64753">
        <ele>411</ele>
        <time>2023-02-16T09:15:25Z</time>
      </trkpt>
      <trkpt lat="45.37526" lon="5.64757">
        <ele>411</ele>
        <time>2023-02-16T09:15:26Z</time>
      </trkpt>
      <trkpt lat="45.37525" lon="5.64759">
        <ele>411</ele>
        <time>2023-02-16T09:15:27Z</time>
      </trkpt>
      <trkpt lat="45.37525" lon="5.64762">
        <ele>412</ele>
        <time>2023-02-16T09:15:28Z</time>
      </trkpt>
      <trkpt lat="45.37524" lon="5.64765">
        <ele>412</ele>
        <time>2023-02-16T09:15:29Z</time>
      </trkpt>
      <trkpt lat="45.37524" lon="5.64769">
        <ele>412</ele>
        <time>2023-02-16T09:15:30Z</time>
      </trkpt>
      <trkpt lat="45.37524" lon="5.64773">
        <ele>412</ele>
        <time>2023-02-16T09:15:31Z</time>
      </trkpt>
      <trkpt lat="45.37523" lon="5.64776">
        <ele>412</ele>
        <time>2023-02-16T09:15:32Z</time>
      </trkpt>
      <trkpt lat="45.37522" lon="5.6478">
        <ele>412</ele>
        <time>2023-02-16T09:15:33Z</time>
      </trkpt>
      <trkpt lat="45.37522" lon="5.64783">
        <ele>413</ele>
        <time>2023-02-16T09:15:34Z</time>
      </trkpt>
      <trkpt lat="45.37522" lon="5.64786">
        <ele>413</ele>
        <time>2023-02-16T09:15:35Z</time>
      </trkpt>
      <trkpt lat="45.37521" lon="5.64789">
        <ele>414</ele>
        <time>2023-02-16T09:15:36Z</time>
      </trkpt>
      <trkpt lat="45.37521" lon="5.64792">
        <ele>414</ele>
        <time>2023-02-16T09:15:37Z</time>
      </trkpt>
      <trkpt lat="45.37521" lon="5.64795">
        <ele>414</ele>
        <time>2023-02-16T09:15:38Z</time>
      </trkpt>
      <trkpt lat="45.3752" lon="5.64797">
        <ele>414</ele>
        <time>2023-02-16T09:15:39Z</time>
      </trkpt>
      <trkpt lat="45.37519" lon="5.64802">
        <ele>414</ele>
        <time>2023-02-16T09:15:41Z</time>
      </trkpt>
      <trkpt lat="45.37518" lon="5.64806">
        <ele>415</ele>
        <time>2023-02-16T09:15:43Z</time>
      </trkpt>
      <trkpt lat="45.37517" lon="5.6481">
        <ele>416</ele>
        <time>2023-02-16T09:15:45Z</time>
      </trkpt>
      <trkpt lat="45.37515" lon="5.64814">
        <ele>417</ele>
        <time>2023-02-16T09:15:47Z</time>
      </trkpt>
      <trkpt lat="45.37513" lon="5.64817">
        <ele>418</ele>
        <time>2023-02-16T09:15:49Z</time>
      </trkpt>
      <trkpt lat="45.3751" lon="5.64819">
        <ele>419</ele>
        <time>2023-02-16T09:15:51Z</time>
      </trkpt>
      <trkpt lat="45.37508" lon="5.64822">
        <ele>419</ele>
        <time>2023-02-16T09:15:53Z</time>
      </trkpt>
      <trkpt lat="45.37505" lon="5.64825">
        <ele>421</ele>
        <time>2023-02-16T09:15:55Z</time>
      </trkpt>
      <trkpt lat="45.37502" lon="5.64827">
        <ele>421</ele>
        <time>2023-02-16T09:15:57Z</time>
      </trkpt>
      <trkpt lat="45.375" lon="5.6483">
        <ele>422</ele>
        <time>2023-02-16T09:15:59Z</time>
      </trkpt>
      <trkpt lat="45.37497" lon="5.64833">
        <ele>422</ele>
        <time>2023-02-16T09:16:01Z</time>
      </trkpt>
      <trkpt lat="45.37494" lon="5.64836">
        <ele>422</ele>
        <time>2023-02-16T09:16:03Z</time>
      </trkpt>
      <trkpt lat="45.37493" lon="5.64837">
        <ele>423</ele>
        <time>2023-02-16T09:16:04Z</time>
      </trkpt>
      <trkpt lat="45.37491" lon="5.64839">
        <ele>423</ele>
        <time>2023-02-16T09:16:05Z</time>
      </trkpt>
      <trkpt lat="45.37489" lon="5.64841">
        <ele>423</ele>
        <time>2023-02-16T09:16:06Z</time>
      </trkpt>
      <trkpt lat="45.37488" lon="5.64842">
        <ele>424</ele>
        <time>2023-02-16T09:16:07Z</time>
      </trkpt>
      <trkpt lat="45.37486" lon="5.64844">
        <ele>424</ele>
        <time>2023-02-16T09:16:08Z</time>
      </trkpt>
      <trkpt lat="45.37485" lon="5.64846">
        <ele>424</ele>
        <time>2023-02-16T09:16:09Z</time>
      </trkpt>
      <trkpt lat="45.37484" lon="5.64848">
        <ele>424</ele>
        <time>2023-02-16T09:16:10Z</time>
      </trkpt>
      <trkpt lat="45.37482" lon="5.6485">
        <ele>425</ele>
        <time>2023-02-16T09:16:11Z</time>
      </trkpt>
      <trkpt lat="45.37481" lon="5.64852">
        <ele>425</ele>
        <time>2023-02-16T09:16:12Z</time>
      </trkpt>
      <trkpt lat="45.3748" lon="5.64854">
        <ele>425</ele>
        <time>2023-02-16T09:16:13Z</time>
      </trkpt>
      <trkpt lat="45.37479" lon="5.64857">
        <ele>426</ele>
        <time>2023-02-16T09:16:14Z</time>
      </trkpt>
      <trkpt lat="45.37478" lon="5.64859">
        <ele>426</ele>
        <time>2023-02-16T09:16:15Z</time>
      </trkpt>
      <trkpt lat="45.37477" lon="5.64861">
        <ele>426</ele>
        <time>2023-02-16T09:16:16Z</time>
      </trkpt>
      <trkpt lat="45.37476" lon="5.64866">
        <ele>427</ele>
        <time>2023-02-16T09:16:18Z</time>
      </trkpt>
      <trkpt lat="45.37475" lon="5.64869">
        <ele>427</ele>
        <time>2023-02-16T09:16:19Z</time>
      </trkpt>
      <trkpt lat="45.37473" lon="5.64871">
        <ele>428</ele>
        <time>2023-02-16T09:16:20Z</time>
      </trkpt>
      <trkpt lat="45.37472" lon="5.64874">
        <ele>428</ele>
        <time>2023-02-16T09:16:21Z</time>
      </trkpt>
      <trkpt lat="45.3747" lon="5.64877">
        <ele>428</ele>
        <time>2023-02-16T09:16:22Z</time>
      </trkpt>
      <trkpt lat="45.37468" lon="5.64879">
        <ele>428</ele>
        <time>2023-02-16T09:16:23Z</time>
      </trkpt>
      <trkpt lat="45.37465" lon="5.6488">
        <ele>428</ele>
        <time>2023-02-16T09:16:24Z</time>
      </trkpt>
      <trkpt lat="45.37462" lon="5.64881">
        <ele>428</ele>
        <time>2023-02-16T09:16:25Z</time>
      </trkpt>
      <trkpt lat="45.37459" lon="5.64882">
        <ele>429</ele>
        <time>2023-02-16T09:16:26Z</time>
      </trkpt>
      <trkpt lat="45.37456" lon="5.64883">
        <ele>429</ele>
        <time>2023-02-16T09:16:27Z</time>
      </trkpt>
      <trkpt lat="45.37453" lon="5.64883">
        <ele>429</ele>
        <time>2023-02-16T09:16:28Z</time>
      </trkpt>
      <trkpt lat="45.3745" lon="5.64884">
        <ele>429</ele>
        <time>2023-02-16T09:16:29Z</time>
      </trkpt>
      <trkpt lat="45.37446" lon="5.64884">
        <ele>429</ele>
        <time>2023-02-16T09:16:30Z</time>
      </trkpt>
      <trkpt lat="45.37443" lon="5.64886">
        <ele>429</ele>
        <time>2023-02-16T09:16:31Z</time>
      </trkpt>
      <trkpt lat="45.37439" lon="5.64887">
        <ele>429</ele>
        <time>2023-02-16T09:16:32Z</time>
      </trkpt>
      <trkpt lat="45.37436" lon="5.64888">
        <ele>429</ele>
        <time>2023-02-16T09:16:33Z</time>
      </trkpt>
      <trkpt lat="45.37432" lon="5.6489">
        <ele>429</ele>
        <time>2023-02-16T09:16:34Z</time>
      </trkpt>
      <trkpt lat="45.37428" lon="5.64892">
        <ele>429</ele>
        <time>2023-02-16T09:16:35Z</time>
      </trkpt>
      <trkpt lat="45.37425" lon="5.64894">
        <ele>429</ele>
        <time>2023-02-16T09:16:36Z</time>
      </trkpt>
      <trkpt lat="45.37421" lon="5.64896">
        <ele>429</ele>
        <time>2023-02-16T09:16:37Z</time>
      </trkpt>
      <trkpt lat="45.37417" lon="5.64899">
        <ele>429</ele>
        <time>2023-02-16T09:16:38Z</time>
      </trkpt>
      <trkpt lat="45.37414" lon="5.64901">
        <ele>429</ele>
        <time>2023-02-16T09:16:39Z</time>
      </trkpt>
      <trkpt lat="45.3741" lon="5.64905">
        <ele>429</ele>
        <time>2023-02-16T09:16:40Z</time>
      </trkpt>
      <trkpt lat="45.37406" lon="5.64908">
        <ele>429</ele>
        <time>2023-02-16T09:16:41Z</time>
      </trkpt>
      <trkpt lat="45.37402" lon="5.64911">
        <ele>429</ele>
        <time>2023-02-16T09:16:42Z</time>
      </trkpt>
      <trkpt lat="45.37399" lon="5.64914">
        <ele>429</ele>
        <time>2023-02-16T09:16:43Z</time>
      </trkpt>
      <trkpt lat="45.37394" lon="5.64917">
        <ele>429</ele>
        <time>2023-02-16T09:16:44Z</time>
      </trkpt>
      <trkpt lat="45.3739" lon="5.6492">
        <ele>429</ele>
        <time>2023-02-16T09:16:45Z</time>
      </trkpt>
      <trkpt lat="45.37386" lon="5.64923">
        <ele>429</ele>
        <time>2023-02-16T09:16:46Z</time>
      </trkpt>
      <trkpt lat="45.37382" lon="5.64926">
        <ele>429</ele>
        <time>2023-02-16T09:16:47Z</time>
      </trkpt>
      <trkpt lat="45.37378" lon="5.64929">
        <ele>429</ele>
        <time>2023-02-16T09:16:48Z</time>
      </trkpt>
      <trkpt lat="45.37374" lon="5.64932">
        <ele>429</ele>
        <time>2023-02-16T09:16:49Z</time>
      </trkpt>
      <trkpt lat="45.37371" lon="5.64935">
        <ele>429</ele>
        <time>2023-02-16T09:16:50Z</time>
      </trkpt>
      <trkpt lat="45.37367" lon="5.64939">
        <ele>429</ele>
        <time>2023-02-16T09:16:51Z</time>
      </trkpt>
      <trkpt lat="45.37364" lon="5.64942">
        <ele>428</ele>
        <time>2023-02-16T09:16:52Z</time>
      </trkpt>
      <trkpt lat="45.37361" lon="5.64946">
        <ele>428</ele>
        <time>2023-02-16T09:16:53Z</time>
      </trkpt>
      <trkpt lat="45.37358" lon="5.64949">
        <ele>429</ele>
        <time>2023-02-16T09:16:54Z</time>
      </trkpt>
      <trkpt lat="45.37356" lon="5.64952">
        <ele>429</ele>
        <time>2023-02-16T09:16:55Z</time>
      </trkpt>
      <trkpt lat="45.37353" lon="5.64955">
        <ele>430</ele>
        <time>2023-02-16T09:16:56Z</time>
      </trkpt>
      <trkpt lat="45.3735" lon="5.64957">
        <ele>430</ele>
        <time>2023-02-16T09:16:57Z</time>
      </trkpt>
      <trkpt lat="45.37348" lon="5.64959">
        <ele>430</ele>
        <time>2023-02-16T09:16:58Z</time>
      </trkpt>
      <trkpt lat="45.37345" lon="5.64961">
        <ele>431</ele>
        <time>2023-02-16T09:16:59Z</time>
      </trkpt>
      <trkpt lat="45.37343" lon="5.64964">
        <ele>431</ele>
        <time>2023-02-16T09:17:00Z</time>
      </trkpt>
      <trkpt lat="45.37341" lon="5.64966">
        <ele>432</ele>
        <time>2023-02-16T09:17:01Z</time>
      </trkpt>
      <trkpt lat="45.37338" lon="5.64968">
        <ele>432</ele>
        <time>2023-02-16T09:17:02Z</time>
      </trkpt>
      <trkpt lat="45.37336" lon="5.64971">
        <ele>432</ele>
        <time>2023-02-16T09:17:03Z</time>
      </trkpt>
      <trkpt lat="45.37333" lon="5.64974">
        <ele>432</ele>
        <time>2023-02-16T09:17:04Z</time>
      </trkpt>
      <trkpt lat="45.3733" lon="5.64977">
        <ele>432</ele>
        <time>2023-02-16T09:17:05Z</time>
      </trkpt>
      <trkpt lat="45.37328" lon="5.64979">
        <ele>432</ele>
        <time>2023-02-16T09:17:06Z</time>
      </trkpt>
      <trkpt lat="45.37325" lon="5.64982">
        <ele>432</ele>
        <time>2023-02-16T09:17:07Z</time>
      </trkpt>
      <trkpt lat="45.37322" lon="5.64985">
        <ele>432</ele>
        <time>2023-02-16T09:17:08Z</time>
      </trkpt>
      <trkpt lat="45.37319" lon="5.64988">
        <ele>432</ele>
        <time>2023-02-16T09:17:09Z</time>
      </trkpt>
      <trkpt lat="45.37316" lon="5.6499">
        <ele>433</ele>
        <time>2023-02-16T09:17:10Z</time>
      </trkpt>
      <trkpt lat="45.37313" lon="5.64992">
        <ele>433</ele>
        <time>2023-02-16T09:17:11Z</time>
      </trkpt>
      <trkpt lat="45.3731" lon="5.64995">
        <ele>433</ele>
        <time>2023-02-16T09:17:12Z</time>
      </trkpt>
      <trkpt lat="45.37307" lon="5.64997">
        <ele>433</ele>
        <time>2023-02-16T09:17:13Z</time>
      </trkpt>
      <trkpt lat="45.37303" lon="5.64999">
        <ele>433</ele>
        <time>2023-02-16T09:17:14Z</time>
      </trkpt>
      <trkpt lat="45.373" lon="5.65">
        <ele>433</ele>
        <time>2023-02-16T09:17:15Z</time>
      </trkpt>
      <trkpt lat="45.37297" lon="5.65002">
        <ele>433</ele>
        <time>2023-02-16T09:17:16Z</time>
      </trkpt>
      <trkpt lat="45.37294" lon="5.65004">
        <ele>433</ele>
        <time>2023-02-16T09:17:17Z</time>
      </trkpt>
      <trkpt lat="45.37291" lon="5.65007">
        <ele>433</ele>
        <time>2023-02-16T09:17:18Z</time>
      </trkpt>
      <trkpt lat="45.37287" lon="5.65009">
        <ele>433</ele>
        <time>2023-02-16T09:17:19Z</time>
      </trkpt>
      <trkpt lat="45.37284" lon="5.65011">
        <ele>433</ele>
        <time>2023-02-16T09:17:20Z</time>
      </trkpt>
      <trkpt lat="45.37281" lon="5.65013">
        <ele>434</ele>
        <time>2023-02-16T09:17:21Z</time>
      </trkpt>
      <trkpt lat="45.37277" lon="5.65016">
        <ele>434</ele>
        <time>2023-02-16T09:17:22Z</time>
      </trkpt>
      <trkpt lat="45.37274" lon="5.65019">
        <ele>434</ele>
        <time>2023-02-16T09:17:23Z</time>
      </trkpt>
      <trkpt lat="45.3727" lon="5.65022">
        <ele>434</ele>
        <time>2023-02-16T09:17:24Z</time>
      </trkpt>
      <trkpt lat="45.37266" lon="5.65026">
        <ele>434</ele>
        <time>2023-02-16T09:17:25Z</time>
      </trkpt>
      <trkpt lat="45.37262" lon="5.65029">
        <ele>434</ele>
        <time>2023-02-16T09:17:26Z</time>
      </trkpt>
      <trkpt lat="45.37258" lon="5.65032">
        <ele>433</ele>
        <time>2023-02-16T09:17:27Z</time>
      </trkpt>
      <trkpt lat="45.37254" lon="5.65035">
        <ele>433</ele>
        <time>2023-02-16T09:17:28Z</time>
      </trkpt>
      <trkpt lat="45.37251" lon="5.65039">
        <ele>433</ele>
        <time>2023-02-16T09:17:29Z</time>
      </trkpt>
      <trkpt lat="45.37247" lon="5.65042">
        <ele>433</ele>
        <time>2023-02-16T09:17:30Z</time>
      </trkpt>
      <trkpt lat="45.37243" lon="5.65045">
        <ele>433</ele>
        <time>2023-02-16T09:17:31Z</time>
      </trkpt>
      <trkpt lat="45.37239" lon="5.65048">
        <ele>433</ele>
        <time>2023-02-16T09:17:32Z</time>
      </trkpt>
      <trkpt lat="45.37236" lon="5.65049">
        <ele>433</ele>
        <time>2023-02-16T09:17:33Z</time>
      </trkpt>
      <trkpt lat="45.37234" lon="5.65049">
        <ele>433</ele>
        <time>2023-02-16T09:17:34Z</time>
      </trkpt>
      <trkpt lat="45.37232" lon="5.65048">
        <ele>433</ele>
        <time>2023-02-16T09:17:35Z</time>
      </trkpt>
      <trkpt lat="45.37228" lon="5.65048">
        <ele>433</ele>
        <time>2023-02-16T09:17:37Z</time>
      </trkpt>
      <trkpt lat="45.37226" lon="5.65051">
        <ele>433</ele>
        <time>2023-02-16T09:17:38Z</time>
      </trkpt>
      <trkpt lat="45.37224" lon="5.65053">
        <ele>433</ele>
        <time>2023-02-16T09:17:39Z</time>
      </trkpt>
      <trkpt lat="45.37222" lon="5.65056">
        <ele>433</ele>
        <time>2023-02-16T09:17:40Z</time>
      </trkpt>
      <trkpt lat="45.3722" lon="5.65058">
        <ele>433</ele>
        <time>2023-02-16T09:17:41Z</time>
      </trkpt>
      <trkpt lat="45.37219" lon="5.6506">
        <ele>433</ele>
        <time>2023-02-16T09:17:42Z</time>
      </trkpt>
      <trkpt lat="45.37217" lon="5.65062">
        <ele>433</ele>
        <time>2023-02-16T09:17:43Z</time>
      </trkpt>
      <trkpt lat="45.37215" lon="5.65064">
        <ele>433</ele>
        <time>2023-02-16T09:17:44Z</time>
      </trkpt>
      <trkpt lat="45.37213" lon="5.65065">
        <ele>433</ele>
        <time>2023-02-16T09:17:45Z</time>
      </trkpt>
      <trkpt lat="45.37211" lon="5.65067">
        <ele>433</ele>
        <time>2023-02-16T09:17:46Z</time>
      </trkpt>
      <trkpt lat="45.37209" lon="5.65068">
        <ele>433</ele>
        <time>2023-02-16T09:17:47Z</time>
      </trkpt>
      <trkpt lat="45.37207" lon="5.65069">
        <ele>434</ele>
        <time>2023-02-16T09:17:48Z</time>
      </trkpt>
      <trkpt lat="45.37204" lon="5.65071">
        <ele>435</ele>
        <time>2023-02-16T09:17:50Z</time>
      </trkpt>
      <trkpt lat="45.37202" lon="5.65072">
        <ele>435</ele>
        <time>2023-02-16T09:17:51Z</time>
      </trkpt>
      <trkpt lat="45.372" lon="5.65074">
        <ele>435</ele>
        <time>2023-02-16T09:17:52Z</time>
      </trkpt>
      <trkpt lat="45.37199" lon="5.65075">
        <ele>435</ele>
        <time>2023-02-16T09:17:53Z</time>
      </trkpt>
      <trkpt lat="45.37197" lon="5.65076">
        <ele>435</ele>
        <time>2023-02-16T09:17:54Z</time>
      </trkpt>
      <trkpt lat="45.37196" lon="5.65077">
        <ele>435</ele>
        <time>2023-02-16T09:17:55Z</time>
      </trkpt>
      <trkpt lat="45.37194" lon="5.65078">
        <ele>436</ele>
        <time>2023-02-16T09:17:56Z</time>
      </trkpt>
      <trkpt lat="45.37192" lon="5.6508">
        <ele>436</ele>
        <time>2023-02-16T09:17:57Z</time>
      </trkpt>
      <trkpt lat="45.3719" lon="5.6508">
        <ele>437</ele>
        <time>2023-02-16T09:17:58Z</time>
      </trkpt>
      <trkpt lat="45.37187" lon="5.65082">
        <ele>437</ele>
        <time>2023-02-16T09:18:00Z</time>
      </trkpt>
      <trkpt lat="45.37184" lon="5.65084">
        <ele>438</ele>
        <time>2023-02-16T09:18:02Z</time>
      </trkpt>
      <trkpt lat="45.37181" lon="5.65086">
        <ele>438</ele>
        <time>2023-02-16T09:18:04Z</time>
      </trkpt>
      <trkpt lat="45.37178" lon="5.65088">
        <ele>438</ele>
        <time>2023-02-16T09:18:06Z</time>
      </trkpt>
      <trkpt lat="45.37175" lon="5.6509">
        <ele>439</ele>
        <time>2023-02-16T09:18:08Z</time>
      </trkpt>
      <trkpt lat="45.37172" lon="5.65091">
        <ele>440</ele>
        <time>2023-02-16T09:18:10Z</time>
      </trkpt>
      <trkpt lat="45.37169" lon="5.65093">
        <ele>440</ele>
        <time>2023-02-16T09:18:12Z</time>
      </trkpt>
      <trkpt lat="45.37166" lon="5.65096">
        <ele>440</ele>
        <time>2023-02-16T09:18:14Z</time>
      </trkpt>
      <trkpt lat="45.37163" lon="5.65098">
        <ele>441</ele>
        <time>2023-02-16T09:18:16Z</time>
      </trkpt>
      <trkpt lat="45.37161" lon="5.65102">
        <ele>441</ele>
        <time>2023-02-16T09:18:18Z</time>
      </trkpt>
      <trkpt lat="45.37159" lon="5.65105">
        <ele>442</ele>
        <time>2023-02-16T09:18:20Z</time>
      </trkpt>
      <trkpt lat="45.37156" lon="5.65109">
        <ele>442</ele>
        <time>2023-02-16T09:18:22Z</time>
      </trkpt>
      <trkpt lat="45.37154" lon="5.65111">
        <ele>443</ele>
        <time>2023-02-16T09:18:24Z</time>
      </trkpt>
      <trkpt lat="45.37151" lon="5.65113">
        <ele>444</ele>
        <time>2023-02-16T09:18:26Z</time>
      </trkpt>
      <trkpt lat="45.37149" lon="5.65116">
        <ele>445</ele>
        <time>2023-02-16T09:18:28Z</time>
      </trkpt>
      <trkpt lat="45.37146" lon="5.65118">
        <ele>446</ele>
        <time>2023-02-16T09:18:30Z</time>
      </trkpt>
      <trkpt lat="45.37143" lon="5.6512">
        <ele>446</ele>
        <time>2023-02-16T09:18:32Z</time>
      </trkpt>
      <trkpt lat="45.3714" lon="5.65121">
        <ele>447</ele>
        <time>2023-02-16T09:18:34Z</time>
      </trkpt>
      <trkpt lat="45.37138" lon="5.65123">
        <ele>447</ele>
        <time>2023-02-16T09:18:36Z</time>
      </trkpt>
      <trkpt lat="45.37135" lon="5.65125">
        <ele>447</ele>
        <time>2023-02-16T09:18:38Z</time>
      </trkpt>
      <trkpt lat="45.37133" lon="5.65127">
        <ele>447</ele>
        <time>2023-02-16T09:18:40Z</time>
      </trkpt>
      <trkpt lat="45.37131" lon="5.6513">
        <ele>448</ele>
        <time>2023-02-16T09:18:42Z</time>
      </trkpt>
      <trkpt lat="45.37129" lon="5.65133">
        <ele>449</ele>
        <time>2023-02-16T09:18:44Z</time>
      </trkpt>
      <trkpt lat="45.37127" lon="5.65135">
        <ele>450</ele>
        <time>2023-02-16T09:18:46Z</time>
      </trkpt>
      <trkpt lat="45.37125" lon="5.65136">
        <ele>451</ele>
        <time>2023-02-16T09:18:48Z</time>
      </trkpt>
      <trkpt lat="45.37123" lon="5.65138">
        <ele>452</ele>
        <time>2023-02-16T09:18:50Z</time>
      </trkpt>
      <trkpt lat="45.3712" lon="5.65139">
        <ele>452</ele>
        <time>2023-02-16T09:18:52Z</time>
      </trkpt>
      <trkpt lat="45.37119" lon="5.6514">
        <ele>453</ele>
        <time>2023-02-16T09:18:54Z</time>
      </trkpt>
      <trkpt lat="45.37117" lon="5.65141">
        <ele>454</ele>
        <time>2023-02-16T09:18:56Z</time>
      </trkpt>
      <trkpt lat="45.37115" lon="5.65141">
        <ele>455</ele>
        <time>2023-02-16T09:18:58Z</time>
      </trkpt>
      <trkpt lat="45.37113" lon="5.65142">
        <ele>455</ele>
        <time>2023-02-16T09:19:00Z</time>
      </trkpt>
      <trkpt lat="45.37111" lon="5.65142">
        <ele>455</ele>
        <time>2023-02-16T09:19:02Z</time>
      </trkpt>
      <trkpt lat="45.37109" lon="5.65143">
        <ele>456</ele>
        <time>2023-02-16T09:19:04Z</time>
      </trkpt>
      <trkpt lat="45.37106" lon="5.65145">
        <ele>456</ele>
        <time>2023-02-16T09:19:06Z</time>
      </trkpt>
      <trkpt lat="45.37104" lon="5.65146">
        <ele>457</ele>
        <time>2023-02-16T09:19:08Z</time>
      </trkpt>
      <trkpt lat="45.37102" lon="5.65148">
        <ele>457</ele>
        <time>2023-02-16T09:19:10Z</time>
      </trkpt>
      <trkpt lat="45.371" lon="5.65149">
        <ele>458</ele>
        <time>2023-02-16T09:19:12Z</time>
      </trkpt>
      <trkpt lat="45.37098" lon="5.6515">
        <ele>459</ele>
        <time>2023-02-16T09:19:14Z</time>
      </trkpt>
      <trkpt lat="45.37096" lon="5.65152">
        <ele>459</ele>
        <time>2023-02-16T09:19:16Z</time>
      </trkpt>
      <trkpt lat="45.37094" lon="5.65155">
        <ele>460</ele>
        <time>2023-02-16T09:19:19Z</time>
      </trkpt>
      <trkpt lat="45.37092" lon="5.65158">
        <ele>460</ele>
        <time>2023-02-16T09:19:21Z</time>
      </trkpt>
      <trkpt lat="45.3709" lon="5.6516">
        <ele>460</ele>
        <time>2023-02-16T09:19:23Z</time>
      </trkpt>
      <trkpt lat="45.37088" lon="5.65164">
        <ele>461</ele>
        <time>2023-02-16T09:19:25Z</time>
      </trkpt>
      <trkpt lat="45.37086" lon="5.65166">
        <ele>462</ele>
        <time>2023-02-16T09:19:27Z</time>
      </trkpt>
      <trkpt lat="45.37085" lon="5.65169">
        <ele>463</ele>
        <time>2023-02-16T09:19:29Z</time>
      </trkpt>
      <trkpt lat="45.37084" lon="5.65171">
        <ele>463</ele>
        <time>2023-02-16T09:19:31Z</time>
      </trkpt>
      <trkpt lat="45.37082" lon="5.65174">
        <ele>463</ele>
        <time>2023-02-16T09:19:33Z</time>
      </trkpt>
      <trkpt lat="45.3708" lon="5.65176">
        <ele>464</ele>
        <time>2023-02-16T09:19:35Z</time>
      </trkpt>
      <trkpt lat="45.37079" lon="5.6518">
        <ele>464</ele>
        <time>2023-02-16T09:19:37Z</time>
      </trkpt>
      <trkpt lat="45.37077" lon="5.65184">
        <ele>465</ele>
        <time>2023-02-16T09:19:39Z</time>
      </trkpt>
      <trkpt lat="45.37075" lon="5.65186">
        <ele>465</ele>
        <time>2023-02-16T09:19:41Z</time>
      </trkpt>
      <trkpt lat="45.37073" lon="5.65189">
        <ele>466</ele>
        <time>2023-02-16T09:19:43Z</time>
      </trkpt>
      <trkpt lat="45.37071" lon="5.65191">
        <ele>466</ele>
        <time>2023-02-16T09:19:45Z</time>
      </trkpt>
      <trkpt lat="45.3707" lon="5.65194">
        <ele>467</ele>
        <time>2023-02-16T09:19:47Z</time>
      </trkpt>
      <trkpt lat="45.37067" lon="5.65197">
        <ele>467</ele>
        <time>2023-02-16T09:19:49Z</time>
      </trkpt>
      <trkpt lat="45.37064" lon="5.652">
        <ele>467</ele>
        <time>2023-02-16T09:19:51Z</time>
      </trkpt>
      <trkpt lat="45.37062" lon="5.65203">
        <ele>468</ele>
        <time>2023-02-16T09:19:53Z</time>
      </trkpt>
      <trkpt lat="45.37059" lon="5.65206">
        <ele>468</ele>
        <time>2023-02-16T09:19:55Z</time>
      </trkpt>
      <trkpt lat="45.37058" lon="5.65208">
        <ele>469</ele>
        <time>2023-02-16T09:19:56Z</time>
      </trkpt>
      <trkpt lat="45.37057" lon="5.6521">
        <ele>469</ele>
        <time>2023-02-16T09:19:57Z</time>
      </trkpt>
      <trkpt lat="45.37055" lon="5.65212">
        <ele>469</ele>
        <time>2023-02-16T09:19:58Z</time>
      </trkpt>
      <trkpt lat="45.37053" lon="5.65214">
        <ele>469</ele>
        <time>2023-02-16T09:19:59Z</time>
      </trkpt>
      <trkpt lat="45.37052" lon="5.65216">
        <ele>469</ele>
        <time>2023-02-16T09:20:00Z</time>
      </trkpt>
      <trkpt lat="45.3705" lon="5.65218">
        <ele>469</ele>
        <time>2023-02-16T09:20:01Z</time>
      </trkpt>
      <trkpt lat="45.37048" lon="5.65219">
        <ele>469</ele>
        <time>2023-02-16T09:20:02Z</time>
      </trkpt>
      <trkpt lat="45.37045" lon="5.65221">
        <ele>469</ele>
        <time>2023-02-16T09:20:04Z</time>
      </trkpt>
      <trkpt lat="45.37043" lon="5.65223">
        <ele>469</ele>
        <time>2023-02-16T09:20:05Z</time>
      </trkpt>
      <trkpt lat="45.37041" lon="5.65224">
        <ele>469</ele>
        <time>2023-02-16T09:20:06Z</time>
      </trkpt>
      <trkpt lat="45.37039" lon="5.65225">
        <ele>469</ele>
        <time>2023-02-16T09:20:07Z</time>
      </trkpt>
      <trkpt lat="45.37037" lon="5.65225">
        <ele>469</ele>
        <time>2023-02-16T09:20:08Z</time>
      </trkpt>
      <trkpt lat="45.37035" lon="5.65225">
        <ele>469</ele>
        <time>2023-02-16T09:20:09Z</time>
      </trkpt>
      <trkpt lat="45.37033" lon="5.65224">
        <ele>469</ele>
        <time>2023-02-16T09:20:10Z</time>
      </trkpt>
      <trkpt lat="45.37031" lon="5.65223">
        <ele>470</ele>
        <time>2023-02-16T09:20:11Z</time>
      </trkpt>
      <trkpt lat="45.37029" lon="5.65221">
        <ele>470</ele>
        <time>2023-02-16T09:20:12Z</time>
      </trkpt>
      <trkpt lat="45.37027" lon="5.6522">
        <ele>470</ele>
        <time>2023-02-16T09:20:13Z</time>
      </trkpt>
      <trkpt lat="45.37026" lon="5.65219">
        <ele>470</ele>
        <time>2023-02-16T09:20:14Z</time>
      </trkpt>
      <trkpt lat="45.37022" lon="5.65217">
        <ele>472</ele>
        <time>2023-02-16T09:20:16Z</time>
      </trkpt>
      <trkpt lat="45.3702" lon="5.65215">
        <ele>472</ele>
        <time>2023-02-16T09:20:17Z</time>
      </trkpt>
      <trkpt lat="45.37018" lon="5.65212">
        <ele>472</ele>
        <time>2023-02-16T09:20:19Z</time>
      </trkpt>
      <trkpt lat="45.37016" lon="5.65211">
        <ele>472</ele>
        <time>2023-02-16T09:20:20Z</time>
      </trkpt>
      <trkpt lat="45.37014" lon="5.65208">
        <ele>472</ele>
        <time>2023-02-16T09:20:22Z</time>
      </trkpt>
      <trkpt lat="45.37012" lon="5.65205">
        <ele>473</ele>
        <time>2023-02-16T09:20:24Z</time>
      </trkpt>
      <trkpt lat="45.3701" lon="5.65202">
        <ele>474</ele>
        <time>2023-02-16T09:20:26Z</time>
      </trkpt>
      <trkpt lat="45.37007" lon="5.652">
        <ele>474</ele>
        <time>2023-02-16T09:20:28Z</time>
      </trkpt>
      <trkpt lat="45.37005" lon="5.65197">
        <ele>474</ele>
        <time>2023-02-16T09:20:30Z</time>
      </trkpt>
      <trkpt lat="45.37002" lon="5.65194">
        <ele>475</ele>
        <time>2023-02-16T09:20:32Z</time>
      </trkpt>
      <trkpt lat="45.37001" lon="5.65192">
        <ele>475</ele>
        <time>2023-02-16T09:20:33Z</time>
      </trkpt>
      <trkpt lat="45.36998" lon="5.65189">
        <ele>475</ele>
        <time>2023-02-16T09:20:35Z</time>
      </trkpt>
      <trkpt lat="45.36995" lon="5.65187">
        <ele>476</ele>
        <time>2023-02-16T09:20:37Z</time>
      </trkpt>
      <trkpt lat="45.36993" lon="5.65185">
        <ele>476</ele>
        <time>2023-02-16T09:20:38Z</time>
      </trkpt>
      <trkpt lat="45.36991" lon="5.65184">
        <ele>476</ele>
        <time>2023-02-16T09:20:39Z</time>
      </trkpt>
      <trkpt lat="45.3699" lon="5.65182">
        <ele>476</ele>
        <time>2023-02-16T09:20:40Z</time>
      </trkpt>
      <trkpt lat="45.36988" lon="5.65181">
        <ele>476</ele>
        <time>2023-02-16T09:20:41Z</time>
      </trkpt>
      <trkpt lat="45.36986" lon="5.65179">
        <ele>477</ele>
        <time>2023-02-16T09:20:42Z</time>
      </trkpt>
      <trkpt lat="45.36984" lon="5.65178">
        <ele>477</ele>
        <time>2023-02-16T09:20:43Z</time>
      </trkpt>
      <trkpt lat="45.36983" lon="5.65177">
        <ele>477</ele>
        <time>2023-02-16T09:20:44Z</time>
      </trkpt>
      <trkpt lat="45.3698" lon="5.65177">
        <ele>477</ele>
        <time>2023-02-16T09:20:45Z</time>
      </trkpt>
      <trkpt lat="45.36979" lon="5.65176">
        <ele>477</ele>
        <time>2023-02-16T09:20:46Z</time>
      </trkpt>
      <trkpt lat="45.36977" lon="5.65176">
        <ele>477</ele>
        <time>2023-02-16T09:20:47Z</time>
      </trkpt>
      <trkpt lat="45.36975" lon="5.65174">
        <ele>477</ele>
        <time>2023-02-16T09:20:48Z</time>
      </trkpt>
      <trkpt lat="45.36973" lon="5.65173">
        <ele>477</ele>
        <time>2023-02-16T09:20:49Z</time>
      </trkpt>
      <trkpt lat="45.36971" lon="5.65172">
        <ele>477</ele>
        <time>2023-02-16T09:20:50Z</time>
      </trkpt>
      <trkpt lat="45.36969" lon="5.65171">
        <ele>477</ele>
        <time>2023-02-16T09:20:51Z</time>
      </trkpt>
      <trkpt lat="45.36967" lon="5.6517">
        <ele>478</ele>
        <time>2023-02-16T09:20:52Z</time>
      </trkpt>
      <trkpt lat="45.36965" lon="5.65169">
        <ele>478</ele>
        <time>2023-02-16T09:20:53Z</time>
      </trkpt>
      <trkpt lat="45.36964" lon="5.65168">
        <ele>478</ele>
        <time>2023-02-16T09:20:54Z</time>
      </trkpt>
      <trkpt lat="45.36962" lon="5.65166">
        <ele>478</ele>
        <time>2023-02-16T09:20:55Z</time>
      </trkpt>
      <trkpt lat="45.3696" lon="5.65165">
        <ele>478</ele>
        <time>2023-02-16T09:20:56Z</time>
      </trkpt>
      <trkpt lat="45.36959" lon="5.65163">
        <ele>478</ele>
        <time>2023-02-16T09:20:57Z</time>
      </trkpt>
      <trkpt lat="45.36955" lon="5.65161">
        <ele>479</ele>
        <time>2023-02-16T09:20:59Z</time>
      </trkpt>
      <trkpt lat="45.36952" lon="5.65159">
        <ele>480</ele>
        <time>2023-02-16T09:21:01Z</time>
      </trkpt>
      <trkpt lat="45.3695" lon="5.65157">
        <ele>481</ele>
        <time>2023-02-16T09:21:03Z</time>
      </trkpt>
      <trkpt lat="45.36947" lon="5.65155">
        <ele>481</ele>
        <time>2023-02-16T09:21:05Z</time>
      </trkpt>
      <trkpt lat="45.36944" lon="5.65153">
        <ele>481</ele>
        <time>2023-02-16T09:21:07Z</time>
      </trkpt>
      <trkpt lat="45.36942" lon="5.65152">
        <ele>481</ele>
        <time>2023-02-16T09:21:08Z</time>
      </trkpt>
      <trkpt lat="45.36941" lon="5.6515">
        <ele>481</ele>
        <time>2023-02-16T09:21:09Z</time>
      </trkpt>
      <trkpt lat="45.36939" lon="5.65149">
        <ele>481</ele>
        <time>2023-02-16T09:21:10Z</time>
      </trkpt>
      <trkpt lat="45.36938" lon="5.65148">
        <ele>481</ele>
        <time>2023-02-16T09:21:11Z</time>
      </trkpt>
      <trkpt lat="45.36936" lon="5.65146">
        <ele>481</ele>
        <time>2023-02-16T09:21:12Z</time>
      </trkpt>
      <trkpt lat="45.36933" lon="5.65143">
        <ele>482</ele>
        <time>2023-02-16T09:21:14Z</time>
      </trkpt>
      <trkpt lat="45.36931" lon="5.65141">
        <ele>482</ele>
        <time>2023-02-16T09:21:15Z</time>
      </trkpt>
      <trkpt lat="45.3693" lon="5.65139">
        <ele>482</ele>
        <time>2023-02-16T09:21:16Z</time>
      </trkpt>
      <trkpt lat="45.36928" lon="5.65137">
        <ele>482</ele>
        <time>2023-02-16T09:21:17Z</time>
      </trkpt>
      <trkpt lat="45.36927" lon="5.65134">
        <ele>482</ele>
        <time>2023-02-16T09:21:18Z</time>
      </trkpt>
      <trkpt lat="45.36926" lon="5.65132">
        <ele>482</ele>
        <time>2023-02-16T09:21:19Z</time>
      </trkpt>
      <trkpt lat="45.36925" lon="5.65129">
        <ele>483</ele>
        <time>2023-02-16T09:21:20Z</time>
      </trkpt>
      <trkpt lat="45.36923" lon="5.65126">
        <ele>483</ele>
        <time>2023-02-16T09:21:21Z</time>
      </trkpt>
      <trkpt lat="45.36922" lon="5.65123">
        <ele>483</ele>
        <time>2023-02-16T09:21:22Z</time>
      </trkpt>
      <trkpt lat="45.36921" lon="5.6512">
        <ele>483</ele>
        <time>2023-02-16T09:21:23Z</time>
      </trkpt>
      <trkpt lat="45.3692" lon="5.65117">
        <ele>483</ele>
        <time>2023-02-16T09:21:24Z</time>
      </trkpt>
      <trkpt lat="45.36919" lon="5.65113">
        <ele>483</ele>
        <time>2023-02-16T09:21:25Z</time>
      </trkpt>
      <trkpt lat="45.36918" lon="5.65109">
        <ele>484</ele>
        <time>2023-02-16T09:21:26Z</time>
      </trkpt>
      <trkpt lat="45.36917" lon="5.65105">
        <ele>484</ele>
        <time>2023-02-16T09:21:27Z</time>
      </trkpt>
      <trkpt lat="45.36916" lon="5.651">
        <ele>484</ele>
        <time>2023-02-16T09:21:28Z</time>
      </trkpt>
      <trkpt lat="45.36916" lon="5.65095">
        <ele>484</ele>
        <time>2023-02-16T09:21:29Z</time>
      </trkpt>
      <trkpt lat="45.36915" lon="5.65089">
        <ele>483</ele>
        <time>2023-02-16T09:21:30Z</time>
      </trkpt>
      <trkpt lat="45.36915" lon="5.65083">
        <ele>483</ele>
        <time>2023-02-16T09:21:31Z</time>
      </trkpt>
      <trkpt lat="45.36915" lon="5.65078">
        <ele>483</ele>
        <time>2023-02-16T09:21:32Z</time>
      </trkpt>
      <trkpt lat="45.36915" lon="5.65072">
        <ele>483</ele>
        <time>2023-02-16T09:21:33Z</time>
      </trkpt>
      <trkpt lat="45.36915" lon="5.65055">
        <ele>480</ele>
        <time>2023-02-16T09:21:35Z</time>
      </trkpt>
      <trkpt lat="45.36909" lon="5.65037">
        <ele>478</ele>
        <time>2023-02-16T09:21:37Z</time>
      </trkpt>
      <trkpt lat="45.36899" lon="5.6502">
        <ele>477</ele>
        <time>2023-02-16T09:21:39Z</time>
      </trkpt>
      <trkpt lat="45.36891" lon="5.65011">
        <ele>476</ele>
        <time>2023-02-16T09:21:41Z</time>
      </trkpt>
      <trkpt lat="45.36882" lon="5.64999">
        <ele>477</ele>
        <time>2023-02-16T09:21:43Z</time>
      </trkpt>
      <trkpt lat="45.36879" lon="5.64995">
        <ele>478</ele>
        <time>2023-02-16T09:21:44Z</time>
      </trkpt>
      <trkpt lat="45.36876" lon="5.64992">
        <ele>478</ele>
        <time>2023-02-16T09:21:45Z</time>
      </trkpt>
      <trkpt lat="45.36874" lon="5.6499">
        <ele>479</ele>
        <time>2023-02-16T09:21:46Z</time>
      </trkpt>
      <trkpt lat="45.36872" lon="5.64988">
        <ele>479</ele>
        <time>2023-02-16T09:21:47Z</time>
      </trkpt>
      <trkpt lat="45.36871" lon="5.64986">
        <ele>479</ele>
        <time>2023-02-16T09:21:48Z</time>
      </trkpt>
      <trkpt lat="45.36868" lon="5.64984">
        <ele>479</ele>
        <time>2023-02-16T09:21:50Z</time>
      </trkpt>
      <trkpt lat="45.36867" lon="5.64982">
        <ele>479</ele>
        <time>2023-02-16T09:21:51Z</time>
      </trkpt>
      <trkpt lat="45.36864" lon="5.64979">
        <ele>480</ele>
        <time>2023-02-16T09:21:53Z</time>
      </trkpt>
      <trkpt lat="45.36862" lon="5.64977">
        <ele>481</ele>
        <time>2023-02-16T09:21:55Z</time>
      </trkpt>
      <trkpt lat="45.36859" lon="5.64975">
        <ele>481</ele>
        <time>2023-02-16T09:21:57Z</time>
      </trkpt>
      <trkpt lat="45.36856" lon="5.64973">
        <ele>482</ele>
        <time>2023-02-16T09:21:59Z</time>
      </trkpt>
      <trkpt lat="45.36854" lon="5.64971">
        <ele>483</ele>
        <time>2023-02-16T09:22:01Z</time>
      </trkpt>
      <trkpt lat="45.36852" lon="5.64969">
        <ele>483</ele>
        <time>2023-02-16T09:22:03Z</time>
      </trkpt>
      <trkpt lat="45.3685" lon="5.64967">
        <ele>483</ele>
        <time>2023-02-16T09:22:05Z</time>
      </trkpt>
      <trkpt lat="45.36848" lon="5.64965">
        <ele>484</ele>
        <time>2023-02-16T09:22:07Z</time>
      </trkpt>
      <trkpt lat="45.36845" lon="5.64963">
        <ele>484</ele>
        <time>2023-02-16T09:22:09Z</time>
      </trkpt>
      <trkpt lat="45.36843" lon="5.64961">
        <ele>484</ele>
        <time>2023-02-16T09:22:11Z</time>
      </trkpt>
      <trkpt lat="45.3684" lon="5.64959">
        <ele>485</ele>
        <time>2023-02-16T09:22:13Z</time>
      </trkpt>
      <trkpt lat="45.36838" lon="5.64956">
        <ele>486</ele>
        <time>2023-02-16T09:22:15Z</time>
      </trkpt>
      <trkpt lat="45.36835" lon="5.64954">
        <ele>486</ele>
        <time>2023-02-16T09:22:17Z</time>
      </trkpt>
      <trkpt lat="45.36833" lon="5.64952">
        <ele>486</ele>
        <time>2023-02-16T09:22:19Z</time>
      </trkpt>
      <trkpt lat="45.36831" lon="5.64949">
        <ele>487</ele>
        <time>2023-02-16T09:22:21Z</time>
      </trkpt>
      <trkpt lat="45.36829" lon="5.64947">
        <ele>487</ele>
        <time>2023-02-16T09:22:23Z</time>
      </trkpt>
      <trkpt lat="45.36827" lon="5.64945">
        <ele>488</ele>
        <time>2023-02-16T09:22:25Z</time>
      </trkpt>
      <trkpt lat="45.36825" lon="5.64944">
        <ele>488</ele>
        <time>2023-02-16T09:22:27Z</time>
      </trkpt>
      <trkpt lat="45.36823" lon="5.64941">
        <ele>490</ele>
        <time>2023-02-16T09:22:29Z</time>
      </trkpt>
      <trkpt lat="45.36821" lon="5.64939">
        <ele>490</ele>
        <time>2023-02-16T09:22:31Z</time>
      </trkpt>
      <trkpt lat="45.36819" lon="5.64937">
        <ele>490</ele>
        <time>2023-02-16T09:22:34Z</time>
      </trkpt>
      <trkpt lat="45.36817" lon="5.64936">
        <ele>490</ele>
        <time>2023-02-16T09:22:36Z</time>
      </trkpt>
      <trkpt lat="45.36815" lon="5.64936">
        <ele>491</ele>
        <time>2023-02-16T09:22:38Z</time>
      </trkpt>
      <trkpt lat="45.36813" lon="5.64935">
        <ele>491</ele>
        <time>2023-02-16T09:22:40Z</time>
      </trkpt>
      <trkpt lat="45.36811" lon="5.64934">
        <ele>493</ele>
        <time>2023-02-16T09:22:42Z</time>
      </trkpt>
      <trkpt lat="45.36809" lon="5.64932">
        <ele>493</ele>
        <time>2023-02-16T09:22:44Z</time>
      </trkpt>
      <trkpt lat="45.36806" lon="5.64931">
        <ele>494</ele>
        <time>2023-02-16T09:22:46Z</time>
      </trkpt>
      <trkpt lat="45.36805" lon="5.64929">
        <ele>494</ele>
        <time>2023-02-16T09:22:48Z</time>
      </trkpt>
      <trkpt lat="45.36803" lon="5.64927">
        <ele>495</ele>
        <time>2023-02-16T09:22:50Z</time>
      </trkpt>
      <trkpt lat="45.36801" lon="5.64925">
        <ele>496</ele>
        <time>2023-02-16T09:22:52Z</time>
      </trkpt>
      <trkpt lat="45.36799" lon="5.64923">
        <ele>496</ele>
        <time>2023-02-16T09:22:54Z</time>
      </trkpt>
      <trkpt lat="45.36797" lon="5.64921">
        <ele>496</ele>
        <time>2023-02-16T09:22:57Z</time>
      </trkpt>
      <trkpt lat="45.36796" lon="5.64919">
        <ele>496</ele>
        <time>2023-02-16T09:22:59Z</time>
      </trkpt>
      <trkpt lat="45.36794" lon="5.64918">
        <ele>498</ele>
        <time>2023-02-16T09:23:03Z</time>
      </trkpt>
      <trkpt lat="45.36791" lon="5.64917">
        <ele>498</ele>
        <time>2023-02-16T09:23:06Z</time>
      </trkpt>
      <trkpt lat="45.36788" lon="5.64916">
        <ele>500</ele>
        <time>2023-02-16T09:23:08Z</time>
      </trkpt>
      <trkpt lat="45.36786" lon="5.64915">
        <ele>500</ele>
        <time>2023-02-16T09:23:10Z</time>
      </trkpt>
      <trkpt lat="45.36784" lon="5.64913">
        <ele>501</ele>
        <time>2023-02-16T09:23:13Z</time>
      </trkpt>
      <trkpt lat="45.36782" lon="5.64912">
        <ele>502</ele>
        <time>2023-02-16T09:23:16Z</time>
      </trkpt>
      <trkpt lat="45.3678" lon="5.6491">
        <ele>502</ele>
        <time>2023-02-16T09:23:19Z</time>
      </trkpt>
      <trkpt lat="45.36777" lon="5.64908">
        <ele>503</ele>
        <time>2023-02-16T09:23:22Z</time>
      </trkpt>
      <trkpt lat="45.36775" lon="5.64907">
        <ele>503</ele>
        <time>2023-02-16T09:23:24Z</time>
      </trkpt>
      <trkpt lat="45.36773" lon="5.64906">
        <ele>504</ele>
        <time>2023-02-16T09:23:26Z</time>
      </trkpt>
      <trkpt lat="45.36771" lon="5.64906">
        <ele>505</ele>
        <time>2023-02-16T09:23:28Z</time>
      </trkpt>
      <trkpt lat="45.36768" lon="5.64906">
        <ele>506</ele>
        <time>2023-02-16T09:23:31Z</time>
      </trkpt>
      <trkpt lat="45.36766" lon="5.64906">
        <ele>506</ele>
        <time>2023-02-16T09:23:34Z</time>
      </trkpt>
      <trkpt lat="45.36763" lon="5.64905">
        <ele>508</ele>
        <time>2023-02-16T09:23:37Z</time>
      </trkpt>
      <trkpt lat="45.36762" lon="5.64904">
        <ele>508</ele>
        <time>2023-02-16T09:23:39Z</time>
      </trkpt>
      <trkpt lat="45.3676" lon="5.64904">
        <ele>508</ele>
        <time>2023-02-16T09:23:41Z</time>
      </trkpt>
      <trkpt lat="45.36757" lon="5.64903">
        <ele>508</ele>
        <time>2023-02-16T09:23:44Z</time>
      </trkpt>
      <trkpt lat="45.36756" lon="5.64902">
        <ele>510</ele>
        <time>2023-02-16T09:23:46Z</time>
      </trkpt>
      <trkpt lat="45.36754" lon="5.64901">
        <ele>511</ele>
        <time>2023-02-16T09:23:49Z</time>
      </trkpt>
      <trkpt lat="45.36751" lon="5.649">
        <ele>511</ele>
        <time>2023-02-16T09:23:52Z</time>
      </trkpt>
      <trkpt lat="45.36749" lon="5.64898">
        <ele>512</ele>
        <time>2023-02-16T09:23:55Z</time>
      </trkpt>
      <trkpt lat="45.36747" lon="5.64897">
        <ele>512</ele>
        <time>2023-02-16T09:23:57Z</time>
      </trkpt>
      <trkpt lat="45.36745" lon="5.64896">
        <ele>512</ele>
        <time>2023-02-16T09:23:59Z</time>
      </trkpt>
      <trkpt lat="45.36744" lon="5.64896">
        <ele>512</ele>
        <time>2023-02-16T09:24:06Z</time>
      </trkpt>
      <trkpt lat="45.36735" lon="5.64894">
        <ele>512</ele>
        <time>2023-02-16T09:24:58Z</time>
      </trkpt>
      <trkpt lat="45.36732" lon="5.64893">
        <ele>512</ele>
        <time>2023-02-16T09:24:59Z</time>
      </trkpt>
      <trkpt lat="45.36729" lon="5.64892">
        <ele>512</ele>
        <time>2023-02-16T09:25:00Z</time>
      </trkpt>
      <trkpt lat="45.36725" lon="5.64891">
        <ele>512</ele>
        <time>2023-02-16T09:25:01Z</time>
      </trkpt>
      <trkpt lat="45.36722" lon="5.6489">
        <ele>512</ele>
        <time>2023-02-16T09:25:02Z</time>
      </trkpt>
      <trkpt lat="45.36719" lon="5.64888">
        <ele>512</ele>
        <time>2023-02-16T09:25:03Z</time>
      </trkpt>
      <trkpt lat="45.36716" lon="5.64886">
        <ele>512</ele>
        <time>2023-02-16T09:25:04Z</time>
      </trkpt>
      <trkpt lat="45.36714" lon="5.64884">
        <ele>512</ele>
        <time>2023-02-16T09:25:05Z</time>
      </trkpt>
      <trkpt lat="45.36712" lon="5.64882">
        <ele>512</ele>
        <time>2023-02-16T09:25:06Z</time>
      </trkpt>
      <trkpt lat="45.3671" lon="5.6488">
        <ele>512</ele>
        <time>2023-02-16T09:25:07Z</time>
      </trkpt>
      <trkpt lat="45.36709" lon="5.64878">
        <ele>512</ele>
        <time>2023-02-16T09:25:08Z</time>
      </trkpt>
      <trkpt lat="45.36708" lon="5.64878">
        <ele>512</ele>
        <time>2023-02-16T09:25:16Z</time>
      </trkpt>
      <trkpt lat="45.36704" lon="5.64877">
        <ele>512</ele>
        <time>2023-02-16T09:25:18Z</time>
      </trkpt>
      <trkpt lat="45.36702" lon="5.64877">
        <ele>512</ele>
        <time>2023-02-16T09:25:19Z</time>
      </trkpt>
      <trkpt lat="45.367" lon="5.64876">
        <ele>513</ele>
        <time>2023-02-16T09:25:20Z</time>
      </trkpt>
      <trkpt lat="45.36697" lon="5.64876">
        <ele>513</ele>
        <time>2023-02-16T09:25:21Z</time>
      </trkpt>
      <trkpt lat="45.36694" lon="5.64875">
        <ele>513</ele>
        <time>2023-02-16T09:25:22Z</time>
      </trkpt>
      <trkpt lat="45.36691" lon="5.64874">
        <ele>513</ele>
        <time>2023-02-16T09:25:23Z</time>
      </trkpt>
      <trkpt lat="45.36688" lon="5.64873">
        <ele>513</ele>
        <time>2023-02-16T09:25:24Z</time>
      </trkpt>
      <trkpt lat="45.36685" lon="5.64872">
        <ele>513</ele>
        <time>2023-02-16T09:25:25Z</time>
      </trkpt>
      <trkpt lat="45.36683" lon="5.64871">
        <ele>514</ele>
        <time>2023-02-16T09:25:26Z</time>
      </trkpt>
      <trkpt lat="45.36681" lon="5.6487">
        <ele>514</ele>
        <time>2023-02-16T09:25:27Z</time>
      </trkpt>
      <trkpt lat="45.36679" lon="5.64869">
        <ele>514</ele>
        <time>2023-02-16T09:25:28Z</time>
      </trkpt>
      <trkpt lat="45.36677" lon="5.64868">
        <ele>514</ele>
        <time>2023-02-16T09:25:29Z</time>
      </trkpt>
      <trkpt lat="45.36675" lon="5.64867">
        <ele>514</ele>
        <time>2023-02-16T09:25:30Z</time>
      </trkpt>
      <trkpt lat="45.36672" lon="5.64865">
        <ele>515</ele>
        <time>2023-02-16T09:25:32Z</time>
      </trkpt>
      <trkpt lat="45.36669" lon="5.64864">
        <ele>516</ele>
        <time>2023-02-16T09:25:34Z</time>
      </trkpt>
      <trkpt lat="45.36666" lon="5.64862">
        <ele>516</ele>
        <time>2023-02-16T09:25:36Z</time>
      </trkpt>
      <trkpt lat="45.36664" lon="5.6486">
        <ele>516</ele>
        <time>2023-02-16T09:25:38Z</time>
      </trkpt>
      <trkpt lat="45.36662" lon="5.64859">
        <ele>516</ele>
        <time>2023-02-16T09:25:40Z</time>
      </trkpt>
      <trkpt lat="45.36659" lon="5.64857">
        <ele>516</ele>
        <time>2023-02-16T09:25:42Z</time>
      </trkpt>
      <trkpt lat="45.36657" lon="5.64855">
        <ele>518</ele>
        <time>2023-02-16T09:25:44Z</time>
      </trkpt>
      <trkpt lat="45.36656" lon="5.64854">
        <ele>519</ele>
        <time>2023-02-16T09:25:46Z</time>
      </trkpt>
      <trkpt lat="45.36653" lon="5.64853">
        <ele>519</ele>
        <time>2023-02-16T09:25:48Z</time>
      </trkpt>
      <trkpt lat="45.36651" lon="5.64851">
        <ele>520</ele>
        <time>2023-02-16T09:25:50Z</time>
      </trkpt>
      <trkpt lat="45.36649" lon="5.64848">
        <ele>522</ele>
        <time>2023-02-16T09:25:52Z</time>
      </trkpt>
      <trkpt lat="45.36647" lon="5.64847">
        <ele>522</ele>
        <time>2023-02-16T09:25:54Z</time>
      </trkpt>
      <trkpt lat="45.36645" lon="5.64845">
        <ele>522</ele>
        <time>2023-02-16T09:25:56Z</time>
      </trkpt>
      <trkpt lat="45.36643" lon="5.64842">
        <ele>524</ele>
        <time>2023-02-16T09:25:58Z</time>
      </trkpt>
      <trkpt lat="45.36641" lon="5.6484">
        <ele>524</ele>
        <time>2023-02-16T09:26:00Z</time>
      </trkpt>
      <trkpt lat="45.3664" lon="5.64838">
        <ele>526</ele>
        <time>2023-02-16T09:26:02Z</time>
      </trkpt>
      <trkpt lat="45.36638" lon="5.64836">
        <ele>526</ele>
        <time>2023-02-16T09:26:04Z</time>
      </trkpt>
      <trkpt lat="45.36636" lon="5.64834">
        <ele>527</ele>
        <time>2023-02-16T09:26:06Z</time>
      </trkpt>
      <trkpt lat="45.36633" lon="5.64832">
        <ele>527</ele>
        <time>2023-02-16T09:26:08Z</time>
      </trkpt>
      <trkpt lat="45.36631" lon="5.6483">
        <ele>528</ele>
        <time>2023-02-16T09:26:10Z</time>
      </trkpt>
      <trkpt lat="45.36629" lon="5.64828">
        <ele>529</ele>
        <time>2023-02-16T09:26:12Z</time>
      </trkpt>
      <trkpt lat="45.36627" lon="5.64826">
        <ele>529</ele>
        <time>2023-02-16T09:26:14Z</time>
      </trkpt>
      <trkpt lat="45.36626" lon="5.64824">
        <ele>530</ele>
        <time>2023-02-16T09:26:16Z</time>
      </trkpt>
      <trkpt lat="45.36624" lon="5.6482">
        <ele>530</ele>
        <time>2023-02-16T09:26:18Z</time>
      </trkpt>
      <trkpt lat="45.36622" lon="5.64816">
        <ele>531</ele>
        <time>2023-02-16T09:26:20Z</time>
      </trkpt>
      <trkpt lat="45.3662" lon="5.64814">
        <ele>531</ele>
        <time>2023-02-16T09:26:21Z</time>
      </trkpt>
      <trkpt lat="45.36619" lon="5.64812">
        <ele>531</ele>
        <time>2023-02-16T09:26:22Z</time>
      </trkpt>
      <trkpt lat="45.36618" lon="5.6481">
        <ele>531</ele>
        <time>2023-02-16T09:26:23Z</time>
      </trkpt>
      <trkpt lat="45.36616" lon="5.64808">
        <ele>531</ele>
        <time>2023-02-16T09:26:24Z</time>
      </trkpt>
      <trkpt lat="45.36614" lon="5.64807">
        <ele>531</ele>
        <time>2023-02-16T09:26:25Z</time>
      </trkpt>
      <trkpt lat="45.36612" lon="5.64805">
        <ele>531</ele>
        <time>2023-02-16T09:26:26Z</time>
      </trkpt>
      <trkpt lat="45.36609" lon="5.64802">
        <ele>531</ele>
        <time>2023-02-16T09:26:27Z</time>
      </trkpt>
      <trkpt lat="45.36606" lon="5.648">
        <ele>531</ele>
        <time>2023-02-16T09:26:28Z</time>
      </trkpt>
      <trkpt lat="45.36602" lon="5.64799">
        <ele>531</ele>
        <time>2023-02-16T09:26:29Z</time>
      </trkpt>
      <trkpt lat="45.36599" lon="5.64798">
        <ele>530</ele>
        <time>2023-02-16T09:26:30Z</time>
      </trkpt>
      <trkpt lat="45.36595" lon="5.64796">
        <ele>530</ele>
        <time>2023-02-16T09:26:31Z</time>
      </trkpt>
      <trkpt lat="45.36591" lon="5.64795">
        <ele>530</ele>
        <time>2023-02-16T09:26:32Z</time>
      </trkpt>
      <trkpt lat="45.36588" lon="5.64792">
        <ele>530</ele>
        <time>2023-02-16T09:26:33Z</time>
      </trkpt>
      <trkpt lat="45.36585" lon="5.64789">
        <ele>530</ele>
        <time>2023-02-16T09:26:34Z</time>
      </trkpt>
      <trkpt lat="45.36583" lon="5.64784">
        <ele>530</ele>
        <time>2023-02-16T09:26:35Z</time>
      </trkpt>
      <trkpt lat="45.3658" lon="5.6478">
        <ele>529</ele>
        <time>2023-02-16T09:26:36Z</time>
      </trkpt>
      <trkpt lat="45.36571" lon="5.64768">
        <ele>529</ele>
        <time>2023-02-16T09:26:39Z</time>
      </trkpt>
      <trkpt lat="45.36568" lon="5.64764">
        <ele>529</ele>
        <time>2023-02-16T09:26:40Z</time>
      </trkpt>
      <trkpt lat="45.36566" lon="5.64762">
        <ele>530</ele>
        <time>2023-02-16T09:26:41Z</time>
      </trkpt>
      <trkpt lat="45.36563" lon="5.64759">
        <ele>530</ele>
        <time>2023-02-16T09:26:42Z</time>
      </trkpt>
      <trkpt lat="45.36561" lon="5.64756">
        <ele>530</ele>
        <time>2023-02-16T09:26:43Z</time>
      </trkpt>
      <trkpt lat="45.36558" lon="5.64754">
        <ele>530</ele>
        <time>2023-02-16T09:26:44Z</time>
      </trkpt>
      <trkpt lat="45.36556" lon="5.64752">
        <ele>530</ele>
        <time>2023-02-16T09:26:45Z</time>
      </trkpt>
      <trkpt lat="45.36553" lon="5.6475">
        <ele>530</ele>
        <time>2023-02-16T09:26:46Z</time>
      </trkpt>
      <trkpt lat="45.36551" lon="5.64749">
        <ele>530</ele>
        <time>2023-02-16T09:26:47Z</time>
      </trkpt>
      <trkpt lat="45.36549" lon="5.64746">
        <ele>530</ele>
        <time>2023-02-16T09:26:48Z</time>
      </trkpt>
      <trkpt lat="45.36547" lon="5.64744">
        <ele>530</ele>
        <time>2023-02-16T09:26:49Z</time>
      </trkpt>
      <trkpt lat="45.36545" lon="5.64741">
        <ele>531</ele>
        <time>2023-02-16T09:26:50Z</time>
      </trkpt>
      <trkpt lat="45.36543" lon="5.64738">
        <ele>531</ele>
        <time>2023-02-16T09:26:51Z</time>
      </trkpt>
      <trkpt lat="45.3654" lon="5.64734">
        <ele>531</ele>
        <time>2023-02-16T09:26:52Z</time>
      </trkpt>
      <trkpt lat="45.36538" lon="5.64732">
        <ele>531</ele>
        <time>2023-02-16T09:26:53Z</time>
      </trkpt>
      <trkpt lat="45.36536" lon="5.64731">
        <ele>531</ele>
        <time>2023-02-16T09:26:54Z</time>
      </trkpt>
      <trkpt lat="45.36534" lon="5.64729">
        <ele>531</ele>
        <time>2023-02-16T09:26:55Z</time>
      </trkpt>
      <trkpt lat="45.36532" lon="5.64726">
        <ele>531</ele>
        <time>2023-02-16T09:26:56Z</time>
      </trkpt>
      <trkpt lat="45.36529" lon="5.64722">
        <ele>531</ele>
        <time>2023-02-16T09:26:57Z</time>
      </trkpt>
      <trkpt lat="45.36526" lon="5.64718">
        <ele>531</ele>
        <time>2023-02-16T09:26:58Z</time>
      </trkpt>
      <trkpt lat="45.36523" lon="5.64714">
        <ele>531</ele>
        <time>2023-02-16T09:26:59Z</time>
      </trkpt>
      <trkpt lat="45.36519" lon="5.6471">
        <ele>530</ele>
        <time>2023-02-16T09:27:00Z</time>
      </trkpt>
      <trkpt lat="45.36515" lon="5.64705">
        <ele>530</ele>
        <time>2023-02-16T09:27:01Z</time>
      </trkpt>
      <trkpt lat="45.3651" lon="5.64699">
        <ele>530</ele>
        <time>2023-02-16T09:27:02Z</time>
      </trkpt>
      <trkpt lat="45.36506" lon="5.64694">
        <ele>530</ele>
        <time>2023-02-16T09:27:03Z</time>
      </trkpt>
      <trkpt lat="45.36502" lon="5.64689">
        <ele>530</ele>
        <time>2023-02-16T09:27:04Z</time>
      </trkpt>
      <trkpt lat="45.36498" lon="5.64684">
        <ele>530</ele>
        <time>2023-02-16T09:27:05Z</time>
      </trkpt>
      <trkpt lat="45.36493" lon="5.6468">
        <ele>530</ele>
        <time>2023-02-16T09:27:06Z</time>
      </trkpt>
      <trkpt lat="45.36489" lon="5.64675">
        <ele>530</ele>
        <time>2023-02-16T09:27:07Z</time>
      </trkpt>
      <trkpt lat="45.36481" lon="5.64659">
        <ele>530</ele>
        <time>2023-02-16T09:27:09Z</time>
      </trkpt>
      <trkpt lat="45.36477" lon="5.6465">
        <ele>530</ele>
        <time>2023-02-16T09:27:10Z</time>
      </trkpt>
      <trkpt lat="45.36473" lon="5.64642">
        <ele>530</ele>
        <time>2023-02-16T09:27:11Z</time>
      </trkpt>
      <trkpt lat="45.3647" lon="5.64634">
        <ele>529</ele>
        <time>2023-02-16T09:27:12Z</time>
      </trkpt>
      <trkpt lat="45.36468" lon="5.64627">
        <ele>527</ele>
        <time>2023-02-16T09:27:13Z</time>
      </trkpt>
      <trkpt lat="45.36465" lon="5.6462">
        <ele>527</ele>
        <time>2023-02-16T09:27:14Z</time>
      </trkpt>
      <trkpt lat="45.36462" lon="5.64614">
        <ele>527</ele>
        <time>2023-02-16T09:27:15Z</time>
      </trkpt>
      <trkpt lat="45.36457" lon="5.64609">
        <ele>526</ele>
        <time>2023-02-16T09:27:16Z</time>
      </trkpt>
      <trkpt lat="45.36452" lon="5.64604">
        <ele>526</ele>
        <time>2023-02-16T09:27:17Z</time>
      </trkpt>
      <trkpt lat="45.36446" lon="5.64598">
        <ele>525</ele>
        <time>2023-02-16T09:27:18Z</time>
      </trkpt>
      <trkpt lat="45.36439" lon="5.64593">
        <ele>525</ele>
        <time>2023-02-16T09:27:19Z</time>
      </trkpt>
      <trkpt lat="45.36434" lon="5.64589">
        <ele>525</ele>
        <time>2023-02-16T09:27:20Z</time>
      </trkpt>
      <trkpt lat="45.36428" lon="5.64585">
        <ele>524</ele>
        <time>2023-02-16T09:27:21Z</time>
      </trkpt>
      <trkpt lat="45.36422" lon="5.64581">
        <ele>524</ele>
        <time>2023-02-16T09:27:22Z</time>
      </trkpt>
      <trkpt lat="45.36419" lon="5.64577">
        <ele>524</ele>
        <time>2023-02-16T09:27:23Z</time>
      </trkpt>
      <trkpt lat="45.36415" lon="5.64573">
        <ele>524</ele>
        <time>2023-02-16T09:27:24Z</time>
      </trkpt>
      <trkpt lat="45.36411" lon="5.64567">
        <ele>523</ele>
        <time>2023-02-16T09:27:25Z</time>
      </trkpt>
      <trkpt lat="45.36408" lon="5.6456">
        <ele>523</ele>
        <time>2023-02-16T09:27:26Z</time>
      </trkpt>
      <trkpt lat="45.36404" lon="5.64553">
        <ele>524</ele>
        <time>2023-02-16T09:27:27Z</time>
      </trkpt>
      <trkpt lat="45.36396" lon="5.64537">
        <ele>524</ele>
        <time>2023-02-16T09:27:29Z</time>
      </trkpt>
      <trkpt lat="45.36387" lon="5.64524">
        <ele>523</ele>
        <time>2023-02-16T09:27:31Z</time>
      </trkpt>
      <trkpt lat="45.36379" lon="5.64516">
        <ele>523</ele>
        <time>2023-02-16T09:27:33Z</time>
      </trkpt>
      <trkpt lat="45.3637" lon="5.64506">
        <ele>523</ele>
        <time>2023-02-16T09:27:35Z</time>
      </trkpt>
      <trkpt lat="45.36362" lon="5.64498">
        <ele>523</ele>
        <time>2023-02-16T09:27:37Z</time>
      </trkpt>
      <trkpt lat="45.36352" lon="5.64487">
        <ele>523</ele>
        <time>2023-02-16T09:27:39Z</time>
      </trkpt>
      <trkpt lat="45.36343" lon="5.64476">
        <ele>523</ele>
        <time>2023-02-16T09:27:41Z</time>
      </trkpt>
      <trkpt lat="45.36334" lon="5.64467">
        <ele>523</ele>
        <time>2023-02-16T09:27:43Z</time>
      </trkpt>
      <trkpt lat="45.36325" lon="5.64456">
        <ele>524</ele>
        <time>2023-02-16T09:27:46Z</time>
      </trkpt>
      <trkpt lat="45.36317" lon="5.64447">
        <ele>524</ele>
        <time>2023-02-16T09:27:48Z</time>
      </trkpt>
      <trkpt lat="45.3631" lon="5.64437">
        <ele>524</ele>
        <time>2023-02-16T09:27:50Z</time>
      </trkpt>
      <trkpt lat="45.36301" lon="5.64423">
        <ele>525</ele>
        <time>2023-02-16T09:27:53Z</time>
      </trkpt>
      <trkpt lat="45.36293" lon="5.64415">
        <ele>525</ele>
        <time>2023-02-16T09:27:55Z</time>
      </trkpt>
      <trkpt lat="45.3629" lon="5.64411">
        <ele>525</ele>
        <time>2023-02-16T09:27:56Z</time>
      </trkpt>
      <trkpt lat="45.36286" lon="5.64407">
        <ele>525</ele>
        <time>2023-02-16T09:27:57Z</time>
      </trkpt>
      <trkpt lat="45.36282" lon="5.64404">
        <ele>525</ele>
        <time>2023-02-16T09:27:58Z</time>
      </trkpt>
      <trkpt lat="45.36278" lon="5.644">
        <ele>525</ele>
        <time>2023-02-16T09:27:59Z</time>
      </trkpt>
      <trkpt lat="45.36275" lon="5.64396">
        <ele>525</ele>
        <time>2023-02-16T09:28:00Z</time>
      </trkpt>
      <trkpt lat="45.3627" lon="5.64393">
        <ele>525</ele>
        <time>2023-02-16T09:28:01Z</time>
      </trkpt>
      <trkpt lat="45.36266" lon="5.64389">
        <ele>525</ele>
        <time>2023-02-16T09:28:02Z</time>
      </trkpt>
      <trkpt lat="45.36261" lon="5.64384">
        <ele>525</ele>
        <time>2023-02-16T09:28:03Z</time>
      </trkpt>
      <trkpt lat="45.36256" lon="5.64379">
        <ele>525</ele>
        <time>2023-02-16T09:28:04Z</time>
      </trkpt>
      <trkpt lat="45.36252" lon="5.64377">
        <ele>525</ele>
        <time>2023-02-16T09:28:05Z</time>
      </trkpt>
      <trkpt lat="45.36247" lon="5.64378">
        <ele>525</ele>
        <time>2023-02-16T09:28:06Z</time>
      </trkpt>
      <trkpt lat="45.36245" lon="5.64379">
        <ele>525</ele>
        <time>2023-02-16T09:28:07Z</time>
      </trkpt>
      <trkpt lat="45.36243" lon="5.6438">
        <ele>525</ele>
        <time>2023-02-16T09:28:08Z</time>
      </trkpt>
      <trkpt lat="45.36241" lon="5.64379">
        <ele>525</ele>
        <time>2023-02-16T09:28:09Z</time>
      </trkpt>
      <trkpt lat="45.36239" lon="5.64378">
        <ele>525</ele>
        <time>2023-02-16T09:28:10Z</time>
      </trkpt>
      <trkpt lat="45.36237" lon="5.64375">
        <ele>526</ele>
        <time>2023-02-16T09:28:12Z</time>
      </trkpt>
      <trkpt lat="45.36234" lon="5.64373">
        <ele>526</ele>
        <time>2023-02-16T09:28:13Z</time>
      </trkpt>
      <trkpt lat="45.3623" lon="5.64372">
        <ele>526</ele>
        <time>2023-02-16T09:28:14Z</time>
      </trkpt>
      <trkpt lat="45.36226" lon="5.64369">
        <ele>526</ele>
        <time>2023-02-16T09:28:15Z</time>
      </trkpt>
      <trkpt lat="45.36222" lon="5.64366">
        <ele>526</ele>
        <time>2023-02-16T09:28:16Z</time>
      </trkpt>
      <trkpt lat="45.36219" lon="5.64362">
        <ele>526</ele>
        <time>2023-02-16T09:28:17Z</time>
      </trkpt>
      <trkpt lat="45.36216" lon="5.64359">
        <ele>526</ele>
        <time>2023-02-16T09:28:18Z</time>
      </trkpt>
      <trkpt lat="45.36214" lon="5.64357">
        <ele>526</ele>
        <time>2023-02-16T09:28:19Z</time>
      </trkpt>
      <trkpt lat="45.36212" lon="5.64355">
        <ele>526</ele>
        <time>2023-02-16T09:28:20Z</time>
      </trkpt>
      <trkpt lat="45.3621" lon="5.64353">
        <ele>526</ele>
        <time>2023-02-16T09:28:21Z</time>
      </trkpt>
      <trkpt lat="45.36206" lon="5.64351">
        <ele>526</ele>
        <time>2023-02-16T09:28:22Z</time>
      </trkpt>
      <trkpt lat="45.36202" lon="5.64347">
        <ele>526</ele>
        <time>2023-02-16T09:28:23Z</time>
      </trkpt>
      <trkpt lat="45.36199" lon="5.64345">
        <ele>526</ele>
        <time>2023-02-16T09:28:24Z</time>
      </trkpt>
      <trkpt lat="45.36195" lon="5.64342">
        <ele>525</ele>
        <time>2023-02-16T09:28:25Z</time>
      </trkpt>
      <trkpt lat="45.36192" lon="5.64338">
        <ele>525</ele>
        <time>2023-02-16T09:28:26Z</time>
      </trkpt>
      <trkpt lat="45.36188" lon="5.64334">
        <ele>525</ele>
        <time>2023-02-16T09:28:27Z</time>
      </trkpt>
      <trkpt lat="45.36186" lon="5.64331">
        <ele>525</ele>
        <time>2023-02-16T09:28:28Z</time>
      </trkpt>
      <trkpt lat="45.36183" lon="5.64328">
        <ele>526</ele>
        <time>2023-02-16T09:28:29Z</time>
      </trkpt>
      <trkpt lat="45.36172" lon="5.64319">
        <ele>526</ele>
        <time>2023-02-16T09:28:32Z</time>
      </trkpt>
      <trkpt lat="45.36163" lon="5.64313">
        <ele>526</ele>
        <time>2023-02-16T09:28:34Z</time>
      </trkpt>
      <trkpt lat="45.36154" lon="5.64307">
        <ele>526</ele>
        <time>2023-02-16T09:28:36Z</time>
      </trkpt>
      <trkpt lat="45.36142" lon="5.64301">
        <ele>526</ele>
        <time>2023-02-16T09:28:39Z</time>
      </trkpt>
      <trkpt lat="45.36132" lon="5.64298">
        <ele>528</ele>
        <time>2023-02-16T09:28:42Z</time>
      </trkpt>
      <trkpt lat="45.36122" lon="5.64297">
        <ele>528</ele>
        <time>2023-02-16T09:28:45Z</time>
      </trkpt>
      <trkpt lat="45.36113" lon="5.64293">
        <ele>528</ele>
        <time>2023-02-16T09:28:48Z</time>
      </trkpt>
      <trkpt lat="45.36105" lon="5.64286">
        <ele>529</ele>
        <time>2023-02-16T09:28:52Z</time>
      </trkpt>
      <trkpt lat="45.36096" lon="5.64281">
        <ele>529</ele>
        <time>2023-02-16T09:28:56Z</time>
      </trkpt>
      <trkpt lat="45.36094" lon="5.6428">
        <ele>530</ele>
        <time>2023-02-16T09:28:57Z</time>
      </trkpt>
      <trkpt lat="45.36092" lon="5.64278">
        <ele>531</ele>
        <time>2023-02-16T09:28:58Z</time>
      </trkpt>
      <trkpt lat="45.36083" lon="5.6427">
        <ele>531</ele>
        <time>2023-02-16T09:29:02Z</time>
      </trkpt>
      <trkpt lat="45.36075" lon="5.64263">
        <ele>532</ele>
        <time>2023-02-16T09:29:05Z</time>
      </trkpt>
      <trkpt lat="45.36073" lon="5.64261">
        <ele>532</ele>
        <time>2023-02-16T09:29:06Z</time>
      </trkpt>
      <trkpt lat="45.36071" lon="5.64259">
        <ele>532</ele>
        <time>2023-02-16T09:29:07Z</time>
      </trkpt>
      <trkpt lat="45.36069" lon="5.64256">
        <ele>532</ele>
        <time>2023-02-16T09:29:08Z</time>
      </trkpt>
      <trkpt lat="45.36067" lon="5.64254">
        <ele>532</ele>
        <time>2023-02-16T09:29:09Z</time>
      </trkpt>
      <trkpt lat="45.36065" lon="5.64252">
        <ele>532</ele>
        <time>2023-02-16T09:29:10Z</time>
      </trkpt>
      <trkpt lat="45.36063" lon="5.6425">
        <ele>532</ele>
        <time>2023-02-16T09:29:11Z</time>
      </trkpt>
      <trkpt lat="45.36061" lon="5.64247">
        <ele>532</ele>
        <time>2023-02-16T09:29:12Z</time>
      </trkpt>
      <trkpt lat="45.36059" lon="5.64244">
        <ele>532</ele>
        <time>2023-02-16T09:29:13Z</time>
      </trkpt>
      <trkpt lat="45.36056" lon="5.6424">
        <ele>532</ele>
        <time>2023-02-16T09:29:14Z</time>
      </trkpt>
      <trkpt lat="45.36053" lon="5.64238">
        <ele>532</ele>
        <time>2023-02-16T09:29:15Z</time>
      </trkpt>
      <trkpt lat="45.36051" lon="5.64236">
        <ele>532</ele>
        <time>2023-02-16T09:29:16Z</time>
      </trkpt>
      <trkpt lat="45.36049" lon="5.64235">
        <ele>532</ele>
        <time>2023-02-16T09:29:17Z</time>
      </trkpt>
      <trkpt lat="45.36047" lon="5.64232">
        <ele>532</ele>
        <time>2023-02-16T09:29:18Z</time>
      </trkpt>
      <trkpt lat="45.36044" lon="5.64231">
        <ele>532</ele>
        <time>2023-02-16T09:29:19Z</time>
      </trkpt>
      <trkpt lat="45.36041" lon="5.64229">
        <ele>533</ele>
        <time>2023-02-16T09:29:20Z</time>
      </trkpt>
      <trkpt lat="45.36039" lon="5.64228">
        <ele>533</ele>
        <time>2023-02-16T09:29:21Z</time>
      </trkpt>
      <trkpt lat="45.36036" lon="5.64226">
        <ele>533</ele>
        <time>2023-02-16T09:29:22Z</time>
      </trkpt>
      <trkpt lat="45.36034" lon="5.64224">
        <ele>533</ele>
        <time>2023-02-16T09:29:23Z</time>
      </trkpt>
      <trkpt lat="45.36032" lon="5.64222">
        <ele>533</ele>
        <time>2023-02-16T09:29:24Z</time>
      </trkpt>
      <trkpt lat="45.36031" lon="5.64218">
        <ele>533</ele>
        <time>2023-02-16T09:29:25Z</time>
      </trkpt>
      <trkpt lat="45.36029" lon="5.64215">
        <ele>534</ele>
        <time>2023-02-16T09:29:27Z</time>
      </trkpt>
      <trkpt lat="45.36027" lon="5.64212">
        <ele>534</ele>
        <time>2023-02-16T09:29:29Z</time>
      </trkpt>
      <trkpt lat="45.36026" lon="5.6421">
        <ele>535</ele>
        <time>2023-02-16T09:29:30Z</time>
      </trkpt>
      <trkpt lat="45.36025" lon="5.64207">
        <ele>535</ele>
        <time>2023-02-16T09:29:31Z</time>
      </trkpt>
      <trkpt lat="45.36024" lon="5.64205">
        <ele>536</ele>
        <time>2023-02-16T09:29:32Z</time>
      </trkpt>
      <trkpt lat="45.36023" lon="5.64201">
        <ele>536</ele>
        <time>2023-02-16T09:29:34Z</time>
      </trkpt>
      <trkpt lat="45.36021" lon="5.64196">
        <ele>537</ele>
        <time>2023-02-16T09:29:36Z</time>
      </trkpt>
      <trkpt lat="45.3602" lon="5.64193">
        <ele>537</ele>
        <time>2023-02-16T09:29:37Z</time>
      </trkpt>
      <trkpt lat="45.36019" lon="5.6419">
        <ele>538</ele>
        <time>2023-02-16T09:29:38Z</time>
      </trkpt>
      <trkpt lat="45.36017" lon="5.64188">
        <ele>538</ele>
        <time>2023-02-16T09:29:39Z</time>
      </trkpt>
      <trkpt lat="45.36014" lon="5.64185">
        <ele>538</ele>
        <time>2023-02-16T09:29:40Z</time>
      </trkpt>
      <trkpt lat="45.36012" lon="5.64183">
        <ele>538</ele>
        <time>2023-02-16T09:29:41Z</time>
      </trkpt>
      <trkpt lat="45.3601" lon="5.64182">
        <ele>538</ele>
        <time>2023-02-16T09:29:42Z</time>
      </trkpt>
      <trkpt lat="45.36007" lon="5.64182">
        <ele>538</ele>
        <time>2023-02-16T09:29:44Z</time>
      </trkpt>
      <trkpt lat="45.36004" lon="5.64181">
        <ele>538</ele>
        <time>2023-02-16T09:29:46Z</time>
      </trkpt>
      <trkpt lat="45.36001" lon="5.64178">
        <ele>539</ele>
        <time>2023-02-16T09:29:47Z</time>
      </trkpt>
      <trkpt lat="45.35999" lon="5.64176">
        <ele>539</ele>
        <time>2023-02-16T09:29:48Z</time>
      </trkpt>
      <trkpt lat="45.35997" lon="5.64175">
        <ele>539</ele>
        <time>2023-02-16T09:29:49Z</time>
      </trkpt>
      <trkpt lat="45.35995" lon="5.64173">
        <ele>539</ele>
        <time>2023-02-16T09:29:50Z</time>
      </trkpt>
      <trkpt lat="45.35992" lon="5.64171">
        <ele>541</ele>
        <time>2023-02-16T09:29:52Z</time>
      </trkpt>
      <trkpt lat="45.35991" lon="5.64169">
        <ele>541</ele>
        <time>2023-02-16T09:29:53Z</time>
      </trkpt>
      <trkpt lat="45.35989" lon="5.64168">
        <ele>541</ele>
        <time>2023-02-16T09:29:54Z</time>
      </trkpt>
      <trkpt lat="45.35986" lon="5.64168">
        <ele>541</ele>
        <time>2023-02-16T09:29:56Z</time>
      </trkpt>
      <trkpt lat="45.35985" lon="5.64169">
        <ele>543</ele>
        <time>2023-02-16T09:29:59Z</time>
      </trkpt>
      <trkpt lat="45.35986" lon="5.64173">
        <ele>544</ele>
        <time>2023-02-16T09:30:02Z</time>
      </trkpt>
      <trkpt lat="45.35986" lon="5.64176">
        <ele>544</ele>
        <time>2023-02-16T09:30:05Z</time>
      </trkpt>
      <trkpt lat="45.35986" lon="5.64179">
        <ele>545</ele>
        <time>2023-02-16T09:30:07Z</time>
      </trkpt>
      <trkpt lat="45.35986" lon="5.64182">
        <ele>545</ele>
        <time>2023-02-16T09:30:10Z</time>
      </trkpt>
      <trkpt lat="45.35986" lon="5.64185">
        <ele>546</ele>
        <time>2023-02-16T09:30:12Z</time>
      </trkpt>
      <trkpt lat="45.35986" lon="5.64188">
        <ele>547</ele>
        <time>2023-02-16T09:30:18Z</time>
      </trkpt>
      <trkpt lat="45.35987" lon="5.64195">
        <ele>550</ele>
        <time>2023-02-16T09:30:25Z</time>
      </trkpt>
      <trkpt lat="45.35988" lon="5.64198">
        <ele>550</ele>
        <time>2023-02-16T09:30:27Z</time>
      </trkpt>
      <trkpt lat="45.35989" lon="5.64202">
        <ele>551</ele>
        <time>2023-02-16T09:30:29Z</time>
      </trkpt>
      <trkpt lat="45.35989" lon="5.64206">
        <ele>551</ele>
        <time>2023-02-16T09:30:31Z</time>
      </trkpt>
      <trkpt lat="45.35989" lon="5.64211">
        <ele>551</ele>
        <time>2023-02-16T09:30:33Z</time>
      </trkpt>
      <trkpt lat="45.35989" lon="5.64213">
        <ele>551</ele>
        <time>2023-02-16T09:30:34Z</time>
      </trkpt>
      <trkpt lat="45.3599" lon="5.64217">
        <ele>552</ele>
        <time>2023-02-16T09:30:36Z</time>
      </trkpt>
      <trkpt lat="45.35989" lon="5.64221">
        <ele>552</ele>
        <time>2023-02-16T09:30:38Z</time>
      </trkpt>
      <trkpt lat="45.35989" lon="5.64225">
        <ele>553</ele>
        <time>2023-02-16T09:30:40Z</time>
      </trkpt>
      <trkpt lat="45.35988" lon="5.64229">
        <ele>553</ele>
        <time>2023-02-16T09:30:42Z</time>
      </trkpt>
      <trkpt lat="45.35987" lon="5.64231">
        <ele>554</ele>
        <time>2023-02-16T09:30:44Z</time>
      </trkpt>
      <trkpt lat="45.35986" lon="5.64233">
        <ele>554</ele>
        <time>2023-02-16T09:30:46Z</time>
      </trkpt>
      <trkpt lat="45.35983" lon="5.64234">
        <ele>556</ele>
        <time>2023-02-16T09:30:51Z</time>
      </trkpt>
      <trkpt lat="45.3598" lon="5.64233">
        <ele>556</ele>
        <time>2023-02-16T09:30:53Z</time>
      </trkpt>
      <trkpt lat="45.35978" lon="5.64233">
        <ele>556</ele>
        <time>2023-02-16T09:30:55Z</time>
      </trkpt>
      <trkpt lat="45.35975" lon="5.64233">
        <ele>557</ele>
        <time>2023-02-16T09:30:57Z</time>
      </trkpt>
      <trkpt lat="45.35973" lon="5.64232">
        <ele>557</ele>
        <time>2023-02-16T09:30:59Z</time>
      </trkpt>
      <trkpt lat="45.35971" lon="5.6423">
        <ele>557</ele>
        <time>2023-02-16T09:31:02Z</time>
      </trkpt>
      <trkpt lat="45.35969" lon="5.6423">
        <ele>557</ele>
        <time>2023-02-16T09:31:04Z</time>
      </trkpt>
      <trkpt lat="45.35966" lon="5.64229">
        <ele>559</ele>
        <time>2023-02-16T09:31:07Z</time>
      </trkpt>
      <trkpt lat="45.35965" lon="5.64228">
        <ele>559</ele>
        <time>2023-02-16T09:31:09Z</time>
      </trkpt>
      <trkpt lat="45.35962" lon="5.64227">
        <ele>560</ele>
        <time>2023-02-16T09:31:11Z</time>
      </trkpt>
      <trkpt lat="45.3596" lon="5.64227">
        <ele>560</ele>
        <time>2023-02-16T09:31:14Z</time>
      </trkpt>
      <trkpt lat="45.35957" lon="5.64227">
        <ele>561</ele>
        <time>2023-02-16T09:31:17Z</time>
      </trkpt>
      <trkpt lat="45.35954" lon="5.64228">
        <ele>562</ele>
        <time>2023-02-16T09:31:19Z</time>
      </trkpt>
      <trkpt lat="45.35952" lon="5.64227">
        <ele>562</ele>
        <time>2023-02-16T09:31:21Z</time>
      </trkpt>
      <trkpt lat="45.35946" lon="5.64225">
        <ele>564</ele>
        <time>2023-02-16T09:31:26Z</time>
      </trkpt>
      <trkpt lat="45.35944" lon="5.64225">
        <ele>565</ele>
        <time>2023-02-16T09:31:30Z</time>
      </trkpt>
      <trkpt lat="45.35942" lon="5.64224">
        <ele>565</ele>
        <time>2023-02-16T09:31:38Z</time>
      </trkpt>
      <trkpt lat="45.35936" lon="5.6422">
        <ele>564</ele>
        <time>2023-02-16T09:32:13Z</time>
      </trkpt>
      <trkpt lat="45.35935" lon="5.64218">
        <ele>564</ele>
        <time>2023-02-16T09:32:16Z</time>
      </trkpt>
      <trkpt lat="45.35934" lon="5.64217">
        <ele>565</ele>
        <time>2023-02-16T09:32:22Z</time>
      </trkpt>
      <trkpt lat="45.35927" lon="5.64213">
        <ele>568</ele>
        <time>2023-02-16T09:32:36Z</time>
      </trkpt>
      <trkpt lat="45.35925" lon="5.64212">
        <ele>568</ele>
        <time>2023-02-16T09:32:38Z</time>
      </trkpt>
      <trkpt lat="45.35923" lon="5.64211">
        <ele>570</ele>
        <time>2023-02-16T09:32:41Z</time>
      </trkpt>
      <trkpt lat="45.35921" lon="5.6421">
        <ele>570</ele>
        <time>2023-02-16T09:32:43Z</time>
      </trkpt>
      <trkpt lat="45.35918" lon="5.6421">
        <ele>570</ele>
        <time>2023-02-16T09:32:45Z</time>
      </trkpt>
      <trkpt lat="45.35916" lon="5.64209">
        <ele>570</ele>
        <time>2023-02-16T09:32:47Z</time>
      </trkpt>
      <trkpt lat="45.35913" lon="5.64207">
        <ele>572</ele>
        <time>2023-02-16T09:32:49Z</time>
      </trkpt>
      <trkpt lat="45.3591" lon="5.64206">
        <ele>573</ele>
        <time>2023-02-16T09:32:51Z</time>
      </trkpt>
      <trkpt lat="45.35908" lon="5.64205">
        <ele>573</ele>
        <time>2023-02-16T09:32:53Z</time>
      </trkpt>
      <trkpt lat="45.35905" lon="5.64203">
        <ele>575</ele>
        <time>2023-02-16T09:32:55Z</time>
      </trkpt>
      <trkpt lat="45.35903" lon="5.64201">
        <ele>575</ele>
        <time>2023-02-16T09:32:57Z</time>
      </trkpt>
      <trkpt lat="45.35901" lon="5.642">
        <ele>575</ele>
        <time>2023-02-16T09:32:59Z</time>
      </trkpt>
      <trkpt lat="45.359" lon="5.64198">
        <ele>575</ele>
        <time>2023-02-16T09:33:01Z</time>
      </trkpt>
      <trkpt lat="45.35898" lon="5.64196">
        <ele>577</ele>
        <time>2023-02-16T09:33:03Z</time>
      </trkpt>
      <trkpt lat="45.35896" lon="5.64194">
        <ele>577</ele>
        <time>2023-02-16T09:33:05Z</time>
      </trkpt>
      <trkpt lat="45.35894" lon="5.64193">
        <ele>577</ele>
        <time>2023-02-16T09:33:07Z</time>
      </trkpt>
      <trkpt lat="45.35892" lon="5.64191">
        <ele>578</ele>
        <time>2023-02-16T09:33:09Z</time>
      </trkpt>
      <trkpt lat="45.3589" lon="5.64189">
        <ele>578</ele>
        <time>2023-02-16T09:33:11Z</time>
      </trkpt>
      <trkpt lat="45.35888" lon="5.64188">
        <ele>578</ele>
        <time>2023-02-16T09:33:13Z</time>
      </trkpt>
      <trkpt lat="45.35886" lon="5.64186">
        <ele>580</ele>
        <time>2023-02-16T09:33:15Z</time>
      </trkpt>
      <trkpt lat="45.35884" lon="5.64185">
        <ele>580</ele>
        <time>2023-02-16T09:33:17Z</time>
      </trkpt>
      <trkpt lat="45.35883" lon="5.64182">
        <ele>581</ele>
        <time>2023-02-16T09:33:20Z</time>
      </trkpt>
      <trkpt lat="45.35881" lon="5.6418">
        <ele>581</ele>
        <time>2023-02-16T09:33:22Z</time>
      </trkpt>
      <trkpt lat="45.35879" lon="5.64178">
        <ele>581</ele>
        <time>2023-02-16T09:33:25Z</time>
      </trkpt>
      <trkpt lat="45.35877" lon="5.64177">
        <ele>581</ele>
        <time>2023-02-16T09:33:28Z</time>
      </trkpt>
      <trkpt lat="45.35875" lon="5.64176">
        <ele>583</ele>
        <time>2023-02-16T09:33:30Z</time>
      </trkpt>
      <trkpt lat="45.35873" lon="5.64175">
        <ele>584</ele>
        <time>2023-02-16T09:33:31Z</time>
      </trkpt>
      <trkpt lat="45.35871" lon="5.64175">
        <ele>584</ele>
        <time>2023-02-16T09:33:33Z</time>
      </trkpt>
      <trkpt lat="45.35868" lon="5.64175">
        <ele>585</ele>
        <time>2023-02-16T09:33:35Z</time>
      </trkpt>
      <trkpt lat="45.35866" lon="5.64175">
        <ele>585</ele>
        <time>2023-02-16T09:33:37Z</time>
      </trkpt>
      <trkpt lat="45.35864" lon="5.64174">
        <ele>586</ele>
        <time>2023-02-16T09:33:39Z</time>
      </trkpt>
      <trkpt lat="45.35862" lon="5.64175">
        <ele>586</ele>
        <time>2023-02-16T09:33:41Z</time>
      </trkpt>
      <trkpt lat="45.3586" lon="5.64173">
        <ele>587</ele>
        <time>2023-02-16T09:33:43Z</time>
      </trkpt>
      <trkpt lat="45.35857" lon="5.64172">
        <ele>587</ele>
        <time>2023-02-16T09:33:45Z</time>
      </trkpt>
      <trkpt lat="45.35855" lon="5.64171">
        <ele>588</ele>
        <time>2023-02-16T09:33:47Z</time>
      </trkpt>
      <trkpt lat="45.35852" lon="5.6417">
        <ele>588</ele>
        <time>2023-02-16T09:33:50Z</time>
      </trkpt>
      <trkpt lat="45.3585" lon="5.64169">
        <ele>589</ele>
        <time>2023-02-16T09:33:52Z</time>
      </trkpt>
      <trkpt lat="45.35848" lon="5.64167">
        <ele>590</ele>
        <time>2023-02-16T09:33:54Z</time>
      </trkpt>
      <trkpt lat="45.35846" lon="5.64166">
        <ele>590</ele>
        <time>2023-02-16T09:33:57Z</time>
      </trkpt>
      <trkpt lat="45.35844" lon="5.64165">
        <ele>590</ele>
        <time>2023-02-16T09:33:59Z</time>
      </trkpt>
      <trkpt lat="45.35842" lon="5.64164">
        <ele>591</ele>
        <time>2023-02-16T09:34:01Z</time>
      </trkpt>
      <trkpt lat="45.3584" lon="5.64162">
        <ele>592</ele>
        <time>2023-02-16T09:34:03Z</time>
      </trkpt>
      <trkpt lat="45.35838" lon="5.6416">
        <ele>592</ele>
        <time>2023-02-16T09:34:05Z</time>
      </trkpt>
      <trkpt lat="45.35835" lon="5.64159">
        <ele>593</ele>
        <time>2023-02-16T09:34:07Z</time>
      </trkpt>
      <trkpt lat="45.35833" lon="5.64158">
        <ele>593</ele>
        <time>2023-02-16T09:34:09Z</time>
      </trkpt>
      <trkpt lat="45.35831" lon="5.64157">
        <ele>593</ele>
        <time>2023-02-16T09:34:11Z</time>
      </trkpt>
      <trkpt lat="45.35829" lon="5.64156">
        <ele>593</ele>
        <time>2023-02-16T09:34:13Z</time>
      </trkpt>
      <trkpt lat="45.35827" lon="5.64155">
        <ele>594</ele>
        <time>2023-02-16T09:34:15Z</time>
      </trkpt>
      <trkpt lat="45.35825" lon="5.64155">
        <ele>595</ele>
        <time>2023-02-16T09:34:17Z</time>
      </trkpt>
      <trkpt lat="45.35822" lon="5.64155">
        <ele>596</ele>
        <time>2023-02-16T09:34:20Z</time>
      </trkpt>
      <trkpt lat="45.3582" lon="5.64154">
        <ele>596</ele>
        <time>2023-02-16T09:34:22Z</time>
      </trkpt>
      <trkpt lat="45.35818" lon="5.64152">
        <ele>596</ele>
        <time>2023-02-16T09:34:24Z</time>
      </trkpt>
      <trkpt lat="45.35816" lon="5.64151">
        <ele>597</ele>
        <time>2023-02-16T09:34:26Z</time>
      </trkpt>
      <trkpt lat="45.35814" lon="5.64152">
        <ele>597</ele>
        <time>2023-02-16T09:34:28Z</time>
      </trkpt>
      <trkpt lat="45.35812" lon="5.64152">
        <ele>597</ele>
        <time>2023-02-16T09:34:30Z</time>
      </trkpt>
      <trkpt lat="45.3581" lon="5.64152">
        <ele>598</ele>
        <time>2023-02-16T09:34:32Z</time>
      </trkpt>
      <trkpt lat="45.35807" lon="5.64152">
        <ele>600</ele>
        <time>2023-02-16T09:34:34Z</time>
      </trkpt>
      <trkpt lat="45.35805" lon="5.6415">
        <ele>600</ele>
        <time>2023-02-16T09:34:36Z</time>
      </trkpt>
      <trkpt lat="45.35803" lon="5.6415">
        <ele>600</ele>
        <time>2023-02-16T09:34:38Z</time>
      </trkpt>
      <trkpt lat="45.35801" lon="5.64148">
        <ele>600</ele>
        <time>2023-02-16T09:34:40Z</time>
      </trkpt>
      <trkpt lat="45.35799" lon="5.64148">
        <ele>601</ele>
        <time>2023-02-16T09:34:42Z</time>
      </trkpt>
      <trkpt lat="45.35796" lon="5.64148">
        <ele>601</ele>
        <time>2023-02-16T09:34:44Z</time>
      </trkpt>
      <trkpt lat="45.35794" lon="5.64148">
        <ele>602</ele>
        <time>2023-02-16T09:34:46Z</time>
      </trkpt>
      <trkpt lat="45.35792" lon="5.64148">
        <ele>602</ele>
        <time>2023-02-16T09:34:48Z</time>
      </trkpt>
      <trkpt lat="45.35789" lon="5.64147">
        <ele>602</ele>
        <time>2023-02-16T09:34:50Z</time>
      </trkpt>
      <trkpt lat="45.35787" lon="5.64147">
        <ele>602</ele>
        <time>2023-02-16T09:34:52Z</time>
      </trkpt>
      <trkpt lat="45.35784" lon="5.64145">
        <ele>602</ele>
        <time>2023-02-16T09:34:54Z</time>
      </trkpt>
      <trkpt lat="45.35782" lon="5.64144">
        <ele>602</ele>
        <time>2023-02-16T09:34:56Z</time>
      </trkpt>
      <trkpt lat="45.35779" lon="5.64143">
        <ele>604</ele>
        <time>2023-02-16T09:34:58Z</time>
      </trkpt>
      <trkpt lat="45.35777" lon="5.64141">
        <ele>604</ele>
        <time>2023-02-16T09:35:00Z</time>
      </trkpt>
      <trkpt lat="45.35775" lon="5.64141">
        <ele>605</ele>
        <time>2023-02-16T09:35:01Z</time>
      </trkpt>
      <trkpt lat="45.35774" lon="5.64139">
        <ele>605</ele>
        <time>2023-02-16T09:35:03Z</time>
      </trkpt>
      <trkpt lat="45.35772" lon="5.64138">
        <ele>605</ele>
        <time>2023-02-16T09:35:05Z</time>
      </trkpt>
      <trkpt lat="45.35769" lon="5.64137">
        <ele>606</ele>
        <time>2023-02-16T09:35:07Z</time>
      </trkpt>
      <trkpt lat="45.35766" lon="5.64135">
        <ele>606</ele>
        <time>2023-02-16T09:35:09Z</time>
      </trkpt>
      <trkpt lat="45.35764" lon="5.64134">
        <ele>607</ele>
        <time>2023-02-16T09:35:10Z</time>
      </trkpt>
      <trkpt lat="45.35761" lon="5.64132">
        <ele>607</ele>
        <time>2023-02-16T09:35:12Z</time>
      </trkpt>
      <trkpt lat="45.35759" lon="5.64132">
        <ele>607</ele>
        <time>2023-02-16T09:35:14Z</time>
      </trkpt>
      <trkpt lat="45.35757" lon="5.64131">
        <ele>608</ele>
        <time>2023-02-16T09:35:16Z</time>
      </trkpt>
      <trkpt lat="45.35755" lon="5.64129">
        <ele>608</ele>
        <time>2023-02-16T09:35:17Z</time>
      </trkpt>
      <trkpt lat="45.35752" lon="5.64127">
        <ele>609</ele>
        <time>2023-02-16T09:35:19Z</time>
      </trkpt>
      <trkpt lat="45.3575" lon="5.64126">
        <ele>609</ele>
        <time>2023-02-16T09:35:21Z</time>
      </trkpt>
      <trkpt lat="45.35748" lon="5.64124">
        <ele>610</ele>
        <time>2023-02-16T09:35:23Z</time>
      </trkpt>
      <trkpt lat="45.35746" lon="5.64122">
        <ele>610</ele>
        <time>2023-02-16T09:35:25Z</time>
      </trkpt>
      <trkpt lat="45.35744" lon="5.64122">
        <ele>611</ele>
        <time>2023-02-16T09:35:27Z</time>
      </trkpt>
      <trkpt lat="45.35743" lon="5.64121">
        <ele>611</ele>
        <time>2023-02-16T09:35:30Z</time>
      </trkpt>
      <trkpt lat="45.3574" lon="5.6412">
        <ele>611</ele>
        <time>2023-02-16T09:35:33Z</time>
      </trkpt>
      <trkpt lat="45.35739" lon="5.64119">
        <ele>611</ele>
        <time>2023-02-16T09:35:34Z</time>
      </trkpt>
      <trkpt lat="45.35736" lon="5.64117">
        <ele>611</ele>
        <time>2023-02-16T09:35:36Z</time>
      </trkpt>
      <trkpt lat="45.35734" lon="5.64116">
        <ele>611</ele>
        <time>2023-02-16T09:35:37Z</time>
      </trkpt>
      <trkpt lat="45.35732" lon="5.64116">
        <ele>612</ele>
        <time>2023-02-16T09:35:39Z</time>
      </trkpt>
      <trkpt lat="45.35729" lon="5.64114">
        <ele>612</ele>
        <time>2023-02-16T09:35:41Z</time>
      </trkpt>
      <trkpt lat="45.35726" lon="5.64112">
        <ele>614</ele>
        <time>2023-02-16T09:35:43Z</time>
      </trkpt>
      <trkpt lat="45.35723" lon="5.64111">
        <ele>614</ele>
        <time>2023-02-16T09:35:45Z</time>
      </trkpt>
      <trkpt lat="45.3572" lon="5.64111">
        <ele>615</ele>
        <time>2023-02-16T09:35:48Z</time>
      </trkpt>
      <trkpt lat="45.35718" lon="5.64108">
        <ele>615</ele>
        <time>2023-02-16T09:35:51Z</time>
      </trkpt>
      <trkpt lat="45.35716" lon="5.64106">
        <ele>616</ele>
        <time>2023-02-16T09:35:53Z</time>
      </trkpt>
      <trkpt lat="45.35714" lon="5.64105">
        <ele>616</ele>
        <time>2023-02-16T09:35:55Z</time>
      </trkpt>
      <trkpt lat="45.35711" lon="5.64104">
        <ele>616</ele>
        <time>2023-02-16T09:35:57Z</time>
      </trkpt>
      <trkpt lat="45.35709" lon="5.64102">
        <ele>617</ele>
        <time>2023-02-16T09:35:59Z</time>
      </trkpt>
      <trkpt lat="45.35707" lon="5.64101">
        <ele>617</ele>
        <time>2023-02-16T09:36:01Z</time>
      </trkpt>
      <trkpt lat="45.35705" lon="5.641">
        <ele>617</ele>
        <time>2023-02-16T09:36:03Z</time>
      </trkpt>
      <trkpt lat="45.35703" lon="5.641">
        <ele>619</ele>
        <time>2023-02-16T09:36:05Z</time>
      </trkpt>
      <trkpt lat="45.357" lon="5.641">
        <ele>619</ele>
        <time>2023-02-16T09:36:07Z</time>
      </trkpt>
      <trkpt lat="45.35697" lon="5.641">
        <ele>619</ele>
        <time>2023-02-16T09:36:09Z</time>
      </trkpt>
      <trkpt lat="45.35695" lon="5.64099">
        <ele>619</ele>
        <time>2023-02-16T09:36:11Z</time>
      </trkpt>
      <trkpt lat="45.35694" lon="5.64098">
        <ele>620</ele>
        <time>2023-02-16T09:36:13Z</time>
      </trkpt>
      <trkpt lat="45.35691" lon="5.64096">
        <ele>621</ele>
        <time>2023-02-16T09:36:15Z</time>
      </trkpt>
      <trkpt lat="45.35689" lon="5.64096">
        <ele>622</ele>
        <time>2023-02-16T09:36:17Z</time>
      </trkpt>
      <trkpt lat="45.35686" lon="5.64096">
        <ele>622</ele>
        <time>2023-02-16T09:36:19Z</time>
      </trkpt>
      <trkpt lat="45.35684" lon="5.64095">
        <ele>622</ele>
        <time>2023-02-16T09:36:21Z</time>
      </trkpt>
      <trkpt lat="45.35682" lon="5.64092">
        <ele>623</ele>
        <time>2023-02-16T09:36:24Z</time>
      </trkpt>
      <trkpt lat="45.35681" lon="5.64091">
        <ele>623</ele>
        <time>2023-02-16T09:36:26Z</time>
      </trkpt>
      <trkpt lat="45.35679" lon="5.6409">
        <ele>623</ele>
        <time>2023-02-16T09:36:28Z</time>
      </trkpt>
      <trkpt lat="45.35677" lon="5.64088">
        <ele>626</ele>
        <time>2023-02-16T09:36:30Z</time>
      </trkpt>
      <trkpt lat="45.35675" lon="5.64087">
        <ele>626</ele>
        <time>2023-02-16T09:36:32Z</time>
      </trkpt>
      <trkpt lat="45.35674" lon="5.64085">
        <ele>627</ele>
        <time>2023-02-16T09:36:34Z</time>
      </trkpt>
      <trkpt lat="45.35672" lon="5.64083">
        <ele>628</ele>
        <time>2023-02-16T09:36:36Z</time>
      </trkpt>
      <trkpt lat="45.35668" lon="5.64083">
        <ele>628</ele>
        <time>2023-02-16T09:36:38Z</time>
      </trkpt>
      <trkpt lat="45.35667" lon="5.64081">
        <ele>628</ele>
        <time>2023-02-16T09:36:40Z</time>
      </trkpt>
      <trkpt lat="45.35666" lon="5.64079">
        <ele>628</ele>
        <time>2023-02-16T09:36:42Z</time>
      </trkpt>
      <trkpt lat="45.35665" lon="5.64076">
        <ele>629</ele>
        <time>2023-02-16T09:36:44Z</time>
      </trkpt>
      <trkpt lat="45.35665" lon="5.64073">
        <ele>629</ele>
        <time>2023-02-16T09:36:46Z</time>
      </trkpt>
      <trkpt lat="45.35663" lon="5.6407">
        <ele>629</ele>
        <time>2023-02-16T09:36:49Z</time>
      </trkpt>
      <trkpt lat="45.35662" lon="5.64067">
        <ele>630</ele>
        <time>2023-02-16T09:36:52Z</time>
      </trkpt>
      <trkpt lat="45.3566" lon="5.64065">
        <ele>630</ele>
        <time>2023-02-16T09:36:54Z</time>
      </trkpt>
      <trkpt lat="45.35659" lon="5.64062">
        <ele>630</ele>
        <time>2023-02-16T09:36:56Z</time>
      </trkpt>
      <trkpt lat="45.35658" lon="5.64057">
        <ele>632</ele>
        <time>2023-02-16T09:36:58Z</time>
      </trkpt>
      <trkpt lat="45.35656" lon="5.64054">
        <ele>632</ele>
        <time>2023-02-16T09:37:00Z</time>
      </trkpt>
      <trkpt lat="45.35655" lon="5.64052">
        <ele>631</ele>
        <time>2023-02-16T09:37:02Z</time>
      </trkpt>
      <trkpt lat="45.35653" lon="5.64048">
        <ele>632</ele>
        <time>2023-02-16T09:37:04Z</time>
      </trkpt>
      <trkpt lat="45.35652" lon="5.64045">
        <ele>632</ele>
        <time>2023-02-16T09:37:06Z</time>
      </trkpt>
      <trkpt lat="45.35651" lon="5.64039">
        <ele>634</ele>
        <time>2023-02-16T09:37:08Z</time>
      </trkpt>
      <trkpt lat="45.3565" lon="5.64035">
        <ele>634</ele>
        <time>2023-02-16T09:37:10Z</time>
      </trkpt>
      <trkpt lat="45.3565" lon="5.6403">
        <ele>634</ele>
        <time>2023-02-16T09:37:12Z</time>
      </trkpt>
      <trkpt lat="45.3565" lon="5.64027">
        <ele>634</ele>
        <time>2023-02-16T09:37:14Z</time>
      </trkpt>
      <trkpt lat="45.3565" lon="5.64023">
        <ele>635</ele>
        <time>2023-02-16T09:37:16Z</time>
      </trkpt>
      <trkpt lat="45.3565" lon="5.6402">
        <ele>635</ele>
        <time>2023-02-16T09:37:18Z</time>
      </trkpt>
      <trkpt lat="45.35648" lon="5.64016">
        <ele>636</ele>
        <time>2023-02-16T09:37:20Z</time>
      </trkpt>
      <trkpt lat="45.35648" lon="5.64012">
        <ele>636</ele>
        <time>2023-02-16T09:37:22Z</time>
      </trkpt>
      <trkpt lat="45.35647" lon="5.64009">
        <ele>636</ele>
        <time>2023-02-16T09:37:24Z</time>
      </trkpt>
      <trkpt lat="45.35647" lon="5.64005">
        <ele>637</ele>
        <time>2023-02-16T09:37:26Z</time>
      </trkpt>
      <trkpt lat="45.35647" lon="5.64001">
        <ele>637</ele>
        <time>2023-02-16T09:37:28Z</time>
      </trkpt>
      <trkpt lat="45.35646" lon="5.63997">
        <ele>638</ele>
        <time>2023-02-16T09:37:30Z</time>
      </trkpt>
      <trkpt lat="45.35644" lon="5.63993">
        <ele>638</ele>
        <time>2023-02-16T09:37:32Z</time>
      </trkpt>
      <trkpt lat="45.35642" lon="5.63991">
        <ele>639</ele>
        <time>2023-02-16T09:37:34Z</time>
      </trkpt>
      <trkpt lat="45.3564" lon="5.63992">
        <ele>639</ele>
        <time>2023-02-16T09:37:36Z</time>
      </trkpt>
      <trkpt lat="45.35638" lon="5.63994">
        <ele>639</ele>
        <time>2023-02-16T09:37:39Z</time>
      </trkpt>
      <trkpt lat="45.35636" lon="5.63997">
        <ele>640</ele>
        <time>2023-02-16T09:37:42Z</time>
      </trkpt>
      <trkpt lat="45.35634" lon="5.63999">
        <ele>641</ele>
        <time>2023-02-16T09:37:44Z</time>
      </trkpt>
      <trkpt lat="45.35633" lon="5.64001">
        <ele>641</ele>
        <time>2023-02-16T09:37:46Z</time>
      </trkpt>
      <trkpt lat="45.35631" lon="5.64004">
        <ele>641</ele>
        <time>2023-02-16T09:37:48Z</time>
      </trkpt>
      <trkpt lat="45.3563" lon="5.64007">
        <ele>641</ele>
        <time>2023-02-16T09:37:50Z</time>
      </trkpt>
      <trkpt lat="45.35628" lon="5.64009">
        <ele>642</ele>
        <time>2023-02-16T09:37:52Z</time>
      </trkpt>
      <trkpt lat="45.35626" lon="5.64011">
        <ele>642</ele>
        <time>2023-02-16T09:37:54Z</time>
      </trkpt>
      <trkpt lat="45.35624" lon="5.64014">
        <ele>643</ele>
        <time>2023-02-16T09:37:57Z</time>
      </trkpt>
      <trkpt lat="45.35622" lon="5.64016">
        <ele>644</ele>
        <time>2023-02-16T09:37:59Z</time>
      </trkpt>
      <trkpt lat="45.3562" lon="5.6402">
        <ele>645</ele>
        <time>2023-02-16T09:38:01Z</time>
      </trkpt>
      <trkpt lat="45.35618" lon="5.64022">
        <ele>645</ele>
        <time>2023-02-16T09:38:03Z</time>
      </trkpt>
      <trkpt lat="45.35616" lon="5.64024">
        <ele>645</ele>
        <time>2023-02-16T09:38:05Z</time>
      </trkpt>
      <trkpt lat="45.35614" lon="5.64027">
        <ele>645</ele>
        <time>2023-02-16T09:38:07Z</time>
      </trkpt>
      <trkpt lat="45.35612" lon="5.64028">
        <ele>646</ele>
        <time>2023-02-16T09:38:09Z</time>
      </trkpt>
      <trkpt lat="45.35609" lon="5.6403">
        <ele>647</ele>
        <time>2023-02-16T09:38:11Z</time>
      </trkpt>
      <trkpt lat="45.35607" lon="5.64032">
        <ele>647</ele>
        <time>2023-02-16T09:38:13Z</time>
      </trkpt>
      <trkpt lat="45.35606" lon="5.64034">
        <ele>647</ele>
        <time>2023-02-16T09:38:15Z</time>
      </trkpt>
      <trkpt lat="45.35604" lon="5.64036">
        <ele>648</ele>
        <time>2023-02-16T09:38:17Z</time>
      </trkpt>
      <trkpt lat="45.35602" lon="5.64039">
        <ele>648</ele>
        <time>2023-02-16T09:38:19Z</time>
      </trkpt>
      <trkpt lat="45.356" lon="5.64041">
        <ele>649</ele>
        <time>2023-02-16T09:38:21Z</time>
      </trkpt>
      <trkpt lat="45.35598" lon="5.64043">
        <ele>649</ele>
        <time>2023-02-16T09:38:23Z</time>
      </trkpt>
      <trkpt lat="45.35596" lon="5.64045">
        <ele>649</ele>
        <time>2023-02-16T09:38:25Z</time>
      </trkpt>
      <trkpt lat="45.35594" lon="5.64046">
        <ele>649</ele>
        <time>2023-02-16T09:38:26Z</time>
      </trkpt>
      <trkpt lat="45.35592" lon="5.64048">
        <ele>650</ele>
        <time>2023-02-16T09:38:28Z</time>
      </trkpt>
      <trkpt lat="45.35585" lon="5.64057">
        <ele>651</ele>
        <time>2023-02-16T09:38:33Z</time>
      </trkpt>
      <trkpt lat="45.3558" lon="5.64061">
        <ele>652</ele>
        <time>2023-02-16T09:38:38Z</time>
      </trkpt>
      <trkpt lat="45.35578" lon="5.64062">
        <ele>652</ele>
        <time>2023-02-16T09:38:40Z</time>
      </trkpt>
      <trkpt lat="45.35576" lon="5.64064">
        <ele>652</ele>
        <time>2023-02-16T09:38:42Z</time>
      </trkpt>
      <trkpt lat="45.35575" lon="5.64068">
        <ele>653</ele>
        <time>2023-02-16T09:38:45Z</time>
      </trkpt>
      <trkpt lat="45.35574" lon="5.64071">
        <ele>654</ele>
        <time>2023-02-16T09:38:47Z</time>
      </trkpt>
      <trkpt lat="45.35574" lon="5.64074">
        <ele>655</ele>
        <time>2023-02-16T09:38:49Z</time>
      </trkpt>
      <trkpt lat="45.35575" lon="5.64077">
        <ele>655</ele>
        <time>2023-02-16T09:38:51Z</time>
      </trkpt>
      <trkpt lat="45.35576" lon="5.6408">
        <ele>655</ele>
        <time>2023-02-16T09:38:53Z</time>
      </trkpt>
      <trkpt lat="45.35577" lon="5.64082">
        <ele>656</ele>
        <time>2023-02-16T09:38:55Z</time>
      </trkpt>
      <trkpt lat="45.35578" lon="5.64086">
        <ele>655</ele>
        <time>2023-02-16T09:38:59Z</time>
      </trkpt>
      <trkpt lat="45.35579" lon="5.64089">
        <ele>655</ele>
        <time>2023-02-16T09:39:01Z</time>
      </trkpt>
      <trkpt lat="45.35581" lon="5.64091">
        <ele>656</ele>
        <time>2023-02-16T09:39:05Z</time>
      </trkpt>
      <trkpt lat="45.35583" lon="5.64093">
        <ele>658</ele>
        <time>2023-02-16T09:39:08Z</time>
      </trkpt>
      <trkpt lat="45.35585" lon="5.64095">
        <ele>658</ele>
        <time>2023-02-16T09:39:11Z</time>
      </trkpt>
      <trkpt lat="45.35587" lon="5.64097">
        <ele>659</ele>
        <time>2023-02-16T09:39:13Z</time>
      </trkpt>
      <trkpt lat="45.35589" lon="5.64097">
        <ele>659</ele>
        <time>2023-02-16T09:39:15Z</time>
      </trkpt>
      <trkpt lat="45.35591" lon="5.64098">
        <ele>659</ele>
        <time>2023-02-16T09:39:17Z</time>
      </trkpt>
      <trkpt lat="45.35593" lon="5.641">
        <ele>659</ele>
        <time>2023-02-16T09:39:19Z</time>
      </trkpt>
      <trkpt lat="45.35595" lon="5.64104">
        <ele>660</ele>
        <time>2023-02-16T09:39:21Z</time>
      </trkpt>
      <trkpt lat="45.35596" lon="5.64106">
        <ele>660</ele>
        <time>2023-02-16T09:39:23Z</time>
      </trkpt>
      <trkpt lat="45.35598" lon="5.64109">
        <ele>660</ele>
        <time>2023-02-16T09:39:25Z</time>
      </trkpt>
      <trkpt lat="45.35599" lon="5.64112">
        <ele>661</ele>
        <time>2023-02-16T09:39:27Z</time>
      </trkpt>
      <trkpt lat="45.356" lon="5.64114">
        <ele>662</ele>
        <time>2023-02-16T09:39:30Z</time>
      </trkpt>
      <trkpt lat="45.35602" lon="5.64117">
        <ele>662</ele>
        <time>2023-02-16T09:39:32Z</time>
      </trkpt>
      <trkpt lat="45.35604" lon="5.64119">
        <ele>663</ele>
        <time>2023-02-16T09:39:34Z</time>
      </trkpt>
      <trkpt lat="45.35606" lon="5.6412">
        <ele>663</ele>
        <time>2023-02-16T09:39:36Z</time>
      </trkpt>
      <trkpt lat="45.35609" lon="5.64121">
        <ele>664</ele>
        <time>2023-02-16T09:39:38Z</time>
      </trkpt>
      <trkpt lat="45.35611" lon="5.64121">
        <ele>665</ele>
        <time>2023-02-16T09:39:40Z</time>
      </trkpt>
      <trkpt lat="45.35614" lon="5.64123">
        <ele>665</ele>
        <time>2023-02-16T09:39:42Z</time>
      </trkpt>
      <trkpt lat="45.35616" lon="5.64126">
        <ele>665</ele>
        <time>2023-02-16T09:39:44Z</time>
      </trkpt>
      <trkpt lat="45.35618" lon="5.64128">
        <ele>666</ele>
        <time>2023-02-16T09:39:46Z</time>
      </trkpt>
      <trkpt lat="45.3562" lon="5.64129">
        <ele>666</ele>
        <time>2023-02-16T09:39:48Z</time>
      </trkpt>
      <trkpt lat="45.35623" lon="5.64131">
        <ele>667</ele>
        <time>2023-02-16T09:39:50Z</time>
      </trkpt>
      <trkpt lat="45.35625" lon="5.64133">
        <ele>667</ele>
        <time>2023-02-16T09:39:52Z</time>
      </trkpt>
      <trkpt lat="45.35627" lon="5.64134">
        <ele>668</ele>
        <time>2023-02-16T09:39:54Z</time>
      </trkpt>
      <trkpt lat="45.35629" lon="5.64136">
        <ele>668</ele>
        <time>2023-02-16T09:39:56Z</time>
      </trkpt>
      <trkpt lat="45.35631" lon="5.64138">
        <ele>668</ele>
        <time>2023-02-16T09:39:58Z</time>
      </trkpt>
      <trkpt lat="45.35634" lon="5.6414">
        <ele>669</ele>
        <time>2023-02-16T09:40:00Z</time>
      </trkpt>
      <trkpt lat="45.35636" lon="5.64142">
        <ele>669</ele>
        <time>2023-02-16T09:40:01Z</time>
      </trkpt>
      <trkpt lat="45.35639" lon="5.64144">
        <ele>669</ele>
        <time>2023-02-16T09:40:03Z</time>
      </trkpt>
      <trkpt lat="45.3564" lon="5.64146">
        <ele>669</ele>
        <time>2023-02-16T09:40:04Z</time>
      </trkpt>
      <trkpt lat="45.35642" lon="5.64149">
        <ele>670</ele>
        <time>2023-02-16T09:40:06Z</time>
      </trkpt>
      <trkpt lat="45.35644" lon="5.64152">
        <ele>670</ele>
        <time>2023-02-16T09:40:08Z</time>
      </trkpt>
      <trkpt lat="45.35646" lon="5.64156">
        <ele>670</ele>
        <time>2023-02-16T09:40:10Z</time>
      </trkpt>
      <trkpt lat="45.35648" lon="5.64159">
        <ele>671</ele>
        <time>2023-02-16T09:40:12Z</time>
      </trkpt>
      <trkpt lat="45.3565" lon="5.64161">
        <ele>671</ele>
        <time>2023-02-16T09:40:13Z</time>
      </trkpt>
      <trkpt lat="45.35651" lon="5.64164">
        <ele>672</ele>
        <time>2023-02-16T09:40:14Z</time>
      </trkpt>
      <trkpt lat="45.35653" lon="5.64168">
        <ele>672</ele>
        <time>2023-02-16T09:40:16Z</time>
      </trkpt>
      <trkpt lat="45.35654" lon="5.64169">
        <ele>672</ele>
        <time>2023-02-16T09:40:17Z</time>
      </trkpt>
      <trkpt lat="45.35657" lon="5.64174">
        <ele>672</ele>
        <time>2023-02-16T09:40:19Z</time>
      </trkpt>
      <trkpt lat="45.35658" lon="5.64175">
        <ele>672</ele>
        <time>2023-02-16T09:40:20Z</time>
      </trkpt>
      <trkpt lat="45.3566" lon="5.64177">
        <ele>672</ele>
        <time>2023-02-16T09:40:21Z</time>
      </trkpt>
      <trkpt lat="45.35661" lon="5.64179">
        <ele>672</ele>
        <time>2023-02-16T09:40:22Z</time>
      </trkpt>
      <trkpt lat="45.35662" lon="5.64182">
        <ele>673</ele>
        <time>2023-02-16T09:40:23Z</time>
      </trkpt>
      <trkpt lat="45.35664" lon="5.64184">
        <ele>673</ele>
        <time>2023-02-16T09:40:24Z</time>
      </trkpt>
      <trkpt lat="45.35665" lon="5.64186">
        <ele>673</ele>
        <time>2023-02-16T09:40:25Z</time>
      </trkpt>
      <trkpt lat="45.35666" lon="5.64187">
        <ele>673</ele>
        <time>2023-02-16T09:40:26Z</time>
      </trkpt>
      <trkpt lat="45.35668" lon="5.6419">
        <ele>674</ele>
        <time>2023-02-16T09:40:27Z</time>
      </trkpt>
      <trkpt lat="45.35669" lon="5.64194">
        <ele>674</ele>
        <time>2023-02-16T09:40:29Z</time>
      </trkpt>
      <trkpt lat="45.3567" lon="5.64198">
        <ele>674</ele>
        <time>2023-02-16T09:40:31Z</time>
      </trkpt>
      <trkpt lat="45.35673" lon="5.64201">
        <ele>675</ele>
        <time>2023-02-16T09:40:33Z</time>
      </trkpt>
      <trkpt lat="45.35676" lon="5.64205">
        <ele>675</ele>
        <time>2023-02-16T09:40:35Z</time>
      </trkpt>
      <trkpt lat="45.35678" lon="5.64207">
        <ele>676</ele>
        <time>2023-02-16T09:40:36Z</time>
      </trkpt>
      <trkpt lat="45.35679" lon="5.64209">
        <ele>676</ele>
        <time>2023-02-16T09:40:37Z</time>
      </trkpt>
      <trkpt lat="45.35681" lon="5.64213">
        <ele>676</ele>
        <time>2023-02-16T09:40:39Z</time>
      </trkpt>
      <trkpt lat="45.35683" lon="5.64217">
        <ele>676</ele>
        <time>2023-02-16T09:40:41Z</time>
      </trkpt>
      <trkpt lat="45.35683" lon="5.64219">
        <ele>676</ele>
        <time>2023-02-16T09:40:42Z</time>
      </trkpt>
      <trkpt lat="45.35685" lon="5.64223">
        <ele>677</ele>
        <time>2023-02-16T09:40:44Z</time>
      </trkpt>
      <trkpt lat="45.35687" lon="5.64226">
        <ele>677</ele>
        <time>2023-02-16T09:40:45Z</time>
      </trkpt>
      <trkpt lat="45.35689" lon="5.64229">
        <ele>677</ele>
        <time>2023-02-16T09:40:46Z</time>
      </trkpt>
      <trkpt lat="45.35691" lon="5.64232">
        <ele>677</ele>
        <time>2023-02-16T09:40:47Z</time>
      </trkpt>
      <trkpt lat="45.35693" lon="5.64235">
        <ele>677</ele>
        <time>2023-02-16T09:40:48Z</time>
      </trkpt>
      <trkpt lat="45.35695" lon="5.64238">
        <ele>677</ele>
        <time>2023-02-16T09:40:49Z</time>
      </trkpt>
      <trkpt lat="45.35697" lon="5.64241">
        <ele>677</ele>
        <time>2023-02-16T09:40:50Z</time>
      </trkpt>
      <trkpt lat="45.35699" lon="5.64244">
        <ele>677</ele>
        <time>2023-02-16T09:40:51Z</time>
      </trkpt>
      <trkpt lat="45.35701" lon="5.64247">
        <ele>677</ele>
        <time>2023-02-16T09:40:52Z</time>
      </trkpt>
      <trkpt lat="45.35702" lon="5.6425">
        <ele>678</ele>
        <time>2023-02-16T09:40:53Z</time>
      </trkpt>
      <trkpt lat="45.35704" lon="5.64254">
        <ele>678</ele>
        <time>2023-02-16T09:40:55Z</time>
      </trkpt>
      <trkpt lat="45.35705" lon="5.64258">
        <ele>679</ele>
        <time>2023-02-16T09:40:56Z</time>
      </trkpt>
      <trkpt lat="45.35707" lon="5.64261">
        <ele>679</ele>
        <time>2023-02-16T09:40:57Z</time>
      </trkpt>
      <trkpt lat="45.35708" lon="5.64264">
        <ele>679</ele>
        <time>2023-02-16T09:40:58Z</time>
      </trkpt>
      <trkpt lat="45.3571" lon="5.64267">
        <ele>679</ele>
        <time>2023-02-16T09:40:59Z</time>
      </trkpt>
      <trkpt lat="45.35712" lon="5.6427">
        <ele>679</ele>
        <time>2023-02-16T09:41:00Z</time>
      </trkpt>
      <trkpt lat="45.35713" lon="5.64273">
        <ele>679</ele>
        <time>2023-02-16T09:41:01Z</time>
      </trkpt>
      <trkpt lat="45.35714" lon="5.64276">
        <ele>680</ele>
        <time>2023-02-16T09:41:02Z</time>
      </trkpt>
      <trkpt lat="45.35715" lon="5.64279">
        <ele>680</ele>
        <time>2023-02-16T09:41:03Z</time>
      </trkpt>
      <trkpt lat="45.35716" lon="5.64282">
        <ele>680</ele>
        <time>2023-02-16T09:41:04Z</time>
      </trkpt>
      <trkpt lat="45.35717" lon="5.64285">
        <ele>680</ele>
        <time>2023-02-16T09:41:05Z</time>
      </trkpt>
      <trkpt lat="45.35718" lon="5.64288">
        <ele>680</ele>
        <time>2023-02-16T09:41:06Z</time>
      </trkpt>
      <trkpt lat="45.35718" lon="5.64291">
        <ele>681</ele>
        <time>2023-02-16T09:41:07Z</time>
      </trkpt>
      <trkpt lat="45.3572" lon="5.64296">
        <ele>681</ele>
        <time>2023-02-16T09:41:09Z</time>
      </trkpt>
      <trkpt lat="45.35721" lon="5.643">
        <ele>681</ele>
        <time>2023-02-16T09:41:11Z</time>
      </trkpt>
      <trkpt lat="45.35722" lon="5.64303">
        <ele>681</ele>
        <time>2023-02-16T09:41:12Z</time>
      </trkpt>
      <trkpt lat="45.35723" lon="5.64305">
        <ele>682</ele>
        <time>2023-02-16T09:41:13Z</time>
      </trkpt>
      <trkpt lat="45.35724" lon="5.64308">
        <ele>682</ele>
        <time>2023-02-16T09:41:14Z</time>
      </trkpt>
      <trkpt lat="45.35726" lon="5.64311">
        <ele>682</ele>
        <time>2023-02-16T09:41:16Z</time>
      </trkpt>
      <trkpt lat="45.35728" lon="5.64313">
        <ele>682</ele>
        <time>2023-02-16T09:41:17Z</time>
      </trkpt>
      <trkpt lat="45.3573" lon="5.64316">
        <ele>684</ele>
        <time>2023-02-16T09:41:19Z</time>
      </trkpt>
      <trkpt lat="45.35732" lon="5.64319">
        <ele>684</ele>
        <time>2023-02-16T09:41:21Z</time>
      </trkpt>
      <trkpt lat="45.35734" lon="5.64323">
        <ele>684</ele>
        <time>2023-02-16T09:41:23Z</time>
      </trkpt>
      <trkpt lat="45.35737" lon="5.64325">
        <ele>686</ele>
        <time>2023-02-16T09:41:25Z</time>
      </trkpt>
      <trkpt lat="45.35738" lon="5.64327">
        <ele>686</ele>
        <time>2023-02-16T09:41:27Z</time>
      </trkpt>
      <trkpt lat="45.35741" lon="5.64329">
        <ele>686</ele>
        <time>2023-02-16T09:41:29Z</time>
      </trkpt>
      <trkpt lat="45.35743" lon="5.6433">
        <ele>686</ele>
        <time>2023-02-16T09:41:33Z</time>
      </trkpt>
      <trkpt lat="45.35745" lon="5.64331">
        <ele>685</ele>
        <time>2023-02-16T09:41:37Z</time>
      </trkpt>
      <trkpt lat="45.35746" lon="5.64332">
        <ele>686</ele>
        <time>2023-02-16T09:41:42Z</time>
      </trkpt>
      <trkpt lat="45.35749" lon="5.64327">
        <ele>686</ele>
        <time>2023-02-16T09:41:46Z</time>
      </trkpt>
      <trkpt lat="45.35752" lon="5.64327">
        <ele>686</ele>
        <time>2023-02-16T09:41:47Z</time>
      </trkpt>
      <trkpt lat="45.35754" lon="5.6433">
        <ele>686</ele>
        <time>2023-02-16T09:41:55Z</time>
      </trkpt>
      <trkpt lat="45.35753" lon="5.64332">
        <ele>686</ele>
        <time>2023-02-16T09:41:58Z</time>
      </trkpt>
      <trkpt lat="45.35753" lon="5.64335">
        <ele>686</ele>
        <time>2023-02-16T09:42:04Z</time>
      </trkpt>
      <trkpt lat="45.35753" lon="5.64337">
        <ele>686</ele>
        <time>2023-02-16T09:42:06Z</time>
      </trkpt>
      <trkpt lat="45.35754" lon="5.64338">
        <ele>685</ele>
        <time>2023-02-16T09:42:10Z</time>
      </trkpt>
      <trkpt lat="45.35755" lon="5.64339">
        <ele>686</ele>
        <time>2023-02-16T09:42:14Z</time>
      </trkpt>
      <trkpt lat="45.35757" lon="5.64341">
        <ele>686</ele>
        <time>2023-02-16T09:42:17Z</time>
      </trkpt>
      <trkpt lat="45.35758" lon="5.6434">
        <ele>686</ele>
        <time>2023-02-16T09:42:24Z</time>
      </trkpt>
      <trkpt lat="45.35769" lon="5.64338">
        <ele>686</ele>
        <time>2023-02-16T09:42:33Z</time>
      </trkpt>
      <trkpt lat="45.35773" lon="5.64337">
        <ele>686</ele>
        <time>2023-02-16T09:42:34Z</time>
      </trkpt>
      <trkpt lat="45.35777" lon="5.64336">
        <ele>685</ele>
        <time>2023-02-16T09:42:35Z</time>
      </trkpt>
      <trkpt lat="45.3578" lon="5.64336">
        <ele>685</ele>
        <time>2023-02-16T09:42:36Z</time>
      </trkpt>
      <trkpt lat="45.35783" lon="5.64337">
        <ele>684</ele>
        <time>2023-02-16T09:42:37Z</time>
      </trkpt>
      <trkpt lat="45.35786" lon="5.64338">
        <ele>684</ele>
        <time>2023-02-16T09:42:38Z</time>
      </trkpt>
      <trkpt lat="45.35789" lon="5.64341">
        <ele>684</ele>
        <time>2023-02-16T09:42:39Z</time>
      </trkpt>
      <trkpt lat="45.35792" lon="5.64344">
        <ele>684</ele>
        <time>2023-02-16T09:42:40Z</time>
      </trkpt>
      <trkpt lat="45.35795" lon="5.64347">
        <ele>684</ele>
        <time>2023-02-16T09:42:41Z</time>
      </trkpt>
      <trkpt lat="45.35797" lon="5.6435">
        <ele>684</ele>
        <time>2023-02-16T09:42:42Z</time>
      </trkpt>
      <trkpt lat="45.358" lon="5.64352">
        <ele>684</ele>
        <time>2023-02-16T09:42:43Z</time>
      </trkpt>
      <trkpt lat="45.35803" lon="5.64355">
        <ele>684</ele>
        <time>2023-02-16T09:42:44Z</time>
      </trkpt>
      <trkpt lat="45.35806" lon="5.64357">
        <ele>684</ele>
        <time>2023-02-16T09:42:45Z</time>
      </trkpt>
      <trkpt lat="45.35809" lon="5.64359">
        <ele>684</ele>
        <time>2023-02-16T09:42:46Z</time>
      </trkpt>
      <trkpt lat="45.35815" lon="5.64362">
        <ele>684</ele>
        <time>2023-02-16T09:42:48Z</time>
      </trkpt>
      <trkpt lat="45.35824" lon="5.6437">
        <ele>684</ele>
        <time>2023-02-16T09:42:51Z</time>
      </trkpt>
      <trkpt lat="45.35832" lon="5.64379">
        <ele>685</ele>
        <time>2023-02-16T09:42:53Z</time>
      </trkpt>
      <trkpt lat="45.35841" lon="5.64391">
        <ele>685</ele>
        <time>2023-02-16T09:42:55Z</time>
      </trkpt>
      <trkpt lat="45.35852" lon="5.64401">
        <ele>685</ele>
        <time>2023-02-16T09:42:57Z</time>
      </trkpt>
      <trkpt lat="45.35863" lon="5.6441">
        <ele>684</ele>
        <time>2023-02-16T09:42:59Z</time>
      </trkpt>
      <trkpt lat="45.35872" lon="5.6442">
        <ele>683</ele>
        <time>2023-02-16T09:43:01Z</time>
      </trkpt>
      <trkpt lat="45.35882" lon="5.64434">
        <ele>683</ele>
        <time>2023-02-16T09:43:03Z</time>
      </trkpt>
      <trkpt lat="45.35893" lon="5.6445">
        <ele>683</ele>
        <time>2023-02-16T09:43:05Z</time>
      </trkpt>
      <trkpt lat="45.35898" lon="5.6446">
        <ele>683</ele>
        <time>2023-02-16T09:43:06Z</time>
      </trkpt>
      <trkpt lat="45.35902" lon="5.64468">
        <ele>683</ele>
        <time>2023-02-16T09:43:07Z</time>
      </trkpt>
      <trkpt lat="45.35905" lon="5.64475">
        <ele>683</ele>
        <time>2023-02-16T09:43:08Z</time>
      </trkpt>
      <trkpt lat="45.35906" lon="5.64492">
        <ele>682</ele>
        <time>2023-02-16T09:43:11Z</time>
      </trkpt>
      <trkpt lat="45.35908" lon="5.6451">
        <ele>682</ele>
        <time>2023-02-16T09:43:15Z</time>
      </trkpt>
      <trkpt lat="45.35908" lon="5.64519">
        <ele>685</ele>
        <time>2023-02-16T09:43:17Z</time>
      </trkpt>
      <trkpt lat="45.35908" lon="5.64522">
        <ele>685</ele>
        <time>2023-02-16T09:43:18Z</time>
      </trkpt>
      <trkpt lat="45.35908" lon="5.64526">
        <ele>685</ele>
        <time>2023-02-16T09:43:19Z</time>
      </trkpt>
      <trkpt lat="45.35907" lon="5.64531">
        <ele>685</ele>
        <time>2023-02-16T09:43:20Z</time>
      </trkpt>
      <trkpt lat="45.35908" lon="5.64539">
        <ele>686</ele>
        <time>2023-02-16T09:43:22Z</time>
      </trkpt>
      <trkpt lat="45.35908" lon="5.64544">
        <ele>686</ele>
        <time>2023-02-16T09:43:23Z</time>
      </trkpt>
      <trkpt lat="45.35907" lon="5.6455">
        <ele>686</ele>
        <time>2023-02-16T09:43:24Z</time>
      </trkpt>
      <trkpt lat="45.35907" lon="5.64559">
        <ele>687</ele>
        <time>2023-02-16T09:43:26Z</time>
      </trkpt>
      <trkpt lat="45.35905" lon="5.64565">
        <ele>687</ele>
        <time>2023-02-16T09:43:27Z</time>
      </trkpt>
      <trkpt lat="45.35901" lon="5.64577">
        <ele>687</ele>
        <time>2023-02-16T09:43:29Z</time>
      </trkpt>
      <trkpt lat="45.35897" lon="5.6459">
        <ele>686</ele>
        <time>2023-02-16T09:43:31Z</time>
      </trkpt>
      <trkpt lat="45.35897" lon="5.64597">
        <ele>686</ele>
        <time>2023-02-16T09:43:32Z</time>
      </trkpt>
      <trkpt lat="45.35899" lon="5.64608">
        <ele>686</ele>
        <time>2023-02-16T09:43:34Z</time>
      </trkpt>
      <trkpt lat="45.35901" lon="5.64612">
        <ele>686</ele>
        <time>2023-02-16T09:43:36Z</time>
      </trkpt>
      <trkpt lat="45.35902" lon="5.64615">
        <ele>687</ele>
        <time>2023-02-16T09:43:37Z</time>
      </trkpt>
      <trkpt lat="45.35908" lon="5.64623">
        <ele>687</ele>
        <time>2023-02-16T09:43:41Z</time>
      </trkpt>
      <trkpt lat="45.3591" lon="5.64625">
        <ele>688</ele>
        <time>2023-02-16T09:43:42Z</time>
      </trkpt>
      <trkpt lat="45.35911" lon="5.64628">
        <ele>688</ele>
        <time>2023-02-16T09:43:43Z</time>
      </trkpt>
      <trkpt lat="45.35913" lon="5.64632">
        <ele>689</ele>
        <time>2023-02-16T09:43:44Z</time>
      </trkpt>
      <trkpt lat="45.35915" lon="5.64636">
        <ele>689</ele>
        <time>2023-02-16T09:43:45Z</time>
      </trkpt>
      <trkpt lat="45.35917" lon="5.64641">
        <ele>689</ele>
        <time>2023-02-16T09:43:46Z</time>
      </trkpt>
      <trkpt lat="45.35918" lon="5.64645">
        <ele>689</ele>
        <time>2023-02-16T09:43:47Z</time>
      </trkpt>
      <trkpt lat="45.35918" lon="5.64653">
        <ele>689</ele>
        <time>2023-02-16T09:43:49Z</time>
      </trkpt>
      <trkpt lat="45.35919" lon="5.64657">
        <ele>689</ele>
        <time>2023-02-16T09:43:50Z</time>
      </trkpt>
      <trkpt lat="45.3592" lon="5.64664">
        <ele>689</ele>
        <time>2023-02-16T09:43:51Z</time>
      </trkpt>
      <trkpt lat="45.35922" lon="5.6467">
        <ele>689</ele>
        <time>2023-02-16T09:43:52Z</time>
      </trkpt>
      <trkpt lat="45.35925" lon="5.64687">
        <ele>689</ele>
        <time>2023-02-16T09:43:55Z</time>
      </trkpt>
      <trkpt lat="45.35931" lon="5.64698">
        <ele>689</ele>
        <time>2023-02-16T09:43:57Z</time>
      </trkpt>
      <trkpt lat="45.35939" lon="5.6471">
        <ele>687</ele>
        <time>2023-02-16T09:43:59Z</time>
      </trkpt>
      <trkpt lat="45.35946" lon="5.64723">
        <ele>687</ele>
        <time>2023-02-16T09:44:01Z</time>
      </trkpt>
      <trkpt lat="45.35955" lon="5.64734">
        <ele>687</ele>
        <time>2023-02-16T09:44:03Z</time>
      </trkpt>
      <trkpt lat="45.35962" lon="5.64746">
        <ele>687</ele>
        <time>2023-02-16T09:44:06Z</time>
      </trkpt>
      <trkpt lat="45.35971" lon="5.64754">
        <ele>691</ele>
        <time>2023-02-16T09:44:10Z</time>
      </trkpt>
      <trkpt lat="45.35973" lon="5.64757">
        <ele>691</ele>
        <time>2023-02-16T09:44:11Z</time>
      </trkpt>
      <trkpt lat="45.3598" lon="5.64767">
        <ele>692</ele>
        <time>2023-02-16T09:44:15Z</time>
      </trkpt>
      <trkpt lat="45.35985" lon="5.64778">
        <ele>692</ele>
        <time>2023-02-16T09:44:18Z</time>
      </trkpt>
      <trkpt lat="45.35988" lon="5.64782">
        <ele>693</ele>
        <time>2023-02-16T09:44:20Z</time>
      </trkpt>
      <trkpt lat="45.3599" lon="5.64784">
        <ele>693</ele>
        <time>2023-02-16T09:44:21Z</time>
      </trkpt>
      <trkpt lat="45.3599" lon="5.64787">
        <ele>693</ele>
        <time>2023-02-16T09:44:22Z</time>
      </trkpt>
      <trkpt lat="45.35991" lon="5.64792">
        <ele>693</ele>
        <time>2023-02-16T09:44:24Z</time>
      </trkpt>
      <trkpt lat="45.35992" lon="5.64795">
        <ele>694</ele>
        <time>2023-02-16T09:44:25Z</time>
      </trkpt>
      <trkpt lat="45.35992" lon="5.64798">
        <ele>694</ele>
        <time>2023-02-16T09:44:26Z</time>
      </trkpt>
      <trkpt lat="45.35993" lon="5.64807">
        <ele>694</ele>
        <time>2023-02-16T09:44:28Z</time>
      </trkpt>
      <trkpt lat="45.35994" lon="5.6481">
        <ele>694</ele>
        <time>2023-02-16T09:44:29Z</time>
      </trkpt>
      <trkpt lat="45.35995" lon="5.64815">
        <ele>694</ele>
        <time>2023-02-16T09:44:30Z</time>
      </trkpt>
      <trkpt lat="45.35994" lon="5.64818">
        <ele>694</ele>
        <time>2023-02-16T09:44:31Z</time>
      </trkpt>
      <trkpt lat="45.35994" lon="5.64822">
        <ele>694</ele>
        <time>2023-02-16T09:44:32Z</time>
      </trkpt>
      <trkpt lat="45.35994" lon="5.64825">
        <ele>696</ele>
        <time>2023-02-16T09:44:33Z</time>
      </trkpt>
      <trkpt lat="45.35994" lon="5.64829">
        <ele>696</ele>
        <time>2023-02-16T09:44:35Z</time>
      </trkpt>
      <trkpt lat="45.35994" lon="5.64833">
        <ele>697</ele>
        <time>2023-02-16T09:44:36Z</time>
      </trkpt>
      <trkpt lat="45.35995" lon="5.64836">
        <ele>697</ele>
        <time>2023-02-16T09:44:37Z</time>
      </trkpt>
      <trkpt lat="45.35994" lon="5.64839">
        <ele>697</ele>
        <time>2023-02-16T09:44:38Z</time>
      </trkpt>
      <trkpt lat="45.35995" lon="5.64843">
        <ele>697</ele>
        <time>2023-02-16T09:44:39Z</time>
      </trkpt>
      <trkpt lat="45.35996" lon="5.64847">
        <ele>697</ele>
        <time>2023-02-16T09:44:40Z</time>
      </trkpt>
      <trkpt lat="45.35996" lon="5.64851">
        <ele>697</ele>
        <time>2023-02-16T09:44:41Z</time>
      </trkpt>
      <trkpt lat="45.35997" lon="5.64855">
        <ele>696</ele>
        <time>2023-02-16T09:44:42Z</time>
      </trkpt>
      <trkpt lat="45.35998" lon="5.64859">
        <ele>696</ele>
        <time>2023-02-16T09:44:43Z</time>
      </trkpt>
      <trkpt lat="45.35998" lon="5.64865">
        <ele>696</ele>
        <time>2023-02-16T09:44:44Z</time>
      </trkpt>
      <trkpt lat="45.35998" lon="5.64871">
        <ele>697</ele>
        <time>2023-02-16T09:44:45Z</time>
      </trkpt>
      <trkpt lat="45.36" lon="5.64876">
        <ele>697</ele>
        <time>2023-02-16T09:44:46Z</time>
      </trkpt>
      <trkpt lat="45.36001" lon="5.6488">
        <ele>697</ele>
        <time>2023-02-16T09:44:47Z</time>
      </trkpt>
      <trkpt lat="45.36003" lon="5.64883">
        <ele>697</ele>
        <time>2023-02-16T09:44:48Z</time>
      </trkpt>
      <trkpt lat="45.36004" lon="5.64888">
        <ele>697</ele>
        <time>2023-02-16T09:44:49Z</time>
      </trkpt>
      <trkpt lat="45.36006" lon="5.64894">
        <ele>698</ele>
        <time>2023-02-16T09:44:50Z</time>
      </trkpt>
      <trkpt lat="45.36008" lon="5.64899">
        <ele>698</ele>
        <time>2023-02-16T09:44:51Z</time>
      </trkpt>
      <trkpt lat="45.36011" lon="5.64904">
        <ele>698</ele>
        <time>2023-02-16T09:44:52Z</time>
      </trkpt>
      <trkpt lat="45.36012" lon="5.6491">
        <ele>698</ele>
        <time>2023-02-16T09:44:53Z</time>
      </trkpt>
      <trkpt lat="45.36013" lon="5.64916">
        <ele>698</ele>
        <time>2023-02-16T09:44:54Z</time>
      </trkpt>
      <trkpt lat="45.36014" lon="5.64922">
        <ele>698</ele>
        <time>2023-02-16T09:44:55Z</time>
      </trkpt>
      <trkpt lat="45.36014" lon="5.64927">
        <ele>699</ele>
        <time>2023-02-16T09:44:56Z</time>
      </trkpt>
      <trkpt lat="45.36015" lon="5.64932">
        <ele>699</ele>
        <time>2023-02-16T09:44:57Z</time>
      </trkpt>
      <trkpt lat="45.36016" lon="5.64937">
        <ele>699</ele>
        <time>2023-02-16T09:44:58Z</time>
      </trkpt>
      <trkpt lat="45.36016" lon="5.64942">
        <ele>699</ele>
        <time>2023-02-16T09:44:59Z</time>
      </trkpt>
      <trkpt lat="45.36016" lon="5.64947">
        <ele>700</ele>
        <time>2023-02-16T09:45:00Z</time>
      </trkpt>
      <trkpt lat="45.36016" lon="5.64951">
        <ele>700</ele>
        <time>2023-02-16T09:45:01Z</time>
      </trkpt>
      <trkpt lat="45.36015" lon="5.64956">
        <ele>700</ele>
        <time>2023-02-16T09:45:02Z</time>
      </trkpt>
      <trkpt lat="45.36015" lon="5.6496">
        <ele>700</ele>
        <time>2023-02-16T09:45:03Z</time>
      </trkpt>
      <trkpt lat="45.36015" lon="5.64965">
        <ele>700</ele>
        <time>2023-02-16T09:45:04Z</time>
      </trkpt>
      <trkpt lat="45.36014" lon="5.64969">
        <ele>701</ele>
        <time>2023-02-16T09:45:05Z</time>
      </trkpt>
      <trkpt lat="45.36014" lon="5.64973">
        <ele>701</ele>
        <time>2023-02-16T09:45:06Z</time>
      </trkpt>
      <trkpt lat="45.36014" lon="5.64978">
        <ele>701</ele>
        <time>2023-02-16T09:45:07Z</time>
      </trkpt>
      <trkpt lat="45.36014" lon="5.64982">
        <ele>702</ele>
        <time>2023-02-16T09:45:08Z</time>
      </trkpt>
      <trkpt lat="45.36014" lon="5.64986">
        <ele>702</ele>
        <time>2023-02-16T09:45:09Z</time>
      </trkpt>
      <trkpt lat="45.36014" lon="5.6499">
        <ele>702</ele>
        <time>2023-02-16T09:45:10Z</time>
      </trkpt>
      <trkpt lat="45.36015" lon="5.64995">
        <ele>702</ele>
        <time>2023-02-16T09:45:11Z</time>
      </trkpt>
      <trkpt lat="45.36015" lon="5.64999">
        <ele>702</ele>
        <time>2023-02-16T09:45:12Z</time>
      </trkpt>
      <trkpt lat="45.36016" lon="5.65003">
        <ele>702</ele>
        <time>2023-02-16T09:45:13Z</time>
      </trkpt>
      <trkpt lat="45.36017" lon="5.65007">
        <ele>702</ele>
        <time>2023-02-16T09:45:14Z</time>
      </trkpt>
      <trkpt lat="45.36019" lon="5.65011">
        <ele>702</ele>
        <time>2023-02-16T09:45:15Z</time>
      </trkpt>
      <trkpt lat="45.36021" lon="5.65014">
        <ele>703</ele>
        <time>2023-02-16T09:45:16Z</time>
      </trkpt>
      <trkpt lat="45.36023" lon="5.65017">
        <ele>703</ele>
        <time>2023-02-16T09:45:17Z</time>
      </trkpt>
      <trkpt lat="45.36025" lon="5.65019">
        <ele>703</ele>
        <time>2023-02-16T09:45:18Z</time>
      </trkpt>
      <trkpt lat="45.36028" lon="5.65021">
        <ele>703</ele>
        <time>2023-02-16T09:45:19Z</time>
      </trkpt>
      <trkpt lat="45.36031" lon="5.65023">
        <ele>703</ele>
        <time>2023-02-16T09:45:20Z</time>
      </trkpt>
      <trkpt lat="45.36034" lon="5.65024">
        <ele>703</ele>
        <time>2023-02-16T09:45:21Z</time>
      </trkpt>
      <trkpt lat="45.36037" lon="5.65025">
        <ele>703</ele>
        <time>2023-02-16T09:45:22Z</time>
      </trkpt>
      <trkpt lat="45.3604" lon="5.65026">
        <ele>703</ele>
        <time>2023-02-16T09:45:23Z</time>
      </trkpt>
      <trkpt lat="45.36043" lon="5.65027">
        <ele>704</ele>
        <time>2023-02-16T09:45:24Z</time>
      </trkpt>
      <trkpt lat="45.36046" lon="5.65029">
        <ele>704</ele>
        <time>2023-02-16T09:45:25Z</time>
      </trkpt>
      <trkpt lat="45.36049" lon="5.6503">
        <ele>704</ele>
        <time>2023-02-16T09:45:26Z</time>
      </trkpt>
      <trkpt lat="45.36053" lon="5.65031">
        <ele>704</ele>
        <time>2023-02-16T09:45:27Z</time>
      </trkpt>
      <trkpt lat="45.36056" lon="5.65032">
        <ele>704</ele>
        <time>2023-02-16T09:45:28Z</time>
      </trkpt>
      <trkpt lat="45.3606" lon="5.65033">
        <ele>704</ele>
        <time>2023-02-16T09:45:29Z</time>
      </trkpt>
      <trkpt lat="45.36063" lon="5.65035">
        <ele>704</ele>
        <time>2023-02-16T09:45:30Z</time>
      </trkpt>
      <trkpt lat="45.36067" lon="5.65036">
        <ele>704</ele>
        <time>2023-02-16T09:45:31Z</time>
      </trkpt>
      <trkpt lat="45.36071" lon="5.65038">
        <ele>704</ele>
        <time>2023-02-16T09:45:32Z</time>
      </trkpt>
      <trkpt lat="45.36075" lon="5.65041">
        <ele>704</ele>
        <time>2023-02-16T09:45:33Z</time>
      </trkpt>
      <trkpt lat="45.36079" lon="5.65046">
        <ele>704</ele>
        <time>2023-02-16T09:45:34Z</time>
      </trkpt>
      <trkpt lat="45.36083" lon="5.6505">
        <ele>703</ele>
        <time>2023-02-16T09:45:35Z</time>
      </trkpt>
      <trkpt lat="45.36088" lon="5.65056">
        <ele>703</ele>
        <time>2023-02-16T09:45:36Z</time>
      </trkpt>
      <trkpt lat="45.36092" lon="5.65062">
        <ele>702</ele>
        <time>2023-02-16T09:45:37Z</time>
      </trkpt>
      <trkpt lat="45.36097" lon="5.65068">
        <ele>702</ele>
        <time>2023-02-16T09:45:38Z</time>
      </trkpt>
      <trkpt lat="45.36102" lon="5.65075">
        <ele>702</ele>
        <time>2023-02-16T09:45:39Z</time>
      </trkpt>
      <trkpt lat="45.36107" lon="5.65083">
        <ele>702</ele>
        <time>2023-02-16T09:45:40Z</time>
      </trkpt>
      <trkpt lat="45.36113" lon="5.6509">
        <ele>701</ele>
        <time>2023-02-16T09:45:41Z</time>
      </trkpt>
      <trkpt lat="45.3612" lon="5.65096">
        <ele>701</ele>
        <time>2023-02-16T09:45:42Z</time>
      </trkpt>
      <trkpt lat="45.36127" lon="5.65103">
        <ele>700</ele>
        <time>2023-02-16T09:45:43Z</time>
      </trkpt>
      <trkpt lat="45.36133" lon="5.65111">
        <ele>700</ele>
        <time>2023-02-16T09:45:44Z</time>
      </trkpt>
      <trkpt lat="45.36138" lon="5.65121">
        <ele>700</ele>
        <time>2023-02-16T09:45:45Z</time>
      </trkpt>
      <trkpt lat="45.36143" lon="5.65129">
        <ele>700</ele>
        <time>2023-02-16T09:45:46Z</time>
      </trkpt>
      <trkpt lat="45.36149" lon="5.65136">
        <ele>700</ele>
        <time>2023-02-16T09:45:47Z</time>
      </trkpt>
      <trkpt lat="45.36155" lon="5.65142">
        <ele>698</ele>
        <time>2023-02-16T09:45:48Z</time>
      </trkpt>
      <trkpt lat="45.3616" lon="5.65147">
        <ele>698</ele>
        <time>2023-02-16T09:45:49Z</time>
      </trkpt>
      <trkpt lat="45.36165" lon="5.65151">
        <ele>698</ele>
        <time>2023-02-16T09:45:50Z</time>
      </trkpt>
      <trkpt lat="45.36169" lon="5.65156">
        <ele>698</ele>
        <time>2023-02-16T09:45:51Z</time>
      </trkpt>
      <trkpt lat="45.36175" lon="5.65159">
        <ele>698</ele>
        <time>2023-02-16T09:45:52Z</time>
      </trkpt>
      <trkpt lat="45.3618" lon="5.65163">
        <ele>698</ele>
        <time>2023-02-16T09:45:53Z</time>
      </trkpt>
      <trkpt lat="45.36185" lon="5.65167">
        <ele>698</ele>
        <time>2023-02-16T09:45:54Z</time>
      </trkpt>
      <trkpt lat="45.36191" lon="5.65172">
        <ele>698</ele>
        <time>2023-02-16T09:45:55Z</time>
      </trkpt>
      <trkpt lat="45.36195" lon="5.65178">
        <ele>698</ele>
        <time>2023-02-16T09:45:56Z</time>
      </trkpt>
      <trkpt lat="45.36198" lon="5.65184">
        <ele>698</ele>
        <time>2023-02-16T09:45:57Z</time>
      </trkpt>
      <trkpt lat="45.36201" lon="5.6519">
        <ele>697</ele>
        <time>2023-02-16T09:45:58Z</time>
      </trkpt>
      <trkpt lat="45.36203" lon="5.65196">
        <ele>697</ele>
        <time>2023-02-16T09:45:59Z</time>
      </trkpt>
      <trkpt lat="45.36205" lon="5.652">
        <ele>697</ele>
        <time>2023-02-16T09:46:00Z</time>
      </trkpt>
      <trkpt lat="45.36206" lon="5.65205">
        <ele>697</ele>
        <time>2023-02-16T09:46:01Z</time>
      </trkpt>
      <trkpt lat="45.36207" lon="5.65209">
        <ele>697</ele>
        <time>2023-02-16T09:46:02Z</time>
      </trkpt>
      <trkpt lat="45.36208" lon="5.65214">
        <ele>698</ele>
        <time>2023-02-16T09:46:03Z</time>
      </trkpt>
      <trkpt lat="45.36209" lon="5.65218">
        <ele>698</ele>
        <time>2023-02-16T09:46:04Z</time>
      </trkpt>
      <trkpt lat="45.36211" lon="5.65223">
        <ele>698</ele>
        <time>2023-02-16T09:46:05Z</time>
      </trkpt>
      <trkpt lat="45.36212" lon="5.65228">
        <ele>699</ele>
        <time>2023-02-16T09:46:06Z</time>
      </trkpt>
      <trkpt lat="45.36213" lon="5.65232">
        <ele>699</ele>
        <time>2023-02-16T09:46:07Z</time>
      </trkpt>
      <trkpt lat="45.36215" lon="5.65236">
        <ele>699</ele>
        <time>2023-02-16T09:46:08Z</time>
      </trkpt>
      <trkpt lat="45.36217" lon="5.65241">
        <ele>699</ele>
        <time>2023-02-16T09:46:09Z</time>
      </trkpt>
      <trkpt lat="45.3622" lon="5.65246">
        <ele>699</ele>
        <time>2023-02-16T09:46:10Z</time>
      </trkpt>
      <trkpt lat="45.36222" lon="5.65251">
        <ele>699</ele>
        <time>2023-02-16T09:46:11Z</time>
      </trkpt>
      <trkpt lat="45.36225" lon="5.65256">
        <ele>699</ele>
        <time>2023-02-16T09:46:12Z</time>
      </trkpt>
      <trkpt lat="45.36229" lon="5.6526">
        <ele>699</ele>
        <time>2023-02-16T09:46:13Z</time>
      </trkpt>
      <trkpt lat="45.36233" lon="5.65263">
        <ele>699</ele>
        <time>2023-02-16T09:46:14Z</time>
      </trkpt>
      <trkpt lat="45.36237" lon="5.65265">
        <ele>699</ele>
        <time>2023-02-16T09:46:15Z</time>
      </trkpt>
      <trkpt lat="45.36247" lon="5.65265">
        <ele>699</ele>
        <time>2023-02-16T09:46:17Z</time>
      </trkpt>
      <trkpt lat="45.36258" lon="5.65266">
        <ele>698</ele>
        <time>2023-02-16T09:46:19Z</time>
      </trkpt>
      <trkpt lat="45.36267" lon="5.65263">
        <ele>698</ele>
        <time>2023-02-16T09:46:21Z</time>
      </trkpt>
      <trkpt lat="45.36275" lon="5.65256">
        <ele>698</ele>
        <time>2023-02-16T09:46:23Z</time>
      </trkpt>
      <trkpt lat="45.36279" lon="5.6525">
        <ele>698</ele>
        <time>2023-02-16T09:46:24Z</time>
      </trkpt>
      <trkpt lat="45.36283" lon="5.65245">
        <ele>698</ele>
        <time>2023-02-16T09:46:25Z</time>
      </trkpt>
      <trkpt lat="45.36294" lon="5.65237">
        <ele>698</ele>
        <time>2023-02-16T09:46:27Z</time>
      </trkpt>
      <trkpt lat="45.36304" lon="5.65237">
        <ele>697</ele>
        <time>2023-02-16T09:46:29Z</time>
      </trkpt>
      <trkpt lat="45.36313" lon="5.65237">
        <ele>698</ele>
        <time>2023-02-16T09:46:31Z</time>
      </trkpt>
      <trkpt lat="45.36322" lon="5.65241">
        <ele>698</ele>
        <time>2023-02-16T09:46:33Z</time>
      </trkpt>
      <trkpt lat="45.36333" lon="5.65241">
        <ele>698</ele>
        <time>2023-02-16T09:46:35Z</time>
      </trkpt>
      <trkpt lat="45.36343" lon="5.65242">
        <ele>698</ele>
        <time>2023-02-16T09:46:37Z</time>
      </trkpt>
      <trkpt lat="45.36354" lon="5.65245">
        <ele>697</ele>
        <time>2023-02-16T09:46:39Z</time>
      </trkpt>
      <trkpt lat="45.36362" lon="5.65251">
        <ele>697</ele>
        <time>2023-02-16T09:46:41Z</time>
      </trkpt>
      <trkpt lat="45.36372" lon="5.65262">
        <ele>697</ele>
        <time>2023-02-16T09:46:43Z</time>
      </trkpt>
      <trkpt lat="45.36378" lon="5.65275">
        <ele>697</ele>
        <time>2023-02-16T09:46:45Z</time>
      </trkpt>
      <trkpt lat="45.36381" lon="5.65281">
        <ele>697</ele>
        <time>2023-02-16T09:46:46Z</time>
      </trkpt>
      <trkpt lat="45.36393" lon="5.65289">
        <ele>697</ele>
        <time>2023-02-16T09:46:49Z</time>
      </trkpt>
      <trkpt lat="45.36404" lon="5.65293">
        <ele>697</ele>
        <time>2023-02-16T09:46:51Z</time>
      </trkpt>
      <trkpt lat="45.36415" lon="5.65301">
        <ele>697</ele>
        <time>2023-02-16T09:46:54Z</time>
      </trkpt>
      <trkpt lat="45.36423" lon="5.65306">
        <ele>697</ele>
        <time>2023-02-16T09:46:56Z</time>
      </trkpt>
      <trkpt lat="45.36434" lon="5.65306">
        <ele>697</ele>
        <time>2023-02-16T09:46:58Z</time>
      </trkpt>
      <trkpt lat="45.36446" lon="5.65304">
        <ele>697</ele>
        <time>2023-02-16T09:47:00Z</time>
      </trkpt>
      <trkpt lat="45.36457" lon="5.65301">
        <ele>696</ele>
        <time>2023-02-16T09:47:02Z</time>
      </trkpt>
      <trkpt lat="45.36471" lon="5.65299">
        <ele>696</ele>
        <time>2023-02-16T09:47:04Z</time>
      </trkpt>
      <trkpt lat="45.36483" lon="5.653">
        <ele>695</ele>
        <time>2023-02-16T09:47:06Z</time>
      </trkpt>
      <trkpt lat="45.36495" lon="5.65301">
        <ele>694</ele>
        <time>2023-02-16T09:47:08Z</time>
      </trkpt>
      <trkpt lat="45.36507" lon="5.65298">
        <ele>693</ele>
        <time>2023-02-16T09:47:10Z</time>
      </trkpt>
      <trkpt lat="45.3652" lon="5.653">
        <ele>693</ele>
        <time>2023-02-16T09:47:12Z</time>
      </trkpt>
      <trkpt lat="45.36525" lon="5.653">
        <ele>693</ele>
        <time>2023-02-16T09:47:13Z</time>
      </trkpt>
      <trkpt lat="45.36531" lon="5.65301">
        <ele>693</ele>
        <time>2023-02-16T09:47:14Z</time>
      </trkpt>
      <trkpt lat="45.36539" lon="5.65307">
        <ele>693</ele>
        <time>2023-02-16T09:47:16Z</time>
      </trkpt>
      <trkpt lat="45.36547" lon="5.65318">
        <ele>693</ele>
        <time>2023-02-16T09:47:18Z</time>
      </trkpt>
      <trkpt lat="45.36552" lon="5.65323">
        <ele>693</ele>
        <time>2023-02-16T09:47:19Z</time>
      </trkpt>
      <trkpt lat="45.36555" lon="5.65329">
        <ele>693</ele>
        <time>2023-02-16T09:47:20Z</time>
      </trkpt>
      <trkpt lat="45.36559" lon="5.65336">
        <ele>693</ele>
        <time>2023-02-16T09:47:21Z</time>
      </trkpt>
      <trkpt lat="45.36565" lon="5.65349">
        <ele>692</ele>
        <time>2023-02-16T09:47:23Z</time>
      </trkpt>
      <trkpt lat="45.36568" lon="5.6537">
        <ele>690</ele>
        <time>2023-02-16T09:47:25Z</time>
      </trkpt>
      <trkpt lat="45.3657" lon="5.65393">
        <ele>690</ele>
        <time>2023-02-16T09:47:27Z</time>
      </trkpt>
      <trkpt lat="45.3657" lon="5.65404">
        <ele>689</ele>
        <time>2023-02-16T09:47:28Z</time>
      </trkpt>
      <trkpt lat="45.36573" lon="5.65417">
        <ele>689</ele>
        <time>2023-02-16T09:47:30Z</time>
      </trkpt>
      <trkpt lat="45.36578" lon="5.65431">
        <ele>690</ele>
        <time>2023-02-16T09:47:33Z</time>
      </trkpt>
      <trkpt lat="45.36579" lon="5.65434">
        <ele>691</ele>
        <time>2023-02-16T09:47:34Z</time>
      </trkpt>
      <trkpt lat="45.36581" lon="5.65438">
        <ele>691</ele>
        <time>2023-02-16T09:47:35Z</time>
      </trkpt>
      <trkpt lat="45.36581" lon="5.65443">
        <ele>691</ele>
        <time>2023-02-16T09:47:36Z</time>
      </trkpt>
      <trkpt lat="45.36582" lon="5.65448">
        <ele>692</ele>
        <time>2023-02-16T09:47:37Z</time>
      </trkpt>
      <trkpt lat="45.36583" lon="5.65452">
        <ele>692</ele>
        <time>2023-02-16T09:47:38Z</time>
      </trkpt>
      <trkpt lat="45.36582" lon="5.65457">
        <ele>692</ele>
        <time>2023-02-16T09:47:39Z</time>
      </trkpt>
      <trkpt lat="45.36582" lon="5.65462">
        <ele>692</ele>
        <time>2023-02-16T09:47:40Z</time>
      </trkpt>
      <trkpt lat="45.36581" lon="5.65465">
        <ele>693</ele>
        <time>2023-02-16T09:47:41Z</time>
      </trkpt>
      <trkpt lat="45.36581" lon="5.65468">
        <ele>693</ele>
        <time>2023-02-16T09:47:42Z</time>
      </trkpt>
      <trkpt lat="45.3658" lon="5.65471">
        <ele>693</ele>
        <time>2023-02-16T09:47:43Z</time>
      </trkpt>
      <trkpt lat="45.36579" lon="5.65474">
        <ele>694</ele>
        <time>2023-02-16T09:47:44Z</time>
      </trkpt>
      <trkpt lat="45.36578" lon="5.65477">
        <ele>694</ele>
        <time>2023-02-16T09:47:45Z</time>
      </trkpt>
      <trkpt lat="45.36578" lon="5.6548">
        <ele>694</ele>
        <time>2023-02-16T09:47:46Z</time>
      </trkpt>
      <trkpt lat="45.36578" lon="5.65483">
        <ele>695</ele>
        <time>2023-02-16T09:47:47Z</time>
      </trkpt>
      <trkpt lat="45.36578" lon="5.65486">
        <ele>695</ele>
        <time>2023-02-16T09:47:48Z</time>
      </trkpt>
      <trkpt lat="45.36577" lon="5.6549">
        <ele>695</ele>
        <time>2023-02-16T09:47:49Z</time>
      </trkpt>
      <trkpt lat="45.36576" lon="5.65493">
        <ele>696</ele>
        <time>2023-02-16T09:47:50Z</time>
      </trkpt>
      <trkpt lat="45.36575" lon="5.65497">
        <ele>697</ele>
        <time>2023-02-16T09:47:51Z</time>
      </trkpt>
      <trkpt lat="45.36573" lon="5.655">
        <ele>697</ele>
        <time>2023-02-16T09:47:52Z</time>
      </trkpt>
      <trkpt lat="45.36571" lon="5.65503">
        <ele>697</ele>
        <time>2023-02-16T09:47:53Z</time>
      </trkpt>
      <trkpt lat="45.36569" lon="5.65505">
        <ele>697</ele>
        <time>2023-02-16T09:47:54Z</time>
      </trkpt>
      <trkpt lat="45.36566" lon="5.65506">
        <ele>697</ele>
        <time>2023-02-16T09:47:55Z</time>
      </trkpt>
      <trkpt lat="45.36564" lon="5.65507">
        <ele>697</ele>
        <time>2023-02-16T09:47:56Z</time>
      </trkpt>
      <trkpt lat="45.36563" lon="5.65508">
        <ele>697</ele>
        <time>2023-02-16T09:47:57Z</time>
      </trkpt>
      <trkpt lat="45.36561" lon="5.65509">
        <ele>697</ele>
        <time>2023-02-16T09:47:58Z</time>
      </trkpt>
      <trkpt lat="45.36559" lon="5.6551">
        <ele>697</ele>
        <time>2023-02-16T09:47:59Z</time>
      </trkpt>
      <trkpt lat="45.36557" lon="5.65512">
        <ele>697</ele>
        <time>2023-02-16T09:48:00Z</time>
      </trkpt>
      <trkpt lat="45.36554" lon="5.65513">
        <ele>697</ele>
        <time>2023-02-16T09:48:01Z</time>
      </trkpt>
      <trkpt lat="45.36551" lon="5.65514">
        <ele>697</ele>
        <time>2023-02-16T09:48:02Z</time>
      </trkpt>
      <trkpt lat="45.36548" lon="5.65516">
        <ele>697</ele>
        <time>2023-02-16T09:48:03Z</time>
      </trkpt>
      <trkpt lat="45.36545" lon="5.65517">
        <ele>697</ele>
        <time>2023-02-16T09:48:04Z</time>
      </trkpt>
      <trkpt lat="45.36542" lon="5.65518">
        <ele>697</ele>
        <time>2023-02-16T09:48:05Z</time>
      </trkpt>
      <trkpt lat="45.36539" lon="5.6552">
        <ele>697</ele>
        <time>2023-02-16T09:48:06Z</time>
      </trkpt>
      <trkpt lat="45.36537" lon="5.65521">
        <ele>697</ele>
        <time>2023-02-16T09:48:07Z</time>
      </trkpt>
      <trkpt lat="45.36535" lon="5.65522">
        <ele>697</ele>
        <time>2023-02-16T09:48:08Z</time>
      </trkpt>
      <trkpt lat="45.36532" lon="5.65524">
        <ele>697</ele>
        <time>2023-02-16T09:48:09Z</time>
      </trkpt>
      <trkpt lat="45.36529" lon="5.65526">
        <ele>697</ele>
        <time>2023-02-16T09:48:10Z</time>
      </trkpt>
      <trkpt lat="45.36527" lon="5.65528">
        <ele>697</ele>
        <time>2023-02-16T09:48:11Z</time>
      </trkpt>
      <trkpt lat="45.36525" lon="5.65531">
        <ele>697</ele>
        <time>2023-02-16T09:48:12Z</time>
      </trkpt>
      <trkpt lat="45.36523" lon="5.65533">
        <ele>697</ele>
        <time>2023-02-16T09:48:13Z</time>
      </trkpt>
      <trkpt lat="45.36522" lon="5.65536">
        <ele>697</ele>
        <time>2023-02-16T09:48:14Z</time>
      </trkpt>
      <trkpt lat="45.3652" lon="5.65539">
        <ele>698</ele>
        <time>2023-02-16T09:48:15Z</time>
      </trkpt>
      <trkpt lat="45.36519" lon="5.65543">
        <ele>698</ele>
        <time>2023-02-16T09:48:16Z</time>
      </trkpt>
      <trkpt lat="45.36517" lon="5.65547">
        <ele>698</ele>
        <time>2023-02-16T09:48:17Z</time>
      </trkpt>
      <trkpt lat="45.36515" lon="5.65552">
        <ele>698</ele>
        <time>2023-02-16T09:48:18Z</time>
      </trkpt>
      <trkpt lat="45.36513" lon="5.65556">
        <ele>698</ele>
        <time>2023-02-16T09:48:19Z</time>
      </trkpt>
      <trkpt lat="45.36511" lon="5.65561">
        <ele>698</ele>
        <time>2023-02-16T09:48:20Z</time>
      </trkpt>
      <trkpt lat="45.36508" lon="5.65565">
        <ele>698</ele>
        <time>2023-02-16T09:48:21Z</time>
      </trkpt>
      <trkpt lat="45.36506" lon="5.6557">
        <ele>698</ele>
        <time>2023-02-16T09:48:22Z</time>
      </trkpt>
      <trkpt lat="45.36505" lon="5.65574">
        <ele>698</ele>
        <time>2023-02-16T09:48:23Z</time>
      </trkpt>
      <trkpt lat="45.36502" lon="5.65578">
        <ele>698</ele>
        <time>2023-02-16T09:48:24Z</time>
      </trkpt>
      <trkpt lat="45.365" lon="5.65582">
        <ele>698</ele>
        <time>2023-02-16T09:48:25Z</time>
      </trkpt>
      <trkpt lat="45.36496" lon="5.65588">
        <ele>698</ele>
        <time>2023-02-16T09:48:26Z</time>
      </trkpt>
      <trkpt lat="45.36489" lon="5.65599">
        <ele>697</ele>
        <time>2023-02-16T09:48:28Z</time>
      </trkpt>
      <trkpt lat="45.36485" lon="5.65605">
        <ele>697</ele>
        <time>2023-02-16T09:48:29Z</time>
      </trkpt>
      <trkpt lat="45.36481" lon="5.65609">
        <ele>697</ele>
        <time>2023-02-16T09:48:30Z</time>
      </trkpt>
      <trkpt lat="45.36476" lon="5.65613">
        <ele>697</ele>
        <time>2023-02-16T09:48:31Z</time>
      </trkpt>
      <trkpt lat="45.36472" lon="5.65616">
        <ele>697</ele>
        <time>2023-02-16T09:48:32Z</time>
      </trkpt>
      <trkpt lat="45.36468" lon="5.65617">
        <ele>697</ele>
        <time>2023-02-16T09:48:33Z</time>
      </trkpt>
      <trkpt lat="45.36465" lon="5.65619">
        <ele>697</ele>
        <time>2023-02-16T09:48:34Z</time>
      </trkpt>
      <trkpt lat="45.36462" lon="5.65619">
        <ele>697</ele>
        <time>2023-02-16T09:48:35Z</time>
      </trkpt>
      <trkpt lat="45.3646" lon="5.65618">
        <ele>698</ele>
        <time>2023-02-16T09:48:36Z</time>
      </trkpt>
      <trkpt lat="45.36457" lon="5.65617">
        <ele>699</ele>
        <time>2023-02-16T09:48:37Z</time>
      </trkpt>
      <trkpt lat="45.36455" lon="5.65616">
        <ele>699</ele>
        <time>2023-02-16T09:48:38Z</time>
      </trkpt>
      <trkpt lat="45.36453" lon="5.65615">
        <ele>699</ele>
        <time>2023-02-16T09:48:39Z</time>
      </trkpt>
      <trkpt lat="45.3645" lon="5.65614">
        <ele>700</ele>
        <time>2023-02-16T09:48:40Z</time>
      </trkpt>
      <trkpt lat="45.36447" lon="5.65612">
        <ele>700</ele>
        <time>2023-02-16T09:48:41Z</time>
      </trkpt>
      <trkpt lat="45.36443" lon="5.65611">
        <ele>700</ele>
        <time>2023-02-16T09:48:42Z</time>
      </trkpt>
      <trkpt lat="45.3644" lon="5.65609">
        <ele>700</ele>
        <time>2023-02-16T09:48:43Z</time>
      </trkpt>
      <trkpt lat="45.36437" lon="5.65607">
        <ele>700</ele>
        <time>2023-02-16T09:48:44Z</time>
      </trkpt>
      <trkpt lat="45.36435" lon="5.65606">
        <ele>700</ele>
        <time>2023-02-16T09:48:45Z</time>
      </trkpt>
      <trkpt lat="45.36432" lon="5.65605">
        <ele>700</ele>
        <time>2023-02-16T09:48:46Z</time>
      </trkpt>
      <trkpt lat="45.36429" lon="5.65604">
        <ele>700</ele>
        <time>2023-02-16T09:48:47Z</time>
      </trkpt>
      <trkpt lat="45.36426" lon="5.65603">
        <ele>701</ele>
        <time>2023-02-16T09:48:48Z</time>
      </trkpt>
      <trkpt lat="45.36422" lon="5.65602">
        <ele>701</ele>
        <time>2023-02-16T09:48:49Z</time>
      </trkpt>
      <trkpt lat="45.36419" lon="5.65601">
        <ele>701</ele>
        <time>2023-02-16T09:48:50Z</time>
      </trkpt>
      <trkpt lat="45.36416" lon="5.65601">
        <ele>701</ele>
        <time>2023-02-16T09:48:51Z</time>
      </trkpt>
      <trkpt lat="45.36413" lon="5.656">
        <ele>701</ele>
        <time>2023-02-16T09:48:52Z</time>
      </trkpt>
      <trkpt lat="45.3641" lon="5.656">
        <ele>701</ele>
        <time>2023-02-16T09:48:53Z</time>
      </trkpt>
      <trkpt lat="45.36407" lon="5.65599">
        <ele>702</ele>
        <time>2023-02-16T09:48:54Z</time>
      </trkpt>
      <trkpt lat="45.36404" lon="5.65599">
        <ele>702</ele>
        <time>2023-02-16T09:48:55Z</time>
      </trkpt>
      <trkpt lat="45.36401" lon="5.65599">
        <ele>702</ele>
        <time>2023-02-16T09:48:56Z</time>
      </trkpt>
      <trkpt lat="45.36398" lon="5.65597">
        <ele>702</ele>
        <time>2023-02-16T09:48:57Z</time>
      </trkpt>
      <trkpt lat="45.36395" lon="5.65596">
        <ele>703</ele>
        <time>2023-02-16T09:48:58Z</time>
      </trkpt>
      <trkpt lat="45.36392" lon="5.65596">
        <ele>703</ele>
        <time>2023-02-16T09:48:59Z</time>
      </trkpt>
      <trkpt lat="45.36389" lon="5.65595">
        <ele>703</ele>
        <time>2023-02-16T09:49:00Z</time>
      </trkpt>
      <trkpt lat="45.36386" lon="5.65594">
        <ele>703</ele>
        <time>2023-02-16T09:49:01Z</time>
      </trkpt>
      <trkpt lat="45.36383" lon="5.65594">
        <ele>703</ele>
        <time>2023-02-16T09:49:02Z</time>
      </trkpt>
      <trkpt lat="45.3638" lon="5.65594">
        <ele>703</ele>
        <time>2023-02-16T09:49:03Z</time>
      </trkpt>
      <trkpt lat="45.36376" lon="5.65596">
        <ele>703</ele>
        <time>2023-02-16T09:49:04Z</time>
      </trkpt>
      <trkpt lat="45.36373" lon="5.65599">
        <ele>703</ele>
        <time>2023-02-16T09:49:05Z</time>
      </trkpt>
      <trkpt lat="45.3637" lon="5.65602">
        <ele>703</ele>
        <time>2023-02-16T09:49:06Z</time>
      </trkpt>
      <trkpt lat="45.36367" lon="5.65605">
        <ele>703</ele>
        <time>2023-02-16T09:49:07Z</time>
      </trkpt>
      <trkpt lat="45.36365" lon="5.65608">
        <ele>704</ele>
        <time>2023-02-16T09:49:08Z</time>
      </trkpt>
      <trkpt lat="45.36362" lon="5.65612">
        <ele>704</ele>
        <time>2023-02-16T09:49:09Z</time>
      </trkpt>
      <trkpt lat="45.36359" lon="5.65615">
        <ele>704</ele>
        <time>2023-02-16T09:49:10Z</time>
      </trkpt>
      <trkpt lat="45.36356" lon="5.65619">
        <ele>704</ele>
        <time>2023-02-16T09:49:11Z</time>
      </trkpt>
      <trkpt lat="45.36353" lon="5.65622">
        <ele>704</ele>
        <time>2023-02-16T09:49:12Z</time>
      </trkpt>
      <trkpt lat="45.36349" lon="5.65625">
        <ele>704</ele>
        <time>2023-02-16T09:49:13Z</time>
      </trkpt>
      <trkpt lat="45.36345" lon="5.65627">
        <ele>704</ele>
        <time>2023-02-16T09:49:14Z</time>
      </trkpt>
      <trkpt lat="45.36341" lon="5.6563">
        <ele>705</ele>
        <time>2023-02-16T09:49:15Z</time>
      </trkpt>
      <trkpt lat="45.36338" lon="5.65632">
        <ele>705</ele>
        <time>2023-02-16T09:49:16Z</time>
      </trkpt>
      <trkpt lat="45.36334" lon="5.65633">
        <ele>705</ele>
        <time>2023-02-16T09:49:17Z</time>
      </trkpt>
      <trkpt lat="45.36331" lon="5.65634">
        <ele>705</ele>
        <time>2023-02-16T09:49:18Z</time>
      </trkpt>
      <trkpt lat="45.36327" lon="5.65635">
        <ele>705</ele>
        <time>2023-02-16T09:49:19Z</time>
      </trkpt>
      <trkpt lat="45.36323" lon="5.65636">
        <ele>705</ele>
        <time>2023-02-16T09:49:20Z</time>
      </trkpt>
      <trkpt lat="45.36319" lon="5.65636">
        <ele>705</ele>
        <time>2023-02-16T09:49:21Z</time>
      </trkpt>
      <trkpt lat="45.36315" lon="5.65635">
        <ele>705</ele>
        <time>2023-02-16T09:49:22Z</time>
      </trkpt>
      <trkpt lat="45.36311" lon="5.65634">
        <ele>705</ele>
        <time>2023-02-16T09:49:23Z</time>
      </trkpt>
      <trkpt lat="45.36306" lon="5.65633">
        <ele>705</ele>
        <time>2023-02-16T09:49:24Z</time>
      </trkpt>
      <trkpt lat="45.36302" lon="5.65633">
        <ele>705</ele>
        <time>2023-02-16T09:49:25Z</time>
      </trkpt>
      <trkpt lat="45.36297" lon="5.65636">
        <ele>705</ele>
        <time>2023-02-16T09:49:26Z</time>
      </trkpt>
      <trkpt lat="45.36292" lon="5.65637">
        <ele>704</ele>
        <time>2023-02-16T09:49:27Z</time>
      </trkpt>
      <trkpt lat="45.36287" lon="5.65638">
        <ele>704</ele>
        <time>2023-02-16T09:49:28Z</time>
      </trkpt>
      <trkpt lat="45.36282" lon="5.65638">
        <ele>703</ele>
        <time>2023-02-16T09:49:29Z</time>
      </trkpt>
      <trkpt lat="45.36277" lon="5.65637">
        <ele>703</ele>
        <time>2023-02-16T09:49:30Z</time>
      </trkpt>
      <trkpt lat="45.36273" lon="5.65634">
        <ele>703</ele>
        <time>2023-02-16T09:49:31Z</time>
      </trkpt>
      <trkpt lat="45.3627" lon="5.65631">
        <ele>703</ele>
        <time>2023-02-16T09:49:32Z</time>
      </trkpt>
      <trkpt lat="45.36258" lon="5.65631">
        <ele>701</ele>
        <time>2023-02-16T09:49:35Z</time>
      </trkpt>
      <trkpt lat="45.36244" lon="5.65633">
        <ele>701</ele>
        <time>2023-02-16T09:49:37Z</time>
      </trkpt>
      <trkpt lat="45.36231" lon="5.65634">
        <ele>700</ele>
        <time>2023-02-16T09:49:39Z</time>
      </trkpt>
      <trkpt lat="45.36218" lon="5.65634">
        <ele>700</ele>
        <time>2023-02-16T09:49:41Z</time>
      </trkpt>
      <trkpt lat="45.36209" lon="5.65634">
        <ele>700</ele>
        <time>2023-02-16T09:49:43Z</time>
      </trkpt>
      <trkpt lat="45.36198" lon="5.65633">
        <ele>700</ele>
        <time>2023-02-16T09:49:45Z</time>
      </trkpt>
      <trkpt lat="45.36194" lon="5.65632">
        <ele>701</ele>
        <time>2023-02-16T09:49:46Z</time>
      </trkpt>
      <trkpt lat="45.3619" lon="5.65631">
        <ele>701</ele>
        <time>2023-02-16T09:49:47Z</time>
      </trkpt>
      <trkpt lat="45.36186" lon="5.6563">
        <ele>702</ele>
        <time>2023-02-16T09:49:48Z</time>
      </trkpt>
      <trkpt lat="45.36182" lon="5.65629">
        <ele>702</ele>
        <time>2023-02-16T09:49:49Z</time>
      </trkpt>
      <trkpt lat="45.36178" lon="5.65627">
        <ele>702</ele>
        <time>2023-02-16T09:49:50Z</time>
      </trkpt>
      <trkpt lat="45.36174" lon="5.65625">
        <ele>702</ele>
        <time>2023-02-16T09:49:51Z</time>
      </trkpt>
      <trkpt lat="45.3617" lon="5.65624">
        <ele>702</ele>
        <time>2023-02-16T09:49:52Z</time>
      </trkpt>
      <trkpt lat="45.36165" lon="5.65622">
        <ele>702</ele>
        <time>2023-02-16T09:49:53Z</time>
      </trkpt>
      <trkpt lat="45.36161" lon="5.65621">
        <ele>702</ele>
        <time>2023-02-16T09:49:54Z</time>
      </trkpt>
      <trkpt lat="45.36156" lon="5.65621">
        <ele>702</ele>
        <time>2023-02-16T09:49:55Z</time>
      </trkpt>
      <trkpt lat="45.36152" lon="5.6562">
        <ele>702</ele>
        <time>2023-02-16T09:49:56Z</time>
      </trkpt>
      <trkpt lat="45.36148" lon="5.65621">
        <ele>702</ele>
        <time>2023-02-16T09:49:57Z</time>
      </trkpt>
      <trkpt lat="45.36144" lon="5.65621">
        <ele>703</ele>
        <time>2023-02-16T09:49:58Z</time>
      </trkpt>
      <trkpt lat="45.3614" lon="5.65621">
        <ele>703</ele>
        <time>2023-02-16T09:49:59Z</time>
      </trkpt>
      <trkpt lat="45.36136" lon="5.65622">
        <ele>703</ele>
        <time>2023-02-16T09:50:00Z</time>
      </trkpt>
      <trkpt lat="45.36133" lon="5.65622">
        <ele>703</ele>
        <time>2023-02-16T09:50:01Z</time>
      </trkpt>
      <trkpt lat="45.3613" lon="5.65622">
        <ele>703</ele>
        <time>2023-02-16T09:50:02Z</time>
      </trkpt>
      <trkpt lat="45.36127" lon="5.65622">
        <ele>703</ele>
        <time>2023-02-16T09:50:03Z</time>
      </trkpt>
      <trkpt lat="45.36125" lon="5.65623">
        <ele>703</ele>
        <time>2023-02-16T09:50:04Z</time>
      </trkpt>
      <trkpt lat="45.36123" lon="5.65624">
        <ele>704</ele>
        <time>2023-02-16T09:50:05Z</time>
      </trkpt>
      <trkpt lat="45.36119" lon="5.65625">
        <ele>704</ele>
        <time>2023-02-16T09:50:06Z</time>
      </trkpt>
      <trkpt lat="45.36116" lon="5.65626">
        <ele>704</ele>
        <time>2023-02-16T09:50:07Z</time>
      </trkpt>
      <trkpt lat="45.36113" lon="5.65626">
        <ele>704</ele>
        <time>2023-02-16T09:50:08Z</time>
      </trkpt>
      <trkpt lat="45.3611" lon="5.65626">
        <ele>705</ele>
        <time>2023-02-16T09:50:09Z</time>
      </trkpt>
      <trkpt lat="45.36107" lon="5.65626">
        <ele>705</ele>
        <time>2023-02-16T09:50:10Z</time>
      </trkpt>
      <trkpt lat="45.36105" lon="5.65627">
        <ele>705</ele>
        <time>2023-02-16T09:50:11Z</time>
      </trkpt>
      <trkpt lat="45.36103" lon="5.65628">
        <ele>706</ele>
        <time>2023-02-16T09:50:13Z</time>
      </trkpt>
      <trkpt lat="45.36103" lon="5.65628">
        <ele>706</ele>
        <time>2023-02-16T09:50:17Z</time>
      </trkpt>
      <trkpt lat="45.36097" lon="5.6563">
        <ele>706</ele>
        <time>2023-02-16T09:50:30Z</time>
      </trkpt>
      <trkpt lat="45.36094" lon="5.65628">
        <ele>706</ele>
        <time>2023-02-16T09:50:32Z</time>
      </trkpt>
      <trkpt lat="45.36092" lon="5.65628">
        <ele>706</ele>
        <time>2023-02-16T09:50:33Z</time>
      </trkpt>
      <trkpt lat="45.3609" lon="5.65627">
        <ele>707</ele>
        <time>2023-02-16T09:50:34Z</time>
      </trkpt>
      <trkpt lat="45.36088" lon="5.65626">
        <ele>707</ele>
        <time>2023-02-16T09:50:35Z</time>
      </trkpt>
      <trkpt lat="45.36086" lon="5.65625">
        <ele>707</ele>
        <time>2023-02-16T09:50:36Z</time>
      </trkpt>
      <trkpt lat="45.36084" lon="5.65625">
        <ele>707</ele>
        <time>2023-02-16T09:50:37Z</time>
      </trkpt>
      <trkpt lat="45.36082" lon="5.65624">
        <ele>707</ele>
        <time>2023-02-16T09:50:38Z</time>
      </trkpt>
      <trkpt lat="45.3608" lon="5.65624">
        <ele>707</ele>
        <time>2023-02-16T09:50:39Z</time>
      </trkpt>
      <trkpt lat="45.36078" lon="5.65623">
        <ele>709</ele>
        <time>2023-02-16T09:50:40Z</time>
      </trkpt>
      <trkpt lat="45.36076" lon="5.65622">
        <ele>709</ele>
        <time>2023-02-16T09:50:41Z</time>
      </trkpt>
      <trkpt lat="45.36074" lon="5.65621">
        <ele>709</ele>
        <time>2023-02-16T09:50:42Z</time>
      </trkpt>
      <trkpt lat="45.36072" lon="5.65621">
        <ele>709</ele>
        <time>2023-02-16T09:50:43Z</time>
      </trkpt>
      <trkpt lat="45.3607" lon="5.6562">
        <ele>709</ele>
        <time>2023-02-16T09:50:44Z</time>
      </trkpt>
      <trkpt lat="45.36067" lon="5.6562">
        <ele>709</ele>
        <time>2023-02-16T09:50:45Z</time>
      </trkpt>
      <trkpt lat="45.36064" lon="5.65619">
        <ele>710</ele>
        <time>2023-02-16T09:50:46Z</time>
      </trkpt>
      <trkpt lat="45.36061" lon="5.65618">
        <ele>710</ele>
        <time>2023-02-16T09:50:47Z</time>
      </trkpt>
      <trkpt lat="45.36058" lon="5.65617">
        <ele>710</ele>
        <time>2023-02-16T09:50:48Z</time>
      </trkpt>
      <trkpt lat="45.36056" lon="5.65617">
        <ele>710</ele>
        <time>2023-02-16T09:50:49Z</time>
      </trkpt>
      <trkpt lat="45.36053" lon="5.65616">
        <ele>711</ele>
        <time>2023-02-16T09:50:50Z</time>
      </trkpt>
      <trkpt lat="45.36051" lon="5.65614">
        <ele>711</ele>
        <time>2023-02-16T09:50:51Z</time>
      </trkpt>
      <trkpt lat="45.36048" lon="5.65612">
        <ele>711</ele>
        <time>2023-02-16T09:50:52Z</time>
      </trkpt>
      <trkpt lat="45.36045" lon="5.6561">
        <ele>711</ele>
        <time>2023-02-16T09:50:53Z</time>
      </trkpt>
      <trkpt lat="45.36042" lon="5.65609">
        <ele>712</ele>
        <time>2023-02-16T09:50:54Z</time>
      </trkpt>
      <trkpt lat="45.36039" lon="5.65608">
        <ele>712</ele>
        <time>2023-02-16T09:50:55Z</time>
      </trkpt>
      <trkpt lat="45.36037" lon="5.65608">
        <ele>712</ele>
        <time>2023-02-16T09:50:56Z</time>
      </trkpt>
      <trkpt lat="45.36034" lon="5.65609">
        <ele>712</ele>
        <time>2023-02-16T09:50:57Z</time>
      </trkpt>
      <trkpt lat="45.36032" lon="5.65609">
        <ele>712</ele>
        <time>2023-02-16T09:50:58Z</time>
      </trkpt>
      <trkpt lat="45.36029" lon="5.6561">
        <ele>712</ele>
        <time>2023-02-16T09:50:59Z</time>
      </trkpt>
      <trkpt lat="45.36026" lon="5.65611">
        <ele>712</ele>
        <time>2023-02-16T09:51:00Z</time>
      </trkpt>
      <trkpt lat="45.36023" lon="5.65611">
        <ele>712</ele>
        <time>2023-02-16T09:51:01Z</time>
      </trkpt>
      <trkpt lat="45.36019" lon="5.65611">
        <ele>712</ele>
        <time>2023-02-16T09:51:02Z</time>
      </trkpt>
      <trkpt lat="45.36015" lon="5.6561">
        <ele>712</ele>
        <time>2023-02-16T09:51:03Z</time>
      </trkpt>
      <trkpt lat="45.36011" lon="5.65609">
        <ele>712</ele>
        <time>2023-02-16T09:51:04Z</time>
      </trkpt>
      <trkpt lat="45.36006" lon="5.65608">
        <ele>712</ele>
        <time>2023-02-16T09:51:05Z</time>
      </trkpt>
      <trkpt lat="45.36001" lon="5.65608">
        <ele>711</ele>
        <time>2023-02-16T09:51:06Z</time>
      </trkpt>
      <trkpt lat="45.35995" lon="5.65607">
        <ele>711</ele>
        <time>2023-02-16T09:51:07Z</time>
      </trkpt>
      <trkpt lat="45.35988" lon="5.65603">
        <ele>711</ele>
        <time>2023-02-16T09:51:08Z</time>
      </trkpt>
      <trkpt lat="45.35983" lon="5.656">
        <ele>711</ele>
        <time>2023-02-16T09:51:09Z</time>
      </trkpt>
      <trkpt lat="45.35978" lon="5.65597">
        <ele>711</ele>
        <time>2023-02-16T09:51:10Z</time>
      </trkpt>
      <trkpt lat="45.35973" lon="5.65595">
        <ele>711</ele>
        <time>2023-02-16T09:51:11Z</time>
      </trkpt>
      <trkpt lat="45.35968" lon="5.65593">
        <ele>711</ele>
        <time>2023-02-16T09:51:12Z</time>
      </trkpt>
      <trkpt lat="45.35963" lon="5.65591">
        <ele>711</ele>
        <time>2023-02-16T09:51:13Z</time>
      </trkpt>
      <trkpt lat="45.35958" lon="5.65587">
        <ele>711</ele>
        <time>2023-02-16T09:51:14Z</time>
      </trkpt>
      <trkpt lat="45.35953" lon="5.65583">
        <ele>710</ele>
        <time>2023-02-16T09:51:15Z</time>
      </trkpt>
      <trkpt lat="45.35948" lon="5.65578">
        <ele>710</ele>
        <time>2023-02-16T09:51:16Z</time>
      </trkpt>
      <trkpt lat="45.35945" lon="5.65572">
        <ele>710</ele>
        <time>2023-02-16T09:51:17Z</time>
      </trkpt>
      <trkpt lat="45.35941" lon="5.65565">
        <ele>710</ele>
        <time>2023-02-16T09:51:18Z</time>
      </trkpt>
      <trkpt lat="45.35937" lon="5.6556">
        <ele>710</ele>
        <time>2023-02-16T09:51:19Z</time>
      </trkpt>
      <trkpt lat="45.35933" lon="5.65557">
        <ele>709</ele>
        <time>2023-02-16T09:51:20Z</time>
      </trkpt>
      <trkpt lat="45.35929" lon="5.65555">
        <ele>709</ele>
        <time>2023-02-16T09:51:21Z</time>
      </trkpt>
      <trkpt lat="45.35924" lon="5.65552">
        <ele>709</ele>
        <time>2023-02-16T09:51:22Z</time>
      </trkpt>
      <trkpt lat="45.3592" lon="5.65549">
        <ele>709</ele>
        <time>2023-02-16T09:51:23Z</time>
      </trkpt>
      <trkpt lat="45.35915" lon="5.65546">
        <ele>710</ele>
        <time>2023-02-16T09:51:24Z</time>
      </trkpt>
      <trkpt lat="45.35911" lon="5.65543">
        <ele>710</ele>
        <time>2023-02-16T09:51:25Z</time>
      </trkpt>
      <trkpt lat="45.35907" lon="5.65541">
        <ele>710</ele>
        <time>2023-02-16T09:51:26Z</time>
      </trkpt>
      <trkpt lat="45.35903" lon="5.65538">
        <ele>710</ele>
        <time>2023-02-16T09:51:27Z</time>
      </trkpt>
      <trkpt lat="45.35898" lon="5.65535">
        <ele>710</ele>
        <time>2023-02-16T09:51:28Z</time>
      </trkpt>
      <trkpt lat="45.35894" lon="5.65532">
        <ele>710</ele>
        <time>2023-02-16T09:51:29Z</time>
      </trkpt>
      <trkpt lat="45.35891" lon="5.65529">
        <ele>710</ele>
        <time>2023-02-16T09:51:30Z</time>
      </trkpt>
      <trkpt lat="45.35888" lon="5.65524">
        <ele>710</ele>
        <time>2023-02-16T09:51:31Z</time>
      </trkpt>
      <trkpt lat="45.35884" lon="5.65518">
        <ele>710</ele>
        <time>2023-02-16T09:51:32Z</time>
      </trkpt>
      <trkpt lat="45.35882" lon="5.65509">
        <ele>710</ele>
        <time>2023-02-16T09:51:33Z</time>
      </trkpt>
      <trkpt lat="45.35879" lon="5.655">
        <ele>710</ele>
        <time>2023-02-16T09:51:34Z</time>
      </trkpt>
      <trkpt lat="45.35878" lon="5.6549">
        <ele>710</ele>
        <time>2023-02-16T09:51:35Z</time>
      </trkpt>
      <trkpt lat="45.35878" lon="5.65479">
        <ele>710</ele>
        <time>2023-02-16T09:51:36Z</time>
      </trkpt>
      <trkpt lat="45.35877" lon="5.65469">
        <ele>709</ele>
        <time>2023-02-16T09:51:37Z</time>
      </trkpt>
      <trkpt lat="45.35876" lon="5.65461">
        <ele>708</ele>
        <time>2023-02-16T09:51:38Z</time>
      </trkpt>
      <trkpt lat="45.35876" lon="5.65455">
        <ele>708</ele>
        <time>2023-02-16T09:51:39Z</time>
      </trkpt>
      <trkpt lat="45.35875" lon="5.65451">
        <ele>708</ele>
        <time>2023-02-16T09:51:40Z</time>
      </trkpt>
      <trkpt lat="45.35875" lon="5.65447">
        <ele>708</ele>
        <time>2023-02-16T09:51:41Z</time>
      </trkpt>
      <trkpt lat="45.35873" lon="5.65444">
        <ele>708</ele>
        <time>2023-02-16T09:51:42Z</time>
      </trkpt>
      <trkpt lat="45.3587" lon="5.6544">
        <ele>707</ele>
        <time>2023-02-16T09:51:43Z</time>
      </trkpt>
      <trkpt lat="45.35865" lon="5.65436">
        <ele>707</ele>
        <time>2023-02-16T09:51:44Z</time>
      </trkpt>
      <trkpt lat="45.3586" lon="5.65431">
        <ele>706</ele>
        <time>2023-02-16T09:51:45Z</time>
      </trkpt>
      <trkpt lat="45.35855" lon="5.65425">
        <ele>706</ele>
        <time>2023-02-16T09:51:46Z</time>
      </trkpt>
      <trkpt lat="45.35849" lon="5.65418">
        <ele>706</ele>
        <time>2023-02-16T09:51:47Z</time>
      </trkpt>
      <trkpt lat="45.35842" lon="5.65411">
        <ele>706</ele>
        <time>2023-02-16T09:51:48Z</time>
      </trkpt>
      <trkpt lat="45.35836" lon="5.65403">
        <ele>706</ele>
        <time>2023-02-16T09:51:49Z</time>
      </trkpt>
      <trkpt lat="45.3583" lon="5.65395">
        <ele>705</ele>
        <time>2023-02-16T09:51:50Z</time>
      </trkpt>
      <trkpt lat="45.35825" lon="5.65386">
        <ele>705</ele>
        <time>2023-02-16T09:51:51Z</time>
      </trkpt>
      <trkpt lat="45.3582" lon="5.65377">
        <ele>703</ele>
        <time>2023-02-16T09:51:52Z</time>
      </trkpt>
      <trkpt lat="45.35815" lon="5.65368">
        <ele>703</ele>
        <time>2023-02-16T09:51:53Z</time>
      </trkpt>
      <trkpt lat="45.3581" lon="5.65359">
        <ele>703</ele>
        <time>2023-02-16T09:51:54Z</time>
      </trkpt>
      <trkpt lat="45.35805" lon="5.65351">
        <ele>702</ele>
        <time>2023-02-16T09:51:55Z</time>
      </trkpt>
      <trkpt lat="45.35799" lon="5.65343">
        <ele>701</ele>
        <time>2023-02-16T09:51:56Z</time>
      </trkpt>
      <trkpt lat="45.35794" lon="5.65336">
        <ele>701</ele>
        <time>2023-02-16T09:51:57Z</time>
      </trkpt>
      <trkpt lat="45.35788" lon="5.65329">
        <ele>701</ele>
        <time>2023-02-16T09:51:58Z</time>
      </trkpt>
      <trkpt lat="45.35782" lon="5.65322">
        <ele>701</ele>
        <time>2023-02-16T09:51:59Z</time>
      </trkpt>
      <trkpt lat="45.35777" lon="5.65314">
        <ele>700</ele>
        <time>2023-02-16T09:52:00Z</time>
      </trkpt>
      <trkpt lat="45.35771" lon="5.65306">
        <ele>700</ele>
        <time>2023-02-16T09:52:01Z</time>
      </trkpt>
      <trkpt lat="45.35766" lon="5.65298">
        <ele>700</ele>
        <time>2023-02-16T09:52:02Z</time>
      </trkpt>
      <trkpt lat="45.3576" lon="5.65291">
        <ele>700</ele>
        <time>2023-02-16T09:52:03Z</time>
      </trkpt>
      <trkpt lat="45.35755" lon="5.65284">
        <ele>700</ele>
        <time>2023-02-16T09:52:04Z</time>
      </trkpt>
      <trkpt lat="45.3575" lon="5.65277">
        <ele>700</ele>
        <time>2023-02-16T09:52:05Z</time>
      </trkpt>
      <trkpt lat="45.35745" lon="5.65269">
        <ele>700</ele>
        <time>2023-02-16T09:52:06Z</time>
      </trkpt>
      <trkpt lat="45.3574" lon="5.65261">
        <ele>700</ele>
        <time>2023-02-16T09:52:07Z</time>
      </trkpt>
      <trkpt lat="45.35736" lon="5.65253">
        <ele>700</ele>
        <time>2023-02-16T09:52:08Z</time>
      </trkpt>
      <trkpt lat="45.35731" lon="5.65245">
        <ele>700</ele>
        <time>2023-02-16T09:52:09Z</time>
      </trkpt>
      <trkpt lat="45.35727" lon="5.65236">
        <ele>700</ele>
        <time>2023-02-16T09:52:10Z</time>
      </trkpt>
      <trkpt lat="45.35723" lon="5.65228">
        <ele>700</ele>
        <time>2023-02-16T09:52:11Z</time>
      </trkpt>
      <trkpt lat="45.3572" lon="5.65219">
        <ele>700</ele>
        <time>2023-02-16T09:52:12Z</time>
      </trkpt>
      <trkpt lat="45.35716" lon="5.6521">
        <ele>700</ele>
        <time>2023-02-16T09:52:13Z</time>
      </trkpt>
      <trkpt lat="45.35713" lon="5.65201">
        <ele>700</ele>
        <time>2023-02-16T09:52:14Z</time>
      </trkpt>
      <trkpt lat="45.35709" lon="5.65193">
        <ele>700</ele>
        <time>2023-02-16T09:52:15Z</time>
      </trkpt>
      <trkpt lat="45.35706" lon="5.65184">
        <ele>700</ele>
        <time>2023-02-16T09:52:16Z</time>
      </trkpt>
      <trkpt lat="45.35702" lon="5.65176">
        <ele>700</ele>
        <time>2023-02-16T09:52:17Z</time>
      </trkpt>
      <trkpt lat="45.35699" lon="5.65169">
        <ele>700</ele>
        <time>2023-02-16T09:52:18Z</time>
      </trkpt>
      <trkpt lat="45.35696" lon="5.65161">
        <ele>700</ele>
        <time>2023-02-16T09:52:19Z</time>
      </trkpt>
      <trkpt lat="45.35692" lon="5.65154">
        <ele>700</ele>
        <time>2023-02-16T09:52:20Z</time>
      </trkpt>
      <trkpt lat="45.35688" lon="5.65147">
        <ele>700</ele>
        <time>2023-02-16T09:52:21Z</time>
      </trkpt>
      <trkpt lat="45.35684" lon="5.6514">
        <ele>700</ele>
        <time>2023-02-16T09:52:22Z</time>
      </trkpt>
      <trkpt lat="45.3568" lon="5.65133">
        <ele>701</ele>
        <time>2023-02-16T09:52:23Z</time>
      </trkpt>
      <trkpt lat="45.35675" lon="5.65127">
        <ele>701</ele>
        <time>2023-02-16T09:52:24Z</time>
      </trkpt>
      <trkpt lat="45.3567" lon="5.65121">
        <ele>701</ele>
        <time>2023-02-16T09:52:25Z</time>
      </trkpt>
      <trkpt lat="45.35666" lon="5.65115">
        <ele>701</ele>
        <time>2023-02-16T09:52:26Z</time>
      </trkpt>
      <trkpt lat="45.35661" lon="5.6511">
        <ele>701</ele>
        <time>2023-02-16T09:52:27Z</time>
      </trkpt>
      <trkpt lat="45.35656" lon="5.65106">
        <ele>701</ele>
        <time>2023-02-16T09:52:28Z</time>
      </trkpt>
      <trkpt lat="45.3565" lon="5.65103">
        <ele>701</ele>
        <time>2023-02-16T09:52:29Z</time>
      </trkpt>
      <trkpt lat="45.35645" lon="5.65103">
        <ele>700</ele>
        <time>2023-02-16T09:52:30Z</time>
      </trkpt>
      <trkpt lat="45.35641" lon="5.65105">
        <ele>700</ele>
        <time>2023-02-16T09:52:31Z</time>
      </trkpt>
      <trkpt lat="45.35639" lon="5.6511">
        <ele>700</ele>
        <time>2023-02-16T09:52:32Z</time>
      </trkpt>
      <trkpt lat="45.35638" lon="5.65116">
        <ele>700</ele>
        <time>2023-02-16T09:52:33Z</time>
      </trkpt>
      <trkpt lat="45.35639" lon="5.65122">
        <ele>701</ele>
        <time>2023-02-16T09:52:34Z</time>
      </trkpt>
      <trkpt lat="45.35641" lon="5.65129">
        <ele>701</ele>
        <time>2023-02-16T09:52:35Z</time>
      </trkpt>
      <trkpt lat="45.35642" lon="5.65135">
        <ele>701</ele>
        <time>2023-02-16T09:52:36Z</time>
      </trkpt>
      <trkpt lat="45.35644" lon="5.65141">
        <ele>701</ele>
        <time>2023-02-16T09:52:37Z</time>
      </trkpt>
      <trkpt lat="45.35646" lon="5.65148">
        <ele>701</ele>
        <time>2023-02-16T09:52:38Z</time>
      </trkpt>
      <trkpt lat="45.35648" lon="5.65154">
        <ele>701</ele>
        <time>2023-02-16T09:52:39Z</time>
      </trkpt>
      <trkpt lat="45.35649" lon="5.6516">
        <ele>701</ele>
        <time>2023-02-16T09:52:40Z</time>
      </trkpt>
      <trkpt lat="45.35651" lon="5.65166">
        <ele>701</ele>
        <time>2023-02-16T09:52:41Z</time>
      </trkpt>
      <trkpt lat="45.35652" lon="5.6517">
        <ele>701</ele>
        <time>2023-02-16T09:52:42Z</time>
      </trkpt>
      <trkpt lat="45.35651" lon="5.65173">
        <ele>701</ele>
        <time>2023-02-16T09:52:43Z</time>
      </trkpt>
      <trkpt lat="45.35648" lon="5.65171">
        <ele>701</ele>
        <time>2023-02-16T09:52:45Z</time>
      </trkpt>
      <trkpt lat="45.35648" lon="5.65168">
        <ele>701</ele>
        <time>2023-02-16T09:52:46Z</time>
      </trkpt>
      <trkpt lat="45.35647" lon="5.65165">
        <ele>701</ele>
        <time>2023-02-16T09:52:47Z</time>
      </trkpt>
      <trkpt lat="45.35647" lon="5.6516">
        <ele>701</ele>
        <time>2023-02-16T09:52:48Z</time>
      </trkpt>
      <trkpt lat="45.35646" lon="5.65155">
        <ele>701</ele>
        <time>2023-02-16T09:52:49Z</time>
      </trkpt>
      <trkpt lat="45.35645" lon="5.6515">
        <ele>701</ele>
        <time>2023-02-16T09:52:50Z</time>
      </trkpt>
      <trkpt lat="45.35644" lon="5.65145">
        <ele>701</ele>
        <time>2023-02-16T09:52:51Z</time>
      </trkpt>
      <trkpt lat="45.35643" lon="5.65139">
        <ele>701</ele>
        <time>2023-02-16T09:52:52Z</time>
      </trkpt>
      <trkpt lat="45.35642" lon="5.65133">
        <ele>701</ele>
        <time>2023-02-16T09:52:53Z</time>
      </trkpt>
      <trkpt lat="45.35641" lon="5.65126">
        <ele>701</ele>
        <time>2023-02-16T09:52:54Z</time>
      </trkpt>
      <trkpt lat="45.3564" lon="5.6512">
        <ele>701</ele>
        <time>2023-02-16T09:52:55Z</time>
      </trkpt>
      <trkpt lat="45.35639" lon="5.65114">
        <ele>701</ele>
        <time>2023-02-16T09:52:56Z</time>
      </trkpt>
      <trkpt lat="45.35638" lon="5.65108">
        <ele>701</ele>
        <time>2023-02-16T09:52:57Z</time>
      </trkpt>
      <trkpt lat="45.35638" lon="5.65102">
        <ele>702</ele>
        <time>2023-02-16T09:52:58Z</time>
      </trkpt>
      <trkpt lat="45.35638" lon="5.65096">
        <ele>702</ele>
        <time>2023-02-16T09:52:59Z</time>
      </trkpt>
      <trkpt lat="45.35637" lon="5.6509">
        <ele>702</ele>
        <time>2023-02-16T09:53:00Z</time>
      </trkpt>
      <trkpt lat="45.35638" lon="5.65083">
        <ele>702</ele>
        <time>2023-02-16T09:53:01Z</time>
      </trkpt>
      <trkpt lat="45.35638" lon="5.65077">
        <ele>701</ele>
        <time>2023-02-16T09:53:02Z</time>
      </trkpt>
      <trkpt lat="45.35639" lon="5.6507">
        <ele>701</ele>
        <time>2023-02-16T09:53:03Z</time>
      </trkpt>
      <trkpt lat="45.3564" lon="5.65063">
        <ele>701</ele>
        <time>2023-02-16T09:53:04Z</time>
      </trkpt>
      <trkpt lat="45.3564" lon="5.65056">
        <ele>701</ele>
        <time>2023-02-16T09:53:05Z</time>
      </trkpt>
      <trkpt lat="45.35641" lon="5.65049">
        <ele>701</ele>
        <time>2023-02-16T09:53:06Z</time>
      </trkpt>
      <trkpt lat="45.35642" lon="5.65041">
        <ele>701</ele>
        <time>2023-02-16T09:53:07Z</time>
      </trkpt>
      <trkpt lat="45.35643" lon="5.65034">
        <ele>700</ele>
        <time>2023-02-16T09:53:08Z</time>
      </trkpt>
      <trkpt lat="45.35644" lon="5.65026">
        <ele>700</ele>
        <time>2023-02-16T09:53:09Z</time>
      </trkpt>
      <trkpt lat="45.35646" lon="5.65018">
        <ele>700</ele>
        <time>2023-02-16T09:53:10Z</time>
      </trkpt>
      <trkpt lat="45.35647" lon="5.6501">
        <ele>700</ele>
        <time>2023-02-16T09:53:11Z</time>
      </trkpt>
      <trkpt lat="45.35649" lon="5.65002">
        <ele>700</ele>
        <time>2023-02-16T09:53:12Z</time>
      </trkpt>
      <trkpt lat="45.3565" lon="5.64993">
        <ele>700</ele>
        <time>2023-02-16T09:53:13Z</time>
      </trkpt>
      <trkpt lat="45.35652" lon="5.64985">
        <ele>700</ele>
        <time>2023-02-16T09:53:14Z</time>
      </trkpt>
      <trkpt lat="45.35654" lon="5.64976">
        <ele>699</ele>
        <time>2023-02-16T09:53:15Z</time>
      </trkpt>
      <trkpt lat="45.35656" lon="5.64966">
        <ele>699</ele>
        <time>2023-02-16T09:53:16Z</time>
      </trkpt>
      <trkpt lat="45.35658" lon="5.64956">
        <ele>699</ele>
        <time>2023-02-16T09:53:17Z</time>
      </trkpt>
      <trkpt lat="45.35659" lon="5.64946">
        <ele>699</ele>
        <time>2023-02-16T09:53:18Z</time>
      </trkpt>
      <trkpt lat="45.35659" lon="5.64935">
        <ele>699</ele>
        <time>2023-02-16T09:53:19Z</time>
      </trkpt>
      <trkpt lat="45.35659" lon="5.64924">
        <ele>699</ele>
        <time>2023-02-16T09:53:20Z</time>
      </trkpt>
      <trkpt lat="45.35657" lon="5.64914">
        <ele>697</ele>
        <time>2023-02-16T09:53:21Z</time>
      </trkpt>
      <trkpt lat="45.35655" lon="5.64903">
        <ele>697</ele>
        <time>2023-02-16T09:53:22Z</time>
      </trkpt>
      <trkpt lat="45.35652" lon="5.64892">
        <ele>697</ele>
        <time>2023-02-16T09:53:23Z</time>
      </trkpt>
      <trkpt lat="45.35649" lon="5.64882">
        <ele>695</ele>
        <time>2023-02-16T09:53:24Z</time>
      </trkpt>
      <trkpt lat="45.35646" lon="5.64871">
        <ele>694</ele>
        <time>2023-02-16T09:53:25Z</time>
      </trkpt>
      <trkpt lat="45.35642" lon="5.6486">
        <ele>694</ele>
        <time>2023-02-16T09:53:26Z</time>
      </trkpt>
      <trkpt lat="45.35639" lon="5.64849">
        <ele>694</ele>
        <time>2023-02-16T09:53:27Z</time>
      </trkpt>
      <trkpt lat="45.35635" lon="5.64838">
        <ele>693</ele>
        <time>2023-02-16T09:53:28Z</time>
      </trkpt>
      <trkpt lat="45.35631" lon="5.64827">
        <ele>693</ele>
        <time>2023-02-16T09:53:29Z</time>
      </trkpt>
      <trkpt lat="45.35628" lon="5.64815">
        <ele>693</ele>
        <time>2023-02-16T09:53:30Z</time>
      </trkpt>
      <trkpt lat="45.35625" lon="5.64803">
        <ele>692</ele>
        <time>2023-02-16T09:53:31Z</time>
      </trkpt>
      <trkpt lat="45.35623" lon="5.64792">
        <ele>692</ele>
        <time>2023-02-16T09:53:32Z</time>
      </trkpt>
      <trkpt lat="45.35621" lon="5.64779">
        <ele>692</ele>
        <time>2023-02-16T09:53:33Z</time>
      </trkpt>
      <trkpt lat="45.3562" lon="5.64767">
        <ele>691</ele>
        <time>2023-02-16T09:53:34Z</time>
      </trkpt>
      <trkpt lat="45.35621" lon="5.64754">
        <ele>691</ele>
        <time>2023-02-16T09:53:35Z</time>
      </trkpt>
      <trkpt lat="45.35622" lon="5.6474">
        <ele>691</ele>
        <time>2023-02-16T09:53:36Z</time>
      </trkpt>
      <trkpt lat="45.35623" lon="5.64726">
        <ele>690</ele>
        <time>2023-02-16T09:53:37Z</time>
      </trkpt>
      <trkpt lat="45.35624" lon="5.64713">
        <ele>690</ele>
        <time>2023-02-16T09:53:38Z</time>
      </trkpt>
      <trkpt lat="45.35625" lon="5.64699">
        <ele>688</ele>
        <time>2023-02-16T09:53:39Z</time>
      </trkpt>
      <trkpt lat="45.35625" lon="5.64686">
        <ele>688</ele>
        <time>2023-02-16T09:53:40Z</time>
      </trkpt>
      <trkpt lat="45.35626" lon="5.64673">
        <ele>687</ele>
        <time>2023-02-16T09:53:41Z</time>
      </trkpt>
      <trkpt lat="45.35627" lon="5.64659">
        <ele>687</ele>
        <time>2023-02-16T09:53:42Z</time>
      </trkpt>
      <trkpt lat="45.35626" lon="5.64646">
        <ele>687</ele>
        <time>2023-02-16T09:53:43Z</time>
      </trkpt>
      <trkpt lat="45.35624" lon="5.64635">
        <ele>686</ele>
        <time>2023-02-16T09:53:44Z</time>
      </trkpt>
      <trkpt lat="45.3562" lon="5.64625">
        <ele>686</ele>
        <time>2023-02-16T09:53:45Z</time>
      </trkpt>
      <trkpt lat="45.35616" lon="5.64614">
        <ele>683</ele>
        <time>2023-02-16T09:53:46Z</time>
      </trkpt>
      <trkpt lat="45.35612" lon="5.64602">
        <ele>683</ele>
        <time>2023-02-16T09:53:47Z</time>
      </trkpt>
      <trkpt lat="45.3561" lon="5.64588">
        <ele>683</ele>
        <time>2023-02-16T09:53:48Z</time>
      </trkpt>
      <trkpt lat="45.35608" lon="5.64573">
        <ele>683</ele>
        <time>2023-02-16T09:53:49Z</time>
      </trkpt>
      <trkpt lat="45.35606" lon="5.6456">
        <ele>683</ele>
        <time>2023-02-16T09:53:50Z</time>
      </trkpt>
      <trkpt lat="45.35604" lon="5.64546">
        <ele>683</ele>
        <time>2023-02-16T09:53:51Z</time>
      </trkpt>
      <trkpt lat="45.35601" lon="5.64534">
        <ele>683</ele>
        <time>2023-02-16T09:53:52Z</time>
      </trkpt>
      <trkpt lat="45.35599" lon="5.64521">
        <ele>683</ele>
        <time>2023-02-16T09:53:53Z</time>
      </trkpt>
      <trkpt lat="45.35596" lon="5.64508">
        <ele>683</ele>
        <time>2023-02-16T09:53:54Z</time>
      </trkpt>
      <trkpt lat="45.35593" lon="5.64496">
        <ele>683</ele>
        <time>2023-02-16T09:53:55Z</time>
      </trkpt>
      <trkpt lat="45.35589" lon="5.64485">
        <ele>683</ele>
        <time>2023-02-16T09:53:56Z</time>
      </trkpt>
      <trkpt lat="45.35583" lon="5.64475">
        <ele>683</ele>
        <time>2023-02-16T09:53:57Z</time>
      </trkpt>
      <trkpt lat="45.35576" lon="5.64466">
        <ele>682</ele>
        <time>2023-02-16T09:53:58Z</time>
      </trkpt>
      <trkpt lat="45.35569" lon="5.6446">
        <ele>682</ele>
        <time>2023-02-16T09:53:59Z</time>
      </trkpt>
      <trkpt lat="45.35561" lon="5.64455">
        <ele>682</ele>
        <time>2023-02-16T09:54:00Z</time>
      </trkpt>
      <trkpt lat="45.35553" lon="5.6445">
        <ele>682</ele>
        <time>2023-02-16T09:54:01Z</time>
      </trkpt>
      <trkpt lat="45.35545" lon="5.64446">
        <ele>682</ele>
        <time>2023-02-16T09:54:02Z</time>
      </trkpt>
      <trkpt lat="45.35537" lon="5.64443">
        <ele>681</ele>
        <time>2023-02-16T09:54:03Z</time>
      </trkpt>
      <trkpt lat="45.35529" lon="5.64439">
        <ele>681</ele>
        <time>2023-02-16T09:54:04Z</time>
      </trkpt>
      <trkpt lat="45.35521" lon="5.64436">
        <ele>681</ele>
        <time>2023-02-16T09:54:05Z</time>
      </trkpt>
      <trkpt lat="45.35513" lon="5.64433">
        <ele>681</ele>
        <time>2023-02-16T09:54:06Z</time>
      </trkpt>
      <trkpt lat="45.35506" lon="5.6443">
        <ele>681</ele>
        <time>2023-02-16T09:54:07Z</time>
      </trkpt>
      <trkpt lat="45.35498" lon="5.64427">
        <ele>681</ele>
        <time>2023-02-16T09:54:08Z</time>
      </trkpt>
      <trkpt lat="45.35491" lon="5.64424">
        <ele>682</ele>
        <time>2023-02-16T09:54:09Z</time>
      </trkpt>
      <trkpt lat="45.35483" lon="5.64421">
        <ele>682</ele>
        <time>2023-02-16T09:54:10Z</time>
      </trkpt>
      <trkpt lat="45.35476" lon="5.64418">
        <ele>682</ele>
        <time>2023-02-16T09:54:11Z</time>
      </trkpt>
      <trkpt lat="45.35469" lon="5.64415">
        <ele>682</ele>
        <time>2023-02-16T09:54:12Z</time>
      </trkpt>
      <trkpt lat="45.35462" lon="5.64412">
        <ele>682</ele>
        <time>2023-02-16T09:54:13Z</time>
      </trkpt>
      <trkpt lat="45.35455" lon="5.6441">
        <ele>681</ele>
        <time>2023-02-16T09:54:14Z</time>
      </trkpt>
      <trkpt lat="45.35449" lon="5.64407">
        <ele>681</ele>
        <time>2023-02-16T09:54:15Z</time>
      </trkpt>
      <trkpt lat="45.35442" lon="5.64405">
        <ele>681</ele>
        <time>2023-02-16T09:54:16Z</time>
      </trkpt>
      <trkpt lat="45.35436" lon="5.64402">
        <ele>681</ele>
        <time>2023-02-16T09:54:17Z</time>
      </trkpt>
      <trkpt lat="45.35429" lon="5.64399">
        <ele>681</ele>
        <time>2023-02-16T09:54:18Z</time>
      </trkpt>
      <trkpt lat="45.35423" lon="5.64397">
        <ele>681</ele>
        <time>2023-02-16T09:54:19Z</time>
      </trkpt>
      <trkpt lat="45.35417" lon="5.64395">
        <ele>681</ele>
        <time>2023-02-16T09:54:20Z</time>
      </trkpt>
      <trkpt lat="45.35411" lon="5.64392">
        <ele>681</ele>
        <time>2023-02-16T09:54:21Z</time>
      </trkpt>
      <trkpt lat="45.35405" lon="5.64389">
        <ele>682</ele>
        <time>2023-02-16T09:54:22Z</time>
      </trkpt>
      <trkpt lat="45.35399" lon="5.64387">
        <ele>682</ele>
        <time>2023-02-16T09:54:23Z</time>
      </trkpt>
      <trkpt lat="45.35393" lon="5.64384">
        <ele>682</ele>
        <time>2023-02-16T09:54:24Z</time>
      </trkpt>
      <trkpt lat="45.35387" lon="5.64382">
        <ele>682</ele>
        <time>2023-02-16T09:54:25Z</time>
      </trkpt>
      <trkpt lat="45.35382" lon="5.64379">
        <ele>682</ele>
        <time>2023-02-16T09:54:26Z</time>
      </trkpt>
      <trkpt lat="45.35376" lon="5.64377">
        <ele>682</ele>
        <time>2023-02-16T09:54:27Z</time>
      </trkpt>
      <trkpt lat="45.3537" lon="5.64374">
        <ele>682</ele>
        <time>2023-02-16T09:54:28Z</time>
      </trkpt>
      <trkpt lat="45.35365" lon="5.64372">
        <ele>682</ele>
        <time>2023-02-16T09:54:29Z</time>
      </trkpt>
      <trkpt lat="45.35359" lon="5.6437">
        <ele>682</ele>
        <time>2023-02-16T09:54:30Z</time>
      </trkpt>
      <trkpt lat="45.35354" lon="5.64367">
        <ele>682</ele>
        <time>2023-02-16T09:54:31Z</time>
      </trkpt>
      <trkpt lat="45.35348" lon="5.64366">
        <ele>682</ele>
        <time>2023-02-16T09:54:32Z</time>
      </trkpt>
      <trkpt lat="45.35342" lon="5.64364">
        <ele>682</ele>
        <time>2023-02-16T09:54:33Z</time>
      </trkpt>
      <trkpt lat="45.35336" lon="5.64362">
        <ele>683</ele>
        <time>2023-02-16T09:54:34Z</time>
      </trkpt>
      <trkpt lat="45.3533" lon="5.64361">
        <ele>683</ele>
        <time>2023-02-16T09:54:35Z</time>
      </trkpt>
      <trkpt lat="45.35323" lon="5.6436">
        <ele>683</ele>
        <time>2023-02-16T09:54:36Z</time>
      </trkpt>
      <trkpt lat="45.35317" lon="5.64359">
        <ele>683</ele>
        <time>2023-02-16T09:54:37Z</time>
      </trkpt>
      <trkpt lat="45.3531" lon="5.64359">
        <ele>682</ele>
        <time>2023-02-16T09:54:38Z</time>
      </trkpt>
      <trkpt lat="45.35303" lon="5.64358">
        <ele>682</ele>
        <time>2023-02-16T09:54:39Z</time>
      </trkpt>
      <trkpt lat="45.35295" lon="5.64358">
        <ele>681</ele>
        <time>2023-02-16T09:54:40Z</time>
      </trkpt>
      <trkpt lat="45.35288" lon="5.64357">
        <ele>681</ele>
        <time>2023-02-16T09:54:41Z</time>
      </trkpt>
      <trkpt lat="45.35281" lon="5.64356">
        <ele>681</ele>
        <time>2023-02-16T09:54:42Z</time>
      </trkpt>
      <trkpt lat="45.35274" lon="5.64355">
        <ele>679</ele>
        <time>2023-02-16T09:54:43Z</time>
      </trkpt>
      <trkpt lat="45.35266" lon="5.64354">
        <ele>679</ele>
        <time>2023-02-16T09:54:44Z</time>
      </trkpt>
      <trkpt lat="45.35258" lon="5.64353">
        <ele>679</ele>
        <time>2023-02-16T09:54:45Z</time>
      </trkpt>
      <trkpt lat="45.35251" lon="5.64352">
        <ele>679</ele>
        <time>2023-02-16T09:54:46Z</time>
      </trkpt>
      <trkpt lat="45.35243" lon="5.64351">
        <ele>679</ele>
        <time>2023-02-16T09:54:47Z</time>
      </trkpt>
      <trkpt lat="45.35235" lon="5.6435">
        <ele>679</ele>
        <time>2023-02-16T09:54:48Z</time>
      </trkpt>
      <trkpt lat="45.35227" lon="5.64349">
        <ele>679</ele>
        <time>2023-02-16T09:54:49Z</time>
      </trkpt>
      <trkpt lat="45.35219" lon="5.64349">
        <ele>677</ele>
        <time>2023-02-16T09:54:50Z</time>
      </trkpt>
      <trkpt lat="45.35211" lon="5.64348">
        <ele>677</ele>
        <time>2023-02-16T09:54:51Z</time>
      </trkpt>
      <trkpt lat="45.35204" lon="5.64348">
        <ele>676</ele>
        <time>2023-02-16T09:54:52Z</time>
      </trkpt>
      <trkpt lat="45.35196" lon="5.64348">
        <ele>676</ele>
        <time>2023-02-16T09:54:53Z</time>
      </trkpt>
      <trkpt lat="45.35188" lon="5.64347">
        <ele>676</ele>
        <time>2023-02-16T09:54:54Z</time>
      </trkpt>
      <trkpt lat="45.3518" lon="5.64346">
        <ele>676</ele>
        <time>2023-02-16T09:54:55Z</time>
      </trkpt>
      <trkpt lat="45.35173" lon="5.64346">
        <ele>676</ele>
        <time>2023-02-16T09:54:56Z</time>
      </trkpt>
      <trkpt lat="45.35165" lon="5.64346">
        <ele>676</ele>
        <time>2023-02-16T09:54:57Z</time>
      </trkpt>
      <trkpt lat="45.35157" lon="5.64345">
        <ele>675</ele>
        <time>2023-02-16T09:54:58Z</time>
      </trkpt>
      <trkpt lat="45.35149" lon="5.64341">
        <ele>675</ele>
        <time>2023-02-16T09:54:59Z</time>
      </trkpt>
      <trkpt lat="45.35143" lon="5.64335">
        <ele>675</ele>
        <time>2023-02-16T09:55:00Z</time>
      </trkpt>
      <trkpt lat="45.35137" lon="5.64327">
        <ele>674</ele>
        <time>2023-02-16T09:55:01Z</time>
      </trkpt>
      <trkpt lat="45.35133" lon="5.64317">
        <ele>674</ele>
        <time>2023-02-16T09:55:02Z</time>
      </trkpt>
      <trkpt lat="45.35129" lon="5.64306">
        <ele>674</ele>
        <time>2023-02-16T09:55:03Z</time>
      </trkpt>
      <trkpt lat="45.35125" lon="5.64295">
        <ele>672</ele>
        <time>2023-02-16T09:55:04Z</time>
      </trkpt>
      <trkpt lat="45.35121" lon="5.64285">
        <ele>672</ele>
        <time>2023-02-16T09:55:05Z</time>
      </trkpt>
      <trkpt lat="45.35115" lon="5.64276">
        <ele>670</ele>
        <time>2023-02-16T09:55:06Z</time>
      </trkpt>
      <trkpt lat="45.35108" lon="5.64268">
        <ele>670</ele>
        <time>2023-02-16T09:55:07Z</time>
      </trkpt>
      <trkpt lat="45.351" lon="5.64263">
        <ele>671</ele>
        <time>2023-02-16T09:55:08Z</time>
      </trkpt>
      <trkpt lat="45.35092" lon="5.64259">
        <ele>671</ele>
        <time>2023-02-16T09:55:09Z</time>
      </trkpt>
      <trkpt lat="45.35083" lon="5.64256">
        <ele>671</ele>
        <time>2023-02-16T09:55:10Z</time>
      </trkpt>
      <trkpt lat="45.35075" lon="5.64253">
        <ele>671</ele>
        <time>2023-02-16T09:55:11Z</time>
      </trkpt>
      <trkpt lat="45.35066" lon="5.6425">
        <ele>671</ele>
        <time>2023-02-16T09:55:12Z</time>
      </trkpt>
      <trkpt lat="45.35058" lon="5.64247">
        <ele>671</ele>
        <time>2023-02-16T09:55:13Z</time>
      </trkpt>
      <trkpt lat="45.35049" lon="5.64244">
        <ele>671</ele>
        <time>2023-02-16T09:55:14Z</time>
      </trkpt>
      <trkpt lat="45.35041" lon="5.64241">
        <ele>671</ele>
        <time>2023-02-16T09:55:15Z</time>
      </trkpt>
      <trkpt lat="45.35032" lon="5.64239">
        <ele>670</ele>
        <time>2023-02-16T09:55:16Z</time>
      </trkpt>
      <trkpt lat="45.35024" lon="5.64236">
        <ele>669</ele>
        <time>2023-02-16T09:55:17Z</time>
      </trkpt>
      <trkpt lat="45.35015" lon="5.64233">
        <ele>669</ele>
        <time>2023-02-16T09:55:18Z</time>
      </trkpt>
      <trkpt lat="45.35007" lon="5.64232">
        <ele>669</ele>
        <time>2023-02-16T09:55:19Z</time>
      </trkpt>
      <trkpt lat="45.34998" lon="5.64232">
        <ele>668</ele>
        <time>2023-02-16T09:55:20Z</time>
      </trkpt>
      <trkpt lat="45.34991" lon="5.64233">
        <ele>665</ele>
        <time>2023-02-16T09:55:21Z</time>
      </trkpt>
      <trkpt lat="45.34985" lon="5.64234">
        <ele>665</ele>
        <time>2023-02-16T09:55:22Z</time>
      </trkpt>
      <trkpt lat="45.3498" lon="5.64231">
        <ele>664</ele>
        <time>2023-02-16T09:55:23Z</time>
      </trkpt>
      <trkpt lat="45.34977" lon="5.64226">
        <ele>664</ele>
        <time>2023-02-16T09:55:24Z</time>
      </trkpt>
      <trkpt lat="45.34976" lon="5.64221">
        <ele>664</ele>
        <time>2023-02-16T09:55:25Z</time>
      </trkpt>
      <trkpt lat="45.34975" lon="5.64215">
        <ele>664</ele>
        <time>2023-02-16T09:55:26Z</time>
      </trkpt>
      <trkpt lat="45.34975" lon="5.6421">
        <ele>664</ele>
        <time>2023-02-16T09:55:27Z</time>
      </trkpt>
      <trkpt lat="45.34974" lon="5.64206">
        <ele>664</ele>
        <time>2023-02-16T09:55:28Z</time>
      </trkpt>
      <trkpt lat="45.34974" lon="5.64202">
        <ele>664</ele>
        <time>2023-02-16T09:55:29Z</time>
      </trkpt>
      <trkpt lat="45.34974" lon="5.64198">
        <ele>664</ele>
        <time>2023-02-16T09:55:30Z</time>
      </trkpt>
      <trkpt lat="45.34973" lon="5.64194">
        <ele>664</ele>
        <time>2023-02-16T09:55:31Z</time>
      </trkpt>
      <trkpt lat="45.34973" lon="5.64191">
        <ele>664</ele>
        <time>2023-02-16T09:55:32Z</time>
      </trkpt>
      <trkpt lat="45.34972" lon="5.64187">
        <ele>664</ele>
        <time>2023-02-16T09:55:33Z</time>
      </trkpt>
      <trkpt lat="45.34971" lon="5.64183">
        <ele>665</ele>
        <time>2023-02-16T09:55:34Z</time>
      </trkpt>
      <trkpt lat="45.3497" lon="5.64179">
        <ele>665</ele>
        <time>2023-02-16T09:55:35Z</time>
      </trkpt>
      <trkpt lat="45.34969" lon="5.64176">
        <ele>666</ele>
        <time>2023-02-16T09:55:36Z</time>
      </trkpt>
      <trkpt lat="45.34968" lon="5.64172">
        <ele>666</ele>
        <time>2023-02-16T09:55:37Z</time>
      </trkpt>
      <trkpt lat="45.34966" lon="5.64168">
        <ele>667</ele>
        <time>2023-02-16T09:55:38Z</time>
      </trkpt>
      <trkpt lat="45.34965" lon="5.64164">
        <ele>667</ele>
        <time>2023-02-16T09:55:39Z</time>
      </trkpt>
      <trkpt lat="45.34964" lon="5.64161">
        <ele>667</ele>
        <time>2023-02-16T09:55:40Z</time>
      </trkpt>
      <trkpt lat="45.34962" lon="5.64157">
        <ele>667</ele>
        <time>2023-02-16T09:55:41Z</time>
      </trkpt>
      <trkpt lat="45.34961" lon="5.64153">
        <ele>667</ele>
        <time>2023-02-16T09:55:42Z</time>
      </trkpt>
      <trkpt lat="45.3496" lon="5.64148">
        <ele>667</ele>
        <time>2023-02-16T09:55:43Z</time>
      </trkpt>
      <trkpt lat="45.34959" lon="5.64144">
        <ele>668</ele>
        <time>2023-02-16T09:55:44Z</time>
      </trkpt>
      <trkpt lat="45.34959" lon="5.64139">
        <ele>668</ele>
        <time>2023-02-16T09:55:45Z</time>
      </trkpt>
      <trkpt lat="45.34958" lon="5.64134">
        <ele>668</ele>
        <time>2023-02-16T09:55:46Z</time>
      </trkpt>
      <trkpt lat="45.34957" lon="5.64129">
        <ele>668</ele>
        <time>2023-02-16T09:55:47Z</time>
      </trkpt>
      <trkpt lat="45.34957" lon="5.64124">
        <ele>668</ele>
        <time>2023-02-16T09:55:48Z</time>
      </trkpt>
      <trkpt lat="45.34956" lon="5.64119">
        <ele>669</ele>
        <time>2023-02-16T09:55:49Z</time>
      </trkpt>
      <trkpt lat="45.34956" lon="5.64114">
        <ele>669</ele>
        <time>2023-02-16T09:55:50Z</time>
      </trkpt>
      <trkpt lat="45.34955" lon="5.64109">
        <ele>669</ele>
        <time>2023-02-16T09:55:51Z</time>
      </trkpt>
      <trkpt lat="45.34955" lon="5.64104">
        <ele>669</ele>
        <time>2023-02-16T09:55:52Z</time>
      </trkpt>
      <trkpt lat="45.34956" lon="5.64099">
        <ele>669</ele>
        <time>2023-02-16T09:55:53Z</time>
      </trkpt>
      <trkpt lat="45.34955" lon="5.64093">
        <ele>669</ele>
        <time>2023-02-16T09:55:54Z</time>
      </trkpt>
      <trkpt lat="45.34955" lon="5.64087">
        <ele>669</ele>
        <time>2023-02-16T09:55:55Z</time>
      </trkpt>
      <trkpt lat="45.34955" lon="5.64081">
        <ele>669</ele>
        <time>2023-02-16T09:55:56Z</time>
      </trkpt>
      <trkpt lat="45.34955" lon="5.64075">
        <ele>669</ele>
        <time>2023-02-16T09:55:57Z</time>
      </trkpt>
      <trkpt lat="45.34955" lon="5.64069">
        <ele>670</ele>
        <time>2023-02-16T09:55:58Z</time>
      </trkpt>
      <trkpt lat="45.34956" lon="5.64062">
        <ele>670</ele>
        <time>2023-02-16T09:55:59Z</time>
      </trkpt>
      <trkpt lat="45.34956" lon="5.64055">
        <ele>669</ele>
        <time>2023-02-16T09:56:00Z</time>
      </trkpt>
      <trkpt lat="45.34957" lon="5.64048">
        <ele>669</ele>
        <time>2023-02-16T09:56:01Z</time>
      </trkpt>
      <trkpt lat="45.34957" lon="5.6404">
        <ele>669</ele>
        <time>2023-02-16T09:56:02Z</time>
      </trkpt>
      <trkpt lat="45.34956" lon="5.64033">
        <ele>669</ele>
        <time>2023-02-16T09:56:03Z</time>
      </trkpt>
      <trkpt lat="45.34956" lon="5.64025">
        <ele>669</ele>
        <time>2023-02-16T09:56:04Z</time>
      </trkpt>
      <trkpt lat="45.34956" lon="5.64017">
        <ele>669</ele>
        <time>2023-02-16T09:56:05Z</time>
      </trkpt>
      <trkpt lat="45.34956" lon="5.6401">
        <ele>669</ele>
        <time>2023-02-16T09:56:06Z</time>
      </trkpt>
      <trkpt lat="45.34956" lon="5.64002">
        <ele>669</ele>
        <time>2023-02-16T09:56:07Z</time>
      </trkpt>
      <trkpt lat="45.34956" lon="5.63995">
        <ele>669</ele>
        <time>2023-02-16T09:56:08Z</time>
      </trkpt>
      <trkpt lat="45.34957" lon="5.63987">
        <ele>669</ele>
        <time>2023-02-16T09:56:09Z</time>
      </trkpt>
      <trkpt lat="45.34957" lon="5.6398">
        <ele>669</ele>
        <time>2023-02-16T09:56:10Z</time>
      </trkpt>
      <trkpt lat="45.34958" lon="5.63972">
        <ele>668</ele>
        <time>2023-02-16T09:56:11Z</time>
      </trkpt>
      <trkpt lat="45.34958" lon="5.63964">
        <ele>668</ele>
        <time>2023-02-16T09:56:12Z</time>
      </trkpt>
      <trkpt lat="45.34958" lon="5.63956">
        <ele>668</ele>
        <time>2023-02-16T09:56:13Z</time>
      </trkpt>
      <trkpt lat="45.34958" lon="5.63948">
        <ele>668</ele>
        <time>2023-02-16T09:56:14Z</time>
      </trkpt>
      <trkpt lat="45.34959" lon="5.6394">
        <ele>668</ele>
        <time>2023-02-16T09:56:15Z</time>
      </trkpt>
      <trkpt lat="45.34959" lon="5.63931">
        <ele>668</ele>
        <time>2023-02-16T09:56:16Z</time>
      </trkpt>
      <trkpt lat="45.3496" lon="5.63923">
        <ele>667</ele>
        <time>2023-02-16T09:56:17Z</time>
      </trkpt>
      <trkpt lat="45.34962" lon="5.63915">
        <ele>667</ele>
        <time>2023-02-16T09:56:18Z</time>
      </trkpt>
      <trkpt lat="45.34963" lon="5.63907">
        <ele>667</ele>
        <time>2023-02-16T09:56:19Z</time>
      </trkpt>
      <trkpt lat="45.34963" lon="5.63899">
        <ele>667</ele>
        <time>2023-02-16T09:56:20Z</time>
      </trkpt>
      <trkpt lat="45.34964" lon="5.63891">
        <ele>667</ele>
        <time>2023-02-16T09:56:21Z</time>
      </trkpt>
      <trkpt lat="45.34964" lon="5.63883">
        <ele>667</ele>
        <time>2023-02-16T09:56:22Z</time>
      </trkpt>
      <trkpt lat="45.34964" lon="5.63875">
        <ele>667</ele>
        <time>2023-02-16T09:56:23Z</time>
      </trkpt>
      <trkpt lat="45.34964" lon="5.63866">
        <ele>667</ele>
        <time>2023-02-16T09:56:24Z</time>
      </trkpt>
      <trkpt lat="45.34964" lon="5.63857">
        <ele>667</ele>
        <time>2023-02-16T09:56:25Z</time>
      </trkpt>
      <trkpt lat="45.34963" lon="5.63848">
        <ele>667</ele>
        <time>2023-02-16T09:56:26Z</time>
      </trkpt>
      <trkpt lat="45.34963" lon="5.63839">
        <ele>667</ele>
        <time>2023-02-16T09:56:27Z</time>
      </trkpt>
      <trkpt lat="45.34964" lon="5.6383">
        <ele>666</ele>
        <time>2023-02-16T09:56:28Z</time>
      </trkpt>
      <trkpt lat="45.34965" lon="5.6382">
        <ele>665</ele>
        <time>2023-02-16T09:56:29Z</time>
      </trkpt>
      <trkpt lat="45.34966" lon="5.63811">
        <ele>665</ele>
        <time>2023-02-16T09:56:30Z</time>
      </trkpt>
      <trkpt lat="45.34967" lon="5.63802">
        <ele>665</ele>
        <time>2023-02-16T09:56:31Z</time>
      </trkpt>
      <trkpt lat="45.34969" lon="5.63793">
        <ele>665</ele>
        <time>2023-02-16T09:56:32Z</time>
      </trkpt>
      <trkpt lat="45.34972" lon="5.63784">
        <ele>665</ele>
        <time>2023-02-16T09:56:33Z</time>
      </trkpt>
      <trkpt lat="45.34976" lon="5.63776">
        <ele>665</ele>
        <time>2023-02-16T09:56:34Z</time>
      </trkpt>
      <trkpt lat="45.34982" lon="5.63769">
        <ele>663</ele>
        <time>2023-02-16T09:56:35Z</time>
      </trkpt>
      <trkpt lat="45.34986" lon="5.63761">
        <ele>663</ele>
        <time>2023-02-16T09:56:36Z</time>
      </trkpt>
      <trkpt lat="45.3499" lon="5.63755">
        <ele>662</ele>
        <time>2023-02-16T09:56:37Z</time>
      </trkpt>
      <trkpt lat="45.34993" lon="5.63749">
        <ele>661</ele>
        <time>2023-02-16T09:56:38Z</time>
      </trkpt>
      <trkpt lat="45.34996" lon="5.63744">
        <ele>661</ele>
        <time>2023-02-16T09:56:39Z</time>
      </trkpt>
      <trkpt lat="45.34998" lon="5.6374">
        <ele>660</ele>
        <time>2023-02-16T09:56:40Z</time>
      </trkpt>
      <trkpt lat="45.35" lon="5.63736">
        <ele>659</ele>
        <time>2023-02-16T09:56:41Z</time>
      </trkpt>
      <trkpt lat="45.35002" lon="5.63733">
        <ele>659</ele>
        <time>2023-02-16T09:56:42Z</time>
      </trkpt>
      <trkpt lat="45.35003" lon="5.6373">
        <ele>657</ele>
        <time>2023-02-16T09:56:43Z</time>
      </trkpt>
      <trkpt lat="45.35005" lon="5.63727">
        <ele>657</ele>
        <time>2023-02-16T09:56:44Z</time>
      </trkpt>
      <trkpt lat="45.35006" lon="5.63723">
        <ele>657</ele>
        <time>2023-02-16T09:56:45Z</time>
      </trkpt>
      <trkpt lat="45.35007" lon="5.6372">
        <ele>657</ele>
        <time>2023-02-16T09:56:46Z</time>
      </trkpt>
      <trkpt lat="45.35008" lon="5.63716">
        <ele>657</ele>
        <time>2023-02-16T09:56:47Z</time>
      </trkpt>
      <trkpt lat="45.35008" lon="5.63713">
        <ele>657</ele>
        <time>2023-02-16T09:56:48Z</time>
      </trkpt>
      <trkpt lat="45.35007" lon="5.6371">
        <ele>656</ele>
        <time>2023-02-16T09:56:49Z</time>
      </trkpt>
      <trkpt lat="45.35005" lon="5.63706">
        <ele>656</ele>
        <time>2023-02-16T09:56:50Z</time>
      </trkpt>
      <trkpt lat="45.35002" lon="5.63702">
        <ele>656</ele>
        <time>2023-02-16T09:56:51Z</time>
      </trkpt>
      <trkpt lat="45.34999" lon="5.63699">
        <ele>655</ele>
        <time>2023-02-16T09:56:52Z</time>
      </trkpt>
      <trkpt lat="45.34997" lon="5.63696">
        <ele>655</ele>
        <time>2023-02-16T09:56:53Z</time>
      </trkpt>
      <trkpt lat="45.34994" lon="5.63693">
        <ele>654</ele>
        <time>2023-02-16T09:56:54Z</time>
      </trkpt>
      <trkpt lat="45.34992" lon="5.63689">
        <ele>654</ele>
        <time>2023-02-16T09:56:55Z</time>
      </trkpt>
      <trkpt lat="45.3499" lon="5.63685">
        <ele>653</ele>
        <time>2023-02-16T09:56:56Z</time>
      </trkpt>
      <trkpt lat="45.34987" lon="5.6368">
        <ele>653</ele>
        <time>2023-02-16T09:56:57Z</time>
      </trkpt>
      <trkpt lat="45.34979" lon="5.6367">
        <ele>652</ele>
        <time>2023-02-16T09:56:59Z</time>
      </trkpt>
      <trkpt lat="45.34968" lon="5.6366">
        <ele>649</ele>
        <time>2023-02-16T09:57:01Z</time>
      </trkpt>
      <trkpt lat="45.34957" lon="5.6365">
        <ele>648</ele>
        <time>2023-02-16T09:57:03Z</time>
      </trkpt>
      <trkpt lat="45.34944" lon="5.6364">
        <ele>648</ele>
        <time>2023-02-16T09:57:05Z</time>
      </trkpt>
      <trkpt lat="45.34932" lon="5.6363">
        <ele>645</ele>
        <time>2023-02-16T09:57:07Z</time>
      </trkpt>
      <trkpt lat="45.34922" lon="5.63622">
        <ele>645</ele>
        <time>2023-02-16T09:57:09Z</time>
      </trkpt>
      <trkpt lat="45.34913" lon="5.63609">
        <ele>640</ele>
        <time>2023-02-16T09:57:12Z</time>
      </trkpt>
      <trkpt lat="45.34905" lon="5.63599">
        <ele>640</ele>
        <time>2023-02-16T09:57:15Z</time>
      </trkpt>
      <trkpt lat="45.34904" lon="5.63596">
        <ele>636</ele>
        <time>2023-02-16T09:57:16Z</time>
      </trkpt>
      <trkpt lat="45.34903" lon="5.63593">
        <ele>636</ele>
        <time>2023-02-16T09:57:17Z</time>
      </trkpt>
      <trkpt lat="45.34902" lon="5.63591">
        <ele>636</ele>
        <time>2023-02-16T09:57:18Z</time>
      </trkpt>
      <trkpt lat="45.349" lon="5.63588">
        <ele>635</ele>
        <time>2023-02-16T09:57:19Z</time>
      </trkpt>
      <trkpt lat="45.34898" lon="5.63586">
        <ele>634</ele>
        <time>2023-02-16T09:57:20Z</time>
      </trkpt>
      <trkpt lat="45.34894" lon="5.63584">
        <ele>633</ele>
        <time>2023-02-16T09:57:21Z</time>
      </trkpt>
      <trkpt lat="45.34889" lon="5.6358">
        <ele>633</ele>
        <time>2023-02-16T09:57:22Z</time>
      </trkpt>
      <trkpt lat="45.34884" lon="5.63576">
        <ele>632</ele>
        <time>2023-02-16T09:57:23Z</time>
      </trkpt>
      <trkpt lat="45.34878" lon="5.63573">
        <ele>631</ele>
        <time>2023-02-16T09:57:24Z</time>
      </trkpt>
      <trkpt lat="45.34871" lon="5.6357">
        <ele>631</ele>
        <time>2023-02-16T09:57:25Z</time>
      </trkpt>
      <trkpt lat="45.34864" lon="5.63567">
        <ele>631</ele>
        <time>2023-02-16T09:57:26Z</time>
      </trkpt>
      <trkpt lat="45.34857" lon="5.63564">
        <ele>631</ele>
        <time>2023-02-16T09:57:27Z</time>
      </trkpt>
      <trkpt lat="45.34851" lon="5.63562">
        <ele>631</ele>
        <time>2023-02-16T09:57:28Z</time>
      </trkpt>
      <trkpt lat="45.34845" lon="5.63561">
        <ele>629</ele>
        <time>2023-02-16T09:57:29Z</time>
      </trkpt>
      <trkpt lat="45.3484" lon="5.63559">
        <ele>629</ele>
        <time>2023-02-16T09:57:30Z</time>
      </trkpt>
      <trkpt lat="45.34835" lon="5.63558">
        <ele>628</ele>
        <time>2023-02-16T09:57:31Z</time>
      </trkpt>
      <trkpt lat="45.3483" lon="5.63558">
        <ele>627</ele>
        <time>2023-02-16T09:57:32Z</time>
      </trkpt>
      <trkpt lat="45.34824" lon="5.63558">
        <ele>627</ele>
        <time>2023-02-16T09:57:33Z</time>
      </trkpt>
      <trkpt lat="45.34818" lon="5.63557">
        <ele>627</ele>
        <time>2023-02-16T09:57:34Z</time>
      </trkpt>
      <trkpt lat="45.34812" lon="5.63556">
        <ele>626</ele>
        <time>2023-02-16T09:57:35Z</time>
      </trkpt>
      <trkpt lat="45.34807" lon="5.63555">
        <ele>626</ele>
        <time>2023-02-16T09:57:36Z</time>
      </trkpt>
      <trkpt lat="45.34802" lon="5.63554">
        <ele>623</ele>
        <time>2023-02-16T09:57:37Z</time>
      </trkpt>
      <trkpt lat="45.34796" lon="5.63553">
        <ele>622</ele>
        <time>2023-02-16T09:57:38Z</time>
      </trkpt>
      <trkpt lat="45.3479" lon="5.63552">
        <ele>622</ele>
        <time>2023-02-16T09:57:39Z</time>
      </trkpt>
      <trkpt lat="45.34784" lon="5.63552">
        <ele>622</ele>
        <time>2023-02-16T09:57:40Z</time>
      </trkpt>
      <trkpt lat="45.34779" lon="5.63552">
        <ele>621</ele>
        <time>2023-02-16T09:57:41Z</time>
      </trkpt>
      <trkpt lat="45.34774" lon="5.63552">
        <ele>620</ele>
        <time>2023-02-16T09:57:42Z</time>
      </trkpt>
      <trkpt lat="45.34771" lon="5.63551">
        <ele>619</ele>
        <time>2023-02-16T09:57:43Z</time>
      </trkpt>
      <trkpt lat="45.34767" lon="5.63549">
        <ele>619</ele>
        <time>2023-02-16T09:57:44Z</time>
      </trkpt>
      <trkpt lat="45.34764" lon="5.63548">
        <ele>618</ele>
        <time>2023-02-16T09:57:45Z</time>
      </trkpt>
      <trkpt lat="45.34763" lon="5.63547">
        <ele>617</ele>
        <time>2023-02-16T09:57:46Z</time>
      </trkpt>
      <trkpt lat="45.34759" lon="5.63547">
        <ele>617</ele>
        <time>2023-02-16T09:57:47Z</time>
      </trkpt>
      <trkpt lat="45.34755" lon="5.63547">
        <ele>615</ele>
        <time>2023-02-16T09:57:48Z</time>
      </trkpt>
      <trkpt lat="45.34752" lon="5.63548">
        <ele>614</ele>
        <time>2023-02-16T09:57:49Z</time>
      </trkpt>
      <trkpt lat="45.3475" lon="5.63547">
        <ele>613</ele>
        <time>2023-02-16T09:57:50Z</time>
      </trkpt>
      <trkpt lat="45.34748" lon="5.63545">
        <ele>613</ele>
        <time>2023-02-16T09:57:51Z</time>
      </trkpt>
      <trkpt lat="45.34744" lon="5.63542">
        <ele>612</ele>
        <time>2023-02-16T09:57:52Z</time>
      </trkpt>
      <trkpt lat="45.34742" lon="5.6354">
        <ele>611</ele>
        <time>2023-02-16T09:57:53Z</time>
      </trkpt>
      <trkpt lat="45.34738" lon="5.63538">
        <ele>610</ele>
        <time>2023-02-16T09:57:54Z</time>
      </trkpt>
      <trkpt lat="45.34735" lon="5.63535">
        <ele>608</ele>
        <time>2023-02-16T09:57:55Z</time>
      </trkpt>
      <trkpt lat="45.34733" lon="5.63532">
        <ele>607</ele>
        <time>2023-02-16T09:57:56Z</time>
      </trkpt>
      <trkpt lat="45.34722" lon="5.63522">
        <ele>607</ele>
        <time>2023-02-16T09:57:59Z</time>
      </trkpt>
      <trkpt lat="45.34714" lon="5.63514">
        <ele>603</ele>
        <time>2023-02-16T09:58:01Z</time>
      </trkpt>
      <trkpt lat="45.34705" lon="5.63506">
        <ele>603</ele>
        <time>2023-02-16T09:58:03Z</time>
      </trkpt>
      <trkpt lat="45.34697" lon="5.635">
        <ele>599</ele>
        <time>2023-02-16T09:58:05Z</time>
      </trkpt>
      <trkpt lat="45.34687" lon="5.63492">
        <ele>596</ele>
        <time>2023-02-16T09:58:08Z</time>
      </trkpt>
      <trkpt lat="45.34678" lon="5.63483">
        <ele>596</ele>
        <time>2023-02-16T09:58:12Z</time>
      </trkpt>
      <trkpt lat="45.34676" lon="5.6348">
        <ele>596</ele>
        <time>2023-02-16T09:58:14Z</time>
      </trkpt>
      <trkpt lat="45.34675" lon="5.63478">
        <ele>592</ele>
        <time>2023-02-16T09:58:15Z</time>
      </trkpt>
      <trkpt lat="45.34674" lon="5.63474">
        <ele>591</ele>
        <time>2023-02-16T09:58:16Z</time>
      </trkpt>
      <trkpt lat="45.34673" lon="5.63471">
        <ele>591</ele>
        <time>2023-02-16T09:58:17Z</time>
      </trkpt>
      <trkpt lat="45.34673" lon="5.63467">
        <ele>589</ele>
        <time>2023-02-16T09:58:18Z</time>
      </trkpt>
      <trkpt lat="45.34674" lon="5.63451">
        <ele>589</ele>
        <time>2023-02-16T09:58:21Z</time>
      </trkpt>
      <trkpt lat="45.34677" lon="5.63438">
        <ele>585</ele>
        <time>2023-02-16T09:58:23Z</time>
      </trkpt>
      <trkpt lat="45.34684" lon="5.63427">
        <ele>585</ele>
        <time>2023-02-16T09:58:25Z</time>
      </trkpt>
      <trkpt lat="45.34692" lon="5.63419">
        <ele>585</ele>
        <time>2023-02-16T09:58:27Z</time>
      </trkpt>
      <trkpt lat="45.34698" lon="5.63403">
        <ele>577</ele>
        <time>2023-02-16T09:58:30Z</time>
      </trkpt>
      <trkpt lat="45.34697" lon="5.63399">
        <ele>577</ele>
        <time>2023-02-16T09:58:31Z</time>
      </trkpt>
      <trkpt lat="45.34697" lon="5.63396">
        <ele>577</ele>
        <time>2023-02-16T09:58:32Z</time>
      </trkpt>
      <trkpt lat="45.34697" lon="5.63393">
        <ele>576</ele>
        <time>2023-02-16T09:58:38Z</time>
      </trkpt>
      <trkpt lat="45.34686" lon="5.6338">
        <ele>575</ele>
        <time>2023-02-16T09:58:48Z</time>
      </trkpt>
      <trkpt lat="45.34681" lon="5.63377">
        <ele>575</ele>
        <time>2023-02-16T09:58:49Z</time>
      </trkpt>
      <trkpt lat="45.34675" lon="5.63374">
        <ele>575</ele>
        <time>2023-02-16T09:58:50Z</time>
      </trkpt>
      <trkpt lat="45.34668" lon="5.63371">
        <ele>572</ele>
        <time>2023-02-16T09:58:51Z</time>
      </trkpt>
      <trkpt lat="45.34661" lon="5.63369">
        <ele>570</ele>
        <time>2023-02-16T09:58:52Z</time>
      </trkpt>
      <trkpt lat="45.34654" lon="5.63366">
        <ele>568</ele>
        <time>2023-02-16T09:58:53Z</time>
      </trkpt>
      <trkpt lat="45.34648" lon="5.63363">
        <ele>568</ele>
        <time>2023-02-16T09:58:54Z</time>
      </trkpt>
      <trkpt lat="45.34644" lon="5.63358">
        <ele>568</ele>
        <time>2023-02-16T09:58:55Z</time>
      </trkpt>
      <trkpt lat="45.34643" lon="5.63354">
        <ele>566</ele>
        <time>2023-02-16T09:58:56Z</time>
      </trkpt>
      <trkpt lat="45.34644" lon="5.63352">
        <ele>565</ele>
        <time>2023-02-16T09:58:57Z</time>
      </trkpt>
      <trkpt lat="45.34655" lon="5.63349">
        <ele>564</ele>
        <time>2023-02-16T09:59:00Z</time>
      </trkpt>
      <trkpt lat="45.3466" lon="5.63349">
        <ele>564</ele>
        <time>2023-02-16T09:59:01Z</time>
      </trkpt>
      <trkpt lat="45.34666" lon="5.63348">
        <ele>564</ele>
        <time>2023-02-16T09:59:02Z</time>
      </trkpt>
      <trkpt lat="45.34672" lon="5.63348">
        <ele>563</ele>
        <time>2023-02-16T09:59:03Z</time>
      </trkpt>
      <trkpt lat="45.3468" lon="5.63344">
        <ele>563</ele>
        <time>2023-02-16T09:59:04Z</time>
      </trkpt>
      <trkpt lat="45.34687" lon="5.63341">
        <ele>562</ele>
        <time>2023-02-16T09:59:05Z</time>
      </trkpt>
      <trkpt lat="45.34693" lon="5.63337">
        <ele>562</ele>
        <time>2023-02-16T09:59:06Z</time>
      </trkpt>
      <trkpt lat="45.347" lon="5.63334">
        <ele>562</ele>
        <time>2023-02-16T09:59:07Z</time>
      </trkpt>
      <trkpt lat="45.34707" lon="5.63332">
        <ele>561</ele>
        <time>2023-02-16T09:59:08Z</time>
      </trkpt>
      <trkpt lat="45.34714" lon="5.63329">
        <ele>561</ele>
        <time>2023-02-16T09:59:09Z</time>
      </trkpt>
      <trkpt lat="45.34723" lon="5.63325">
        <ele>560</ele>
        <time>2023-02-16T09:59:10Z</time>
      </trkpt>
      <trkpt lat="45.34739" lon="5.63315">
        <ele>559</ele>
        <time>2023-02-16T09:59:12Z</time>
      </trkpt>
      <trkpt lat="45.34748" lon="5.63311">
        <ele>558</ele>
        <time>2023-02-16T09:59:13Z</time>
      </trkpt>
      <trkpt lat="45.34757" lon="5.63306">
        <ele>558</ele>
        <time>2023-02-16T09:59:14Z</time>
      </trkpt>
      <trkpt lat="45.34773" lon="5.63301">
        <ele>558</ele>
        <time>2023-02-16T09:59:16Z</time>
      </trkpt>
      <trkpt lat="45.3479" lon="5.63299">
        <ele>556</ele>
        <time>2023-02-16T09:59:18Z</time>
      </trkpt>
      <trkpt lat="45.34801" lon="5.63296">
        <ele>555</ele>
        <time>2023-02-16T09:59:20Z</time>
      </trkpt>
      <trkpt lat="45.3481" lon="5.63295">
        <ele>555</ele>
        <time>2023-02-16T09:59:22Z</time>
      </trkpt>
      <trkpt lat="45.34823" lon="5.63292">
        <ele>554</ele>
        <time>2023-02-16T09:59:25Z</time>
      </trkpt>
      <trkpt lat="45.3483" lon="5.63294">
        <ele>554</ele>
        <time>2023-02-16T09:59:27Z</time>
      </trkpt>
      <trkpt lat="45.34834" lon="5.63295">
        <ele>554</ele>
        <time>2023-02-16T09:59:28Z</time>
      </trkpt>
      <trkpt lat="45.34838" lon="5.63297">
        <ele>553</ele>
        <time>2023-02-16T09:59:29Z</time>
      </trkpt>
      <trkpt lat="45.34842" lon="5.63297">
        <ele>553</ele>
        <time>2023-02-16T09:59:30Z</time>
      </trkpt>
      <trkpt lat="45.34847" lon="5.63296">
        <ele>553</ele>
        <time>2023-02-16T09:59:31Z</time>
      </trkpt>
      <trkpt lat="45.34854" lon="5.63293">
        <ele>553</ele>
        <time>2023-02-16T09:59:33Z</time>
      </trkpt>
      <trkpt lat="45.34859" lon="5.63294">
        <ele>553</ele>
        <time>2023-02-16T09:59:35Z</time>
      </trkpt>
      <trkpt lat="45.34862" lon="5.63291">
        <ele>553</ele>
        <time>2023-02-16T09:59:36Z</time>
      </trkpt>
      <trkpt lat="45.34859" lon="5.63291">
        <ele>552</ele>
        <time>2023-02-16T09:59:40Z</time>
      </trkpt>
      <trkpt lat="45.34858" lon="5.63292">
        <ele>552</ele>
        <time>2023-02-16T09:59:41Z</time>
      </trkpt>
      <trkpt lat="45.34856" lon="5.63294">
        <ele>553</ele>
        <time>2023-02-16T09:59:42Z</time>
      </trkpt>
      <trkpt lat="45.34853" lon="5.63294">
        <ele>553</ele>
        <time>2023-02-16T09:59:43Z</time>
      </trkpt>
      <trkpt lat="45.3485" lon="5.63295">
        <ele>553</ele>
        <time>2023-02-16T09:59:44Z</time>
      </trkpt>
      <trkpt lat="45.34846" lon="5.63295">
        <ele>552</ele>
        <time>2023-02-16T09:59:45Z</time>
      </trkpt>
      <trkpt lat="45.34842" lon="5.63296">
        <ele>552</ele>
        <time>2023-02-16T09:59:46Z</time>
      </trkpt>
      <trkpt lat="45.34838" lon="5.63296">
        <ele>552</ele>
        <time>2023-02-16T09:59:47Z</time>
      </trkpt>
      <trkpt lat="45.34834" lon="5.63295">
        <ele>553</ele>
        <time>2023-02-16T09:59:48Z</time>
      </trkpt>
      <trkpt lat="45.34833" lon="5.63292">
        <ele>553</ele>
        <time>2023-02-16T09:59:49Z</time>
      </trkpt>
      <trkpt lat="45.34834" lon="5.63288">
        <ele>553</ele>
        <time>2023-02-16T09:59:50Z</time>
      </trkpt>
      <trkpt lat="45.34835" lon="5.63283">
        <ele>553</ele>
        <time>2023-02-16T09:59:51Z</time>
      </trkpt>
      <trkpt lat="45.34837" lon="5.63278">
        <ele>553</ele>
        <time>2023-02-16T09:59:52Z</time>
      </trkpt>
      <trkpt lat="45.34838" lon="5.63272">
        <ele>553</ele>
        <time>2023-02-16T09:59:53Z</time>
      </trkpt>
      <trkpt lat="45.34845" lon="5.63259">
        <ele>553</ele>
        <time>2023-02-16T09:59:55Z</time>
      </trkpt>
      <trkpt lat="45.34854" lon="5.6325">
        <ele>549</ele>
        <time>2023-02-16T09:59:57Z</time>
      </trkpt>
      <trkpt lat="45.34865" lon="5.63243">
        <ele>547</ele>
        <time>2023-02-16T09:59:59Z</time>
      </trkpt>
      <trkpt lat="45.34877" lon="5.63234">
        <ele>547</ele>
        <time>2023-02-16T10:00:01Z</time>
      </trkpt>
      <trkpt lat="45.34887" lon="5.63222">
        <ele>547</ele>
        <time>2023-02-16T10:00:03Z</time>
      </trkpt>
      <trkpt lat="45.34901" lon="5.63209">
        <ele>538</ele>
        <time>2023-02-16T10:00:05Z</time>
      </trkpt>
      <trkpt lat="45.34914" lon="5.63201">
        <ele>536</ele>
        <time>2023-02-16T10:00:07Z</time>
      </trkpt>
      <trkpt lat="45.34927" lon="5.63191">
        <ele>536</ele>
        <time>2023-02-16T10:00:09Z</time>
      </trkpt>
      <trkpt lat="45.34942" lon="5.6318">
        <ele>532</ele>
        <time>2023-02-16T10:00:11Z</time>
      </trkpt>
      <trkpt lat="45.3495" lon="5.63175">
        <ele>530</ele>
        <time>2023-02-16T10:00:12Z</time>
      </trkpt>
      <trkpt lat="45.34965" lon="5.63166">
        <ele>530</ele>
        <time>2023-02-16T10:00:14Z</time>
      </trkpt>
      <trkpt lat="45.3498" lon="5.63155">
        <ele>525</ele>
        <time>2023-02-16T10:00:16Z</time>
      </trkpt>
      <trkpt lat="45.34989" lon="5.63149">
        <ele>524</ele>
        <time>2023-02-16T10:00:17Z</time>
      </trkpt>
      <trkpt lat="45.34998" lon="5.63141">
        <ele>523</ele>
        <time>2023-02-16T10:00:18Z</time>
      </trkpt>
      <trkpt lat="45.35006" lon="5.63134">
        <ele>523</ele>
        <time>2023-02-16T10:00:19Z</time>
      </trkpt>
      <trkpt lat="45.35015" lon="5.63126">
        <ele>522</ele>
        <time>2023-02-16T10:00:20Z</time>
      </trkpt>
      <trkpt lat="45.35024" lon="5.63119">
        <ele>521</ele>
        <time>2023-02-16T10:00:21Z</time>
      </trkpt>
      <trkpt lat="45.35039" lon="5.6311">
        <ele>518</ele>
        <time>2023-02-16T10:00:24Z</time>
      </trkpt>
      <trkpt lat="45.35053" lon="5.63102">
        <ele>518</ele>
        <time>2023-02-16T10:00:25Z</time>
      </trkpt>
      <trkpt lat="45.35067" lon="5.63095">
        <ele>515</ele>
        <time>2023-02-16T10:00:27Z</time>
      </trkpt>
      <trkpt lat="45.35076" lon="5.63092">
        <ele>514</ele>
        <time>2023-02-16T10:00:29Z</time>
      </trkpt>
      <trkpt lat="45.35085" lon="5.6309">
        <ele>514</ele>
        <time>2023-02-16T10:00:31Z</time>
      </trkpt>
      <trkpt lat="45.35096" lon="5.63088">
        <ele>512</ele>
        <time>2023-02-16T10:00:33Z</time>
      </trkpt>
      <trkpt lat="45.35108" lon="5.63088">
        <ele>512</ele>
        <time>2023-02-16T10:00:35Z</time>
      </trkpt>
      <trkpt lat="45.35122" lon="5.6309">
        <ele>511</ele>
        <time>2023-02-16T10:00:37Z</time>
      </trkpt>
      <trkpt lat="45.35139" lon="5.63093">
        <ele>510</ele>
        <time>2023-02-16T10:00:39Z</time>
      </trkpt>
      <trkpt lat="45.35149" lon="5.63094">
        <ele>509</ele>
        <time>2023-02-16T10:00:40Z</time>
      </trkpt>
      <trkpt lat="45.35157" lon="5.63096">
        <ele>509</ele>
        <time>2023-02-16T10:00:41Z</time>
      </trkpt>
      <trkpt lat="45.35164" lon="5.63098">
        <ele>508</ele>
        <time>2023-02-16T10:00:42Z</time>
      </trkpt>
      <trkpt lat="45.3517" lon="5.63096">
        <ele>506</ele>
        <time>2023-02-16T10:00:43Z</time>
      </trkpt>
      <trkpt lat="45.35178" lon="5.63092">
        <ele>504</ele>
        <time>2023-02-16T10:00:44Z</time>
      </trkpt>
      <trkpt lat="45.35185" lon="5.63087">
        <ele>503</ele>
        <time>2023-02-16T10:00:45Z</time>
      </trkpt>
      <trkpt lat="45.35193" lon="5.6308">
        <ele>503</ele>
        <time>2023-02-16T10:00:46Z</time>
      </trkpt>
      <trkpt lat="45.35201" lon="5.63074">
        <ele>503</ele>
        <time>2023-02-16T10:00:47Z</time>
      </trkpt>
      <trkpt lat="45.35207" lon="5.63067">
        <ele>500</ele>
        <time>2023-02-16T10:00:48Z</time>
      </trkpt>
      <trkpt lat="45.35212" lon="5.63061">
        <ele>499</ele>
        <time>2023-02-16T10:00:49Z</time>
      </trkpt>
      <trkpt lat="45.35214" lon="5.63058">
        <ele>498</ele>
        <time>2023-02-16T10:00:50Z</time>
      </trkpt>
      <trkpt lat="45.35215" lon="5.63055">
        <ele>497</ele>
        <time>2023-02-16T10:00:52Z</time>
      </trkpt>
      <trkpt lat="45.35213" lon="5.63058">
        <ele>496</ele>
        <time>2023-02-16T10:00:56Z</time>
      </trkpt>
      <trkpt lat="45.35212" lon="5.6306">
        <ele>496</ele>
        <time>2023-02-16T10:01:04Z</time>
      </trkpt>
      <trkpt lat="45.35212" lon="5.6306">
        <ele>496</ele>
        <time>2023-02-16T10:01:06Z</time>
      </trkpt>
      <trkpt lat="45.35205" lon="5.63053">
        <ele>496</ele>
        <time>2023-02-16T10:01:12Z</time>
      </trkpt>
      <trkpt lat="45.35201" lon="5.63048">
        <ele>496</ele>
        <time>2023-02-16T10:01:13Z</time>
      </trkpt>
      <trkpt lat="45.35196" lon="5.63043">
        <ele>496</ele>
        <time>2023-02-16T10:01:14Z</time>
      </trkpt>
      <trkpt lat="45.35192" lon="5.63038">
        <ele>496</ele>
        <time>2023-02-16T10:01:15Z</time>
      </trkpt>
      <trkpt lat="45.35189" lon="5.63033">
        <ele>494</ele>
        <time>2023-02-16T10:01:16Z</time>
      </trkpt>
      <trkpt lat="45.35185" lon="5.63028">
        <ele>493</ele>
        <time>2023-02-16T10:01:17Z</time>
      </trkpt>
      <trkpt lat="45.35181" lon="5.63023">
        <ele>493</ele>
        <time>2023-02-16T10:01:18Z</time>
      </trkpt>
      <trkpt lat="45.35179" lon="5.63021">
        <ele>490</ele>
        <time>2023-02-16T10:01:19Z</time>
      </trkpt>
      <trkpt lat="45.35176" lon="5.63019">
        <ele>489</ele>
        <time>2023-02-16T10:01:20Z</time>
      </trkpt>
      <trkpt lat="45.35173" lon="5.63017">
        <ele>489</ele>
        <time>2023-02-16T10:01:21Z</time>
      </trkpt>
      <trkpt lat="45.35168" lon="5.63014">
        <ele>489</ele>
        <time>2023-02-16T10:01:22Z</time>
      </trkpt>
      <trkpt lat="45.35164" lon="5.63011">
        <ele>489</ele>
        <time>2023-02-16T10:01:23Z</time>
      </trkpt>
      <trkpt lat="45.35159" lon="5.63009">
        <ele>489</ele>
        <time>2023-02-16T10:01:24Z</time>
      </trkpt>
      <trkpt lat="45.35154" lon="5.63004">
        <ele>487</ele>
        <time>2023-02-16T10:01:25Z</time>
      </trkpt>
      <trkpt lat="45.35147" lon="5.62997">
        <ele>487</ele>
        <time>2023-02-16T10:01:26Z</time>
      </trkpt>
      <trkpt lat="45.3514" lon="5.62989">
        <ele>484</ele>
        <time>2023-02-16T10:01:27Z</time>
      </trkpt>
      <trkpt lat="45.35133" lon="5.62981">
        <ele>483</ele>
        <time>2023-02-16T10:01:28Z</time>
      </trkpt>
      <trkpt lat="45.35124" lon="5.62974">
        <ele>482</ele>
        <time>2023-02-16T10:01:29Z</time>
      </trkpt>
      <trkpt lat="45.35109" lon="5.62962">
        <ele>482</ele>
        <time>2023-02-16T10:01:31Z</time>
      </trkpt>
      <trkpt lat="45.35098" lon="5.62952">
        <ele>479</ele>
        <time>2023-02-16T10:01:32Z</time>
      </trkpt>
      <trkpt lat="45.35091" lon="5.62942">
        <ele>477</ele>
        <time>2023-02-16T10:01:33Z</time>
      </trkpt>
      <trkpt lat="45.3509" lon="5.62928">
        <ele>476</ele>
        <time>2023-02-16T10:01:34Z</time>
      </trkpt>
      <trkpt lat="45.35089" lon="5.62913">
        <ele>474</ele>
        <time>2023-02-16T10:01:35Z</time>
      </trkpt>
      <trkpt lat="45.3509" lon="5.62899">
        <ele>473</ele>
        <time>2023-02-16T10:01:36Z</time>
      </trkpt>
      <trkpt lat="45.35091" lon="5.62886">
        <ele>473</ele>
        <time>2023-02-16T10:01:37Z</time>
      </trkpt>
      <trkpt lat="45.35091" lon="5.62873">
        <ele>470</ele>
        <time>2023-02-16T10:01:38Z</time>
      </trkpt>
      <trkpt lat="45.3509" lon="5.6286">
        <ele>467</ele>
        <time>2023-02-16T10:01:39Z</time>
      </trkpt>
      <trkpt lat="45.35089" lon="5.62845">
        <ele>466</ele>
        <time>2023-02-16T10:01:40Z</time>
      </trkpt>
      <trkpt lat="45.35086" lon="5.62831">
        <ele>464</ele>
        <time>2023-02-16T10:01:41Z</time>
      </trkpt>
      <trkpt lat="45.35081" lon="5.62819">
        <ele>464</ele>
        <time>2023-02-16T10:01:42Z</time>
      </trkpt>
      <trkpt lat="45.35076" lon="5.6281">
        <ele>461</ele>
        <time>2023-02-16T10:01:43Z</time>
      </trkpt>
      <trkpt lat="45.35071" lon="5.62803">
        <ele>460</ele>
        <time>2023-02-16T10:01:44Z</time>
      </trkpt>
      <trkpt lat="45.35068" lon="5.62797">
        <ele>460</ele>
        <time>2023-02-16T10:01:45Z</time>
      </trkpt>
      <trkpt lat="45.35068" lon="5.62792">
        <ele>459</ele>
        <time>2023-02-16T10:01:46Z</time>
      </trkpt>
      <trkpt lat="45.35071" lon="5.6279">
        <ele>458</ele>
        <time>2023-02-16T10:01:47Z</time>
      </trkpt>
      <trkpt lat="45.35075" lon="5.62792">
        <ele>457</ele>
        <time>2023-02-16T10:01:48Z</time>
      </trkpt>
      <trkpt lat="45.35082" lon="5.62791">
        <ele>455</ele>
        <time>2023-02-16T10:01:49Z</time>
      </trkpt>
      <trkpt lat="45.35089" lon="5.62787">
        <ele>455</ele>
        <time>2023-02-16T10:01:50Z</time>
      </trkpt>
      <trkpt lat="45.35094" lon="5.62779">
        <ele>453</ele>
        <time>2023-02-16T10:01:51Z</time>
      </trkpt>
      <trkpt lat="45.35099" lon="5.6277">
        <ele>451</ele>
        <time>2023-02-16T10:01:52Z</time>
      </trkpt>
      <trkpt lat="45.35102" lon="5.62756">
        <ele>450</ele>
        <time>2023-02-16T10:01:53Z</time>
      </trkpt>
      <trkpt lat="45.35102" lon="5.62743">
        <ele>449</ele>
        <time>2023-02-16T10:01:54Z</time>
      </trkpt>
      <trkpt lat="45.35101" lon="5.6273">
        <ele>447</ele>
        <time>2023-02-16T10:01:55Z</time>
      </trkpt>
      <trkpt lat="45.351" lon="5.62718">
        <ele>447</ele>
        <time>2023-02-16T10:01:56Z</time>
      </trkpt>
      <trkpt lat="45.351" lon="5.62706">
        <ele>446</ele>
        <time>2023-02-16T10:01:57Z</time>
      </trkpt>
      <trkpt lat="45.35102" lon="5.62694">
        <ele>443</ele>
        <time>2023-02-16T10:01:58Z</time>
      </trkpt>
      <trkpt lat="45.35104" lon="5.62682">
        <ele>441</ele>
        <time>2023-02-16T10:01:59Z</time>
      </trkpt>
      <trkpt lat="45.35106" lon="5.6267">
        <ele>440</ele>
        <time>2023-02-16T10:02:00Z</time>
      </trkpt>
      <trkpt lat="45.35109" lon="5.62657">
        <ele>439</ele>
        <time>2023-02-16T10:02:01Z</time>
      </trkpt>
      <trkpt lat="45.35112" lon="5.62642">
        <ele>439</ele>
        <time>2023-02-16T10:02:02Z</time>
      </trkpt>
      <trkpt lat="45.35116" lon="5.62628">
        <ele>436</ele>
        <time>2023-02-16T10:02:03Z</time>
      </trkpt>
      <trkpt lat="45.35119" lon="5.62612">
        <ele>435</ele>
        <time>2023-02-16T10:02:04Z</time>
      </trkpt>
      <trkpt lat="45.35124" lon="5.62597">
        <ele>434</ele>
        <time>2023-02-16T10:02:05Z</time>
      </trkpt>
      <trkpt lat="45.35128" lon="5.62581">
        <ele>434</ele>
        <time>2023-02-16T10:02:06Z</time>
      </trkpt>
      <trkpt lat="45.35133" lon="5.62566">
        <ele>430</ele>
        <time>2023-02-16T10:02:07Z</time>
      </trkpt>
      <trkpt lat="45.35137" lon="5.62551">
        <ele>428</ele>
        <time>2023-02-16T10:02:08Z</time>
      </trkpt>
      <trkpt lat="45.35141" lon="5.62537">
        <ele>428</ele>
        <time>2023-02-16T10:02:09Z</time>
      </trkpt>
      <trkpt lat="45.35145" lon="5.62525">
        <ele>425</ele>
        <time>2023-02-16T10:02:10Z</time>
      </trkpt>
      <trkpt lat="45.35148" lon="5.62514">
        <ele>425</ele>
        <time>2023-02-16T10:02:11Z</time>
      </trkpt>
      <trkpt lat="45.35153" lon="5.62503">
        <ele>423</ele>
        <time>2023-02-16T10:02:12Z</time>
      </trkpt>
      <trkpt lat="45.35159" lon="5.62493">
        <ele>421</ele>
        <time>2023-02-16T10:02:13Z</time>
      </trkpt>
      <trkpt lat="45.35165" lon="5.62482">
        <ele>419</ele>
        <time>2023-02-16T10:02:14Z</time>
      </trkpt>
      <trkpt lat="45.35171" lon="5.62473">
        <ele>418</ele>
        <time>2023-02-16T10:02:15Z</time>
      </trkpt>
      <trkpt lat="45.35177" lon="5.62466">
        <ele>418</ele>
        <time>2023-02-16T10:02:16Z</time>
      </trkpt>
      <trkpt lat="45.35182" lon="5.62461">
        <ele>417</ele>
        <time>2023-02-16T10:02:17Z</time>
      </trkpt>
      <trkpt lat="45.35187" lon="5.62458">
        <ele>416</ele>
        <time>2023-02-16T10:02:18Z</time>
      </trkpt>
      <trkpt lat="45.35193" lon="5.62459">
        <ele>415</ele>
        <time>2023-02-16T10:02:19Z</time>
      </trkpt>
      <trkpt lat="45.35197" lon="5.62463">
        <ele>414</ele>
        <time>2023-02-16T10:02:20Z</time>
      </trkpt>
      <trkpt lat="45.35201" lon="5.62467">
        <ele>413</ele>
        <time>2023-02-16T10:02:21Z</time>
      </trkpt>
      <trkpt lat="45.35204" lon="5.62472">
        <ele>413</ele>
        <time>2023-02-16T10:02:22Z</time>
      </trkpt>
      <trkpt lat="45.35206" lon="5.62476">
        <ele>413</ele>
        <time>2023-02-16T10:02:23Z</time>
      </trkpt>
      <trkpt lat="45.35209" lon="5.62481">
        <ele>413</ele>
        <time>2023-02-16T10:02:24Z</time>
      </trkpt>
      <trkpt lat="45.35211" lon="5.62485">
        <ele>413</ele>
        <time>2023-02-16T10:02:25Z</time>
      </trkpt>
      <trkpt lat="45.35213" lon="5.62488">
        <ele>413</ele>
        <time>2023-02-16T10:02:26Z</time>
      </trkpt>
      <trkpt lat="45.35216" lon="5.62492">
        <ele>413</ele>
        <time>2023-02-16T10:02:27Z</time>
      </trkpt>
      <trkpt lat="45.35218" lon="5.62495">
        <ele>414</ele>
        <time>2023-02-16T10:02:28Z</time>
      </trkpt>
      <trkpt lat="45.35221" lon="5.62498">
        <ele>415</ele>
        <time>2023-02-16T10:02:29Z</time>
      </trkpt>
      <trkpt lat="45.35223" lon="5.62501">
        <ele>415</ele>
        <time>2023-02-16T10:02:30Z</time>
      </trkpt>
      <trkpt lat="45.35225" lon="5.62504">
        <ele>415</ele>
        <time>2023-02-16T10:02:31Z</time>
      </trkpt>
      <trkpt lat="45.35228" lon="5.62507">
        <ele>415</ele>
        <time>2023-02-16T10:02:32Z</time>
      </trkpt>
      <trkpt lat="45.3523" lon="5.6251">
        <ele>416</ele>
        <time>2023-02-16T10:02:33Z</time>
      </trkpt>
      <trkpt lat="45.35233" lon="5.62512">
        <ele>417</ele>
        <time>2023-02-16T10:02:34Z</time>
      </trkpt>
      <trkpt lat="45.35235" lon="5.62515">
        <ele>417</ele>
        <time>2023-02-16T10:02:35Z</time>
      </trkpt>
      <trkpt lat="45.35238" lon="5.62518">
        <ele>417</ele>
        <time>2023-02-16T10:02:36Z</time>
      </trkpt>
      <trkpt lat="45.3524" lon="5.62521">
        <ele>417</ele>
        <time>2023-02-16T10:02:37Z</time>
      </trkpt>
      <trkpt lat="45.35243" lon="5.62524">
        <ele>417</ele>
        <time>2023-02-16T10:02:38Z</time>
      </trkpt>
      <trkpt lat="45.35246" lon="5.62526">
        <ele>417</ele>
        <time>2023-02-16T10:02:39Z</time>
      </trkpt>
      <trkpt lat="45.35249" lon="5.62529">
        <ele>418</ele>
        <time>2023-02-16T10:02:40Z</time>
      </trkpt>
      <trkpt lat="45.35251" lon="5.62532">
        <ele>418</ele>
        <time>2023-02-16T10:02:41Z</time>
      </trkpt>
      <trkpt lat="45.35254" lon="5.62535">
        <ele>418</ele>
        <time>2023-02-16T10:02:42Z</time>
      </trkpt>
      <trkpt lat="45.35257" lon="5.62537">
        <ele>418</ele>
        <time>2023-02-16T10:02:43Z</time>
      </trkpt>
      <trkpt lat="45.35261" lon="5.6254">
        <ele>418</ele>
        <time>2023-02-16T10:02:44Z</time>
      </trkpt>
      <trkpt lat="45.35264" lon="5.62543">
        <ele>418</ele>
        <time>2023-02-16T10:02:45Z</time>
      </trkpt>
      <trkpt lat="45.35266" lon="5.62546">
        <ele>418</ele>
        <time>2023-02-16T10:02:46Z</time>
      </trkpt>
      <trkpt lat="45.35269" lon="5.62549">
        <ele>418</ele>
        <time>2023-02-16T10:02:47Z</time>
      </trkpt>
      <trkpt lat="45.35272" lon="5.62551">
        <ele>418</ele>
        <time>2023-02-16T10:02:48Z</time>
      </trkpt>
      <trkpt lat="45.35274" lon="5.62554">
        <ele>418</ele>
        <time>2023-02-16T10:02:49Z</time>
      </trkpt>
      <trkpt lat="45.35276" lon="5.62556">
        <ele>418</ele>
        <time>2023-02-16T10:02:50Z</time>
      </trkpt>
      <trkpt lat="45.35277" lon="5.62557">
        <ele>418</ele>
        <time>2023-02-16T10:02:56Z</time>
      </trkpt>
      <trkpt lat="45.35285" lon="5.62564">
        <ele>418</ele>
        <time>2023-02-16T10:03:45Z</time>
      </trkpt>
      <trkpt lat="45.35287" lon="5.62567">
        <ele>419</ele>
        <time>2023-02-16T10:03:46Z</time>
      </trkpt>
      <trkpt lat="45.3529" lon="5.6257">
        <ele>419</ele>
        <time>2023-02-16T10:03:47Z</time>
      </trkpt>
      <trkpt lat="45.35293" lon="5.62573">
        <ele>419</ele>
        <time>2023-02-16T10:03:48Z</time>
      </trkpt>
      <trkpt lat="45.35295" lon="5.62576">
        <ele>419</ele>
        <time>2023-02-16T10:03:49Z</time>
      </trkpt>
      <trkpt lat="45.35298" lon="5.62579">
        <ele>420</ele>
        <time>2023-02-16T10:03:50Z</time>
      </trkpt>
      <trkpt lat="45.35301" lon="5.62582">
        <ele>420</ele>
        <time>2023-02-16T10:03:51Z</time>
      </trkpt>
      <trkpt lat="45.35304" lon="5.62585">
        <ele>420</ele>
        <time>2023-02-16T10:03:52Z</time>
      </trkpt>
      <trkpt lat="45.35306" lon="5.62588">
        <ele>421</ele>
        <time>2023-02-16T10:03:53Z</time>
      </trkpt>
      <trkpt lat="45.35309" lon="5.62591">
        <ele>421</ele>
        <time>2023-02-16T10:03:54Z</time>
      </trkpt>
      <trkpt lat="45.35312" lon="5.62595">
        <ele>421</ele>
        <time>2023-02-16T10:03:55Z</time>
      </trkpt>
      <trkpt lat="45.35315" lon="5.62598">
        <ele>422</ele>
        <time>2023-02-16T10:03:56Z</time>
      </trkpt>
      <trkpt lat="45.35318" lon="5.626">
        <ele>422</ele>
        <time>2023-02-16T10:03:57Z</time>
      </trkpt>
      <trkpt lat="45.35322" lon="5.62602">
        <ele>422</ele>
        <time>2023-02-16T10:03:58Z</time>
      </trkpt>
      <trkpt lat="45.35325" lon="5.62604">
        <ele>422</ele>
        <time>2023-02-16T10:03:59Z</time>
      </trkpt>
      <trkpt lat="45.35329" lon="5.62606">
        <ele>422</ele>
        <time>2023-02-16T10:04:00Z</time>
      </trkpt>
      <trkpt lat="45.35333" lon="5.62607">
        <ele>423</ele>
        <time>2023-02-16T10:04:01Z</time>
      </trkpt>
      <trkpt lat="45.35337" lon="5.62608">
        <ele>423</ele>
        <time>2023-02-16T10:04:02Z</time>
      </trkpt>
      <trkpt lat="45.35341" lon="5.6261">
        <ele>423</ele>
        <time>2023-02-16T10:04:03Z</time>
      </trkpt>
      <trkpt lat="45.35345" lon="5.62611">
        <ele>423</ele>
        <time>2023-02-16T10:04:04Z</time>
      </trkpt>
      <trkpt lat="45.3535" lon="5.62612">
        <ele>423</ele>
        <time>2023-02-16T10:04:05Z</time>
      </trkpt>
      <trkpt lat="45.35354" lon="5.62613">
        <ele>423</ele>
        <time>2023-02-16T10:04:06Z</time>
      </trkpt>
      <trkpt lat="45.35358" lon="5.62615">
        <ele>423</ele>
        <time>2023-02-16T10:04:07Z</time>
      </trkpt>
      <trkpt lat="45.35363" lon="5.62617">
        <ele>423</ele>
        <time>2023-02-16T10:04:08Z</time>
      </trkpt>
      <trkpt lat="45.35367" lon="5.6262">
        <ele>423</ele>
        <time>2023-02-16T10:04:09Z</time>
      </trkpt>
      <trkpt lat="45.35371" lon="5.62622">
        <ele>423</ele>
        <time>2023-02-16T10:04:10Z</time>
      </trkpt>
      <trkpt lat="45.35376" lon="5.62624">
        <ele>423</ele>
        <time>2023-02-16T10:04:11Z</time>
      </trkpt>
      <trkpt lat="45.3538" lon="5.62626">
        <ele>423</ele>
        <time>2023-02-16T10:04:12Z</time>
      </trkpt>
      <trkpt lat="45.35385" lon="5.62628">
        <ele>423</ele>
        <time>2023-02-16T10:04:13Z</time>
      </trkpt>
      <trkpt lat="45.35389" lon="5.62629">
        <ele>423</ele>
        <time>2023-02-16T10:04:14Z</time>
      </trkpt>
      <trkpt lat="45.35394" lon="5.62631">
        <ele>423</ele>
        <time>2023-02-16T10:04:15Z</time>
      </trkpt>
      <trkpt lat="45.35398" lon="5.62632">
        <ele>423</ele>
        <time>2023-02-16T10:04:16Z</time>
      </trkpt>
      <trkpt lat="45.35403" lon="5.62634">
        <ele>423</ele>
        <time>2023-02-16T10:04:17Z</time>
      </trkpt>
      <trkpt lat="45.35407" lon="5.62635">
        <ele>423</ele>
        <time>2023-02-16T10:04:18Z</time>
      </trkpt>
      <trkpt lat="45.35412" lon="5.62637">
        <ele>423</ele>
        <time>2023-02-16T10:04:19Z</time>
      </trkpt>
      <trkpt lat="45.35416" lon="5.62638">
        <ele>423</ele>
        <time>2023-02-16T10:04:20Z</time>
      </trkpt>
      <trkpt lat="45.3542" lon="5.6264">
        <ele>423</ele>
        <time>2023-02-16T10:04:21Z</time>
      </trkpt>
      <trkpt lat="45.35424" lon="5.62641">
        <ele>423</ele>
        <time>2023-02-16T10:04:22Z</time>
      </trkpt>
      <trkpt lat="45.35429" lon="5.62643">
        <ele>423</ele>
        <time>2023-02-16T10:04:23Z</time>
      </trkpt>
      <trkpt lat="45.35433" lon="5.62644">
        <ele>423</ele>
        <time>2023-02-16T10:04:24Z</time>
      </trkpt>
      <trkpt lat="45.35437" lon="5.62645">
        <ele>423</ele>
        <time>2023-02-16T10:04:25Z</time>
      </trkpt>
      <trkpt lat="45.35441" lon="5.62646">
        <ele>423</ele>
        <time>2023-02-16T10:04:26Z</time>
      </trkpt>
      <trkpt lat="45.35446" lon="5.62647">
        <ele>423</ele>
        <time>2023-02-16T10:04:27Z</time>
      </trkpt>
      <trkpt lat="45.3545" lon="5.62649">
        <ele>423</ele>
        <time>2023-02-16T10:04:28Z</time>
      </trkpt>
      <trkpt lat="45.35454" lon="5.6265">
        <ele>423</ele>
        <time>2023-02-16T10:04:29Z</time>
      </trkpt>
      <trkpt lat="45.35459" lon="5.6265">
        <ele>423</ele>
        <time>2023-02-16T10:04:30Z</time>
      </trkpt>
      <trkpt lat="45.35463" lon="5.62652">
        <ele>424</ele>
        <time>2023-02-16T10:04:31Z</time>
      </trkpt>
      <trkpt lat="45.35467" lon="5.62653">
        <ele>424</ele>
        <time>2023-02-16T10:04:32Z</time>
      </trkpt>
      <trkpt lat="45.35471" lon="5.62654">
        <ele>424</ele>
        <time>2023-02-16T10:04:33Z</time>
      </trkpt>
      <trkpt lat="45.35476" lon="5.62655">
        <ele>424</ele>
        <time>2023-02-16T10:04:34Z</time>
      </trkpt>
      <trkpt lat="45.3548" lon="5.62657">
        <ele>424</ele>
        <time>2023-02-16T10:04:35Z</time>
      </trkpt>
      <trkpt lat="45.35484" lon="5.62658">
        <ele>424</ele>
        <time>2023-02-16T10:04:36Z</time>
      </trkpt>
      <trkpt lat="45.35488" lon="5.6266">
        <ele>424</ele>
        <time>2023-02-16T10:04:37Z</time>
      </trkpt>
      <trkpt lat="45.35491" lon="5.62662">
        <ele>424</ele>
        <time>2023-02-16T10:04:38Z</time>
      </trkpt>
      <trkpt lat="45.35495" lon="5.62663">
        <ele>424</ele>
        <time>2023-02-16T10:04:39Z</time>
      </trkpt>
      <trkpt lat="45.35499" lon="5.62665">
        <ele>424</ele>
        <time>2023-02-16T10:04:40Z</time>
      </trkpt>
      <trkpt lat="45.35504" lon="5.62666">
        <ele>424</ele>
        <time>2023-02-16T10:04:41Z</time>
      </trkpt>
      <trkpt lat="45.35509" lon="5.62668">
        <ele>424</ele>
        <time>2023-02-16T10:04:42Z</time>
      </trkpt>
      <trkpt lat="45.35514" lon="5.62669">
        <ele>424</ele>
        <time>2023-02-16T10:04:43Z</time>
      </trkpt>
      <trkpt lat="45.35518" lon="5.62671">
        <ele>424</ele>
        <time>2023-02-16T10:04:44Z</time>
      </trkpt>
      <trkpt lat="45.35523" lon="5.62672">
        <ele>423</ele>
        <time>2023-02-16T10:04:45Z</time>
      </trkpt>
      <trkpt lat="45.35528" lon="5.62672">
        <ele>423</ele>
        <time>2023-02-16T10:04:46Z</time>
      </trkpt>
      <trkpt lat="45.35533" lon="5.62672">
        <ele>423</ele>
        <time>2023-02-16T10:04:47Z</time>
      </trkpt>
      <trkpt lat="45.35538" lon="5.62672">
        <ele>423</ele>
        <time>2023-02-16T10:04:48Z</time>
      </trkpt>
      <trkpt lat="45.35545" lon="5.62671">
        <ele>423</ele>
        <time>2023-02-16T10:04:49Z</time>
      </trkpt>
      <trkpt lat="45.35553" lon="5.6267">
        <ele>423</ele>
        <time>2023-02-16T10:04:50Z</time>
      </trkpt>
      <trkpt lat="45.35561" lon="5.62668">
        <ele>423</ele>
        <time>2023-02-16T10:04:51Z</time>
      </trkpt>
      <trkpt lat="45.35569" lon="5.62667">
        <ele>422</ele>
        <time>2023-02-16T10:04:52Z</time>
      </trkpt>
      <trkpt lat="45.35578" lon="5.62666">
        <ele>422</ele>
        <time>2023-02-16T10:04:53Z</time>
      </trkpt>
      <trkpt lat="45.35587" lon="5.62666">
        <ele>420</ele>
        <time>2023-02-16T10:04:54Z</time>
      </trkpt>
      <trkpt lat="45.35597" lon="5.62667">
        <ele>420</ele>
        <time>2023-02-16T10:04:55Z</time>
      </trkpt>
      <trkpt lat="45.35606" lon="5.62669">
        <ele>419</ele>
        <time>2023-02-16T10:04:56Z</time>
      </trkpt>
      <trkpt lat="45.35616" lon="5.6267">
        <ele>419</ele>
        <time>2023-02-16T10:04:57Z</time>
      </trkpt>
      <trkpt lat="45.35625" lon="5.62671">
        <ele>417</ele>
        <time>2023-02-16T10:04:58Z</time>
      </trkpt>
      <trkpt lat="45.35634" lon="5.62673">
        <ele>417</ele>
        <time>2023-02-16T10:04:59Z</time>
      </trkpt>
      <trkpt lat="45.35643" lon="5.62673">
        <ele>417</ele>
        <time>2023-02-16T10:05:00Z</time>
      </trkpt>
      <trkpt lat="45.35651" lon="5.62674">
        <ele>417</ele>
        <time>2023-02-16T10:05:01Z</time>
      </trkpt>
      <trkpt lat="45.3566" lon="5.62675">
        <ele>417</ele>
        <time>2023-02-16T10:05:02Z</time>
      </trkpt>
      <trkpt lat="45.35668" lon="5.62676">
        <ele>417</ele>
        <time>2023-02-16T10:05:03Z</time>
      </trkpt>
      <trkpt lat="45.35676" lon="5.62677">
        <ele>416</ele>
        <time>2023-02-16T10:05:04Z</time>
      </trkpt>
      <trkpt lat="45.35684" lon="5.62679">
        <ele>416</ele>
        <time>2023-02-16T10:05:05Z</time>
      </trkpt>
      <trkpt lat="45.35692" lon="5.62681">
        <ele>416</ele>
        <time>2023-02-16T10:05:06Z</time>
      </trkpt>
      <trkpt lat="45.357" lon="5.62683">
        <ele>415</ele>
        <time>2023-02-16T10:05:07Z</time>
      </trkpt>
      <trkpt lat="45.35708" lon="5.62685">
        <ele>415</ele>
        <time>2023-02-16T10:05:08Z</time>
      </trkpt>
      <trkpt lat="45.35716" lon="5.62687">
        <ele>415</ele>
        <time>2023-02-16T10:05:09Z</time>
      </trkpt>
      <trkpt lat="45.35724" lon="5.62688">
        <ele>415</ele>
        <time>2023-02-16T10:05:10Z</time>
      </trkpt>
      <trkpt lat="45.35731" lon="5.62688">
        <ele>415</ele>
        <time>2023-02-16T10:05:11Z</time>
      </trkpt>
      <trkpt lat="45.35739" lon="5.62687">
        <ele>415</ele>
        <time>2023-02-16T10:05:12Z</time>
      </trkpt>
      <trkpt lat="45.35747" lon="5.62686">
        <ele>415</ele>
        <time>2023-02-16T10:05:13Z</time>
      </trkpt>
      <trkpt lat="45.35754" lon="5.62684">
        <ele>415</ele>
        <time>2023-02-16T10:05:14Z</time>
      </trkpt>
      <trkpt lat="45.35762" lon="5.62681">
        <ele>414</ele>
        <time>2023-02-16T10:05:15Z</time>
      </trkpt>
      <trkpt lat="45.35769" lon="5.62678">
        <ele>414</ele>
        <time>2023-02-16T10:05:16Z</time>
      </trkpt>
      <trkpt lat="45.35777" lon="5.62675">
        <ele>414</ele>
        <time>2023-02-16T10:05:17Z</time>
      </trkpt>
      <trkpt lat="45.35784" lon="5.62671">
        <ele>414</ele>
        <time>2023-02-16T10:05:18Z</time>
      </trkpt>
      <trkpt lat="45.35792" lon="5.62667">
        <ele>414</ele>
        <time>2023-02-16T10:05:19Z</time>
      </trkpt>
      <trkpt lat="45.35799" lon="5.62663">
        <ele>414</ele>
        <time>2023-02-16T10:05:20Z</time>
      </trkpt>
      <trkpt lat="45.35806" lon="5.62658">
        <ele>414</ele>
        <time>2023-02-16T10:05:21Z</time>
      </trkpt>
      <trkpt lat="45.35813" lon="5.62653">
        <ele>414</ele>
        <time>2023-02-16T10:05:22Z</time>
      </trkpt>
      <trkpt lat="45.3582" lon="5.62648">
        <ele>414</ele>
        <time>2023-02-16T10:05:23Z</time>
      </trkpt>
      <trkpt lat="45.35827" lon="5.62644">
        <ele>414</ele>
        <time>2023-02-16T10:05:24Z</time>
      </trkpt>
      <trkpt lat="45.35834" lon="5.6264">
        <ele>414</ele>
        <time>2023-02-16T10:05:25Z</time>
      </trkpt>
      <trkpt lat="45.35841" lon="5.62638">
        <ele>413</ele>
        <time>2023-02-16T10:05:26Z</time>
      </trkpt>
      <trkpt lat="45.35849" lon="5.62635">
        <ele>413</ele>
        <time>2023-02-16T10:05:27Z</time>
      </trkpt>
      <trkpt lat="45.35856" lon="5.62633">
        <ele>413</ele>
        <time>2023-02-16T10:05:28Z</time>
      </trkpt>
      <trkpt lat="45.35863" lon="5.62631">
        <ele>413</ele>
        <time>2023-02-16T10:05:29Z</time>
      </trkpt>
      <trkpt lat="45.35869" lon="5.6263">
        <ele>413</ele>
        <time>2023-02-16T10:05:30Z</time>
      </trkpt>
      <trkpt lat="45.35876" lon="5.6263">
        <ele>413</ele>
        <time>2023-02-16T10:05:31Z</time>
      </trkpt>
      <trkpt lat="45.35882" lon="5.6263">
        <ele>413</ele>
        <time>2023-02-16T10:05:32Z</time>
      </trkpt>
      <trkpt lat="45.35888" lon="5.6263">
        <ele>413</ele>
        <time>2023-02-16T10:05:33Z</time>
      </trkpt>
      <trkpt lat="45.35893" lon="5.6263">
        <ele>414</ele>
        <time>2023-02-16T10:05:34Z</time>
      </trkpt>
      <trkpt lat="45.35898" lon="5.62629">
        <ele>413</ele>
        <time>2023-02-16T10:05:35Z</time>
      </trkpt>
      <trkpt lat="45.35903" lon="5.62629">
        <ele>413</ele>
        <time>2023-02-16T10:05:36Z</time>
      </trkpt>
      <trkpt lat="45.35907" lon="5.62629">
        <ele>414</ele>
        <time>2023-02-16T10:05:37Z</time>
      </trkpt>
      <trkpt lat="45.35912" lon="5.62628">
        <ele>414</ele>
        <time>2023-02-16T10:05:38Z</time>
      </trkpt>
      <trkpt lat="45.35916" lon="5.62627">
        <ele>414</ele>
        <time>2023-02-16T10:05:39Z</time>
      </trkpt>
      <trkpt lat="45.3592" lon="5.62626">
        <ele>414</ele>
        <time>2023-02-16T10:05:40Z</time>
      </trkpt>
      <trkpt lat="45.35924" lon="5.62624">
        <ele>415</ele>
        <time>2023-02-16T10:05:41Z</time>
      </trkpt>
      <trkpt lat="45.35928" lon="5.62623">
        <ele>415</ele>
        <time>2023-02-16T10:05:42Z</time>
      </trkpt>
      <trkpt lat="45.35932" lon="5.62622">
        <ele>417</ele>
        <time>2023-02-16T10:05:43Z</time>
      </trkpt>
      <trkpt lat="45.35936" lon="5.62621">
        <ele>417</ele>
        <time>2023-02-16T10:05:44Z</time>
      </trkpt>
      <trkpt lat="45.35939" lon="5.62619">
        <ele>417</ele>
        <time>2023-02-16T10:05:45Z</time>
      </trkpt>
      <trkpt lat="45.35943" lon="5.62619">
        <ele>417</ele>
        <time>2023-02-16T10:05:46Z</time>
      </trkpt>
      <trkpt lat="45.35947" lon="5.62618">
        <ele>417</ele>
        <time>2023-02-16T10:05:47Z</time>
      </trkpt>
      <trkpt lat="45.35951" lon="5.62619">
        <ele>417</ele>
        <time>2023-02-16T10:05:48Z</time>
      </trkpt>
      <trkpt lat="45.35955" lon="5.62619">
        <ele>417</ele>
        <time>2023-02-16T10:05:49Z</time>
      </trkpt>
      <trkpt lat="45.35959" lon="5.6262">
        <ele>417</ele>
        <time>2023-02-16T10:05:50Z</time>
      </trkpt>
      <trkpt lat="45.35963" lon="5.62621">
        <ele>417</ele>
        <time>2023-02-16T10:05:51Z</time>
      </trkpt>
      <trkpt lat="45.35966" lon="5.62623">
        <ele>417</ele>
        <time>2023-02-16T10:05:52Z</time>
      </trkpt>
      <trkpt lat="45.3597" lon="5.62626">
        <ele>418</ele>
        <time>2023-02-16T10:05:53Z</time>
      </trkpt>
      <trkpt lat="45.35973" lon="5.62629">
        <ele>418</ele>
        <time>2023-02-16T10:05:54Z</time>
      </trkpt>
      <trkpt lat="45.35975" lon="5.62632">
        <ele>419</ele>
        <time>2023-02-16T10:05:55Z</time>
      </trkpt>
      <trkpt lat="45.35978" lon="5.62635">
        <ele>419</ele>
        <time>2023-02-16T10:05:56Z</time>
      </trkpt>
      <trkpt lat="45.3598" lon="5.62638">
        <ele>419</ele>
        <time>2023-02-16T10:05:57Z</time>
      </trkpt>
      <trkpt lat="45.35982" lon="5.6264">
        <ele>419</ele>
        <time>2023-02-16T10:05:58Z</time>
      </trkpt>
      <trkpt lat="45.35984" lon="5.62643">
        <ele>420</ele>
        <time>2023-02-16T10:05:59Z</time>
      </trkpt>
      <trkpt lat="45.35986" lon="5.62646">
        <ele>420</ele>
        <time>2023-02-16T10:06:00Z</time>
      </trkpt>
      <trkpt lat="45.35988" lon="5.62649">
        <ele>420</ele>
        <time>2023-02-16T10:06:01Z</time>
      </trkpt>
      <trkpt lat="45.35989" lon="5.62652">
        <ele>421</ele>
        <time>2023-02-16T10:06:02Z</time>
      </trkpt>
      <trkpt lat="45.35991" lon="5.62655">
        <ele>421</ele>
        <time>2023-02-16T10:06:03Z</time>
      </trkpt>
      <trkpt lat="45.35993" lon="5.62658">
        <ele>421</ele>
        <time>2023-02-16T10:06:04Z</time>
      </trkpt>
      <trkpt lat="45.35995" lon="5.62661">
        <ele>421</ele>
        <time>2023-02-16T10:06:05Z</time>
      </trkpt>
      <trkpt lat="45.35996" lon="5.62664">
        <ele>422</ele>
        <time>2023-02-16T10:06:06Z</time>
      </trkpt>
      <trkpt lat="45.35998" lon="5.62668">
        <ele>422</ele>
        <time>2023-02-16T10:06:07Z</time>
      </trkpt>
      <trkpt lat="45.36001" lon="5.62671">
        <ele>423</ele>
        <time>2023-02-16T10:06:08Z</time>
      </trkpt>
      <trkpt lat="45.36003" lon="5.62674">
        <ele>423</ele>
        <time>2023-02-16T10:06:09Z</time>
      </trkpt>
      <trkpt lat="45.36005" lon="5.62677">
        <ele>423</ele>
        <time>2023-02-16T10:06:10Z</time>
      </trkpt>
      <trkpt lat="45.36007" lon="5.6268">
        <ele>423</ele>
        <time>2023-02-16T10:06:11Z</time>
      </trkpt>
      <trkpt lat="45.36009" lon="5.62684">
        <ele>423</ele>
        <time>2023-02-16T10:06:12Z</time>
      </trkpt>
      <trkpt lat="45.36011" lon="5.62688">
        <ele>423</ele>
        <time>2023-02-16T10:06:13Z</time>
      </trkpt>
      <trkpt lat="45.36013" lon="5.62693">
        <ele>423</ele>
        <time>2023-02-16T10:06:14Z</time>
      </trkpt>
      <trkpt lat="45.36014" lon="5.62699">
        <ele>423</ele>
        <time>2023-02-16T10:06:15Z</time>
      </trkpt>
      <trkpt lat="45.36014" lon="5.62705">
        <ele>423</ele>
        <time>2023-02-16T10:06:16Z</time>
      </trkpt>
      <trkpt lat="45.36012" lon="5.6271">
        <ele>423</ele>
        <time>2023-02-16T10:06:17Z</time>
      </trkpt>
      <trkpt lat="45.36012" lon="5.62716">
        <ele>423</ele>
        <time>2023-02-16T10:06:18Z</time>
      </trkpt>
      <trkpt lat="45.3601" lon="5.62722">
        <ele>423</ele>
        <time>2023-02-16T10:06:19Z</time>
      </trkpt>
      <trkpt lat="45.36009" lon="5.62727">
        <ele>423</ele>
        <time>2023-02-16T10:06:20Z</time>
      </trkpt>
      <trkpt lat="45.36007" lon="5.62732">
        <ele>423</ele>
        <time>2023-02-16T10:06:21Z</time>
      </trkpt>
      <trkpt lat="45.36006" lon="5.62738">
        <ele>423</ele>
        <time>2023-02-16T10:06:22Z</time>
      </trkpt>
      <trkpt lat="45.36005" lon="5.62743">
        <ele>423</ele>
        <time>2023-02-16T10:06:23Z</time>
      </trkpt>
      <trkpt lat="45.36004" lon="5.62748">
        <ele>423</ele>
        <time>2023-02-16T10:06:24Z</time>
      </trkpt>
      <trkpt lat="45.36002" lon="5.62754">
        <ele>423</ele>
        <time>2023-02-16T10:06:25Z</time>
      </trkpt>
      <trkpt lat="45.36001" lon="5.6276">
        <ele>423</ele>
        <time>2023-02-16T10:06:26Z</time>
      </trkpt>
      <trkpt lat="45.36" lon="5.62765">
        <ele>423</ele>
        <time>2023-02-16T10:06:27Z</time>
      </trkpt>
      <trkpt lat="45.35999" lon="5.62771">
        <ele>423</ele>
        <time>2023-02-16T10:06:28Z</time>
      </trkpt>
      <trkpt lat="45.35998" lon="5.62777">
        <ele>423</ele>
        <time>2023-02-16T10:06:29Z</time>
      </trkpt>
      <trkpt lat="45.35997" lon="5.62783">
        <ele>423</ele>
        <time>2023-02-16T10:06:30Z</time>
      </trkpt>
      <trkpt lat="45.35996" lon="5.62789">
        <ele>424</ele>
        <time>2023-02-16T10:06:31Z</time>
      </trkpt>
      <trkpt lat="45.35995" lon="5.62795">
        <ele>424</ele>
        <time>2023-02-16T10:06:32Z</time>
      </trkpt>
      <trkpt lat="45.35994" lon="5.628">
        <ele>425</ele>
        <time>2023-02-16T10:06:33Z</time>
      </trkpt>
      <trkpt lat="45.35992" lon="5.62806">
        <ele>425</ele>
        <time>2023-02-16T10:06:34Z</time>
      </trkpt>
      <trkpt lat="45.35991" lon="5.62812">
        <ele>425</ele>
        <time>2023-02-16T10:06:35Z</time>
      </trkpt>
      <trkpt lat="45.3599" lon="5.62818">
        <ele>425</ele>
        <time>2023-02-16T10:06:36Z</time>
      </trkpt>
      <trkpt lat="45.35989" lon="5.62824">
        <ele>425</ele>
        <time>2023-02-16T10:06:37Z</time>
      </trkpt>
      <trkpt lat="45.35988" lon="5.62829">
        <ele>425</ele>
        <time>2023-02-16T10:06:38Z</time>
      </trkpt>
      <trkpt lat="45.35987" lon="5.62835">
        <ele>425</ele>
        <time>2023-02-16T10:06:39Z</time>
      </trkpt>
      <trkpt lat="45.35986" lon="5.62841">
        <ele>425</ele>
        <time>2023-02-16T10:06:40Z</time>
      </trkpt>
      <trkpt lat="45.35985" lon="5.62846">
        <ele>426</ele>
        <time>2023-02-16T10:06:41Z</time>
      </trkpt>
      <trkpt lat="45.35984" lon="5.62852">
        <ele>426</ele>
        <time>2023-02-16T10:06:42Z</time>
      </trkpt>
      <trkpt lat="45.35983" lon="5.62857">
        <ele>426</ele>
        <time>2023-02-16T10:06:43Z</time>
      </trkpt>
      <trkpt lat="45.35981" lon="5.62863">
        <ele>426</ele>
        <time>2023-02-16T10:06:44Z</time>
      </trkpt>
      <trkpt lat="45.3598" lon="5.62868">
        <ele>426</ele>
        <time>2023-02-16T10:06:45Z</time>
      </trkpt>
      <trkpt lat="45.35979" lon="5.62874">
        <ele>426</ele>
        <time>2023-02-16T10:06:46Z</time>
      </trkpt>
      <trkpt lat="45.35979" lon="5.62879">
        <ele>426</ele>
        <time>2023-02-16T10:06:47Z</time>
      </trkpt>
      <trkpt lat="45.35978" lon="5.62884">
        <ele>427</ele>
        <time>2023-02-16T10:06:48Z</time>
      </trkpt>
      <trkpt lat="45.35977" lon="5.62889">
        <ele>427</ele>
        <time>2023-02-16T10:06:49Z</time>
      </trkpt>
      <trkpt lat="45.35976" lon="5.62894">
        <ele>428</ele>
        <time>2023-02-16T10:06:50Z</time>
      </trkpt>
      <trkpt lat="45.35975" lon="5.62899">
        <ele>428</ele>
        <time>2023-02-16T10:06:51Z</time>
      </trkpt>
      <trkpt lat="45.35975" lon="5.62904">
        <ele>428</ele>
        <time>2023-02-16T10:06:52Z</time>
      </trkpt>
      <trkpt lat="45.35974" lon="5.62909">
        <ele>428</ele>
        <time>2023-02-16T10:06:53Z</time>
      </trkpt>
      <trkpt lat="45.35973" lon="5.62914">
        <ele>428</ele>
        <time>2023-02-16T10:06:54Z</time>
      </trkpt>
      <trkpt lat="45.35972" lon="5.62918">
        <ele>428</ele>
        <time>2023-02-16T10:06:55Z</time>
      </trkpt>
      <trkpt lat="45.35972" lon="5.62923">
        <ele>429</ele>
        <time>2023-02-16T10:06:56Z</time>
      </trkpt>
      <trkpt lat="45.35971" lon="5.62928">
        <ele>429</ele>
        <time>2023-02-16T10:06:57Z</time>
      </trkpt>
      <trkpt lat="45.3597" lon="5.62932">
        <ele>430</ele>
        <time>2023-02-16T10:06:58Z</time>
      </trkpt>
      <trkpt lat="45.35969" lon="5.62937">
        <ele>430</ele>
        <time>2023-02-16T10:06:59Z</time>
      </trkpt>
      <trkpt lat="45.35969" lon="5.62942">
        <ele>430</ele>
        <time>2023-02-16T10:07:00Z</time>
      </trkpt>
      <trkpt lat="45.35969" lon="5.62946">
        <ele>430</ele>
        <time>2023-02-16T10:07:01Z</time>
      </trkpt>
      <trkpt lat="45.3597" lon="5.62951">
        <ele>430</ele>
        <time>2023-02-16T10:07:02Z</time>
      </trkpt>
      <trkpt lat="45.35971" lon="5.62955">
        <ele>430</ele>
        <time>2023-02-16T10:07:03Z</time>
      </trkpt>
      <trkpt lat="45.35972" lon="5.6296">
        <ele>430</ele>
        <time>2023-02-16T10:07:04Z</time>
      </trkpt>
      <trkpt lat="45.35974" lon="5.62964">
        <ele>430</ele>
        <time>2023-02-16T10:07:05Z</time>
      </trkpt>
      <trkpt lat="45.35975" lon="5.62969">
        <ele>431</ele>
        <time>2023-02-16T10:07:06Z</time>
      </trkpt>
      <trkpt lat="45.35978" lon="5.62972">
        <ele>431</ele>
        <time>2023-02-16T10:07:07Z</time>
      </trkpt>
      <trkpt lat="45.35981" lon="5.62975">
        <ele>431</ele>
        <time>2023-02-16T10:07:08Z</time>
      </trkpt>
      <trkpt lat="45.35984" lon="5.62976">
        <ele>431</ele>
        <time>2023-02-16T10:07:09Z</time>
      </trkpt>
      <trkpt lat="45.35987" lon="5.62977">
        <ele>431</ele>
        <time>2023-02-16T10:07:10Z</time>
      </trkpt>
      <trkpt lat="45.35991" lon="5.62978">
        <ele>432</ele>
        <time>2023-02-16T10:07:11Z</time>
      </trkpt>
      <trkpt lat="45.35994" lon="5.62979">
        <ele>432</ele>
        <time>2023-02-16T10:07:12Z</time>
      </trkpt>
      <trkpt lat="45.35998" lon="5.6298">
        <ele>432</ele>
        <time>2023-02-16T10:07:13Z</time>
      </trkpt>
      <trkpt lat="45.36002" lon="5.62981">
        <ele>432</ele>
        <time>2023-02-16T10:07:14Z</time>
      </trkpt>
      <trkpt lat="45.36006" lon="5.62982">
        <ele>432</ele>
        <time>2023-02-16T10:07:15Z</time>
      </trkpt>
      <trkpt lat="45.36011" lon="5.62982">
        <ele>432</ele>
        <time>2023-02-16T10:07:16Z</time>
      </trkpt>
      <trkpt lat="45.36016" lon="5.62983">
        <ele>432</ele>
        <time>2023-02-16T10:07:17Z</time>
      </trkpt>
      <trkpt lat="45.3602" lon="5.62984">
        <ele>432</ele>
        <time>2023-02-16T10:07:18Z</time>
      </trkpt>
      <trkpt lat="45.36025" lon="5.62984">
        <ele>432</ele>
        <time>2023-02-16T10:07:19Z</time>
      </trkpt>
      <trkpt lat="45.3603" lon="5.62985">
        <ele>432</ele>
        <time>2023-02-16T10:07:20Z</time>
      </trkpt>
      <trkpt lat="45.36035" lon="5.62985">
        <ele>432</ele>
        <time>2023-02-16T10:07:21Z</time>
      </trkpt>
      <trkpt lat="45.3604" lon="5.62985">
        <ele>433</ele>
        <time>2023-02-16T10:07:22Z</time>
      </trkpt>
      <trkpt lat="45.36044" lon="5.62986">
        <ele>433</ele>
        <time>2023-02-16T10:07:23Z</time>
      </trkpt>
      <trkpt lat="45.3605" lon="5.62986">
        <ele>433</ele>
        <time>2023-02-16T10:07:24Z</time>
      </trkpt>
      <trkpt lat="45.36055" lon="5.62986">
        <ele>433</ele>
        <time>2023-02-16T10:07:25Z</time>
      </trkpt>
      <trkpt lat="45.3606" lon="5.62986">
        <ele>433</ele>
        <time>2023-02-16T10:07:26Z</time>
      </trkpt>
      <trkpt lat="45.36065" lon="5.62986">
        <ele>433</ele>
        <time>2023-02-16T10:07:27Z</time>
      </trkpt>
      <trkpt lat="45.36072" lon="5.62986">
        <ele>433</ele>
        <time>2023-02-16T10:07:28Z</time>
      </trkpt>
      <trkpt lat="45.36078" lon="5.62987">
        <ele>432</ele>
        <time>2023-02-16T10:07:29Z</time>
      </trkpt>
      <trkpt lat="45.36084" lon="5.62988">
        <ele>432</ele>
        <time>2023-02-16T10:07:30Z</time>
      </trkpt>
      <trkpt lat="45.3609" lon="5.6299">
        <ele>432</ele>
        <time>2023-02-16T10:07:31Z</time>
      </trkpt>
      <trkpt lat="45.36095" lon="5.62992">
        <ele>432</ele>
        <time>2023-02-16T10:07:32Z</time>
      </trkpt>
      <trkpt lat="45.36101" lon="5.62994">
        <ele>432</ele>
        <time>2023-02-16T10:07:33Z</time>
      </trkpt>
      <trkpt lat="45.36107" lon="5.62997">
        <ele>432</ele>
        <time>2023-02-16T10:07:34Z</time>
      </trkpt>
      <trkpt lat="45.36113" lon="5.63">
        <ele>432</ele>
        <time>2023-02-16T10:07:35Z</time>
      </trkpt>
      <trkpt lat="45.36118" lon="5.63004">
        <ele>432</ele>
        <time>2023-02-16T10:07:36Z</time>
      </trkpt>
      <trkpt lat="45.36124" lon="5.63008">
        <ele>432</ele>
        <time>2023-02-16T10:07:37Z</time>
      </trkpt>
      <trkpt lat="45.3613" lon="5.63011">
        <ele>432</ele>
        <time>2023-02-16T10:07:38Z</time>
      </trkpt>
      <trkpt lat="45.36137" lon="5.63015">
        <ele>432</ele>
        <time>2023-02-16T10:07:39Z</time>
      </trkpt>
      <trkpt lat="45.36143" lon="5.6302">
        <ele>432</ele>
        <time>2023-02-16T10:07:40Z</time>
      </trkpt>
      <trkpt lat="45.3615" lon="5.63025">
        <ele>431</ele>
        <time>2023-02-16T10:07:41Z</time>
      </trkpt>
      <trkpt lat="45.36156" lon="5.6303">
        <ele>431</ele>
        <time>2023-02-16T10:07:42Z</time>
      </trkpt>
      <trkpt lat="45.36163" lon="5.63035">
        <ele>431</ele>
        <time>2023-02-16T10:07:43Z</time>
      </trkpt>
      <trkpt lat="45.36169" lon="5.6304">
        <ele>431</ele>
        <time>2023-02-16T10:07:44Z</time>
      </trkpt>
      <trkpt lat="45.36175" lon="5.63046">
        <ele>431</ele>
        <time>2023-02-16T10:07:45Z</time>
      </trkpt>
      <trkpt lat="45.36181" lon="5.63053">
        <ele>431</ele>
        <time>2023-02-16T10:07:46Z</time>
      </trkpt>
      <trkpt lat="45.36187" lon="5.63058">
        <ele>430</ele>
        <time>2023-02-16T10:07:47Z</time>
      </trkpt>
      <trkpt lat="45.36193" lon="5.63063">
        <ele>429</ele>
        <time>2023-02-16T10:07:48Z</time>
      </trkpt>
      <trkpt lat="45.36198" lon="5.63069">
        <ele>429</ele>
        <time>2023-02-16T10:07:49Z</time>
      </trkpt>
      <trkpt lat="45.36203" lon="5.63074">
        <ele>429</ele>
        <time>2023-02-16T10:07:50Z</time>
      </trkpt>
      <trkpt lat="45.36208" lon="5.6308">
        <ele>429</ele>
        <time>2023-02-16T10:07:51Z</time>
      </trkpt>
      <trkpt lat="45.36213" lon="5.63085">
        <ele>429</ele>
        <time>2023-02-16T10:07:52Z</time>
      </trkpt>
      <trkpt lat="45.36218" lon="5.6309">
        <ele>430</ele>
        <time>2023-02-16T10:07:53Z</time>
      </trkpt>
      <trkpt lat="45.36223" lon="5.63095">
        <ele>430</ele>
        <time>2023-02-16T10:07:54Z</time>
      </trkpt>
      <trkpt lat="45.36229" lon="5.63101">
        <ele>430</ele>
        <time>2023-02-16T10:07:55Z</time>
      </trkpt>
      <trkpt lat="45.36235" lon="5.63106">
        <ele>430</ele>
        <time>2023-02-16T10:07:56Z</time>
      </trkpt>
      <trkpt lat="45.3624" lon="5.63112">
        <ele>429</ele>
        <time>2023-02-16T10:07:57Z</time>
      </trkpt>
      <trkpt lat="45.36246" lon="5.63119">
        <ele>429</ele>
        <time>2023-02-16T10:07:58Z</time>
      </trkpt>
      <trkpt lat="45.36251" lon="5.63124">
        <ele>429</ele>
        <time>2023-02-16T10:07:59Z</time>
      </trkpt>
      <trkpt lat="45.36255" lon="5.63128">
        <ele>429</ele>
        <time>2023-02-16T10:08:00Z</time>
      </trkpt>
      <trkpt lat="45.36258" lon="5.6313">
        <ele>428</ele>
        <time>2023-02-16T10:08:01Z</time>
      </trkpt>
      <trkpt lat="45.36261" lon="5.63133">
        <ele>428</ele>
        <time>2023-02-16T10:08:02Z</time>
      </trkpt>
      <trkpt lat="45.36263" lon="5.63137">
        <ele>428</ele>
        <time>2023-02-16T10:08:03Z</time>
      </trkpt>
      <trkpt lat="45.36268" lon="5.63142">
        <ele>428</ele>
        <time>2023-02-16T10:08:04Z</time>
      </trkpt>
      <trkpt lat="45.36271" lon="5.63149">
        <ele>428</ele>
        <time>2023-02-16T10:08:05Z</time>
      </trkpt>
      <trkpt lat="45.36273" lon="5.63157">
        <ele>425</ele>
        <time>2023-02-16T10:08:06Z</time>
      </trkpt>
      <trkpt lat="45.36276" lon="5.63164">
        <ele>425</ele>
        <time>2023-02-16T10:08:07Z</time>
      </trkpt>
      <trkpt lat="45.3628" lon="5.63172">
        <ele>424</ele>
        <time>2023-02-16T10:08:08Z</time>
      </trkpt>
      <trkpt lat="45.36285" lon="5.6318">
        <ele>424</ele>
        <time>2023-02-16T10:08:09Z</time>
      </trkpt>
      <trkpt lat="45.36289" lon="5.63186">
        <ele>423</ele>
        <time>2023-02-16T10:08:10Z</time>
      </trkpt>
      <trkpt lat="45.36293" lon="5.63192">
        <ele>423</ele>
        <time>2023-02-16T10:08:11Z</time>
      </trkpt>
      <trkpt lat="45.36297" lon="5.63196">
        <ele>423</ele>
        <time>2023-02-16T10:08:12Z</time>
      </trkpt>
      <trkpt lat="45.36301" lon="5.63201">
        <ele>423</ele>
        <time>2023-02-16T10:08:13Z</time>
      </trkpt>
      <trkpt lat="45.36305" lon="5.63206">
        <ele>424</ele>
        <time>2023-02-16T10:08:14Z</time>
      </trkpt>
      <trkpt lat="45.36312" lon="5.63217">
        <ele>424</ele>
        <time>2023-02-16T10:08:16Z</time>
      </trkpt>
      <trkpt lat="45.36315" lon="5.63226">
        <ele>424</ele>
        <time>2023-02-16T10:08:17Z</time>
      </trkpt>
      <trkpt lat="45.36319" lon="5.63235">
        <ele>424</ele>
        <time>2023-02-16T10:08:18Z</time>
      </trkpt>
      <trkpt lat="45.36323" lon="5.63244">
        <ele>423</ele>
        <time>2023-02-16T10:08:19Z</time>
      </trkpt>
      <trkpt lat="45.36328" lon="5.63254">
        <ele>423</ele>
        <time>2023-02-16T10:08:20Z</time>
      </trkpt>
      <trkpt lat="45.36333" lon="5.63267">
        <ele>423</ele>
        <time>2023-02-16T10:08:21Z</time>
      </trkpt>
      <trkpt lat="45.36338" lon="5.63279">
        <ele>421</ele>
        <time>2023-02-16T10:08:22Z</time>
      </trkpt>
      <trkpt lat="45.36341" lon="5.63292">
        <ele>421</ele>
        <time>2023-02-16T10:08:23Z</time>
      </trkpt>
      <trkpt lat="45.36344" lon="5.63302">
        <ele>418</ele>
        <time>2023-02-16T10:08:24Z</time>
      </trkpt>
      <trkpt lat="45.36347" lon="5.63312">
        <ele>412</ele>
        <time>2023-02-16T10:08:25Z</time>
      </trkpt>
      <trkpt lat="45.36351" lon="5.63321">
        <ele>410</ele>
        <time>2023-02-16T10:08:26Z</time>
      </trkpt>
      <trkpt lat="45.36356" lon="5.63337">
        <ele>408</ele>
        <time>2023-02-16T10:08:28Z</time>
      </trkpt>
      <trkpt lat="45.36362" lon="5.63356">
        <ele>408</ele>
        <time>2023-02-16T10:08:30Z</time>
      </trkpt>
      <trkpt lat="45.36366" lon="5.63365">
        <ele>405</ele>
        <time>2023-02-16T10:08:31Z</time>
      </trkpt>
      <trkpt lat="45.36372" lon="5.63371">
        <ele>404</ele>
        <time>2023-02-16T10:08:32Z</time>
      </trkpt>
      <trkpt lat="45.36379" lon="5.63372">
        <ele>403</ele>
        <time>2023-02-16T10:08:33Z</time>
      </trkpt>
      <trkpt lat="45.36386" lon="5.63372">
        <ele>403</ele>
        <time>2023-02-16T10:08:34Z</time>
      </trkpt>
      <trkpt lat="45.36393" lon="5.63371">
        <ele>403</ele>
        <time>2023-02-16T10:08:35Z</time>
      </trkpt>
      <trkpt lat="45.36399" lon="5.6337">
        <ele>403</ele>
        <time>2023-02-16T10:08:36Z</time>
      </trkpt>
      <trkpt lat="45.36405" lon="5.63368">
        <ele>403</ele>
        <time>2023-02-16T10:08:37Z</time>
      </trkpt>
      <trkpt lat="45.36411" lon="5.63367">
        <ele>402</ele>
        <time>2023-02-16T10:08:38Z</time>
      </trkpt>
      <trkpt lat="45.36418" lon="5.63366">
        <ele>401</ele>
        <time>2023-02-16T10:08:39Z</time>
      </trkpt>
      <trkpt lat="45.36424" lon="5.63365">
        <ele>401</ele>
        <time>2023-02-16T10:08:40Z</time>
      </trkpt>
      <trkpt lat="45.3643" lon="5.63365">
        <ele>401</ele>
        <time>2023-02-16T10:08:41Z</time>
      </trkpt>
      <trkpt lat="45.36437" lon="5.63364">
        <ele>401</ele>
        <time>2023-02-16T10:08:42Z</time>
      </trkpt>
      <trkpt lat="45.36443" lon="5.63364">
        <ele>401</ele>
        <time>2023-02-16T10:08:43Z</time>
      </trkpt>
      <trkpt lat="45.36449" lon="5.63364">
        <ele>401</ele>
        <time>2023-02-16T10:08:44Z</time>
      </trkpt>
      <trkpt lat="45.36455" lon="5.63364">
        <ele>401</ele>
        <time>2023-02-16T10:08:45Z</time>
      </trkpt>
      <trkpt lat="45.36461" lon="5.63364">
        <ele>401</ele>
        <time>2023-02-16T10:08:46Z</time>
      </trkpt>
      <trkpt lat="45.36467" lon="5.63364">
        <ele>401</ele>
        <time>2023-02-16T10:08:47Z</time>
      </trkpt>
      <trkpt lat="45.36473" lon="5.63363">
        <ele>401</ele>
        <time>2023-02-16T10:08:48Z</time>
      </trkpt>
      <trkpt lat="45.36479" lon="5.63363">
        <ele>401</ele>
        <time>2023-02-16T10:08:49Z</time>
      </trkpt>
      <trkpt lat="45.36485" lon="5.63362">
        <ele>401</ele>
        <time>2023-02-16T10:08:50Z</time>
      </trkpt>
      <trkpt lat="45.36491" lon="5.63362">
        <ele>401</ele>
        <time>2023-02-16T10:08:51Z</time>
      </trkpt>
      <trkpt lat="45.36497" lon="5.63362">
        <ele>402</ele>
        <time>2023-02-16T10:08:52Z</time>
      </trkpt>
      <trkpt lat="45.36503" lon="5.63361">
        <ele>402</ele>
        <time>2023-02-16T10:08:53Z</time>
      </trkpt>
      <trkpt lat="45.36509" lon="5.63361">
        <ele>402</ele>
        <time>2023-02-16T10:08:54Z</time>
      </trkpt>
      <trkpt lat="45.36515" lon="5.63361">
        <ele>402</ele>
        <time>2023-02-16T10:08:55Z</time>
      </trkpt>
      <trkpt lat="45.36521" lon="5.63361">
        <ele>402</ele>
        <time>2023-02-16T10:08:56Z</time>
      </trkpt>
      <trkpt lat="45.36526" lon="5.63361">
        <ele>402</ele>
        <time>2023-02-16T10:08:57Z</time>
      </trkpt>
      <trkpt lat="45.36532" lon="5.63362">
        <ele>403</ele>
        <time>2023-02-16T10:08:58Z</time>
      </trkpt>
      <trkpt lat="45.36538" lon="5.63362">
        <ele>403</ele>
        <time>2023-02-16T10:08:59Z</time>
      </trkpt>
      <trkpt lat="45.36543" lon="5.63363">
        <ele>403</ele>
        <time>2023-02-16T10:09:00Z</time>
      </trkpt>
      <trkpt lat="45.36549" lon="5.63364">
        <ele>403</ele>
        <time>2023-02-16T10:09:01Z</time>
      </trkpt>
      <trkpt lat="45.36554" lon="5.63366">
        <ele>403</ele>
        <time>2023-02-16T10:09:02Z</time>
      </trkpt>
      <trkpt lat="45.36558" lon="5.63369">
        <ele>403</ele>
        <time>2023-02-16T10:09:03Z</time>
      </trkpt>
      <trkpt lat="45.36563" lon="5.6337">
        <ele>403</ele>
        <time>2023-02-16T10:09:04Z</time>
      </trkpt>
      <trkpt lat="45.36567" lon="5.63371">
        <ele>403</ele>
        <time>2023-02-16T10:09:05Z</time>
      </trkpt>
      <trkpt lat="45.36572" lon="5.63371">
        <ele>403</ele>
        <time>2023-02-16T10:09:06Z</time>
      </trkpt>
      <trkpt lat="45.36577" lon="5.63371">
        <ele>403</ele>
        <time>2023-02-16T10:09:07Z</time>
      </trkpt>
      <trkpt lat="45.36582" lon="5.6337">
        <ele>403</ele>
        <time>2023-02-16T10:09:08Z</time>
      </trkpt>
      <trkpt lat="45.36586" lon="5.6337">
        <ele>403</ele>
        <time>2023-02-16T10:09:09Z</time>
      </trkpt>
      <trkpt lat="45.36591" lon="5.6337">
        <ele>405</ele>
        <time>2023-02-16T10:09:10Z</time>
      </trkpt>
      <trkpt lat="45.36595" lon="5.6337">
        <ele>405</ele>
        <time>2023-02-16T10:09:11Z</time>
      </trkpt>
      <trkpt lat="45.366" lon="5.63369">
        <ele>405</ele>
        <time>2023-02-16T10:09:12Z</time>
      </trkpt>
      <trkpt lat="45.36604" lon="5.63369">
        <ele>405</ele>
        <time>2023-02-16T10:09:13Z</time>
      </trkpt>
      <trkpt lat="45.36609" lon="5.63368">
        <ele>405</ele>
        <time>2023-02-16T10:09:14Z</time>
      </trkpt>
      <trkpt lat="45.36614" lon="5.63368">
        <ele>405</ele>
        <time>2023-02-16T10:09:15Z</time>
      </trkpt>
      <trkpt lat="45.36619" lon="5.63367">
        <ele>405</ele>
        <time>2023-02-16T10:09:16Z</time>
      </trkpt>
      <trkpt lat="45.36623" lon="5.63366">
        <ele>406</ele>
        <time>2023-02-16T10:09:17Z</time>
      </trkpt>
      <trkpt lat="45.36629" lon="5.63366">
        <ele>406</ele>
        <time>2023-02-16T10:09:18Z</time>
      </trkpt>
      <trkpt lat="45.36634" lon="5.63365">
        <ele>406</ele>
        <time>2023-02-16T10:09:19Z</time>
      </trkpt>
      <trkpt lat="45.36639" lon="5.63364">
        <ele>406</ele>
        <time>2023-02-16T10:09:20Z</time>
      </trkpt>
      <trkpt lat="45.36644" lon="5.63364">
        <ele>406</ele>
        <time>2023-02-16T10:09:21Z</time>
      </trkpt>
      <trkpt lat="45.36649" lon="5.63363">
        <ele>406</ele>
        <time>2023-02-16T10:09:22Z</time>
      </trkpt>
      <trkpt lat="45.36655" lon="5.63362">
        <ele>405</ele>
        <time>2023-02-16T10:09:23Z</time>
      </trkpt>
      <trkpt lat="45.3666" lon="5.63362">
        <ele>405</ele>
        <time>2023-02-16T10:09:24Z</time>
      </trkpt>
      <trkpt lat="45.36665" lon="5.63361">
        <ele>405</ele>
        <time>2023-02-16T10:09:25Z</time>
      </trkpt>
      <trkpt lat="45.36671" lon="5.63361">
        <ele>406</ele>
        <time>2023-02-16T10:09:26Z</time>
      </trkpt>
      <trkpt lat="45.36676" lon="5.6336">
        <ele>406</ele>
        <time>2023-02-16T10:09:27Z</time>
      </trkpt>
      <trkpt lat="45.36681" lon="5.63359">
        <ele>406</ele>
        <time>2023-02-16T10:09:28Z</time>
      </trkpt>
      <trkpt lat="45.36686" lon="5.63358">
        <ele>406</ele>
        <time>2023-02-16T10:09:29Z</time>
      </trkpt>
      <trkpt lat="45.36691" lon="5.63358">
        <ele>406</ele>
        <time>2023-02-16T10:09:30Z</time>
      </trkpt>
      <trkpt lat="45.36697" lon="5.63358">
        <ele>406</ele>
        <time>2023-02-16T10:09:31Z</time>
      </trkpt>
      <trkpt lat="45.36702" lon="5.63357">
        <ele>406</ele>
        <time>2023-02-16T10:09:32Z</time>
      </trkpt>
      <trkpt lat="45.36707" lon="5.63357">
        <ele>406</ele>
        <time>2023-02-16T10:09:33Z</time>
      </trkpt>
      <trkpt lat="45.36712" lon="5.63356">
        <ele>406</ele>
        <time>2023-02-16T10:09:34Z</time>
      </trkpt>
      <trkpt lat="45.36717" lon="5.63356">
        <ele>406</ele>
        <time>2023-02-16T10:09:35Z</time>
      </trkpt>
      <trkpt lat="45.36722" lon="5.63355">
        <ele>406</ele>
        <time>2023-02-16T10:09:36Z</time>
      </trkpt>
      <trkpt lat="45.36727" lon="5.63354">
        <ele>406</ele>
        <time>2023-02-16T10:09:37Z</time>
      </trkpt>
      <trkpt lat="45.36731" lon="5.63354">
        <ele>406</ele>
        <time>2023-02-16T10:09:38Z</time>
      </trkpt>
      <trkpt lat="45.36735" lon="5.63353">
        <ele>406</ele>
        <time>2023-02-16T10:09:39Z</time>
      </trkpt>
      <trkpt lat="45.36739" lon="5.63353">
        <ele>406</ele>
        <time>2023-02-16T10:09:40Z</time>
      </trkpt>
      <trkpt lat="45.36742" lon="5.63352">
        <ele>407</ele>
        <time>2023-02-16T10:09:41Z</time>
      </trkpt>
      <trkpt lat="45.36746" lon="5.63352">
        <ele>407</ele>
        <time>2023-02-16T10:09:42Z</time>
      </trkpt>
      <trkpt lat="45.36749" lon="5.63351">
        <ele>407</ele>
        <time>2023-02-16T10:09:43Z</time>
      </trkpt>
      <trkpt lat="45.36752" lon="5.63351">
        <ele>408</ele>
        <time>2023-02-16T10:09:44Z</time>
      </trkpt>
      <trkpt lat="45.36755" lon="5.6335">
        <ele>408</ele>
        <time>2023-02-16T10:09:45Z</time>
      </trkpt>
      <trkpt lat="45.36757" lon="5.6335">
        <ele>408</ele>
        <time>2023-02-16T10:09:46Z</time>
      </trkpt>
      <trkpt lat="45.36759" lon="5.6335">
        <ele>409</ele>
        <time>2023-02-16T10:09:47Z</time>
      </trkpt>
      <trkpt lat="45.36761" lon="5.6335">
        <ele>409</ele>
        <time>2023-02-16T10:09:49Z</time>
      </trkpt>
      <trkpt lat="45.36763" lon="5.63352">
        <ele>410</ele>
        <time>2023-02-16T10:09:52Z</time>
      </trkpt>
      <trkpt lat="45.36766" lon="5.63354">
        <ele>410</ele>
        <time>2023-02-16T10:09:54Z</time>
      </trkpt>
      <trkpt lat="45.36768" lon="5.63354">
        <ele>410</ele>
        <time>2023-02-16T10:09:55Z</time>
      </trkpt>
      <trkpt lat="45.36771" lon="5.63352">
        <ele>410</ele>
        <time>2023-02-16T10:09:56Z</time>
      </trkpt>
      <trkpt lat="45.36774" lon="5.6335">
        <ele>410</ele>
        <time>2023-02-16T10:09:57Z</time>
      </trkpt>
      <trkpt lat="45.36778" lon="5.63347">
        <ele>410</ele>
        <time>2023-02-16T10:09:58Z</time>
      </trkpt>
      <trkpt lat="45.36781" lon="5.63346">
        <ele>409</ele>
        <time>2023-02-16T10:09:59Z</time>
      </trkpt>
      <trkpt lat="45.36784" lon="5.63346">
        <ele>409</ele>
        <time>2023-02-16T10:10:00Z</time>
      </trkpt>
      <trkpt lat="45.36787" lon="5.63346">
        <ele>410</ele>
        <time>2023-02-16T10:10:01Z</time>
      </trkpt>
      <trkpt lat="45.36789" lon="5.63345">
        <ele>410</ele>
        <time>2023-02-16T10:10:02Z</time>
      </trkpt>
      <trkpt lat="45.36792" lon="5.63345">
        <ele>410</ele>
        <time>2023-02-16T10:10:03Z</time>
      </trkpt>
      <trkpt lat="45.36794" lon="5.63345">
        <ele>410</ele>
        <time>2023-02-16T10:10:04Z</time>
      </trkpt>
      <trkpt lat="45.36797" lon="5.63345">
        <ele>411</ele>
        <time>2023-02-16T10:10:05Z</time>
      </trkpt>
      <trkpt lat="45.36799" lon="5.63345">
        <ele>411</ele>
        <time>2023-02-16T10:10:06Z</time>
      </trkpt>
      <trkpt lat="45.36802" lon="5.63345">
        <ele>411</ele>
        <time>2023-02-16T10:10:07Z</time>
      </trkpt>
      <trkpt lat="45.36805" lon="5.63345">
        <ele>411</ele>
        <time>2023-02-16T10:10:08Z</time>
      </trkpt>
      <trkpt lat="45.36807" lon="5.63345">
        <ele>412</ele>
        <time>2023-02-16T10:10:09Z</time>
      </trkpt>
      <trkpt lat="45.36809" lon="5.63345">
        <ele>412</ele>
        <time>2023-02-16T10:10:10Z</time>
      </trkpt>
      <trkpt lat="45.36811" lon="5.63345">
        <ele>413</ele>
        <time>2023-02-16T10:10:11Z</time>
      </trkpt>
      <trkpt lat="45.36814" lon="5.63344">
        <ele>413</ele>
        <time>2023-02-16T10:10:12Z</time>
      </trkpt>
      <trkpt lat="45.36816" lon="5.63344">
        <ele>414</ele>
        <time>2023-02-16T10:10:13Z</time>
      </trkpt>
      <trkpt lat="45.36818" lon="5.63344">
        <ele>414</ele>
        <time>2023-02-16T10:10:14Z</time>
      </trkpt>
      <trkpt lat="45.3682" lon="5.63344">
        <ele>414</ele>
        <time>2023-02-16T10:10:15Z</time>
      </trkpt>
      <trkpt lat="45.36823" lon="5.63344">
        <ele>415</ele>
        <time>2023-02-16T10:10:16Z</time>
      </trkpt>
      <trkpt lat="45.36825" lon="5.63344">
        <ele>415</ele>
        <time>2023-02-16T10:10:17Z</time>
      </trkpt>
      <trkpt lat="45.36827" lon="5.63344">
        <ele>415</ele>
        <time>2023-02-16T10:10:18Z</time>
      </trkpt>
      <trkpt lat="45.3683" lon="5.63344">
        <ele>415</ele>
        <time>2023-02-16T10:10:19Z</time>
      </trkpt>
      <trkpt lat="45.36832" lon="5.63344">
        <ele>416</ele>
        <time>2023-02-16T10:10:20Z</time>
      </trkpt>
      <trkpt lat="45.36834" lon="5.63343">
        <ele>416</ele>
        <time>2023-02-16T10:10:21Z</time>
      </trkpt>
      <trkpt lat="45.36837" lon="5.63343">
        <ele>416</ele>
        <time>2023-02-16T10:10:22Z</time>
      </trkpt>
      <trkpt lat="45.36839" lon="5.63344">
        <ele>416</ele>
        <time>2023-02-16T10:10:23Z</time>
      </trkpt>
      <trkpt lat="45.36842" lon="5.63344">
        <ele>416</ele>
        <time>2023-02-16T10:10:24Z</time>
      </trkpt>
      <trkpt lat="45.36844" lon="5.63344">
        <ele>417</ele>
        <time>2023-02-16T10:10:25Z</time>
      </trkpt>
      <trkpt lat="45.36846" lon="5.63344">
        <ele>417</ele>
        <time>2023-02-16T10:10:26Z</time>
      </trkpt>
      <trkpt lat="45.36849" lon="5.63343">
        <ele>417</ele>
        <time>2023-02-16T10:10:27Z</time>
      </trkpt>
      <trkpt lat="45.36851" lon="5.63343">
        <ele>417</ele>
        <time>2023-02-16T10:10:28Z</time>
      </trkpt>
      <trkpt lat="45.36853" lon="5.63343">
        <ele>417</ele>
        <time>2023-02-16T10:10:29Z</time>
      </trkpt>
      <trkpt lat="45.36856" lon="5.63343">
        <ele>418</ele>
        <time>2023-02-16T10:10:30Z</time>
      </trkpt>
      <trkpt lat="45.36858" lon="5.63343">
        <ele>418</ele>
        <time>2023-02-16T10:10:31Z</time>
      </trkpt>
      <trkpt lat="45.36861" lon="5.63343">
        <ele>419</ele>
        <time>2023-02-16T10:10:32Z</time>
      </trkpt>
      <trkpt lat="45.36863" lon="5.63343">
        <ele>419</ele>
        <time>2023-02-16T10:10:33Z</time>
      </trkpt>
      <trkpt lat="45.36866" lon="5.63343">
        <ele>419</ele>
        <time>2023-02-16T10:10:34Z</time>
      </trkpt>
      <trkpt lat="45.36869" lon="5.63343">
        <ele>419</ele>
        <time>2023-02-16T10:10:35Z</time>
      </trkpt>
      <trkpt lat="45.36871" lon="5.63343">
        <ele>420</ele>
        <time>2023-02-16T10:10:36Z</time>
      </trkpt>
      <trkpt lat="45.36874" lon="5.63343">
        <ele>420</ele>
        <time>2023-02-16T10:10:37Z</time>
      </trkpt>
      <trkpt lat="45.36877" lon="5.63342">
        <ele>420</ele>
        <time>2023-02-16T10:10:38Z</time>
      </trkpt>
      <trkpt lat="45.36881" lon="5.63342">
        <ele>420</ele>
        <time>2023-02-16T10:10:39Z</time>
      </trkpt>
      <trkpt lat="45.36885" lon="5.63341">
        <ele>420</ele>
        <time>2023-02-16T10:10:40Z</time>
      </trkpt>
      <trkpt lat="45.36888" lon="5.63341">
        <ele>420</ele>
        <time>2023-02-16T10:10:41Z</time>
      </trkpt>
      <trkpt lat="45.36892" lon="5.63341">
        <ele>420</ele>
        <time>2023-02-16T10:10:42Z</time>
      </trkpt>
      <trkpt lat="45.36896" lon="5.6334">
        <ele>420</ele>
        <time>2023-02-16T10:10:43Z</time>
      </trkpt>
      <trkpt lat="45.369" lon="5.63339">
        <ele>420</ele>
        <time>2023-02-16T10:10:44Z</time>
      </trkpt>
      <trkpt lat="45.36904" lon="5.63339">
        <ele>420</ele>
        <time>2023-02-16T10:10:45Z</time>
      </trkpt>
      <trkpt lat="45.36908" lon="5.63339">
        <ele>420</ele>
        <time>2023-02-16T10:10:46Z</time>
      </trkpt>
      <trkpt lat="45.36912" lon="5.63339">
        <ele>419</ele>
        <time>2023-02-16T10:10:47Z</time>
      </trkpt>
      <trkpt lat="45.36917" lon="5.63339">
        <ele>419</ele>
        <time>2023-02-16T10:10:48Z</time>
      </trkpt>
      <trkpt lat="45.36921" lon="5.63339">
        <ele>419</ele>
        <time>2023-02-16T10:10:49Z</time>
      </trkpt>
      <trkpt lat="45.36925" lon="5.63339">
        <ele>419</ele>
        <time>2023-02-16T10:10:50Z</time>
      </trkpt>
      <trkpt lat="45.36929" lon="5.63339">
        <ele>419</ele>
        <time>2023-02-16T10:10:51Z</time>
      </trkpt>
      <trkpt lat="45.36934" lon="5.63339">
        <ele>419</ele>
        <time>2023-02-16T10:10:52Z</time>
      </trkpt>
      <trkpt lat="45.36938" lon="5.63339">
        <ele>419</ele>
        <time>2023-02-16T10:10:53Z</time>
      </trkpt>
      <trkpt lat="45.36942" lon="5.6334">
        <ele>419</ele>
        <time>2023-02-16T10:10:54Z</time>
      </trkpt>
      <trkpt lat="45.36946" lon="5.6334">
        <ele>420</ele>
        <time>2023-02-16T10:10:55Z</time>
      </trkpt>
      <trkpt lat="45.3695" lon="5.6334">
        <ele>420</ele>
        <time>2023-02-16T10:10:56Z</time>
      </trkpt>
      <trkpt lat="45.36954" lon="5.6334">
        <ele>420</ele>
        <time>2023-02-16T10:10:57Z</time>
      </trkpt>
      <trkpt lat="45.36959" lon="5.6334">
        <ele>420</ele>
        <time>2023-02-16T10:10:58Z</time>
      </trkpt>
      <trkpt lat="45.36963" lon="5.6334">
        <ele>420</ele>
        <time>2023-02-16T10:10:59Z</time>
      </trkpt>
      <trkpt lat="45.36967" lon="5.63341">
        <ele>420</ele>
        <time>2023-02-16T10:11:00Z</time>
      </trkpt>
      <trkpt lat="45.36971" lon="5.63341">
        <ele>420</ele>
        <time>2023-02-16T10:11:01Z</time>
      </trkpt>
      <trkpt lat="45.36975" lon="5.63341">
        <ele>420</ele>
        <time>2023-02-16T10:11:02Z</time>
      </trkpt>
      <trkpt lat="45.36979" lon="5.63341">
        <ele>420</ele>
        <time>2023-02-16T10:11:03Z</time>
      </trkpt>
      <trkpt lat="45.36983" lon="5.63342">
        <ele>421</ele>
        <time>2023-02-16T10:11:04Z</time>
      </trkpt>
      <trkpt lat="45.36987" lon="5.63342">
        <ele>421</ele>
        <time>2023-02-16T10:11:05Z</time>
      </trkpt>
      <trkpt lat="45.36992" lon="5.63343">
        <ele>421</ele>
        <time>2023-02-16T10:11:06Z</time>
      </trkpt>
      <trkpt lat="45.36996" lon="5.63344">
        <ele>421</ele>
        <time>2023-02-16T10:11:07Z</time>
      </trkpt>
      <trkpt lat="45.37" lon="5.63345">
        <ele>421</ele>
        <time>2023-02-16T10:11:08Z</time>
      </trkpt>
      <trkpt lat="45.37005" lon="5.63346">
        <ele>421</ele>
        <time>2023-02-16T10:11:09Z</time>
      </trkpt>
      <trkpt lat="45.37009" lon="5.63346">
        <ele>421</ele>
        <time>2023-02-16T10:11:10Z</time>
      </trkpt>
      <trkpt lat="45.37014" lon="5.63347">
        <ele>421</ele>
        <time>2023-02-16T10:11:11Z</time>
      </trkpt>
      <trkpt lat="45.37018" lon="5.63348">
        <ele>421</ele>
        <time>2023-02-16T10:11:12Z</time>
      </trkpt>
      <trkpt lat="45.37023" lon="5.63349">
        <ele>421</ele>
        <time>2023-02-16T10:11:13Z</time>
      </trkpt>
      <trkpt lat="45.37027" lon="5.6335">
        <ele>421</ele>
        <time>2023-02-16T10:11:14Z</time>
      </trkpt>
      <trkpt lat="45.37032" lon="5.63351">
        <ele>421</ele>
        <time>2023-02-16T10:11:15Z</time>
      </trkpt>
      <trkpt lat="45.37036" lon="5.63352">
        <ele>421</ele>
        <time>2023-02-16T10:11:16Z</time>
      </trkpt>
      <trkpt lat="45.37041" lon="5.63354">
        <ele>421</ele>
        <time>2023-02-16T10:11:17Z</time>
      </trkpt>
      <trkpt lat="45.37046" lon="5.63355">
        <ele>421</ele>
        <time>2023-02-16T10:11:18Z</time>
      </trkpt>
      <trkpt lat="45.37051" lon="5.63355">
        <ele>421</ele>
        <time>2023-02-16T10:11:19Z</time>
      </trkpt>
      <trkpt lat="45.37056" lon="5.63356">
        <ele>421</ele>
        <time>2023-02-16T10:11:20Z</time>
      </trkpt>
      <trkpt lat="45.37061" lon="5.63357">
        <ele>421</ele>
        <time>2023-02-16T10:11:21Z</time>
      </trkpt>
      <trkpt lat="45.37067" lon="5.63358">
        <ele>421</ele>
        <time>2023-02-16T10:11:22Z</time>
      </trkpt>
      <trkpt lat="45.37072" lon="5.63359">
        <ele>421</ele>
        <time>2023-02-16T10:11:23Z</time>
      </trkpt>
      <trkpt lat="45.37077" lon="5.63359">
        <ele>421</ele>
        <time>2023-02-16T10:11:24Z</time>
      </trkpt>
      <trkpt lat="45.37082" lon="5.6336">
        <ele>421</ele>
        <time>2023-02-16T10:11:25Z</time>
      </trkpt>
      <trkpt lat="45.37087" lon="5.63361">
        <ele>421</ele>
        <time>2023-02-16T10:11:26Z</time>
      </trkpt>
      <trkpt lat="45.37092" lon="5.63361">
        <ele>422</ele>
        <time>2023-02-16T10:11:27Z</time>
      </trkpt>
      <trkpt lat="45.37098" lon="5.63362">
        <ele>422</ele>
        <time>2023-02-16T10:11:28Z</time>
      </trkpt>
      <trkpt lat="45.37103" lon="5.63362">
        <ele>422</ele>
        <time>2023-02-16T10:11:29Z</time>
      </trkpt>
      <trkpt lat="45.37108" lon="5.63362">
        <ele>422</ele>
        <time>2023-02-16T10:11:30Z</time>
      </trkpt>
      <trkpt lat="45.37114" lon="5.63363">
        <ele>422</ele>
        <time>2023-02-16T10:11:31Z</time>
      </trkpt>
      <trkpt lat="45.37119" lon="5.63363">
        <ele>422</ele>
        <time>2023-02-16T10:11:32Z</time>
      </trkpt>
      <trkpt lat="45.37124" lon="5.63364">
        <ele>422</ele>
        <time>2023-02-16T10:11:33Z</time>
      </trkpt>
      <trkpt lat="45.37129" lon="5.63364">
        <ele>422</ele>
        <time>2023-02-16T10:11:34Z</time>
      </trkpt>
      <trkpt lat="45.37134" lon="5.63365">
        <ele>422</ele>
        <time>2023-02-16T10:11:35Z</time>
      </trkpt>
      <trkpt lat="45.37139" lon="5.63365">
        <ele>422</ele>
        <time>2023-02-16T10:11:36Z</time>
      </trkpt>
      <trkpt lat="45.37144" lon="5.63365">
        <ele>422</ele>
        <time>2023-02-16T10:11:37Z</time>
      </trkpt>
      <trkpt lat="45.37148" lon="5.63366">
        <ele>422</ele>
        <time>2023-02-16T10:11:38Z</time>
      </trkpt>
      <trkpt lat="45.37153" lon="5.63366">
        <ele>423</ele>
        <time>2023-02-16T10:11:39Z</time>
      </trkpt>
      <trkpt lat="45.37157" lon="5.63366">
        <ele>423</ele>
        <time>2023-02-16T10:11:40Z</time>
      </trkpt>
      <trkpt lat="45.37161" lon="5.63365">
        <ele>424</ele>
        <time>2023-02-16T10:11:41Z</time>
      </trkpt>
      <trkpt lat="45.37164" lon="5.63365">
        <ele>424</ele>
        <time>2023-02-16T10:11:42Z</time>
      </trkpt>
      <trkpt lat="45.37168" lon="5.63365">
        <ele>424</ele>
        <time>2023-02-16T10:11:43Z</time>
      </trkpt>
      <trkpt lat="45.37171" lon="5.63364">
        <ele>424</ele>
        <time>2023-02-16T10:11:44Z</time>
      </trkpt>
      <trkpt lat="45.37174" lon="5.63364">
        <ele>424</ele>
        <time>2023-02-16T10:11:45Z</time>
      </trkpt>
      <trkpt lat="45.37177" lon="5.63363">
        <ele>424</ele>
        <time>2023-02-16T10:11:46Z</time>
      </trkpt>
      <trkpt lat="45.3718" lon="5.63362">
        <ele>425</ele>
        <time>2023-02-16T10:11:47Z</time>
      </trkpt>
      <trkpt lat="45.37182" lon="5.63361">
        <ele>426</ele>
        <time>2023-02-16T10:11:48Z</time>
      </trkpt>
      <trkpt lat="45.37185" lon="5.6336">
        <ele>426</ele>
        <time>2023-02-16T10:11:49Z</time>
      </trkpt>
      <trkpt lat="45.37187" lon="5.63359">
        <ele>427</ele>
        <time>2023-02-16T10:11:50Z</time>
      </trkpt>
      <trkpt lat="45.37189" lon="5.63357">
        <ele>427</ele>
        <time>2023-02-16T10:11:51Z</time>
      </trkpt>
      <trkpt lat="45.37191" lon="5.63356">
        <ele>427</ele>
        <time>2023-02-16T10:11:52Z</time>
      </trkpt>
      <trkpt lat="45.37193" lon="5.63354">
        <ele>427</ele>
        <time>2023-02-16T10:11:53Z</time>
      </trkpt>
      <trkpt lat="45.37194" lon="5.63351">
        <ele>427</ele>
        <time>2023-02-16T10:11:54Z</time>
      </trkpt>
      <trkpt lat="45.37196" lon="5.63349">
        <ele>427</ele>
        <time>2023-02-16T10:11:55Z</time>
      </trkpt>
      <trkpt lat="45.37198" lon="5.63347">
        <ele>427</ele>
        <time>2023-02-16T10:11:56Z</time>
      </trkpt>
      <trkpt lat="45.37199" lon="5.63345">
        <ele>428</ele>
        <time>2023-02-16T10:11:57Z</time>
      </trkpt>
      <trkpt lat="45.37201" lon="5.63342">
        <ele>428</ele>
        <time>2023-02-16T10:11:58Z</time>
      </trkpt>
      <trkpt lat="45.37202" lon="5.6334">
        <ele>429</ele>
        <time>2023-02-16T10:11:59Z</time>
      </trkpt>
      <trkpt lat="45.37203" lon="5.63337">
        <ele>430</ele>
        <time>2023-02-16T10:12:00Z</time>
      </trkpt>
      <trkpt lat="45.37205" lon="5.63335">
        <ele>430</ele>
        <time>2023-02-16T10:12:01Z</time>
      </trkpt>
      <trkpt lat="45.37206" lon="5.63331">
        <ele>431</ele>
        <time>2023-02-16T10:12:03Z</time>
      </trkpt>
      <trkpt lat="45.37207" lon="5.63326">
        <ele>431</ele>
        <time>2023-02-16T10:12:05Z</time>
      </trkpt>
      <trkpt lat="45.37207" lon="5.63323">
        <ele>431</ele>
        <time>2023-02-16T10:12:06Z</time>
      </trkpt>
      <trkpt lat="45.37208" lon="5.6332">
        <ele>431</ele>
        <time>2023-02-16T10:12:07Z</time>
      </trkpt>
      <trkpt lat="45.37209" lon="5.63317">
        <ele>431</ele>
        <time>2023-02-16T10:12:08Z</time>
      </trkpt>
      <trkpt lat="45.37209" lon="5.63314">
        <ele>431</ele>
        <time>2023-02-16T10:12:09Z</time>
      </trkpt>
      <trkpt lat="45.3721" lon="5.63311">
        <ele>431</ele>
        <time>2023-02-16T10:12:10Z</time>
      </trkpt>
      <trkpt lat="45.37211" lon="5.63309">
        <ele>432</ele>
        <time>2023-02-16T10:12:11Z</time>
      </trkpt>
      <trkpt lat="45.37213" lon="5.63306">
        <ele>432</ele>
        <time>2023-02-16T10:12:12Z</time>
      </trkpt>
      <trkpt lat="45.37214" lon="5.63303">
        <ele>433</ele>
        <time>2023-02-16T10:12:13Z</time>
      </trkpt>
      <trkpt lat="45.37215" lon="5.63301">
        <ele>433</ele>
        <time>2023-02-16T10:12:14Z</time>
      </trkpt>
      <trkpt lat="45.37217" lon="5.633">
        <ele>433</ele>
        <time>2023-02-16T10:12:15Z</time>
      </trkpt>
      <trkpt lat="45.37219" lon="5.63298">
        <ele>433</ele>
        <time>2023-02-16T10:12:17Z</time>
      </trkpt>
      <trkpt lat="45.37222" lon="5.63298">
        <ele>433</ele>
        <time>2023-02-16T10:12:19Z</time>
      </trkpt>
      <trkpt lat="45.37225" lon="5.633">
        <ele>434</ele>
        <time>2023-02-16T10:12:21Z</time>
      </trkpt>
      <trkpt lat="45.37228" lon="5.63302">
        <ele>435</ele>
        <time>2023-02-16T10:12:23Z</time>
      </trkpt>
      <trkpt lat="45.37229" lon="5.63303">
        <ele>435</ele>
        <time>2023-02-16T10:12:24Z</time>
      </trkpt>
      <trkpt lat="45.37231" lon="5.63305">
        <ele>435</ele>
        <time>2023-02-16T10:12:26Z</time>
      </trkpt>
      <trkpt lat="45.37233" lon="5.63306">
        <ele>435</ele>
        <time>2023-02-16T10:12:27Z</time>
      </trkpt>
      <trkpt lat="45.37237" lon="5.63307">
        <ele>435</ele>
        <time>2023-02-16T10:12:29Z</time>
      </trkpt>
      <trkpt lat="45.37239" lon="5.63307">
        <ele>436</ele>
        <time>2023-02-16T10:12:30Z</time>
      </trkpt>
      <trkpt lat="45.37242" lon="5.63307">
        <ele>436</ele>
        <time>2023-02-16T10:12:32Z</time>
      </trkpt>
      <trkpt lat="45.37245" lon="5.63306">
        <ele>438</ele>
        <time>2023-02-16T10:12:34Z</time>
      </trkpt>
      <trkpt lat="45.37247" lon="5.63306">
        <ele>438</ele>
        <time>2023-02-16T10:12:35Z</time>
      </trkpt>
      <trkpt lat="45.37249" lon="5.63305">
        <ele>438</ele>
        <time>2023-02-16T10:12:36Z</time>
      </trkpt>
      <trkpt lat="45.37252" lon="5.63303">
        <ele>439</ele>
        <time>2023-02-16T10:12:38Z</time>
      </trkpt>
      <trkpt lat="45.37254" lon="5.63302">
        <ele>439</ele>
        <time>2023-02-16T10:12:39Z</time>
      </trkpt>
      <trkpt lat="45.37256" lon="5.633">
        <ele>439</ele>
        <time>2023-02-16T10:12:40Z</time>
      </trkpt>
      <trkpt lat="45.37258" lon="5.63299">
        <ele>439</ele>
        <time>2023-02-16T10:12:41Z</time>
      </trkpt>
      <trkpt lat="45.3726" lon="5.63298">
        <ele>439</ele>
        <time>2023-02-16T10:12:42Z</time>
      </trkpt>
      <trkpt lat="45.37262" lon="5.63296">
        <ele>439</ele>
        <time>2023-02-16T10:12:43Z</time>
      </trkpt>
      <trkpt lat="45.37263" lon="5.63294">
        <ele>439</ele>
        <time>2023-02-16T10:12:44Z</time>
      </trkpt>
      <trkpt lat="45.37265" lon="5.63292">
        <ele>439</ele>
        <time>2023-02-16T10:12:45Z</time>
      </trkpt>
      <trkpt lat="45.37267" lon="5.63291">
        <ele>440</ele>
        <time>2023-02-16T10:12:46Z</time>
      </trkpt>
      <trkpt lat="45.37269" lon="5.63289">
        <ele>440</ele>
        <time>2023-02-16T10:12:47Z</time>
      </trkpt>
      <trkpt lat="45.37271" lon="5.63287">
        <ele>440</ele>
        <time>2023-02-16T10:12:48Z</time>
      </trkpt>
      <trkpt lat="45.37273" lon="5.63286">
        <ele>440</ele>
        <time>2023-02-16T10:12:49Z</time>
      </trkpt>
      <trkpt lat="45.37275" lon="5.63284">
        <ele>441</ele>
        <time>2023-02-16T10:12:50Z</time>
      </trkpt>
      <trkpt lat="45.37277" lon="5.63282">
        <ele>441</ele>
        <time>2023-02-16T10:12:51Z</time>
      </trkpt>
      <trkpt lat="45.37279" lon="5.63281">
        <ele>441</ele>
        <time>2023-02-16T10:12:52Z</time>
      </trkpt>
      <trkpt lat="45.37281" lon="5.6328">
        <ele>441</ele>
        <time>2023-02-16T10:12:53Z</time>
      </trkpt>
      <trkpt lat="45.37283" lon="5.63278">
        <ele>441</ele>
        <time>2023-02-16T10:12:54Z</time>
      </trkpt>
      <trkpt lat="45.37285" lon="5.63277">
        <ele>441</ele>
        <time>2023-02-16T10:12:55Z</time>
      </trkpt>
      <trkpt lat="45.37288" lon="5.63276">
        <ele>442</ele>
        <time>2023-02-16T10:12:56Z</time>
      </trkpt>
      <trkpt lat="45.3729" lon="5.63274">
        <ele>442</ele>
        <time>2023-02-16T10:12:57Z</time>
      </trkpt>
      <trkpt lat="45.37293" lon="5.63273">
        <ele>442</ele>
        <time>2023-02-16T10:12:58Z</time>
      </trkpt>
      <trkpt lat="45.37295" lon="5.63272">
        <ele>443</ele>
        <time>2023-02-16T10:12:59Z</time>
      </trkpt>
      <trkpt lat="45.37298" lon="5.63272">
        <ele>443</ele>
        <time>2023-02-16T10:13:00Z</time>
      </trkpt>
      <trkpt lat="45.373" lon="5.63272">
        <ele>443</ele>
        <time>2023-02-16T10:13:01Z</time>
      </trkpt>
      <trkpt lat="45.37303" lon="5.63271">
        <ele>443</ele>
        <time>2023-02-16T10:13:02Z</time>
      </trkpt>
      <trkpt lat="45.37306" lon="5.63272">
        <ele>443</ele>
        <time>2023-02-16T10:13:03Z</time>
      </trkpt>
      <trkpt lat="45.37308" lon="5.63272">
        <ele>443</ele>
        <time>2023-02-16T10:13:04Z</time>
      </trkpt>
      <trkpt lat="45.37311" lon="5.63272">
        <ele>443</ele>
        <time>2023-02-16T10:13:05Z</time>
      </trkpt>
      <trkpt lat="45.37314" lon="5.63273">
        <ele>444</ele>
        <time>2023-02-16T10:13:06Z</time>
      </trkpt>
      <trkpt lat="45.37316" lon="5.63273">
        <ele>444</ele>
        <time>2023-02-16T10:13:07Z</time>
      </trkpt>
      <trkpt lat="45.37319" lon="5.63274">
        <ele>444</ele>
        <time>2023-02-16T10:13:08Z</time>
      </trkpt>
      <trkpt lat="45.37321" lon="5.63275">
        <ele>444</ele>
        <time>2023-02-16T10:13:09Z</time>
      </trkpt>
      <trkpt lat="45.37323" lon="5.63276">
        <ele>445</ele>
        <time>2023-02-16T10:13:10Z</time>
      </trkpt>
      <trkpt lat="45.37325" lon="5.63277">
        <ele>445</ele>
        <time>2023-02-16T10:13:12Z</time>
      </trkpt>
      <trkpt lat="45.37325" lon="5.63277">
        <ele>445</ele>
        <time>2023-02-16T10:13:18Z</time>
      </trkpt>
      <trkpt lat="45.37333" lon="5.63279">
        <ele>445</ele>
        <time>2023-02-16T10:14:03Z</time>
      </trkpt>
      <trkpt lat="45.37336" lon="5.6328">
        <ele>445</ele>
        <time>2023-02-16T10:14:04Z</time>
      </trkpt>
      <trkpt lat="45.37339" lon="5.63281">
        <ele>445</ele>
        <time>2023-02-16T10:14:05Z</time>
      </trkpt>
      <trkpt lat="45.37342" lon="5.63282">
        <ele>445</ele>
        <time>2023-02-16T10:14:06Z</time>
      </trkpt>
      <trkpt lat="45.37346" lon="5.63283">
        <ele>445</ele>
        <time>2023-02-16T10:14:07Z</time>
      </trkpt>
      <trkpt lat="45.3735" lon="5.63285">
        <ele>445</ele>
        <time>2023-02-16T10:14:08Z</time>
      </trkpt>
      <trkpt lat="45.37354" lon="5.63286">
        <ele>445</ele>
        <time>2023-02-16T10:14:09Z</time>
      </trkpt>
      <trkpt lat="45.37358" lon="5.63288">
        <ele>445</ele>
        <time>2023-02-16T10:14:10Z</time>
      </trkpt>
      <trkpt lat="45.37362" lon="5.6329">
        <ele>445</ele>
        <time>2023-02-16T10:14:11Z</time>
      </trkpt>
      <trkpt lat="45.37367" lon="5.63291">
        <ele>445</ele>
        <time>2023-02-16T10:14:12Z</time>
      </trkpt>
      <trkpt lat="45.37371" lon="5.63292">
        <ele>445</ele>
        <time>2023-02-16T10:14:13Z</time>
      </trkpt>
      <trkpt lat="45.37376" lon="5.63294">
        <ele>445</ele>
        <time>2023-02-16T10:14:14Z</time>
      </trkpt>
      <trkpt lat="45.37381" lon="5.63295">
        <ele>445</ele>
        <time>2023-02-16T10:14:15Z</time>
      </trkpt>
      <trkpt lat="45.37386" lon="5.63297">
        <ele>445</ele>
        <time>2023-02-16T10:14:16Z</time>
      </trkpt>
      <trkpt lat="45.37391" lon="5.63298">
        <ele>445</ele>
        <time>2023-02-16T10:14:17Z</time>
      </trkpt>
      <trkpt lat="45.37396" lon="5.633">
        <ele>445</ele>
        <time>2023-02-16T10:14:18Z</time>
      </trkpt>
      <trkpt lat="45.37402" lon="5.63301">
        <ele>445</ele>
        <time>2023-02-16T10:14:19Z</time>
      </trkpt>
      <trkpt lat="45.37407" lon="5.63302">
        <ele>445</ele>
        <time>2023-02-16T10:14:20Z</time>
      </trkpt>
      <trkpt lat="45.37412" lon="5.63303">
        <ele>445</ele>
        <time>2023-02-16T10:14:21Z</time>
      </trkpt>
      <trkpt lat="45.37417" lon="5.63304">
        <ele>445</ele>
        <time>2023-02-16T10:14:22Z</time>
      </trkpt>
      <trkpt lat="45.37422" lon="5.63306">
        <ele>445</ele>
        <time>2023-02-16T10:14:23Z</time>
      </trkpt>
      <trkpt lat="45.37427" lon="5.63308">
        <ele>445</ele>
        <time>2023-02-16T10:14:24Z</time>
      </trkpt>
      <trkpt lat="45.37432" lon="5.6331">
        <ele>445</ele>
        <time>2023-02-16T10:14:25Z</time>
      </trkpt>
      <trkpt lat="45.37436" lon="5.63312">
        <ele>445</ele>
        <time>2023-02-16T10:14:26Z</time>
      </trkpt>
      <trkpt lat="45.37441" lon="5.63313">
        <ele>445</ele>
        <time>2023-02-16T10:14:27Z</time>
      </trkpt>
      <trkpt lat="45.37446" lon="5.63314">
        <ele>445</ele>
        <time>2023-02-16T10:14:28Z</time>
      </trkpt>
      <trkpt lat="45.3745" lon="5.63316">
        <ele>445</ele>
        <time>2023-02-16T10:14:29Z</time>
      </trkpt>
      <trkpt lat="45.37455" lon="5.63317">
        <ele>445</ele>
        <time>2023-02-16T10:14:30Z</time>
      </trkpt>
      <trkpt lat="45.37459" lon="5.63318">
        <ele>445</ele>
        <time>2023-02-16T10:14:31Z</time>
      </trkpt>
      <trkpt lat="45.37464" lon="5.63318">
        <ele>445</ele>
        <time>2023-02-16T10:14:32Z</time>
      </trkpt>
      <trkpt lat="45.3747" lon="5.63318">
        <ele>446</ele>
        <time>2023-02-16T10:14:33Z</time>
      </trkpt>
      <trkpt lat="45.37475" lon="5.63319">
        <ele>446</ele>
        <time>2023-02-16T10:14:34Z</time>
      </trkpt>
      <trkpt lat="45.3748" lon="5.6332">
        <ele>446</ele>
        <time>2023-02-16T10:14:35Z</time>
      </trkpt>
      <trkpt lat="45.37485" lon="5.63321">
        <ele>446</ele>
        <time>2023-02-16T10:14:36Z</time>
      </trkpt>
      <trkpt lat="45.3749" lon="5.63322">
        <ele>446</ele>
        <time>2023-02-16T10:14:37Z</time>
      </trkpt>
      <trkpt lat="45.37496" lon="5.63324">
        <ele>446</ele>
        <time>2023-02-16T10:14:38Z</time>
      </trkpt>
      <trkpt lat="45.37501" lon="5.63325">
        <ele>446</ele>
        <time>2023-02-16T10:14:39Z</time>
      </trkpt>
      <trkpt lat="45.37506" lon="5.63327">
        <ele>446</ele>
        <time>2023-02-16T10:14:40Z</time>
      </trkpt>
      <trkpt lat="45.37511" lon="5.63328">
        <ele>446</ele>
        <time>2023-02-16T10:14:41Z</time>
      </trkpt>
      <trkpt lat="45.37516" lon="5.6333">
        <ele>446</ele>
        <time>2023-02-16T10:14:42Z</time>
      </trkpt>
      <trkpt lat="45.37522" lon="5.6333">
        <ele>446</ele>
        <time>2023-02-16T10:14:43Z</time>
      </trkpt>
      <trkpt lat="45.37527" lon="5.63332">
        <ele>446</ele>
        <time>2023-02-16T10:14:44Z</time>
      </trkpt>
      <trkpt lat="45.37532" lon="5.63333">
        <ele>447</ele>
        <time>2023-02-16T10:14:45Z</time>
      </trkpt>
      <trkpt lat="45.37538" lon="5.63336">
        <ele>447</ele>
        <time>2023-02-16T10:14:46Z</time>
      </trkpt>
      <trkpt lat="45.37543" lon="5.63338">
        <ele>447</ele>
        <time>2023-02-16T10:14:47Z</time>
      </trkpt>
      <trkpt lat="45.37548" lon="5.63341">
        <ele>447</ele>
        <time>2023-02-16T10:14:48Z</time>
      </trkpt>
      <trkpt lat="45.37553" lon="5.63343">
        <ele>447</ele>
        <time>2023-02-16T10:14:49Z</time>
      </trkpt>
      <trkpt lat="45.37559" lon="5.63345">
        <ele>447</ele>
        <time>2023-02-16T10:14:50Z</time>
      </trkpt>
      <trkpt lat="45.37564" lon="5.63346">
        <ele>447</ele>
        <time>2023-02-16T10:14:51Z</time>
      </trkpt>
      <trkpt lat="45.37569" lon="5.63348">
        <ele>447</ele>
        <time>2023-02-16T10:14:52Z</time>
      </trkpt>
      <trkpt lat="45.37574" lon="5.6335">
        <ele>447</ele>
        <time>2023-02-16T10:14:53Z</time>
      </trkpt>
      <trkpt lat="45.37579" lon="5.63352">
        <ele>447</ele>
        <time>2023-02-16T10:14:54Z</time>
      </trkpt>
      <trkpt lat="45.37584" lon="5.63355">
        <ele>447</ele>
        <time>2023-02-16T10:14:55Z</time>
      </trkpt>
      <trkpt lat="45.3759" lon="5.63357">
        <ele>446</ele>
        <time>2023-02-16T10:14:56Z</time>
      </trkpt>
      <trkpt lat="45.37595" lon="5.63359">
        <ele>447</ele>
        <time>2023-02-16T10:14:57Z</time>
      </trkpt>
      <trkpt lat="45.37601" lon="5.63361">
        <ele>447</ele>
        <time>2023-02-16T10:14:58Z</time>
      </trkpt>
      <trkpt lat="45.37607" lon="5.63362">
        <ele>447</ele>
        <time>2023-02-16T10:14:59Z</time>
      </trkpt>
      <trkpt lat="45.37613" lon="5.63364">
        <ele>447</ele>
        <time>2023-02-16T10:15:00Z</time>
      </trkpt>
      <trkpt lat="45.37619" lon="5.63365">
        <ele>447</ele>
        <time>2023-02-16T10:15:01Z</time>
      </trkpt>
      <trkpt lat="45.37625" lon="5.63367">
        <ele>447</ele>
        <time>2023-02-16T10:15:02Z</time>
      </trkpt>
      <trkpt lat="45.37631" lon="5.63368">
        <ele>447</ele>
        <time>2023-02-16T10:15:03Z</time>
      </trkpt>
      <trkpt lat="45.37638" lon="5.6337">
        <ele>447</ele>
        <time>2023-02-16T10:15:04Z</time>
      </trkpt>
      <trkpt lat="45.37644" lon="5.63371">
        <ele>447</ele>
        <time>2023-02-16T10:15:05Z</time>
      </trkpt>
      <trkpt lat="45.3765" lon="5.63373">
        <ele>447</ele>
        <time>2023-02-16T10:15:06Z</time>
      </trkpt>
      <trkpt lat="45.37656" lon="5.63374">
        <ele>447</ele>
        <time>2023-02-16T10:15:07Z</time>
      </trkpt>
      <trkpt lat="45.37663" lon="5.63375">
        <ele>447</ele>
        <time>2023-02-16T10:15:08Z</time>
      </trkpt>
      <trkpt lat="45.37669" lon="5.63376">
        <ele>446</ele>
        <time>2023-02-16T10:15:09Z</time>
      </trkpt>
      <trkpt lat="45.37675" lon="5.63378">
        <ele>446</ele>
        <time>2023-02-16T10:15:10Z</time>
      </trkpt>
      <trkpt lat="45.37681" lon="5.63379">
        <ele>446</ele>
        <time>2023-02-16T10:15:11Z</time>
      </trkpt>
      <trkpt lat="45.37687" lon="5.6338">
        <ele>446</ele>
        <time>2023-02-16T10:15:12Z</time>
      </trkpt>
      <trkpt lat="45.37693" lon="5.63381">
        <ele>446</ele>
        <time>2023-02-16T10:15:13Z</time>
      </trkpt>
      <trkpt lat="45.37699" lon="5.63382">
        <ele>446</ele>
        <time>2023-02-16T10:15:14Z</time>
      </trkpt>
      <trkpt lat="45.37704" lon="5.63383">
        <ele>446</ele>
        <time>2023-02-16T10:15:15Z</time>
      </trkpt>
      <trkpt lat="45.3771" lon="5.63384">
        <ele>446</ele>
        <time>2023-02-16T10:15:16Z</time>
      </trkpt>
      <trkpt lat="45.37715" lon="5.63385">
        <ele>446</ele>
        <time>2023-02-16T10:15:17Z</time>
      </trkpt>
      <trkpt lat="45.37721" lon="5.63386">
        <ele>447</ele>
        <time>2023-02-16T10:15:18Z</time>
      </trkpt>
      <trkpt lat="45.37727" lon="5.63388">
        <ele>447</ele>
        <time>2023-02-16T10:15:19Z</time>
      </trkpt>
      <trkpt lat="45.37732" lon="5.63389">
        <ele>447</ele>
        <time>2023-02-16T10:15:20Z</time>
      </trkpt>
      <trkpt lat="45.37738" lon="5.6339">
        <ele>447</ele>
        <time>2023-02-16T10:15:21Z</time>
      </trkpt>
      <trkpt lat="45.37743" lon="5.63391">
        <ele>447</ele>
        <time>2023-02-16T10:15:22Z</time>
      </trkpt>
      <trkpt lat="45.37749" lon="5.63392">
        <ele>447</ele>
        <time>2023-02-16T10:15:23Z</time>
      </trkpt>
      <trkpt lat="45.37755" lon="5.63392">
        <ele>448</ele>
        <time>2023-02-16T10:15:24Z</time>
      </trkpt>
      <trkpt lat="45.37761" lon="5.63394">
        <ele>448</ele>
        <time>2023-02-16T10:15:25Z</time>
      </trkpt>
      <trkpt lat="45.37766" lon="5.63395">
        <ele>448</ele>
        <time>2023-02-16T10:15:26Z</time>
      </trkpt>
      <trkpt lat="45.37772" lon="5.63396">
        <ele>448</ele>
        <time>2023-02-16T10:15:27Z</time>
      </trkpt>
      <trkpt lat="45.37777" lon="5.63397">
        <ele>448</ele>
        <time>2023-02-16T10:15:28Z</time>
      </trkpt>
      <trkpt lat="45.37783" lon="5.63399">
        <ele>448</ele>
        <time>2023-02-16T10:15:29Z</time>
      </trkpt>
      <trkpt lat="45.37788" lon="5.634">
        <ele>448</ele>
        <time>2023-02-16T10:15:30Z</time>
      </trkpt>
      <trkpt lat="45.37794" lon="5.63402">
        <ele>448</ele>
        <time>2023-02-16T10:15:31Z</time>
      </trkpt>
      <trkpt lat="45.37799" lon="5.63404">
        <ele>449</ele>
        <time>2023-02-16T10:15:32Z</time>
      </trkpt>
      <trkpt lat="45.37805" lon="5.63406">
        <ele>449</ele>
        <time>2023-02-16T10:15:33Z</time>
      </trkpt>
      <trkpt lat="45.3781" lon="5.63408">
        <ele>449</ele>
        <time>2023-02-16T10:15:34Z</time>
      </trkpt>
      <trkpt lat="45.37816" lon="5.6341">
        <ele>449</ele>
        <time>2023-02-16T10:15:35Z</time>
      </trkpt>
      <trkpt lat="45.37821" lon="5.63412">
        <ele>449</ele>
        <time>2023-02-16T10:15:36Z</time>
      </trkpt>
      <trkpt lat="45.37827" lon="5.63415">
        <ele>449</ele>
        <time>2023-02-16T10:15:37Z</time>
      </trkpt>
      <trkpt lat="45.37833" lon="5.63417">
        <ele>449</ele>
        <time>2023-02-16T10:15:38Z</time>
      </trkpt>
      <trkpt lat="45.37838" lon="5.6342">
        <ele>449</ele>
        <time>2023-02-16T10:15:39Z</time>
      </trkpt>
      <trkpt lat="45.37844" lon="5.63423">
        <ele>449</ele>
        <time>2023-02-16T10:15:40Z</time>
      </trkpt>
      <trkpt lat="45.3785" lon="5.63425">
        <ele>449</ele>
        <time>2023-02-16T10:15:41Z</time>
      </trkpt>
      <trkpt lat="45.37855" lon="5.63428">
        <ele>449</ele>
        <time>2023-02-16T10:15:42Z</time>
      </trkpt>
      <trkpt lat="45.37861" lon="5.63432">
        <ele>449</ele>
        <time>2023-02-16T10:15:43Z</time>
      </trkpt>
      <trkpt lat="45.37867" lon="5.63435">
        <ele>449</ele>
        <time>2023-02-16T10:15:44Z</time>
      </trkpt>
      <trkpt lat="45.37873" lon="5.63438">
        <ele>449</ele>
        <time>2023-02-16T10:15:45Z</time>
      </trkpt>
      <trkpt lat="45.37879" lon="5.63441">
        <ele>449</ele>
        <time>2023-02-16T10:15:46Z</time>
      </trkpt>
      <trkpt lat="45.37885" lon="5.63444">
        <ele>448</ele>
        <time>2023-02-16T10:15:47Z</time>
      </trkpt>
      <trkpt lat="45.37891" lon="5.63446">
        <ele>449</ele>
        <time>2023-02-16T10:15:48Z</time>
      </trkpt>
      <trkpt lat="45.37897" lon="5.63448">
        <ele>449</ele>
        <time>2023-02-16T10:15:49Z</time>
      </trkpt>
      <trkpt lat="45.37903" lon="5.63451">
        <ele>449</ele>
        <time>2023-02-16T10:15:50Z</time>
      </trkpt>
      <trkpt lat="45.3791" lon="5.63453">
        <ele>449</ele>
        <time>2023-02-16T10:15:51Z</time>
      </trkpt>
      <trkpt lat="45.37916" lon="5.63456">
        <ele>449</ele>
        <time>2023-02-16T10:15:52Z</time>
      </trkpt>
      <trkpt lat="45.37922" lon="5.63458">
        <ele>449</ele>
        <time>2023-02-16T10:15:53Z</time>
      </trkpt>
      <trkpt lat="45.37929" lon="5.63461">
        <ele>449</ele>
        <time>2023-02-16T10:15:54Z</time>
      </trkpt>
      <trkpt lat="45.37936" lon="5.63464">
        <ele>448</ele>
        <time>2023-02-16T10:15:55Z</time>
      </trkpt>
      <trkpt lat="45.37943" lon="5.63466">
        <ele>448</ele>
        <time>2023-02-16T10:15:56Z</time>
      </trkpt>
      <trkpt lat="45.37949" lon="5.63469">
        <ele>448</ele>
        <time>2023-02-16T10:15:57Z</time>
      </trkpt>
      <trkpt lat="45.37956" lon="5.63472">
        <ele>448</ele>
        <time>2023-02-16T10:15:58Z</time>
      </trkpt>
      <trkpt lat="45.37963" lon="5.63474">
        <ele>448</ele>
        <time>2023-02-16T10:15:59Z</time>
      </trkpt>
      <trkpt lat="45.3797" lon="5.63477">
        <ele>448</ele>
        <time>2023-02-16T10:16:00Z</time>
      </trkpt>
      <trkpt lat="45.37977" lon="5.6348">
        <ele>448</ele>
        <time>2023-02-16T10:16:01Z</time>
      </trkpt>
      <trkpt lat="45.37984" lon="5.63482">
        <ele>447</ele>
        <time>2023-02-16T10:16:02Z</time>
      </trkpt>
      <trkpt lat="45.37991" lon="5.63485">
        <ele>447</ele>
        <time>2023-02-16T10:16:03Z</time>
      </trkpt>
      <trkpt lat="45.37998" lon="5.63488">
        <ele>447</ele>
        <time>2023-02-16T10:16:04Z</time>
      </trkpt>
      <trkpt lat="45.38005" lon="5.6349">
        <ele>447</ele>
        <time>2023-02-16T10:16:05Z</time>
      </trkpt>
      <trkpt lat="45.38012" lon="5.63493">
        <ele>447</ele>
        <time>2023-02-16T10:16:06Z</time>
      </trkpt>
      <trkpt lat="45.38019" lon="5.63496">
        <ele>447</ele>
        <time>2023-02-16T10:16:07Z</time>
      </trkpt>
      <trkpt lat="45.38025" lon="5.63499">
        <ele>447</ele>
        <time>2023-02-16T10:16:08Z</time>
      </trkpt>
      <trkpt lat="45.38031" lon="5.63502">
        <ele>447</ele>
        <time>2023-02-16T10:16:09Z</time>
      </trkpt>
      <trkpt lat="45.38037" lon="5.63505">
        <ele>446</ele>
        <time>2023-02-16T10:16:10Z</time>
      </trkpt>
      <trkpt lat="45.38042" lon="5.63508">
        <ele>446</ele>
        <time>2023-02-16T10:16:11Z</time>
      </trkpt>
      <trkpt lat="45.38047" lon="5.6351">
        <ele>446</ele>
        <time>2023-02-16T10:16:12Z</time>
      </trkpt>
      <trkpt lat="45.38052" lon="5.63512">
        <ele>446</ele>
        <time>2023-02-16T10:16:13Z</time>
      </trkpt>
      <trkpt lat="45.38058" lon="5.63514">
        <ele>446</ele>
        <time>2023-02-16T10:16:14Z</time>
      </trkpt>
      <trkpt lat="45.38064" lon="5.63515">
        <ele>446</ele>
        <time>2023-02-16T10:16:15Z</time>
      </trkpt>
      <trkpt lat="45.38071" lon="5.63517">
        <ele>446</ele>
        <time>2023-02-16T10:16:16Z</time>
      </trkpt>
      <trkpt lat="45.38077" lon="5.6352">
        <ele>446</ele>
        <time>2023-02-16T10:16:17Z</time>
      </trkpt>
      <trkpt lat="45.38084" lon="5.63522">
        <ele>445</ele>
        <time>2023-02-16T10:16:18Z</time>
      </trkpt>
      <trkpt lat="45.38091" lon="5.63525">
        <ele>445</ele>
        <time>2023-02-16T10:16:19Z</time>
      </trkpt>
      <trkpt lat="45.38097" lon="5.63527">
        <ele>445</ele>
        <time>2023-02-16T10:16:20Z</time>
      </trkpt>
      <trkpt lat="45.38104" lon="5.63529">
        <ele>445</ele>
        <time>2023-02-16T10:16:21Z</time>
      </trkpt>
      <trkpt lat="45.38111" lon="5.63531">
        <ele>445</ele>
        <time>2023-02-16T10:16:22Z</time>
      </trkpt>
      <trkpt lat="45.38118" lon="5.63533">
        <ele>445</ele>
        <time>2023-02-16T10:16:23Z</time>
      </trkpt>
      <trkpt lat="45.38125" lon="5.63535">
        <ele>445</ele>
        <time>2023-02-16T10:16:24Z</time>
      </trkpt>
      <trkpt lat="45.38132" lon="5.63537">
        <ele>445</ele>
        <time>2023-02-16T10:16:25Z</time>
      </trkpt>
      <trkpt lat="45.38139" lon="5.63538">
        <ele>445</ele>
        <time>2023-02-16T10:16:26Z</time>
      </trkpt>
      <trkpt lat="45.38146" lon="5.63539">
        <ele>445</ele>
        <time>2023-02-16T10:16:27Z</time>
      </trkpt>
      <trkpt lat="45.38153" lon="5.6354">
        <ele>445</ele>
        <time>2023-02-16T10:16:28Z</time>
      </trkpt>
      <trkpt lat="45.3816" lon="5.63541">
        <ele>444</ele>
        <time>2023-02-16T10:16:29Z</time>
      </trkpt>
      <trkpt lat="45.38167" lon="5.63542">
        <ele>444</ele>
        <time>2023-02-16T10:16:30Z</time>
      </trkpt>
      <trkpt lat="45.38174" lon="5.63543">
        <ele>444</ele>
        <time>2023-02-16T10:16:31Z</time>
      </trkpt>
      <trkpt lat="45.38182" lon="5.63544">
        <ele>444</ele>
        <time>2023-02-16T10:16:32Z</time>
      </trkpt>
      <trkpt lat="45.38189" lon="5.63546">
        <ele>444</ele>
        <time>2023-02-16T10:16:33Z</time>
      </trkpt>
      <trkpt lat="45.38197" lon="5.63547">
        <ele>444</ele>
        <time>2023-02-16T10:16:34Z</time>
      </trkpt>
      <trkpt lat="45.38204" lon="5.63548">
        <ele>443</ele>
        <time>2023-02-16T10:16:35Z</time>
      </trkpt>
      <trkpt lat="45.38211" lon="5.63549">
        <ele>443</ele>
        <time>2023-02-16T10:16:36Z</time>
      </trkpt>
      <trkpt lat="45.38219" lon="5.6355">
        <ele>443</ele>
        <time>2023-02-16T10:16:37Z</time>
      </trkpt>
      <trkpt lat="45.38226" lon="5.63552">
        <ele>443</ele>
        <time>2023-02-16T10:16:38Z</time>
      </trkpt>
      <trkpt lat="45.38233" lon="5.63553">
        <ele>443</ele>
        <time>2023-02-16T10:16:39Z</time>
      </trkpt>
      <trkpt lat="45.38241" lon="5.63556">
        <ele>443</ele>
        <time>2023-02-16T10:16:40Z</time>
      </trkpt>
      <trkpt lat="45.38248" lon="5.63558">
        <ele>443</ele>
        <time>2023-02-16T10:16:41Z</time>
      </trkpt>
      <trkpt lat="45.38256" lon="5.6356">
        <ele>443</ele>
        <time>2023-02-16T10:16:42Z</time>
      </trkpt>
      <trkpt lat="45.38263" lon="5.63562">
        <ele>443</ele>
        <time>2023-02-16T10:16:43Z</time>
      </trkpt>
      <trkpt lat="45.38271" lon="5.63564">
        <ele>442</ele>
        <time>2023-02-16T10:16:44Z</time>
      </trkpt>
      <trkpt lat="45.38278" lon="5.63565">
        <ele>442</ele>
        <time>2023-02-16T10:16:45Z</time>
      </trkpt>
      <trkpt lat="45.38286" lon="5.63568">
        <ele>442</ele>
        <time>2023-02-16T10:16:46Z</time>
      </trkpt>
      <trkpt lat="45.38293" lon="5.6357">
        <ele>442</ele>
        <time>2023-02-16T10:16:47Z</time>
      </trkpt>
      <trkpt lat="45.38301" lon="5.63571">
        <ele>442</ele>
        <time>2023-02-16T10:16:48Z</time>
      </trkpt>
      <trkpt lat="45.38308" lon="5.63573">
        <ele>442</ele>
        <time>2023-02-16T10:16:49Z</time>
      </trkpt>
      <trkpt lat="45.38315" lon="5.63575">
        <ele>442</ele>
        <time>2023-02-16T10:16:50Z</time>
      </trkpt>
      <trkpt lat="45.38323" lon="5.63578">
        <ele>441</ele>
        <time>2023-02-16T10:16:51Z</time>
      </trkpt>
      <trkpt lat="45.3833" lon="5.63582">
        <ele>441</ele>
        <time>2023-02-16T10:16:52Z</time>
      </trkpt>
      <trkpt lat="45.38337" lon="5.63587">
        <ele>441</ele>
        <time>2023-02-16T10:16:53Z</time>
      </trkpt>
      <trkpt lat="45.38343" lon="5.63591">
        <ele>441</ele>
        <time>2023-02-16T10:16:54Z</time>
      </trkpt>
      <trkpt lat="45.38351" lon="5.63596">
        <ele>441</ele>
        <time>2023-02-16T10:16:55Z</time>
      </trkpt>
      <trkpt lat="45.38358" lon="5.636">
        <ele>440</ele>
        <time>2023-02-16T10:16:56Z</time>
      </trkpt>
      <trkpt lat="45.38365" lon="5.63605">
        <ele>440</ele>
        <time>2023-02-16T10:16:57Z</time>
      </trkpt>
      <trkpt lat="45.38372" lon="5.63612">
        <ele>440</ele>
        <time>2023-02-16T10:16:58Z</time>
      </trkpt>
      <trkpt lat="45.38379" lon="5.63619">
        <ele>439</ele>
        <time>2023-02-16T10:16:59Z</time>
      </trkpt>
      <trkpt lat="45.38385" lon="5.63625">
        <ele>439</ele>
        <time>2023-02-16T10:17:00Z</time>
      </trkpt>
      <trkpt lat="45.3839" lon="5.63631">
        <ele>437</ele>
        <time>2023-02-16T10:17:01Z</time>
      </trkpt>
      <trkpt lat="45.38394" lon="5.63635">
        <ele>437</ele>
        <time>2023-02-16T10:17:02Z</time>
      </trkpt>
      <trkpt lat="45.38396" lon="5.63638">
        <ele>435</ele>
        <time>2023-02-16T10:17:03Z</time>
      </trkpt>
      <trkpt lat="45.38399" lon="5.63641">
        <ele>434</ele>
        <time>2023-02-16T10:17:05Z</time>
      </trkpt>
      <trkpt lat="45.38402" lon="5.6364">
        <ele>434</ele>
        <time>2023-02-16T10:17:06Z</time>
      </trkpt>
      <trkpt lat="45.38404" lon="5.63637">
        <ele>434</ele>
        <time>2023-02-16T10:17:07Z</time>
      </trkpt>
      <trkpt lat="45.38407" lon="5.63633">
        <ele>434</ele>
        <time>2023-02-16T10:17:08Z</time>
      </trkpt>
      <trkpt lat="45.38411" lon="5.63628">
        <ele>434</ele>
        <time>2023-02-16T10:17:09Z</time>
      </trkpt>
      <trkpt lat="45.38414" lon="5.63622">
        <ele>434</ele>
        <time>2023-02-16T10:17:10Z</time>
      </trkpt>
      <trkpt lat="45.38418" lon="5.63616">
        <ele>434</ele>
        <time>2023-02-16T10:17:11Z</time>
      </trkpt>
      <trkpt lat="45.38423" lon="5.6361">
        <ele>434</ele>
        <time>2023-02-16T10:17:12Z</time>
      </trkpt>
      <trkpt lat="45.38427" lon="5.63603">
        <ele>434</ele>
        <time>2023-02-16T10:17:13Z</time>
      </trkpt>
      <trkpt lat="45.38431" lon="5.63596">
        <ele>434</ele>
        <time>2023-02-16T10:17:14Z</time>
      </trkpt>
      <trkpt lat="45.38435" lon="5.63588">
        <ele>434</ele>
        <time>2023-02-16T10:17:15Z</time>
      </trkpt>
      <trkpt lat="45.38439" lon="5.6358">
        <ele>433</ele>
        <time>2023-02-16T10:17:16Z</time>
      </trkpt>
      <trkpt lat="45.38442" lon="5.63571">
        <ele>433</ele>
        <time>2023-02-16T10:17:17Z</time>
      </trkpt>
      <trkpt lat="45.38446" lon="5.63561">
        <ele>433</ele>
        <time>2023-02-16T10:17:18Z</time>
      </trkpt>
      <trkpt lat="45.38449" lon="5.63551">
        <ele>432</ele>
        <time>2023-02-16T10:17:19Z</time>
      </trkpt>
      <trkpt lat="45.38451" lon="5.6354">
        <ele>432</ele>
        <time>2023-02-16T10:17:20Z</time>
      </trkpt>
      <trkpt lat="45.38454" lon="5.63529">
        <ele>431</ele>
        <time>2023-02-16T10:17:21Z</time>
      </trkpt>
      <trkpt lat="45.38457" lon="5.63518">
        <ele>430</ele>
        <time>2023-02-16T10:17:22Z</time>
      </trkpt>
      <trkpt lat="45.38459" lon="5.63507">
        <ele>430</ele>
        <time>2023-02-16T10:17:23Z</time>
      </trkpt>
      <trkpt lat="45.38461" lon="5.63496">
        <ele>430</ele>
        <time>2023-02-16T10:17:24Z</time>
      </trkpt>
      <trkpt lat="45.38463" lon="5.63485">
        <ele>429</ele>
        <time>2023-02-16T10:17:25Z</time>
      </trkpt>
      <trkpt lat="45.38465" lon="5.63474">
        <ele>429</ele>
        <time>2023-02-16T10:17:26Z</time>
      </trkpt>
      <trkpt lat="45.38468" lon="5.63466">
        <ele>429</ele>
        <time>2023-02-16T10:17:27Z</time>
      </trkpt>
      <trkpt lat="45.38472" lon="5.6346">
        <ele>429</ele>
        <time>2023-02-16T10:17:28Z</time>
      </trkpt>
      <trkpt lat="45.38477" lon="5.63457">
        <ele>429</ele>
        <time>2023-02-16T10:17:29Z</time>
      </trkpt>
      <trkpt lat="45.38483" lon="5.63459">
        <ele>429</ele>
        <time>2023-02-16T10:17:30Z</time>
      </trkpt>
      <trkpt lat="45.38488" lon="5.63464">
        <ele>429</ele>
        <time>2023-02-16T10:17:31Z</time>
      </trkpt>
      <trkpt lat="45.38492" lon="5.6347">
        <ele>429</ele>
        <time>2023-02-16T10:17:32Z</time>
      </trkpt>
      <trkpt lat="45.38496" lon="5.63476">
        <ele>429</ele>
        <time>2023-02-16T10:17:33Z</time>
      </trkpt>
      <trkpt lat="45.385" lon="5.63482">
        <ele>429</ele>
        <time>2023-02-16T10:17:34Z</time>
      </trkpt>
      <trkpt lat="45.38504" lon="5.63488">
        <ele>429</ele>
        <time>2023-02-16T10:17:35Z</time>
      </trkpt>
      <trkpt lat="45.38509" lon="5.63494">
        <ele>429</ele>
        <time>2023-02-16T10:17:36Z</time>
      </trkpt>
      <trkpt lat="45.38513" lon="5.63499">
        <ele>429</ele>
        <time>2023-02-16T10:17:37Z</time>
      </trkpt>
      <trkpt lat="45.38517" lon="5.63504">
        <ele>429</ele>
        <time>2023-02-16T10:17:38Z</time>
      </trkpt>
      <trkpt lat="45.38522" lon="5.6351">
        <ele>429</ele>
        <time>2023-02-16T10:17:39Z</time>
      </trkpt>
      <trkpt lat="45.38526" lon="5.63515">
        <ele>429</ele>
        <time>2023-02-16T10:17:40Z</time>
      </trkpt>
      <trkpt lat="45.38531" lon="5.63521">
        <ele>429</ele>
        <time>2023-02-16T10:17:41Z</time>
      </trkpt>
      <trkpt lat="45.38535" lon="5.63526">
        <ele>429</ele>
        <time>2023-02-16T10:17:42Z</time>
      </trkpt>
      <trkpt lat="45.38539" lon="5.63532">
        <ele>428</ele>
        <time>2023-02-16T10:17:43Z</time>
      </trkpt>
      <trkpt lat="45.38543" lon="5.63537">
        <ele>428</ele>
        <time>2023-02-16T10:17:44Z</time>
      </trkpt>
      <trkpt lat="45.38548" lon="5.63543">
        <ele>428</ele>
        <time>2023-02-16T10:17:45Z</time>
      </trkpt>
      <trkpt lat="45.38552" lon="5.63548">
        <ele>429</ele>
        <time>2023-02-16T10:17:46Z</time>
      </trkpt>
      <trkpt lat="45.38556" lon="5.63553">
        <ele>429</ele>
        <time>2023-02-16T10:17:47Z</time>
      </trkpt>
      <trkpt lat="45.3856" lon="5.63558">
        <ele>429</ele>
        <time>2023-02-16T10:17:48Z</time>
      </trkpt>
      <trkpt lat="45.38564" lon="5.63564">
        <ele>429</ele>
        <time>2023-02-16T10:17:49Z</time>
      </trkpt>
      <trkpt lat="45.38568" lon="5.63569">
        <ele>429</ele>
        <time>2023-02-16T10:17:50Z</time>
      </trkpt>
      <trkpt lat="45.38572" lon="5.63574">
        <ele>429</ele>
        <time>2023-02-16T10:17:51Z</time>
      </trkpt>
      <trkpt lat="45.38576" lon="5.63579">
        <ele>429</ele>
        <time>2023-02-16T10:17:52Z</time>
      </trkpt>
      <trkpt lat="45.3858" lon="5.63584">
        <ele>429</ele>
        <time>2023-02-16T10:17:53Z</time>
      </trkpt>
      <trkpt lat="45.38584" lon="5.63589">
        <ele>429</ele>
        <time>2023-02-16T10:17:54Z</time>
      </trkpt>
      <trkpt lat="45.38588" lon="5.63594">
        <ele>429</ele>
        <time>2023-02-16T10:17:55Z</time>
      </trkpt>
      <trkpt lat="45.38592" lon="5.63598">
        <ele>429</ele>
        <time>2023-02-16T10:17:56Z</time>
      </trkpt>
      <trkpt lat="45.38596" lon="5.63603">
        <ele>429</ele>
        <time>2023-02-16T10:17:57Z</time>
      </trkpt>
      <trkpt lat="45.386" lon="5.63608">
        <ele>429</ele>
        <time>2023-02-16T10:17:58Z</time>
      </trkpt>
      <trkpt lat="45.38604" lon="5.63612">
        <ele>429</ele>
        <time>2023-02-16T10:17:59Z</time>
      </trkpt>
      <trkpt lat="45.38607" lon="5.63617">
        <ele>429</ele>
        <time>2023-02-16T10:18:00Z</time>
      </trkpt>
      <trkpt lat="45.38611" lon="5.63622">
        <ele>429</ele>
        <time>2023-02-16T10:18:01Z</time>
      </trkpt>
      <trkpt lat="45.38615" lon="5.63627">
        <ele>429</ele>
        <time>2023-02-16T10:18:02Z</time>
      </trkpt>
      <trkpt lat="45.38618" lon="5.63631">
        <ele>429</ele>
        <time>2023-02-16T10:18:03Z</time>
      </trkpt>
      <trkpt lat="45.38622" lon="5.63636">
        <ele>429</ele>
        <time>2023-02-16T10:18:04Z</time>
      </trkpt>
      <trkpt lat="45.38625" lon="5.6364">
        <ele>430</ele>
        <time>2023-02-16T10:18:05Z</time>
      </trkpt>
      <trkpt lat="45.38629" lon="5.63645">
        <ele>430</ele>
        <time>2023-02-16T10:18:06Z</time>
      </trkpt>
      <trkpt lat="45.38632" lon="5.63649">
        <ele>430</ele>
        <time>2023-02-16T10:18:07Z</time>
      </trkpt>
      <trkpt lat="45.38635" lon="5.63653">
        <ele>430</ele>
        <time>2023-02-16T10:18:08Z</time>
      </trkpt>
      <trkpt lat="45.38639" lon="5.63657">
        <ele>431</ele>
        <time>2023-02-16T10:18:09Z</time>
      </trkpt>
      <trkpt lat="45.38642" lon="5.63661">
        <ele>431</ele>
        <time>2023-02-16T10:18:10Z</time>
      </trkpt>
      <trkpt lat="45.38645" lon="5.63665">
        <ele>431</ele>
        <time>2023-02-16T10:18:11Z</time>
      </trkpt>
      <trkpt lat="45.38648" lon="5.63668">
        <ele>432</ele>
        <time>2023-02-16T10:18:12Z</time>
      </trkpt>
      <trkpt lat="45.38651" lon="5.63672">
        <ele>432</ele>
        <time>2023-02-16T10:18:13Z</time>
      </trkpt>
      <trkpt lat="45.38654" lon="5.63676">
        <ele>432</ele>
        <time>2023-02-16T10:18:14Z</time>
      </trkpt>
      <trkpt lat="45.38656" lon="5.6368">
        <ele>433</ele>
        <time>2023-02-16T10:18:15Z</time>
      </trkpt>
      <trkpt lat="45.38659" lon="5.63684">
        <ele>433</ele>
        <time>2023-02-16T10:18:16Z</time>
      </trkpt>
      <trkpt lat="45.38661" lon="5.63687">
        <ele>433</ele>
        <time>2023-02-16T10:18:17Z</time>
      </trkpt>
      <trkpt lat="45.38663" lon="5.63691">
        <ele>433</ele>
        <time>2023-02-16T10:18:18Z</time>
      </trkpt>
      <trkpt lat="45.38665" lon="5.63695">
        <ele>434</ele>
        <time>2023-02-16T10:18:19Z</time>
      </trkpt>
      <trkpt lat="45.38667" lon="5.63699">
        <ele>434</ele>
        <time>2023-02-16T10:18:20Z</time>
      </trkpt>
      <trkpt lat="45.38669" lon="5.63703">
        <ele>434</ele>
        <time>2023-02-16T10:18:21Z</time>
      </trkpt>
      <trkpt lat="45.3867" lon="5.63707">
        <ele>434</ele>
        <time>2023-02-16T10:18:22Z</time>
      </trkpt>
      <trkpt lat="45.38672" lon="5.63711">
        <ele>435</ele>
        <time>2023-02-16T10:18:23Z</time>
      </trkpt>
      <trkpt lat="45.38673" lon="5.63716">
        <ele>435</ele>
        <time>2023-02-16T10:18:24Z</time>
      </trkpt>
      <trkpt lat="45.38673" lon="5.6372">
        <ele>435</ele>
        <time>2023-02-16T10:18:25Z</time>
      </trkpt>
      <trkpt lat="45.38674" lon="5.63725">
        <ele>435</ele>
        <time>2023-02-16T10:18:26Z</time>
      </trkpt>
      <trkpt lat="45.38674" lon="5.6373">
        <ele>435</ele>
        <time>2023-02-16T10:18:27Z</time>
      </trkpt>
      <trkpt lat="45.38675" lon="5.63734">
        <ele>435</ele>
        <time>2023-02-16T10:18:28Z</time>
      </trkpt>
      <trkpt lat="45.38676" lon="5.63738">
        <ele>435</ele>
        <time>2023-02-16T10:18:29Z</time>
      </trkpt>
      <trkpt lat="45.38676" lon="5.63743">
        <ele>435</ele>
        <time>2023-02-16T10:18:30Z</time>
      </trkpt>
      <trkpt lat="45.38677" lon="5.63747">
        <ele>435</ele>
        <time>2023-02-16T10:18:31Z</time>
      </trkpt>
      <trkpt lat="45.38677" lon="5.63752">
        <ele>435</ele>
        <time>2023-02-16T10:18:32Z</time>
      </trkpt>
      <trkpt lat="45.38678" lon="5.63757">
        <ele>436</ele>
        <time>2023-02-16T10:18:33Z</time>
      </trkpt>
      <trkpt lat="45.38678" lon="5.63761">
        <ele>436</ele>
        <time>2023-02-16T10:18:34Z</time>
      </trkpt>
      <trkpt lat="45.38678" lon="5.63766">
        <ele>437</ele>
        <time>2023-02-16T10:18:35Z</time>
      </trkpt>
      <trkpt lat="45.38679" lon="5.63771">
        <ele>437</ele>
        <time>2023-02-16T10:18:36Z</time>
      </trkpt>
      <trkpt lat="45.38679" lon="5.63775">
        <ele>437</ele>
        <time>2023-02-16T10:18:37Z</time>
      </trkpt>
      <trkpt lat="45.3868" lon="5.6378">
        <ele>437</ele>
        <time>2023-02-16T10:18:38Z</time>
      </trkpt>
      <trkpt lat="45.3868" lon="5.63784">
        <ele>437</ele>
        <time>2023-02-16T10:18:39Z</time>
      </trkpt>
      <trkpt lat="45.38681" lon="5.63789">
        <ele>437</ele>
        <time>2023-02-16T10:18:40Z</time>
      </trkpt>
      <trkpt lat="45.38681" lon="5.63793">
        <ele>438</ele>
        <time>2023-02-16T10:18:41Z</time>
      </trkpt>
      <trkpt lat="45.38682" lon="5.63797">
        <ele>438</ele>
        <time>2023-02-16T10:18:42Z</time>
      </trkpt>
      <trkpt lat="45.38683" lon="5.63801">
        <ele>438</ele>
        <time>2023-02-16T10:18:43Z</time>
      </trkpt>
      <trkpt lat="45.38683" lon="5.63805">
        <ele>438</ele>
        <time>2023-02-16T10:18:44Z</time>
      </trkpt>
      <trkpt lat="45.38684" lon="5.63809">
        <ele>439</ele>
        <time>2023-02-16T10:18:45Z</time>
      </trkpt>
      <trkpt lat="45.38684" lon="5.63813">
        <ele>439</ele>
        <time>2023-02-16T10:18:46Z</time>
      </trkpt>
      <trkpt lat="45.38685" lon="5.63817">
        <ele>439</ele>
        <time>2023-02-16T10:18:47Z</time>
      </trkpt>
      <trkpt lat="45.38686" lon="5.63821">
        <ele>439</ele>
        <time>2023-02-16T10:18:48Z</time>
      </trkpt>
      <trkpt lat="45.38686" lon="5.63825">
        <ele>439</ele>
        <time>2023-02-16T10:18:49Z</time>
      </trkpt>
      <trkpt lat="45.38687" lon="5.63829">
        <ele>440</ele>
        <time>2023-02-16T10:18:50Z</time>
      </trkpt>
      <trkpt lat="45.38687" lon="5.63833">
        <ele>440</ele>
        <time>2023-02-16T10:18:51Z</time>
      </trkpt>
      <trkpt lat="45.38688" lon="5.63836">
        <ele>440</ele>
        <time>2023-02-16T10:18:52Z</time>
      </trkpt>
      <trkpt lat="45.38689" lon="5.6384">
        <ele>440</ele>
        <time>2023-02-16T10:18:53Z</time>
      </trkpt>
      <trkpt lat="45.3869" lon="5.63844">
        <ele>440</ele>
        <time>2023-02-16T10:18:54Z</time>
      </trkpt>
      <trkpt lat="45.3869" lon="5.63848">
        <ele>440</ele>
        <time>2023-02-16T10:18:55Z</time>
      </trkpt>
      <trkpt lat="45.38691" lon="5.63851">
        <ele>440</ele>
        <time>2023-02-16T10:18:56Z</time>
      </trkpt>
      <trkpt lat="45.38692" lon="5.63855">
        <ele>441</ele>
        <time>2023-02-16T10:18:57Z</time>
      </trkpt>
      <trkpt lat="45.38693" lon="5.63859">
        <ele>441</ele>
        <time>2023-02-16T10:18:58Z</time>
      </trkpt>
      <trkpt lat="45.38694" lon="5.63863">
        <ele>441</ele>
        <time>2023-02-16T10:18:59Z</time>
      </trkpt>
      <trkpt lat="45.38695" lon="5.63866">
        <ele>441</ele>
        <time>2023-02-16T10:19:00Z</time>
      </trkpt>
      <trkpt lat="45.38696" lon="5.6387">
        <ele>441</ele>
        <time>2023-02-16T10:19:01Z</time>
      </trkpt>
      <trkpt lat="45.38697" lon="5.63874">
        <ele>441</ele>
        <time>2023-02-16T10:19:02Z</time>
      </trkpt>
      <trkpt lat="45.38698" lon="5.63878">
        <ele>442</ele>
        <time>2023-02-16T10:19:03Z</time>
      </trkpt>
      <trkpt lat="45.38698" lon="5.63882">
        <ele>442</ele>
        <time>2023-02-16T10:19:04Z</time>
      </trkpt>
      <trkpt lat="45.38699" lon="5.63886">
        <ele>442</ele>
        <time>2023-02-16T10:19:05Z</time>
      </trkpt>
      <trkpt lat="45.387" lon="5.6389">
        <ele>442</ele>
        <time>2023-02-16T10:19:06Z</time>
      </trkpt>
      <trkpt lat="45.38701" lon="5.63893">
        <ele>442</ele>
        <time>2023-02-16T10:19:07Z</time>
      </trkpt>
      <trkpt lat="45.38702" lon="5.63897">
        <ele>442</ele>
        <time>2023-02-16T10:19:08Z</time>
      </trkpt>
      <trkpt lat="45.38703" lon="5.63901">
        <ele>442</ele>
        <time>2023-02-16T10:19:09Z</time>
      </trkpt>
      <trkpt lat="45.38704" lon="5.63905">
        <ele>442</ele>
        <time>2023-02-16T10:19:10Z</time>
      </trkpt>
      <trkpt lat="45.38705" lon="5.63908">
        <ele>443</ele>
        <time>2023-02-16T10:19:11Z</time>
      </trkpt>
      <trkpt lat="45.38706" lon="5.63912">
        <ele>443</ele>
        <time>2023-02-16T10:19:12Z</time>
      </trkpt>
      <trkpt lat="45.38707" lon="5.63915">
        <ele>443</ele>
        <time>2023-02-16T10:19:13Z</time>
      </trkpt>
      <trkpt lat="45.38708" lon="5.63919">
        <ele>443</ele>
        <time>2023-02-16T10:19:14Z</time>
      </trkpt>
      <trkpt lat="45.38709" lon="5.63922">
        <ele>443</ele>
        <time>2023-02-16T10:19:15Z</time>
      </trkpt>
      <trkpt lat="45.3871" lon="5.63926">
        <ele>444</ele>
        <time>2023-02-16T10:19:16Z</time>
      </trkpt>
      <trkpt lat="45.38711" lon="5.63929">
        <ele>444</ele>
        <time>2023-02-16T10:19:17Z</time>
      </trkpt>
      <trkpt lat="45.38713" lon="5.63933">
        <ele>444</ele>
        <time>2023-02-16T10:19:18Z</time>
      </trkpt>
      <trkpt lat="45.38714" lon="5.63936">
        <ele>445</ele>
        <time>2023-02-16T10:19:19Z</time>
      </trkpt>
      <trkpt lat="45.38716" lon="5.63939">
        <ele>445</ele>
        <time>2023-02-16T10:19:20Z</time>
      </trkpt>
      <trkpt lat="45.38718" lon="5.63941">
        <ele>445</ele>
        <time>2023-02-16T10:19:21Z</time>
      </trkpt>
      <trkpt lat="45.3872" lon="5.63944">
        <ele>445</ele>
        <time>2023-02-16T10:19:22Z</time>
      </trkpt>
      <trkpt lat="45.38722" lon="5.63947">
        <ele>445</ele>
        <time>2023-02-16T10:19:23Z</time>
      </trkpt>
      <trkpt lat="45.38725" lon="5.6395">
        <ele>445</ele>
        <time>2023-02-16T10:19:24Z</time>
      </trkpt>
      <trkpt lat="45.38727" lon="5.63952">
        <ele>446</ele>
        <time>2023-02-16T10:19:25Z</time>
      </trkpt>
      <trkpt lat="45.38729" lon="5.63955">
        <ele>446</ele>
        <time>2023-02-16T10:19:26Z</time>
      </trkpt>
      <trkpt lat="45.38731" lon="5.63958">
        <ele>446</ele>
        <time>2023-02-16T10:19:27Z</time>
      </trkpt>
      <trkpt lat="45.38733" lon="5.63961">
        <ele>446</ele>
        <time>2023-02-16T10:19:28Z</time>
      </trkpt>
      <trkpt lat="45.38735" lon="5.63964">
        <ele>447</ele>
        <time>2023-02-16T10:19:29Z</time>
      </trkpt>
      <trkpt lat="45.38737" lon="5.63967">
        <ele>447</ele>
        <time>2023-02-16T10:19:30Z</time>
      </trkpt>
      <trkpt lat="45.38739" lon="5.63969">
        <ele>447</ele>
        <time>2023-02-16T10:19:31Z</time>
      </trkpt>
      <trkpt lat="45.38741" lon="5.63972">
        <ele>447</ele>
        <time>2023-02-16T10:19:32Z</time>
      </trkpt>
      <trkpt lat="45.38743" lon="5.63976">
        <ele>447</ele>
        <time>2023-02-16T10:19:33Z</time>
      </trkpt>
      <trkpt lat="45.38745" lon="5.63979">
        <ele>448</ele>
        <time>2023-02-16T10:19:34Z</time>
      </trkpt>
      <trkpt lat="45.38746" lon="5.63982">
        <ele>448</ele>
        <time>2023-02-16T10:19:35Z</time>
      </trkpt>
      <trkpt lat="45.38748" lon="5.63985">
        <ele>448</ele>
        <time>2023-02-16T10:19:36Z</time>
      </trkpt>
      <trkpt lat="45.3875" lon="5.63989">
        <ele>448</ele>
        <time>2023-02-16T10:19:37Z</time>
      </trkpt>
      <trkpt lat="45.38751" lon="5.63992">
        <ele>448</ele>
        <time>2023-02-16T10:19:38Z</time>
      </trkpt>
      <trkpt lat="45.38753" lon="5.63996">
        <ele>448</ele>
        <time>2023-02-16T10:19:39Z</time>
      </trkpt>
      <trkpt lat="45.38754" lon="5.63999">
        <ele>448</ele>
        <time>2023-02-16T10:19:40Z</time>
      </trkpt>
      <trkpt lat="45.38756" lon="5.64003">
        <ele>448</ele>
        <time>2023-02-16T10:19:41Z</time>
      </trkpt>
      <trkpt lat="45.38757" lon="5.64006">
        <ele>448</ele>
        <time>2023-02-16T10:19:42Z</time>
      </trkpt>
      <trkpt lat="45.38759" lon="5.6401">
        <ele>448</ele>
        <time>2023-02-16T10:19:43Z</time>
      </trkpt>
      <trkpt lat="45.3876" lon="5.64014">
        <ele>448</ele>
        <time>2023-02-16T10:19:44Z</time>
      </trkpt>
      <trkpt lat="45.38762" lon="5.64018">
        <ele>448</ele>
        <time>2023-02-16T10:19:45Z</time>
      </trkpt>
      <trkpt lat="45.38763" lon="5.64022">
        <ele>448</ele>
        <time>2023-02-16T10:19:46Z</time>
      </trkpt>
      <trkpt lat="45.38765" lon="5.64026">
        <ele>448</ele>
        <time>2023-02-16T10:19:47Z</time>
      </trkpt>
      <trkpt lat="45.38767" lon="5.64029">
        <ele>448</ele>
        <time>2023-02-16T10:19:48Z</time>
      </trkpt>
      <trkpt lat="45.38768" lon="5.64033">
        <ele>448</ele>
        <time>2023-02-16T10:19:49Z</time>
      </trkpt>
      <trkpt lat="45.3877" lon="5.64037">
        <ele>449</ele>
        <time>2023-02-16T10:19:50Z</time>
      </trkpt>
      <trkpt lat="45.38772" lon="5.64041">
        <ele>449</ele>
        <time>2023-02-16T10:19:51Z</time>
      </trkpt>
      <trkpt lat="45.38774" lon="5.64046">
        <ele>449</ele>
        <time>2023-02-16T10:19:52Z</time>
      </trkpt>
      <trkpt lat="45.38776" lon="5.6405">
        <ele>449</ele>
        <time>2023-02-16T10:19:53Z</time>
      </trkpt>
      <trkpt lat="45.38779" lon="5.64055">
        <ele>449</ele>
        <time>2023-02-16T10:19:54Z</time>
      </trkpt>
      <trkpt lat="45.38781" lon="5.6406">
        <ele>449</ele>
        <time>2023-02-16T10:19:55Z</time>
      </trkpt>
      <trkpt lat="45.38784" lon="5.64064">
        <ele>449</ele>
        <time>2023-02-16T10:19:56Z</time>
      </trkpt>
      <trkpt lat="45.38787" lon="5.64069">
        <ele>449</ele>
        <time>2023-02-16T10:19:57Z</time>
      </trkpt>
      <trkpt lat="45.3879" lon="5.64074">
        <ele>449</ele>
        <time>2023-02-16T10:19:58Z</time>
      </trkpt>
      <trkpt lat="45.38792" lon="5.64079">
        <ele>449</ele>
        <time>2023-02-16T10:19:59Z</time>
      </trkpt>
      <trkpt lat="45.38795" lon="5.64084">
        <ele>449</ele>
        <time>2023-02-16T10:20:00Z</time>
      </trkpt>
      <trkpt lat="45.38798" lon="5.64089">
        <ele>449</ele>
        <time>2023-02-16T10:20:01Z</time>
      </trkpt>
      <trkpt lat="45.38801" lon="5.64094">
        <ele>449</ele>
        <time>2023-02-16T10:20:02Z</time>
      </trkpt>
      <trkpt lat="45.38804" lon="5.64099">
        <ele>449</ele>
        <time>2023-02-16T10:20:03Z</time>
      </trkpt>
      <trkpt lat="45.38807" lon="5.64103">
        <ele>449</ele>
        <time>2023-02-16T10:20:04Z</time>
      </trkpt>
      <trkpt lat="45.3881" lon="5.64108">
        <ele>449</ele>
        <time>2023-02-16T10:20:05Z</time>
      </trkpt>
      <trkpt lat="45.38812" lon="5.64113">
        <ele>449</ele>
        <time>2023-02-16T10:20:06Z</time>
      </trkpt>
      <trkpt lat="45.38815" lon="5.64118">
        <ele>449</ele>
        <time>2023-02-16T10:20:07Z</time>
      </trkpt>
      <trkpt lat="45.38818" lon="5.64122">
        <ele>450</ele>
        <time>2023-02-16T10:20:08Z</time>
      </trkpt>
      <trkpt lat="45.3882" lon="5.64126">
        <ele>450</ele>
        <time>2023-02-16T10:20:09Z</time>
      </trkpt>
      <trkpt lat="45.38822" lon="5.6413">
        <ele>450</ele>
        <time>2023-02-16T10:20:10Z</time>
      </trkpt>
      <trkpt lat="45.38825" lon="5.64134">
        <ele>450</ele>
        <time>2023-02-16T10:20:11Z</time>
      </trkpt>
      <trkpt lat="45.38827" lon="5.64138">
        <ele>450</ele>
        <time>2023-02-16T10:20:12Z</time>
      </trkpt>
      <trkpt lat="45.38829" lon="5.64142">
        <ele>450</ele>
        <time>2023-02-16T10:20:13Z</time>
      </trkpt>
      <trkpt lat="45.38832" lon="5.64146">
        <ele>450</ele>
        <time>2023-02-16T10:20:14Z</time>
      </trkpt>
      <trkpt lat="45.38834" lon="5.6415">
        <ele>450</ele>
        <time>2023-02-16T10:20:15Z</time>
      </trkpt>
      <trkpt lat="45.38836" lon="5.64154">
        <ele>451</ele>
        <time>2023-02-16T10:20:16Z</time>
      </trkpt>
      <trkpt lat="45.38839" lon="5.64158">
        <ele>451</ele>
        <time>2023-02-16T10:20:17Z</time>
      </trkpt>
      <trkpt lat="45.38841" lon="5.64161">
        <ele>451</ele>
        <time>2023-02-16T10:20:18Z</time>
      </trkpt>
      <trkpt lat="45.38843" lon="5.64165">
        <ele>451</ele>
        <time>2023-02-16T10:20:19Z</time>
      </trkpt>
      <trkpt lat="45.38845" lon="5.64169">
        <ele>452</ele>
        <time>2023-02-16T10:20:20Z</time>
      </trkpt>
      <trkpt lat="45.38848" lon="5.64173">
        <ele>452</ele>
        <time>2023-02-16T10:20:21Z</time>
      </trkpt>
      <trkpt lat="45.3885" lon="5.64177">
        <ele>452</ele>
        <time>2023-02-16T10:20:22Z</time>
      </trkpt>
      <trkpt lat="45.38852" lon="5.6418">
        <ele>453</ele>
        <time>2023-02-16T10:20:23Z</time>
      </trkpt>
      <trkpt lat="45.38854" lon="5.64184">
        <ele>453</ele>
        <time>2023-02-16T10:20:24Z</time>
      </trkpt>
      <trkpt lat="45.38856" lon="5.64188">
        <ele>454</ele>
        <time>2023-02-16T10:20:25Z</time>
      </trkpt>
      <trkpt lat="45.38858" lon="5.64191">
        <ele>454</ele>
        <time>2023-02-16T10:20:26Z</time>
      </trkpt>
      <trkpt lat="45.3886" lon="5.64195">
        <ele>454</ele>
        <time>2023-02-16T10:20:27Z</time>
      </trkpt>
      <trkpt lat="45.38862" lon="5.64198">
        <ele>454</ele>
        <time>2023-02-16T10:20:28Z</time>
      </trkpt>
      <trkpt lat="45.38865" lon="5.64202">
        <ele>454</ele>
        <time>2023-02-16T10:20:29Z</time>
      </trkpt>
      <trkpt lat="45.38867" lon="5.64205">
        <ele>454</ele>
        <time>2023-02-16T10:20:30Z</time>
      </trkpt>
      <trkpt lat="45.3887" lon="5.64208">
        <ele>455</ele>
        <time>2023-02-16T10:20:31Z</time>
      </trkpt>
      <trkpt lat="45.38873" lon="5.64212">
        <ele>455</ele>
        <time>2023-02-16T10:20:32Z</time>
      </trkpt>
      <trkpt lat="45.38875" lon="5.64215">
        <ele>455</ele>
        <time>2023-02-16T10:20:33Z</time>
      </trkpt>
      <trkpt lat="45.38878" lon="5.64218">
        <ele>455</ele>
        <time>2023-02-16T10:20:34Z</time>
      </trkpt>
      <trkpt lat="45.38881" lon="5.64221">
        <ele>455</ele>
        <time>2023-02-16T10:20:35Z</time>
      </trkpt>
      <trkpt lat="45.38883" lon="5.64225">
        <ele>455</ele>
        <time>2023-02-16T10:20:36Z</time>
      </trkpt>
      <trkpt lat="45.38886" lon="5.64228">
        <ele>455</ele>
        <time>2023-02-16T10:20:37Z</time>
      </trkpt>
      <trkpt lat="45.38889" lon="5.64231">
        <ele>455</ele>
        <time>2023-02-16T10:20:38Z</time>
      </trkpt>
      <trkpt lat="45.38892" lon="5.64235">
        <ele>455</ele>
        <time>2023-02-16T10:20:39Z</time>
      </trkpt>
      <trkpt lat="45.38895" lon="5.64238">
        <ele>455</ele>
        <time>2023-02-16T10:20:40Z</time>
      </trkpt>
      <trkpt lat="45.38897" lon="5.64242">
        <ele>455</ele>
        <time>2023-02-16T10:20:41Z</time>
      </trkpt>
      <trkpt lat="45.389" lon="5.64246">
        <ele>455</ele>
        <time>2023-02-16T10:20:42Z</time>
      </trkpt>
      <trkpt lat="45.38903" lon="5.64249">
        <ele>455</ele>
        <time>2023-02-16T10:20:43Z</time>
      </trkpt>
      <trkpt lat="45.38905" lon="5.64253">
        <ele>455</ele>
        <time>2023-02-16T10:20:44Z</time>
      </trkpt>
      <trkpt lat="45.38908" lon="5.64257">
        <ele>455</ele>
        <time>2023-02-16T10:20:45Z</time>
      </trkpt>
      <trkpt lat="45.3891" lon="5.64261">
        <ele>456</ele>
        <time>2023-02-16T10:20:46Z</time>
      </trkpt>
      <trkpt lat="45.38912" lon="5.64265">
        <ele>456</ele>
        <time>2023-02-16T10:20:47Z</time>
      </trkpt>
      <trkpt lat="45.38915" lon="5.64269">
        <ele>456</ele>
        <time>2023-02-16T10:20:48Z</time>
      </trkpt>
      <trkpt lat="45.38917" lon="5.64273">
        <ele>456</ele>
        <time>2023-02-16T10:20:49Z</time>
      </trkpt>
      <trkpt lat="45.38919" lon="5.64276">
        <ele>456</ele>
        <time>2023-02-16T10:20:50Z</time>
      </trkpt>
      <trkpt lat="45.38921" lon="5.64279">
        <ele>456</ele>
        <time>2023-02-16T10:20:51Z</time>
      </trkpt>
      <trkpt lat="45.38924" lon="5.64283">
        <ele>456</ele>
        <time>2023-02-16T10:20:52Z</time>
      </trkpt>
      <trkpt lat="45.38926" lon="5.64286">
        <ele>457</ele>
        <time>2023-02-16T10:20:53Z</time>
      </trkpt>
      <trkpt lat="45.38929" lon="5.6429">
        <ele>457</ele>
        <time>2023-02-16T10:20:54Z</time>
      </trkpt>
      <trkpt lat="45.38931" lon="5.64293">
        <ele>457</ele>
        <time>2023-02-16T10:20:55Z</time>
      </trkpt>
      <trkpt lat="45.38933" lon="5.64295">
        <ele>457</ele>
        <time>2023-02-16T10:20:56Z</time>
      </trkpt>
      <trkpt lat="45.38935" lon="5.64298">
        <ele>457</ele>
        <time>2023-02-16T10:20:57Z</time>
      </trkpt>
      <trkpt lat="45.38936" lon="5.643">
        <ele>457</ele>
        <time>2023-02-16T10:20:58Z</time>
      </trkpt>
      <trkpt lat="45.38938" lon="5.64301">
        <ele>458</ele>
        <time>2023-02-16T10:20:59Z</time>
      </trkpt>
      <trkpt lat="45.3894" lon="5.64301">
        <ele>458</ele>
        <time>2023-02-16T10:21:00Z</time>
      </trkpt>
      <trkpt lat="45.38943" lon="5.64301">
        <ele>458</ele>
        <time>2023-02-16T10:21:01Z</time>
      </trkpt>
      <trkpt lat="45.38946" lon="5.643">
        <ele>459</ele>
        <time>2023-02-16T10:21:02Z</time>
      </trkpt>
      <trkpt lat="45.38948" lon="5.643">
        <ele>459</ele>
        <time>2023-02-16T10:21:03Z</time>
      </trkpt>
      <trkpt lat="45.38951" lon="5.643">
        <ele>460</ele>
        <time>2023-02-16T10:21:04Z</time>
      </trkpt>
      <trkpt lat="45.38953" lon="5.643">
        <ele>460</ele>
        <time>2023-02-16T10:21:05Z</time>
      </trkpt>
      <trkpt lat="45.38955" lon="5.643">
        <ele>460</ele>
        <time>2023-02-16T10:21:06Z</time>
      </trkpt>
      <trkpt lat="45.38958" lon="5.643">
        <ele>460</ele>
        <time>2023-02-16T10:21:07Z</time>
      </trkpt>
      <trkpt lat="45.3896" lon="5.64301">
        <ele>460</ele>
        <time>2023-02-16T10:21:08Z</time>
      </trkpt>
      <trkpt lat="45.38962" lon="5.64303">
        <ele>460</ele>
        <time>2023-02-16T10:21:09Z</time>
      </trkpt>
      <trkpt lat="45.38965" lon="5.64304">
        <ele>460</ele>
        <time>2023-02-16T10:21:10Z</time>
      </trkpt>
      <trkpt lat="45.38968" lon="5.64306">
        <ele>460</ele>
        <time>2023-02-16T10:21:11Z</time>
      </trkpt>
      <trkpt lat="45.3897" lon="5.64309">
        <ele>460</ele>
        <time>2023-02-16T10:21:12Z</time>
      </trkpt>
      <trkpt lat="45.38974" lon="5.64313">
        <ele>460</ele>
        <time>2023-02-16T10:21:13Z</time>
      </trkpt>
      <trkpt lat="45.38977" lon="5.64316">
        <ele>460</ele>
        <time>2023-02-16T10:21:14Z</time>
      </trkpt>
      <trkpt lat="45.3898" lon="5.6432">
        <ele>460</ele>
        <time>2023-02-16T10:21:15Z</time>
      </trkpt>
      <trkpt lat="45.38983" lon="5.64324">
        <ele>460</ele>
        <time>2023-02-16T10:21:16Z</time>
      </trkpt>
      <trkpt lat="45.38986" lon="5.64329">
        <ele>460</ele>
        <time>2023-02-16T10:21:17Z</time>
      </trkpt>
      <trkpt lat="45.38989" lon="5.64333">
        <ele>460</ele>
        <time>2023-02-16T10:21:18Z</time>
      </trkpt>
      <trkpt lat="45.38992" lon="5.64337">
        <ele>460</ele>
        <time>2023-02-16T10:21:19Z</time>
      </trkpt>
      <trkpt lat="45.38995" lon="5.64341">
        <ele>460</ele>
        <time>2023-02-16T10:21:20Z</time>
      </trkpt>
      <trkpt lat="45.38998" lon="5.64345">
        <ele>460</ele>
        <time>2023-02-16T10:21:21Z</time>
      </trkpt>
      <trkpt lat="45.39" lon="5.6435">
        <ele>462</ele>
        <time>2023-02-16T10:21:22Z</time>
      </trkpt>
      <trkpt lat="45.39003" lon="5.64354">
        <ele>462</ele>
        <time>2023-02-16T10:21:23Z</time>
      </trkpt>
      <trkpt lat="45.39006" lon="5.64358">
        <ele>462</ele>
        <time>2023-02-16T10:21:24Z</time>
      </trkpt>
      <trkpt lat="45.39009" lon="5.64362">
        <ele>462</ele>
        <time>2023-02-16T10:21:25Z</time>
      </trkpt>
      <trkpt lat="45.39011" lon="5.64366">
        <ele>462</ele>
        <time>2023-02-16T10:21:26Z</time>
      </trkpt>
      <trkpt lat="45.39014" lon="5.64371">
        <ele>461</ele>
        <time>2023-02-16T10:21:27Z</time>
      </trkpt>
      <trkpt lat="45.39016" lon="5.64375">
        <ele>461</ele>
        <time>2023-02-16T10:21:28Z</time>
      </trkpt>
      <trkpt lat="45.39017" lon="5.6438">
        <ele>461</ele>
        <time>2023-02-16T10:21:29Z</time>
      </trkpt>
      <trkpt lat="45.39019" lon="5.64385">
        <ele>461</ele>
        <time>2023-02-16T10:21:30Z</time>
      </trkpt>
      <trkpt lat="45.39021" lon="5.6439">
        <ele>461</ele>
        <time>2023-02-16T10:21:31Z</time>
      </trkpt>
      <trkpt lat="45.39022" lon="5.64395">
        <ele>461</ele>
        <time>2023-02-16T10:21:32Z</time>
      </trkpt>
      <trkpt lat="45.39024" lon="5.644">
        <ele>462</ele>
        <time>2023-02-16T10:21:33Z</time>
      </trkpt>
      <trkpt lat="45.39025" lon="5.64405">
        <ele>462</ele>
        <time>2023-02-16T10:21:34Z</time>
      </trkpt>
      <trkpt lat="45.39025" lon="5.6441">
        <ele>463</ele>
        <time>2023-02-16T10:21:35Z</time>
      </trkpt>
      <trkpt lat="45.39026" lon="5.64415">
        <ele>463</ele>
        <time>2023-02-16T10:21:36Z</time>
      </trkpt>
      <trkpt lat="45.39027" lon="5.6442">
        <ele>464</ele>
        <time>2023-02-16T10:21:37Z</time>
      </trkpt>
      <trkpt lat="45.39027" lon="5.64425">
        <ele>464</ele>
        <time>2023-02-16T10:21:38Z</time>
      </trkpt>
      <trkpt lat="45.39027" lon="5.6443">
        <ele>464</ele>
        <time>2023-02-16T10:21:39Z</time>
      </trkpt>
      <trkpt lat="45.39027" lon="5.64435">
        <ele>464</ele>
        <time>2023-02-16T10:21:40Z</time>
      </trkpt>
      <trkpt lat="45.39028" lon="5.6444">
        <ele>464</ele>
        <time>2023-02-16T10:21:41Z</time>
      </trkpt>
      <trkpt lat="45.39028" lon="5.64446">
        <ele>464</ele>
        <time>2023-02-16T10:21:42Z</time>
      </trkpt>
      <trkpt lat="45.39028" lon="5.64452">
        <ele>464</ele>
        <time>2023-02-16T10:21:43Z</time>
      </trkpt>
      <trkpt lat="45.39028" lon="5.64458">
        <ele>464</ele>
        <time>2023-02-16T10:21:44Z</time>
      </trkpt>
      <trkpt lat="45.39028" lon="5.64465">
        <ele>464</ele>
        <time>2023-02-16T10:21:45Z</time>
      </trkpt>
      <trkpt lat="45.39029" lon="5.64473">
        <ele>464</ele>
        <time>2023-02-16T10:21:46Z</time>
      </trkpt>
      <trkpt lat="45.3903" lon="5.64481">
        <ele>464</ele>
        <time>2023-02-16T10:21:47Z</time>
      </trkpt>
      <trkpt lat="45.39032" lon="5.64489">
        <ele>464</ele>
        <time>2023-02-16T10:21:48Z</time>
      </trkpt>
      <trkpt lat="45.39034" lon="5.64498">
        <ele>463</ele>
        <time>2023-02-16T10:21:49Z</time>
      </trkpt>
      <trkpt lat="45.39037" lon="5.64507">
        <ele>463</ele>
        <time>2023-02-16T10:21:50Z</time>
      </trkpt>
      <trkpt lat="45.39039" lon="5.64516">
        <ele>463</ele>
        <time>2023-02-16T10:21:51Z</time>
      </trkpt>
      <trkpt lat="45.39042" lon="5.64526">
        <ele>463</ele>
        <time>2023-02-16T10:21:52Z</time>
      </trkpt>
      <trkpt lat="45.39046" lon="5.64536">
        <ele>462</ele>
        <time>2023-02-16T10:21:53Z</time>
      </trkpt>
      <trkpt lat="45.39049" lon="5.64546">
        <ele>461</ele>
        <time>2023-02-16T10:21:54Z</time>
      </trkpt>
      <trkpt lat="45.39053" lon="5.64555">
        <ele>461</ele>
        <time>2023-02-16T10:21:55Z</time>
      </trkpt>
      <trkpt lat="45.39057" lon="5.64565">
        <ele>461</ele>
        <time>2023-02-16T10:21:56Z</time>
      </trkpt>
      <trkpt lat="45.3906" lon="5.64574">
        <ele>460</ele>
        <time>2023-02-16T10:21:57Z</time>
      </trkpt>
      <trkpt lat="45.39064" lon="5.64584">
        <ele>460</ele>
        <time>2023-02-16T10:21:58Z</time>
      </trkpt>
      <trkpt lat="45.39068" lon="5.64593">
        <ele>460</ele>
        <time>2023-02-16T10:21:59Z</time>
      </trkpt>
      <trkpt lat="45.39071" lon="5.64602">
        <ele>460</ele>
        <time>2023-02-16T10:22:00Z</time>
      </trkpt>
      <trkpt lat="45.39075" lon="5.64611">
        <ele>460</ele>
        <time>2023-02-16T10:22:01Z</time>
      </trkpt>
      <trkpt lat="45.39079" lon="5.64619">
        <ele>460</ele>
        <time>2023-02-16T10:22:02Z</time>
      </trkpt>
      <trkpt lat="45.39082" lon="5.64627">
        <ele>460</ele>
        <time>2023-02-16T10:22:03Z</time>
      </trkpt>
      <trkpt lat="45.39086" lon="5.64635">
        <ele>460</ele>
        <time>2023-02-16T10:22:04Z</time>
      </trkpt>
      <trkpt lat="45.3909" lon="5.64642">
        <ele>460</ele>
        <time>2023-02-16T10:22:05Z</time>
      </trkpt>
      <trkpt lat="45.39094" lon="5.64649">
        <ele>459</ele>
        <time>2023-02-16T10:22:06Z</time>
      </trkpt>
      <trkpt lat="45.39098" lon="5.64656">
        <ele>458</ele>
        <time>2023-02-16T10:22:07Z</time>
      </trkpt>
      <trkpt lat="45.39102" lon="5.64663">
        <ele>458</ele>
        <time>2023-02-16T10:22:08Z</time>
      </trkpt>
      <trkpt lat="45.39106" lon="5.6467">
        <ele>458</ele>
        <time>2023-02-16T10:22:09Z</time>
      </trkpt>
      <trkpt lat="45.3911" lon="5.64677">
        <ele>458</ele>
        <time>2023-02-16T10:22:10Z</time>
      </trkpt>
      <trkpt lat="45.39113" lon="5.64683">
        <ele>458</ele>
        <time>2023-02-16T10:22:11Z</time>
      </trkpt>
      <trkpt lat="45.39116" lon="5.64689">
        <ele>458</ele>
        <time>2023-02-16T10:22:12Z</time>
      </trkpt>
      <trkpt lat="45.3912" lon="5.64694">
        <ele>458</ele>
        <time>2023-02-16T10:22:13Z</time>
      </trkpt>
      <trkpt lat="45.39123" lon="5.64698">
        <ele>458</ele>
        <time>2023-02-16T10:22:14Z</time>
      </trkpt>
      <trkpt lat="45.39126" lon="5.64701">
        <ele>458</ele>
        <time>2023-02-16T10:22:15Z</time>
      </trkpt>
      <trkpt lat="45.39129" lon="5.64702">
        <ele>459</ele>
        <time>2023-02-16T10:22:16Z</time>
      </trkpt>
      <trkpt lat="45.39131" lon="5.64702">
        <ele>459</ele>
        <time>2023-02-16T10:22:17Z</time>
      </trkpt>
      <trkpt lat="45.39134" lon="5.647">
        <ele>459</ele>
        <time>2023-02-16T10:22:18Z</time>
      </trkpt>
      <trkpt lat="45.39136" lon="5.64697">
        <ele>459</ele>
        <time>2023-02-16T10:22:19Z</time>
      </trkpt>
      <trkpt lat="45.39137" lon="5.64694">
        <ele>459</ele>
        <time>2023-02-16T10:22:20Z</time>
      </trkpt>
      <trkpt lat="45.39139" lon="5.64691">
        <ele>459</ele>
        <time>2023-02-16T10:22:21Z</time>
      </trkpt>
      <trkpt lat="45.39141" lon="5.64688">
        <ele>459</ele>
        <time>2023-02-16T10:22:22Z</time>
      </trkpt>
      <trkpt lat="45.39143" lon="5.64685">
        <ele>460</ele>
        <time>2023-02-16T10:22:23Z</time>
      </trkpt>
      <trkpt lat="45.39144" lon="5.64681">
        <ele>460</ele>
        <time>2023-02-16T10:22:24Z</time>
      </trkpt>
      <trkpt lat="45.39146" lon="5.64678">
        <ele>460</ele>
        <time>2023-02-16T10:22:25Z</time>
      </trkpt>
      <trkpt lat="45.39147" lon="5.64674">
        <ele>460</ele>
        <time>2023-02-16T10:22:26Z</time>
      </trkpt>
      <trkpt lat="45.39149" lon="5.64671">
        <ele>460</ele>
        <time>2023-02-16T10:22:27Z</time>
      </trkpt>
      <trkpt lat="45.3915" lon="5.64668">
        <ele>460</ele>
        <time>2023-02-16T10:22:28Z</time>
      </trkpt>
      <trkpt lat="45.39152" lon="5.64665">
        <ele>460</ele>
        <time>2023-02-16T10:22:29Z</time>
      </trkpt>
      <trkpt lat="45.39153" lon="5.64662">
        <ele>461</ele>
        <time>2023-02-16T10:22:30Z</time>
      </trkpt>
      <trkpt lat="45.39155" lon="5.64659">
        <ele>462</ele>
        <time>2023-02-16T10:22:31Z</time>
      </trkpt>
      <trkpt lat="45.39157" lon="5.64656">
        <ele>462</ele>
        <time>2023-02-16T10:22:32Z</time>
      </trkpt>
      <trkpt lat="45.39158" lon="5.64653">
        <ele>462</ele>
        <time>2023-02-16T10:22:33Z</time>
      </trkpt>
      <trkpt lat="45.3916" lon="5.6465">
        <ele>463</ele>
        <time>2023-02-16T10:22:34Z</time>
      </trkpt>
      <trkpt lat="45.39162" lon="5.64647">
        <ele>463</ele>
        <time>2023-02-16T10:22:35Z</time>
      </trkpt>
      <trkpt lat="45.39163" lon="5.64644">
        <ele>463</ele>
        <time>2023-02-16T10:22:36Z</time>
      </trkpt>
      <trkpt lat="45.39164" lon="5.64641">
        <ele>463</ele>
        <time>2023-02-16T10:22:37Z</time>
      </trkpt>
      <trkpt lat="45.39166" lon="5.64638">
        <ele>464</ele>
        <time>2023-02-16T10:22:38Z</time>
      </trkpt>
      <trkpt lat="45.39167" lon="5.64635">
        <ele>464</ele>
        <time>2023-02-16T10:22:39Z</time>
      </trkpt>
      <trkpt lat="45.39169" lon="5.64632">
        <ele>464</ele>
        <time>2023-02-16T10:22:40Z</time>
      </trkpt>
      <trkpt lat="45.3917" lon="5.64628">
        <ele>464</ele>
        <time>2023-02-16T10:22:41Z</time>
      </trkpt>
      <trkpt lat="45.39172" lon="5.64625">
        <ele>464</ele>
        <time>2023-02-16T10:22:42Z</time>
      </trkpt>
      <trkpt lat="45.39173" lon="5.64622">
        <ele>465</ele>
        <time>2023-02-16T10:22:43Z</time>
      </trkpt>
      <trkpt lat="45.39175" lon="5.64619">
        <ele>465</ele>
        <time>2023-02-16T10:22:44Z</time>
      </trkpt>
      <trkpt lat="45.39176" lon="5.64616">
        <ele>465</ele>
        <time>2023-02-16T10:22:45Z</time>
      </trkpt>
      <trkpt lat="45.39177" lon="5.64613">
        <ele>466</ele>
        <time>2023-02-16T10:22:46Z</time>
      </trkpt>
      <trkpt lat="45.39179" lon="5.6461">
        <ele>466</ele>
        <time>2023-02-16T10:22:47Z</time>
      </trkpt>
      <trkpt lat="45.3918" lon="5.64607">
        <ele>466</ele>
        <time>2023-02-16T10:22:48Z</time>
      </trkpt>
      <trkpt lat="45.39181" lon="5.64605">
        <ele>466</ele>
        <time>2023-02-16T10:22:49Z</time>
      </trkpt>
      <trkpt lat="45.39182" lon="5.64602">
        <ele>466</ele>
        <time>2023-02-16T10:22:50Z</time>
      </trkpt>
      <trkpt lat="45.39183" lon="5.646">
        <ele>467</ele>
        <time>2023-02-16T10:22:51Z</time>
      </trkpt>
      <trkpt lat="45.39185" lon="5.64597">
        <ele>467</ele>
        <time>2023-02-16T10:22:52Z</time>
      </trkpt>
      <trkpt lat="45.39186" lon="5.64595">
        <ele>467</ele>
        <time>2023-02-16T10:22:53Z</time>
      </trkpt>
      <trkpt lat="45.39187" lon="5.64592">
        <ele>467</ele>
        <time>2023-02-16T10:22:54Z</time>
      </trkpt>
      <trkpt lat="45.39188" lon="5.6459">
        <ele>467</ele>
        <time>2023-02-16T10:22:55Z</time>
      </trkpt>
      <trkpt lat="45.39189" lon="5.64587">
        <ele>468</ele>
        <time>2023-02-16T10:22:56Z</time>
      </trkpt>
      <trkpt lat="45.39191" lon="5.64584">
        <ele>468</ele>
        <time>2023-02-16T10:22:57Z</time>
      </trkpt>
      <trkpt lat="45.39192" lon="5.64582">
        <ele>468</ele>
        <time>2023-02-16T10:22:58Z</time>
      </trkpt>
      <trkpt lat="45.39193" lon="5.64579">
        <ele>469</ele>
        <time>2023-02-16T10:22:59Z</time>
      </trkpt>
      <trkpt lat="45.39195" lon="5.64576">
        <ele>469</ele>
        <time>2023-02-16T10:23:00Z</time>
      </trkpt>
      <trkpt lat="45.39196" lon="5.64573">
        <ele>469</ele>
        <time>2023-02-16T10:23:01Z</time>
      </trkpt>
      <trkpt lat="45.39198" lon="5.6457">
        <ele>470</ele>
        <time>2023-02-16T10:23:02Z</time>
      </trkpt>
      <trkpt lat="45.392" lon="5.64568">
        <ele>470</ele>
        <time>2023-02-16T10:23:03Z</time>
      </trkpt>
      <trkpt lat="45.39201" lon="5.64565">
        <ele>470</ele>
        <time>2023-02-16T10:23:04Z</time>
      </trkpt>
      <trkpt lat="45.39203" lon="5.64563">
        <ele>470</ele>
        <time>2023-02-16T10:23:05Z</time>
      </trkpt>
      <trkpt lat="45.39205" lon="5.6456">
        <ele>470</ele>
        <time>2023-02-16T10:23:06Z</time>
      </trkpt>
      <trkpt lat="45.39207" lon="5.64558">
        <ele>471</ele>
        <time>2023-02-16T10:23:07Z</time>
      </trkpt>
      <trkpt lat="45.39208" lon="5.64555">
        <ele>471</ele>
        <time>2023-02-16T10:23:08Z</time>
      </trkpt>
      <trkpt lat="45.3921" lon="5.64553">
        <ele>472</ele>
        <time>2023-02-16T10:23:09Z</time>
      </trkpt>
      <trkpt lat="45.39213" lon="5.64551">
        <ele>472</ele>
        <time>2023-02-16T10:23:10Z</time>
      </trkpt>
      <trkpt lat="45.39215" lon="5.64549">
        <ele>472</ele>
        <time>2023-02-16T10:23:11Z</time>
      </trkpt>
      <trkpt lat="45.39217" lon="5.64548">
        <ele>472</ele>
        <time>2023-02-16T10:23:12Z</time>
      </trkpt>
      <trkpt lat="45.39219" lon="5.64546">
        <ele>472</ele>
        <time>2023-02-16T10:23:13Z</time>
      </trkpt>
      <trkpt lat="45.39221" lon="5.64545">
        <ele>472</ele>
        <time>2023-02-16T10:23:14Z</time>
      </trkpt>
      <trkpt lat="45.39224" lon="5.64544">
        <ele>472</ele>
        <time>2023-02-16T10:23:15Z</time>
      </trkpt>
      <trkpt lat="45.39226" lon="5.64543">
        <ele>472</ele>
        <time>2023-02-16T10:23:16Z</time>
      </trkpt>
      <trkpt lat="45.39229" lon="5.64542">
        <ele>472</ele>
        <time>2023-02-16T10:23:17Z</time>
      </trkpt>
      <trkpt lat="45.39231" lon="5.64541">
        <ele>472</ele>
        <time>2023-02-16T10:23:18Z</time>
      </trkpt>
      <trkpt lat="45.39234" lon="5.6454">
        <ele>472</ele>
        <time>2023-02-16T10:23:19Z</time>
      </trkpt>
      <trkpt lat="45.39236" lon="5.64539">
        <ele>473</ele>
        <time>2023-02-16T10:23:20Z</time>
      </trkpt>
      <trkpt lat="45.39239" lon="5.64539">
        <ele>473</ele>
        <time>2023-02-16T10:23:21Z</time>
      </trkpt>
      <trkpt lat="45.39241" lon="5.64539">
        <ele>473</ele>
        <time>2023-02-16T10:23:22Z</time>
      </trkpt>
      <trkpt lat="45.39244" lon="5.64538">
        <ele>473</ele>
        <time>2023-02-16T10:23:23Z</time>
      </trkpt>
      <trkpt lat="45.39246" lon="5.64539">
        <ele>473</ele>
        <time>2023-02-16T10:23:24Z</time>
      </trkpt>
      <trkpt lat="45.39249" lon="5.64539">
        <ele>473</ele>
        <time>2023-02-16T10:23:25Z</time>
      </trkpt>
      <trkpt lat="45.39251" lon="5.64539">
        <ele>474</ele>
        <time>2023-02-16T10:23:26Z</time>
      </trkpt>
      <trkpt lat="45.39254" lon="5.6454">
        <ele>474</ele>
        <time>2023-02-16T10:23:27Z</time>
      </trkpt>
      <trkpt lat="45.39256" lon="5.64541">
        <ele>474</ele>
        <time>2023-02-16T10:23:28Z</time>
      </trkpt>
      <trkpt lat="45.39259" lon="5.64541">
        <ele>474</ele>
        <time>2023-02-16T10:23:29Z</time>
      </trkpt>
      <trkpt lat="45.39261" lon="5.64543">
        <ele>475</ele>
        <time>2023-02-16T10:23:30Z</time>
      </trkpt>
      <trkpt lat="45.39264" lon="5.64544">
        <ele>475</ele>
        <time>2023-02-16T10:23:31Z</time>
      </trkpt>
      <trkpt lat="45.39267" lon="5.64546">
        <ele>475</ele>
        <time>2023-02-16T10:23:32Z</time>
      </trkpt>
      <trkpt lat="45.39269" lon="5.64547">
        <ele>476</ele>
        <time>2023-02-16T10:23:33Z</time>
      </trkpt>
      <trkpt lat="45.39271" lon="5.6455">
        <ele>476</ele>
        <time>2023-02-16T10:23:34Z</time>
      </trkpt>
      <trkpt lat="45.39274" lon="5.64552">
        <ele>476</ele>
        <time>2023-02-16T10:23:35Z</time>
      </trkpt>
      <trkpt lat="45.39276" lon="5.64554">
        <ele>476</ele>
        <time>2023-02-16T10:23:36Z</time>
      </trkpt>
      <trkpt lat="45.39278" lon="5.64556">
        <ele>476</ele>
        <time>2023-02-16T10:23:37Z</time>
      </trkpt>
      <trkpt lat="45.39281" lon="5.64559">
        <ele>476</ele>
        <time>2023-02-16T10:23:38Z</time>
      </trkpt>
      <trkpt lat="45.39283" lon="5.64562">
        <ele>476</ele>
        <time>2023-02-16T10:23:39Z</time>
      </trkpt>
      <trkpt lat="45.39285" lon="5.64565">
        <ele>477</ele>
        <time>2023-02-16T10:23:40Z</time>
      </trkpt>
      <trkpt lat="45.39287" lon="5.64567">
        <ele>477</ele>
        <time>2023-02-16T10:23:41Z</time>
      </trkpt>
      <trkpt lat="45.39289" lon="5.6457">
        <ele>477</ele>
        <time>2023-02-16T10:23:42Z</time>
      </trkpt>
      <trkpt lat="45.39291" lon="5.64572">
        <ele>477</ele>
        <time>2023-02-16T10:23:43Z</time>
      </trkpt>
      <trkpt lat="45.39293" lon="5.64574">
        <ele>477</ele>
        <time>2023-02-16T10:23:44Z</time>
      </trkpt>
      <trkpt lat="45.39295" lon="5.64576">
        <ele>477</ele>
        <time>2023-02-16T10:23:45Z</time>
      </trkpt>
      <trkpt lat="45.39297" lon="5.64579">
        <ele>477</ele>
        <time>2023-02-16T10:23:46Z</time>
      </trkpt>
      <trkpt lat="45.39301" lon="5.64584">
        <ele>477</ele>
        <time>2023-02-16T10:23:48Z</time>
      </trkpt>
      <trkpt lat="45.39303" lon="5.64587">
        <ele>478</ele>
        <time>2023-02-16T10:23:49Z</time>
      </trkpt>
      <trkpt lat="45.39305" lon="5.64589">
        <ele>478</ele>
        <time>2023-02-16T10:23:50Z</time>
      </trkpt>
      <trkpt lat="45.39307" lon="5.64592">
        <ele>478</ele>
        <time>2023-02-16T10:23:51Z</time>
      </trkpt>
      <trkpt lat="45.39309" lon="5.64594">
        <ele>478</ele>
        <time>2023-02-16T10:23:52Z</time>
      </trkpt>
      <trkpt lat="45.39311" lon="5.64596">
        <ele>478</ele>
        <time>2023-02-16T10:23:53Z</time>
      </trkpt>
      <trkpt lat="45.39313" lon="5.64598">
        <ele>478</ele>
        <time>2023-02-16T10:23:54Z</time>
      </trkpt>
      <trkpt lat="45.39315" lon="5.64601">
        <ele>479</ele>
        <time>2023-02-16T10:23:55Z</time>
      </trkpt>
      <trkpt lat="45.39317" lon="5.64602">
        <ele>479</ele>
        <time>2023-02-16T10:23:56Z</time>
      </trkpt>
      <trkpt lat="45.39319" lon="5.64604">
        <ele>480</ele>
        <time>2023-02-16T10:23:57Z</time>
      </trkpt>
      <trkpt lat="45.3932" lon="5.64606">
        <ele>481</ele>
        <time>2023-02-16T10:23:58Z</time>
      </trkpt>
      <trkpt lat="45.39322" lon="5.64608">
        <ele>481</ele>
        <time>2023-02-16T10:23:59Z</time>
      </trkpt>
      <trkpt lat="45.39323" lon="5.64611">
        <ele>481</ele>
        <time>2023-02-16T10:24:00Z</time>
      </trkpt>
      <trkpt lat="45.39325" lon="5.64613">
        <ele>481</ele>
        <time>2023-02-16T10:24:01Z</time>
      </trkpt>
      <trkpt lat="45.39327" lon="5.64615">
        <ele>481</ele>
        <time>2023-02-16T10:24:02Z</time>
      </trkpt>
      <trkpt lat="45.39333" lon="5.64622">
        <ele>481</ele>
        <time>2023-02-16T10:24:05Z</time>
      </trkpt>
      <trkpt lat="45.39335" lon="5.64624">
        <ele>482</ele>
        <time>2023-02-16T10:24:06Z</time>
      </trkpt>
      <trkpt lat="45.39337" lon="5.64626">
        <ele>482</ele>
        <time>2023-02-16T10:24:07Z</time>
      </trkpt>
      <trkpt lat="45.39339" lon="5.64628">
        <ele>482</ele>
        <time>2023-02-16T10:24:08Z</time>
      </trkpt>
      <trkpt lat="45.39341" lon="5.64631">
        <ele>483</ele>
        <time>2023-02-16T10:24:09Z</time>
      </trkpt>
      <trkpt lat="45.39343" lon="5.64633">
        <ele>483</ele>
        <time>2023-02-16T10:24:10Z</time>
      </trkpt>
      <trkpt lat="45.39347" lon="5.64637">
        <ele>484</ele>
        <time>2023-02-16T10:24:12Z</time>
      </trkpt>
      <trkpt lat="45.39349" lon="5.64639">
        <ele>484</ele>
        <time>2023-02-16T10:24:13Z</time>
      </trkpt>
      <trkpt lat="45.39357" lon="5.64646">
        <ele>484</ele>
        <time>2023-02-16T10:24:17Z</time>
      </trkpt>
      <trkpt lat="45.39363" lon="5.64654">
        <ele>486</ele>
        <time>2023-02-16T10:24:21Z</time>
      </trkpt>
      <trkpt lat="45.39365" lon="5.64656">
        <ele>486</ele>
        <time>2023-02-16T10:24:22Z</time>
      </trkpt>
      <trkpt lat="45.3937" lon="5.6466">
        <ele>486</ele>
        <time>2023-02-16T10:24:25Z</time>
      </trkpt>
      <trkpt lat="45.3938" lon="5.64666">
        <ele>488</ele>
        <time>2023-02-16T10:24:30Z</time>
      </trkpt>
      <trkpt lat="45.39384" lon="5.64668">
        <ele>488</ele>
        <time>2023-02-16T10:24:32Z</time>
      </trkpt>
      <trkpt lat="45.39386" lon="5.6467">
        <ele>489</ele>
        <time>2023-02-16T10:24:33Z</time>
      </trkpt>
      <trkpt lat="45.39388" lon="5.64672">
        <ele>489</ele>
        <time>2023-02-16T10:24:34Z</time>
      </trkpt>
      <trkpt lat="45.39391" lon="5.64673">
        <ele>489</ele>
        <time>2023-02-16T10:24:35Z</time>
      </trkpt>
      <trkpt lat="45.39393" lon="5.64674">
        <ele>489</ele>
        <time>2023-02-16T10:24:36Z</time>
      </trkpt>
      <trkpt lat="45.39397" lon="5.64677">
        <ele>489</ele>
        <time>2023-02-16T10:24:38Z</time>
      </trkpt>
      <trkpt lat="45.39399" lon="5.64678">
        <ele>490</ele>
        <time>2023-02-16T10:24:39Z</time>
      </trkpt>
      <trkpt lat="45.39401" lon="5.6468">
        <ele>491</ele>
        <time>2023-02-16T10:24:40Z</time>
      </trkpt>
      <trkpt lat="45.39406" lon="5.64686">
        <ele>491</ele>
        <time>2023-02-16T10:24:43Z</time>
      </trkpt>
      <trkpt lat="45.3941" lon="5.64689">
        <ele>491</ele>
        <time>2023-02-16T10:24:45Z</time>
      </trkpt>
      <trkpt lat="45.39414" lon="5.64693">
        <ele>491</ele>
        <time>2023-02-16T10:24:47Z</time>
      </trkpt>
      <trkpt lat="45.39416" lon="5.64695">
        <ele>491</ele>
        <time>2023-02-16T10:24:48Z</time>
      </trkpt>
      <trkpt lat="45.39423" lon="5.64704">
        <ele>492</ele>
        <time>2023-02-16T10:24:53Z</time>
      </trkpt>
      <trkpt lat="45.39425" lon="5.64705">
        <ele>492</ele>
        <time>2023-02-16T10:24:54Z</time>
      </trkpt>
      <trkpt lat="45.39434" lon="5.64714">
        <ele>492</ele>
        <time>2023-02-16T10:24:59Z</time>
      </trkpt>
      <trkpt lat="45.39436" lon="5.64715">
        <ele>494</ele>
        <time>2023-02-16T10:25:00Z</time>
      </trkpt>
      <trkpt lat="45.39444" lon="5.64721">
        <ele>495</ele>
        <time>2023-02-16T10:25:04Z</time>
      </trkpt>
      <trkpt lat="45.39453" lon="5.64728">
        <ele>496</ele>
        <time>2023-02-16T10:25:09Z</time>
      </trkpt>
      <trkpt lat="45.39459" lon="5.64732">
        <ele>497</ele>
        <time>2023-02-16T10:25:12Z</time>
      </trkpt>
      <trkpt lat="45.39469" lon="5.64738">
        <ele>497</ele>
        <time>2023-02-16T10:25:17Z</time>
      </trkpt>
      <trkpt lat="45.39477" lon="5.64745">
        <ele>497</ele>
        <time>2023-02-16T10:25:21Z</time>
      </trkpt>
      <trkpt lat="45.39482" lon="5.64751">
        <ele>498</ele>
        <time>2023-02-16T10:25:24Z</time>
      </trkpt>
      <trkpt lat="45.3949" lon="5.64759">
        <ele>500</ele>
        <time>2023-02-16T10:25:28Z</time>
      </trkpt>
      <trkpt lat="45.39497" lon="5.64764">
        <ele>501</ele>
        <time>2023-02-16T10:25:32Z</time>
      </trkpt>
      <trkpt lat="45.39499" lon="5.64766">
        <ele>501</ele>
        <time>2023-02-16T10:25:33Z</time>
      </trkpt>
      <trkpt lat="45.39501" lon="5.64767">
        <ele>501</ele>
        <time>2023-02-16T10:25:34Z</time>
      </trkpt>
      <trkpt lat="45.39503" lon="5.64769">
        <ele>501</ele>
        <time>2023-02-16T10:25:35Z</time>
      </trkpt>
      <trkpt lat="45.39505" lon="5.64771">
        <ele>501</ele>
        <time>2023-02-16T10:25:36Z</time>
      </trkpt>
      <trkpt lat="45.39506" lon="5.64773">
        <ele>501</ele>
        <time>2023-02-16T10:25:37Z</time>
      </trkpt>
      <trkpt lat="45.39507" lon="5.64775">
        <ele>502</ele>
        <time>2023-02-16T10:25:38Z</time>
      </trkpt>
      <trkpt lat="45.39509" lon="5.64778">
        <ele>502</ele>
        <time>2023-02-16T10:25:39Z</time>
      </trkpt>
      <trkpt lat="45.3951" lon="5.6478">
        <ele>502</ele>
        <time>2023-02-16T10:25:40Z</time>
      </trkpt>
      <trkpt lat="45.39512" lon="5.64782">
        <ele>502</ele>
        <time>2023-02-16T10:25:41Z</time>
      </trkpt>
      <trkpt lat="45.39513" lon="5.64785">
        <ele>502</ele>
        <time>2023-02-16T10:25:42Z</time>
      </trkpt>
      <trkpt lat="45.39514" lon="5.64787">
        <ele>502</ele>
        <time>2023-02-16T10:25:43Z</time>
      </trkpt>
      <trkpt lat="45.39516" lon="5.64789">
        <ele>503</ele>
        <time>2023-02-16T10:25:44Z</time>
      </trkpt>
      <trkpt lat="45.39517" lon="5.64792">
        <ele>503</ele>
        <time>2023-02-16T10:25:45Z</time>
      </trkpt>
      <trkpt lat="45.39518" lon="5.64795">
        <ele>503</ele>
        <time>2023-02-16T10:25:46Z</time>
      </trkpt>
      <trkpt lat="45.39519" lon="5.64797">
        <ele>504</ele>
        <time>2023-02-16T10:25:47Z</time>
      </trkpt>
      <trkpt lat="45.39521" lon="5.648">
        <ele>504</ele>
        <time>2023-02-16T10:25:48Z</time>
      </trkpt>
      <trkpt lat="45.39522" lon="5.64802">
        <ele>504</ele>
        <time>2023-02-16T10:25:49Z</time>
      </trkpt>
      <trkpt lat="45.39523" lon="5.64805">
        <ele>504</ele>
        <time>2023-02-16T10:25:50Z</time>
      </trkpt>
      <trkpt lat="45.39524" lon="5.64808">
        <ele>504</ele>
        <time>2023-02-16T10:25:51Z</time>
      </trkpt>
      <trkpt lat="45.39525" lon="5.6481">
        <ele>504</ele>
        <time>2023-02-16T10:25:52Z</time>
      </trkpt>
      <trkpt lat="45.39526" lon="5.64813">
        <ele>505</ele>
        <time>2023-02-16T10:25:53Z</time>
      </trkpt>
      <trkpt lat="45.39527" lon="5.64816">
        <ele>505</ele>
        <time>2023-02-16T10:25:54Z</time>
      </trkpt>
      <trkpt lat="45.39528" lon="5.64818">
        <ele>505</ele>
        <time>2023-02-16T10:25:55Z</time>
      </trkpt>
      <trkpt lat="45.39529" lon="5.64821">
        <ele>505</ele>
        <time>2023-02-16T10:25:56Z</time>
      </trkpt>
      <trkpt lat="45.3953" lon="5.64824">
        <ele>506</ele>
        <time>2023-02-16T10:25:57Z</time>
      </trkpt>
      <trkpt lat="45.39531" lon="5.64827">
        <ele>506</ele>
        <time>2023-02-16T10:25:58Z</time>
      </trkpt>
      <trkpt lat="45.39532" lon="5.6483">
        <ele>506</ele>
        <time>2023-02-16T10:25:59Z</time>
      </trkpt>
      <trkpt lat="45.39533" lon="5.64833">
        <ele>506</ele>
        <time>2023-02-16T10:26:00Z</time>
      </trkpt>
      <trkpt lat="45.39534" lon="5.64836">
        <ele>506</ele>
        <time>2023-02-16T10:26:01Z</time>
      </trkpt>
      <trkpt lat="45.39535" lon="5.64839">
        <ele>506</ele>
        <time>2023-02-16T10:26:02Z</time>
      </trkpt>
      <trkpt lat="45.39536" lon="5.64842">
        <ele>506</ele>
        <time>2023-02-16T10:26:03Z</time>
      </trkpt>
      <trkpt lat="45.39537" lon="5.64844">
        <ele>507</ele>
        <time>2023-02-16T10:26:04Z</time>
      </trkpt>
      <trkpt lat="45.39538" lon="5.64847">
        <ele>507</ele>
        <time>2023-02-16T10:26:05Z</time>
      </trkpt>
      <trkpt lat="45.39539" lon="5.6485">
        <ele>507</ele>
        <time>2023-02-16T10:26:06Z</time>
      </trkpt>
      <trkpt lat="45.3954" lon="5.64852">
        <ele>507</ele>
        <time>2023-02-16T10:26:07Z</time>
      </trkpt>
      <trkpt lat="45.39542" lon="5.64855">
        <ele>507</ele>
        <time>2023-02-16T10:26:08Z</time>
      </trkpt>
      <trkpt lat="45.39543" lon="5.64857">
        <ele>508</ele>
        <time>2023-02-16T10:26:09Z</time>
      </trkpt>
      <trkpt lat="45.39545" lon="5.64859">
        <ele>509</ele>
        <time>2023-02-16T10:26:10Z</time>
      </trkpt>
      <trkpt lat="45.39547" lon="5.64861">
        <ele>509</ele>
        <time>2023-02-16T10:26:11Z</time>
      </trkpt>
      <trkpt lat="45.39548" lon="5.64863">
        <ele>509</ele>
        <time>2023-02-16T10:26:12Z</time>
      </trkpt>
      <trkpt lat="45.39549" lon="5.64864">
        <ele>509</ele>
        <time>2023-02-16T10:26:13Z</time>
      </trkpt>
      <trkpt lat="45.39551" lon="5.64865">
        <ele>509</ele>
        <time>2023-02-16T10:26:14Z</time>
      </trkpt>
      <trkpt lat="45.39554" lon="5.64866">
        <ele>509</ele>
        <time>2023-02-16T10:26:15Z</time>
      </trkpt>
      <trkpt lat="45.39556" lon="5.64867">
        <ele>509</ele>
        <time>2023-02-16T10:26:16Z</time>
      </trkpt>
      <trkpt lat="45.39559" lon="5.64869">
        <ele>510</ele>
        <time>2023-02-16T10:26:18Z</time>
      </trkpt>
      <trkpt lat="45.39561" lon="5.6487">
        <ele>510</ele>
        <time>2023-02-16T10:26:19Z</time>
      </trkpt>
      <trkpt lat="45.39563" lon="5.6487">
        <ele>510</ele>
        <time>2023-02-16T10:26:20Z</time>
      </trkpt>
      <trkpt lat="45.39565" lon="5.6487">
        <ele>511</ele>
        <time>2023-02-16T10:26:21Z</time>
      </trkpt>
      <trkpt lat="45.39567" lon="5.64871">
        <ele>511</ele>
        <time>2023-02-16T10:26:22Z</time>
      </trkpt>
      <trkpt lat="45.3957" lon="5.64871">
        <ele>511</ele>
        <time>2023-02-16T10:26:23Z</time>
      </trkpt>
      <trkpt lat="45.39572" lon="5.64871">
        <ele>511</ele>
        <time>2023-02-16T10:26:24Z</time>
      </trkpt>
      <trkpt lat="45.39574" lon="5.64871">
        <ele>512</ele>
        <time>2023-02-16T10:26:25Z</time>
      </trkpt>
      <trkpt lat="45.39576" lon="5.64871">
        <ele>512</ele>
        <time>2023-02-16T10:26:26Z</time>
      </trkpt>
      <trkpt lat="45.39579" lon="5.64872">
        <ele>512</ele>
        <time>2023-02-16T10:26:27Z</time>
      </trkpt>
      <trkpt lat="45.39581" lon="5.64871">
        <ele>512</ele>
        <time>2023-02-16T10:26:28Z</time>
      </trkpt>
      <trkpt lat="45.39583" lon="5.64871">
        <ele>513</ele>
        <time>2023-02-16T10:26:29Z</time>
      </trkpt>
      <trkpt lat="45.39585" lon="5.64872">
        <ele>513</ele>
        <time>2023-02-16T10:26:30Z</time>
      </trkpt>
      <trkpt lat="45.39587" lon="5.64872">
        <ele>514</ele>
        <time>2023-02-16T10:26:31Z</time>
      </trkpt>
      <trkpt lat="45.39589" lon="5.64871">
        <ele>514</ele>
        <time>2023-02-16T10:26:32Z</time>
      </trkpt>
      <trkpt lat="45.39592" lon="5.64871">
        <ele>514</ele>
        <time>2023-02-16T10:26:33Z</time>
      </trkpt>
      <trkpt lat="45.39594" lon="5.6487">
        <ele>514</ele>
        <time>2023-02-16T10:26:34Z</time>
      </trkpt>
      <trkpt lat="45.39596" lon="5.64869">
        <ele>514</ele>
        <time>2023-02-16T10:26:35Z</time>
      </trkpt>
      <trkpt lat="45.39597" lon="5.64867">
        <ele>514</ele>
        <time>2023-02-16T10:26:36Z</time>
      </trkpt>
      <trkpt lat="45.39598" lon="5.64864">
        <ele>514</ele>
        <time>2023-02-16T10:26:37Z</time>
      </trkpt>
      <trkpt lat="45.39599" lon="5.64861">
        <ele>515</ele>
        <time>2023-02-16T10:26:38Z</time>
      </trkpt>
      <trkpt lat="45.39599" lon="5.64858">
        <ele>515</ele>
        <time>2023-02-16T10:26:39Z</time>
      </trkpt>
      <trkpt lat="45.39599" lon="5.64855">
        <ele>515</ele>
        <time>2023-02-16T10:26:40Z</time>
      </trkpt>
      <trkpt lat="45.39598" lon="5.64853">
        <ele>515</ele>
        <time>2023-02-16T10:26:41Z</time>
      </trkpt>
      <trkpt lat="45.39597" lon="5.6485">
        <ele>515</ele>
        <time>2023-02-16T10:26:42Z</time>
      </trkpt>
      <trkpt lat="45.39595" lon="5.64847">
        <ele>515</ele>
        <time>2023-02-16T10:26:44Z</time>
      </trkpt>
      <trkpt lat="45.39593" lon="5.64845">
        <ele>515</ele>
        <time>2023-02-16T10:26:45Z</time>
      </trkpt>
      <trkpt lat="45.39592" lon="5.64843">
        <ele>515</ele>
        <time>2023-02-16T10:26:46Z</time>
      </trkpt>
      <trkpt lat="45.39591" lon="5.64841">
        <ele>515</ele>
        <time>2023-02-16T10:26:47Z</time>
      </trkpt>
      <trkpt lat="45.39589" lon="5.64839">
        <ele>515</ele>
        <time>2023-02-16T10:26:48Z</time>
      </trkpt>
      <trkpt lat="45.39586" lon="5.64836">
        <ele>515</ele>
        <time>2023-02-16T10:26:50Z</time>
      </trkpt>
      <trkpt lat="45.39585" lon="5.64834">
        <ele>516</ele>
        <time>2023-02-16T10:26:51Z</time>
      </trkpt>
      <trkpt lat="45.39583" lon="5.64832">
        <ele>516</ele>
        <time>2023-02-16T10:26:52Z</time>
      </trkpt>
      <trkpt lat="45.39582" lon="5.6483">
        <ele>517</ele>
        <time>2023-02-16T10:26:53Z</time>
      </trkpt>
      <trkpt lat="45.39581" lon="5.64828">
        <ele>517</ele>
        <time>2023-02-16T10:26:54Z</time>
      </trkpt>
      <trkpt lat="45.39579" lon="5.64826">
        <ele>518</ele>
        <time>2023-02-16T10:26:55Z</time>
      </trkpt>
      <trkpt lat="45.39578" lon="5.64824">
        <ele>518</ele>
        <time>2023-02-16T10:26:56Z</time>
      </trkpt>
      <trkpt lat="45.39576" lon="5.64822">
        <ele>518</ele>
        <time>2023-02-16T10:26:57Z</time>
      </trkpt>
      <trkpt lat="45.39575" lon="5.6482">
        <ele>518</ele>
        <time>2023-02-16T10:26:58Z</time>
      </trkpt>
      <trkpt lat="45.39573" lon="5.64818">
        <ele>518</ele>
        <time>2023-02-16T10:26:59Z</time>
      </trkpt>
      <trkpt lat="45.39571" lon="5.64816">
        <ele>519</ele>
        <time>2023-02-16T10:27:00Z</time>
      </trkpt>
      <trkpt lat="45.39569" lon="5.64814">
        <ele>519</ele>
        <time>2023-02-16T10:27:01Z</time>
      </trkpt>
      <trkpt lat="45.39568" lon="5.64811">
        <ele>519</ele>
        <time>2023-02-16T10:27:02Z</time>
      </trkpt>
      <trkpt lat="45.39566" lon="5.64809">
        <ele>519</ele>
        <time>2023-02-16T10:27:03Z</time>
      </trkpt>
      <trkpt lat="45.39564" lon="5.64807">
        <ele>520</ele>
        <time>2023-02-16T10:27:04Z</time>
      </trkpt>
      <trkpt lat="45.39563" lon="5.64805">
        <ele>520</ele>
        <time>2023-02-16T10:27:05Z</time>
      </trkpt>
      <trkpt lat="45.39561" lon="5.64803">
        <ele>521</ele>
        <time>2023-02-16T10:27:06Z</time>
      </trkpt>
      <trkpt lat="45.39559" lon="5.648">
        <ele>521</ele>
        <time>2023-02-16T10:27:07Z</time>
      </trkpt>
      <trkpt lat="45.39558" lon="5.64798">
        <ele>521</ele>
        <time>2023-02-16T10:27:08Z</time>
      </trkpt>
      <trkpt lat="45.39557" lon="5.64796">
        <ele>521</ele>
        <time>2023-02-16T10:27:09Z</time>
      </trkpt>
      <trkpt lat="45.39555" lon="5.64794">
        <ele>521</ele>
        <time>2023-02-16T10:27:10Z</time>
      </trkpt>
      <trkpt lat="45.39554" lon="5.64791">
        <ele>521</ele>
        <time>2023-02-16T10:27:11Z</time>
      </trkpt>
      <trkpt lat="45.39553" lon="5.64789">
        <ele>521</ele>
        <time>2023-02-16T10:27:12Z</time>
      </trkpt>
      <trkpt lat="45.39551" lon="5.64787">
        <ele>521</ele>
        <time>2023-02-16T10:27:13Z</time>
      </trkpt>
      <trkpt lat="45.3955" lon="5.64785">
        <ele>521</ele>
        <time>2023-02-16T10:27:14Z</time>
      </trkpt>
      <trkpt lat="45.39548" lon="5.64781">
        <ele>521</ele>
        <time>2023-02-16T10:27:16Z</time>
      </trkpt>
      <trkpt lat="45.39547" lon="5.64777">
        <ele>523</ele>
        <time>2023-02-16T10:27:18Z</time>
      </trkpt>
      <trkpt lat="45.39545" lon="5.64773">
        <ele>523</ele>
        <time>2023-02-16T10:27:20Z</time>
      </trkpt>
      <trkpt lat="45.39544" lon="5.6477">
        <ele>523</ele>
        <time>2023-02-16T10:27:22Z</time>
      </trkpt>
      <trkpt lat="45.39542" lon="5.64766">
        <ele>525</ele>
        <time>2023-02-16T10:27:24Z</time>
      </trkpt>
      <trkpt lat="45.39541" lon="5.64762">
        <ele>525</ele>
        <time>2023-02-16T10:27:26Z</time>
      </trkpt>
      <trkpt lat="45.3954" lon="5.64758">
        <ele>526</ele>
        <time>2023-02-16T10:27:28Z</time>
      </trkpt>
      <trkpt lat="45.39538" lon="5.64754">
        <ele>527</ele>
        <time>2023-02-16T10:27:30Z</time>
      </trkpt>
      <trkpt lat="45.39536" lon="5.64751">
        <ele>527</ele>
        <time>2023-02-16T10:27:32Z</time>
      </trkpt>
      <trkpt lat="45.39535" lon="5.64747">
        <ele>527</ele>
        <time>2023-02-16T10:27:34Z</time>
      </trkpt>
      <trkpt lat="45.39534" lon="5.64743">
        <ele>527</ele>
        <time>2023-02-16T10:27:36Z</time>
      </trkpt>
      <trkpt lat="45.39532" lon="5.64739">
        <ele>528</ele>
        <time>2023-02-16T10:27:38Z</time>
      </trkpt>
      <trkpt lat="45.39531" lon="5.64736">
        <ele>528</ele>
        <time>2023-02-16T10:27:39Z</time>
      </trkpt>
      <trkpt lat="45.3953" lon="5.64734">
        <ele>528</ele>
        <time>2023-02-16T10:27:40Z</time>
      </trkpt>
      <trkpt lat="45.39529" lon="5.64731">
        <ele>528</ele>
        <time>2023-02-16T10:27:41Z</time>
      </trkpt>
      <trkpt lat="45.39527" lon="5.64729">
        <ele>530</ele>
        <time>2023-02-16T10:27:42Z</time>
      </trkpt>
      <trkpt lat="45.39526" lon="5.64726">
        <ele>530</ele>
        <time>2023-02-16T10:27:43Z</time>
      </trkpt>
      <trkpt lat="45.39524" lon="5.64723">
        <ele>530</ele>
        <time>2023-02-16T10:27:44Z</time>
      </trkpt>
      <trkpt lat="45.39523" lon="5.64721">
        <ele>530</ele>
        <time>2023-02-16T10:27:45Z</time>
      </trkpt>
      <trkpt lat="45.39521" lon="5.64718">
        <ele>530</ele>
        <time>2023-02-16T10:27:46Z</time>
      </trkpt>
      <trkpt lat="45.39519" lon="5.64716">
        <ele>530</ele>
        <time>2023-02-16T10:27:47Z</time>
      </trkpt>
      <trkpt lat="45.39517" lon="5.64714">
        <ele>530</ele>
        <time>2023-02-16T10:27:48Z</time>
      </trkpt>
      <trkpt lat="45.39515" lon="5.64711">
        <ele>530</ele>
        <time>2023-02-16T10:27:49Z</time>
      </trkpt>
      <trkpt lat="45.39513" lon="5.64709">
        <ele>530</ele>
        <time>2023-02-16T10:27:50Z</time>
      </trkpt>
      <trkpt lat="45.39512" lon="5.64707">
        <ele>531</ele>
        <time>2023-02-16T10:27:51Z</time>
      </trkpt>
      <trkpt lat="45.3951" lon="5.64705">
        <ele>531</ele>
        <time>2023-02-16T10:27:52Z</time>
      </trkpt>
      <trkpt lat="45.39508" lon="5.64703">
        <ele>531</ele>
        <time>2023-02-16T10:27:53Z</time>
      </trkpt>
      <trkpt lat="45.39507" lon="5.64701">
        <ele>531</ele>
        <time>2023-02-16T10:27:54Z</time>
      </trkpt>
      <trkpt lat="45.39505" lon="5.64699">
        <ele>531</ele>
        <time>2023-02-16T10:27:55Z</time>
      </trkpt>
      <trkpt lat="45.39502" lon="5.64696">
        <ele>532</ele>
        <time>2023-02-16T10:27:57Z</time>
      </trkpt>
      <trkpt lat="45.395" lon="5.64693">
        <ele>532</ele>
        <time>2023-02-16T10:27:59Z</time>
      </trkpt>
      <trkpt lat="45.39498" lon="5.64691">
        <ele>533</ele>
        <time>2023-02-16T10:28:01Z</time>
      </trkpt>
      <trkpt lat="45.39496" lon="5.64688">
        <ele>533</ele>
        <time>2023-02-16T10:28:03Z</time>
      </trkpt>
      <trkpt lat="45.39493" lon="5.64685">
        <ele>533</ele>
        <time>2023-02-16T10:28:05Z</time>
      </trkpt>
      <trkpt lat="45.39491" lon="5.64683">
        <ele>534</ele>
        <time>2023-02-16T10:28:07Z</time>
      </trkpt>
      <trkpt lat="45.39488" lon="5.6468">
        <ele>534</ele>
        <time>2023-02-16T10:28:09Z</time>
      </trkpt>
      <trkpt lat="45.39485" lon="5.64677">
        <ele>534</ele>
        <time>2023-02-16T10:28:11Z</time>
      </trkpt>
      <trkpt lat="45.39482" lon="5.64673">
        <ele>534</ele>
        <time>2023-02-16T10:28:13Z</time>
      </trkpt>
      <trkpt lat="45.39481" lon="5.64672">
        <ele>535</ele>
        <time>2023-02-16T10:28:14Z</time>
      </trkpt>
      <trkpt lat="45.39478" lon="5.64669">
        <ele>535</ele>
        <time>2023-02-16T10:28:16Z</time>
      </trkpt>
      <trkpt lat="45.39475" lon="5.64666">
        <ele>536</ele>
        <time>2023-02-16T10:28:18Z</time>
      </trkpt>
      <trkpt lat="45.39474" lon="5.64664">
        <ele>536</ele>
        <time>2023-02-16T10:28:19Z</time>
      </trkpt>
      <trkpt lat="45.39472" lon="5.64662">
        <ele>537</ele>
        <time>2023-02-16T10:28:20Z</time>
      </trkpt>
      <trkpt lat="45.39471" lon="5.6466">
        <ele>537</ele>
        <time>2023-02-16T10:28:21Z</time>
      </trkpt>
      <trkpt lat="45.39469" lon="5.64658">
        <ele>537</ele>
        <time>2023-02-16T10:28:22Z</time>
      </trkpt>
      <trkpt lat="45.39467" lon="5.64656">
        <ele>538</ele>
        <time>2023-02-16T10:28:23Z</time>
      </trkpt>
      <trkpt lat="45.39465" lon="5.64654">
        <ele>538</ele>
        <time>2023-02-16T10:28:24Z</time>
      </trkpt>
      <trkpt lat="45.39464" lon="5.64652">
        <ele>538</ele>
        <time>2023-02-16T10:28:25Z</time>
      </trkpt>
      <trkpt lat="45.39462" lon="5.6465">
        <ele>539</ele>
        <time>2023-02-16T10:28:26Z</time>
      </trkpt>
      <trkpt lat="45.39461" lon="5.64648">
        <ele>539</ele>
        <time>2023-02-16T10:28:27Z</time>
      </trkpt>
      <trkpt lat="45.39459" lon="5.64646">
        <ele>539</ele>
        <time>2023-02-16T10:28:28Z</time>
      </trkpt>
      <trkpt lat="45.39457" lon="5.64644">
        <ele>540</ele>
        <time>2023-02-16T10:28:29Z</time>
      </trkpt>
      <trkpt lat="45.39456" lon="5.64642">
        <ele>540</ele>
        <time>2023-02-16T10:28:30Z</time>
      </trkpt>
      <trkpt lat="45.39454" lon="5.6464">
        <ele>540</ele>
        <time>2023-02-16T10:28:31Z</time>
      </trkpt>
      <trkpt lat="45.39452" lon="5.64638">
        <ele>540</ele>
        <time>2023-02-16T10:28:32Z</time>
      </trkpt>
      <trkpt lat="45.39451" lon="5.64636">
        <ele>540</ele>
        <time>2023-02-16T10:28:33Z</time>
      </trkpt>
      <trkpt lat="45.39449" lon="5.64634">
        <ele>540</ele>
        <time>2023-02-16T10:28:34Z</time>
      </trkpt>
      <trkpt lat="45.39447" lon="5.64632">
        <ele>540</ele>
        <time>2023-02-16T10:28:35Z</time>
      </trkpt>
      <trkpt lat="45.39446" lon="5.6463">
        <ele>540</ele>
        <time>2023-02-16T10:28:36Z</time>
      </trkpt>
      <trkpt lat="45.39444" lon="5.64628">
        <ele>540</ele>
        <time>2023-02-16T10:28:37Z</time>
      </trkpt>
      <trkpt lat="45.39443" lon="5.64626">
        <ele>540</ele>
        <time>2023-02-16T10:28:38Z</time>
      </trkpt>
      <trkpt lat="45.39441" lon="5.64624">
        <ele>540</ele>
        <time>2023-02-16T10:28:39Z</time>
      </trkpt>
      <trkpt lat="45.3944" lon="5.64621">
        <ele>540</ele>
        <time>2023-02-16T10:28:40Z</time>
      </trkpt>
      <trkpt lat="45.39439" lon="5.64619">
        <ele>541</ele>
        <time>2023-02-16T10:28:41Z</time>
      </trkpt>
      <trkpt lat="45.39437" lon="5.64615">
        <ele>541</ele>
        <time>2023-02-16T10:28:43Z</time>
      </trkpt>
      <trkpt lat="45.39435" lon="5.64611">
        <ele>542</ele>
        <time>2023-02-16T10:28:45Z</time>
      </trkpt>
      <trkpt lat="45.39433" lon="5.64607">
        <ele>543</ele>
        <time>2023-02-16T10:28:47Z</time>
      </trkpt>
      <trkpt lat="45.39431" lon="5.64603">
        <ele>543</ele>
        <time>2023-02-16T10:28:49Z</time>
      </trkpt>
      <trkpt lat="45.3943" lon="5.64601">
        <ele>544</ele>
        <time>2023-02-16T10:28:50Z</time>
      </trkpt>
      <trkpt lat="45.3943" lon="5.64598">
        <ele>544</ele>
        <time>2023-02-16T10:28:51Z</time>
      </trkpt>
      <trkpt lat="45.39429" lon="5.64595">
        <ele>544</ele>
        <time>2023-02-16T10:28:52Z</time>
      </trkpt>
      <trkpt lat="45.39428" lon="5.64592">
        <ele>544</ele>
        <time>2023-02-16T10:28:53Z</time>
      </trkpt>
      <trkpt lat="45.39428" lon="5.64589">
        <ele>545</ele>
        <time>2023-02-16T10:28:54Z</time>
      </trkpt>
      <trkpt lat="45.39427" lon="5.64586">
        <ele>545</ele>
        <time>2023-02-16T10:28:55Z</time>
      </trkpt>
      <trkpt lat="45.39426" lon="5.64584">
        <ele>545</ele>
        <time>2023-02-16T10:28:56Z</time>
      </trkpt>
      <trkpt lat="45.39426" lon="5.64581">
        <ele>545</ele>
        <time>2023-02-16T10:28:57Z</time>
      </trkpt>
      <trkpt lat="45.39426" lon="5.64578">
        <ele>545</ele>
        <time>2023-02-16T10:28:58Z</time>
      </trkpt>
      <trkpt lat="45.39425" lon="5.64575">
        <ele>545</ele>
        <time>2023-02-16T10:28:59Z</time>
      </trkpt>
      <trkpt lat="45.39425" lon="5.64572">
        <ele>545</ele>
        <time>2023-02-16T10:29:00Z</time>
      </trkpt>
      <trkpt lat="45.39424" lon="5.6457">
        <ele>545</ele>
        <time>2023-02-16T10:29:01Z</time>
      </trkpt>
      <trkpt lat="45.39424" lon="5.64567">
        <ele>546</ele>
        <time>2023-02-16T10:29:02Z</time>
      </trkpt>
      <trkpt lat="45.39423" lon="5.64564">
        <ele>546</ele>
        <time>2023-02-16T10:29:03Z</time>
      </trkpt>
      <trkpt lat="45.39422" lon="5.64561">
        <ele>546</ele>
        <time>2023-02-16T10:29:04Z</time>
      </trkpt>
      <trkpt lat="45.39421" lon="5.64556">
        <ele>546</ele>
        <time>2023-02-16T10:29:06Z</time>
      </trkpt>
      <trkpt lat="45.39421" lon="5.64554">
        <ele>546</ele>
        <time>2023-02-16T10:29:07Z</time>
      </trkpt>
      <trkpt lat="45.3942" lon="5.64551">
        <ele>546</ele>
        <time>2023-02-16T10:29:08Z</time>
      </trkpt>
      <trkpt lat="45.3942" lon="5.64546">
        <ele>546</ele>
        <time>2023-02-16T10:29:10Z</time>
      </trkpt>
      <trkpt lat="45.39419" lon="5.64541">
        <ele>547</ele>
        <time>2023-02-16T10:29:12Z</time>
      </trkpt>
      <trkpt lat="45.39418" lon="5.64537">
        <ele>548</ele>
        <time>2023-02-16T10:29:14Z</time>
      </trkpt>
      <trkpt lat="45.39417" lon="5.64532">
        <ele>549</ele>
        <time>2023-02-16T10:29:16Z</time>
      </trkpt>
      <trkpt lat="45.39417" lon="5.64528">
        <ele>549</ele>
        <time>2023-02-16T10:29:18Z</time>
      </trkpt>
      <trkpt lat="45.39416" lon="5.64525">
        <ele>549</ele>
        <time>2023-02-16T10:29:20Z</time>
      </trkpt>
      <trkpt lat="45.39415" lon="5.64521">
        <ele>549</ele>
        <time>2023-02-16T10:29:22Z</time>
      </trkpt>
      <trkpt lat="45.39415" lon="5.64517">
        <ele>550</ele>
        <time>2023-02-16T10:29:24Z</time>
      </trkpt>
      <trkpt lat="45.39414" lon="5.64513">
        <ele>550</ele>
        <time>2023-02-16T10:29:26Z</time>
      </trkpt>
      <trkpt lat="45.39413" lon="5.64509">
        <ele>550</ele>
        <time>2023-02-16T10:29:28Z</time>
      </trkpt>
      <trkpt lat="45.39413" lon="5.64505">
        <ele>552</ele>
        <time>2023-02-16T10:29:30Z</time>
      </trkpt>
      <trkpt lat="45.39412" lon="5.64501">
        <ele>552</ele>
        <time>2023-02-16T10:29:32Z</time>
      </trkpt>
      <trkpt lat="45.39412" lon="5.64497">
        <ele>552</ele>
        <time>2023-02-16T10:29:34Z</time>
      </trkpt>
      <trkpt lat="45.39411" lon="5.64493">
        <ele>553</ele>
        <time>2023-02-16T10:29:36Z</time>
      </trkpt>
      <trkpt lat="45.3941" lon="5.64488">
        <ele>554</ele>
        <time>2023-02-16T10:29:38Z</time>
      </trkpt>
      <trkpt lat="45.39409" lon="5.64485">
        <ele>554</ele>
        <time>2023-02-16T10:29:39Z</time>
      </trkpt>
      <trkpt lat="45.39409" lon="5.64483">
        <ele>554</ele>
        <time>2023-02-16T10:29:40Z</time>
      </trkpt>
      <trkpt lat="45.39408" lon="5.6448">
        <ele>554</ele>
        <time>2023-02-16T10:29:41Z</time>
      </trkpt>
      <trkpt lat="45.39408" lon="5.64477">
        <ele>555</ele>
        <time>2023-02-16T10:29:42Z</time>
      </trkpt>
      <trkpt lat="45.39408" lon="5.64475">
        <ele>555</ele>
        <time>2023-02-16T10:29:43Z</time>
      </trkpt>
      <trkpt lat="45.39407" lon="5.6447">
        <ele>555</ele>
        <time>2023-02-16T10:29:45Z</time>
      </trkpt>
      <trkpt lat="45.39407" lon="5.64467">
        <ele>555</ele>
        <time>2023-02-16T10:29:46Z</time>
      </trkpt>
      <trkpt lat="45.39406" lon="5.64465">
        <ele>555</ele>
        <time>2023-02-16T10:29:47Z</time>
      </trkpt>
      <trkpt lat="45.39406" lon="5.64462">
        <ele>555</ele>
        <time>2023-02-16T10:29:48Z</time>
      </trkpt>
      <trkpt lat="45.39406" lon="5.64459">
        <ele>555</ele>
        <time>2023-02-16T10:29:49Z</time>
      </trkpt>
      <trkpt lat="45.39405" lon="5.64457">
        <ele>555</ele>
        <time>2023-02-16T10:29:50Z</time>
      </trkpt>
      <trkpt lat="45.39405" lon="5.64454">
        <ele>556</ele>
        <time>2023-02-16T10:29:51Z</time>
      </trkpt>
      <trkpt lat="45.39405" lon="5.64451">
        <ele>556</ele>
        <time>2023-02-16T10:29:52Z</time>
      </trkpt>
      <trkpt lat="45.39405" lon="5.64449">
        <ele>556</ele>
        <time>2023-02-16T10:29:53Z</time>
      </trkpt>
      <trkpt lat="45.39404" lon="5.64446">
        <ele>556</ele>
        <time>2023-02-16T10:29:54Z</time>
      </trkpt>
      <trkpt lat="45.39404" lon="5.64443">
        <ele>556</ele>
        <time>2023-02-16T10:29:55Z</time>
      </trkpt>
      <trkpt lat="45.39404" lon="5.64441">
        <ele>556</ele>
        <time>2023-02-16T10:29:56Z</time>
      </trkpt>
      <trkpt lat="45.39404" lon="5.64438">
        <ele>557</ele>
        <time>2023-02-16T10:29:57Z</time>
      </trkpt>
      <trkpt lat="45.39404" lon="5.64435">
        <ele>557</ele>
        <time>2023-02-16T10:29:58Z</time>
      </trkpt>
      <trkpt lat="45.39404" lon="5.64433">
        <ele>557</ele>
        <time>2023-02-16T10:29:59Z</time>
      </trkpt>
      <trkpt lat="45.39404" lon="5.6443">
        <ele>558</ele>
        <time>2023-02-16T10:30:00Z</time>
      </trkpt>
      <trkpt lat="45.39403" lon="5.64427">
        <ele>558</ele>
        <time>2023-02-16T10:30:01Z</time>
      </trkpt>
      <trkpt lat="45.39403" lon="5.64425">
        <ele>558</ele>
        <time>2023-02-16T10:30:02Z</time>
      </trkpt>
      <trkpt lat="45.39403" lon="5.64422">
        <ele>558</ele>
        <time>2023-02-16T10:30:03Z</time>
      </trkpt>
      <trkpt lat="45.39403" lon="5.64419">
        <ele>558</ele>
        <time>2023-02-16T10:30:04Z</time>
      </trkpt>
      <trkpt lat="45.39403" lon="5.64416">
        <ele>558</ele>
        <time>2023-02-16T10:30:05Z</time>
      </trkpt>
      <trkpt lat="45.39402" lon="5.64414">
        <ele>559</ele>
        <time>2023-02-16T10:30:06Z</time>
      </trkpt>
      <trkpt lat="45.39402" lon="5.64411">
        <ele>559</ele>
        <time>2023-02-16T10:30:07Z</time>
      </trkpt>
      <trkpt lat="45.39402" lon="5.64408">
        <ele>559</ele>
        <time>2023-02-16T10:30:08Z</time>
      </trkpt>
      <trkpt lat="45.39401" lon="5.64405">
        <ele>559</ele>
        <time>2023-02-16T10:30:09Z</time>
      </trkpt>
      <trkpt lat="45.39401" lon="5.64403">
        <ele>559</ele>
        <time>2023-02-16T10:30:10Z</time>
      </trkpt>
      <trkpt lat="45.39401" lon="5.644">
        <ele>560</ele>
        <time>2023-02-16T10:30:11Z</time>
      </trkpt>
      <trkpt lat="45.39401" lon="5.64397">
        <ele>560</ele>
        <time>2023-02-16T10:30:12Z</time>
      </trkpt>
      <trkpt lat="45.394" lon="5.64395">
        <ele>560</ele>
        <time>2023-02-16T10:30:13Z</time>
      </trkpt>
      <trkpt lat="45.394" lon="5.64392">
        <ele>560</ele>
        <time>2023-02-16T10:30:14Z</time>
      </trkpt>
      <trkpt lat="45.39399" lon="5.64389">
        <ele>560</ele>
        <time>2023-02-16T10:30:15Z</time>
      </trkpt>
      <trkpt lat="45.39399" lon="5.64384">
        <ele>561</ele>
        <time>2023-02-16T10:30:17Z</time>
      </trkpt>
      <trkpt lat="45.39399" lon="5.6438">
        <ele>561</ele>
        <time>2023-02-16T10:30:19Z</time>
      </trkpt>
      <trkpt lat="45.39398" lon="5.64375">
        <ele>561</ele>
        <time>2023-02-16T10:30:21Z</time>
      </trkpt>
      <trkpt lat="45.39398" lon="5.64371">
        <ele>563</ele>
        <time>2023-02-16T10:30:23Z</time>
      </trkpt>
      <trkpt lat="45.39397" lon="5.64366">
        <ele>563</ele>
        <time>2023-02-16T10:30:25Z</time>
      </trkpt>
      <trkpt lat="45.39397" lon="5.64362">
        <ele>563</ele>
        <time>2023-02-16T10:30:27Z</time>
      </trkpt>
      <trkpt lat="45.39397" lon="5.64357">
        <ele>564</ele>
        <time>2023-02-16T10:30:29Z</time>
      </trkpt>
      <trkpt lat="45.39397" lon="5.64352">
        <ele>565</ele>
        <time>2023-02-16T10:30:31Z</time>
      </trkpt>
      <trkpt lat="45.39397" lon="5.64347">
        <ele>565</ele>
        <time>2023-02-16T10:30:33Z</time>
      </trkpt>
      <trkpt lat="45.39397" lon="5.64343">
        <ele>565</ele>
        <time>2023-02-16T10:30:35Z</time>
      </trkpt>
      <trkpt lat="45.39397" lon="5.6434">
        <ele>565</ele>
        <time>2023-02-16T10:30:36Z</time>
      </trkpt>
      <trkpt lat="45.39397" lon="5.64337">
        <ele>565</ele>
        <time>2023-02-16T10:30:37Z</time>
      </trkpt>
      <trkpt lat="45.39397" lon="5.64335">
        <ele>565</ele>
        <time>2023-02-16T10:30:38Z</time>
      </trkpt>
      <trkpt lat="45.39397" lon="5.64332">
        <ele>565</ele>
        <time>2023-02-16T10:30:39Z</time>
      </trkpt>
      <trkpt lat="45.39397" lon="5.6433">
        <ele>565</ele>
        <time>2023-02-16T10:30:40Z</time>
      </trkpt>
      <trkpt lat="45.39397" lon="5.64327">
        <ele>566</ele>
        <time>2023-02-16T10:30:41Z</time>
      </trkpt>
      <trkpt lat="45.39398" lon="5.64324">
        <ele>566</ele>
        <time>2023-02-16T10:30:42Z</time>
      </trkpt>
      <trkpt lat="45.39398" lon="5.64322">
        <ele>566</ele>
        <time>2023-02-16T10:30:43Z</time>
      </trkpt>
      <trkpt lat="45.39398" lon="5.64319">
        <ele>566</ele>
        <time>2023-02-16T10:30:44Z</time>
      </trkpt>
      <trkpt lat="45.39399" lon="5.64316">
        <ele>566</ele>
        <time>2023-02-16T10:30:45Z</time>
      </trkpt>
      <trkpt lat="45.39399" lon="5.64313">
        <ele>566</ele>
        <time>2023-02-16T10:30:46Z</time>
      </trkpt>
      <trkpt lat="45.394" lon="5.6431">
        <ele>566</ele>
        <time>2023-02-16T10:30:47Z</time>
      </trkpt>
      <trkpt lat="45.39401" lon="5.64308">
        <ele>566</ele>
        <time>2023-02-16T10:30:48Z</time>
      </trkpt>
      <trkpt lat="45.39401" lon="5.64305">
        <ele>566</ele>
        <time>2023-02-16T10:30:49Z</time>
      </trkpt>
      <trkpt lat="45.39402" lon="5.64303">
        <ele>567</ele>
        <time>2023-02-16T10:30:50Z</time>
      </trkpt>
      <trkpt lat="45.39403" lon="5.643">
        <ele>567</ele>
        <time>2023-02-16T10:30:51Z</time>
      </trkpt>
      <trkpt lat="45.39404" lon="5.64297">
        <ele>567</ele>
        <time>2023-02-16T10:30:52Z</time>
      </trkpt>
      <trkpt lat="45.39405" lon="5.64295">
        <ele>567</ele>
        <time>2023-02-16T10:30:53Z</time>
      </trkpt>
      <trkpt lat="45.39405" lon="5.64292">
        <ele>567</ele>
        <time>2023-02-16T10:30:54Z</time>
      </trkpt>
      <trkpt lat="45.39406" lon="5.6429">
        <ele>568</ele>
        <time>2023-02-16T10:30:55Z</time>
      </trkpt>
      <trkpt lat="45.39406" lon="5.64287">
        <ele>568</ele>
        <time>2023-02-16T10:30:56Z</time>
      </trkpt>
      <trkpt lat="45.39406" lon="5.64284">
        <ele>568</ele>
        <time>2023-02-16T10:30:57Z</time>
      </trkpt>
      <trkpt lat="45.39405" lon="5.64282">
        <ele>569</ele>
        <time>2023-02-16T10:30:58Z</time>
      </trkpt>
      <trkpt lat="45.39404" lon="5.64279">
        <ele>569</ele>
        <time>2023-02-16T10:30:59Z</time>
      </trkpt>
      <trkpt lat="45.39403" lon="5.64277">
        <ele>569</ele>
        <time>2023-02-16T10:31:00Z</time>
      </trkpt>
      <trkpt lat="45.39402" lon="5.64275">
        <ele>569</ele>
        <time>2023-02-16T10:31:01Z</time>
      </trkpt>
      <trkpt lat="45.39401" lon="5.64273">
        <ele>570</ele>
        <time>2023-02-16T10:31:02Z</time>
      </trkpt>
      <trkpt lat="45.39399" lon="5.64272">
        <ele>570</ele>
        <time>2023-02-16T10:31:03Z</time>
      </trkpt>
      <trkpt lat="45.39398" lon="5.64271">
        <ele>570</ele>
        <time>2023-02-16T10:31:04Z</time>
      </trkpt>
      <trkpt lat="45.39396" lon="5.6427">
        <ele>570</ele>
        <time>2023-02-16T10:31:05Z</time>
      </trkpt>
      <trkpt lat="45.39393" lon="5.64268">
        <ele>571</ele>
        <time>2023-02-16T10:31:07Z</time>
      </trkpt>
      <trkpt lat="45.3939" lon="5.64266">
        <ele>571</ele>
        <time>2023-02-16T10:31:09Z</time>
      </trkpt>
      <trkpt lat="45.39386" lon="5.64265">
        <ele>571</ele>
        <time>2023-02-16T10:31:11Z</time>
      </trkpt>
      <trkpt lat="45.39383" lon="5.64263">
        <ele>571</ele>
        <time>2023-02-16T10:31:13Z</time>
      </trkpt>
      <trkpt lat="45.3938" lon="5.64262">
        <ele>573</ele>
        <time>2023-02-16T10:31:15Z</time>
      </trkpt>
      <trkpt lat="45.39377" lon="5.6426">
        <ele>573</ele>
        <time>2023-02-16T10:31:17Z</time>
      </trkpt>
      <trkpt lat="45.39374" lon="5.64259">
        <ele>573</ele>
        <time>2023-02-16T10:31:19Z</time>
      </trkpt>
      <trkpt lat="45.3937" lon="5.64257">
        <ele>574</ele>
        <time>2023-02-16T10:31:21Z</time>
      </trkpt>
      <trkpt lat="45.39367" lon="5.64255">
        <ele>574</ele>
        <time>2023-02-16T10:31:23Z</time>
      </trkpt>
      <trkpt lat="45.39364" lon="5.64252">
        <ele>575</ele>
        <time>2023-02-16T10:31:25Z</time>
      </trkpt>
      <trkpt lat="45.39362" lon="5.64249">
        <ele>575</ele>
        <time>2023-02-16T10:31:27Z</time>
      </trkpt>
      <trkpt lat="45.3936" lon="5.64246">
        <ele>575</ele>
        <time>2023-02-16T10:31:29Z</time>
      </trkpt>
      <trkpt lat="45.39358" lon="5.64243">
        <ele>577</ele>
        <time>2023-02-16T10:31:31Z</time>
      </trkpt>
      <trkpt lat="45.39355" lon="5.6424">
        <ele>577</ele>
        <time>2023-02-16T10:31:33Z</time>
      </trkpt>
      <trkpt lat="45.39354" lon="5.64238">
        <ele>577</ele>
        <time>2023-02-16T10:31:35Z</time>
      </trkpt>
      <trkpt lat="45.39355" lon="5.64239">
        <ele>578</ele>
        <time>2023-02-16T10:31:41Z</time>
      </trkpt>
      <trkpt lat="45.39353" lon="5.64234">
        <ele>577</ele>
        <time>2023-02-16T10:31:48Z</time>
      </trkpt>
      <trkpt lat="45.39352" lon="5.64233">
        <ele>577</ele>
        <time>2023-02-16T10:31:49Z</time>
      </trkpt>
      <trkpt lat="45.39353" lon="5.64229">
        <ele>577</ele>
        <time>2023-02-16T10:31:52Z</time>
      </trkpt>
      <trkpt lat="45.39353" lon="5.64227">
        <ele>578</ele>
        <time>2023-02-16T10:31:54Z</time>
      </trkpt>
      <trkpt lat="45.39353" lon="5.64227">
        <ele>578</ele>
        <time>2023-02-16T10:31:57Z</time>
      </trkpt>
      <trkpt lat="45.39353" lon="5.64229">
        <ele>577</ele>
        <time>2023-02-16T10:33:36Z</time>
      </trkpt>
      <trkpt lat="45.39353" lon="5.6423">
        <ele>578</ele>
        <time>2023-02-16T10:33:38Z</time>
      </trkpt>
      <trkpt lat="45.39354" lon="5.64233">
        <ele>578</ele>
        <time>2023-02-16T10:33:41Z</time>
      </trkpt>
      <trkpt lat="45.39355" lon="5.64235">
        <ele>578</ele>
        <time>2023-02-16T10:33:44Z</time>
      </trkpt>
      <trkpt lat="45.39356" lon="5.64236">
        <ele>578</ele>
        <time>2023-02-16T10:33:49Z</time>
      </trkpt>
      <trkpt lat="45.39356" lon="5.64238">
        <ele>577</ele>
        <time>2023-02-16T10:34:22Z</time>
      </trkpt>
      <trkpt lat="45.39356" lon="5.64238">
        <ele>577</ele>
        <time>2023-02-16T10:34:25Z</time>
      </trkpt>
      <trkpt lat="45.39359" lon="5.64232">
        <ele>578</ele>
        <time>2023-02-16T10:35:50Z</time>
      </trkpt>
      <trkpt lat="45.39361" lon="5.64231">
        <ele>578</ele>
        <time>2023-02-16T10:35:51Z</time>
      </trkpt>
      <trkpt lat="45.39363" lon="5.64231">
        <ele>579</ele>
        <time>2023-02-16T10:35:53Z</time>
      </trkpt>
      <trkpt lat="45.39366" lon="5.64234">
        <ele>579</ele>
        <time>2023-02-16T10:35:55Z</time>
      </trkpt>
      <trkpt lat="45.39369" lon="5.64235">
        <ele>579</ele>
        <time>2023-02-16T10:35:57Z</time>
      </trkpt>
      <trkpt lat="45.39372" lon="5.64236">
        <ele>580</ele>
        <time>2023-02-16T10:35:59Z</time>
      </trkpt>
      <trkpt lat="45.39375" lon="5.64238">
        <ele>580</ele>
        <time>2023-02-16T10:36:01Z</time>
      </trkpt>
      <trkpt lat="45.39377" lon="5.64239">
        <ele>581</ele>
        <time>2023-02-16T10:36:02Z</time>
      </trkpt>
      <trkpt lat="45.39379" lon="5.6424">
        <ele>582</ele>
        <time>2023-02-16T10:36:03Z</time>
      </trkpt>
      <trkpt lat="45.39383" lon="5.64241">
        <ele>582</ele>
        <time>2023-02-16T10:36:05Z</time>
      </trkpt>
      <trkpt lat="45.39385" lon="5.64242">
        <ele>582</ele>
        <time>2023-02-16T10:36:06Z</time>
      </trkpt>
      <trkpt lat="45.39386" lon="5.64242">
        <ele>582</ele>
        <time>2023-02-16T10:36:07Z</time>
      </trkpt>
      <trkpt lat="45.3939" lon="5.64243">
        <ele>582</ele>
        <time>2023-02-16T10:36:09Z</time>
      </trkpt>
      <trkpt lat="45.39392" lon="5.64243">
        <ele>583</ele>
        <time>2023-02-16T10:36:10Z</time>
      </trkpt>
      <trkpt lat="45.39394" lon="5.64244">
        <ele>583</ele>
        <time>2023-02-16T10:36:11Z</time>
      </trkpt>
      <trkpt lat="45.39395" lon="5.64244">
        <ele>583</ele>
        <time>2023-02-16T10:36:12Z</time>
      </trkpt>
      <trkpt lat="45.39399" lon="5.64243">
        <ele>583</ele>
        <time>2023-02-16T10:36:14Z</time>
      </trkpt>
      <trkpt lat="45.39402" lon="5.64243">
        <ele>583</ele>
        <time>2023-02-16T10:36:16Z</time>
      </trkpt>
      <trkpt lat="45.39406" lon="5.64242">
        <ele>585</ele>
        <time>2023-02-16T10:36:18Z</time>
      </trkpt>
      <trkpt lat="45.39409" lon="5.64241">
        <ele>585</ele>
        <time>2023-02-16T10:36:20Z</time>
      </trkpt>
      <trkpt lat="45.39413" lon="5.6424">
        <ele>585</ele>
        <time>2023-02-16T10:36:22Z</time>
      </trkpt>
      <trkpt lat="45.39416" lon="5.64239">
        <ele>587</ele>
        <time>2023-02-16T10:36:24Z</time>
      </trkpt>
      <trkpt lat="45.3942" lon="5.64239">
        <ele>587</ele>
        <time>2023-02-16T10:36:26Z</time>
      </trkpt>
      <trkpt lat="45.39423" lon="5.64238">
        <ele>587</ele>
        <time>2023-02-16T10:36:28Z</time>
      </trkpt>
      <trkpt lat="45.39426" lon="5.64238">
        <ele>588</ele>
        <time>2023-02-16T10:36:30Z</time>
      </trkpt>
      <trkpt lat="45.39429" lon="5.64238">
        <ele>588</ele>
        <time>2023-02-16T10:36:32Z</time>
      </trkpt>
      <trkpt lat="45.39432" lon="5.64238">
        <ele>588</ele>
        <time>2023-02-16T10:36:34Z</time>
      </trkpt>
      <trkpt lat="45.39435" lon="5.64238">
        <ele>590</ele>
        <time>2023-02-16T10:36:36Z</time>
      </trkpt>
      <trkpt lat="45.39438" lon="5.64238">
        <ele>591</ele>
        <time>2023-02-16T10:36:38Z</time>
      </trkpt>
      <trkpt lat="45.39441" lon="5.64238">
        <ele>591</ele>
        <time>2023-02-16T10:36:40Z</time>
      </trkpt>
      <trkpt lat="45.39445" lon="5.64239">
        <ele>592</ele>
        <time>2023-02-16T10:36:42Z</time>
      </trkpt>
      <trkpt lat="45.39448" lon="5.6424">
        <ele>592</ele>
        <time>2023-02-16T10:36:44Z</time>
      </trkpt>
      <trkpt lat="45.39451" lon="5.64241">
        <ele>592</ele>
        <time>2023-02-16T10:36:46Z</time>
      </trkpt>
      <trkpt lat="45.39454" lon="5.64243">
        <ele>593</ele>
        <time>2023-02-16T10:36:48Z</time>
      </trkpt>
      <trkpt lat="45.39456" lon="5.64244">
        <ele>593</ele>
        <time>2023-02-16T10:36:50Z</time>
      </trkpt>
      <trkpt lat="45.39459" lon="5.64245">
        <ele>593</ele>
        <time>2023-02-16T10:36:52Z</time>
      </trkpt>
      <trkpt lat="45.39463" lon="5.64245">
        <ele>594</ele>
        <time>2023-02-16T10:36:54Z</time>
      </trkpt>
      <trkpt lat="45.39465" lon="5.64245">
        <ele>594</ele>
        <time>2023-02-16T10:36:55Z</time>
      </trkpt>
      <trkpt lat="45.39467" lon="5.64245">
        <ele>595</ele>
        <time>2023-02-16T10:36:56Z</time>
      </trkpt>
      <trkpt lat="45.39469" lon="5.64244">
        <ele>595</ele>
        <time>2023-02-16T10:36:58Z</time>
      </trkpt>
      <trkpt lat="45.39472" lon="5.64242">
        <ele>596</ele>
        <time>2023-02-16T10:37:00Z</time>
      </trkpt>
      <trkpt lat="45.39474" lon="5.64238">
        <ele>596</ele>
        <time>2023-02-16T10:37:02Z</time>
      </trkpt>
      <trkpt lat="45.39475" lon="5.64233">
        <ele>596</ele>
        <time>2023-02-16T10:37:04Z</time>
      </trkpt>
      <trkpt lat="45.39475" lon="5.64229">
        <ele>597</ele>
        <time>2023-02-16T10:37:06Z</time>
      </trkpt>
      <trkpt lat="45.39474" lon="5.64224">
        <ele>597</ele>
        <time>2023-02-16T10:37:08Z</time>
      </trkpt>
      <trkpt lat="45.39472" lon="5.6422">
        <ele>597</ele>
        <time>2023-02-16T10:37:10Z</time>
      </trkpt>
      <trkpt lat="45.3947" lon="5.64216">
        <ele>599</ele>
        <time>2023-02-16T10:37:12Z</time>
      </trkpt>
      <trkpt lat="45.39468" lon="5.64213">
        <ele>599</ele>
        <time>2023-02-16T10:37:14Z</time>
      </trkpt>
      <trkpt lat="45.39465" lon="5.64211">
        <ele>599</ele>
        <time>2023-02-16T10:37:16Z</time>
      </trkpt>
      <trkpt lat="45.39463" lon="5.64209">
        <ele>601</ele>
        <time>2023-02-16T10:37:18Z</time>
      </trkpt>
      <trkpt lat="45.3946" lon="5.64207">
        <ele>601</ele>
        <time>2023-02-16T10:37:20Z</time>
      </trkpt>
      <trkpt lat="45.39457" lon="5.64205">
        <ele>601</ele>
        <time>2023-02-16T10:37:22Z</time>
      </trkpt>
      <trkpt lat="45.39454" lon="5.64204">
        <ele>601</ele>
        <time>2023-02-16T10:37:24Z</time>
      </trkpt>
      <trkpt lat="45.39452" lon="5.64203">
        <ele>601</ele>
        <time>2023-02-16T10:37:26Z</time>
      </trkpt>
      <trkpt lat="45.3945" lon="5.64202">
        <ele>601</ele>
        <time>2023-02-16T10:37:28Z</time>
      </trkpt>
      <trkpt lat="45.39448" lon="5.64203">
        <ele>603</ele>
        <time>2023-02-16T10:37:30Z</time>
      </trkpt>
      <trkpt lat="45.39445" lon="5.64201">
        <ele>603</ele>
        <time>2023-02-16T10:37:32Z</time>
      </trkpt>
      <trkpt lat="45.39443" lon="5.642">
        <ele>603</ele>
        <time>2023-02-16T10:37:34Z</time>
      </trkpt>
      <trkpt lat="45.39441" lon="5.64199">
        <ele>605</ele>
        <time>2023-02-16T10:37:36Z</time>
      </trkpt>
      <trkpt lat="45.39438" lon="5.64197">
        <ele>605</ele>
        <time>2023-02-16T10:37:38Z</time>
      </trkpt>
      <trkpt lat="45.39436" lon="5.64195">
        <ele>605</ele>
        <time>2023-02-16T10:37:39Z</time>
      </trkpt>
      <trkpt lat="45.39433" lon="5.64193">
        <ele>606</ele>
        <time>2023-02-16T10:37:41Z</time>
      </trkpt>
      <trkpt lat="45.3943" lon="5.64191">
        <ele>606</ele>
        <time>2023-02-16T10:37:43Z</time>
      </trkpt>
      <trkpt lat="45.39427" lon="5.64189">
        <ele>607</ele>
        <time>2023-02-16T10:37:45Z</time>
      </trkpt>
      <trkpt lat="45.39424" lon="5.64187">
        <ele>607</ele>
        <time>2023-02-16T10:37:47Z</time>
      </trkpt>
      <trkpt lat="45.39421" lon="5.64185">
        <ele>607</ele>
        <time>2023-02-16T10:37:49Z</time>
      </trkpt>
      <trkpt lat="45.39419" lon="5.64183">
        <ele>609</ele>
        <time>2023-02-16T10:37:51Z</time>
      </trkpt>
      <trkpt lat="45.39416" lon="5.6418">
        <ele>609</ele>
        <time>2023-02-16T10:37:53Z</time>
      </trkpt>
      <trkpt lat="45.39413" lon="5.64178">
        <ele>609</ele>
        <time>2023-02-16T10:37:55Z</time>
      </trkpt>
      <trkpt lat="45.3941" lon="5.64175">
        <ele>610</ele>
        <time>2023-02-16T10:37:57Z</time>
      </trkpt>
      <trkpt lat="45.39408" lon="5.64172">
        <ele>610</ele>
        <time>2023-02-16T10:37:59Z</time>
      </trkpt>
      <trkpt lat="45.39406" lon="5.64168">
        <ele>610</ele>
        <time>2023-02-16T10:38:01Z</time>
      </trkpt>
      <trkpt lat="45.39404" lon="5.64165">
        <ele>610</ele>
        <time>2023-02-16T10:38:03Z</time>
      </trkpt>
      <trkpt lat="45.39403" lon="5.64161">
        <ele>610</ele>
        <time>2023-02-16T10:38:05Z</time>
      </trkpt>
      <trkpt lat="45.39401" lon="5.64157">
        <ele>610</ele>
        <time>2023-02-16T10:38:07Z</time>
      </trkpt>
      <trkpt lat="45.39399" lon="5.64153">
        <ele>611</ele>
        <time>2023-02-16T10:38:09Z</time>
      </trkpt>
      <trkpt lat="45.39398" lon="5.64149">
        <ele>612</ele>
        <time>2023-02-16T10:38:11Z</time>
      </trkpt>
      <trkpt lat="45.39397" lon="5.64145">
        <ele>612</ele>
        <time>2023-02-16T10:38:13Z</time>
      </trkpt>
      <trkpt lat="45.39397" lon="5.64141">
        <ele>613</ele>
        <time>2023-02-16T10:38:15Z</time>
      </trkpt>
      <trkpt lat="45.39396" lon="5.64136">
        <ele>614</ele>
        <time>2023-02-16T10:38:17Z</time>
      </trkpt>
      <trkpt lat="45.39397" lon="5.64132">
        <ele>614</ele>
        <time>2023-02-16T10:38:19Z</time>
      </trkpt>
      <trkpt lat="45.39397" lon="5.64127">
        <ele>615</ele>
        <time>2023-02-16T10:38:21Z</time>
      </trkpt>
      <trkpt lat="45.39396" lon="5.64123">
        <ele>616</ele>
        <time>2023-02-16T10:38:23Z</time>
      </trkpt>
      <trkpt lat="45.39396" lon="5.64119">
        <ele>616</ele>
        <time>2023-02-16T10:38:25Z</time>
      </trkpt>
      <trkpt lat="45.39396" lon="5.64114">
        <ele>616</ele>
        <time>2023-02-16T10:38:27Z</time>
      </trkpt>
      <trkpt lat="45.39396" lon="5.6411">
        <ele>617</ele>
        <time>2023-02-16T10:38:29Z</time>
      </trkpt>
      <trkpt lat="45.39395" lon="5.64105">
        <ele>617</ele>
        <time>2023-02-16T10:38:31Z</time>
      </trkpt>
      <trkpt lat="45.39395" lon="5.64101">
        <ele>617</ele>
        <time>2023-02-16T10:38:33Z</time>
      </trkpt>
      <trkpt lat="45.39395" lon="5.64097">
        <ele>617</ele>
        <time>2023-02-16T10:38:35Z</time>
      </trkpt>
      <trkpt lat="45.39395" lon="5.64092">
        <ele>617</ele>
        <time>2023-02-16T10:38:37Z</time>
      </trkpt>
      <trkpt lat="45.39395" lon="5.64088">
        <ele>618</ele>
        <time>2023-02-16T10:38:39Z</time>
      </trkpt>
      <trkpt lat="45.39395" lon="5.64084">
        <ele>619</ele>
        <time>2023-02-16T10:38:41Z</time>
      </trkpt>
      <trkpt lat="45.39395" lon="5.64079">
        <ele>619</ele>
        <time>2023-02-16T10:38:43Z</time>
      </trkpt>
      <trkpt lat="45.39395" lon="5.64075">
        <ele>620</ele>
        <time>2023-02-16T10:38:45Z</time>
      </trkpt>
      <trkpt lat="45.39395" lon="5.6407">
        <ele>621</ele>
        <time>2023-02-16T10:38:47Z</time>
      </trkpt>
      <trkpt lat="45.39396" lon="5.64066">
        <ele>621</ele>
        <time>2023-02-16T10:38:49Z</time>
      </trkpt>
      <trkpt lat="45.39396" lon="5.64062">
        <ele>621</ele>
        <time>2023-02-16T10:38:51Z</time>
      </trkpt>
      <trkpt lat="45.39397" lon="5.64058">
        <ele>622</ele>
        <time>2023-02-16T10:38:53Z</time>
      </trkpt>
      <trkpt lat="45.39398" lon="5.64054">
        <ele>622</ele>
        <time>2023-02-16T10:38:55Z</time>
      </trkpt>
      <trkpt lat="45.39398" lon="5.6405">
        <ele>623</ele>
        <time>2023-02-16T10:38:57Z</time>
      </trkpt>
      <trkpt lat="45.39399" lon="5.64046">
        <ele>623</ele>
        <time>2023-02-16T10:38:59Z</time>
      </trkpt>
      <trkpt lat="45.394" lon="5.64041">
        <ele>624</ele>
        <time>2023-02-16T10:39:01Z</time>
      </trkpt>
      <trkpt lat="45.394" lon="5.64037">
        <ele>624</ele>
        <time>2023-02-16T10:39:03Z</time>
      </trkpt>
      <trkpt lat="45.39401" lon="5.64034">
        <ele>624</ele>
        <time>2023-02-16T10:39:05Z</time>
      </trkpt>
      <trkpt lat="45.39401" lon="5.6403">
        <ele>624</ele>
        <time>2023-02-16T10:39:07Z</time>
      </trkpt>
      <trkpt lat="45.39401" lon="5.64026">
        <ele>626</ele>
        <time>2023-02-16T10:39:09Z</time>
      </trkpt>
      <trkpt lat="45.39401" lon="5.64023">
        <ele>626</ele>
        <time>2023-02-16T10:39:11Z</time>
      </trkpt>
      <trkpt lat="45.39401" lon="5.64019">
        <ele>626</ele>
        <time>2023-02-16T10:39:13Z</time>
      </trkpt>
      <trkpt lat="45.39402" lon="5.64015">
        <ele>627</ele>
        <time>2023-02-16T10:39:15Z</time>
      </trkpt>
      <trkpt lat="45.39401" lon="5.64009">
        <ele>627</ele>
        <time>2023-02-16T10:39:17Z</time>
      </trkpt>
      <trkpt lat="45.39402" lon="5.64007">
        <ele>628</ele>
        <time>2023-02-16T10:39:18Z</time>
      </trkpt>
      <trkpt lat="45.39401" lon="5.64004">
        <ele>628</ele>
        <time>2023-02-16T10:39:19Z</time>
      </trkpt>
      <trkpt lat="45.39401" lon="5.64002">
        <ele>628</ele>
        <time>2023-02-16T10:39:20Z</time>
      </trkpt>
      <trkpt lat="45.39401" lon="5.63999">
        <ele>628</ele>
        <time>2023-02-16T10:39:21Z</time>
      </trkpt>
      <trkpt lat="45.394" lon="5.63996">
        <ele>628</ele>
        <time>2023-02-16T10:39:22Z</time>
      </trkpt>
      <trkpt lat="45.394" lon="5.63993">
        <ele>628</ele>
        <time>2023-02-16T10:39:23Z</time>
      </trkpt>
      <trkpt lat="45.39399" lon="5.63991">
        <ele>628</ele>
        <time>2023-02-16T10:39:24Z</time>
      </trkpt>
      <trkpt lat="45.39399" lon="5.63988">
        <ele>628</ele>
        <time>2023-02-16T10:39:25Z</time>
      </trkpt>
      <trkpt lat="45.39398" lon="5.63985">
        <ele>629</ele>
        <time>2023-02-16T10:39:26Z</time>
      </trkpt>
      <trkpt lat="45.39397" lon="5.63983">
        <ele>629</ele>
        <time>2023-02-16T10:39:27Z</time>
      </trkpt>
      <trkpt lat="45.39395" lon="5.6398">
        <ele>629</ele>
        <time>2023-02-16T10:39:28Z</time>
      </trkpt>
      <trkpt lat="45.39394" lon="5.63977">
        <ele>629</ele>
        <time>2023-02-16T10:39:29Z</time>
      </trkpt>
      <trkpt lat="45.39393" lon="5.63975">
        <ele>630</ele>
        <time>2023-02-16T10:39:30Z</time>
      </trkpt>
      <trkpt lat="45.39391" lon="5.63973">
        <ele>630</ele>
        <time>2023-02-16T10:39:31Z</time>
      </trkpt>
      <trkpt lat="45.3939" lon="5.63971">
        <ele>630</ele>
        <time>2023-02-16T10:39:32Z</time>
      </trkpt>
      <trkpt lat="45.39388" lon="5.63969">
        <ele>630</ele>
        <time>2023-02-16T10:39:33Z</time>
      </trkpt>
      <trkpt lat="45.39387" lon="5.63968">
        <ele>630</ele>
        <time>2023-02-16T10:39:34Z</time>
      </trkpt>
      <trkpt lat="45.39385" lon="5.63966">
        <ele>630</ele>
        <time>2023-02-16T10:39:35Z</time>
      </trkpt>
      <trkpt lat="45.39383" lon="5.63964">
        <ele>630</ele>
        <time>2023-02-16T10:39:36Z</time>
      </trkpt>
      <trkpt lat="45.39381" lon="5.63963">
        <ele>630</ele>
        <time>2023-02-16T10:39:37Z</time>
      </trkpt>
      <trkpt lat="45.3938" lon="5.63962">
        <ele>631</ele>
        <time>2023-02-16T10:39:38Z</time>
      </trkpt>
      <trkpt lat="45.39378" lon="5.63961">
        <ele>631</ele>
        <time>2023-02-16T10:39:39Z</time>
      </trkpt>
      <trkpt lat="45.39376" lon="5.6396">
        <ele>631</ele>
        <time>2023-02-16T10:39:40Z</time>
      </trkpt>
      <trkpt lat="45.39374" lon="5.63959">
        <ele>631</ele>
        <time>2023-02-16T10:39:41Z</time>
      </trkpt>
      <trkpt lat="45.39373" lon="5.63958">
        <ele>631</ele>
        <time>2023-02-16T10:39:42Z</time>
      </trkpt>
      <trkpt lat="45.39371" lon="5.63957">
        <ele>632</ele>
        <time>2023-02-16T10:39:43Z</time>
      </trkpt>
      <trkpt lat="45.39369" lon="5.63956">
        <ele>632</ele>
        <time>2023-02-16T10:39:44Z</time>
      </trkpt>
      <trkpt lat="45.39367" lon="5.63956">
        <ele>632</ele>
        <time>2023-02-16T10:39:45Z</time>
      </trkpt>
      <trkpt lat="45.39365" lon="5.63956">
        <ele>632</ele>
        <time>2023-02-16T10:39:46Z</time>
      </trkpt>
      <trkpt lat="45.39361" lon="5.63956">
        <ele>632</ele>
        <time>2023-02-16T10:39:48Z</time>
      </trkpt>
      <trkpt lat="45.39358" lon="5.63957">
        <ele>632</ele>
        <time>2023-02-16T10:39:50Z</time>
      </trkpt>
      <trkpt lat="45.39355" lon="5.63958">
        <ele>633</ele>
        <time>2023-02-16T10:39:52Z</time>
      </trkpt>
      <trkpt lat="45.39353" lon="5.63959">
        <ele>633</ele>
        <time>2023-02-16T10:39:54Z</time>
      </trkpt>
      <trkpt lat="45.3935" lon="5.63961">
        <ele>634</ele>
        <time>2023-02-16T10:39:56Z</time>
      </trkpt>
      <trkpt lat="45.39347" lon="5.63963">
        <ele>634</ele>
        <time>2023-02-16T10:39:58Z</time>
      </trkpt>
      <trkpt lat="45.39345" lon="5.63964">
        <ele>635</ele>
        <time>2023-02-16T10:39:59Z</time>
      </trkpt>
      <trkpt lat="45.39343" lon="5.63965">
        <ele>635</ele>
        <time>2023-02-16T10:40:00Z</time>
      </trkpt>
      <trkpt lat="45.39341" lon="5.63965">
        <ele>635</ele>
        <time>2023-02-16T10:40:01Z</time>
      </trkpt>
      <trkpt lat="45.3934" lon="5.63966">
        <ele>636</ele>
        <time>2023-02-16T10:40:02Z</time>
      </trkpt>
      <trkpt lat="45.39336" lon="5.63966">
        <ele>636</ele>
        <time>2023-02-16T10:40:04Z</time>
      </trkpt>
      <trkpt lat="45.39333" lon="5.63964">
        <ele>636</ele>
        <time>2023-02-16T10:40:06Z</time>
      </trkpt>
      <trkpt lat="45.3933" lon="5.63962">
        <ele>637</ele>
        <time>2023-02-16T10:40:08Z</time>
      </trkpt>
      <trkpt lat="45.39327" lon="5.6396">
        <ele>637</ele>
        <time>2023-02-16T10:40:10Z</time>
      </trkpt>
      <trkpt lat="45.39324" lon="5.63956">
        <ele>637</ele>
        <time>2023-02-16T10:40:12Z</time>
      </trkpt>
      <trkpt lat="45.39322" lon="5.63952">
        <ele>638</ele>
        <time>2023-02-16T10:40:14Z</time>
      </trkpt>
      <trkpt lat="45.39321" lon="5.63947">
        <ele>638</ele>
        <time>2023-02-16T10:40:16Z</time>
      </trkpt>
      <trkpt lat="45.39321" lon="5.63942">
        <ele>638</ele>
        <time>2023-02-16T10:40:18Z</time>
      </trkpt>
      <trkpt lat="45.3932" lon="5.63938">
        <ele>640</ele>
        <time>2023-02-16T10:40:20Z</time>
      </trkpt>
      <trkpt lat="45.3932" lon="5.63934">
        <ele>640</ele>
        <time>2023-02-16T10:40:22Z</time>
      </trkpt>
      <trkpt lat="45.39318" lon="5.63929">
        <ele>640</ele>
        <time>2023-02-16T10:40:24Z</time>
      </trkpt>
      <trkpt lat="45.39317" lon="5.63927">
        <ele>640</ele>
        <time>2023-02-16T10:40:25Z</time>
      </trkpt>
      <trkpt lat="45.39316" lon="5.63925">
        <ele>641</ele>
        <time>2023-02-16T10:40:26Z</time>
      </trkpt>
      <trkpt lat="45.39314" lon="5.63922">
        <ele>641</ele>
        <time>2023-02-16T10:40:27Z</time>
      </trkpt>
      <trkpt lat="45.39313" lon="5.6392">
        <ele>641</ele>
        <time>2023-02-16T10:40:28Z</time>
      </trkpt>
      <trkpt lat="45.39312" lon="5.63917">
        <ele>641</ele>
        <time>2023-02-16T10:40:29Z</time>
      </trkpt>
      <trkpt lat="45.39311" lon="5.63915">
        <ele>641</ele>
        <time>2023-02-16T10:40:30Z</time>
      </trkpt>
      <trkpt lat="45.39309" lon="5.63913">
        <ele>641</ele>
        <time>2023-02-16T10:40:31Z</time>
      </trkpt>
      <trkpt lat="45.39308" lon="5.6391">
        <ele>641</ele>
        <time>2023-02-16T10:40:32Z</time>
      </trkpt>
      <trkpt lat="45.39307" lon="5.63908">
        <ele>641</ele>
        <time>2023-02-16T10:40:33Z</time>
      </trkpt>
      <trkpt lat="45.39306" lon="5.63905">
        <ele>641</ele>
        <time>2023-02-16T10:40:34Z</time>
      </trkpt>
      <trkpt lat="45.39305" lon="5.63903">
        <ele>641</ele>
        <time>2023-02-16T10:40:35Z</time>
      </trkpt>
      <trkpt lat="45.39304" lon="5.63901">
        <ele>641</ele>
        <time>2023-02-16T10:40:36Z</time>
      </trkpt>
      <trkpt lat="45.39305" lon="5.63899">
        <ele>642</ele>
        <time>2023-02-16T10:40:38Z</time>
      </trkpt>
      <trkpt lat="45.39306" lon="5.63903">
        <ele>642</ele>
        <time>2023-02-16T10:40:40Z</time>
      </trkpt>
      <trkpt lat="45.39307" lon="5.63906">
        <ele>642</ele>
        <time>2023-02-16T10:40:41Z</time>
      </trkpt>
      <trkpt lat="45.39308" lon="5.63909">
        <ele>642</ele>
        <time>2023-02-16T10:40:42Z</time>
      </trkpt>
      <trkpt lat="45.3931" lon="5.63912">
        <ele>642</ele>
        <time>2023-02-16T10:40:43Z</time>
      </trkpt>
      <trkpt lat="45.39312" lon="5.63916">
        <ele>642</ele>
        <time>2023-02-16T10:40:44Z</time>
      </trkpt>
      <trkpt lat="45.39314" lon="5.6392">
        <ele>642</ele>
        <time>2023-02-16T10:40:45Z</time>
      </trkpt>
      <trkpt lat="45.39316" lon="5.63924">
        <ele>642</ele>
        <time>2023-02-16T10:40:46Z</time>
      </trkpt>
      <trkpt lat="45.39318" lon="5.63928">
        <ele>642</ele>
        <time>2023-02-16T10:40:47Z</time>
      </trkpt>
      <trkpt lat="45.39321" lon="5.63932">
        <ele>642</ele>
        <time>2023-02-16T10:40:48Z</time>
      </trkpt>
      <trkpt lat="45.39323" lon="5.63936">
        <ele>642</ele>
        <time>2023-02-16T10:40:49Z</time>
      </trkpt>
      <trkpt lat="45.39326" lon="5.63937">
        <ele>641</ele>
        <time>2023-02-16T10:40:50Z</time>
      </trkpt>
      <trkpt lat="45.39329" lon="5.63936">
        <ele>641</ele>
        <time>2023-02-16T10:40:51Z</time>
      </trkpt>
      <trkpt lat="45.39331" lon="5.63934">
        <ele>641</ele>
        <time>2023-02-16T10:40:52Z</time>
      </trkpt>
      <trkpt lat="45.39332" lon="5.63931">
        <ele>640</ele>
        <time>2023-02-16T10:40:53Z</time>
      </trkpt>
      <trkpt lat="45.39334" lon="5.63929">
        <ele>640</ele>
        <time>2023-02-16T10:40:54Z</time>
      </trkpt>
      <trkpt lat="45.39336" lon="5.63926">
        <ele>641</ele>
        <time>2023-02-16T10:40:56Z</time>
      </trkpt>
      <trkpt lat="45.39337" lon="5.63922">
        <ele>641</ele>
        <time>2023-02-16T10:40:58Z</time>
      </trkpt>
      <trkpt lat="45.39338" lon="5.63919">
        <ele>641</ele>
        <time>2023-02-16T10:41:00Z</time>
      </trkpt>
      <trkpt lat="45.39339" lon="5.63916">
        <ele>643</ele>
        <time>2023-02-16T10:41:02Z</time>
      </trkpt>
      <trkpt lat="45.39341" lon="5.63912">
        <ele>644</ele>
        <time>2023-02-16T10:41:04Z</time>
      </trkpt>
      <trkpt lat="45.39343" lon="5.63909">
        <ele>644</ele>
        <time>2023-02-16T10:41:06Z</time>
      </trkpt>
      <trkpt lat="45.39345" lon="5.63906">
        <ele>645</ele>
        <time>2023-02-16T10:41:08Z</time>
      </trkpt>
      <trkpt lat="45.39346" lon="5.63904">
        <ele>645</ele>
        <time>2023-02-16T10:41:09Z</time>
      </trkpt>
      <trkpt lat="45.39347" lon="5.63902">
        <ele>645</ele>
        <time>2023-02-16T10:41:10Z</time>
      </trkpt>
      <trkpt lat="45.39349" lon="5.63899">
        <ele>645</ele>
        <time>2023-02-16T10:41:12Z</time>
      </trkpt>
      <trkpt lat="45.39351" lon="5.63896">
        <ele>647</ele>
        <time>2023-02-16T10:41:14Z</time>
      </trkpt>
      <trkpt lat="45.39353" lon="5.63893">
        <ele>647</ele>
        <time>2023-02-16T10:41:16Z</time>
      </trkpt>
      <trkpt lat="45.39355" lon="5.63892">
        <ele>648</ele>
        <time>2023-02-16T10:41:17Z</time>
      </trkpt>
      <trkpt lat="45.39357" lon="5.6389">
        <ele>648</ele>
        <time>2023-02-16T10:41:18Z</time>
      </trkpt>
      <trkpt lat="45.39359" lon="5.63889">
        <ele>648</ele>
        <time>2023-02-16T10:41:19Z</time>
      </trkpt>
      <trkpt lat="45.39361" lon="5.63889">
        <ele>648</ele>
        <time>2023-02-16T10:41:20Z</time>
      </trkpt>
      <trkpt lat="45.39363" lon="5.6389">
        <ele>648</ele>
        <time>2023-02-16T10:41:21Z</time>
      </trkpt>
      <trkpt lat="45.39366" lon="5.63891">
        <ele>647</ele>
        <time>2023-02-16T10:41:22Z</time>
      </trkpt>
      <trkpt lat="45.39369" lon="5.63892">
        <ele>647</ele>
        <time>2023-02-16T10:41:23Z</time>
      </trkpt>
      <trkpt lat="45.39372" lon="5.63893">
        <ele>647</ele>
        <time>2023-02-16T10:41:24Z</time>
      </trkpt>
      <trkpt lat="45.39375" lon="5.63895">
        <ele>647</ele>
        <time>2023-02-16T10:41:25Z</time>
      </trkpt>
      <trkpt lat="45.39378" lon="5.63897">
        <ele>648</ele>
        <time>2023-02-16T10:41:26Z</time>
      </trkpt>
      <trkpt lat="45.39381" lon="5.63899">
        <ele>648</ele>
        <time>2023-02-16T10:41:27Z</time>
      </trkpt>
      <trkpt lat="45.39384" lon="5.63901">
        <ele>648</ele>
        <time>2023-02-16T10:41:28Z</time>
      </trkpt>
      <trkpt lat="45.39387" lon="5.63903">
        <ele>648</ele>
        <time>2023-02-16T10:41:29Z</time>
      </trkpt>
      <trkpt lat="45.3939" lon="5.63906">
        <ele>648</ele>
        <time>2023-02-16T10:41:30Z</time>
      </trkpt>
      <trkpt lat="45.39394" lon="5.63908">
        <ele>648</ele>
        <time>2023-02-16T10:41:31Z</time>
      </trkpt>
      <trkpt lat="45.39397" lon="5.6391">
        <ele>648</ele>
        <time>2023-02-16T10:41:32Z</time>
      </trkpt>
      <trkpt lat="45.394" lon="5.63912">
        <ele>648</ele>
        <time>2023-02-16T10:41:33Z</time>
      </trkpt>
      <trkpt lat="45.39403" lon="5.63914">
        <ele>647</ele>
        <time>2023-02-16T10:41:34Z</time>
      </trkpt>
      <trkpt lat="45.39406" lon="5.63916">
        <ele>647</ele>
        <time>2023-02-16T10:41:35Z</time>
      </trkpt>
      <trkpt lat="45.39408" lon="5.63918">
        <ele>647</ele>
        <time>2023-02-16T10:41:36Z</time>
      </trkpt>
      <trkpt lat="45.3941" lon="5.63918">
        <ele>647</ele>
        <time>2023-02-16T10:41:37Z</time>
      </trkpt>
      <trkpt lat="45.39412" lon="5.63919">
        <ele>648</ele>
        <time>2023-02-16T10:41:38Z</time>
      </trkpt>
      <trkpt lat="45.39414" lon="5.63919">
        <ele>648</ele>
        <time>2023-02-16T10:41:39Z</time>
      </trkpt>
      <trkpt lat="45.39416" lon="5.6392">
        <ele>648</ele>
        <time>2023-02-16T10:41:40Z</time>
      </trkpt>
      <trkpt lat="45.39418" lon="5.63921">
        <ele>648</ele>
        <time>2023-02-16T10:41:41Z</time>
      </trkpt>
      <trkpt lat="45.3942" lon="5.63922">
        <ele>648</ele>
        <time>2023-02-16T10:41:42Z</time>
      </trkpt>
      <trkpt lat="45.39422" lon="5.63922">
        <ele>649</ele>
        <time>2023-02-16T10:41:43Z</time>
      </trkpt>
      <trkpt lat="45.39425" lon="5.63924">
        <ele>649</ele>
        <time>2023-02-16T10:41:45Z</time>
      </trkpt>
      <trkpt lat="45.39427" lon="5.63924">
        <ele>649</ele>
        <time>2023-02-16T10:41:46Z</time>
      </trkpt>
      <trkpt lat="45.39429" lon="5.63925">
        <ele>650</ele>
        <time>2023-02-16T10:41:47Z</time>
      </trkpt>
      <trkpt lat="45.39432" lon="5.63926">
        <ele>650</ele>
        <time>2023-02-16T10:41:49Z</time>
      </trkpt>
      <trkpt lat="45.39434" lon="5.63927">
        <ele>650</ele>
        <time>2023-02-16T10:41:50Z</time>
      </trkpt>
      <trkpt lat="45.39436" lon="5.63928">
        <ele>650</ele>
        <time>2023-02-16T10:41:51Z</time>
      </trkpt>
      <trkpt lat="45.39438" lon="5.63929">
        <ele>650</ele>
        <time>2023-02-16T10:41:52Z</time>
      </trkpt>
      <trkpt lat="45.3944" lon="5.6393">
        <ele>650</ele>
        <time>2023-02-16T10:41:53Z</time>
      </trkpt>
      <trkpt lat="45.39441" lon="5.63931">
        <ele>650</ele>
        <time>2023-02-16T10:41:54Z</time>
      </trkpt>
      <trkpt lat="45.39443" lon="5.63932">
        <ele>650</ele>
        <time>2023-02-16T10:41:55Z</time>
      </trkpt>
      <trkpt lat="45.39445" lon="5.63932">
        <ele>652</ele>
        <time>2023-02-16T10:41:56Z</time>
      </trkpt>
      <trkpt lat="45.39447" lon="5.63933">
        <ele>652</ele>
        <time>2023-02-16T10:41:57Z</time>
      </trkpt>
      <trkpt lat="45.39449" lon="5.63934">
        <ele>652</ele>
        <time>2023-02-16T10:41:58Z</time>
      </trkpt>
      <trkpt lat="45.3945" lon="5.63935">
        <ele>653</ele>
        <time>2023-02-16T10:41:59Z</time>
      </trkpt>
      <trkpt lat="45.39452" lon="5.63936">
        <ele>653</ele>
        <time>2023-02-16T10:42:00Z</time>
      </trkpt>
      <trkpt lat="45.39455" lon="5.63937">
        <ele>653</ele>
        <time>2023-02-16T10:42:02Z</time>
      </trkpt>
      <trkpt lat="45.39458" lon="5.63939">
        <ele>653</ele>
        <time>2023-02-16T10:42:04Z</time>
      </trkpt>
      <trkpt lat="45.3946" lon="5.63941">
        <ele>653</ele>
        <time>2023-02-16T10:42:06Z</time>
      </trkpt>
      <trkpt lat="45.39463" lon="5.63943">
        <ele>653</ele>
        <time>2023-02-16T10:42:08Z</time>
      </trkpt>
      <trkpt lat="45.39465" lon="5.63945">
        <ele>654</ele>
        <time>2023-02-16T10:42:10Z</time>
      </trkpt>
      <trkpt lat="45.39467" lon="5.63947">
        <ele>654</ele>
        <time>2023-02-16T10:42:12Z</time>
      </trkpt>
      <trkpt lat="45.39469" lon="5.63949">
        <ele>654</ele>
        <time>2023-02-16T10:42:14Z</time>
      </trkpt>
      <trkpt lat="45.39472" lon="5.63951">
        <ele>654</ele>
        <time>2023-02-16T10:42:16Z</time>
      </trkpt>
      <trkpt lat="45.39474" lon="5.63954">
        <ele>654</ele>
        <time>2023-02-16T10:42:18Z</time>
      </trkpt>
      <trkpt lat="45.39475" lon="5.63956">
        <ele>654</ele>
        <time>2023-02-16T10:42:21Z</time>
      </trkpt>
      <trkpt lat="45.39477" lon="5.63957">
        <ele>658</ele>
        <time>2023-02-16T10:42:23Z</time>
      </trkpt>
      <trkpt lat="45.39479" lon="5.6396">
        <ele>658</ele>
        <time>2023-02-16T10:42:26Z</time>
      </trkpt>
      <trkpt lat="45.39481" lon="5.63961">
        <ele>658</ele>
        <time>2023-02-16T10:42:28Z</time>
      </trkpt>
      <trkpt lat="45.39483" lon="5.63963">
        <ele>659</ele>
        <time>2023-02-16T10:42:30Z</time>
      </trkpt>
      <trkpt lat="45.39485" lon="5.63966">
        <ele>659</ele>
        <time>2023-02-16T10:42:33Z</time>
      </trkpt>
      <trkpt lat="45.39486" lon="5.63968">
        <ele>661</ele>
        <time>2023-02-16T10:42:35Z</time>
      </trkpt>
      <trkpt lat="45.39488" lon="5.63971">
        <ele>661</ele>
        <time>2023-02-16T10:42:37Z</time>
      </trkpt>
      <trkpt lat="45.3949" lon="5.63973">
        <ele>661</ele>
        <time>2023-02-16T10:42:39Z</time>
      </trkpt>
      <trkpt lat="45.39491" lon="5.63974">
        <ele>661</ele>
        <time>2023-02-16T10:42:42Z</time>
      </trkpt>
      <trkpt lat="45.39493" lon="5.63975">
        <ele>661</ele>
        <time>2023-02-16T10:42:45Z</time>
      </trkpt>
      <trkpt lat="45.39495" lon="5.63976">
        <ele>663</ele>
        <time>2023-02-16T10:42:48Z</time>
      </trkpt>
      <trkpt lat="45.39497" lon="5.63979">
        <ele>664</ele>
        <time>2023-02-16T10:42:51Z</time>
      </trkpt>
      <trkpt lat="45.39499" lon="5.6398">
        <ele>665</ele>
        <time>2023-02-16T10:42:53Z</time>
      </trkpt>
      <trkpt lat="45.39501" lon="5.63984">
        <ele>665</ele>
        <time>2023-02-16T10:42:56Z</time>
      </trkpt>
      <trkpt lat="45.39502" lon="5.63986">
        <ele>667</ele>
        <time>2023-02-16T10:42:59Z</time>
      </trkpt>
      <trkpt lat="45.39504" lon="5.63988">
        <ele>667</ele>
        <time>2023-02-16T10:43:02Z</time>
      </trkpt>
      <trkpt lat="45.39505" lon="5.6399">
        <ele>667</ele>
        <time>2023-02-16T10:43:05Z</time>
      </trkpt>
      <trkpt lat="45.39507" lon="5.63992">
        <ele>667</ele>
        <time>2023-02-16T10:43:08Z</time>
      </trkpt>
      <trkpt lat="45.39509" lon="5.63993">
        <ele>669</ele>
        <time>2023-02-16T10:43:11Z</time>
      </trkpt>
      <trkpt lat="45.39511" lon="5.63994">
        <ele>669</ele>
        <time>2023-02-16T10:43:14Z</time>
      </trkpt>
      <trkpt lat="45.39513" lon="5.63994">
        <ele>669</ele>
        <time>2023-02-16T10:43:17Z</time>
      </trkpt>
      <trkpt lat="45.39516" lon="5.63997">
        <ele>670</ele>
        <time>2023-02-16T10:43:21Z</time>
      </trkpt>
      <trkpt lat="45.39519" lon="5.63997">
        <ele>671</ele>
        <time>2023-02-16T10:43:24Z</time>
      </trkpt>
      <trkpt lat="45.39521" lon="5.63999">
        <ele>671</ele>
        <time>2023-02-16T10:43:27Z</time>
      </trkpt>
      <trkpt lat="45.39522" lon="5.64">
        <ele>671</ele>
        <time>2023-02-16T10:43:30Z</time>
      </trkpt>
      <trkpt lat="45.39525" lon="5.64">
        <ele>673</ele>
        <time>2023-02-16T10:43:32Z</time>
      </trkpt>
      <trkpt lat="45.39527" lon="5.64001">
        <ele>674</ele>
        <time>2023-02-16T10:43:35Z</time>
      </trkpt>
      <trkpt lat="45.39529" lon="5.64002">
        <ele>674</ele>
        <time>2023-02-16T10:43:38Z</time>
      </trkpt>
      <trkpt lat="45.39532" lon="5.64002">
        <ele>675</ele>
        <time>2023-02-16T10:43:41Z</time>
      </trkpt>
      <trkpt lat="45.39534" lon="5.64002">
        <ele>675</ele>
        <time>2023-02-16T10:43:44Z</time>
      </trkpt>
      <trkpt lat="45.39537" lon="5.64002">
        <ele>675</ele>
        <time>2023-02-16T10:43:48Z</time>
      </trkpt>
      <trkpt lat="45.39539" lon="5.64003">
        <ele>676</ele>
        <time>2023-02-16T10:43:54Z</time>
      </trkpt>
      <trkpt lat="45.39539" lon="5.64003">
        <ele>676</ele>
        <time>2023-02-16T10:43:56Z</time>
      </trkpt>
      <trkpt lat="45.39542" lon="5.64004">
        <ele>677</ele>
        <time>2023-02-16T10:44:02Z</time>
      </trkpt>
      <trkpt lat="45.39543" lon="5.64005">
        <ele>677</ele>
        <time>2023-02-16T10:44:04Z</time>
      </trkpt>
      <trkpt lat="45.39545" lon="5.64006">
        <ele>677</ele>
        <time>2023-02-16T10:44:06Z</time>
      </trkpt>
      <trkpt lat="45.39547" lon="5.64006">
        <ele>679</ele>
        <time>2023-02-16T10:44:09Z</time>
      </trkpt>
      <trkpt lat="45.39549" lon="5.64007">
        <ele>680</ele>
        <time>2023-02-16T10:44:12Z</time>
      </trkpt>
      <trkpt lat="45.39552" lon="5.64007">
        <ele>681</ele>
        <time>2023-02-16T10:44:17Z</time>
      </trkpt>
      <trkpt lat="45.39556" lon="5.64005">
        <ele>681</ele>
        <time>2023-02-16T10:44:19Z</time>
      </trkpt>
      <trkpt lat="45.39558" lon="5.64004">
        <ele>681</ele>
        <time>2023-02-16T10:44:21Z</time>
      </trkpt>
      <trkpt lat="45.3956" lon="5.64004">
        <ele>682</ele>
        <time>2023-02-16T10:44:23Z</time>
      </trkpt>
      <trkpt lat="45.39567" lon="5.64003">
        <ele>684</ele>
        <time>2023-02-16T10:44:28Z</time>
      </trkpt>
      <trkpt lat="45.3957" lon="5.64003">
        <ele>684</ele>
        <time>2023-02-16T10:44:30Z</time>
      </trkpt>
      <trkpt lat="45.39572" lon="5.64004">
        <ele>684</ele>
        <time>2023-02-16T10:44:33Z</time>
      </trkpt>
      <trkpt lat="45.39574" lon="5.64004">
        <ele>684</ele>
        <time>2023-02-16T10:44:35Z</time>
      </trkpt>
      <trkpt lat="45.39576" lon="5.64005">
        <ele>684</ele>
        <time>2023-02-16T10:44:37Z</time>
      </trkpt>
      <trkpt lat="45.39578" lon="5.64005">
        <ele>684</ele>
        <time>2023-02-16T10:44:40Z</time>
      </trkpt>
      <trkpt lat="45.3958" lon="5.64003">
        <ele>686</ele>
        <time>2023-02-16T10:44:44Z</time>
      </trkpt>
      <trkpt lat="45.39578" lon="5.64">
        <ele>687</ele>
        <time>2023-02-16T10:44:47Z</time>
      </trkpt>
      <trkpt lat="45.39575" lon="5.63999">
        <ele>688</ele>
        <time>2023-02-16T10:44:50Z</time>
      </trkpt>
      <trkpt lat="45.39573" lon="5.63998">
        <ele>688</ele>
        <time>2023-02-16T10:44:53Z</time>
      </trkpt>
      <trkpt lat="45.39571" lon="5.63996">
        <ele>689</ele>
        <time>2023-02-16T10:44:57Z</time>
      </trkpt>
      <trkpt lat="45.39569" lon="5.63995">
        <ele>689</ele>
        <time>2023-02-16T10:45:00Z</time>
      </trkpt>
      <trkpt lat="45.39567" lon="5.63994">
        <ele>690</ele>
        <time>2023-02-16T10:45:03Z</time>
      </trkpt>
      <trkpt lat="45.39565" lon="5.63993">
        <ele>690</ele>
        <time>2023-02-16T10:45:06Z</time>
      </trkpt>
      <trkpt lat="45.39565" lon="5.63993">
        <ele>691</ele>
        <time>2023-02-16T10:45:12Z</time>
      </trkpt>
      <trkpt lat="45.39561" lon="5.63992">
        <ele>692</ele>
        <time>2023-02-16T10:45:36Z</time>
      </trkpt>
      <trkpt lat="45.39559" lon="5.6399">
        <ele>692</ele>
        <time>2023-02-16T10:45:38Z</time>
      </trkpt>
      <trkpt lat="45.39557" lon="5.63987">
        <ele>692</ele>
        <time>2023-02-16T10:45:41Z</time>
      </trkpt>
      <trkpt lat="45.39556" lon="5.63985">
        <ele>693</ele>
        <time>2023-02-16T10:45:43Z</time>
      </trkpt>
      <trkpt lat="45.39554" lon="5.63983">
        <ele>693</ele>
        <time>2023-02-16T10:45:46Z</time>
      </trkpt>
      <trkpt lat="45.39553" lon="5.63981">
        <ele>693</ele>
        <time>2023-02-16T10:45:48Z</time>
      </trkpt>
      <trkpt lat="45.39551" lon="5.63978">
        <ele>694</ele>
        <time>2023-02-16T10:45:51Z</time>
      </trkpt>
      <trkpt lat="45.39549" lon="5.63976">
        <ele>696</ele>
        <time>2023-02-16T10:45:54Z</time>
      </trkpt>
      <trkpt lat="45.39548" lon="5.63973">
        <ele>696</ele>
        <time>2023-02-16T10:45:56Z</time>
      </trkpt>
      <trkpt lat="45.39548" lon="5.63971">
        <ele>698</ele>
        <time>2023-02-16T10:46:04Z</time>
      </trkpt>
      <trkpt lat="45.39546" lon="5.63965">
        <ele>698</ele>
        <time>2023-02-16T10:46:18Z</time>
      </trkpt>
      <trkpt lat="45.39546" lon="5.63964">
        <ele>699</ele>
        <time>2023-02-16T10:46:19Z</time>
      </trkpt>
      <trkpt lat="45.39545" lon="5.63961">
        <ele>699</ele>
        <time>2023-02-16T10:46:21Z</time>
      </trkpt>
      <trkpt lat="45.39543" lon="5.63959">
        <ele>699</ele>
        <time>2023-02-16T10:46:23Z</time>
      </trkpt>
      <trkpt lat="45.39542" lon="5.63957">
        <ele>699</ele>
        <time>2023-02-16T10:46:25Z</time>
      </trkpt>
      <trkpt lat="45.39541" lon="5.63955">
        <ele>700</ele>
        <time>2023-02-16T10:46:27Z</time>
      </trkpt>
      <trkpt lat="45.3954" lon="5.63952">
        <ele>701</ele>
        <time>2023-02-16T10:46:30Z</time>
      </trkpt>
      <trkpt lat="45.39539" lon="5.63949">
        <ele>701</ele>
        <time>2023-02-16T10:46:33Z</time>
      </trkpt>
      <trkpt lat="45.39538" lon="5.63946">
        <ele>702</ele>
        <time>2023-02-16T10:46:36Z</time>
      </trkpt>
      <trkpt lat="45.39537" lon="5.63942">
        <ele>702</ele>
        <time>2023-02-16T10:46:39Z</time>
      </trkpt>
      <trkpt lat="45.39537" lon="5.6394">
        <ele>704</ele>
        <time>2023-02-16T10:46:41Z</time>
      </trkpt>
      <trkpt lat="45.39536" lon="5.63937">
        <ele>704</ele>
        <time>2023-02-16T10:46:44Z</time>
      </trkpt>
      <trkpt lat="45.39535" lon="5.63934">
        <ele>704</ele>
        <time>2023-02-16T10:46:47Z</time>
      </trkpt>
      <trkpt lat="45.39535" lon="5.6393">
        <ele>705</ele>
        <time>2023-02-16T10:46:51Z</time>
      </trkpt>
      <trkpt lat="45.39534" lon="5.63927">
        <ele>705</ele>
        <time>2023-02-16T10:46:53Z</time>
      </trkpt>
      <trkpt lat="45.39534" lon="5.63925">
        <ele>706</ele>
        <time>2023-02-16T10:46:55Z</time>
      </trkpt>
      <trkpt lat="45.39534" lon="5.63921">
        <ele>707</ele>
        <time>2023-02-16T10:46:57Z</time>
      </trkpt>
      <trkpt lat="45.39534" lon="5.63917">
        <ele>707</ele>
        <time>2023-02-16T10:46:59Z</time>
      </trkpt>
      <trkpt lat="45.39534" lon="5.63914">
        <ele>707</ele>
        <time>2023-02-16T10:47:01Z</time>
      </trkpt>
      <trkpt lat="45.39533" lon="5.63911">
        <ele>707</ele>
        <time>2023-02-16T10:47:03Z</time>
      </trkpt>
      <trkpt lat="45.39533" lon="5.63908">
        <ele>707</ele>
        <time>2023-02-16T10:47:05Z</time>
      </trkpt>
      <trkpt lat="45.39533" lon="5.63904">
        <ele>708</ele>
        <time>2023-02-16T10:47:07Z</time>
      </trkpt>
      <trkpt lat="45.39532" lon="5.639">
        <ele>708</ele>
        <time>2023-02-16T10:47:09Z</time>
      </trkpt>
      <trkpt lat="45.39532" lon="5.63898">
        <ele>708</ele>
        <time>2023-02-16T10:47:11Z</time>
      </trkpt>
      <trkpt lat="45.39532" lon="5.63895">
        <ele>708</ele>
        <time>2023-02-16T10:47:13Z</time>
      </trkpt>
      <trkpt lat="45.39532" lon="5.63892">
        <ele>708</ele>
        <time>2023-02-16T10:47:16Z</time>
      </trkpt>
      <trkpt lat="45.39533" lon="5.6389">
        <ele>708</ele>
        <time>2023-02-16T10:47:22Z</time>
      </trkpt>
      <trkpt lat="45.39529" lon="5.63883">
        <ele>709</ele>
        <time>2023-02-16T10:47:33Z</time>
      </trkpt>
      <trkpt lat="45.39527" lon="5.6388">
        <ele>709</ele>
        <time>2023-02-16T10:47:34Z</time>
      </trkpt>
      <trkpt lat="45.39526" lon="5.63876">
        <ele>709</ele>
        <time>2023-02-16T10:47:36Z</time>
      </trkpt>
      <trkpt lat="45.39524" lon="5.63872">
        <ele>711</ele>
        <time>2023-02-16T10:47:38Z</time>
      </trkpt>
      <trkpt lat="45.39524" lon="5.6387">
        <ele>711</ele>
        <time>2023-02-16T10:47:39Z</time>
      </trkpt>
      <trkpt lat="45.39523" lon="5.63865">
        <ele>711</ele>
        <time>2023-02-16T10:47:41Z</time>
      </trkpt>
      <trkpt lat="45.39523" lon="5.63861">
        <ele>711</ele>
        <time>2023-02-16T10:47:43Z</time>
      </trkpt>
      <trkpt lat="45.39522" lon="5.63857">
        <ele>711</ele>
        <time>2023-02-16T10:47:45Z</time>
      </trkpt>
      <trkpt lat="45.39522" lon="5.63854">
        <ele>712</ele>
        <time>2023-02-16T10:47:46Z</time>
      </trkpt>
      <trkpt lat="45.39521" lon="5.63852">
        <ele>712</ele>
        <time>2023-02-16T10:47:47Z</time>
      </trkpt>
      <trkpt lat="45.39521" lon="5.63847">
        <ele>712</ele>
        <time>2023-02-16T10:47:49Z</time>
      </trkpt>
      <trkpt lat="45.39519" lon="5.63844">
        <ele>712</ele>
        <time>2023-02-16T10:47:51Z</time>
      </trkpt>
      <trkpt lat="45.39518" lon="5.63841">
        <ele>714</ele>
        <time>2023-02-16T10:47:53Z</time>
      </trkpt>
      <trkpt lat="45.39514" lon="5.63826">
        <ele>715</ele>
        <time>2023-02-16T10:47:58Z</time>
      </trkpt>
      <trkpt lat="45.3951" lon="5.63813">
        <ele>715</ele>
        <time>2023-02-16T10:48:03Z</time>
      </trkpt>
      <trkpt lat="45.39508" lon="5.6381">
        <ele>715</ele>
        <time>2023-02-16T10:48:05Z</time>
      </trkpt>
      <trkpt lat="45.39505" lon="5.63807">
        <ele>716</ele>
        <time>2023-02-16T10:48:07Z</time>
      </trkpt>
      <trkpt lat="45.39504" lon="5.63805">
        <ele>716</ele>
        <time>2023-02-16T10:48:08Z</time>
      </trkpt>
      <trkpt lat="45.39502" lon="5.63801">
        <ele>716</ele>
        <time>2023-02-16T10:48:10Z</time>
      </trkpt>
      <trkpt lat="45.395" lon="5.63798">
        <ele>716</ele>
        <time>2023-02-16T10:48:12Z</time>
      </trkpt>
      <trkpt lat="45.39498" lon="5.63796">
        <ele>716</ele>
        <time>2023-02-16T10:48:14Z</time>
      </trkpt>
      <trkpt lat="45.39496" lon="5.63794">
        <ele>716</ele>
        <time>2023-02-16T10:48:16Z</time>
      </trkpt>
      <trkpt lat="45.39494" lon="5.63792">
        <ele>716</ele>
        <time>2023-02-16T10:48:18Z</time>
      </trkpt>
      <trkpt lat="45.39491" lon="5.63791">
        <ele>717</ele>
        <time>2023-02-16T10:48:20Z</time>
      </trkpt>
      <trkpt lat="45.39488" lon="5.63791">
        <ele>718</ele>
        <time>2023-02-16T10:48:22Z</time>
      </trkpt>
      <trkpt lat="45.39486" lon="5.63788">
        <ele>718</ele>
        <time>2023-02-16T10:48:24Z</time>
      </trkpt>
      <trkpt lat="45.39484" lon="5.63785">
        <ele>719</ele>
        <time>2023-02-16T10:48:26Z</time>
      </trkpt>
      <trkpt lat="45.39483" lon="5.63783">
        <ele>719</ele>
        <time>2023-02-16T10:48:27Z</time>
      </trkpt>
      <trkpt lat="45.39479" lon="5.63776">
        <ele>719</ele>
        <time>2023-02-16T10:48:30Z</time>
      </trkpt>
      <trkpt lat="45.39476" lon="5.63766">
        <ele>719</ele>
        <time>2023-02-16T10:48:33Z</time>
      </trkpt>
      <trkpt lat="45.39475" lon="5.63763">
        <ele>719</ele>
        <time>2023-02-16T10:48:34Z</time>
      </trkpt>
      <trkpt lat="45.39474" lon="5.6376">
        <ele>720</ele>
        <time>2023-02-16T10:48:35Z</time>
      </trkpt>
      <trkpt lat="45.39472" lon="5.63755">
        <ele>720</ele>
        <time>2023-02-16T10:48:37Z</time>
      </trkpt>
      <trkpt lat="45.39472" lon="5.63752">
        <ele>720</ele>
        <time>2023-02-16T10:48:38Z</time>
      </trkpt>
      <trkpt lat="45.39471" lon="5.63749">
        <ele>720</ele>
        <time>2023-02-16T10:48:39Z</time>
      </trkpt>
      <trkpt lat="45.39468" lon="5.63741">
        <ele>720</ele>
        <time>2023-02-16T10:48:42Z</time>
      </trkpt>
      <trkpt lat="45.39465" lon="5.63727">
        <ele>721</ele>
        <time>2023-02-16T10:48:47Z</time>
      </trkpt>
      <trkpt lat="45.39462" lon="5.6372">
        <ele>722</ele>
        <time>2023-02-16T10:48:50Z</time>
      </trkpt>
      <trkpt lat="45.3946" lon="5.63717">
        <ele>722</ele>
        <time>2023-02-16T10:48:52Z</time>
      </trkpt>
      <trkpt lat="45.39458" lon="5.63713">
        <ele>722</ele>
        <time>2023-02-16T10:48:54Z</time>
      </trkpt>
      <trkpt lat="45.39457" lon="5.6371">
        <ele>724</ele>
        <time>2023-02-16T10:48:56Z</time>
      </trkpt>
      <trkpt lat="45.39453" lon="5.63705">
        <ele>724</ele>
        <time>2023-02-16T10:48:59Z</time>
      </trkpt>
      <trkpt lat="45.39451" lon="5.63703">
        <ele>724</ele>
        <time>2023-02-16T10:49:00Z</time>
      </trkpt>
      <trkpt lat="45.39449" lon="5.63702">
        <ele>723</ele>
        <time>2023-02-16T10:49:01Z</time>
      </trkpt>
      <trkpt lat="45.39448" lon="5.63699">
        <ele>723</ele>
        <time>2023-02-16T10:49:02Z</time>
      </trkpt>
      <trkpt lat="45.39447" lon="5.63698">
        <ele>723</ele>
        <time>2023-02-16T10:49:03Z</time>
      </trkpt>
      <trkpt lat="45.39445" lon="5.63696">
        <ele>724</ele>
        <time>2023-02-16T10:49:04Z</time>
      </trkpt>
      <trkpt lat="45.39443" lon="5.63692">
        <ele>724</ele>
        <time>2023-02-16T10:49:06Z</time>
      </trkpt>
      <trkpt lat="45.39441" lon="5.63691">
        <ele>725</ele>
        <time>2023-02-16T10:49:07Z</time>
      </trkpt>
      <trkpt lat="45.3944" lon="5.63689">
        <ele>725</ele>
        <time>2023-02-16T10:49:08Z</time>
      </trkpt>
      <trkpt lat="45.39437" lon="5.63686">
        <ele>726</ele>
        <time>2023-02-16T10:49:10Z</time>
      </trkpt>
      <trkpt lat="45.39435" lon="5.63683">
        <ele>726</ele>
        <time>2023-02-16T10:49:12Z</time>
      </trkpt>
      <trkpt lat="45.39433" lon="5.6368">
        <ele>727</ele>
        <time>2023-02-16T10:49:14Z</time>
      </trkpt>
      <trkpt lat="45.39431" lon="5.63677">
        <ele>727</ele>
        <time>2023-02-16T10:49:16Z</time>
      </trkpt>
      <trkpt lat="45.3943" lon="5.63673">
        <ele>727</ele>
        <time>2023-02-16T10:49:18Z</time>
      </trkpt>
      <trkpt lat="45.39429" lon="5.63668">
        <ele>728</ele>
        <time>2023-02-16T10:49:20Z</time>
      </trkpt>
      <trkpt lat="45.39428" lon="5.63664">
        <ele>728</ele>
        <time>2023-02-16T10:49:22Z</time>
      </trkpt>
      <trkpt lat="45.39426" lon="5.6366">
        <ele>728</ele>
        <time>2023-02-16T10:49:24Z</time>
      </trkpt>
      <trkpt lat="45.39425" lon="5.63656">
        <ele>729</ele>
        <time>2023-02-16T10:49:26Z</time>
      </trkpt>
      <trkpt lat="45.39424" lon="5.63653">
        <ele>730</ele>
        <time>2023-02-16T10:49:28Z</time>
      </trkpt>
      <trkpt lat="45.39422" lon="5.63651">
        <ele>730</ele>
        <time>2023-02-16T10:49:30Z</time>
      </trkpt>
      <trkpt lat="45.3942" lon="5.63649">
        <ele>731</ele>
        <time>2023-02-16T10:49:32Z</time>
      </trkpt>
      <trkpt lat="45.39418" lon="5.63647">
        <ele>731</ele>
        <time>2023-02-16T10:49:34Z</time>
      </trkpt>
      <trkpt lat="45.39416" lon="5.63646">
        <ele>731</ele>
        <time>2023-02-16T10:49:36Z</time>
      </trkpt>
      <trkpt lat="45.39414" lon="5.63644">
        <ele>731</ele>
        <time>2023-02-16T10:49:38Z</time>
      </trkpt>
      <trkpt lat="45.39412" lon="5.63641">
        <ele>732</ele>
        <time>2023-02-16T10:49:40Z</time>
      </trkpt>
      <trkpt lat="45.39411" lon="5.63638">
        <ele>732</ele>
        <time>2023-02-16T10:49:42Z</time>
      </trkpt>
      <trkpt lat="45.39409" lon="5.63635">
        <ele>733</ele>
        <time>2023-02-16T10:49:44Z</time>
      </trkpt>
      <trkpt lat="45.39409" lon="5.63631">
        <ele>733</ele>
        <time>2023-02-16T10:49:46Z</time>
      </trkpt>
      <trkpt lat="45.39407" lon="5.63628">
        <ele>733</ele>
        <time>2023-02-16T10:49:48Z</time>
      </trkpt>
      <trkpt lat="45.39406" lon="5.63624">
        <ele>733</ele>
        <time>2023-02-16T10:49:50Z</time>
      </trkpt>
      <trkpt lat="45.39405" lon="5.6362">
        <ele>733</ele>
        <time>2023-02-16T10:49:52Z</time>
      </trkpt>
      <trkpt lat="45.39404" lon="5.63616">
        <ele>733</ele>
        <time>2023-02-16T10:49:54Z</time>
      </trkpt>
      <trkpt lat="45.39403" lon="5.63613">
        <ele>734</ele>
        <time>2023-02-16T10:49:56Z</time>
      </trkpt>
      <trkpt lat="45.39402" lon="5.6361">
        <ele>734</ele>
        <time>2023-02-16T10:49:58Z</time>
      </trkpt>
      <trkpt lat="45.39401" lon="5.63607">
        <ele>734</ele>
        <time>2023-02-16T10:50:00Z</time>
      </trkpt>
      <trkpt lat="45.394" lon="5.63604">
        <ele>734</ele>
        <time>2023-02-16T10:50:02Z</time>
      </trkpt>
      <trkpt lat="45.39399" lon="5.636">
        <ele>736</ele>
        <time>2023-02-16T10:50:04Z</time>
      </trkpt>
      <trkpt lat="45.39397" lon="5.63598">
        <ele>736</ele>
        <time>2023-02-16T10:50:06Z</time>
      </trkpt>
      <trkpt lat="45.39396" lon="5.63595">
        <ele>736</ele>
        <time>2023-02-16T10:50:08Z</time>
      </trkpt>
      <trkpt lat="45.39394" lon="5.63591">
        <ele>737</ele>
        <time>2023-02-16T10:50:10Z</time>
      </trkpt>
      <trkpt lat="45.39393" lon="5.63588">
        <ele>737</ele>
        <time>2023-02-16T10:50:12Z</time>
      </trkpt>
      <trkpt lat="45.39391" lon="5.63584">
        <ele>737</ele>
        <time>2023-02-16T10:50:14Z</time>
      </trkpt>
      <trkpt lat="45.3939" lon="5.6358">
        <ele>738</ele>
        <time>2023-02-16T10:50:16Z</time>
      </trkpt>
      <trkpt lat="45.39388" lon="5.63577">
        <ele>738</ele>
        <time>2023-02-16T10:50:18Z</time>
      </trkpt>
      <trkpt lat="45.39386" lon="5.63574">
        <ele>738</ele>
        <time>2023-02-16T10:50:20Z</time>
      </trkpt>
      <trkpt lat="45.39385" lon="5.6357">
        <ele>738</ele>
        <time>2023-02-16T10:50:22Z</time>
      </trkpt>
      <trkpt lat="45.39383" lon="5.63567">
        <ele>739</ele>
        <time>2023-02-16T10:50:24Z</time>
      </trkpt>
      <trkpt lat="45.39382" lon="5.63563">
        <ele>739</ele>
        <time>2023-02-16T10:50:26Z</time>
      </trkpt>
      <trkpt lat="45.39381" lon="5.63559">
        <ele>740</ele>
        <time>2023-02-16T10:50:28Z</time>
      </trkpt>
      <trkpt lat="45.3938" lon="5.63556">
        <ele>740</ele>
        <time>2023-02-16T10:50:30Z</time>
      </trkpt>
      <trkpt lat="45.39378" lon="5.63552">
        <ele>740</ele>
        <time>2023-02-16T10:50:32Z</time>
      </trkpt>
      <trkpt lat="45.39377" lon="5.63549">
        <ele>741</ele>
        <time>2023-02-16T10:50:34Z</time>
      </trkpt>
      <trkpt lat="45.39376" lon="5.63546">
        <ele>741</ele>
        <time>2023-02-16T10:50:36Z</time>
      </trkpt>
      <trkpt lat="45.39374" lon="5.63543">
        <ele>741</ele>
        <time>2023-02-16T10:50:38Z</time>
      </trkpt>
      <trkpt lat="45.39371" lon="5.63542">
        <ele>742</ele>
        <time>2023-02-16T10:50:40Z</time>
      </trkpt>
      <trkpt lat="45.39369" lon="5.63539">
        <ele>742</ele>
        <time>2023-02-16T10:50:42Z</time>
      </trkpt>
      <trkpt lat="45.39367" lon="5.63537">
        <ele>742</ele>
        <time>2023-02-16T10:50:44Z</time>
      </trkpt>
      <trkpt lat="45.39365" lon="5.63534">
        <ele>742</ele>
        <time>2023-02-16T10:50:46Z</time>
      </trkpt>
      <trkpt lat="45.39363" lon="5.63531">
        <ele>742</ele>
        <time>2023-02-16T10:50:48Z</time>
      </trkpt>
      <trkpt lat="45.39362" lon="5.63528">
        <ele>742</ele>
        <time>2023-02-16T10:50:50Z</time>
      </trkpt>
      <trkpt lat="45.39361" lon="5.63525">
        <ele>743</ele>
        <time>2023-02-16T10:50:52Z</time>
      </trkpt>
      <trkpt lat="45.39359" lon="5.63521">
        <ele>744</ele>
        <time>2023-02-16T10:50:54Z</time>
      </trkpt>
      <trkpt lat="45.39358" lon="5.63518">
        <ele>744</ele>
        <time>2023-02-16T10:50:56Z</time>
      </trkpt>
      <trkpt lat="45.39357" lon="5.63514">
        <ele>745</ele>
        <time>2023-02-16T10:50:58Z</time>
      </trkpt>
      <trkpt lat="45.39356" lon="5.63512">
        <ele>745</ele>
        <time>2023-02-16T10:51:00Z</time>
      </trkpt>
      <trkpt lat="45.39354" lon="5.6351">
        <ele>746</ele>
        <time>2023-02-16T10:51:02Z</time>
      </trkpt>
      <trkpt lat="45.39353" lon="5.63507">
        <ele>746</ele>
        <time>2023-02-16T10:51:04Z</time>
      </trkpt>
      <trkpt lat="45.39351" lon="5.63505">
        <ele>745</ele>
        <time>2023-02-16T10:51:06Z</time>
      </trkpt>
      <trkpt lat="45.39349" lon="5.63501">
        <ele>745</ele>
        <time>2023-02-16T10:51:08Z</time>
      </trkpt>
      <trkpt lat="45.39347" lon="5.63498">
        <ele>747</ele>
        <time>2023-02-16T10:51:10Z</time>
      </trkpt>
      <trkpt lat="45.39345" lon="5.63495">
        <ele>747</ele>
        <time>2023-02-16T10:51:12Z</time>
      </trkpt>
      <trkpt lat="45.39343" lon="5.63492">
        <ele>747</ele>
        <time>2023-02-16T10:51:14Z</time>
      </trkpt>
      <trkpt lat="45.39342" lon="5.6349">
        <ele>748</ele>
        <time>2023-02-16T10:51:16Z</time>
      </trkpt>
      <trkpt lat="45.3934" lon="5.63488">
        <ele>749</ele>
        <time>2023-02-16T10:51:18Z</time>
      </trkpt>
      <trkpt lat="45.39338" lon="5.63485">
        <ele>749</ele>
        <time>2023-02-16T10:51:20Z</time>
      </trkpt>
      <trkpt lat="45.39336" lon="5.63482">
        <ele>749</ele>
        <time>2023-02-16T10:51:22Z</time>
      </trkpt>
      <trkpt lat="45.39334" lon="5.6348">
        <ele>750</ele>
        <time>2023-02-16T10:51:24Z</time>
      </trkpt>
      <trkpt lat="45.39333" lon="5.63476">
        <ele>750</ele>
        <time>2023-02-16T10:51:26Z</time>
      </trkpt>
      <trkpt lat="45.39331" lon="5.63473">
        <ele>750</ele>
        <time>2023-02-16T10:51:28Z</time>
      </trkpt>
      <trkpt lat="45.3933" lon="5.6347">
        <ele>750</ele>
        <time>2023-02-16T10:51:30Z</time>
      </trkpt>
      <trkpt lat="45.39328" lon="5.63466">
        <ele>751</ele>
        <time>2023-02-16T10:51:32Z</time>
      </trkpt>
      <trkpt lat="45.39327" lon="5.63463">
        <ele>751</ele>
        <time>2023-02-16T10:51:34Z</time>
      </trkpt>
      <trkpt lat="45.39326" lon="5.63459">
        <ele>751</ele>
        <time>2023-02-16T10:51:36Z</time>
      </trkpt>
      <trkpt lat="45.39325" lon="5.63455">
        <ele>751</ele>
        <time>2023-02-16T10:51:38Z</time>
      </trkpt>
      <trkpt lat="45.39323" lon="5.63451">
        <ele>751</ele>
        <time>2023-02-16T10:51:40Z</time>
      </trkpt>
      <trkpt lat="45.39322" lon="5.63448">
        <ele>752</ele>
        <time>2023-02-16T10:51:42Z</time>
      </trkpt>
      <trkpt lat="45.39321" lon="5.63444">
        <ele>753</ele>
        <time>2023-02-16T10:51:44Z</time>
      </trkpt>
      <trkpt lat="45.39321" lon="5.63442">
        <ele>753</ele>
        <time>2023-02-16T10:51:45Z</time>
      </trkpt>
      <trkpt lat="45.3932" lon="5.63438">
        <ele>754</ele>
        <time>2023-02-16T10:51:47Z</time>
      </trkpt>
      <trkpt lat="45.39319" lon="5.63434">
        <ele>754</ele>
        <time>2023-02-16T10:51:49Z</time>
      </trkpt>
      <trkpt lat="45.39319" lon="5.6343">
        <ele>754</ele>
        <time>2023-02-16T10:51:51Z</time>
      </trkpt>
      <trkpt lat="45.39318" lon="5.63426">
        <ele>755</ele>
        <time>2023-02-16T10:51:53Z</time>
      </trkpt>
      <trkpt lat="45.39318" lon="5.63422">
        <ele>756</ele>
        <time>2023-02-16T10:51:55Z</time>
      </trkpt>
      <trkpt lat="45.39318" lon="5.63418">
        <ele>756</ele>
        <time>2023-02-16T10:51:57Z</time>
      </trkpt>
      <trkpt lat="45.39318" lon="5.63414">
        <ele>756</ele>
        <time>2023-02-16T10:51:59Z</time>
      </trkpt>
      <trkpt lat="45.39317" lon="5.6341">
        <ele>756</ele>
        <time>2023-02-16T10:52:01Z</time>
      </trkpt>
      <trkpt lat="45.39317" lon="5.63406">
        <ele>756</ele>
        <time>2023-02-16T10:52:03Z</time>
      </trkpt>
      <trkpt lat="45.39316" lon="5.63402">
        <ele>756</ele>
        <time>2023-02-16T10:52:05Z</time>
      </trkpt>
      <trkpt lat="45.39315" lon="5.63398">
        <ele>757</ele>
        <time>2023-02-16T10:52:07Z</time>
      </trkpt>
      <trkpt lat="45.39314" lon="5.63394">
        <ele>757</ele>
        <time>2023-02-16T10:52:09Z</time>
      </trkpt>
      <trkpt lat="45.39314" lon="5.6339">
        <ele>757</ele>
        <time>2023-02-16T10:52:11Z</time>
      </trkpt>
      <trkpt lat="45.39314" lon="5.63386">
        <ele>758</ele>
        <time>2023-02-16T10:52:13Z</time>
      </trkpt>
      <trkpt lat="45.39314" lon="5.63382">
        <ele>758</ele>
        <time>2023-02-16T10:52:15Z</time>
      </trkpt>
      <trkpt lat="45.39314" lon="5.63378">
        <ele>758</ele>
        <time>2023-02-16T10:52:17Z</time>
      </trkpt>
      <trkpt lat="45.39315" lon="5.63374">
        <ele>759</ele>
        <time>2023-02-16T10:52:19Z</time>
      </trkpt>
      <trkpt lat="45.39315" lon="5.6337">
        <ele>759</ele>
        <time>2023-02-16T10:52:21Z</time>
      </trkpt>
      <trkpt lat="45.39315" lon="5.63367">
        <ele>759</ele>
        <time>2023-02-16T10:52:23Z</time>
      </trkpt>
      <trkpt lat="45.39316" lon="5.63363">
        <ele>759</ele>
        <time>2023-02-16T10:52:25Z</time>
      </trkpt>
      <trkpt lat="45.39317" lon="5.6336">
        <ele>761</ele>
        <time>2023-02-16T10:52:27Z</time>
      </trkpt>
      <trkpt lat="45.39318" lon="5.63357">
        <ele>761</ele>
        <time>2023-02-16T10:52:29Z</time>
      </trkpt>
      <trkpt lat="45.39319" lon="5.63354">
        <ele>761</ele>
        <time>2023-02-16T10:52:31Z</time>
      </trkpt>
      <trkpt lat="45.39321" lon="5.63351">
        <ele>762</ele>
        <time>2023-02-16T10:52:33Z</time>
      </trkpt>
      <trkpt lat="45.39322" lon="5.63348">
        <ele>762</ele>
        <time>2023-02-16T10:52:35Z</time>
      </trkpt>
      <trkpt lat="45.39324" lon="5.63345">
        <ele>763</ele>
        <time>2023-02-16T10:52:37Z</time>
      </trkpt>
      <trkpt lat="45.39325" lon="5.63343">
        <ele>763</ele>
        <time>2023-02-16T10:52:39Z</time>
      </trkpt>
      <trkpt lat="45.39327" lon="5.6334">
        <ele>764</ele>
        <time>2023-02-16T10:52:41Z</time>
      </trkpt>
      <trkpt lat="45.39329" lon="5.63338">
        <ele>764</ele>
        <time>2023-02-16T10:52:43Z</time>
      </trkpt>
      <trkpt lat="45.39331" lon="5.63336">
        <ele>764</ele>
        <time>2023-02-16T10:52:45Z</time>
      </trkpt>
      <trkpt lat="45.39333" lon="5.63334">
        <ele>765</ele>
        <time>2023-02-16T10:52:47Z</time>
      </trkpt>
      <trkpt lat="45.39334" lon="5.63332">
        <ele>765</ele>
        <time>2023-02-16T10:52:49Z</time>
      </trkpt>
      <trkpt lat="45.39336" lon="5.63331">
        <ele>765</ele>
        <time>2023-02-16T10:52:51Z</time>
      </trkpt>
      <trkpt lat="45.39338" lon="5.6333">
        <ele>766</ele>
        <time>2023-02-16T10:52:54Z</time>
      </trkpt>
      <trkpt lat="45.39341" lon="5.63329">
        <ele>766</ele>
        <time>2023-02-16T10:52:56Z</time>
      </trkpt>
      <trkpt lat="45.39343" lon="5.63329">
        <ele>766</ele>
        <time>2023-02-16T10:52:58Z</time>
      </trkpt>
      <trkpt lat="45.39345" lon="5.63329">
        <ele>766</ele>
        <time>2023-02-16T10:53:00Z</time>
      </trkpt>
      <trkpt lat="45.39348" lon="5.63328">
        <ele>767</ele>
        <time>2023-02-16T10:53:02Z</time>
      </trkpt>
      <trkpt lat="45.39349" lon="5.63328">
        <ele>768</ele>
        <time>2023-02-16T10:53:04Z</time>
      </trkpt>
      <trkpt lat="45.39352" lon="5.63328">
        <ele>768</ele>
        <time>2023-02-16T10:53:06Z</time>
      </trkpt>
      <trkpt lat="45.39355" lon="5.63327">
        <ele>768</ele>
        <time>2023-02-16T10:53:08Z</time>
      </trkpt>
      <trkpt lat="45.39357" lon="5.63327">
        <ele>768</ele>
        <time>2023-02-16T10:53:10Z</time>
      </trkpt>
      <trkpt lat="45.39359" lon="5.63327">
        <ele>769</ele>
        <time>2023-02-16T10:53:12Z</time>
      </trkpt>
      <trkpt lat="45.39361" lon="5.63326">
        <ele>769</ele>
        <time>2023-02-16T10:53:13Z</time>
      </trkpt>
      <trkpt lat="45.39363" lon="5.63326">
        <ele>770</ele>
        <time>2023-02-16T10:53:14Z</time>
      </trkpt>
      <trkpt lat="45.39366" lon="5.63326">
        <ele>769</ele>
        <time>2023-02-16T10:53:16Z</time>
      </trkpt>
      <trkpt lat="45.39369" lon="5.63326">
        <ele>769</ele>
        <time>2023-02-16T10:53:18Z</time>
      </trkpt>
      <trkpt lat="45.39372" lon="5.63326">
        <ele>770</ele>
        <time>2023-02-16T10:53:20Z</time>
      </trkpt>
      <trkpt lat="45.39375" lon="5.63327">
        <ele>770</ele>
        <time>2023-02-16T10:53:22Z</time>
      </trkpt>
      <trkpt lat="45.39378" lon="5.63327">
        <ele>770</ele>
        <time>2023-02-16T10:53:24Z</time>
      </trkpt>
      <trkpt lat="45.39381" lon="5.63327">
        <ele>771</ele>
        <time>2023-02-16T10:53:26Z</time>
      </trkpt>
      <trkpt lat="45.39384" lon="5.63327">
        <ele>771</ele>
        <time>2023-02-16T10:53:28Z</time>
      </trkpt>
      <trkpt lat="45.39387" lon="5.63326">
        <ele>771</ele>
        <time>2023-02-16T10:53:30Z</time>
      </trkpt>
      <trkpt lat="45.3939" lon="5.63325">
        <ele>772</ele>
        <time>2023-02-16T10:53:32Z</time>
      </trkpt>
      <trkpt lat="45.39392" lon="5.63324">
        <ele>772</ele>
        <time>2023-02-16T10:53:34Z</time>
      </trkpt>
      <trkpt lat="45.39394" lon="5.63322">
        <ele>773</ele>
        <time>2023-02-16T10:53:36Z</time>
      </trkpt>
      <trkpt lat="45.39396" lon="5.6332">
        <ele>773</ele>
        <time>2023-02-16T10:53:38Z</time>
      </trkpt>
      <trkpt lat="45.39398" lon="5.63317">
        <ele>773</ele>
        <time>2023-02-16T10:53:40Z</time>
      </trkpt>
      <trkpt lat="45.394" lon="5.63315">
        <ele>774</ele>
        <time>2023-02-16T10:53:42Z</time>
      </trkpt>
      <trkpt lat="45.39402" lon="5.63312">
        <ele>774</ele>
        <time>2023-02-16T10:53:44Z</time>
      </trkpt>
      <trkpt lat="45.39404" lon="5.6331">
        <ele>774</ele>
        <time>2023-02-16T10:53:46Z</time>
      </trkpt>
      <trkpt lat="45.39406" lon="5.63307">
        <ele>774</ele>
        <time>2023-02-16T10:53:48Z</time>
      </trkpt>
      <trkpt lat="45.39407" lon="5.63304">
        <ele>774</ele>
        <time>2023-02-16T10:53:50Z</time>
      </trkpt>
      <trkpt lat="45.39409" lon="5.63301">
        <ele>774</ele>
        <time>2023-02-16T10:53:52Z</time>
      </trkpt>
      <trkpt lat="45.3941" lon="5.63298">
        <ele>775</ele>
        <time>2023-02-16T10:53:54Z</time>
      </trkpt>
      <trkpt lat="45.39411" lon="5.63296">
        <ele>776</ele>
        <time>2023-02-16T10:53:56Z</time>
      </trkpt>
      <trkpt lat="45.39413" lon="5.63293">
        <ele>776</ele>
        <time>2023-02-16T10:53:58Z</time>
      </trkpt>
      <trkpt lat="45.39414" lon="5.6329">
        <ele>777</ele>
        <time>2023-02-16T10:54:00Z</time>
      </trkpt>
      <trkpt lat="45.39415" lon="5.63288">
        <ele>777</ele>
        <time>2023-02-16T10:54:02Z</time>
      </trkpt>
      <trkpt lat="45.39415" lon="5.63285">
        <ele>777</ele>
        <time>2023-02-16T10:54:04Z</time>
      </trkpt>
      <trkpt lat="45.39417" lon="5.63283">
        <ele>778</ele>
        <time>2023-02-16T10:54:06Z</time>
      </trkpt>
      <trkpt lat="45.39418" lon="5.6328">
        <ele>779</ele>
        <time>2023-02-16T10:54:08Z</time>
      </trkpt>
      <trkpt lat="45.39419" lon="5.63277">
        <ele>779</ele>
        <time>2023-02-16T10:54:11Z</time>
      </trkpt>
      <trkpt lat="45.39421" lon="5.63275">
        <ele>780</ele>
        <time>2023-02-16T10:54:13Z</time>
      </trkpt>
      <trkpt lat="45.39422" lon="5.63273">
        <ele>780</ele>
        <time>2023-02-16T10:54:15Z</time>
      </trkpt>
      <trkpt lat="45.39424" lon="5.63271">
        <ele>780</ele>
        <time>2023-02-16T10:54:17Z</time>
      </trkpt>
      <trkpt lat="45.39426" lon="5.63269">
        <ele>781</ele>
        <time>2023-02-16T10:54:19Z</time>
      </trkpt>
      <trkpt lat="45.39428" lon="5.63268">
        <ele>781</ele>
        <time>2023-02-16T10:54:21Z</time>
      </trkpt>
      <trkpt lat="45.3943" lon="5.63267">
        <ele>781</ele>
        <time>2023-02-16T10:54:23Z</time>
      </trkpt>
      <trkpt lat="45.39432" lon="5.63266">
        <ele>782</ele>
        <time>2023-02-16T10:54:25Z</time>
      </trkpt>
      <trkpt lat="45.39434" lon="5.63264">
        <ele>782</ele>
        <time>2023-02-16T10:54:27Z</time>
      </trkpt>
      <trkpt lat="45.39437" lon="5.63262">
        <ele>783</ele>
        <time>2023-02-16T10:54:29Z</time>
      </trkpt>
      <trkpt lat="45.39439" lon="5.63261">
        <ele>783</ele>
        <time>2023-02-16T10:54:31Z</time>
      </trkpt>
      <trkpt lat="45.39441" lon="5.63258">
        <ele>784</ele>
        <time>2023-02-16T10:54:33Z</time>
      </trkpt>
      <trkpt lat="45.39444" lon="5.63256">
        <ele>784</ele>
        <time>2023-02-16T10:54:35Z</time>
      </trkpt>
      <trkpt lat="45.39446" lon="5.63254">
        <ele>785</ele>
        <time>2023-02-16T10:54:37Z</time>
      </trkpt>
      <trkpt lat="45.39448" lon="5.63252">
        <ele>785</ele>
        <time>2023-02-16T10:54:39Z</time>
      </trkpt>
      <trkpt lat="45.39449" lon="5.6325">
        <ele>785</ele>
        <time>2023-02-16T10:54:41Z</time>
      </trkpt>
      <trkpt lat="45.39451" lon="5.63247">
        <ele>786</ele>
        <time>2023-02-16T10:54:43Z</time>
      </trkpt>
      <trkpt lat="45.39453" lon="5.63244">
        <ele>786</ele>
        <time>2023-02-16T10:54:45Z</time>
      </trkpt>
      <trkpt lat="45.39455" lon="5.63241">
        <ele>786</ele>
        <time>2023-02-16T10:54:49Z</time>
      </trkpt>
      <trkpt lat="45.39457" lon="5.63239">
        <ele>785</ele>
        <time>2023-02-16T10:54:51Z</time>
      </trkpt>
      <trkpt lat="45.39458" lon="5.63237">
        <ele>786</ele>
        <time>2023-02-16T10:54:53Z</time>
      </trkpt>
      <trkpt lat="45.3946" lon="5.63235">
        <ele>786</ele>
        <time>2023-02-16T10:54:55Z</time>
      </trkpt>
      <trkpt lat="45.39463" lon="5.63233">
        <ele>786</ele>
        <time>2023-02-16T10:54:57Z</time>
      </trkpt>
      <trkpt lat="45.39465" lon="5.63231">
        <ele>786</ele>
        <time>2023-02-16T10:54:59Z</time>
      </trkpt>
      <trkpt lat="45.39468" lon="5.63228">
        <ele>786</ele>
        <time>2023-02-16T10:55:01Z</time>
      </trkpt>
      <trkpt lat="45.39471" lon="5.63224">
        <ele>788</ele>
        <time>2023-02-16T10:55:03Z</time>
      </trkpt>
      <trkpt lat="45.39473" lon="5.63221">
        <ele>788</ele>
        <time>2023-02-16T10:55:05Z</time>
      </trkpt>
      <trkpt lat="45.39475" lon="5.63218">
        <ele>788</ele>
        <time>2023-02-16T10:55:06Z</time>
      </trkpt>
      <trkpt lat="45.39477" lon="5.63216">
        <ele>788</ele>
        <time>2023-02-16T10:55:07Z</time>
      </trkpt>
      <trkpt lat="45.39479" lon="5.63211">
        <ele>788</ele>
        <time>2023-02-16T10:55:09Z</time>
      </trkpt>
      <trkpt lat="45.39481" lon="5.63208">
        <ele>788</ele>
        <time>2023-02-16T10:55:10Z</time>
      </trkpt>
      <trkpt lat="45.39482" lon="5.63205">
        <ele>788</ele>
        <time>2023-02-16T10:55:11Z</time>
      </trkpt>
      <trkpt lat="45.39484" lon="5.63203">
        <ele>788</ele>
        <time>2023-02-16T10:55:12Z</time>
      </trkpt>
      <trkpt lat="45.39486" lon="5.63201">
        <ele>788</ele>
        <time>2023-02-16T10:55:13Z</time>
      </trkpt>
      <trkpt lat="45.39488" lon="5.63198">
        <ele>788</ele>
        <time>2023-02-16T10:55:14Z</time>
      </trkpt>
      <trkpt lat="45.3949" lon="5.63197">
        <ele>789</ele>
        <time>2023-02-16T10:55:15Z</time>
      </trkpt>
      <trkpt lat="45.39491" lon="5.63196">
        <ele>789</ele>
        <time>2023-02-16T10:55:16Z</time>
      </trkpt>
      <trkpt lat="45.39493" lon="5.63194">
        <ele>789</ele>
        <time>2023-02-16T10:55:17Z</time>
      </trkpt>
      <trkpt lat="45.39494" lon="5.63192">
        <ele>789</ele>
        <time>2023-02-16T10:55:18Z</time>
      </trkpt>
      <trkpt lat="45.39496" lon="5.6319">
        <ele>789</ele>
        <time>2023-02-16T10:55:19Z</time>
      </trkpt>
      <trkpt lat="45.39497" lon="5.63188">
        <ele>789</ele>
        <time>2023-02-16T10:55:20Z</time>
      </trkpt>
      <trkpt lat="45.39498" lon="5.63185">
        <ele>790</ele>
        <time>2023-02-16T10:55:21Z</time>
      </trkpt>
      <trkpt lat="45.395" lon="5.63183">
        <ele>790</ele>
        <time>2023-02-16T10:55:22Z</time>
      </trkpt>
      <trkpt lat="45.39501" lon="5.6318">
        <ele>790</ele>
        <time>2023-02-16T10:55:23Z</time>
      </trkpt>
      <trkpt lat="45.39503" lon="5.63176">
        <ele>790</ele>
        <time>2023-02-16T10:55:25Z</time>
      </trkpt>
      <trkpt lat="45.39504" lon="5.63173">
        <ele>790</ele>
        <time>2023-02-16T10:55:26Z</time>
      </trkpt>
      <trkpt lat="45.39505" lon="5.63171">
        <ele>790</ele>
        <time>2023-02-16T10:55:27Z</time>
      </trkpt>
      <trkpt lat="45.39506" lon="5.63168">
        <ele>790</ele>
        <time>2023-02-16T10:55:28Z</time>
      </trkpt>
      <trkpt lat="45.39508" lon="5.63166">
        <ele>790</ele>
        <time>2023-02-16T10:55:29Z</time>
      </trkpt>
      <trkpt lat="45.3951" lon="5.63163">
        <ele>790</ele>
        <time>2023-02-16T10:55:30Z</time>
      </trkpt>
      <trkpt lat="45.39511" lon="5.6316">
        <ele>790</ele>
        <time>2023-02-16T10:55:31Z</time>
      </trkpt>
      <trkpt lat="45.39512" lon="5.63158">
        <ele>790</ele>
        <time>2023-02-16T10:55:32Z</time>
      </trkpt>
      <trkpt lat="45.39513" lon="5.63155">
        <ele>791</ele>
        <time>2023-02-16T10:55:33Z</time>
      </trkpt>
      <trkpt lat="45.39515" lon="5.63153">
        <ele>791</ele>
        <time>2023-02-16T10:55:34Z</time>
      </trkpt>
      <trkpt lat="45.39516" lon="5.63151">
        <ele>791</ele>
        <time>2023-02-16T10:55:35Z</time>
      </trkpt>
      <trkpt lat="45.39517" lon="5.63148">
        <ele>791</ele>
        <time>2023-02-16T10:55:36Z</time>
      </trkpt>
      <trkpt lat="45.39518" lon="5.63146">
        <ele>791</ele>
        <time>2023-02-16T10:55:37Z</time>
      </trkpt>
      <trkpt lat="45.3952" lon="5.63144">
        <ele>791</ele>
        <time>2023-02-16T10:55:38Z</time>
      </trkpt>
      <trkpt lat="45.39521" lon="5.63141">
        <ele>791</ele>
        <time>2023-02-16T10:55:39Z</time>
      </trkpt>
      <trkpt lat="45.39523" lon="5.63139">
        <ele>791</ele>
        <time>2023-02-16T10:55:40Z</time>
      </trkpt>
      <trkpt lat="45.39524" lon="5.63136">
        <ele>791</ele>
        <time>2023-02-16T10:55:41Z</time>
      </trkpt>
      <trkpt lat="45.39526" lon="5.63134">
        <ele>791</ele>
        <time>2023-02-16T10:55:42Z</time>
      </trkpt>
      <trkpt lat="45.39527" lon="5.63132">
        <ele>791</ele>
        <time>2023-02-16T10:55:43Z</time>
      </trkpt>
      <trkpt lat="45.39529" lon="5.6313">
        <ele>792</ele>
        <time>2023-02-16T10:55:44Z</time>
      </trkpt>
      <trkpt lat="45.39531" lon="5.63128">
        <ele>793</ele>
        <time>2023-02-16T10:55:45Z</time>
      </trkpt>
      <trkpt lat="45.39533" lon="5.63125">
        <ele>793</ele>
        <time>2023-02-16T10:55:46Z</time>
      </trkpt>
      <trkpt lat="45.39534" lon="5.63124">
        <ele>793</ele>
        <time>2023-02-16T10:55:47Z</time>
      </trkpt>
      <trkpt lat="45.39536" lon="5.63122">
        <ele>793</ele>
        <time>2023-02-16T10:55:48Z</time>
      </trkpt>
      <trkpt lat="45.39537" lon="5.63119">
        <ele>793</ele>
        <time>2023-02-16T10:55:50Z</time>
      </trkpt>
      <trkpt lat="45.3954" lon="5.63116">
        <ele>793</ele>
        <time>2023-02-16T10:55:52Z</time>
      </trkpt>
      <trkpt lat="45.39543" lon="5.63115">
        <ele>793</ele>
        <time>2023-02-16T10:55:54Z</time>
      </trkpt>
      <trkpt lat="45.39544" lon="5.63115">
        <ele>794</ele>
        <time>2023-02-16T10:56:01Z</time>
      </trkpt>
      <trkpt lat="45.39551" lon="5.63114">
        <ele>795</ele>
        <time>2023-02-16T10:56:14Z</time>
      </trkpt>
      <trkpt lat="45.39552" lon="5.63114">
        <ele>795</ele>
        <time>2023-02-16T10:56:16Z</time>
      </trkpt>
      <trkpt lat="45.39554" lon="5.63113">
        <ele>795</ele>
        <time>2023-02-16T10:56:18Z</time>
      </trkpt>
      <trkpt lat="45.39556" lon="5.63113">
        <ele>797</ele>
        <time>2023-02-16T10:56:21Z</time>
      </trkpt>
      <trkpt lat="45.39559" lon="5.63112">
        <ele>797</ele>
        <time>2023-02-16T10:56:24Z</time>
      </trkpt>
      <trkpt lat="45.39561" lon="5.63113">
        <ele>797</ele>
        <time>2023-02-16T10:56:27Z</time>
      </trkpt>
      <trkpt lat="45.39564" lon="5.63114">
        <ele>798</ele>
        <time>2023-02-16T10:56:30Z</time>
      </trkpt>
      <trkpt lat="45.39564" lon="5.63114">
        <ele>798</ele>
        <time>2023-02-16T10:56:37Z</time>
      </trkpt>
      <trkpt lat="45.39568" lon="5.63113">
        <ele>799</ele>
        <time>2023-02-16T10:56:46Z</time>
      </trkpt>
      <trkpt lat="45.39568" lon="5.63113">
        <ele>798</ele>
        <time>2023-02-16T10:56:52Z</time>
      </trkpt>
      <trkpt lat="45.3957" lon="5.63114">
        <ele>799</ele>
        <time>2023-02-16T10:58:00Z</time>
      </trkpt>
      <trkpt lat="45.3957" lon="5.63114">
        <ele>798</ele>
        <time>2023-02-16T10:58:05Z</time>
      </trkpt>
      <trkpt lat="45.39572" lon="5.63113">
        <ele>798</ele>
        <time>2023-02-16T10:58:47Z</time>
      </trkpt>
      <trkpt lat="45.39572" lon="5.63113">
        <ele>799</ele>
        <time>2023-02-16T10:58:51Z</time>
      </trkpt>
      <trkpt lat="45.39573" lon="5.63111">
        <ele>799</ele>
        <time>2023-02-16T10:58:54Z</time>
      </trkpt>
      <trkpt lat="45.39573" lon="5.63111">
        <ele>799</ele>
        <time>2023-02-16T10:58:59Z</time>
      </trkpt>
      <trkpt lat="45.39574" lon="5.63118">
        <ele>800</ele>
        <time>2023-02-16T10:59:05Z</time>
      </trkpt>
      <trkpt lat="45.39573" lon="5.63121">
        <ele>800</ele>
        <time>2023-02-16T10:59:06Z</time>
      </trkpt>
      <trkpt lat="45.39571" lon="5.63123">
        <ele>801</ele>
        <time>2023-02-16T10:59:08Z</time>
      </trkpt>
      <trkpt lat="45.3957" lon="5.63126">
        <ele>801</ele>
        <time>2023-02-16T10:59:10Z</time>
      </trkpt>
      <trkpt lat="45.3957" lon="5.63129">
        <ele>801</ele>
        <time>2023-02-16T10:59:12Z</time>
      </trkpt>
      <trkpt lat="45.39569" lon="5.63132">
        <ele>802</ele>
        <time>2023-02-16T10:59:15Z</time>
      </trkpt>
      <trkpt lat="45.39568" lon="5.63136">
        <ele>803</ele>
        <time>2023-02-16T10:59:18Z</time>
      </trkpt>
      <trkpt lat="45.39567" lon="5.63138">
        <ele>805</ele>
        <time>2023-02-16T10:59:21Z</time>
      </trkpt>
      <trkpt lat="45.39567" lon="5.63142">
        <ele>806</ele>
        <time>2023-02-16T10:59:24Z</time>
      </trkpt>
      <trkpt lat="45.39567" lon="5.63145">
        <ele>807</ele>
        <time>2023-02-16T10:59:27Z</time>
      </trkpt>
      <trkpt lat="45.39567" lon="5.63148">
        <ele>807</ele>
        <time>2023-02-16T10:59:31Z</time>
      </trkpt>
      <trkpt lat="45.39567" lon="5.63151">
        <ele>808</ele>
        <time>2023-02-16T10:59:34Z</time>
      </trkpt>
      <trkpt lat="45.39566" lon="5.63153">
        <ele>808</ele>
        <time>2023-02-16T10:59:39Z</time>
      </trkpt>
      <trkpt lat="45.39566" lon="5.63163">
        <ele>809</ele>
        <time>2023-02-16T10:59:45Z</time>
      </trkpt>
      <trkpt lat="45.39565" lon="5.63167">
        <ele>811</ele>
        <time>2023-02-16T10:59:53Z</time>
      </trkpt>
      <trkpt lat="45.39565" lon="5.6317">
        <ele>812</ele>
        <time>2023-02-16T10:59:56Z</time>
      </trkpt>
      <trkpt lat="45.39565" lon="5.63173">
        <ele>813</ele>
        <time>2023-02-16T11:00:05Z</time>
      </trkpt>
      <trkpt lat="45.39569" lon="5.63182">
        <ele>815</ele>
        <time>2023-02-16T11:00:24Z</time>
      </trkpt>
      <trkpt lat="45.39569" lon="5.63184">
        <ele>816</ele>
        <time>2023-02-16T11:00:26Z</time>
      </trkpt>
      <trkpt lat="45.39568" lon="5.63189">
        <ele>817</ele>
        <time>2023-02-16T11:00:35Z</time>
      </trkpt>
      <trkpt lat="45.39568" lon="5.63192">
        <ele>817</ele>
        <time>2023-02-16T11:00:38Z</time>
      </trkpt>
      <trkpt lat="45.39569" lon="5.63194">
        <ele>820</ele>
        <time>2023-02-16T11:00:42Z</time>
      </trkpt>
      <trkpt lat="45.39569" lon="5.63196">
        <ele>821</ele>
        <time>2023-02-16T11:00:48Z</time>
      </trkpt>
      <trkpt lat="45.3957" lon="5.63212">
        <ele>825</ele>
        <time>2023-02-16T11:01:22Z</time>
      </trkpt>
      <trkpt lat="45.3957" lon="5.63213">
        <ele>825</ele>
        <time>2023-02-16T11:01:24Z</time>
      </trkpt>
      <trkpt lat="45.39569" lon="5.63217">
        <ele>828</ele>
        <time>2023-02-16T11:01:28Z</time>
      </trkpt>
      <trkpt lat="45.39568" lon="5.63219">
        <ele>828</ele>
        <time>2023-02-16T11:01:30Z</time>
      </trkpt>
      <trkpt lat="45.39568" lon="5.6322">
        <ele>828</ele>
        <time>2023-02-16T11:01:31Z</time>
      </trkpt>
      <trkpt lat="45.39568" lon="5.6322">
        <ele>828</ele>
        <time>2023-02-16T11:01:38Z</time>
      </trkpt>
      <trkpt lat="45.39573" lon="5.63222">
        <ele>829</ele>
        <time>2023-02-16T11:01:41Z</time>
      </trkpt>
      <trkpt lat="45.39573" lon="5.63224">
        <ele>829</ele>
        <time>2023-02-16T11:01:42Z</time>
      </trkpt>
      <trkpt lat="45.39573" lon="5.63228">
        <ele>830</ele>
        <time>2023-02-16T11:01:45Z</time>
      </trkpt>
      <trkpt lat="45.39573" lon="5.6323">
        <ele>832</ele>
        <time>2023-02-16T11:01:50Z</time>
      </trkpt>
      <trkpt lat="45.39576" lon="5.6324">
        <ele>834</ele>
        <time>2023-02-16T11:02:08Z</time>
      </trkpt>
      <trkpt lat="45.39576" lon="5.63243">
        <ele>835</ele>
        <time>2023-02-16T11:02:12Z</time>
      </trkpt>
      <trkpt lat="45.39577" lon="5.63245">
        <ele>835</ele>
        <time>2023-02-16T11:02:17Z</time>
      </trkpt>
      <trkpt lat="45.39578" lon="5.63248">
        <ele>837</ele>
        <time>2023-02-16T11:02:21Z</time>
      </trkpt>
      <trkpt lat="45.39578" lon="5.63248">
        <ele>838</ele>
        <time>2023-02-16T11:02:26Z</time>
      </trkpt>
      <trkpt lat="45.39587" lon="5.63276">
        <ele>846</ele>
        <time>2023-02-16T11:03:19Z</time>
      </trkpt>
      <trkpt lat="45.39588" lon="5.63278">
        <ele>846</ele>
        <time>2023-02-16T11:03:20Z</time>
      </trkpt>
      <trkpt lat="45.39589" lon="5.6328">
        <ele>847</ele>
        <time>2023-02-16T11:03:23Z</time>
      </trkpt>
      <trkpt lat="45.39589" lon="5.63283">
        <ele>847</ele>
        <time>2023-02-16T11:03:26Z</time>
      </trkpt>
      <trkpt lat="45.3959" lon="5.63286">
        <ele>848</ele>
        <time>2023-02-16T11:03:29Z</time>
      </trkpt>
      <trkpt lat="45.39591" lon="5.63289">
        <ele>849</ele>
        <time>2023-02-16T11:03:32Z</time>
      </trkpt>
      <trkpt lat="45.39592" lon="5.63291">
        <ele>849</ele>
        <time>2023-02-16T11:03:34Z</time>
      </trkpt>
      <trkpt lat="45.39594" lon="5.63295">
        <ele>849</ele>
        <time>2023-02-16T11:03:37Z</time>
      </trkpt>
      <trkpt lat="45.39595" lon="5.63297">
        <ele>849</ele>
        <time>2023-02-16T11:03:40Z</time>
      </trkpt>
      <trkpt lat="45.39596" lon="5.63301">
        <ele>850</ele>
        <time>2023-02-16T11:03:43Z</time>
      </trkpt>
      <trkpt lat="45.39596" lon="5.63304">
        <ele>850</ele>
        <time>2023-02-16T11:03:45Z</time>
      </trkpt>
      <trkpt lat="45.39597" lon="5.63307">
        <ele>850</ele>
        <time>2023-02-16T11:03:48Z</time>
      </trkpt>
      <trkpt lat="45.39598" lon="5.6331">
        <ele>851</ele>
        <time>2023-02-16T11:03:51Z</time>
      </trkpt>
      <trkpt lat="45.39599" lon="5.63313">
        <ele>851</ele>
        <time>2023-02-16T11:03:54Z</time>
      </trkpt>
      <trkpt lat="45.396" lon="5.63315">
        <ele>851</ele>
        <time>2023-02-16T11:03:57Z</time>
      </trkpt>
      <trkpt lat="45.39601" lon="5.63318">
        <ele>852</ele>
        <time>2023-02-16T11:04:00Z</time>
      </trkpt>
      <trkpt lat="45.39602" lon="5.63318">
        <ele>853</ele>
        <time>2023-02-16T11:04:06Z</time>
      </trkpt>
      <trkpt lat="45.39605" lon="5.63324">
        <ele>853</ele>
        <time>2023-02-16T11:04:15Z</time>
      </trkpt>
      <trkpt lat="45.39607" lon="5.63325">
        <ele>854</ele>
        <time>2023-02-16T11:04:19Z</time>
      </trkpt>
      <trkpt lat="45.39609" lon="5.63327">
        <ele>856</ele>
        <time>2023-02-16T11:04:22Z</time>
      </trkpt>
      <trkpt lat="45.3961" lon="5.63329">
        <ele>856</ele>
        <time>2023-02-16T11:04:25Z</time>
      </trkpt>
      <trkpt lat="45.39611" lon="5.6333">
        <ele>855</ele>
        <time>2023-02-16T11:04:32Z</time>
      </trkpt>
      <trkpt lat="45.39613" lon="5.63335">
        <ele>856</ele>
        <time>2023-02-16T11:04:38Z</time>
      </trkpt>
      <trkpt lat="45.39614" lon="5.63337">
        <ele>856</ele>
        <time>2023-02-16T11:04:40Z</time>
      </trkpt>
      <trkpt lat="45.39616" lon="5.63339">
        <ele>857</ele>
        <time>2023-02-16T11:04:43Z</time>
      </trkpt>
      <trkpt lat="45.39618" lon="5.63342">
        <ele>857</ele>
        <time>2023-02-16T11:04:46Z</time>
      </trkpt>
      <trkpt lat="45.39619" lon="5.63344">
        <ele>859</ele>
        <time>2023-02-16T11:04:48Z</time>
      </trkpt>
      <trkpt lat="45.39621" lon="5.63346">
        <ele>860</ele>
        <time>2023-02-16T11:04:50Z</time>
      </trkpt>
      <trkpt lat="45.39622" lon="5.63348">
        <ele>860</ele>
        <time>2023-02-16T11:04:53Z</time>
      </trkpt>
      <trkpt lat="45.39623" lon="5.6335">
        <ele>860</ele>
        <time>2023-02-16T11:04:56Z</time>
      </trkpt>
      <trkpt lat="45.39625" lon="5.63352">
        <ele>861</ele>
        <time>2023-02-16T11:05:00Z</time>
      </trkpt>
      <trkpt lat="45.39627" lon="5.63354">
        <ele>861</ele>
        <time>2023-02-16T11:05:03Z</time>
      </trkpt>
      <trkpt lat="45.39628" lon="5.63355">
        <ele>862</ele>
        <time>2023-02-16T11:05:10Z</time>
      </trkpt>
      <trkpt lat="45.3963" lon="5.63355">
        <ele>862</ele>
        <time>2023-02-16T11:05:22Z</time>
      </trkpt>
      <trkpt lat="45.39631" lon="5.63355">
        <ele>862</ele>
        <time>2023-02-16T11:05:26Z</time>
      </trkpt>
      <trkpt lat="45.39631" lon="5.63356">
        <ele>862</ele>
        <time>2023-02-16T11:05:32Z</time>
      </trkpt>
      <trkpt lat="45.39634" lon="5.63362">
        <ele>862</ele>
        <time>2023-02-16T11:05:41Z</time>
      </trkpt>
      <trkpt lat="45.39633" lon="5.63365">
        <ele>861</ele>
        <time>2023-02-16T11:05:42Z</time>
      </trkpt>
      <trkpt lat="45.39634" lon="5.63368">
        <ele>861</ele>
        <time>2023-02-16T11:05:44Z</time>
      </trkpt>
      <trkpt lat="45.39634" lon="5.6337">
        <ele>862</ele>
        <time>2023-02-16T11:05:46Z</time>
      </trkpt>
      <trkpt lat="45.39635" lon="5.63374">
        <ele>862</ele>
        <time>2023-02-16T11:05:49Z</time>
      </trkpt>
      <trkpt lat="45.39635" lon="5.63378">
        <ele>862</ele>
        <time>2023-02-16T11:05:51Z</time>
      </trkpt>
      <trkpt lat="45.39635" lon="5.63382">
        <ele>862</ele>
        <time>2023-02-16T11:05:53Z</time>
      </trkpt>
      <trkpt lat="45.39635" lon="5.63388">
        <ele>862</ele>
        <time>2023-02-16T11:05:55Z</time>
      </trkpt>
      <trkpt lat="45.39636" lon="5.63391">
        <ele>862</ele>
        <time>2023-02-16T11:05:56Z</time>
      </trkpt>
      <trkpt lat="45.39636" lon="5.63394">
        <ele>862</ele>
        <time>2023-02-16T11:05:57Z</time>
      </trkpt>
      <trkpt lat="45.39636" lon="5.63397">
        <ele>862</ele>
        <time>2023-02-16T11:05:58Z</time>
      </trkpt>
      <trkpt lat="45.39637" lon="5.63401">
        <ele>862</ele>
        <time>2023-02-16T11:05:59Z</time>
      </trkpt>
      <trkpt lat="45.39637" lon="5.63405">
        <ele>862</ele>
        <time>2023-02-16T11:06:00Z</time>
      </trkpt>
      <trkpt lat="45.39638" lon="5.63409">
        <ele>860</ele>
        <time>2023-02-16T11:06:01Z</time>
      </trkpt>
      <trkpt lat="45.39639" lon="5.63414">
        <ele>860</ele>
        <time>2023-02-16T11:06:02Z</time>
      </trkpt>
      <trkpt lat="45.39641" lon="5.63419">
        <ele>859</ele>
        <time>2023-02-16T11:06:03Z</time>
      </trkpt>
      <trkpt lat="45.39643" lon="5.63422">
        <ele>859</ele>
        <time>2023-02-16T11:06:04Z</time>
      </trkpt>
      <trkpt lat="45.39644" lon="5.63425">
        <ele>858</ele>
        <time>2023-02-16T11:06:05Z</time>
      </trkpt>
      <trkpt lat="45.39645" lon="5.63428">
        <ele>858</ele>
        <time>2023-02-16T11:06:06Z</time>
      </trkpt>
      <trkpt lat="45.39645" lon="5.63432">
        <ele>856</ele>
        <time>2023-02-16T11:06:07Z</time>
      </trkpt>
      <trkpt lat="45.39646" lon="5.63435">
        <ele>855</ele>
        <time>2023-02-16T11:06:09Z</time>
      </trkpt>
      <trkpt lat="45.39646" lon="5.63438">
        <ele>855</ele>
        <time>2023-02-16T11:06:13Z</time>
      </trkpt>
      <trkpt lat="45.39646" lon="5.63438">
        <ele>856</ele>
        <time>2023-02-16T11:06:16Z</time>
      </trkpt>
      <trkpt lat="45.39648" lon="5.63453">
        <ele>854</ele>
        <time>2023-02-16T11:06:25Z</time>
      </trkpt>
      <trkpt lat="45.39648" lon="5.63456">
        <ele>854</ele>
        <time>2023-02-16T11:06:26Z</time>
      </trkpt>
      <trkpt lat="45.39648" lon="5.63459">
        <ele>854</ele>
        <time>2023-02-16T11:06:27Z</time>
      </trkpt>
      <trkpt lat="45.39649" lon="5.63462">
        <ele>853</ele>
        <time>2023-02-16T11:06:28Z</time>
      </trkpt>
      <trkpt lat="45.39651" lon="5.63464">
        <ele>853</ele>
        <time>2023-02-16T11:06:29Z</time>
      </trkpt>
      <trkpt lat="45.39652" lon="5.63466">
        <ele>853</ele>
        <time>2023-02-16T11:06:30Z</time>
      </trkpt>
      <trkpt lat="45.39655" lon="5.63467">
        <ele>852</ele>
        <time>2023-02-16T11:06:31Z</time>
      </trkpt>
      <trkpt lat="45.39657" lon="5.63468">
        <ele>852</ele>
        <time>2023-02-16T11:06:32Z</time>
      </trkpt>
      <trkpt lat="45.39659" lon="5.6347">
        <ele>849</ele>
        <time>2023-02-16T11:06:34Z</time>
      </trkpt>
      <trkpt lat="45.39661" lon="5.63473">
        <ele>849</ele>
        <time>2023-02-16T11:06:36Z</time>
      </trkpt>
      <trkpt lat="45.39663" lon="5.63474">
        <ele>849</ele>
        <time>2023-02-16T11:06:38Z</time>
      </trkpt>
      <trkpt lat="45.39665" lon="5.63477">
        <ele>849</ele>
        <time>2023-02-16T11:06:40Z</time>
      </trkpt>
      <trkpt lat="45.39667" lon="5.63478">
        <ele>849</ele>
        <time>2023-02-16T11:06:42Z</time>
      </trkpt>
      <trkpt lat="45.3967" lon="5.63478">
        <ele>848</ele>
        <time>2023-02-16T11:06:45Z</time>
      </trkpt>
      <trkpt lat="45.39672" lon="5.63479">
        <ele>848</ele>
        <time>2023-02-16T11:06:47Z</time>
      </trkpt>
      <trkpt lat="45.39674" lon="5.63481">
        <ele>848</ele>
        <time>2023-02-16T11:06:49Z</time>
      </trkpt>
      <trkpt lat="45.39681" lon="5.63489">
        <ele>850</ele>
        <time>2023-02-16T11:06:54Z</time>
      </trkpt>
      <trkpt lat="45.39682" lon="5.63491">
        <ele>850</ele>
        <time>2023-02-16T11:06:55Z</time>
      </trkpt>
      <trkpt lat="45.39684" lon="5.63496">
        <ele>850</ele>
        <time>2023-02-16T11:06:57Z</time>
      </trkpt>
      <trkpt lat="45.39685" lon="5.63499">
        <ele>850</ele>
        <time>2023-02-16T11:06:58Z</time>
      </trkpt>
      <trkpt lat="45.39687" lon="5.63502">
        <ele>849</ele>
        <time>2023-02-16T11:07:00Z</time>
      </trkpt>
      <trkpt lat="45.39689" lon="5.63504">
        <ele>849</ele>
        <time>2023-02-16T11:07:02Z</time>
      </trkpt>
      <trkpt lat="45.3969" lon="5.63505">
        <ele>848</ele>
        <time>2023-02-16T11:07:09Z</time>
      </trkpt>
      <trkpt lat="45.39691" lon="5.63518">
        <ele>847</ele>
        <time>2023-02-16T11:07:19Z</time>
      </trkpt>
      <trkpt lat="45.39692" lon="5.63521">
        <ele>847</ele>
        <time>2023-02-16T11:07:20Z</time>
      </trkpt>
      <trkpt lat="45.39693" lon="5.63525">
        <ele>847</ele>
        <time>2023-02-16T11:07:21Z</time>
      </trkpt>
      <trkpt lat="45.39694" lon="5.63528">
        <ele>845</ele>
        <time>2023-02-16T11:07:23Z</time>
      </trkpt>
      <trkpt lat="45.39693" lon="5.63527">
        <ele>844</ele>
        <time>2023-02-16T11:07:27Z</time>
      </trkpt>
      <trkpt lat="45.39696" lon="5.63527">
        <ele>845</ele>
        <time>2023-02-16T11:07:34Z</time>
      </trkpt>
      <trkpt lat="45.39697" lon="5.63529">
        <ele>845</ele>
        <time>2023-02-16T11:07:35Z</time>
      </trkpt>
      <trkpt lat="45.39699" lon="5.63531">
        <ele>845</ele>
        <time>2023-02-16T11:07:37Z</time>
      </trkpt>
      <trkpt lat="45.39701" lon="5.63532">
        <ele>846</ele>
        <time>2023-02-16T11:07:39Z</time>
      </trkpt>
      <trkpt lat="45.39703" lon="5.63535">
        <ele>846</ele>
        <time>2023-02-16T11:07:41Z</time>
      </trkpt>
      <trkpt lat="45.39705" lon="5.63538">
        <ele>846</ele>
        <time>2023-02-16T11:07:43Z</time>
      </trkpt>
      <trkpt lat="45.39707" lon="5.63538">
        <ele>845</ele>
        <time>2023-02-16T11:07:45Z</time>
      </trkpt>
      <trkpt lat="45.39709" lon="5.63539">
        <ele>845</ele>
        <time>2023-02-16T11:07:47Z</time>
      </trkpt>
      <trkpt lat="45.3971" lon="5.63539">
        <ele>845</ele>
        <time>2023-02-16T11:07:53Z</time>
      </trkpt>
      <trkpt lat="45.3971" lon="5.63542">
        <ele>846</ele>
        <time>2023-02-16T11:07:56Z</time>
      </trkpt>
      <trkpt lat="45.39709" lon="5.63543">
        <ele>845</ele>
        <time>2023-02-16T11:08:01Z</time>
      </trkpt>
      <trkpt lat="45.39705" lon="5.63548">
        <ele>844</ele>
        <time>2023-02-16T11:08:08Z</time>
      </trkpt>
      <trkpt lat="45.39703" lon="5.6355">
        <ele>844</ele>
        <time>2023-02-16T11:08:09Z</time>
      </trkpt>
      <trkpt lat="45.39702" lon="5.63551">
        <ele>844</ele>
        <time>2023-02-16T11:08:10Z</time>
      </trkpt>
      <trkpt lat="45.397" lon="5.63553">
        <ele>844</ele>
        <time>2023-02-16T11:08:11Z</time>
      </trkpt>
      <trkpt lat="45.39699" lon="5.63555">
        <ele>843</ele>
        <time>2023-02-16T11:08:12Z</time>
      </trkpt>
      <trkpt lat="45.39698" lon="5.63558">
        <ele>842</ele>
        <time>2023-02-16T11:08:14Z</time>
      </trkpt>
      <trkpt lat="45.39699" lon="5.63561">
        <ele>841</ele>
        <time>2023-02-16T11:08:19Z</time>
      </trkpt>
      <trkpt lat="45.397" lon="5.63562">
        <ele>841</ele>
        <time>2023-02-16T11:08:29Z</time>
      </trkpt>
      <trkpt lat="45.39707" lon="5.63563">
        <ele>839</ele>
        <time>2023-02-16T11:09:04Z</time>
      </trkpt>
      <trkpt lat="45.39709" lon="5.63564">
        <ele>839</ele>
        <time>2023-02-16T11:09:05Z</time>
      </trkpt>
      <trkpt lat="45.3971" lon="5.63566">
        <ele>839</ele>
        <time>2023-02-16T11:09:06Z</time>
      </trkpt>
      <trkpt lat="45.39713" lon="5.63568">
        <ele>839</ele>
        <time>2023-02-16T11:09:07Z</time>
      </trkpt>
      <trkpt lat="45.39715" lon="5.63569">
        <ele>839</ele>
        <time>2023-02-16T11:09:08Z</time>
      </trkpt>
      <trkpt lat="45.39717" lon="5.63571">
        <ele>839</ele>
        <time>2023-02-16T11:09:09Z</time>
      </trkpt>
      <trkpt lat="45.3972" lon="5.63572">
        <ele>839</ele>
        <time>2023-02-16T11:09:10Z</time>
      </trkpt>
      <trkpt lat="45.39722" lon="5.63574">
        <ele>839</ele>
        <time>2023-02-16T11:09:11Z</time>
      </trkpt>
      <trkpt lat="45.39724" lon="5.63575">
        <ele>839</ele>
        <time>2023-02-16T11:09:12Z</time>
      </trkpt>
      <trkpt lat="45.39726" lon="5.63577">
        <ele>839</ele>
        <time>2023-02-16T11:09:13Z</time>
      </trkpt>
      <trkpt lat="45.39729" lon="5.6358">
        <ele>839</ele>
        <time>2023-02-16T11:09:14Z</time>
      </trkpt>
      <trkpt lat="45.39731" lon="5.63583">
        <ele>839</ele>
        <time>2023-02-16T11:09:15Z</time>
      </trkpt>
      <trkpt lat="45.39734" lon="5.63586">
        <ele>839</ele>
        <time>2023-02-16T11:09:16Z</time>
      </trkpt>
      <trkpt lat="45.39737" lon="5.63588">
        <ele>839</ele>
        <time>2023-02-16T11:09:17Z</time>
      </trkpt>
      <trkpt lat="45.3974" lon="5.63591">
        <ele>838</ele>
        <time>2023-02-16T11:09:18Z</time>
      </trkpt>
      <trkpt lat="45.39743" lon="5.63594">
        <ele>838</ele>
        <time>2023-02-16T11:09:19Z</time>
      </trkpt>
      <trkpt lat="45.39746" lon="5.63597">
        <ele>838</ele>
        <time>2023-02-16T11:09:20Z</time>
      </trkpt>
      <trkpt lat="45.39748" lon="5.63602">
        <ele>838</ele>
        <time>2023-02-16T11:09:21Z</time>
      </trkpt>
      <trkpt lat="45.3975" lon="5.63608">
        <ele>837</ele>
        <time>2023-02-16T11:09:22Z</time>
      </trkpt>
      <trkpt lat="45.39751" lon="5.63614">
        <ele>837</ele>
        <time>2023-02-16T11:09:23Z</time>
      </trkpt>
      <trkpt lat="45.39753" lon="5.63622">
        <ele>836</ele>
        <time>2023-02-16T11:09:24Z</time>
      </trkpt>
      <trkpt lat="45.39754" lon="5.6363">
        <ele>836</ele>
        <time>2023-02-16T11:09:25Z</time>
      </trkpt>
      <trkpt lat="45.39757" lon="5.63638">
        <ele>836</ele>
        <time>2023-02-16T11:09:26Z</time>
      </trkpt>
      <trkpt lat="45.39759" lon="5.63646">
        <ele>835</ele>
        <time>2023-02-16T11:09:27Z</time>
      </trkpt>
      <trkpt lat="45.39762" lon="5.63653">
        <ele>835</ele>
        <time>2023-02-16T11:09:28Z</time>
      </trkpt>
      <trkpt lat="45.39765" lon="5.6366">
        <ele>831</ele>
        <time>2023-02-16T11:09:29Z</time>
      </trkpt>
      <trkpt lat="45.39768" lon="5.63667">
        <ele>827</ele>
        <time>2023-02-16T11:09:30Z</time>
      </trkpt>
      <trkpt lat="45.39772" lon="5.63675">
        <ele>826</ele>
        <time>2023-02-16T11:09:31Z</time>
      </trkpt>
      <trkpt lat="45.39775" lon="5.63684">
        <ele>826</ele>
        <time>2023-02-16T11:09:32Z</time>
      </trkpt>
      <trkpt lat="45.39779" lon="5.6369">
        <ele>825</ele>
        <time>2023-02-16T11:09:33Z</time>
      </trkpt>
      <trkpt lat="45.39783" lon="5.63696">
        <ele>824</ele>
        <time>2023-02-16T11:09:34Z</time>
      </trkpt>
      <trkpt lat="45.39787" lon="5.63701">
        <ele>823</ele>
        <time>2023-02-16T11:09:35Z</time>
      </trkpt>
      <trkpt lat="45.3979" lon="5.63706">
        <ele>822</ele>
        <time>2023-02-16T11:09:36Z</time>
      </trkpt>
      <trkpt lat="45.39793" lon="5.6371">
        <ele>822</ele>
        <time>2023-02-16T11:09:37Z</time>
      </trkpt>
      <trkpt lat="45.39797" lon="5.63711">
        <ele>820</ele>
        <time>2023-02-16T11:09:38Z</time>
      </trkpt>
      <trkpt lat="45.398" lon="5.63712">
        <ele>819</ele>
        <time>2023-02-16T11:09:39Z</time>
      </trkpt>
      <trkpt lat="45.39804" lon="5.63713">
        <ele>818</ele>
        <time>2023-02-16T11:09:40Z</time>
      </trkpt>
      <trkpt lat="45.39806" lon="5.63716">
        <ele>818</ele>
        <time>2023-02-16T11:09:41Z</time>
      </trkpt>
      <trkpt lat="45.39809" lon="5.63718">
        <ele>818</ele>
        <time>2023-02-16T11:09:42Z</time>
      </trkpt>
      <trkpt lat="45.39813" lon="5.63721">
        <ele>817</ele>
        <time>2023-02-16T11:09:43Z</time>
      </trkpt>
      <trkpt lat="45.39816" lon="5.63723">
        <ele>817</ele>
        <time>2023-02-16T11:09:44Z</time>
      </trkpt>
      <trkpt lat="45.39819" lon="5.63726">
        <ele>816</ele>
        <time>2023-02-16T11:09:45Z</time>
      </trkpt>
      <trkpt lat="45.39823" lon="5.63728">
        <ele>816</ele>
        <time>2023-02-16T11:09:46Z</time>
      </trkpt>
      <trkpt lat="45.39825" lon="5.6373">
        <ele>815</ele>
        <time>2023-02-16T11:09:47Z</time>
      </trkpt>
      <trkpt lat="45.39827" lon="5.63733">
        <ele>814</ele>
        <time>2023-02-16T11:09:49Z</time>
      </trkpt>
      <trkpt lat="45.39826" lon="5.63733">
        <ele>814</ele>
        <time>2023-02-16T11:09:55Z</time>
      </trkpt>
      <trkpt lat="45.39833" lon="5.63739">
        <ele>812</ele>
        <time>2023-02-16T11:10:01Z</time>
      </trkpt>
      <trkpt lat="45.39836" lon="5.63742">
        <ele>812</ele>
        <time>2023-02-16T11:10:02Z</time>
      </trkpt>
      <trkpt lat="45.3984" lon="5.63744">
        <ele>812</ele>
        <time>2023-02-16T11:10:03Z</time>
      </trkpt>
      <trkpt lat="45.39844" lon="5.63747">
        <ele>812</ele>
        <time>2023-02-16T11:10:04Z</time>
      </trkpt>
      <trkpt lat="45.39847" lon="5.6375">
        <ele>812</ele>
        <time>2023-02-16T11:10:05Z</time>
      </trkpt>
      <trkpt lat="45.39852" lon="5.63752">
        <ele>811</ele>
        <time>2023-02-16T11:10:06Z</time>
      </trkpt>
      <trkpt lat="45.39857" lon="5.63755">
        <ele>811</ele>
        <time>2023-02-16T11:10:07Z</time>
      </trkpt>
      <trkpt lat="45.39862" lon="5.63758">
        <ele>808</ele>
        <time>2023-02-16T11:10:08Z</time>
      </trkpt>
      <trkpt lat="45.39868" lon="5.63761">
        <ele>807</ele>
        <time>2023-02-16T11:10:09Z</time>
      </trkpt>
      <trkpt lat="45.39874" lon="5.63764">
        <ele>807</ele>
        <time>2023-02-16T11:10:10Z</time>
      </trkpt>
      <trkpt lat="45.3988" lon="5.63766">
        <ele>805</ele>
        <time>2023-02-16T11:10:11Z</time>
      </trkpt>
      <trkpt lat="45.39885" lon="5.63769">
        <ele>804</ele>
        <time>2023-02-16T11:10:12Z</time>
      </trkpt>
      <trkpt lat="45.39892" lon="5.63773">
        <ele>804</ele>
        <time>2023-02-16T11:10:13Z</time>
      </trkpt>
      <trkpt lat="45.39898" lon="5.63776">
        <ele>802</ele>
        <time>2023-02-16T11:10:14Z</time>
      </trkpt>
      <trkpt lat="45.39905" lon="5.63778">
        <ele>802</ele>
        <time>2023-02-16T11:10:15Z</time>
      </trkpt>
      <trkpt lat="45.39911" lon="5.63779">
        <ele>801</ele>
        <time>2023-02-16T11:10:16Z</time>
      </trkpt>
      <trkpt lat="45.39916" lon="5.63782">
        <ele>801</ele>
        <time>2023-02-16T11:10:17Z</time>
      </trkpt>
      <trkpt lat="45.39921" lon="5.63784">
        <ele>800</ele>
        <time>2023-02-16T11:10:18Z</time>
      </trkpt>
      <trkpt lat="45.39925" lon="5.63787">
        <ele>800</ele>
        <time>2023-02-16T11:10:19Z</time>
      </trkpt>
      <trkpt lat="45.39928" lon="5.63788">
        <ele>800</ele>
        <time>2023-02-16T11:10:20Z</time>
      </trkpt>
      <trkpt lat="45.39931" lon="5.63789">
        <ele>800</ele>
        <time>2023-02-16T11:10:21Z</time>
      </trkpt>
      <trkpt lat="45.39934" lon="5.6379">
        <ele>800</ele>
        <time>2023-02-16T11:10:22Z</time>
      </trkpt>
      <trkpt lat="45.39936" lon="5.6379">
        <ele>800</ele>
        <time>2023-02-16T11:10:23Z</time>
      </trkpt>
      <trkpt lat="45.39938" lon="5.6379">
        <ele>800</ele>
        <time>2023-02-16T11:10:24Z</time>
      </trkpt>
      <trkpt lat="45.3994" lon="5.6379">
        <ele>800</ele>
        <time>2023-02-16T11:10:25Z</time>
      </trkpt>
      <trkpt lat="45.39943" lon="5.6379">
        <ele>800</ele>
        <time>2023-02-16T11:10:26Z</time>
      </trkpt>
      <trkpt lat="45.39945" lon="5.63792">
        <ele>799</ele>
        <time>2023-02-16T11:10:27Z</time>
      </trkpt>
      <trkpt lat="45.39947" lon="5.63793">
        <ele>799</ele>
        <time>2023-02-16T11:10:28Z</time>
      </trkpt>
      <trkpt lat="45.39948" lon="5.63795">
        <ele>799</ele>
        <time>2023-02-16T11:10:29Z</time>
      </trkpt>
      <trkpt lat="45.39951" lon="5.63798">
        <ele>799</ele>
        <time>2023-02-16T11:10:31Z</time>
      </trkpt>
      <trkpt lat="45.39953" lon="5.63798">
        <ele>799</ele>
        <time>2023-02-16T11:10:32Z</time>
      </trkpt>
      <trkpt lat="45.39957" lon="5.63797">
        <ele>799</ele>
        <time>2023-02-16T11:10:34Z</time>
      </trkpt>
      <trkpt lat="45.39959" lon="5.63796">
        <ele>799</ele>
        <time>2023-02-16T11:10:35Z</time>
      </trkpt>
      <trkpt lat="45.39961" lon="5.63796">
        <ele>799</ele>
        <time>2023-02-16T11:10:36Z</time>
      </trkpt>
      <trkpt lat="45.39963" lon="5.63796">
        <ele>799</ele>
        <time>2023-02-16T11:10:37Z</time>
      </trkpt>
      <trkpt lat="45.39967" lon="5.63798">
        <ele>798</ele>
        <time>2023-02-16T11:10:38Z</time>
      </trkpt>
      <trkpt lat="45.3997" lon="5.63802">
        <ele>798</ele>
        <time>2023-02-16T11:10:39Z</time>
      </trkpt>
      <trkpt lat="45.39972" lon="5.63808">
        <ele>797</ele>
        <time>2023-02-16T11:10:40Z</time>
      </trkpt>
      <trkpt lat="45.39973" lon="5.63815">
        <ele>796</ele>
        <time>2023-02-16T11:10:41Z</time>
      </trkpt>
      <trkpt lat="45.39974" lon="5.63821">
        <ele>796</ele>
        <time>2023-02-16T11:10:42Z</time>
      </trkpt>
      <trkpt lat="45.39975" lon="5.63826">
        <ele>794</ele>
        <time>2023-02-16T11:10:43Z</time>
      </trkpt>
      <trkpt lat="45.39974" lon="5.63832">
        <ele>793</ele>
        <time>2023-02-16T11:10:44Z</time>
      </trkpt>
      <trkpt lat="45.39973" lon="5.63838">
        <ele>792</ele>
        <time>2023-02-16T11:10:45Z</time>
      </trkpt>
      <trkpt lat="45.39971" lon="5.63844">
        <ele>790</ele>
        <time>2023-02-16T11:10:46Z</time>
      </trkpt>
      <trkpt lat="45.39969" lon="5.63848">
        <ele>790</ele>
        <time>2023-02-16T11:10:47Z</time>
      </trkpt>
      <trkpt lat="45.39965" lon="5.63852">
        <ele>789</ele>
        <time>2023-02-16T11:10:48Z</time>
      </trkpt>
      <trkpt lat="45.39962" lon="5.63857">
        <ele>789</ele>
        <time>2023-02-16T11:10:49Z</time>
      </trkpt>
      <trkpt lat="45.39959" lon="5.63862">
        <ele>789</ele>
        <time>2023-02-16T11:10:50Z</time>
      </trkpt>
      <trkpt lat="45.39957" lon="5.63866">
        <ele>788</ele>
        <time>2023-02-16T11:10:51Z</time>
      </trkpt>
      <trkpt lat="45.39953" lon="5.63871">
        <ele>788</ele>
        <time>2023-02-16T11:10:52Z</time>
      </trkpt>
      <trkpt lat="45.39949" lon="5.63875">
        <ele>788</ele>
        <time>2023-02-16T11:10:53Z</time>
      </trkpt>
      <trkpt lat="45.39944" lon="5.6388">
        <ele>786</ele>
        <time>2023-02-16T11:10:54Z</time>
      </trkpt>
      <trkpt lat="45.39938" lon="5.63886">
        <ele>786</ele>
        <time>2023-02-16T11:10:55Z</time>
      </trkpt>
      <trkpt lat="45.39934" lon="5.63889">
        <ele>786</ele>
        <time>2023-02-16T11:10:56Z</time>
      </trkpt>
      <trkpt lat="45.3993" lon="5.63892">
        <ele>786</ele>
        <time>2023-02-16T11:10:57Z</time>
      </trkpt>
      <trkpt lat="45.39927" lon="5.63895">
        <ele>786</ele>
        <time>2023-02-16T11:10:58Z</time>
      </trkpt>
      <trkpt lat="45.39923" lon="5.63898">
        <ele>785</ele>
        <time>2023-02-16T11:10:59Z</time>
      </trkpt>
      <trkpt lat="45.3992" lon="5.63901">
        <ele>784</ele>
        <time>2023-02-16T11:11:00Z</time>
      </trkpt>
      <trkpt lat="45.39916" lon="5.63905">
        <ele>784</ele>
        <time>2023-02-16T11:11:01Z</time>
      </trkpt>
      <trkpt lat="45.39913" lon="5.63911">
        <ele>782</ele>
        <time>2023-02-16T11:11:02Z</time>
      </trkpt>
      <trkpt lat="45.39911" lon="5.63919">
        <ele>782</ele>
        <time>2023-02-16T11:11:03Z</time>
      </trkpt>
      <trkpt lat="45.39909" lon="5.63927">
        <ele>781</ele>
        <time>2023-02-16T11:11:04Z</time>
      </trkpt>
      <trkpt lat="45.39907" lon="5.63934">
        <ele>779</ele>
        <time>2023-02-16T11:11:05Z</time>
      </trkpt>
      <trkpt lat="45.39907" lon="5.63939">
        <ele>778</ele>
        <time>2023-02-16T11:11:06Z</time>
      </trkpt>
      <trkpt lat="45.39908" lon="5.63943">
        <ele>777</ele>
        <time>2023-02-16T11:11:07Z</time>
      </trkpt>
      <trkpt lat="45.39909" lon="5.63946">
        <ele>776</ele>
        <time>2023-02-16T11:11:08Z</time>
      </trkpt>
      <trkpt lat="45.3991" lon="5.63949">
        <ele>775</ele>
        <time>2023-02-16T11:11:09Z</time>
      </trkpt>
      <trkpt lat="45.39911" lon="5.63954">
        <ele>775</ele>
        <time>2023-02-16T11:11:10Z</time>
      </trkpt>
      <trkpt lat="45.39911" lon="5.63959">
        <ele>775</ele>
        <time>2023-02-16T11:11:11Z</time>
      </trkpt>
      <trkpt lat="45.39911" lon="5.63965">
        <ele>774</ele>
        <time>2023-02-16T11:11:12Z</time>
      </trkpt>
      <trkpt lat="45.39912" lon="5.63968">
        <ele>774</ele>
        <time>2023-02-16T11:11:13Z</time>
      </trkpt>
      <trkpt lat="45.39913" lon="5.63971">
        <ele>774</ele>
        <time>2023-02-16T11:11:14Z</time>
      </trkpt>
      <trkpt lat="45.39915" lon="5.6397">
        <ele>774</ele>
        <time>2023-02-16T11:11:19Z</time>
      </trkpt>
      <trkpt lat="45.39917" lon="5.63971">
        <ele>773</ele>
        <time>2023-02-16T11:11:22Z</time>
      </trkpt>
      <trkpt lat="45.39919" lon="5.63973">
        <ele>773</ele>
        <time>2023-02-16T11:11:26Z</time>
      </trkpt>
      <trkpt lat="45.39919" lon="5.63973">
        <ele>773</ele>
        <time>2023-02-16T11:11:27Z</time>
      </trkpt>
      <trkpt lat="45.39922" lon="5.63971">
        <ele>774</ele>
        <time>2023-02-16T11:11:30Z</time>
      </trkpt>
      <trkpt lat="45.39924" lon="5.63972">
        <ele>774</ele>
        <time>2023-02-16T11:11:32Z</time>
      </trkpt>
      <trkpt lat="45.39927" lon="5.63975">
        <ele>773</ele>
        <time>2023-02-16T11:11:35Z</time>
      </trkpt>
      <trkpt lat="45.39929" lon="5.63976">
        <ele>773</ele>
        <time>2023-02-16T11:11:36Z</time>
      </trkpt>
      <trkpt lat="45.39932" lon="5.63977">
        <ele>773</ele>
        <time>2023-02-16T11:11:37Z</time>
      </trkpt>
      <trkpt lat="45.39935" lon="5.63978">
        <ele>773</ele>
        <time>2023-02-16T11:11:38Z</time>
      </trkpt>
      <trkpt lat="45.39939" lon="5.6398">
        <ele>772</ele>
        <time>2023-02-16T11:11:39Z</time>
      </trkpt>
      <trkpt lat="45.39943" lon="5.63982">
        <ele>772</ele>
        <time>2023-02-16T11:11:40Z</time>
      </trkpt>
      <trkpt lat="45.39947" lon="5.63985">
        <ele>772</ele>
        <time>2023-02-16T11:11:41Z</time>
      </trkpt>
      <trkpt lat="45.39951" lon="5.63988">
        <ele>772</ele>
        <time>2023-02-16T11:11:42Z</time>
      </trkpt>
      <trkpt lat="45.39955" lon="5.63991">
        <ele>772</ele>
        <time>2023-02-16T11:11:43Z</time>
      </trkpt>
      <trkpt lat="45.39959" lon="5.63994">
        <ele>772</ele>
        <time>2023-02-16T11:11:44Z</time>
      </trkpt>
      <trkpt lat="45.39962" lon="5.63998">
        <ele>772</ele>
        <time>2023-02-16T11:11:45Z</time>
      </trkpt>
      <trkpt lat="45.39964" lon="5.64002">
        <ele>772</ele>
        <time>2023-02-16T11:11:46Z</time>
      </trkpt>
      <trkpt lat="45.39966" lon="5.64005">
        <ele>772</ele>
        <time>2023-02-16T11:11:47Z</time>
      </trkpt>
      <trkpt lat="45.39968" lon="5.64008">
        <ele>772</ele>
        <time>2023-02-16T11:11:48Z</time>
      </trkpt>
      <trkpt lat="45.39969" lon="5.64011">
        <ele>772</ele>
        <time>2023-02-16T11:11:49Z</time>
      </trkpt>
      <trkpt lat="45.39971" lon="5.64015">
        <ele>773</ele>
        <time>2023-02-16T11:11:50Z</time>
      </trkpt>
      <trkpt lat="45.39972" lon="5.64018">
        <ele>773</ele>
        <time>2023-02-16T11:11:51Z</time>
      </trkpt>
      <trkpt lat="45.39973" lon="5.6402">
        <ele>774</ele>
        <time>2023-02-16T11:11:52Z</time>
      </trkpt>
      <trkpt lat="45.39975" lon="5.64023">
        <ele>774</ele>
        <time>2023-02-16T11:11:53Z</time>
      </trkpt>
      <trkpt lat="45.39977" lon="5.64026">
        <ele>774</ele>
        <time>2023-02-16T11:11:54Z</time>
      </trkpt>
      <trkpt lat="45.39979" lon="5.64028">
        <ele>774</ele>
        <time>2023-02-16T11:11:55Z</time>
      </trkpt>
      <trkpt lat="45.39981" lon="5.64031">
        <ele>774</ele>
        <time>2023-02-16T11:11:56Z</time>
      </trkpt>
      <trkpt lat="45.39984" lon="5.64034">
        <ele>774</ele>
        <time>2023-02-16T11:11:57Z</time>
      </trkpt>
      <trkpt lat="45.39987" lon="5.64038">
        <ele>774</ele>
        <time>2023-02-16T11:11:58Z</time>
      </trkpt>
      <trkpt lat="45.3999" lon="5.64041">
        <ele>774</ele>
        <time>2023-02-16T11:11:59Z</time>
      </trkpt>
      <trkpt lat="45.39993" lon="5.64044">
        <ele>774</ele>
        <time>2023-02-16T11:12:00Z</time>
      </trkpt>
      <trkpt lat="45.39996" lon="5.64047">
        <ele>774</ele>
        <time>2023-02-16T11:12:01Z</time>
      </trkpt>
      <trkpt lat="45.4" lon="5.6405">
        <ele>774</ele>
        <time>2023-02-16T11:12:02Z</time>
      </trkpt>
      <trkpt lat="45.40005" lon="5.64053">
        <ele>774</ele>
        <time>2023-02-16T11:12:03Z</time>
      </trkpt>
      <trkpt lat="45.40009" lon="5.64056">
        <ele>774</ele>
        <time>2023-02-16T11:12:04Z</time>
      </trkpt>
      <trkpt lat="45.40013" lon="5.64058">
        <ele>774</ele>
        <time>2023-02-16T11:12:05Z</time>
      </trkpt>
      <trkpt lat="45.40021" lon="5.64065">
        <ele>774</ele>
        <time>2023-02-16T11:12:07Z</time>
      </trkpt>
      <trkpt lat="45.40024" lon="5.64068">
        <ele>774</ele>
        <time>2023-02-16T11:12:08Z</time>
      </trkpt>
      <trkpt lat="45.40026" lon="5.64071">
        <ele>774</ele>
        <time>2023-02-16T11:12:09Z</time>
      </trkpt>
      <trkpt lat="45.40034" lon="5.64083">
        <ele>774</ele>
        <time>2023-02-16T11:12:13Z</time>
      </trkpt>
      <trkpt lat="45.40041" lon="5.64093">
        <ele>774</ele>
        <time>2023-02-16T11:12:16Z</time>
      </trkpt>
      <trkpt lat="45.40048" lon="5.64103">
        <ele>774</ele>
        <time>2023-02-16T11:12:21Z</time>
      </trkpt>
      <trkpt lat="45.4005" lon="5.64105">
        <ele>776</ele>
        <time>2023-02-16T11:12:23Z</time>
      </trkpt>
      <trkpt lat="45.40059" lon="5.64109">
        <ele>776</ele>
        <time>2023-02-16T11:12:27Z</time>
      </trkpt>
      <trkpt lat="45.4007" lon="5.64114">
        <ele>777</ele>
        <time>2023-02-16T11:12:31Z</time>
      </trkpt>
      <trkpt lat="45.4008" lon="5.64119">
        <ele>778</ele>
        <time>2023-02-16T11:12:34Z</time>
      </trkpt>
      <trkpt lat="45.40088" lon="5.64125">
        <ele>778</ele>
        <time>2023-02-16T11:12:36Z</time>
      </trkpt>
      <trkpt lat="45.40099" lon="5.64132">
        <ele>778</ele>
        <time>2023-02-16T11:12:39Z</time>
      </trkpt>
      <trkpt lat="45.40107" lon="5.64142">
        <ele>779</ele>
        <time>2023-02-16T11:12:42Z</time>
      </trkpt>
      <trkpt lat="45.40117" lon="5.64153">
        <ele>779</ele>
        <time>2023-02-16T11:12:45Z</time>
      </trkpt>
      <trkpt lat="45.4012" lon="5.64156">
        <ele>779</ele>
        <time>2023-02-16T11:12:46Z</time>
      </trkpt>
      <trkpt lat="45.40123" lon="5.64159">
        <ele>779</ele>
        <time>2023-02-16T11:12:47Z</time>
      </trkpt>
      <trkpt lat="45.40126" lon="5.64163">
        <ele>779</ele>
        <time>2023-02-16T11:12:48Z</time>
      </trkpt>
      <trkpt lat="45.40128" lon="5.64166">
        <ele>779</ele>
        <time>2023-02-16T11:12:49Z</time>
      </trkpt>
      <trkpt lat="45.40131" lon="5.64169">
        <ele>780</ele>
        <time>2023-02-16T11:12:50Z</time>
      </trkpt>
      <trkpt lat="45.40133" lon="5.64172">
        <ele>780</ele>
        <time>2023-02-16T11:12:51Z</time>
      </trkpt>
      <trkpt lat="45.40136" lon="5.64175">
        <ele>780</ele>
        <time>2023-02-16T11:12:52Z</time>
      </trkpt>
      <trkpt lat="45.40138" lon="5.64178">
        <ele>781</ele>
        <time>2023-02-16T11:12:53Z</time>
      </trkpt>
      <trkpt lat="45.4014" lon="5.64181">
        <ele>781</ele>
        <time>2023-02-16T11:12:54Z</time>
      </trkpt>
      <trkpt lat="45.40142" lon="5.64184">
        <ele>781</ele>
        <time>2023-02-16T11:12:55Z</time>
      </trkpt>
      <trkpt lat="45.40144" lon="5.64187">
        <ele>781</ele>
        <time>2023-02-16T11:12:56Z</time>
      </trkpt>
      <trkpt lat="45.40146" lon="5.6419">
        <ele>781</ele>
        <time>2023-02-16T11:12:57Z</time>
      </trkpt>
      <trkpt lat="45.40148" lon="5.64194">
        <ele>781</ele>
        <time>2023-02-16T11:12:58Z</time>
      </trkpt>
      <trkpt lat="45.40149" lon="5.64197">
        <ele>781</ele>
        <time>2023-02-16T11:12:59Z</time>
      </trkpt>
      <trkpt lat="45.40151" lon="5.642">
        <ele>781</ele>
        <time>2023-02-16T11:13:00Z</time>
      </trkpt>
      <trkpt lat="45.40152" lon="5.64203">
        <ele>782</ele>
        <time>2023-02-16T11:13:01Z</time>
      </trkpt>
      <trkpt lat="45.40153" lon="5.64206">
        <ele>782</ele>
        <time>2023-02-16T11:13:02Z</time>
      </trkpt>
      <trkpt lat="45.40156" lon="5.6422">
        <ele>782</ele>
        <time>2023-02-16T11:13:06Z</time>
      </trkpt>
      <trkpt lat="45.40161" lon="5.64235">
        <ele>783</ele>
        <time>2023-02-16T11:13:10Z</time>
      </trkpt>
      <trkpt lat="45.40166" lon="5.64248">
        <ele>783</ele>
        <time>2023-02-16T11:13:13Z</time>
      </trkpt>
      <trkpt lat="45.40168" lon="5.64252">
        <ele>783</ele>
        <time>2023-02-16T11:13:14Z</time>
      </trkpt>
      <trkpt lat="45.40169" lon="5.64256">
        <ele>783</ele>
        <time>2023-02-16T11:13:15Z</time>
      </trkpt>
      <trkpt lat="45.4017" lon="5.6426">
        <ele>783</ele>
        <time>2023-02-16T11:13:16Z</time>
      </trkpt>
      <trkpt lat="45.40172" lon="5.64263">
        <ele>783</ele>
        <time>2023-02-16T11:13:17Z</time>
      </trkpt>
      <trkpt lat="45.40174" lon="5.64267">
        <ele>783</ele>
        <time>2023-02-16T11:13:18Z</time>
      </trkpt>
      <trkpt lat="45.40175" lon="5.6427">
        <ele>783</ele>
        <time>2023-02-16T11:13:19Z</time>
      </trkpt>
      <trkpt lat="45.40177" lon="5.64273">
        <ele>783</ele>
        <time>2023-02-16T11:13:20Z</time>
      </trkpt>
      <trkpt lat="45.40179" lon="5.64277">
        <ele>783</ele>
        <time>2023-02-16T11:13:21Z</time>
      </trkpt>
      <trkpt lat="45.4018" lon="5.6428">
        <ele>783</ele>
        <time>2023-02-16T11:13:22Z</time>
      </trkpt>
      <trkpt lat="45.40182" lon="5.64283">
        <ele>783</ele>
        <time>2023-02-16T11:13:23Z</time>
      </trkpt>
      <trkpt lat="45.40184" lon="5.64286">
        <ele>783</ele>
        <time>2023-02-16T11:13:24Z</time>
      </trkpt>
      <trkpt lat="45.40186" lon="5.64289">
        <ele>783</ele>
        <time>2023-02-16T11:13:25Z</time>
      </trkpt>
      <trkpt lat="45.40188" lon="5.64291">
        <ele>784</ele>
        <time>2023-02-16T11:13:26Z</time>
      </trkpt>
      <trkpt lat="45.4019" lon="5.64294">
        <ele>784</ele>
        <time>2023-02-16T11:13:27Z</time>
      </trkpt>
      <trkpt lat="45.40192" lon="5.64296">
        <ele>784</ele>
        <time>2023-02-16T11:13:28Z</time>
      </trkpt>
      <trkpt lat="45.40194" lon="5.64299">
        <ele>784</ele>
        <time>2023-02-16T11:13:29Z</time>
      </trkpt>
      <trkpt lat="45.40196" lon="5.64301">
        <ele>785</ele>
        <time>2023-02-16T11:13:30Z</time>
      </trkpt>
      <trkpt lat="45.40198" lon="5.64303">
        <ele>785</ele>
        <time>2023-02-16T11:13:31Z</time>
      </trkpt>
      <trkpt lat="45.402" lon="5.64305">
        <ele>785</ele>
        <time>2023-02-16T11:13:32Z</time>
      </trkpt>
      <trkpt lat="45.40203" lon="5.64307">
        <ele>785</ele>
        <time>2023-02-16T11:13:33Z</time>
      </trkpt>
      <trkpt lat="45.40205" lon="5.64308">
        <ele>785</ele>
        <time>2023-02-16T11:13:34Z</time>
      </trkpt>
      <trkpt lat="45.40208" lon="5.6431">
        <ele>785</ele>
        <time>2023-02-16T11:13:35Z</time>
      </trkpt>
      <trkpt lat="45.4021" lon="5.64312">
        <ele>785</ele>
        <time>2023-02-16T11:13:36Z</time>
      </trkpt>
      <trkpt lat="45.40213" lon="5.64313">
        <ele>785</ele>
        <time>2023-02-16T11:13:37Z</time>
      </trkpt>
      <trkpt lat="45.40216" lon="5.64314">
        <ele>786</ele>
        <time>2023-02-16T11:13:38Z</time>
      </trkpt>
      <trkpt lat="45.40219" lon="5.64316">
        <ele>786</ele>
        <time>2023-02-16T11:13:39Z</time>
      </trkpt>
      <trkpt lat="45.40222" lon="5.64316">
        <ele>786</ele>
        <time>2023-02-16T11:13:40Z</time>
      </trkpt>
      <trkpt lat="45.40224" lon="5.64317">
        <ele>786</ele>
        <time>2023-02-16T11:13:41Z</time>
      </trkpt>
      <trkpt lat="45.40227" lon="5.64318">
        <ele>786</ele>
        <time>2023-02-16T11:13:42Z</time>
      </trkpt>
      <trkpt lat="45.4023" lon="5.64318">
        <ele>786</ele>
        <time>2023-02-16T11:13:43Z</time>
      </trkpt>
      <trkpt lat="45.40232" lon="5.64318">
        <ele>787</ele>
        <time>2023-02-16T11:13:44Z</time>
      </trkpt>
      <trkpt lat="45.40235" lon="5.64317">
        <ele>787</ele>
        <time>2023-02-16T11:13:45Z</time>
      </trkpt>
      <trkpt lat="45.40237" lon="5.64316">
        <ele>787</ele>
        <time>2023-02-16T11:13:46Z</time>
      </trkpt>
      <trkpt lat="45.4024" lon="5.64313">
        <ele>787</ele>
        <time>2023-02-16T11:13:47Z</time>
      </trkpt>
      <trkpt lat="45.40243" lon="5.64312">
        <ele>786</ele>
        <time>2023-02-16T11:13:48Z</time>
      </trkpt>
      <trkpt lat="45.40247" lon="5.64311">
        <ele>786</ele>
        <time>2023-02-16T11:13:49Z</time>
      </trkpt>
      <trkpt lat="45.4025" lon="5.6431">
        <ele>786</ele>
        <time>2023-02-16T11:13:50Z</time>
      </trkpt>
      <trkpt lat="45.40254" lon="5.64309">
        <ele>786</ele>
        <time>2023-02-16T11:13:51Z</time>
      </trkpt>
      <trkpt lat="45.40258" lon="5.64307">
        <ele>786</ele>
        <time>2023-02-16T11:13:52Z</time>
      </trkpt>
      <trkpt lat="45.40262" lon="5.64306">
        <ele>786</ele>
        <time>2023-02-16T11:13:53Z</time>
      </trkpt>
      <trkpt lat="45.40265" lon="5.64304">
        <ele>786</ele>
        <time>2023-02-16T11:13:54Z</time>
      </trkpt>
      <trkpt lat="45.40269" lon="5.64301">
        <ele>786</ele>
        <time>2023-02-16T11:13:55Z</time>
      </trkpt>
      <trkpt lat="45.40272" lon="5.64298">
        <ele>786</ele>
        <time>2023-02-16T11:13:56Z</time>
      </trkpt>
      <trkpt lat="45.40281" lon="5.6429">
        <ele>785</ele>
        <time>2023-02-16T11:13:59Z</time>
      </trkpt>
      <trkpt lat="45.40292" lon="5.64282">
        <ele>785</ele>
        <time>2023-02-16T11:14:02Z</time>
      </trkpt>
      <trkpt lat="45.40302" lon="5.64275">
        <ele>785</ele>
        <time>2023-02-16T11:14:04Z</time>
      </trkpt>
      <trkpt lat="45.40314" lon="5.64266">
        <ele>784</ele>
        <time>2023-02-16T11:14:06Z</time>
      </trkpt>
      <trkpt lat="45.40326" lon="5.64258">
        <ele>784</ele>
        <time>2023-02-16T11:14:08Z</time>
      </trkpt>
      <trkpt lat="45.40337" lon="5.64251">
        <ele>783</ele>
        <time>2023-02-16T11:14:10Z</time>
      </trkpt>
      <trkpt lat="45.40348" lon="5.64243">
        <ele>783</ele>
        <time>2023-02-16T11:14:13Z</time>
      </trkpt>
      <trkpt lat="45.40359" lon="5.64233">
        <ele>782</ele>
        <time>2023-02-16T11:14:16Z</time>
      </trkpt>
      <trkpt lat="45.40367" lon="5.64225">
        <ele>782</ele>
        <time>2023-02-16T11:14:18Z</time>
      </trkpt>
      <trkpt lat="45.40378" lon="5.64217">
        <ele>781</ele>
        <time>2023-02-16T11:14:21Z</time>
      </trkpt>
      <trkpt lat="45.40388" lon="5.64216">
        <ele>780</ele>
        <time>2023-02-16T11:14:23Z</time>
      </trkpt>
      <trkpt lat="45.40401" lon="5.64215">
        <ele>779</ele>
        <time>2023-02-16T11:14:25Z</time>
      </trkpt>
      <trkpt lat="45.40415" lon="5.64217">
        <ele>779</ele>
        <time>2023-02-16T11:14:27Z</time>
      </trkpt>
      <trkpt lat="45.40429" lon="5.64222">
        <ele>775</ele>
        <time>2023-02-16T11:14:29Z</time>
      </trkpt>
      <trkpt lat="45.40442" lon="5.6422">
        <ele>774</ele>
        <time>2023-02-16T11:14:31Z</time>
      </trkpt>
      <trkpt lat="45.40457" lon="5.64214">
        <ele>774</ele>
        <time>2023-02-16T11:14:33Z</time>
      </trkpt>
      <trkpt lat="45.40472" lon="5.64205">
        <ele>773</ele>
        <time>2023-02-16T11:14:35Z</time>
      </trkpt>
      <trkpt lat="45.40479" lon="5.64201">
        <ele>773</ele>
        <time>2023-02-16T11:14:36Z</time>
      </trkpt>
      <trkpt lat="45.40486" lon="5.64197">
        <ele>770</ele>
        <time>2023-02-16T11:14:37Z</time>
      </trkpt>
      <trkpt lat="45.40502" lon="5.64194">
        <ele>768</ele>
        <time>2023-02-16T11:14:39Z</time>
      </trkpt>
      <trkpt lat="45.4051" lon="5.64192">
        <ele>768</ele>
        <time>2023-02-16T11:14:40Z</time>
      </trkpt>
      <trkpt lat="45.40518" lon="5.64189">
        <ele>768</ele>
        <time>2023-02-16T11:14:41Z</time>
      </trkpt>
      <trkpt lat="45.40524" lon="5.64186">
        <ele>767</ele>
        <time>2023-02-16T11:14:42Z</time>
      </trkpt>
      <trkpt lat="45.40532" lon="5.64176">
        <ele>766</ele>
        <time>2023-02-16T11:14:44Z</time>
      </trkpt>
      <trkpt lat="45.40536" lon="5.6417">
        <ele>764</ele>
        <time>2023-02-16T11:14:45Z</time>
      </trkpt>
      <trkpt lat="45.40549" lon="5.64163">
        <ele>764</ele>
        <time>2023-02-16T11:14:47Z</time>
      </trkpt>
      <trkpt lat="45.40565" lon="5.64164">
        <ele>764</ele>
        <time>2023-02-16T11:14:49Z</time>
      </trkpt>
      <trkpt lat="45.40573" lon="5.64167">
        <ele>761</ele>
        <time>2023-02-16T11:14:50Z</time>
      </trkpt>
      <trkpt lat="45.40579" lon="5.64169">
        <ele>758</ele>
        <time>2023-02-16T11:14:51Z</time>
      </trkpt>
      <trkpt lat="45.40583" lon="5.64171">
        <ele>757</ele>
        <time>2023-02-16T11:14:52Z</time>
      </trkpt>
      <trkpt lat="45.4059" lon="5.64174">
        <ele>759</ele>
        <time>2023-02-16T11:14:56Z</time>
      </trkpt>
      <trkpt lat="45.40592" lon="5.64175">
        <ele>759</ele>
        <time>2023-02-16T11:14:58Z</time>
      </trkpt>
      <trkpt lat="45.40594" lon="5.64174">
        <ele>761</ele>
        <time>2023-02-16T11:14:59Z</time>
      </trkpt>
      <trkpt lat="45.40603" lon="5.64175">
        <ele>761</ele>
        <time>2023-02-16T11:15:05Z</time>
      </trkpt>
      <trkpt lat="45.40609" lon="5.64177">
        <ele>762</ele>
        <time>2023-02-16T11:15:08Z</time>
      </trkpt>
      <trkpt lat="45.4061" lon="5.64178">
        <ele>762</ele>
        <time>2023-02-16T11:15:09Z</time>
      </trkpt>
      <trkpt lat="45.40612" lon="5.64178">
        <ele>762</ele>
        <time>2023-02-16T11:15:10Z</time>
      </trkpt>
      <trkpt lat="45.40616" lon="5.64179">
        <ele>763</ele>
        <time>2023-02-16T11:15:12Z</time>
      </trkpt>
      <trkpt lat="45.40618" lon="5.64179">
        <ele>763</ele>
        <time>2023-02-16T11:15:13Z</time>
      </trkpt>
      <trkpt lat="45.40621" lon="5.64179">
        <ele>763</ele>
        <time>2023-02-16T11:15:14Z</time>
      </trkpt>
      <trkpt lat="45.40624" lon="5.6418">
        <ele>763</ele>
        <time>2023-02-16T11:15:15Z</time>
      </trkpt>
      <trkpt lat="45.40626" lon="5.64181">
        <ele>763</ele>
        <time>2023-02-16T11:15:16Z</time>
      </trkpt>
      <trkpt lat="45.40628" lon="5.64182">
        <ele>763</ele>
        <time>2023-02-16T11:15:17Z</time>
      </trkpt>
      <trkpt lat="45.40631" lon="5.64184">
        <ele>763</ele>
        <time>2023-02-16T11:15:19Z</time>
      </trkpt>
      <trkpt lat="45.40633" lon="5.64185">
        <ele>763</ele>
        <time>2023-02-16T11:15:20Z</time>
      </trkpt>
      <trkpt lat="45.40635" lon="5.64186">
        <ele>764</ele>
        <time>2023-02-16T11:15:21Z</time>
      </trkpt>
      <trkpt lat="45.40637" lon="5.64187">
        <ele>764</ele>
        <time>2023-02-16T11:15:22Z</time>
      </trkpt>
      <trkpt lat="45.40639" lon="5.64188">
        <ele>764</ele>
        <time>2023-02-16T11:15:23Z</time>
      </trkpt>
      <trkpt lat="45.40641" lon="5.64189">
        <ele>764</ele>
        <time>2023-02-16T11:15:24Z</time>
      </trkpt>
      <trkpt lat="45.40643" lon="5.64189">
        <ele>764</ele>
        <time>2023-02-16T11:15:25Z</time>
      </trkpt>
      <trkpt lat="45.40645" lon="5.6419">
        <ele>764</ele>
        <time>2023-02-16T11:15:26Z</time>
      </trkpt>
      <trkpt lat="45.40648" lon="5.64192">
        <ele>764</ele>
        <time>2023-02-16T11:15:27Z</time>
      </trkpt>
      <trkpt lat="45.4065" lon="5.64193">
        <ele>764</ele>
        <time>2023-02-16T11:15:28Z</time>
      </trkpt>
      <trkpt lat="45.40652" lon="5.64195">
        <ele>764</ele>
        <time>2023-02-16T11:15:29Z</time>
      </trkpt>
      <trkpt lat="45.40654" lon="5.64196">
        <ele>765</ele>
        <time>2023-02-16T11:15:30Z</time>
      </trkpt>
      <trkpt lat="45.40656" lon="5.64198">
        <ele>765</ele>
        <time>2023-02-16T11:15:31Z</time>
      </trkpt>
      <trkpt lat="45.40658" lon="5.642">
        <ele>765</ele>
        <time>2023-02-16T11:15:32Z</time>
      </trkpt>
      <trkpt lat="45.4066" lon="5.64201">
        <ele>765</ele>
        <time>2023-02-16T11:15:33Z</time>
      </trkpt>
      <trkpt lat="45.40662" lon="5.64203">
        <ele>765</ele>
        <time>2023-02-16T11:15:34Z</time>
      </trkpt>
      <trkpt lat="45.40663" lon="5.64205">
        <ele>765</ele>
        <time>2023-02-16T11:15:35Z</time>
      </trkpt>
      <trkpt lat="45.40665" lon="5.64206">
        <ele>766</ele>
        <time>2023-02-16T11:15:36Z</time>
      </trkpt>
      <trkpt lat="45.40668" lon="5.64209">
        <ele>766</ele>
        <time>2023-02-16T11:15:38Z</time>
      </trkpt>
      <trkpt lat="45.4067" lon="5.6421">
        <ele>766</ele>
        <time>2023-02-16T11:15:40Z</time>
      </trkpt>
      <trkpt lat="45.40673" lon="5.64212">
        <ele>766</ele>
        <time>2023-02-16T11:15:42Z</time>
      </trkpt>
      <trkpt lat="45.40675" lon="5.64214">
        <ele>767</ele>
        <time>2023-02-16T11:15:44Z</time>
      </trkpt>
      <trkpt lat="45.40678" lon="5.64216">
        <ele>767</ele>
        <time>2023-02-16T11:15:46Z</time>
      </trkpt>
      <trkpt lat="45.4068" lon="5.64218">
        <ele>767</ele>
        <time>2023-02-16T11:15:47Z</time>
      </trkpt>
      <trkpt lat="45.40683" lon="5.64221">
        <ele>767</ele>
        <time>2023-02-16T11:15:48Z</time>
      </trkpt>
      <trkpt lat="45.40685" lon="5.64222">
        <ele>767</ele>
        <time>2023-02-16T11:15:49Z</time>
      </trkpt>
      <trkpt lat="45.40686" lon="5.64224">
        <ele>767</ele>
        <time>2023-02-16T11:15:50Z</time>
      </trkpt>
      <trkpt lat="45.40689" lon="5.64226">
        <ele>767</ele>
        <time>2023-02-16T11:15:51Z</time>
      </trkpt>
      <trkpt lat="45.40691" lon="5.64227">
        <ele>769</ele>
        <time>2023-02-16T11:15:52Z</time>
      </trkpt>
      <trkpt lat="45.40693" lon="5.64229">
        <ele>769</ele>
        <time>2023-02-16T11:15:53Z</time>
      </trkpt>
      <trkpt lat="45.40694" lon="5.64231">
        <ele>769</ele>
        <time>2023-02-16T11:15:54Z</time>
      </trkpt>
      <trkpt lat="45.40696" lon="5.64233">
        <ele>769</ele>
        <time>2023-02-16T11:15:55Z</time>
      </trkpt>
      <trkpt lat="45.40698" lon="5.64234">
        <ele>769</ele>
        <time>2023-02-16T11:15:56Z</time>
      </trkpt>
      <trkpt lat="45.407" lon="5.64236">
        <ele>769</ele>
        <time>2023-02-16T11:15:57Z</time>
      </trkpt>
      <trkpt lat="45.40702" lon="5.64237">
        <ele>769</ele>
        <time>2023-02-16T11:15:58Z</time>
      </trkpt>
      <trkpt lat="45.40704" lon="5.64238">
        <ele>769</ele>
        <time>2023-02-16T11:15:59Z</time>
      </trkpt>
      <trkpt lat="45.40706" lon="5.64239">
        <ele>769</ele>
        <time>2023-02-16T11:16:00Z</time>
      </trkpt>
      <trkpt lat="45.40708" lon="5.64241">
        <ele>769</ele>
        <time>2023-02-16T11:16:01Z</time>
      </trkpt>
      <trkpt lat="45.4071" lon="5.64241">
        <ele>769</ele>
        <time>2023-02-16T11:16:02Z</time>
      </trkpt>
      <trkpt lat="45.40712" lon="5.64242">
        <ele>769</ele>
        <time>2023-02-16T11:16:03Z</time>
      </trkpt>
      <trkpt lat="45.40714" lon="5.64242">
        <ele>769</ele>
        <time>2023-02-16T11:16:04Z</time>
      </trkpt>
      <trkpt lat="45.40716" lon="5.64242">
        <ele>770</ele>
        <time>2023-02-16T11:16:05Z</time>
      </trkpt>
      <trkpt lat="45.40718" lon="5.64242">
        <ele>770</ele>
        <time>2023-02-16T11:16:06Z</time>
      </trkpt>
      <trkpt lat="45.40719" lon="5.64243">
        <ele>771</ele>
        <time>2023-02-16T11:16:07Z</time>
      </trkpt>
      <trkpt lat="45.40721" lon="5.64244">
        <ele>771</ele>
        <time>2023-02-16T11:16:08Z</time>
      </trkpt>
      <trkpt lat="45.40724" lon="5.64246">
        <ele>771</ele>
        <time>2023-02-16T11:16:10Z</time>
      </trkpt>
      <trkpt lat="45.40726" lon="5.64247">
        <ele>772</ele>
        <time>2023-02-16T11:16:11Z</time>
      </trkpt>
      <trkpt lat="45.40729" lon="5.64249">
        <ele>773</ele>
        <time>2023-02-16T11:16:13Z</time>
      </trkpt>
      <trkpt lat="45.40732" lon="5.6425">
        <ele>773</ele>
        <time>2023-02-16T11:16:15Z</time>
      </trkpt>
      <trkpt lat="45.40736" lon="5.64251">
        <ele>773</ele>
        <time>2023-02-16T11:16:17Z</time>
      </trkpt>
      <trkpt lat="45.40739" lon="5.64253">
        <ele>773</ele>
        <time>2023-02-16T11:16:19Z</time>
      </trkpt>
      <trkpt lat="45.40741" lon="5.64255">
        <ele>774</ele>
        <time>2023-02-16T11:16:20Z</time>
      </trkpt>
      <trkpt lat="45.40742" lon="5.64256">
        <ele>774</ele>
        <time>2023-02-16T11:16:21Z</time>
      </trkpt>
      <trkpt lat="45.40744" lon="5.64257">
        <ele>774</ele>
        <time>2023-02-16T11:16:22Z</time>
      </trkpt>
      <trkpt lat="45.40746" lon="5.64259">
        <ele>775</ele>
        <time>2023-02-16T11:16:23Z</time>
      </trkpt>
      <trkpt lat="45.40747" lon="5.6426">
        <ele>775</ele>
        <time>2023-02-16T11:16:24Z</time>
      </trkpt>
      <trkpt lat="45.40749" lon="5.64262">
        <ele>775</ele>
        <time>2023-02-16T11:16:25Z</time>
      </trkpt>
      <trkpt lat="45.40751" lon="5.64263">
        <ele>775</ele>
        <time>2023-02-16T11:16:26Z</time>
      </trkpt>
      <trkpt lat="45.40753" lon="5.64264">
        <ele>775</ele>
        <time>2023-02-16T11:16:27Z</time>
      </trkpt>
      <trkpt lat="45.40755" lon="5.64265">
        <ele>775</ele>
        <time>2023-02-16T11:16:28Z</time>
      </trkpt>
      <trkpt lat="45.40757" lon="5.64266">
        <ele>775</ele>
        <time>2023-02-16T11:16:29Z</time>
      </trkpt>
      <trkpt lat="45.40758" lon="5.64267">
        <ele>776</ele>
        <time>2023-02-16T11:16:30Z</time>
      </trkpt>
      <trkpt lat="45.4076" lon="5.64268">
        <ele>776</ele>
        <time>2023-02-16T11:16:31Z</time>
      </trkpt>
      <trkpt lat="45.40762" lon="5.64269">
        <ele>777</ele>
        <time>2023-02-16T11:16:32Z</time>
      </trkpt>
      <trkpt lat="45.40764" lon="5.6427">
        <ele>777</ele>
        <time>2023-02-16T11:16:33Z</time>
      </trkpt>
      <trkpt lat="45.40766" lon="5.64271">
        <ele>777</ele>
        <time>2023-02-16T11:16:34Z</time>
      </trkpt>
      <trkpt lat="45.40767" lon="5.64272">
        <ele>777</ele>
        <time>2023-02-16T11:16:35Z</time>
      </trkpt>
      <trkpt lat="45.40769" lon="5.64273">
        <ele>777</ele>
        <time>2023-02-16T11:16:36Z</time>
      </trkpt>
      <trkpt lat="45.40771" lon="5.64274">
        <ele>777</ele>
        <time>2023-02-16T11:16:37Z</time>
      </trkpt>
      <trkpt lat="45.40773" lon="5.64276">
        <ele>777</ele>
        <time>2023-02-16T11:16:38Z</time>
      </trkpt>
      <trkpt lat="45.40774" lon="5.64278">
        <ele>777</ele>
        <time>2023-02-16T11:16:39Z</time>
      </trkpt>
      <trkpt lat="45.40776" lon="5.64279">
        <ele>777</ele>
        <time>2023-02-16T11:16:40Z</time>
      </trkpt>
      <trkpt lat="45.40777" lon="5.64281">
        <ele>777</ele>
        <time>2023-02-16T11:16:41Z</time>
      </trkpt>
      <trkpt lat="45.40779" lon="5.64283">
        <ele>777</ele>
        <time>2023-02-16T11:16:42Z</time>
      </trkpt>
      <trkpt lat="45.4078" lon="5.64285">
        <ele>777</ele>
        <time>2023-02-16T11:16:43Z</time>
      </trkpt>
      <trkpt lat="45.40782" lon="5.64287">
        <ele>777</ele>
        <time>2023-02-16T11:16:44Z</time>
      </trkpt>
      <trkpt lat="45.40783" lon="5.64289">
        <ele>777</ele>
        <time>2023-02-16T11:16:45Z</time>
      </trkpt>
      <trkpt lat="45.40785" lon="5.64291">
        <ele>778</ele>
        <time>2023-02-16T11:16:46Z</time>
      </trkpt>
      <trkpt lat="45.40786" lon="5.64292">
        <ele>778</ele>
        <time>2023-02-16T11:16:47Z</time>
      </trkpt>
      <trkpt lat="45.40788" lon="5.64294">
        <ele>778</ele>
        <time>2023-02-16T11:16:48Z</time>
      </trkpt>
      <trkpt lat="45.40789" lon="5.64295">
        <ele>778</ele>
        <time>2023-02-16T11:16:49Z</time>
      </trkpt>
      <trkpt lat="45.40791" lon="5.64297">
        <ele>778</ele>
        <time>2023-02-16T11:16:50Z</time>
      </trkpt>
      <trkpt lat="45.40792" lon="5.64299">
        <ele>778</ele>
        <time>2023-02-16T11:16:51Z</time>
      </trkpt>
      <trkpt lat="45.40794" lon="5.643">
        <ele>778</ele>
        <time>2023-02-16T11:16:52Z</time>
      </trkpt>
      <trkpt lat="45.40795" lon="5.64302">
        <ele>778</ele>
        <time>2023-02-16T11:16:53Z</time>
      </trkpt>
      <trkpt lat="45.40797" lon="5.64303">
        <ele>778</ele>
        <time>2023-02-16T11:16:54Z</time>
      </trkpt>
      <trkpt lat="45.40799" lon="5.64305">
        <ele>778</ele>
        <time>2023-02-16T11:16:55Z</time>
      </trkpt>
      <trkpt lat="45.40801" lon="5.64306">
        <ele>779</ele>
        <time>2023-02-16T11:16:56Z</time>
      </trkpt>
      <trkpt lat="45.40803" lon="5.64309">
        <ele>779</ele>
        <time>2023-02-16T11:16:58Z</time>
      </trkpt>
      <trkpt lat="45.40805" lon="5.64312">
        <ele>779</ele>
        <time>2023-02-16T11:17:00Z</time>
      </trkpt>
      <trkpt lat="45.40808" lon="5.64315">
        <ele>780</ele>
        <time>2023-02-16T11:17:02Z</time>
      </trkpt>
      <trkpt lat="45.4081" lon="5.64316">
        <ele>781</ele>
        <time>2023-02-16T11:17:03Z</time>
      </trkpt>
      <trkpt lat="45.40811" lon="5.64318">
        <ele>781</ele>
        <time>2023-02-16T11:17:04Z</time>
      </trkpt>
      <trkpt lat="45.40813" lon="5.64319">
        <ele>782</ele>
        <time>2023-02-16T11:17:05Z</time>
      </trkpt>
      <trkpt lat="45.40814" lon="5.64321">
        <ele>782</ele>
        <time>2023-02-16T11:17:06Z</time>
      </trkpt>
      <trkpt lat="45.40817" lon="5.64324">
        <ele>782</ele>
        <time>2023-02-16T11:17:08Z</time>
      </trkpt>
      <trkpt lat="45.40819" lon="5.64326">
        <ele>782</ele>
        <time>2023-02-16T11:17:09Z</time>
      </trkpt>
      <trkpt lat="45.4082" lon="5.64327">
        <ele>782</ele>
        <time>2023-02-16T11:17:10Z</time>
      </trkpt>
      <trkpt lat="45.40823" lon="5.6433">
        <ele>783</ele>
        <time>2023-02-16T11:17:12Z</time>
      </trkpt>
      <trkpt lat="45.40826" lon="5.64333">
        <ele>782</ele>
        <time>2023-02-16T11:17:14Z</time>
      </trkpt>
      <trkpt lat="45.40827" lon="5.64335">
        <ele>782</ele>
        <time>2023-02-16T11:17:15Z</time>
      </trkpt>
      <trkpt lat="45.40828" lon="5.64336">
        <ele>782</ele>
        <time>2023-02-16T11:17:16Z</time>
      </trkpt>
      <trkpt lat="45.4083" lon="5.64338">
        <ele>782</ele>
        <time>2023-02-16T11:17:17Z</time>
      </trkpt>
      <trkpt lat="45.40832" lon="5.6434">
        <ele>783</ele>
        <time>2023-02-16T11:17:18Z</time>
      </trkpt>
      <trkpt lat="45.40833" lon="5.64341">
        <ele>783</ele>
        <time>2023-02-16T11:17:19Z</time>
      </trkpt>
      <trkpt lat="45.4084" lon="5.6435">
        <ele>783</ele>
        <time>2023-02-16T11:17:24Z</time>
      </trkpt>
      <trkpt lat="45.40842" lon="5.64354">
        <ele>784</ele>
        <time>2023-02-16T11:17:26Z</time>
      </trkpt>
      <trkpt lat="45.40843" lon="5.64356">
        <ele>784</ele>
        <time>2023-02-16T11:17:27Z</time>
      </trkpt>
      <trkpt lat="45.40845" lon="5.64361">
        <ele>784</ele>
        <time>2023-02-16T11:17:29Z</time>
      </trkpt>
      <trkpt lat="45.40846" lon="5.64363">
        <ele>784</ele>
        <time>2023-02-16T11:17:30Z</time>
      </trkpt>
      <trkpt lat="45.40847" lon="5.64367">
        <ele>784</ele>
        <time>2023-02-16T11:17:32Z</time>
      </trkpt>
      <trkpt lat="45.40848" lon="5.6437">
        <ele>786</ele>
        <time>2023-02-16T11:17:33Z</time>
      </trkpt>
      <trkpt lat="45.40849" lon="5.64372">
        <ele>786</ele>
        <time>2023-02-16T11:17:34Z</time>
      </trkpt>
      <trkpt lat="45.40849" lon="5.64375">
        <ele>786</ele>
        <time>2023-02-16T11:17:35Z</time>
      </trkpt>
      <trkpt lat="45.4085" lon="5.6438">
        <ele>786</ele>
        <time>2023-02-16T11:17:37Z</time>
      </trkpt>
      <trkpt lat="45.40851" lon="5.64385">
        <ele>786</ele>
        <time>2023-02-16T11:17:39Z</time>
      </trkpt>
      <trkpt lat="45.40851" lon="5.6439">
        <ele>787</ele>
        <time>2023-02-16T11:17:41Z</time>
      </trkpt>
      <trkpt lat="45.40851" lon="5.64395">
        <ele>788</ele>
        <time>2023-02-16T11:17:43Z</time>
      </trkpt>
      <trkpt lat="45.4085" lon="5.64399">
        <ele>788</ele>
        <time>2023-02-16T11:17:45Z</time>
      </trkpt>
      <trkpt lat="45.4085" lon="5.64403">
        <ele>788</ele>
        <time>2023-02-16T11:17:47Z</time>
      </trkpt>
      <trkpt lat="45.4085" lon="5.64408">
        <ele>789</ele>
        <time>2023-02-16T11:17:49Z</time>
      </trkpt>
      <trkpt lat="45.4085" lon="5.64413">
        <ele>789</ele>
        <time>2023-02-16T11:17:51Z</time>
      </trkpt>
      <trkpt lat="45.4085" lon="5.64418">
        <ele>789</ele>
        <time>2023-02-16T11:17:53Z</time>
      </trkpt>
      <trkpt lat="45.40851" lon="5.64422">
        <ele>789</ele>
        <time>2023-02-16T11:17:55Z</time>
      </trkpt>
      <trkpt lat="45.40851" lon="5.64427">
        <ele>790</ele>
        <time>2023-02-16T11:17:57Z</time>
      </trkpt>
      <trkpt lat="45.40851" lon="5.64432">
        <ele>790</ele>
        <time>2023-02-16T11:17:59Z</time>
      </trkpt>
      <trkpt lat="45.40851" lon="5.64435">
        <ele>790</ele>
        <time>2023-02-16T11:18:00Z</time>
      </trkpt>
      <trkpt lat="45.40852" lon="5.64438">
        <ele>791</ele>
        <time>2023-02-16T11:18:01Z</time>
      </trkpt>
      <trkpt lat="45.40852" lon="5.6444">
        <ele>791</ele>
        <time>2023-02-16T11:18:02Z</time>
      </trkpt>
      <trkpt lat="45.40852" lon="5.64443">
        <ele>791</ele>
        <time>2023-02-16T11:18:03Z</time>
      </trkpt>
      <trkpt lat="45.40852" lon="5.64446">
        <ele>791</ele>
        <time>2023-02-16T11:18:04Z</time>
      </trkpt>
      <trkpt lat="45.40853" lon="5.64449">
        <ele>791</ele>
        <time>2023-02-16T11:18:05Z</time>
      </trkpt>
      <trkpt lat="45.40853" lon="5.64452">
        <ele>791</ele>
        <time>2023-02-16T11:18:06Z</time>
      </trkpt>
      <trkpt lat="45.40854" lon="5.64454">
        <ele>791</ele>
        <time>2023-02-16T11:18:07Z</time>
      </trkpt>
      <trkpt lat="45.40854" lon="5.64457">
        <ele>791</ele>
        <time>2023-02-16T11:18:08Z</time>
      </trkpt>
      <trkpt lat="45.40855" lon="5.64459">
        <ele>791</ele>
        <time>2023-02-16T11:18:09Z</time>
      </trkpt>
      <trkpt lat="45.40856" lon="5.64462">
        <ele>791</ele>
        <time>2023-02-16T11:18:10Z</time>
      </trkpt>
      <trkpt lat="45.40857" lon="5.64464">
        <ele>791</ele>
        <time>2023-02-16T11:18:11Z</time>
      </trkpt>
      <trkpt lat="45.40858" lon="5.64466">
        <ele>791</ele>
        <time>2023-02-16T11:18:12Z</time>
      </trkpt>
      <trkpt lat="45.40859" lon="5.64469">
        <ele>791</ele>
        <time>2023-02-16T11:18:13Z</time>
      </trkpt>
      <trkpt lat="45.40859" lon="5.64471">
        <ele>791</ele>
        <time>2023-02-16T11:18:14Z</time>
      </trkpt>
      <trkpt lat="45.4086" lon="5.64473">
        <ele>791</ele>
        <time>2023-02-16T11:18:15Z</time>
      </trkpt>
      <trkpt lat="45.40861" lon="5.64476">
        <ele>792</ele>
        <time>2023-02-16T11:18:16Z</time>
      </trkpt>
      <trkpt lat="45.40862" lon="5.6448">
        <ele>792</ele>
        <time>2023-02-16T11:18:18Z</time>
      </trkpt>
      <trkpt lat="45.40863" lon="5.64481">
        <ele>791</ele>
        <time>2023-02-16T11:18:27Z</time>
      </trkpt>
      <trkpt lat="45.40864" lon="5.64489">
        <ele>792</ele>
        <time>2023-02-16T11:19:31Z</time>
      </trkpt>
      <trkpt lat="45.40864" lon="5.64492">
        <ele>792</ele>
        <time>2023-02-16T11:19:32Z</time>
      </trkpt>
      <trkpt lat="45.40865" lon="5.64496">
        <ele>792</ele>
        <time>2023-02-16T11:19:33Z</time>
      </trkpt>
      <trkpt lat="45.40866" lon="5.645">
        <ele>792</ele>
        <time>2023-02-16T11:19:34Z</time>
      </trkpt>
      <trkpt lat="45.40868" lon="5.64504">
        <ele>792</ele>
        <time>2023-02-16T11:19:35Z</time>
      </trkpt>
      <trkpt lat="45.40869" lon="5.64509">
        <ele>792</ele>
        <time>2023-02-16T11:19:36Z</time>
      </trkpt>
      <trkpt lat="45.40871" lon="5.64514">
        <ele>792</ele>
        <time>2023-02-16T11:19:37Z</time>
      </trkpt>
      <trkpt lat="45.40873" lon="5.64519">
        <ele>792</ele>
        <time>2023-02-16T11:19:38Z</time>
      </trkpt>
      <trkpt lat="45.40875" lon="5.64525">
        <ele>792</ele>
        <time>2023-02-16T11:19:39Z</time>
      </trkpt>
      <trkpt lat="45.40877" lon="5.64531">
        <ele>792</ele>
        <time>2023-02-16T11:19:40Z</time>
      </trkpt>
      <trkpt lat="45.40878" lon="5.64537">
        <ele>792</ele>
        <time>2023-02-16T11:19:41Z</time>
      </trkpt>
      <trkpt lat="45.4088" lon="5.64543">
        <ele>792</ele>
        <time>2023-02-16T11:19:42Z</time>
      </trkpt>
      <trkpt lat="45.40882" lon="5.64549">
        <ele>792</ele>
        <time>2023-02-16T11:19:43Z</time>
      </trkpt>
      <trkpt lat="45.40884" lon="5.64556">
        <ele>791</ele>
        <time>2023-02-16T11:19:44Z</time>
      </trkpt>
      <trkpt lat="45.40885" lon="5.64562">
        <ele>791</ele>
        <time>2023-02-16T11:19:45Z</time>
      </trkpt>
      <trkpt lat="45.40887" lon="5.64568">
        <ele>791</ele>
        <time>2023-02-16T11:19:46Z</time>
      </trkpt>
      <trkpt lat="45.40889" lon="5.64575">
        <ele>791</ele>
        <time>2023-02-16T11:19:47Z</time>
      </trkpt>
      <trkpt lat="45.4089" lon="5.64581">
        <ele>791</ele>
        <time>2023-02-16T11:19:48Z</time>
      </trkpt>
      <trkpt lat="45.40892" lon="5.64587">
        <ele>791</ele>
        <time>2023-02-16T11:19:49Z</time>
      </trkpt>
      <trkpt lat="45.40893" lon="5.64594">
        <ele>791</ele>
        <time>2023-02-16T11:19:50Z</time>
      </trkpt>
      <trkpt lat="45.40895" lon="5.646">
        <ele>792</ele>
        <time>2023-02-16T11:19:51Z</time>
      </trkpt>
      <trkpt lat="45.40896" lon="5.64606">
        <ele>792</ele>
        <time>2023-02-16T11:19:52Z</time>
      </trkpt>
      <trkpt lat="45.40897" lon="5.64611">
        <ele>792</ele>
        <time>2023-02-16T11:19:53Z</time>
      </trkpt>
      <trkpt lat="45.40898" lon="5.64617">
        <ele>792</ele>
        <time>2023-02-16T11:19:54Z</time>
      </trkpt>
      <trkpt lat="45.40899" lon="5.64622">
        <ele>792</ele>
        <time>2023-02-16T11:19:55Z</time>
      </trkpt>
      <trkpt lat="45.409" lon="5.64626">
        <ele>792</ele>
        <time>2023-02-16T11:19:56Z</time>
      </trkpt>
      <trkpt lat="45.40902" lon="5.6463">
        <ele>792</ele>
        <time>2023-02-16T11:19:57Z</time>
      </trkpt>
      <trkpt lat="45.40903" lon="5.64634">
        <ele>792</ele>
        <time>2023-02-16T11:19:58Z</time>
      </trkpt>
      <trkpt lat="45.40904" lon="5.64638">
        <ele>792</ele>
        <time>2023-02-16T11:19:59Z</time>
      </trkpt>
      <trkpt lat="45.40905" lon="5.64641">
        <ele>792</ele>
        <time>2023-02-16T11:20:00Z</time>
      </trkpt>
      <trkpt lat="45.40907" lon="5.64645">
        <ele>792</ele>
        <time>2023-02-16T11:20:01Z</time>
      </trkpt>
      <trkpt lat="45.40908" lon="5.64648">
        <ele>793</ele>
        <time>2023-02-16T11:20:02Z</time>
      </trkpt>
      <trkpt lat="45.40909" lon="5.6465">
        <ele>793</ele>
        <time>2023-02-16T11:20:03Z</time>
      </trkpt>
      <trkpt lat="45.40911" lon="5.64653">
        <ele>793</ele>
        <time>2023-02-16T11:20:04Z</time>
      </trkpt>
      <trkpt lat="45.40912" lon="5.64656">
        <ele>793</ele>
        <time>2023-02-16T11:20:05Z</time>
      </trkpt>
      <trkpt lat="45.40913" lon="5.64659">
        <ele>794</ele>
        <time>2023-02-16T11:20:06Z</time>
      </trkpt>
      <trkpt lat="45.40915" lon="5.64661">
        <ele>794</ele>
        <time>2023-02-16T11:20:07Z</time>
      </trkpt>
      <trkpt lat="45.40916" lon="5.64664">
        <ele>794</ele>
        <time>2023-02-16T11:20:08Z</time>
      </trkpt>
      <trkpt lat="45.40918" lon="5.64666">
        <ele>794</ele>
        <time>2023-02-16T11:20:09Z</time>
      </trkpt>
      <trkpt lat="45.40919" lon="5.64669">
        <ele>794</ele>
        <time>2023-02-16T11:20:10Z</time>
      </trkpt>
      <trkpt lat="45.40921" lon="5.64671">
        <ele>794</ele>
        <time>2023-02-16T11:20:11Z</time>
      </trkpt>
      <trkpt lat="45.40922" lon="5.64673">
        <ele>794</ele>
        <time>2023-02-16T11:20:12Z</time>
      </trkpt>
      <trkpt lat="45.40924" lon="5.64675">
        <ele>795</ele>
        <time>2023-02-16T11:20:13Z</time>
      </trkpt>
      <trkpt lat="45.40926" lon="5.64677">
        <ele>795</ele>
        <time>2023-02-16T11:20:14Z</time>
      </trkpt>
      <trkpt lat="45.40928" lon="5.64679">
        <ele>795</ele>
        <time>2023-02-16T11:20:15Z</time>
      </trkpt>
      <trkpt lat="45.4093" lon="5.64681">
        <ele>795</ele>
        <time>2023-02-16T11:20:16Z</time>
      </trkpt>
      <trkpt lat="45.40931" lon="5.64683">
        <ele>795</ele>
        <time>2023-02-16T11:20:17Z</time>
      </trkpt>
      <trkpt lat="45.40933" lon="5.64684">
        <ele>795</ele>
        <time>2023-02-16T11:20:18Z</time>
      </trkpt>
      <trkpt lat="45.40935" lon="5.64686">
        <ele>795</ele>
        <time>2023-02-16T11:20:19Z</time>
      </trkpt>
      <trkpt lat="45.40937" lon="5.64687">
        <ele>795</ele>
        <time>2023-02-16T11:20:20Z</time>
      </trkpt>
      <trkpt lat="45.40939" lon="5.64689">
        <ele>795</ele>
        <time>2023-02-16T11:20:21Z</time>
      </trkpt>
      <trkpt lat="45.40941" lon="5.6469">
        <ele>796</ele>
        <time>2023-02-16T11:20:22Z</time>
      </trkpt>
      <trkpt lat="45.40943" lon="5.64692">
        <ele>796</ele>
        <time>2023-02-16T11:20:23Z</time>
      </trkpt>
      <trkpt lat="45.40945" lon="5.64693">
        <ele>796</ele>
        <time>2023-02-16T11:20:24Z</time>
      </trkpt>
      <trkpt lat="45.40947" lon="5.64695">
        <ele>796</ele>
        <time>2023-02-16T11:20:25Z</time>
      </trkpt>
      <trkpt lat="45.40949" lon="5.64696">
        <ele>796</ele>
        <time>2023-02-16T11:20:26Z</time>
      </trkpt>
      <trkpt lat="45.40951" lon="5.64698">
        <ele>796</ele>
        <time>2023-02-16T11:20:27Z</time>
      </trkpt>
      <trkpt lat="45.40953" lon="5.64699">
        <ele>796</ele>
        <time>2023-02-16T11:20:28Z</time>
      </trkpt>
      <trkpt lat="45.40955" lon="5.64701">
        <ele>797</ele>
        <time>2023-02-16T11:20:29Z</time>
      </trkpt>
      <trkpt lat="45.40957" lon="5.64703">
        <ele>797</ele>
        <time>2023-02-16T11:20:30Z</time>
      </trkpt>
      <trkpt lat="45.40959" lon="5.64704">
        <ele>797</ele>
        <time>2023-02-16T11:20:31Z</time>
      </trkpt>
      <trkpt lat="45.40961" lon="5.64706">
        <ele>797</ele>
        <time>2023-02-16T11:20:32Z</time>
      </trkpt>
      <trkpt lat="45.40963" lon="5.64708">
        <ele>797</ele>
        <time>2023-02-16T11:20:33Z</time>
      </trkpt>
      <trkpt lat="45.40965" lon="5.6471">
        <ele>797</ele>
        <time>2023-02-16T11:20:34Z</time>
      </trkpt>
      <trkpt lat="45.40967" lon="5.64712">
        <ele>797</ele>
        <time>2023-02-16T11:20:35Z</time>
      </trkpt>
      <trkpt lat="45.40969" lon="5.64714">
        <ele>798</ele>
        <time>2023-02-16T11:20:36Z</time>
      </trkpt>
      <trkpt lat="45.40971" lon="5.64716">
        <ele>798</ele>
        <time>2023-02-16T11:20:37Z</time>
      </trkpt>
      <trkpt lat="45.40973" lon="5.64719">
        <ele>798</ele>
        <time>2023-02-16T11:20:38Z</time>
      </trkpt>
      <trkpt lat="45.40974" lon="5.64721">
        <ele>798</ele>
        <time>2023-02-16T11:20:39Z</time>
      </trkpt>
      <trkpt lat="45.40976" lon="5.64723">
        <ele>798</ele>
        <time>2023-02-16T11:20:40Z</time>
      </trkpt>
      <trkpt lat="45.40978" lon="5.64726">
        <ele>798</ele>
        <time>2023-02-16T11:20:41Z</time>
      </trkpt>
      <trkpt lat="45.40979" lon="5.64728">
        <ele>798</ele>
        <time>2023-02-16T11:20:42Z</time>
      </trkpt>
      <trkpt lat="45.40981" lon="5.6473">
        <ele>798</ele>
        <time>2023-02-16T11:20:43Z</time>
      </trkpt>
      <trkpt lat="45.40983" lon="5.64733">
        <ele>798</ele>
        <time>2023-02-16T11:20:44Z</time>
      </trkpt>
      <trkpt lat="45.40984" lon="5.64735">
        <ele>798</ele>
        <time>2023-02-16T11:20:45Z</time>
      </trkpt>
      <trkpt lat="45.40986" lon="5.64737">
        <ele>798</ele>
        <time>2023-02-16T11:20:46Z</time>
      </trkpt>
      <trkpt lat="45.40988" lon="5.6474">
        <ele>798</ele>
        <time>2023-02-16T11:20:47Z</time>
      </trkpt>
      <trkpt lat="45.40989" lon="5.64742">
        <ele>799</ele>
        <time>2023-02-16T11:20:48Z</time>
      </trkpt>
      <trkpt lat="45.40991" lon="5.64744">
        <ele>799</ele>
        <time>2023-02-16T11:20:49Z</time>
      </trkpt>
      <trkpt lat="45.40993" lon="5.64747">
        <ele>800</ele>
        <time>2023-02-16T11:20:50Z</time>
      </trkpt>
      <trkpt lat="45.40995" lon="5.64749">
        <ele>800</ele>
        <time>2023-02-16T11:20:51Z</time>
      </trkpt>
      <trkpt lat="45.40997" lon="5.64752">
        <ele>800</ele>
        <time>2023-02-16T11:20:52Z</time>
      </trkpt>
      <trkpt lat="45.40999" lon="5.64754">
        <ele>800</ele>
        <time>2023-02-16T11:20:53Z</time>
      </trkpt>
      <trkpt lat="45.41002" lon="5.64757">
        <ele>800</ele>
        <time>2023-02-16T11:20:54Z</time>
      </trkpt>
      <trkpt lat="45.41004" lon="5.6476">
        <ele>800</ele>
        <time>2023-02-16T11:20:55Z</time>
      </trkpt>
      <trkpt lat="45.41006" lon="5.64763">
        <ele>800</ele>
        <time>2023-02-16T11:20:56Z</time>
      </trkpt>
      <trkpt lat="45.41009" lon="5.64766">
        <ele>800</ele>
        <time>2023-02-16T11:20:57Z</time>
      </trkpt>
      <trkpt lat="45.41012" lon="5.64769">
        <ele>799</ele>
        <time>2023-02-16T11:20:58Z</time>
      </trkpt>
      <trkpt lat="45.41014" lon="5.64773">
        <ele>799</ele>
        <time>2023-02-16T11:20:59Z</time>
      </trkpt>
      <trkpt lat="45.41017" lon="5.64776">
        <ele>800</ele>
        <time>2023-02-16T11:21:00Z</time>
      </trkpt>
      <trkpt lat="45.4102" lon="5.6478">
        <ele>800</ele>
        <time>2023-02-16T11:21:01Z</time>
      </trkpt>
      <trkpt lat="45.41023" lon="5.64783">
        <ele>800</ele>
        <time>2023-02-16T11:21:02Z</time>
      </trkpt>
      <trkpt lat="45.41025" lon="5.64786">
        <ele>800</ele>
        <time>2023-02-16T11:21:03Z</time>
      </trkpt>
      <trkpt lat="45.41028" lon="5.64789">
        <ele>799</ele>
        <time>2023-02-16T11:21:04Z</time>
      </trkpt>
      <trkpt lat="45.41031" lon="5.64791">
        <ele>799</ele>
        <time>2023-02-16T11:21:05Z</time>
      </trkpt>
      <trkpt lat="45.41034" lon="5.64794">
        <ele>799</ele>
        <time>2023-02-16T11:21:06Z</time>
      </trkpt>
      <trkpt lat="45.41036" lon="5.64796">
        <ele>799</ele>
        <time>2023-02-16T11:21:07Z</time>
      </trkpt>
      <trkpt lat="45.41039" lon="5.64798">
        <ele>800</ele>
        <time>2023-02-16T11:21:08Z</time>
      </trkpt>
      <trkpt lat="45.41042" lon="5.648">
        <ele>799</ele>
        <time>2023-02-16T11:21:09Z</time>
      </trkpt>
      <trkpt lat="45.41044" lon="5.64801">
        <ele>799</ele>
        <time>2023-02-16T11:21:10Z</time>
      </trkpt>
      <trkpt lat="45.41046" lon="5.64802">
        <ele>799</ele>
        <time>2023-02-16T11:21:11Z</time>
      </trkpt>
      <trkpt lat="45.41049" lon="5.64803">
        <ele>799</ele>
        <time>2023-02-16T11:21:12Z</time>
      </trkpt>
      <trkpt lat="45.41052" lon="5.64804">
        <ele>799</ele>
        <time>2023-02-16T11:21:13Z</time>
      </trkpt>
      <trkpt lat="45.41054" lon="5.64804">
        <ele>799</ele>
        <time>2023-02-16T11:21:14Z</time>
      </trkpt>
      <trkpt lat="45.41058" lon="5.64805">
        <ele>799</ele>
        <time>2023-02-16T11:21:15Z</time>
      </trkpt>
      <trkpt lat="45.41061" lon="5.64805">
        <ele>800</ele>
        <time>2023-02-16T11:21:16Z</time>
      </trkpt>
      <trkpt lat="45.41065" lon="5.64804">
        <ele>800</ele>
        <time>2023-02-16T11:21:17Z</time>
      </trkpt>
      <trkpt lat="45.4107" lon="5.64804">
        <ele>800</ele>
        <time>2023-02-16T11:21:18Z</time>
      </trkpt>
      <trkpt lat="45.41075" lon="5.64803">
        <ele>800</ele>
        <time>2023-02-16T11:21:19Z</time>
      </trkpt>
      <trkpt lat="45.4108" lon="5.64802">
        <ele>799</ele>
        <time>2023-02-16T11:21:20Z</time>
      </trkpt>
      <trkpt lat="45.41085" lon="5.648">
        <ele>799</ele>
        <time>2023-02-16T11:21:21Z</time>
      </trkpt>
      <trkpt lat="45.4109" lon="5.64799">
        <ele>799</ele>
        <time>2023-02-16T11:21:22Z</time>
      </trkpt>
      <trkpt lat="45.41094" lon="5.64797">
        <ele>799</ele>
        <time>2023-02-16T11:21:23Z</time>
      </trkpt>
      <trkpt lat="45.41099" lon="5.64796">
        <ele>799</ele>
        <time>2023-02-16T11:21:24Z</time>
      </trkpt>
      <trkpt lat="45.41103" lon="5.64794">
        <ele>799</ele>
        <time>2023-02-16T11:21:25Z</time>
      </trkpt>
      <trkpt lat="45.41107" lon="5.64793">
        <ele>799</ele>
        <time>2023-02-16T11:21:26Z</time>
      </trkpt>
      <trkpt lat="45.41111" lon="5.64792">
        <ele>799</ele>
        <time>2023-02-16T11:21:27Z</time>
      </trkpt>
      <trkpt lat="45.41116" lon="5.64791">
        <ele>799</ele>
        <time>2023-02-16T11:21:28Z</time>
      </trkpt>
      <trkpt lat="45.41119" lon="5.6479">
        <ele>799</ele>
        <time>2023-02-16T11:21:29Z</time>
      </trkpt>
      <trkpt lat="45.41123" lon="5.64789">
        <ele>798</ele>
        <time>2023-02-16T11:21:30Z</time>
      </trkpt>
      <trkpt lat="45.41127" lon="5.64788">
        <ele>798</ele>
        <time>2023-02-16T11:21:31Z</time>
      </trkpt>
      <trkpt lat="45.41131" lon="5.64786">
        <ele>798</ele>
        <time>2023-02-16T11:21:32Z</time>
      </trkpt>
      <trkpt lat="45.41133" lon="5.64783">
        <ele>798</ele>
        <time>2023-02-16T11:21:33Z</time>
      </trkpt>
      <trkpt lat="45.41135" lon="5.6478">
        <ele>798</ele>
        <time>2023-02-16T11:21:34Z</time>
      </trkpt>
      <trkpt lat="45.41136" lon="5.64777">
        <ele>798</ele>
        <time>2023-02-16T11:21:35Z</time>
      </trkpt>
      <trkpt lat="45.41137" lon="5.64774">
        <ele>799</ele>
        <time>2023-02-16T11:21:36Z</time>
      </trkpt>
      <trkpt lat="45.41138" lon="5.64771">
        <ele>799</ele>
        <time>2023-02-16T11:21:37Z</time>
      </trkpt>
      <trkpt lat="45.41139" lon="5.64767">
        <ele>799</ele>
        <time>2023-02-16T11:21:38Z</time>
      </trkpt>
      <trkpt lat="45.4114" lon="5.64764">
        <ele>799</ele>
        <time>2023-02-16T11:21:39Z</time>
      </trkpt>
      <trkpt lat="45.4114" lon="5.64761">
        <ele>799</ele>
        <time>2023-02-16T11:21:40Z</time>
      </trkpt>
      <trkpt lat="45.41141" lon="5.64757">
        <ele>799</ele>
        <time>2023-02-16T11:21:41Z</time>
      </trkpt>
      <trkpt lat="45.41141" lon="5.64754">
        <ele>799</ele>
        <time>2023-02-16T11:21:42Z</time>
      </trkpt>
      <trkpt lat="45.41142" lon="5.64751">
        <ele>800</ele>
        <time>2023-02-16T11:21:43Z</time>
      </trkpt>
      <trkpt lat="45.41143" lon="5.64749">
        <ele>800</ele>
        <time>2023-02-16T11:21:44Z</time>
      </trkpt>
      <trkpt lat="45.41144" lon="5.64746">
        <ele>800</ele>
        <time>2023-02-16T11:21:45Z</time>
      </trkpt>
      <trkpt lat="45.41145" lon="5.64743">
        <ele>801</ele>
        <time>2023-02-16T11:21:46Z</time>
      </trkpt>
      <trkpt lat="45.41147" lon="5.64741">
        <ele>801</ele>
        <time>2023-02-16T11:21:47Z</time>
      </trkpt>
      <trkpt lat="45.41148" lon="5.64738">
        <ele>801</ele>
        <time>2023-02-16T11:21:48Z</time>
      </trkpt>
      <trkpt lat="45.4115" lon="5.64735">
        <ele>801</ele>
        <time>2023-02-16T11:21:49Z</time>
      </trkpt>
      <trkpt lat="45.41151" lon="5.64733">
        <ele>801</ele>
        <time>2023-02-16T11:21:50Z</time>
      </trkpt>
      <trkpt lat="45.41153" lon="5.64731">
        <ele>801</ele>
        <time>2023-02-16T11:21:51Z</time>
      </trkpt>
      <trkpt lat="45.41155" lon="5.64729">
        <ele>801</ele>
        <time>2023-02-16T11:21:52Z</time>
      </trkpt>
      <trkpt lat="45.41157" lon="5.64727">
        <ele>801</ele>
        <time>2023-02-16T11:21:53Z</time>
      </trkpt>
      <trkpt lat="45.41158" lon="5.64725">
        <ele>801</ele>
        <time>2023-02-16T11:21:54Z</time>
      </trkpt>
      <trkpt lat="45.4116" lon="5.64723">
        <ele>802</ele>
        <time>2023-02-16T11:21:55Z</time>
      </trkpt>
      <trkpt lat="45.41162" lon="5.64722">
        <ele>802</ele>
        <time>2023-02-16T11:21:56Z</time>
      </trkpt>
      <trkpt lat="45.41164" lon="5.6472">
        <ele>803</ele>
        <time>2023-02-16T11:21:57Z</time>
      </trkpt>
      <trkpt lat="45.41166" lon="5.64719">
        <ele>803</ele>
        <time>2023-02-16T11:21:58Z</time>
      </trkpt>
      <trkpt lat="45.41168" lon="5.64718">
        <ele>803</ele>
        <time>2023-02-16T11:21:59Z</time>
      </trkpt>
      <trkpt lat="45.4117" lon="5.64717">
        <ele>803</ele>
        <time>2023-02-16T11:22:00Z</time>
      </trkpt>
      <trkpt lat="45.41173" lon="5.64716">
        <ele>804</ele>
        <time>2023-02-16T11:22:01Z</time>
      </trkpt>
      <trkpt lat="45.41175" lon="5.64715">
        <ele>804</ele>
        <time>2023-02-16T11:22:02Z</time>
      </trkpt>
      <trkpt lat="45.41177" lon="5.64713">
        <ele>804</ele>
        <time>2023-02-16T11:22:03Z</time>
      </trkpt>
      <trkpt lat="45.4118" lon="5.64712">
        <ele>804</ele>
        <time>2023-02-16T11:22:04Z</time>
      </trkpt>
      <trkpt lat="45.41182" lon="5.64711">
        <ele>804</ele>
        <time>2023-02-16T11:22:05Z</time>
      </trkpt>
      <trkpt lat="45.41185" lon="5.6471">
        <ele>804</ele>
        <time>2023-02-16T11:22:06Z</time>
      </trkpt>
      <trkpt lat="45.41187" lon="5.64709">
        <ele>804</ele>
        <time>2023-02-16T11:22:07Z</time>
      </trkpt>
      <trkpt lat="45.4119" lon="5.64708">
        <ele>804</ele>
        <time>2023-02-16T11:22:08Z</time>
      </trkpt>
      <trkpt lat="45.41192" lon="5.64707">
        <ele>804</ele>
        <time>2023-02-16T11:22:09Z</time>
      </trkpt>
      <trkpt lat="45.41195" lon="5.64706">
        <ele>804</ele>
        <time>2023-02-16T11:22:10Z</time>
      </trkpt>
      <trkpt lat="45.41198" lon="5.64704">
        <ele>804</ele>
        <time>2023-02-16T11:22:11Z</time>
      </trkpt>
      <trkpt lat="45.41201" lon="5.64703">
        <ele>804</ele>
        <time>2023-02-16T11:22:12Z</time>
      </trkpt>
      <trkpt lat="45.41204" lon="5.64702">
        <ele>804</ele>
        <time>2023-02-16T11:22:13Z</time>
      </trkpt>
      <trkpt lat="45.41207" lon="5.64701">
        <ele>804</ele>
        <time>2023-02-16T11:22:14Z</time>
      </trkpt>
      <trkpt lat="45.4121" lon="5.64699">
        <ele>804</ele>
        <time>2023-02-16T11:22:15Z</time>
      </trkpt>
      <trkpt lat="45.41214" lon="5.64698">
        <ele>804</ele>
        <time>2023-02-16T11:22:16Z</time>
      </trkpt>
      <trkpt lat="45.41218" lon="5.64696">
        <ele>804</ele>
        <time>2023-02-16T11:22:17Z</time>
      </trkpt>
      <trkpt lat="45.41222" lon="5.64695">
        <ele>804</ele>
        <time>2023-02-16T11:22:18Z</time>
      </trkpt>
      <trkpt lat="45.41226" lon="5.64694">
        <ele>804</ele>
        <time>2023-02-16T11:22:19Z</time>
      </trkpt>
      <trkpt lat="45.41231" lon="5.64693">
        <ele>804</ele>
        <time>2023-02-16T11:22:20Z</time>
      </trkpt>
      <trkpt lat="45.41235" lon="5.64692">
        <ele>804</ele>
        <time>2023-02-16T11:22:21Z</time>
      </trkpt>
      <trkpt lat="45.41239" lon="5.64691">
        <ele>804</ele>
        <time>2023-02-16T11:22:22Z</time>
      </trkpt>
      <trkpt lat="45.41243" lon="5.6469">
        <ele>803</ele>
        <time>2023-02-16T11:22:23Z</time>
      </trkpt>
      <trkpt lat="45.41248" lon="5.64689">
        <ele>803</ele>
        <time>2023-02-16T11:22:24Z</time>
      </trkpt>
      <trkpt lat="45.41252" lon="5.64688">
        <ele>803</ele>
        <time>2023-02-16T11:22:25Z</time>
      </trkpt>
      <trkpt lat="45.41256" lon="5.64688">
        <ele>803</ele>
        <time>2023-02-16T11:22:26Z</time>
      </trkpt>
      <trkpt lat="45.4126" lon="5.64687">
        <ele>804</ele>
        <time>2023-02-16T11:22:27Z</time>
      </trkpt>
      <trkpt lat="45.41265" lon="5.64686">
        <ele>804</ele>
        <time>2023-02-16T11:22:28Z</time>
      </trkpt>
      <trkpt lat="45.41269" lon="5.64685">
        <ele>804</ele>
        <time>2023-02-16T11:22:29Z</time>
      </trkpt>
      <trkpt lat="45.41273" lon="5.64685">
        <ele>804</ele>
        <time>2023-02-16T11:22:30Z</time>
      </trkpt>
      <trkpt lat="45.41277" lon="5.64684">
        <ele>804</ele>
        <time>2023-02-16T11:22:31Z</time>
      </trkpt>
      <trkpt lat="45.41281" lon="5.64684">
        <ele>805</ele>
        <time>2023-02-16T11:22:32Z</time>
      </trkpt>
      <trkpt lat="45.41284" lon="5.64683">
        <ele>805</ele>
        <time>2023-02-16T11:22:33Z</time>
      </trkpt>
      <trkpt lat="45.41288" lon="5.64683">
        <ele>805</ele>
        <time>2023-02-16T11:22:34Z</time>
      </trkpt>
      <trkpt lat="45.41292" lon="5.64683">
        <ele>805</ele>
        <time>2023-02-16T11:22:35Z</time>
      </trkpt>
      <trkpt lat="45.41295" lon="5.64683">
        <ele>805</ele>
        <time>2023-02-16T11:22:36Z</time>
      </trkpt>
      <trkpt lat="45.41298" lon="5.64684">
        <ele>805</ele>
        <time>2023-02-16T11:22:37Z</time>
      </trkpt>
      <trkpt lat="45.41301" lon="5.64685">
        <ele>805</ele>
        <time>2023-02-16T11:22:38Z</time>
      </trkpt>
      <trkpt lat="45.41303" lon="5.64686">
        <ele>805</ele>
        <time>2023-02-16T11:22:39Z</time>
      </trkpt>
      <trkpt lat="45.41306" lon="5.64687">
        <ele>805</ele>
        <time>2023-02-16T11:22:40Z</time>
      </trkpt>
      <trkpt lat="45.41309" lon="5.64688">
        <ele>805</ele>
        <time>2023-02-16T11:22:41Z</time>
      </trkpt>
      <trkpt lat="45.41311" lon="5.64689">
        <ele>805</ele>
        <time>2023-02-16T11:22:42Z</time>
      </trkpt>
      <trkpt lat="45.41314" lon="5.6469">
        <ele>805</ele>
        <time>2023-02-16T11:22:43Z</time>
      </trkpt>
      <trkpt lat="45.41316" lon="5.64692">
        <ele>805</ele>
        <time>2023-02-16T11:22:44Z</time>
      </trkpt>
      <trkpt lat="45.41319" lon="5.64693">
        <ele>806</ele>
        <time>2023-02-16T11:22:45Z</time>
      </trkpt>
      <trkpt lat="45.41321" lon="5.64694">
        <ele>806</ele>
        <time>2023-02-16T11:22:46Z</time>
      </trkpt>
      <trkpt lat="45.41324" lon="5.64696">
        <ele>807</ele>
        <time>2023-02-16T11:22:47Z</time>
      </trkpt>
      <trkpt lat="45.41326" lon="5.64697">
        <ele>807</ele>
        <time>2023-02-16T11:22:48Z</time>
      </trkpt>
      <trkpt lat="45.41329" lon="5.64699">
        <ele>807</ele>
        <time>2023-02-16T11:22:49Z</time>
      </trkpt>
      <trkpt lat="45.41331" lon="5.647">
        <ele>807</ele>
        <time>2023-02-16T11:22:50Z</time>
      </trkpt>
      <trkpt lat="45.41334" lon="5.64702">
        <ele>808</ele>
        <time>2023-02-16T11:22:51Z</time>
      </trkpt>
      <trkpt lat="45.41336" lon="5.64703">
        <ele>808</ele>
        <time>2023-02-16T11:22:52Z</time>
      </trkpt>
      <trkpt lat="45.41339" lon="5.64705">
        <ele>808</ele>
        <time>2023-02-16T11:22:53Z</time>
      </trkpt>
      <trkpt lat="45.41342" lon="5.64706">
        <ele>808</ele>
        <time>2023-02-16T11:22:54Z</time>
      </trkpt>
      <trkpt lat="45.41344" lon="5.64707">
        <ele>808</ele>
        <time>2023-02-16T11:22:55Z</time>
      </trkpt>
      <trkpt lat="45.41347" lon="5.64709">
        <ele>808</ele>
        <time>2023-02-16T11:22:56Z</time>
      </trkpt>
      <trkpt lat="45.4135" lon="5.6471">
        <ele>808</ele>
        <time>2023-02-16T11:22:57Z</time>
      </trkpt>
      <trkpt lat="45.41352" lon="5.64712">
        <ele>808</ele>
        <time>2023-02-16T11:22:58Z</time>
      </trkpt>
      <trkpt lat="45.41355" lon="5.64713">
        <ele>808</ele>
        <time>2023-02-16T11:22:59Z</time>
      </trkpt>
      <trkpt lat="45.41358" lon="5.64715">
        <ele>808</ele>
        <time>2023-02-16T11:23:00Z</time>
      </trkpt>
      <trkpt lat="45.41361" lon="5.64716">
        <ele>808</ele>
        <time>2023-02-16T11:23:01Z</time>
      </trkpt>
      <trkpt lat="45.41363" lon="5.64718">
        <ele>808</ele>
        <time>2023-02-16T11:23:02Z</time>
      </trkpt>
      <trkpt lat="45.41366" lon="5.64719">
        <ele>807</ele>
        <time>2023-02-16T11:23:03Z</time>
      </trkpt>
      <trkpt lat="45.41368" lon="5.6472">
        <ele>807</ele>
        <time>2023-02-16T11:23:04Z</time>
      </trkpt>
      <trkpt lat="45.4137" lon="5.64722">
        <ele>807</ele>
        <time>2023-02-16T11:23:05Z</time>
      </trkpt>
      <trkpt lat="45.41372" lon="5.64723">
        <ele>808</ele>
        <time>2023-02-16T11:23:06Z</time>
      </trkpt>
      <trkpt lat="45.41374" lon="5.64725">
        <ele>808</ele>
        <time>2023-02-16T11:23:07Z</time>
      </trkpt>
      <trkpt lat="45.41376" lon="5.64726">
        <ele>808</ele>
        <time>2023-02-16T11:23:08Z</time>
      </trkpt>
      <trkpt lat="45.41379" lon="5.64727">
        <ele>808</ele>
        <time>2023-02-16T11:23:09Z</time>
      </trkpt>
      <trkpt lat="45.4138" lon="5.64727">
        <ele>810</ele>
        <time>2023-02-16T11:23:10Z</time>
      </trkpt>
      <trkpt lat="45.41382" lon="5.64728">
        <ele>810</ele>
        <time>2023-02-16T11:23:11Z</time>
      </trkpt>
      <trkpt lat="45.41384" lon="5.64729">
        <ele>810</ele>
        <time>2023-02-16T11:23:12Z</time>
      </trkpt>
      <trkpt lat="45.41387" lon="5.64729">
        <ele>810</ele>
        <time>2023-02-16T11:23:14Z</time>
      </trkpt>
      <trkpt lat="45.4139" lon="5.6473">
        <ele>811</ele>
        <time>2023-02-16T11:23:16Z</time>
      </trkpt>
      <trkpt lat="45.41394" lon="5.64731">
        <ele>811</ele>
        <time>2023-02-16T11:23:18Z</time>
      </trkpt>
      <trkpt lat="45.41395" lon="5.64732">
        <ele>811</ele>
        <time>2023-02-16T11:23:19Z</time>
      </trkpt>
      <trkpt lat="45.41399" lon="5.64733">
        <ele>812</ele>
        <time>2023-02-16T11:23:21Z</time>
      </trkpt>
      <trkpt lat="45.41401" lon="5.64733">
        <ele>812</ele>
        <time>2023-02-16T11:23:22Z</time>
      </trkpt>
      <trkpt lat="45.41404" lon="5.64734">
        <ele>813</ele>
        <time>2023-02-16T11:23:24Z</time>
      </trkpt>
      <trkpt lat="45.41406" lon="5.64735">
        <ele>813</ele>
        <time>2023-02-16T11:23:25Z</time>
      </trkpt>
      <trkpt lat="45.41408" lon="5.64736">
        <ele>813</ele>
        <time>2023-02-16T11:23:26Z</time>
      </trkpt>
      <trkpt lat="45.4141" lon="5.64736">
        <ele>814</ele>
        <time>2023-02-16T11:23:27Z</time>
      </trkpt>
      <trkpt lat="45.41412" lon="5.64737">
        <ele>814</ele>
        <time>2023-02-16T11:23:28Z</time>
      </trkpt>
      <trkpt lat="45.41414" lon="5.64737">
        <ele>814</ele>
        <time>2023-02-16T11:23:29Z</time>
      </trkpt>
      <trkpt lat="45.41416" lon="5.64738">
        <ele>814</ele>
        <time>2023-02-16T11:23:30Z</time>
      </trkpt>
      <trkpt lat="45.41418" lon="5.64738">
        <ele>814</ele>
        <time>2023-02-16T11:23:31Z</time>
      </trkpt>
      <trkpt lat="45.4142" lon="5.64738">
        <ele>814</ele>
        <time>2023-02-16T11:23:32Z</time>
      </trkpt>
      <trkpt lat="45.41422" lon="5.64739">
        <ele>814</ele>
        <time>2023-02-16T11:23:33Z</time>
      </trkpt>
      <trkpt lat="45.41424" lon="5.64739">
        <ele>814</ele>
        <time>2023-02-16T11:23:34Z</time>
      </trkpt>
      <trkpt lat="45.41426" lon="5.64739">
        <ele>815</ele>
        <time>2023-02-16T11:23:35Z</time>
      </trkpt>
      <trkpt lat="45.41428" lon="5.6474">
        <ele>815</ele>
        <time>2023-02-16T11:23:36Z</time>
      </trkpt>
      <trkpt lat="45.41431" lon="5.6474">
        <ele>815</ele>
        <time>2023-02-16T11:23:37Z</time>
      </trkpt>
      <trkpt lat="45.41433" lon="5.64741">
        <ele>815</ele>
        <time>2023-02-16T11:23:38Z</time>
      </trkpt>
      <trkpt lat="45.41435" lon="5.64741">
        <ele>815</ele>
        <time>2023-02-16T11:23:39Z</time>
      </trkpt>
      <trkpt lat="45.41438" lon="5.64742">
        <ele>815</ele>
        <time>2023-02-16T11:23:40Z</time>
      </trkpt>
      <trkpt lat="45.4144" lon="5.64743">
        <ele>815</ele>
        <time>2023-02-16T11:23:41Z</time>
      </trkpt>
      <trkpt lat="45.41443" lon="5.64744">
        <ele>815</ele>
        <time>2023-02-16T11:23:42Z</time>
      </trkpt>
      <trkpt lat="45.41445" lon="5.64745">
        <ele>815</ele>
        <time>2023-02-16T11:23:43Z</time>
      </trkpt>
      <trkpt lat="45.41448" lon="5.64747">
        <ele>815</ele>
        <time>2023-02-16T11:23:44Z</time>
      </trkpt>
      <trkpt lat="45.41451" lon="5.64748">
        <ele>815</ele>
        <time>2023-02-16T11:23:45Z</time>
      </trkpt>
      <trkpt lat="45.41454" lon="5.6475">
        <ele>815</ele>
        <time>2023-02-16T11:23:46Z</time>
      </trkpt>
      <trkpt lat="45.41456" lon="5.64752">
        <ele>815</ele>
        <time>2023-02-16T11:23:47Z</time>
      </trkpt>
      <trkpt lat="45.41459" lon="5.64754">
        <ele>815</ele>
        <time>2023-02-16T11:23:48Z</time>
      </trkpt>
      <trkpt lat="45.41462" lon="5.64756">
        <ele>815</ele>
        <time>2023-02-16T11:23:49Z</time>
      </trkpt>
      <trkpt lat="45.41464" lon="5.64757">
        <ele>815</ele>
        <time>2023-02-16T11:23:50Z</time>
      </trkpt>
      <trkpt lat="45.41466" lon="5.64759">
        <ele>815</ele>
        <time>2023-02-16T11:23:51Z</time>
      </trkpt>
      <trkpt lat="45.41469" lon="5.64761">
        <ele>816</ele>
        <time>2023-02-16T11:23:52Z</time>
      </trkpt>
      <trkpt lat="45.41471" lon="5.64762">
        <ele>816</ele>
        <time>2023-02-16T11:23:53Z</time>
      </trkpt>
      <trkpt lat="45.41473" lon="5.64764">
        <ele>817</ele>
        <time>2023-02-16T11:23:54Z</time>
      </trkpt>
      <trkpt lat="45.41475" lon="5.64765">
        <ele>817</ele>
        <time>2023-02-16T11:23:55Z</time>
      </trkpt>
      <trkpt lat="45.41477" lon="5.64767">
        <ele>817</ele>
        <time>2023-02-16T11:23:56Z</time>
      </trkpt>
      <trkpt lat="45.41479" lon="5.64769">
        <ele>817</ele>
        <time>2023-02-16T11:23:57Z</time>
      </trkpt>
      <trkpt lat="45.4148" lon="5.64771">
        <ele>817</ele>
        <time>2023-02-16T11:23:58Z</time>
      </trkpt>
      <trkpt lat="45.41482" lon="5.64772">
        <ele>817</ele>
        <time>2023-02-16T11:23:59Z</time>
      </trkpt>
      <trkpt lat="45.41484" lon="5.64774">
        <ele>817</ele>
        <time>2023-02-16T11:24:00Z</time>
      </trkpt>
      <trkpt lat="45.41486" lon="5.64776">
        <ele>817</ele>
        <time>2023-02-16T11:24:01Z</time>
      </trkpt>
      <trkpt lat="45.41488" lon="5.64777">
        <ele>817</ele>
        <time>2023-02-16T11:24:02Z</time>
      </trkpt>
      <trkpt lat="45.4149" lon="5.64779">
        <ele>817</ele>
        <time>2023-02-16T11:24:03Z</time>
      </trkpt>
      <trkpt lat="45.41491" lon="5.6478">
        <ele>817</ele>
        <time>2023-02-16T11:24:04Z</time>
      </trkpt>
      <trkpt lat="45.41493" lon="5.64782">
        <ele>818</ele>
        <time>2023-02-16T11:24:05Z</time>
      </trkpt>
      <trkpt lat="45.41495" lon="5.64784">
        <ele>818</ele>
        <time>2023-02-16T11:24:06Z</time>
      </trkpt>
      <trkpt lat="45.41497" lon="5.64786">
        <ele>818</ele>
        <time>2023-02-16T11:24:07Z</time>
      </trkpt>
      <trkpt lat="45.41499" lon="5.64787">
        <ele>819</ele>
        <time>2023-02-16T11:24:08Z</time>
      </trkpt>
      <trkpt lat="45.41501" lon="5.64789">
        <ele>819</ele>
        <time>2023-02-16T11:24:09Z</time>
      </trkpt>
      <trkpt lat="45.41503" lon="5.6479">
        <ele>819</ele>
        <time>2023-02-16T11:24:10Z</time>
      </trkpt>
      <trkpt lat="45.41505" lon="5.64792">
        <ele>819</ele>
        <time>2023-02-16T11:24:11Z</time>
      </trkpt>
      <trkpt lat="45.41507" lon="5.64793">
        <ele>819</ele>
        <time>2023-02-16T11:24:12Z</time>
      </trkpt>
      <trkpt lat="45.41509" lon="5.64795">
        <ele>819</ele>
        <time>2023-02-16T11:24:13Z</time>
      </trkpt>
      <trkpt lat="45.41511" lon="5.64796">
        <ele>819</ele>
        <time>2023-02-16T11:24:14Z</time>
      </trkpt>
      <trkpt lat="45.41513" lon="5.64798">
        <ele>819</ele>
        <time>2023-02-16T11:24:15Z</time>
      </trkpt>
      <trkpt lat="45.41515" lon="5.64799">
        <ele>819</ele>
        <time>2023-02-16T11:24:16Z</time>
      </trkpt>
      <trkpt lat="45.41517" lon="5.648">
        <ele>819</ele>
        <time>2023-02-16T11:24:17Z</time>
      </trkpt>
      <trkpt lat="45.41518" lon="5.64802">
        <ele>819</ele>
        <time>2023-02-16T11:24:18Z</time>
      </trkpt>
      <trkpt lat="45.4152" lon="5.64803">
        <ele>820</ele>
        <time>2023-02-16T11:24:19Z</time>
      </trkpt>
      <trkpt lat="45.41522" lon="5.64804">
        <ele>820</ele>
        <time>2023-02-16T11:24:20Z</time>
      </trkpt>
      <trkpt lat="45.41524" lon="5.64806">
        <ele>821</ele>
        <time>2023-02-16T11:24:21Z</time>
      </trkpt>
      <trkpt lat="45.41526" lon="5.64807">
        <ele>821</ele>
        <time>2023-02-16T11:24:22Z</time>
      </trkpt>
      <trkpt lat="45.41528" lon="5.64809">
        <ele>821</ele>
        <time>2023-02-16T11:24:23Z</time>
      </trkpt>
      <trkpt lat="45.4153" lon="5.6481">
        <ele>821</ele>
        <time>2023-02-16T11:24:24Z</time>
      </trkpt>
      <trkpt lat="45.41532" lon="5.64811">
        <ele>821</ele>
        <time>2023-02-16T11:24:25Z</time>
      </trkpt>
      <trkpt lat="45.41534" lon="5.64812">
        <ele>821</ele>
        <time>2023-02-16T11:24:26Z</time>
      </trkpt>
      <trkpt lat="45.41535" lon="5.64814">
        <ele>822</ele>
        <time>2023-02-16T11:24:27Z</time>
      </trkpt>
      <trkpt lat="45.41537" lon="5.64815">
        <ele>822</ele>
        <time>2023-02-16T11:24:28Z</time>
      </trkpt>
      <trkpt lat="45.41539" lon="5.64816">
        <ele>822</ele>
        <time>2023-02-16T11:24:29Z</time>
      </trkpt>
      <trkpt lat="45.41541" lon="5.64818">
        <ele>822</ele>
        <time>2023-02-16T11:24:30Z</time>
      </trkpt>
      <trkpt lat="45.41543" lon="5.64819">
        <ele>822</ele>
        <time>2023-02-16T11:24:31Z</time>
      </trkpt>
      <trkpt lat="45.41545" lon="5.64821">
        <ele>823</ele>
        <time>2023-02-16T11:24:32Z</time>
      </trkpt>
      <trkpt lat="45.41547" lon="5.64822">
        <ele>823</ele>
        <time>2023-02-16T11:24:33Z</time>
      </trkpt>
      <trkpt lat="45.41549" lon="5.64824">
        <ele>823</ele>
        <time>2023-02-16T11:24:34Z</time>
      </trkpt>
      <trkpt lat="45.41551" lon="5.64825">
        <ele>823</ele>
        <time>2023-02-16T11:24:35Z</time>
      </trkpt>
      <trkpt lat="45.41553" lon="5.64827">
        <ele>824</ele>
        <time>2023-02-16T11:24:36Z</time>
      </trkpt>
      <trkpt lat="45.41555" lon="5.64828">
        <ele>824</ele>
        <time>2023-02-16T11:24:37Z</time>
      </trkpt>
      <trkpt lat="45.41558" lon="5.6483">
        <ele>824</ele>
        <time>2023-02-16T11:24:38Z</time>
      </trkpt>
      <trkpt lat="45.4156" lon="5.64832">
        <ele>824</ele>
        <time>2023-02-16T11:24:39Z</time>
      </trkpt>
      <trkpt lat="45.41563" lon="5.64834">
        <ele>824</ele>
        <time>2023-02-16T11:24:40Z</time>
      </trkpt>
      <trkpt lat="45.41565" lon="5.64837">
        <ele>824</ele>
        <time>2023-02-16T11:24:41Z</time>
      </trkpt>
      <trkpt lat="45.41568" lon="5.64839">
        <ele>824</ele>
        <time>2023-02-16T11:24:42Z</time>
      </trkpt>
      <trkpt lat="45.41571" lon="5.64842">
        <ele>824</ele>
        <time>2023-02-16T11:24:43Z</time>
      </trkpt>
      <trkpt lat="45.41574" lon="5.64845">
        <ele>824</ele>
        <time>2023-02-16T11:24:44Z</time>
      </trkpt>
      <trkpt lat="45.41577" lon="5.64848">
        <ele>824</ele>
        <time>2023-02-16T11:24:45Z</time>
      </trkpt>
      <trkpt lat="45.4158" lon="5.64851">
        <ele>824</ele>
        <time>2023-02-16T11:24:46Z</time>
      </trkpt>
      <trkpt lat="45.41583" lon="5.64854">
        <ele>824</ele>
        <time>2023-02-16T11:24:47Z</time>
      </trkpt>
      <trkpt lat="45.41585" lon="5.64857">
        <ele>824</ele>
        <time>2023-02-16T11:24:48Z</time>
      </trkpt>
      <trkpt lat="45.41588" lon="5.64861">
        <ele>824</ele>
        <time>2023-02-16T11:24:49Z</time>
      </trkpt>
      <trkpt lat="45.41591" lon="5.64864">
        <ele>824</ele>
        <time>2023-02-16T11:24:50Z</time>
      </trkpt>
      <trkpt lat="45.41593" lon="5.64867">
        <ele>824</ele>
        <time>2023-02-16T11:24:51Z</time>
      </trkpt>
      <trkpt lat="45.41596" lon="5.64871">
        <ele>824</ele>
        <time>2023-02-16T11:24:52Z</time>
      </trkpt>
      <trkpt lat="45.41598" lon="5.64874">
        <ele>824</ele>
        <time>2023-02-16T11:24:53Z</time>
      </trkpt>
      <trkpt lat="45.41601" lon="5.64877">
        <ele>824</ele>
        <time>2023-02-16T11:24:54Z</time>
      </trkpt>
      <trkpt lat="45.41603" lon="5.6488">
        <ele>824</ele>
        <time>2023-02-16T11:24:55Z</time>
      </trkpt>
      <trkpt lat="45.41606" lon="5.64883">
        <ele>824</ele>
        <time>2023-02-16T11:24:56Z</time>
      </trkpt>
      <trkpt lat="45.41608" lon="5.64886">
        <ele>825</ele>
        <time>2023-02-16T11:24:57Z</time>
      </trkpt>
      <trkpt lat="45.41611" lon="5.64889">
        <ele>825</ele>
        <time>2023-02-16T11:24:58Z</time>
      </trkpt>
      <trkpt lat="45.41613" lon="5.64891">
        <ele>825</ele>
        <time>2023-02-16T11:24:59Z</time>
      </trkpt>
      <trkpt lat="45.41616" lon="5.64894">
        <ele>825</ele>
        <time>2023-02-16T11:25:00Z</time>
      </trkpt>
      <trkpt lat="45.41618" lon="5.64896">
        <ele>825</ele>
        <time>2023-02-16T11:25:01Z</time>
      </trkpt>
      <trkpt lat="45.41621" lon="5.64898">
        <ele>825</ele>
        <time>2023-02-16T11:25:02Z</time>
      </trkpt>
      <trkpt lat="45.41623" lon="5.649">
        <ele>825</ele>
        <time>2023-02-16T11:25:03Z</time>
      </trkpt>
      <trkpt lat="45.41626" lon="5.64902">
        <ele>825</ele>
        <time>2023-02-16T11:25:04Z</time>
      </trkpt>
      <trkpt lat="45.41628" lon="5.64903">
        <ele>825</ele>
        <time>2023-02-16T11:25:05Z</time>
      </trkpt>
      <trkpt lat="45.41631" lon="5.64905">
        <ele>825</ele>
        <time>2023-02-16T11:25:06Z</time>
      </trkpt>
      <trkpt lat="45.41633" lon="5.64906">
        <ele>825</ele>
        <time>2023-02-16T11:25:07Z</time>
      </trkpt>
      <trkpt lat="45.41635" lon="5.64908">
        <ele>825</ele>
        <time>2023-02-16T11:25:08Z</time>
      </trkpt>
      <trkpt lat="45.41638" lon="5.64909">
        <ele>825</ele>
        <time>2023-02-16T11:25:09Z</time>
      </trkpt>
      <trkpt lat="45.4164" lon="5.6491">
        <ele>826</ele>
        <time>2023-02-16T11:25:10Z</time>
      </trkpt>
      <trkpt lat="45.41642" lon="5.64912">
        <ele>826</ele>
        <time>2023-02-16T11:25:11Z</time>
      </trkpt>
      <trkpt lat="45.41645" lon="5.64913">
        <ele>826</ele>
        <time>2023-02-16T11:25:12Z</time>
      </trkpt>
      <trkpt lat="45.41647" lon="5.64914">
        <ele>826</ele>
        <time>2023-02-16T11:25:13Z</time>
      </trkpt>
      <trkpt lat="45.4165" lon="5.64916">
        <ele>826</ele>
        <time>2023-02-16T11:25:14Z</time>
      </trkpt>
      <trkpt lat="45.41653" lon="5.64918">
        <ele>827</ele>
        <time>2023-02-16T11:25:15Z</time>
      </trkpt>
      <trkpt lat="45.41656" lon="5.6492">
        <ele>827</ele>
        <time>2023-02-16T11:25:16Z</time>
      </trkpt>
      <trkpt lat="45.4166" lon="5.64922">
        <ele>827</ele>
        <time>2023-02-16T11:25:17Z</time>
      </trkpt>
      <trkpt lat="45.41663" lon="5.64924">
        <ele>827</ele>
        <time>2023-02-16T11:25:18Z</time>
      </trkpt>
      <trkpt lat="45.41667" lon="5.64926">
        <ele>827</ele>
        <time>2023-02-16T11:25:19Z</time>
      </trkpt>
      <trkpt lat="45.4167" lon="5.64928">
        <ele>827</ele>
        <time>2023-02-16T11:25:20Z</time>
      </trkpt>
      <trkpt lat="45.41674" lon="5.6493">
        <ele>827</ele>
        <time>2023-02-16T11:25:21Z</time>
      </trkpt>
      <trkpt lat="45.41677" lon="5.64932">
        <ele>827</ele>
        <time>2023-02-16T11:25:22Z</time>
      </trkpt>
      <trkpt lat="45.41681" lon="5.64934">
        <ele>827</ele>
        <time>2023-02-16T11:25:23Z</time>
      </trkpt>
      <trkpt lat="45.41684" lon="5.64936">
        <ele>827</ele>
        <time>2023-02-16T11:25:24Z</time>
      </trkpt>
      <trkpt lat="45.41688" lon="5.64939">
        <ele>827</ele>
        <time>2023-02-16T11:25:25Z</time>
      </trkpt>
      <trkpt lat="45.41691" lon="5.64941">
        <ele>827</ele>
        <time>2023-02-16T11:25:26Z</time>
      </trkpt>
      <trkpt lat="45.41695" lon="5.64943">
        <ele>827</ele>
        <time>2023-02-16T11:25:27Z</time>
      </trkpt>
      <trkpt lat="45.41699" lon="5.64945">
        <ele>827</ele>
        <time>2023-02-16T11:25:28Z</time>
      </trkpt>
      <trkpt lat="45.41702" lon="5.64947">
        <ele>827</ele>
        <time>2023-02-16T11:25:29Z</time>
      </trkpt>
      <trkpt lat="45.41706" lon="5.64949">
        <ele>827</ele>
        <time>2023-02-16T11:25:30Z</time>
      </trkpt>
      <trkpt lat="45.4171" lon="5.6495">
        <ele>827</ele>
        <time>2023-02-16T11:25:31Z</time>
      </trkpt>
      <trkpt lat="45.41713" lon="5.64952">
        <ele>827</ele>
        <time>2023-02-16T11:25:32Z</time>
      </trkpt>
      <trkpt lat="45.41717" lon="5.64953">
        <ele>828</ele>
        <time>2023-02-16T11:25:33Z</time>
      </trkpt>
      <trkpt lat="45.41721" lon="5.64954">
        <ele>828</ele>
        <time>2023-02-16T11:25:34Z</time>
      </trkpt>
      <trkpt lat="45.41725" lon="5.64955">
        <ele>828</ele>
        <time>2023-02-16T11:25:35Z</time>
      </trkpt>
      <trkpt lat="45.41729" lon="5.64956">
        <ele>828</ele>
        <time>2023-02-16T11:25:36Z</time>
      </trkpt>
      <trkpt lat="45.41732" lon="5.64956">
        <ele>828</ele>
        <time>2023-02-16T11:25:37Z</time>
      </trkpt>
      <trkpt lat="45.41736" lon="5.64957">
        <ele>828</ele>
        <time>2023-02-16T11:25:38Z</time>
      </trkpt>
      <trkpt lat="45.41739" lon="5.64957">
        <ele>828</ele>
        <time>2023-02-16T11:25:39Z</time>
      </trkpt>
      <trkpt lat="45.41743" lon="5.64957">
        <ele>828</ele>
        <time>2023-02-16T11:25:40Z</time>
      </trkpt>
      <trkpt lat="45.41747" lon="5.64957">
        <ele>828</ele>
        <time>2023-02-16T11:25:41Z</time>
      </trkpt>
      <trkpt lat="45.41751" lon="5.64957">
        <ele>829</ele>
        <time>2023-02-16T11:25:42Z</time>
      </trkpt>
      <trkpt lat="45.41756" lon="5.64957">
        <ele>829</ele>
        <time>2023-02-16T11:25:43Z</time>
      </trkpt>
      <trkpt lat="45.41762" lon="5.64957">
        <ele>829</ele>
        <time>2023-02-16T11:25:44Z</time>
      </trkpt>
      <trkpt lat="45.41767" lon="5.64956">
        <ele>829</ele>
        <time>2023-02-16T11:25:45Z</time>
      </trkpt>
      <trkpt lat="45.41773" lon="5.64954">
        <ele>829</ele>
        <time>2023-02-16T11:25:46Z</time>
      </trkpt>
      <trkpt lat="45.41778" lon="5.64952">
        <ele>829</ele>
        <time>2023-02-16T11:25:47Z</time>
      </trkpt>
      <trkpt lat="45.41783" lon="5.6495">
        <ele>829</ele>
        <time>2023-02-16T11:25:48Z</time>
      </trkpt>
      <trkpt lat="45.41788" lon="5.64947">
        <ele>829</ele>
        <time>2023-02-16T11:25:49Z</time>
      </trkpt>
      <trkpt lat="45.41792" lon="5.64944">
        <ele>828</ele>
        <time>2023-02-16T11:25:50Z</time>
      </trkpt>
      <trkpt lat="45.41795" lon="5.6494">
        <ele>828</ele>
        <time>2023-02-16T11:25:51Z</time>
      </trkpt>
      <trkpt lat="45.41798" lon="5.64937">
        <ele>827</ele>
        <time>2023-02-16T11:25:52Z</time>
      </trkpt>
      <trkpt lat="45.41801" lon="5.64934">
        <ele>827</ele>
        <time>2023-02-16T11:25:53Z</time>
      </trkpt>
      <trkpt lat="45.41803" lon="5.6493">
        <ele>828</ele>
        <time>2023-02-16T11:25:54Z</time>
      </trkpt>
      <trkpt lat="45.41806" lon="5.64927">
        <ele>828</ele>
        <time>2023-02-16T11:25:55Z</time>
      </trkpt>
      <trkpt lat="45.41808" lon="5.64924">
        <ele>828</ele>
        <time>2023-02-16T11:25:56Z</time>
      </trkpt>
      <trkpt lat="45.4181" lon="5.64921">
        <ele>828</ele>
        <time>2023-02-16T11:25:57Z</time>
      </trkpt>
      <trkpt lat="45.41811" lon="5.64918">
        <ele>829</ele>
        <time>2023-02-16T11:25:58Z</time>
      </trkpt>
      <trkpt lat="45.41813" lon="5.64914">
        <ele>829</ele>
        <time>2023-02-16T11:25:59Z</time>
      </trkpt>
      <trkpt lat="45.41814" lon="5.64911">
        <ele>829</ele>
        <time>2023-02-16T11:26:00Z</time>
      </trkpt>
      <trkpt lat="45.41815" lon="5.64908">
        <ele>829</ele>
        <time>2023-02-16T11:26:01Z</time>
      </trkpt>
      <trkpt lat="45.41816" lon="5.64904">
        <ele>829</ele>
        <time>2023-02-16T11:26:02Z</time>
      </trkpt>
      <trkpt lat="45.41817" lon="5.64901">
        <ele>829</ele>
        <time>2023-02-16T11:26:03Z</time>
      </trkpt>
      <trkpt lat="45.41817" lon="5.64897">
        <ele>829</ele>
        <time>2023-02-16T11:26:04Z</time>
      </trkpt>
      <trkpt lat="45.41818" lon="5.64894">
        <ele>829</ele>
        <time>2023-02-16T11:26:05Z</time>
      </trkpt>
      <trkpt lat="45.41818" lon="5.64891">
        <ele>829</ele>
        <time>2023-02-16T11:26:06Z</time>
      </trkpt>
      <trkpt lat="45.41818" lon="5.64887">
        <ele>829</ele>
        <time>2023-02-16T11:26:07Z</time>
      </trkpt>
      <trkpt lat="45.41818" lon="5.64884">
        <ele>829</ele>
        <time>2023-02-16T11:26:08Z</time>
      </trkpt>
      <trkpt lat="45.41819" lon="5.64881">
        <ele>829</ele>
        <time>2023-02-16T11:26:09Z</time>
      </trkpt>
      <trkpt lat="45.41818" lon="5.64877">
        <ele>830</ele>
        <time>2023-02-16T11:26:10Z</time>
      </trkpt>
      <trkpt lat="45.41818" lon="5.64874">
        <ele>830</ele>
        <time>2023-02-16T11:26:11Z</time>
      </trkpt>
      <trkpt lat="45.41817" lon="5.64872">
        <ele>830</ele>
        <time>2023-02-16T11:26:12Z</time>
      </trkpt>
      <trkpt lat="45.41817" lon="5.64869">
        <ele>830</ele>
        <time>2023-02-16T11:26:13Z</time>
      </trkpt>
      <trkpt lat="45.41816" lon="5.64867">
        <ele>830</ele>
        <time>2023-02-16T11:26:14Z</time>
      </trkpt>
      <trkpt lat="45.41815" lon="5.64864">
        <ele>830</ele>
        <time>2023-02-16T11:26:15Z</time>
      </trkpt>
      <trkpt lat="45.41815" lon="5.64861">
        <ele>831</ele>
        <time>2023-02-16T11:26:16Z</time>
      </trkpt>
      <trkpt lat="45.41815" lon="5.64857">
        <ele>831</ele>
        <time>2023-02-16T11:26:17Z</time>
      </trkpt>
      <trkpt lat="45.41815" lon="5.64854">
        <ele>832</ele>
        <time>2023-02-16T11:26:18Z</time>
      </trkpt>
      <trkpt lat="45.41815" lon="5.64851">
        <ele>832</ele>
        <time>2023-02-16T11:26:19Z</time>
      </trkpt>
      <trkpt lat="45.41814" lon="5.64848">
        <ele>833</ele>
        <time>2023-02-16T11:26:20Z</time>
      </trkpt>
      <trkpt lat="45.41813" lon="5.64845">
        <ele>834</ele>
        <time>2023-02-16T11:26:21Z</time>
      </trkpt>
      <trkpt lat="45.41812" lon="5.64843">
        <ele>834</ele>
        <time>2023-02-16T11:26:22Z</time>
      </trkpt>
      <trkpt lat="45.41812" lon="5.6484">
        <ele>834</ele>
        <time>2023-02-16T11:26:23Z</time>
      </trkpt>
      <trkpt lat="45.41811" lon="5.64837">
        <ele>834</ele>
        <time>2023-02-16T11:26:24Z</time>
      </trkpt>
      <trkpt lat="45.4181" lon="5.64835">
        <ele>835</ele>
        <time>2023-02-16T11:26:25Z</time>
      </trkpt>
      <trkpt lat="45.41809" lon="5.64832">
        <ele>835</ele>
        <time>2023-02-16T11:26:26Z</time>
      </trkpt>
      <trkpt lat="45.41808" lon="5.64829">
        <ele>835</ele>
        <time>2023-02-16T11:26:27Z</time>
      </trkpt>
      <trkpt lat="45.41807" lon="5.64826">
        <ele>835</ele>
        <time>2023-02-16T11:26:28Z</time>
      </trkpt>
      <trkpt lat="45.41807" lon="5.64824">
        <ele>835</ele>
        <time>2023-02-16T11:26:29Z</time>
      </trkpt>
      <trkpt lat="45.41806" lon="5.64821">
        <ele>835</ele>
        <time>2023-02-16T11:26:30Z</time>
      </trkpt>
      <trkpt lat="45.41806" lon="5.64819">
        <ele>836</ele>
        <time>2023-02-16T11:26:31Z</time>
      </trkpt>
      <trkpt lat="45.41805" lon="5.64816">
        <ele>836</ele>
        <time>2023-02-16T11:26:32Z</time>
      </trkpt>
      <trkpt lat="45.41805" lon="5.64813">
        <ele>836</ele>
        <time>2023-02-16T11:26:33Z</time>
      </trkpt>
      <trkpt lat="45.41804" lon="5.64811">
        <ele>837</ele>
        <time>2023-02-16T11:26:34Z</time>
      </trkpt>
      <trkpt lat="45.41803" lon="5.64808">
        <ele>837</ele>
        <time>2023-02-16T11:26:35Z</time>
      </trkpt>
      <trkpt lat="45.41803" lon="5.64805">
        <ele>837</ele>
        <time>2023-02-16T11:26:36Z</time>
      </trkpt>
      <trkpt lat="45.41803" lon="5.64801">
        <ele>837</ele>
        <time>2023-02-16T11:26:37Z</time>
      </trkpt>
      <trkpt lat="45.41803" lon="5.64798">
        <ele>837</ele>
        <time>2023-02-16T11:26:38Z</time>
      </trkpt>
      <trkpt lat="45.41802" lon="5.64795">
        <ele>837</ele>
        <time>2023-02-16T11:26:39Z</time>
      </trkpt>
      <trkpt lat="45.41802" lon="5.64792">
        <ele>837</ele>
        <time>2023-02-16T11:26:40Z</time>
      </trkpt>
      <trkpt lat="45.41802" lon="5.64789">
        <ele>837</ele>
        <time>2023-02-16T11:26:41Z</time>
      </trkpt>
      <trkpt lat="45.41801" lon="5.64785">
        <ele>837</ele>
        <time>2023-02-16T11:26:42Z</time>
      </trkpt>
      <trkpt lat="45.41801" lon="5.64782">
        <ele>837</ele>
        <time>2023-02-16T11:26:43Z</time>
      </trkpt>
      <trkpt lat="45.41801" lon="5.64779">
        <ele>837</ele>
        <time>2023-02-16T11:26:44Z</time>
      </trkpt>
      <trkpt lat="45.41801" lon="5.64776">
        <ele>837</ele>
        <time>2023-02-16T11:26:45Z</time>
      </trkpt>
      <trkpt lat="45.41801" lon="5.64773">
        <ele>837</ele>
        <time>2023-02-16T11:26:46Z</time>
      </trkpt>
      <trkpt lat="45.41801" lon="5.6477">
        <ele>837</ele>
        <time>2023-02-16T11:26:47Z</time>
      </trkpt>
      <trkpt lat="45.41802" lon="5.64767">
        <ele>837</ele>
        <time>2023-02-16T11:26:48Z</time>
      </trkpt>
      <trkpt lat="45.41802" lon="5.64764">
        <ele>837</ele>
        <time>2023-02-16T11:26:49Z</time>
      </trkpt>
      <trkpt lat="45.41803" lon="5.64761">
        <ele>837</ele>
        <time>2023-02-16T11:26:50Z</time>
      </trkpt>
      <trkpt lat="45.41803" lon="5.64758">
        <ele>837</ele>
        <time>2023-02-16T11:26:51Z</time>
      </trkpt>
      <trkpt lat="45.41804" lon="5.64755">
        <ele>837</ele>
        <time>2023-02-16T11:26:52Z</time>
      </trkpt>
      <trkpt lat="45.41805" lon="5.64752">
        <ele>837</ele>
        <time>2023-02-16T11:26:53Z</time>
      </trkpt>
      <trkpt lat="45.41806" lon="5.64749">
        <ele>838</ele>
        <time>2023-02-16T11:26:54Z</time>
      </trkpt>
      <trkpt lat="45.41806" lon="5.64747">
        <ele>838</ele>
        <time>2023-02-16T11:26:55Z</time>
      </trkpt>
      <trkpt lat="45.41807" lon="5.64744">
        <ele>838</ele>
        <time>2023-02-16T11:26:56Z</time>
      </trkpt>
      <trkpt lat="45.41808" lon="5.64739">
        <ele>838</ele>
        <time>2023-02-16T11:26:58Z</time>
      </trkpt>
      <trkpt lat="45.41808" lon="5.64738">
        <ele>838</ele>
        <time>2023-02-16T11:27:05Z</time>
      </trkpt>
      <trkpt lat="45.41809" lon="5.64733">
        <ele>839</ele>
        <time>2023-02-16T11:28:55Z</time>
      </trkpt>
      <trkpt lat="45.4181" lon="5.64728">
        <ele>839</ele>
        <time>2023-02-16T11:28:56Z</time>
      </trkpt>
      <trkpt lat="45.4181" lon="5.64725">
        <ele>839</ele>
        <time>2023-02-16T11:28:57Z</time>
      </trkpt>
      <trkpt lat="45.41811" lon="5.64721">
        <ele>839</ele>
        <time>2023-02-16T11:28:58Z</time>
      </trkpt>
      <trkpt lat="45.41812" lon="5.64717">
        <ele>839</ele>
        <time>2023-02-16T11:28:59Z</time>
      </trkpt>
      <trkpt lat="45.41814" lon="5.64713">
        <ele>839</ele>
        <time>2023-02-16T11:29:00Z</time>
      </trkpt>
      <trkpt lat="45.41815" lon="5.64708">
        <ele>839</ele>
        <time>2023-02-16T11:29:01Z</time>
      </trkpt>
      <trkpt lat="45.41818" lon="5.64703">
        <ele>839</ele>
        <time>2023-02-16T11:29:02Z</time>
      </trkpt>
      <trkpt lat="45.4182" lon="5.64697">
        <ele>839</ele>
        <time>2023-02-16T11:29:03Z</time>
      </trkpt>
      <trkpt lat="45.41823" lon="5.6469">
        <ele>839</ele>
        <time>2023-02-16T11:29:04Z</time>
      </trkpt>
      <trkpt lat="45.41827" lon="5.64683">
        <ele>839</ele>
        <time>2023-02-16T11:29:05Z</time>
      </trkpt>
      <trkpt lat="45.41831" lon="5.64675">
        <ele>837</ele>
        <time>2023-02-16T11:29:06Z</time>
      </trkpt>
      <trkpt lat="45.41835" lon="5.64667">
        <ele>837</ele>
        <time>2023-02-16T11:29:07Z</time>
      </trkpt>
      <trkpt lat="45.4184" lon="5.64659">
        <ele>836</ele>
        <time>2023-02-16T11:29:08Z</time>
      </trkpt>
      <trkpt lat="45.41844" lon="5.64652">
        <ele>834</ele>
        <time>2023-02-16T11:29:09Z</time>
      </trkpt>
      <trkpt lat="45.41849" lon="5.64645">
        <ele>834</ele>
        <time>2023-02-16T11:29:10Z</time>
      </trkpt>
      <trkpt lat="45.41853" lon="5.64639">
        <ele>834</ele>
        <time>2023-02-16T11:29:11Z</time>
      </trkpt>
      <trkpt lat="45.41858" lon="5.64633">
        <ele>834</ele>
        <time>2023-02-16T11:29:12Z</time>
      </trkpt>
      <trkpt lat="45.41862" lon="5.64627">
        <ele>834</ele>
        <time>2023-02-16T11:29:13Z</time>
      </trkpt>
      <trkpt lat="45.41866" lon="5.64622">
        <ele>834</ele>
        <time>2023-02-16T11:29:14Z</time>
      </trkpt>
      <trkpt lat="45.41869" lon="5.64616">
        <ele>834</ele>
        <time>2023-02-16T11:29:15Z</time>
      </trkpt>
      <trkpt lat="45.41873" lon="5.64609">
        <ele>834</ele>
        <time>2023-02-16T11:29:16Z</time>
      </trkpt>
      <trkpt lat="45.41876" lon="5.64603">
        <ele>834</ele>
        <time>2023-02-16T11:29:17Z</time>
      </trkpt>
      <trkpt lat="45.4188" lon="5.64596">
        <ele>834</ele>
        <time>2023-02-16T11:29:18Z</time>
      </trkpt>
      <trkpt lat="45.41883" lon="5.6459">
        <ele>834</ele>
        <time>2023-02-16T11:29:19Z</time>
      </trkpt>
      <trkpt lat="45.41886" lon="5.64584">
        <ele>834</ele>
        <time>2023-02-16T11:29:20Z</time>
      </trkpt>
      <trkpt lat="45.41889" lon="5.64578">
        <ele>834</ele>
        <time>2023-02-16T11:29:21Z</time>
      </trkpt>
      <trkpt lat="45.41892" lon="5.64572">
        <ele>834</ele>
        <time>2023-02-16T11:29:22Z</time>
      </trkpt>
      <trkpt lat="45.41895" lon="5.64566">
        <ele>834</ele>
        <time>2023-02-16T11:29:23Z</time>
      </trkpt>
      <trkpt lat="45.41898" lon="5.64561">
        <ele>834</ele>
        <time>2023-02-16T11:29:24Z</time>
      </trkpt>
      <trkpt lat="45.41902" lon="5.64556">
        <ele>834</ele>
        <time>2023-02-16T11:29:25Z</time>
      </trkpt>
      <trkpt lat="45.41905" lon="5.6455">
        <ele>834</ele>
        <time>2023-02-16T11:29:26Z</time>
      </trkpt>
      <trkpt lat="45.41908" lon="5.64545">
        <ele>834</ele>
        <time>2023-02-16T11:29:27Z</time>
      </trkpt>
      <trkpt lat="45.41911" lon="5.64541">
        <ele>834</ele>
        <time>2023-02-16T11:29:28Z</time>
      </trkpt>
      <trkpt lat="45.41914" lon="5.64536">
        <ele>834</ele>
        <time>2023-02-16T11:29:29Z</time>
      </trkpt>
      <trkpt lat="45.41917" lon="5.6453">
        <ele>834</ele>
        <time>2023-02-16T11:29:30Z</time>
      </trkpt>
      <trkpt lat="45.41921" lon="5.64524">
        <ele>834</ele>
        <time>2023-02-16T11:29:31Z</time>
      </trkpt>
      <trkpt lat="45.41924" lon="5.64519">
        <ele>834</ele>
        <time>2023-02-16T11:29:32Z</time>
      </trkpt>
      <trkpt lat="45.41927" lon="5.64514">
        <ele>834</ele>
        <time>2023-02-16T11:29:33Z</time>
      </trkpt>
      <trkpt lat="45.41931" lon="5.6451">
        <ele>834</ele>
        <time>2023-02-16T11:29:34Z</time>
      </trkpt>
      <trkpt lat="45.41933" lon="5.64505">
        <ele>834</ele>
        <time>2023-02-16T11:29:35Z</time>
      </trkpt>
      <trkpt lat="45.41936" lon="5.64501">
        <ele>834</ele>
        <time>2023-02-16T11:29:36Z</time>
      </trkpt>
      <trkpt lat="45.41939" lon="5.64497">
        <ele>834</ele>
        <time>2023-02-16T11:29:37Z</time>
      </trkpt>
      <trkpt lat="45.41942" lon="5.64492">
        <ele>834</ele>
        <time>2023-02-16T11:29:38Z</time>
      </trkpt>
      <trkpt lat="45.41945" lon="5.64486">
        <ele>834</ele>
        <time>2023-02-16T11:29:39Z</time>
      </trkpt>
      <trkpt lat="45.41948" lon="5.6448">
        <ele>834</ele>
        <time>2023-02-16T11:29:40Z</time>
      </trkpt>
      <trkpt lat="45.41951" lon="5.64474">
        <ele>834</ele>
        <time>2023-02-16T11:29:41Z</time>
      </trkpt>
      <trkpt lat="45.41955" lon="5.64468">
        <ele>834</ele>
        <time>2023-02-16T11:29:42Z</time>
      </trkpt>
      <trkpt lat="45.41958" lon="5.64463">
        <ele>834</ele>
        <time>2023-02-16T11:29:43Z</time>
      </trkpt>
      <trkpt lat="45.41961" lon="5.64458">
        <ele>834</ele>
        <time>2023-02-16T11:29:44Z</time>
      </trkpt>
      <trkpt lat="45.41964" lon="5.64453">
        <ele>834</ele>
        <time>2023-02-16T11:29:45Z</time>
      </trkpt>
      <trkpt lat="45.41967" lon="5.64448">
        <ele>834</ele>
        <time>2023-02-16T11:29:46Z</time>
      </trkpt>
      <trkpt lat="45.4197" lon="5.64443">
        <ele>834</ele>
        <time>2023-02-16T11:29:47Z</time>
      </trkpt>
      <trkpt lat="45.41973" lon="5.64439">
        <ele>834</ele>
        <time>2023-02-16T11:29:48Z</time>
      </trkpt>
      <trkpt lat="45.41976" lon="5.64435">
        <ele>834</ele>
        <time>2023-02-16T11:29:49Z</time>
      </trkpt>
      <trkpt lat="45.41979" lon="5.6443">
        <ele>834</ele>
        <time>2023-02-16T11:29:50Z</time>
      </trkpt>
      <trkpt lat="45.41982" lon="5.64425">
        <ele>834</ele>
        <time>2023-02-16T11:29:51Z</time>
      </trkpt>
      <trkpt lat="45.41985" lon="5.64421">
        <ele>834</ele>
        <time>2023-02-16T11:29:52Z</time>
      </trkpt>
      <trkpt lat="45.41987" lon="5.64416">
        <ele>834</ele>
        <time>2023-02-16T11:29:53Z</time>
      </trkpt>
      <trkpt lat="45.4199" lon="5.64412">
        <ele>834</ele>
        <time>2023-02-16T11:29:54Z</time>
      </trkpt>
      <trkpt lat="45.41992" lon="5.64408">
        <ele>834</ele>
        <time>2023-02-16T11:29:55Z</time>
      </trkpt>
      <trkpt lat="45.41994" lon="5.64404">
        <ele>834</ele>
        <time>2023-02-16T11:29:56Z</time>
      </trkpt>
      <trkpt lat="45.41997" lon="5.64401">
        <ele>834</ele>
        <time>2023-02-16T11:29:57Z</time>
      </trkpt>
      <trkpt lat="45.41999" lon="5.64397">
        <ele>834</ele>
        <time>2023-02-16T11:29:58Z</time>
      </trkpt>
      <trkpt lat="45.42001" lon="5.64394">
        <ele>834</ele>
        <time>2023-02-16T11:29:59Z</time>
      </trkpt>
      <trkpt lat="45.42002" lon="5.64392">
        <ele>835</ele>
        <time>2023-02-16T11:30:00Z</time>
      </trkpt>
      <trkpt lat="45.42004" lon="5.64389">
        <ele>835</ele>
        <time>2023-02-16T11:30:01Z</time>
      </trkpt>
      <trkpt lat="45.42013" lon="5.64379">
        <ele>835</ele>
        <time>2023-02-16T11:30:04Z</time>
      </trkpt>
      <trkpt lat="45.42019" lon="5.64373">
        <ele>835</ele>
        <time>2023-02-16T11:30:06Z</time>
      </trkpt>
      <trkpt lat="45.42026" lon="5.64369">
        <ele>835</ele>
        <time>2023-02-16T11:30:08Z</time>
      </trkpt>
      <trkpt lat="45.42031" lon="5.64368">
        <ele>835</ele>
        <time>2023-02-16T11:30:09Z</time>
      </trkpt>
      <trkpt lat="45.4204" lon="5.64366">
        <ele>835</ele>
        <time>2023-02-16T11:30:11Z</time>
      </trkpt>
      <trkpt lat="45.42044" lon="5.64366">
        <ele>835</ele>
        <time>2023-02-16T11:30:12Z</time>
      </trkpt>
      <trkpt lat="45.42048" lon="5.64365">
        <ele>835</ele>
        <time>2023-02-16T11:30:13Z</time>
      </trkpt>
      <trkpt lat="45.42056" lon="5.64362">
        <ele>835</ele>
        <time>2023-02-16T11:30:15Z</time>
      </trkpt>
      <trkpt lat="45.4206" lon="5.64362">
        <ele>835</ele>
        <time>2023-02-16T11:30:16Z</time>
      </trkpt>
      <trkpt lat="45.4207" lon="5.64362">
        <ele>835</ele>
        <time>2023-02-16T11:30:19Z</time>
      </trkpt>
      <trkpt lat="45.42081" lon="5.64364">
        <ele>836</ele>
        <time>2023-02-16T11:30:22Z</time>
      </trkpt>
      <trkpt lat="45.42091" lon="5.64367">
        <ele>836</ele>
        <time>2023-02-16T11:30:25Z</time>
      </trkpt>
      <trkpt lat="45.42099" lon="5.64372">
        <ele>836</ele>
        <time>2023-02-16T11:30:29Z</time>
      </trkpt>
      <trkpt lat="45.42101" lon="5.64374">
        <ele>836</ele>
        <time>2023-02-16T11:30:30Z</time>
      </trkpt>
      <trkpt lat="45.42103" lon="5.64375">
        <ele>836</ele>
        <time>2023-02-16T11:30:31Z</time>
      </trkpt>
      <trkpt lat="45.42105" lon="5.64377">
        <ele>838</ele>
        <time>2023-02-16T11:30:32Z</time>
      </trkpt>
      <trkpt lat="45.42107" lon="5.64379">
        <ele>838</ele>
        <time>2023-02-16T11:30:33Z</time>
      </trkpt>
      <trkpt lat="45.42108" lon="5.64381">
        <ele>838</ele>
        <time>2023-02-16T11:30:34Z</time>
      </trkpt>
      <trkpt lat="45.4211" lon="5.64382">
        <ele>838</ele>
        <time>2023-02-16T11:30:35Z</time>
      </trkpt>
      <trkpt lat="45.42113" lon="5.64385">
        <ele>838</ele>
        <time>2023-02-16T11:30:37Z</time>
      </trkpt>
      <trkpt lat="45.42114" lon="5.64388">
        <ele>839</ele>
        <time>2023-02-16T11:30:39Z</time>
      </trkpt>
      <trkpt lat="45.42115" lon="5.64391">
        <ele>839</ele>
        <time>2023-02-16T11:30:41Z</time>
      </trkpt>
      <trkpt lat="45.42115" lon="5.64394">
        <ele>840</ele>
        <time>2023-02-16T11:30:44Z</time>
      </trkpt>
      <trkpt lat="45.42116" lon="5.64396">
        <ele>840</ele>
        <time>2023-02-16T11:30:48Z</time>
      </trkpt>
      <trkpt lat="45.42117" lon="5.64399">
        <ele>840</ele>
        <time>2023-02-16T11:30:49Z</time>
      </trkpt>
      <trkpt lat="45.42119" lon="5.64403">
        <ele>840</ele>
        <time>2023-02-16T11:30:51Z</time>
      </trkpt>
      <trkpt lat="45.42121" lon="5.64405">
        <ele>842</ele>
        <time>2023-02-16T11:30:52Z</time>
      </trkpt>
      <trkpt lat="45.42123" lon="5.64407">
        <ele>842</ele>
        <time>2023-02-16T11:30:53Z</time>
      </trkpt>
      <trkpt lat="45.42124" lon="5.6441">
        <ele>842</ele>
        <time>2023-02-16T11:30:54Z</time>
      </trkpt>
      <trkpt lat="45.42126" lon="5.64413">
        <ele>842</ele>
        <time>2023-02-16T11:30:56Z</time>
      </trkpt>
      <trkpt lat="45.42128" lon="5.64417">
        <ele>842</ele>
        <time>2023-02-16T11:30:58Z</time>
      </trkpt>
      <trkpt lat="45.42129" lon="5.6442">
        <ele>842</ele>
        <time>2023-02-16T11:30:59Z</time>
      </trkpt>
      <trkpt lat="45.4213" lon="5.64422">
        <ele>842</ele>
        <time>2023-02-16T11:31:00Z</time>
      </trkpt>
      <trkpt lat="45.42131" lon="5.64425">
        <ele>843</ele>
        <time>2023-02-16T11:31:01Z</time>
      </trkpt>
      <trkpt lat="45.42132" lon="5.64427">
        <ele>843</ele>
        <time>2023-02-16T11:31:02Z</time>
      </trkpt>
      <trkpt lat="45.42133" lon="5.64432">
        <ele>843</ele>
        <time>2023-02-16T11:31:04Z</time>
      </trkpt>
      <trkpt lat="45.42135" lon="5.64434">
        <ele>843</ele>
        <time>2023-02-16T11:31:05Z</time>
      </trkpt>
      <trkpt lat="45.42136" lon="5.64436">
        <ele>843</ele>
        <time>2023-02-16T11:31:06Z</time>
      </trkpt>
      <trkpt lat="45.42138" lon="5.64439">
        <ele>844</ele>
        <time>2023-02-16T11:31:07Z</time>
      </trkpt>
      <trkpt lat="45.42139" lon="5.64443">
        <ele>844</ele>
        <time>2023-02-16T11:31:09Z</time>
      </trkpt>
      <trkpt lat="45.42141" lon="5.64445">
        <ele>844</ele>
        <time>2023-02-16T11:31:10Z</time>
      </trkpt>
      <trkpt lat="45.42142" lon="5.64447">
        <ele>844</ele>
        <time>2023-02-16T11:31:11Z</time>
      </trkpt>
      <trkpt lat="45.42144" lon="5.64452">
        <ele>844</ele>
        <time>2023-02-16T11:31:13Z</time>
      </trkpt>
      <trkpt lat="45.42145" lon="5.64454">
        <ele>845</ele>
        <time>2023-02-16T11:31:14Z</time>
      </trkpt>
      <trkpt lat="45.42148" lon="5.64457">
        <ele>845</ele>
        <time>2023-02-16T11:31:16Z</time>
      </trkpt>
      <trkpt lat="45.42151" lon="5.64459">
        <ele>845</ele>
        <time>2023-02-16T11:31:17Z</time>
      </trkpt>
      <trkpt lat="45.42154" lon="5.6446">
        <ele>845</ele>
        <time>2023-02-16T11:31:18Z</time>
      </trkpt>
      <trkpt lat="45.42157" lon="5.64461">
        <ele>845</ele>
        <time>2023-02-16T11:31:19Z</time>
      </trkpt>
      <trkpt lat="45.4216" lon="5.64461">
        <ele>845</ele>
        <time>2023-02-16T11:31:20Z</time>
      </trkpt>
      <trkpt lat="45.42164" lon="5.6446">
        <ele>845</ele>
        <time>2023-02-16T11:31:21Z</time>
      </trkpt>
      <trkpt lat="45.42168" lon="5.64459">
        <ele>845</ele>
        <time>2023-02-16T11:31:22Z</time>
      </trkpt>
      <trkpt lat="45.42173" lon="5.64458">
        <ele>845</ele>
        <time>2023-02-16T11:31:23Z</time>
      </trkpt>
      <trkpt lat="45.42177" lon="5.64456">
        <ele>845</ele>
        <time>2023-02-16T11:31:24Z</time>
      </trkpt>
      <trkpt lat="45.42182" lon="5.64452">
        <ele>845</ele>
        <time>2023-02-16T11:31:25Z</time>
      </trkpt>
      <trkpt lat="45.42186" lon="5.64449">
        <ele>844</ele>
        <time>2023-02-16T11:31:26Z</time>
      </trkpt>
      <trkpt lat="45.42191" lon="5.64445">
        <ele>844</ele>
        <time>2023-02-16T11:31:27Z</time>
      </trkpt>
      <trkpt lat="45.42196" lon="5.64441">
        <ele>843</ele>
        <time>2023-02-16T11:31:28Z</time>
      </trkpt>
      <trkpt lat="45.422" lon="5.64436">
        <ele>843</ele>
        <time>2023-02-16T11:31:29Z</time>
      </trkpt>
      <trkpt lat="45.42204" lon="5.64431">
        <ele>843</ele>
        <time>2023-02-16T11:31:30Z</time>
      </trkpt>
      <trkpt lat="45.42207" lon="5.64426">
        <ele>842</ele>
        <time>2023-02-16T11:31:31Z</time>
      </trkpt>
      <trkpt lat="45.42211" lon="5.64419">
        <ele>842</ele>
        <time>2023-02-16T11:31:32Z</time>
      </trkpt>
      <trkpt lat="45.42215" lon="5.64413">
        <ele>840</ele>
        <time>2023-02-16T11:31:33Z</time>
      </trkpt>
      <trkpt lat="45.42219" lon="5.64406">
        <ele>840</ele>
        <time>2023-02-16T11:31:34Z</time>
      </trkpt>
      <trkpt lat="45.42223" lon="5.64399">
        <ele>839</ele>
        <time>2023-02-16T11:31:35Z</time>
      </trkpt>
      <trkpt lat="45.42228" lon="5.64392">
        <ele>837</ele>
        <time>2023-02-16T11:31:36Z</time>
      </trkpt>
      <trkpt lat="45.42232" lon="5.64386">
        <ele>837</ele>
        <time>2023-02-16T11:31:37Z</time>
      </trkpt>
      <trkpt lat="45.42236" lon="5.6438">
        <ele>837</ele>
        <time>2023-02-16T11:31:38Z</time>
      </trkpt>
      <trkpt lat="45.42239" lon="5.64374">
        <ele>836</ele>
        <time>2023-02-16T11:31:39Z</time>
      </trkpt>
      <trkpt lat="45.42243" lon="5.64369">
        <ele>836</ele>
        <time>2023-02-16T11:31:40Z</time>
      </trkpt>
      <trkpt lat="45.42247" lon="5.64365">
        <ele>836</ele>
        <time>2023-02-16T11:31:41Z</time>
      </trkpt>
      <trkpt lat="45.4225" lon="5.64359">
        <ele>836</ele>
        <time>2023-02-16T11:31:42Z</time>
      </trkpt>
      <trkpt lat="45.42253" lon="5.64354">
        <ele>836</ele>
        <time>2023-02-16T11:31:43Z</time>
      </trkpt>
      <trkpt lat="45.42256" lon="5.64348">
        <ele>836</ele>
        <time>2023-02-16T11:31:44Z</time>
      </trkpt>
      <trkpt lat="45.4226" lon="5.64342">
        <ele>836</ele>
        <time>2023-02-16T11:31:45Z</time>
      </trkpt>
      <trkpt lat="45.42264" lon="5.64337">
        <ele>836</ele>
        <time>2023-02-16T11:31:46Z</time>
      </trkpt>
      <trkpt lat="45.42268" lon="5.64332">
        <ele>836</ele>
        <time>2023-02-16T11:31:47Z</time>
      </trkpt>
      <trkpt lat="45.42272" lon="5.64327">
        <ele>836</ele>
        <time>2023-02-16T11:31:48Z</time>
      </trkpt>
      <trkpt lat="45.4228" lon="5.64317">
        <ele>833</ele>
        <time>2023-02-16T11:31:50Z</time>
      </trkpt>
      <trkpt lat="45.42287" lon="5.64308">
        <ele>833</ele>
        <time>2023-02-16T11:31:52Z</time>
      </trkpt>
      <trkpt lat="45.42291" lon="5.64296">
        <ele>832</ele>
        <time>2023-02-16T11:31:54Z</time>
      </trkpt>
      <trkpt lat="45.42292" lon="5.6429">
        <ele>832</ele>
        <time>2023-02-16T11:31:55Z</time>
      </trkpt>
      <trkpt lat="45.42293" lon="5.64284">
        <ele>831</ele>
        <time>2023-02-16T11:31:56Z</time>
      </trkpt>
      <trkpt lat="45.42295" lon="5.64279">
        <ele>830</ele>
        <time>2023-02-16T11:31:57Z</time>
      </trkpt>
      <trkpt lat="45.42296" lon="5.64274">
        <ele>830</ele>
        <time>2023-02-16T11:31:58Z</time>
      </trkpt>
      <trkpt lat="45.42297" lon="5.64268">
        <ele>830</ele>
        <time>2023-02-16T11:31:59Z</time>
      </trkpt>
      <trkpt lat="45.42299" lon="5.64259">
        <ele>830</ele>
        <time>2023-02-16T11:32:01Z</time>
      </trkpt>
      <trkpt lat="45.42299" lon="5.6425">
        <ele>828</ele>
        <time>2023-02-16T11:32:03Z</time>
      </trkpt>
      <trkpt lat="45.42299" lon="5.64245">
        <ele>828</ele>
        <time>2023-02-16T11:32:04Z</time>
      </trkpt>
      <trkpt lat="45.42299" lon="5.6424">
        <ele>828</ele>
        <time>2023-02-16T11:32:05Z</time>
      </trkpt>
      <trkpt lat="45.423" lon="5.64234">
        <ele>828</ele>
        <time>2023-02-16T11:32:06Z</time>
      </trkpt>
      <trkpt lat="45.42299" lon="5.64229">
        <ele>828</ele>
        <time>2023-02-16T11:32:07Z</time>
      </trkpt>
      <trkpt lat="45.42299" lon="5.64224">
        <ele>828</ele>
        <time>2023-02-16T11:32:08Z</time>
      </trkpt>
      <trkpt lat="45.42299" lon="5.6422">
        <ele>828</ele>
        <time>2023-02-16T11:32:09Z</time>
      </trkpt>
      <trkpt lat="45.42298" lon="5.64215">
        <ele>828</ele>
        <time>2023-02-16T11:32:10Z</time>
      </trkpt>
      <trkpt lat="45.42298" lon="5.64209">
        <ele>827</ele>
        <time>2023-02-16T11:32:11Z</time>
      </trkpt>
      <trkpt lat="45.42298" lon="5.64203">
        <ele>827</ele>
        <time>2023-02-16T11:32:12Z</time>
      </trkpt>
      <trkpt lat="45.42298" lon="5.64197">
        <ele>826</ele>
        <time>2023-02-16T11:32:13Z</time>
      </trkpt>
      <trkpt lat="45.42298" lon="5.64192">
        <ele>826</ele>
        <time>2023-02-16T11:32:14Z</time>
      </trkpt>
      <trkpt lat="45.42298" lon="5.64185">
        <ele>826</ele>
        <time>2023-02-16T11:32:15Z</time>
      </trkpt>
      <trkpt lat="45.42297" lon="5.64179">
        <ele>826</ele>
        <time>2023-02-16T11:32:16Z</time>
      </trkpt>
      <trkpt lat="45.42297" lon="5.64173">
        <ele>826</ele>
        <time>2023-02-16T11:32:17Z</time>
      </trkpt>
      <trkpt lat="45.42297" lon="5.64167">
        <ele>826</ele>
        <time>2023-02-16T11:32:18Z</time>
      </trkpt>
      <trkpt lat="45.42296" lon="5.6416">
        <ele>826</ele>
        <time>2023-02-16T11:32:19Z</time>
      </trkpt>
      <trkpt lat="45.42296" lon="5.64154">
        <ele>826</ele>
        <time>2023-02-16T11:32:20Z</time>
      </trkpt>
      <trkpt lat="45.42296" lon="5.64146">
        <ele>825</ele>
        <time>2023-02-16T11:32:21Z</time>
      </trkpt>
      <trkpt lat="45.42297" lon="5.6414">
        <ele>825</ele>
        <time>2023-02-16T11:32:22Z</time>
      </trkpt>
      <trkpt lat="45.42297" lon="5.64133">
        <ele>825</ele>
        <time>2023-02-16T11:32:23Z</time>
      </trkpt>
      <trkpt lat="45.42299" lon="5.64126">
        <ele>824</ele>
        <time>2023-02-16T11:32:24Z</time>
      </trkpt>
      <trkpt lat="45.423" lon="5.6412">
        <ele>824</ele>
        <time>2023-02-16T11:32:25Z</time>
      </trkpt>
      <trkpt lat="45.42301" lon="5.64104">
        <ele>821</ele>
        <time>2023-02-16T11:32:28Z</time>
      </trkpt>
      <trkpt lat="45.42301" lon="5.64091">
        <ele>820</ele>
        <time>2023-02-16T11:32:30Z</time>
      </trkpt>
      <trkpt lat="45.42303" lon="5.64078">
        <ele>818</ele>
        <time>2023-02-16T11:32:32Z</time>
      </trkpt>
      <trkpt lat="45.42309" lon="5.64066">
        <ele>818</ele>
        <time>2023-02-16T11:32:34Z</time>
      </trkpt>
      <trkpt lat="45.42313" lon="5.64051">
        <ele>816</ele>
        <time>2023-02-16T11:32:37Z</time>
      </trkpt>
      <trkpt lat="45.42313" lon="5.64046">
        <ele>815</ele>
        <time>2023-02-16T11:32:38Z</time>
      </trkpt>
      <trkpt lat="45.42312" lon="5.64041">
        <ele>815</ele>
        <time>2023-02-16T11:32:39Z</time>
      </trkpt>
      <trkpt lat="45.42313" lon="5.64036">
        <ele>815</ele>
        <time>2023-02-16T11:32:40Z</time>
      </trkpt>
      <trkpt lat="45.42314" lon="5.64032">
        <ele>815</ele>
        <time>2023-02-16T11:32:41Z</time>
      </trkpt>
      <trkpt lat="45.42316" lon="5.64028">
        <ele>815</ele>
        <time>2023-02-16T11:32:42Z</time>
      </trkpt>
      <trkpt lat="45.42319" lon="5.64025">
        <ele>815</ele>
        <time>2023-02-16T11:32:43Z</time>
      </trkpt>
      <trkpt lat="45.42321" lon="5.64022">
        <ele>815</ele>
        <time>2023-02-16T11:32:44Z</time>
      </trkpt>
      <trkpt lat="45.42323" lon="5.64019">
        <ele>815</ele>
        <time>2023-02-16T11:32:45Z</time>
      </trkpt>
      <trkpt lat="45.42324" lon="5.64016">
        <ele>815</ele>
        <time>2023-02-16T11:32:46Z</time>
      </trkpt>
      <trkpt lat="45.42325" lon="5.64012">
        <ele>815</ele>
        <time>2023-02-16T11:32:47Z</time>
      </trkpt>
      <trkpt lat="45.42325" lon="5.64007">
        <ele>815</ele>
        <time>2023-02-16T11:32:48Z</time>
      </trkpt>
      <trkpt lat="45.42326" lon="5.63998">
        <ele>815</ele>
        <time>2023-02-16T11:32:50Z</time>
      </trkpt>
      <trkpt lat="45.42327" lon="5.63994">
        <ele>815</ele>
        <time>2023-02-16T11:32:51Z</time>
      </trkpt>
      <trkpt lat="45.42328" lon="5.63989">
        <ele>815</ele>
        <time>2023-02-16T11:32:52Z</time>
      </trkpt>
      <trkpt lat="45.42329" lon="5.63985">
        <ele>815</ele>
        <time>2023-02-16T11:32:53Z</time>
      </trkpt>
      <trkpt lat="45.4233" lon="5.6398">
        <ele>815</ele>
        <time>2023-02-16T11:32:54Z</time>
      </trkpt>
      <trkpt lat="45.42332" lon="5.63975">
        <ele>815</ele>
        <time>2023-02-16T11:32:55Z</time>
      </trkpt>
      <trkpt lat="45.42334" lon="5.6397">
        <ele>815</ele>
        <time>2023-02-16T11:32:56Z</time>
      </trkpt>
      <trkpt lat="45.42336" lon="5.63966">
        <ele>815</ele>
        <time>2023-02-16T11:32:57Z</time>
      </trkpt>
      <trkpt lat="45.42337" lon="5.63961">
        <ele>815</ele>
        <time>2023-02-16T11:32:58Z</time>
      </trkpt>
      <trkpt lat="45.42339" lon="5.63956">
        <ele>815</ele>
        <time>2023-02-16T11:32:59Z</time>
      </trkpt>
      <trkpt lat="45.42339" lon="5.63952">
        <ele>815</ele>
        <time>2023-02-16T11:33:00Z</time>
      </trkpt>
      <trkpt lat="45.4234" lon="5.63947">
        <ele>815</ele>
        <time>2023-02-16T11:33:01Z</time>
      </trkpt>
      <trkpt lat="45.4234" lon="5.63941">
        <ele>815</ele>
        <time>2023-02-16T11:33:02Z</time>
      </trkpt>
      <trkpt lat="45.4234" lon="5.63936">
        <ele>815</ele>
        <time>2023-02-16T11:33:03Z</time>
      </trkpt>
      <trkpt lat="45.4234" lon="5.6393">
        <ele>815</ele>
        <time>2023-02-16T11:33:04Z</time>
      </trkpt>
      <trkpt lat="45.42339" lon="5.63924">
        <ele>815</ele>
        <time>2023-02-16T11:33:05Z</time>
      </trkpt>
      <trkpt lat="45.42338" lon="5.63917">
        <ele>815</ele>
        <time>2023-02-16T11:33:06Z</time>
      </trkpt>
      <trkpt lat="45.42336" lon="5.63911">
        <ele>815</ele>
        <time>2023-02-16T11:33:07Z</time>
      </trkpt>
      <trkpt lat="45.42334" lon="5.63903">
        <ele>815</ele>
        <time>2023-02-16T11:33:08Z</time>
      </trkpt>
      <trkpt lat="45.42332" lon="5.63895">
        <ele>815</ele>
        <time>2023-02-16T11:33:09Z</time>
      </trkpt>
      <trkpt lat="45.42329" lon="5.63887">
        <ele>815</ele>
        <time>2023-02-16T11:33:10Z</time>
      </trkpt>
      <trkpt lat="45.42326" lon="5.63879">
        <ele>815</ele>
        <time>2023-02-16T11:33:11Z</time>
      </trkpt>
      <trkpt lat="45.42323" lon="5.63871">
        <ele>815</ele>
        <time>2023-02-16T11:33:12Z</time>
      </trkpt>
      <trkpt lat="45.4232" lon="5.63863">
        <ele>814</ele>
        <time>2023-02-16T11:33:13Z</time>
      </trkpt>
      <trkpt lat="45.42318" lon="5.63854">
        <ele>813</ele>
        <time>2023-02-16T11:33:14Z</time>
      </trkpt>
      <trkpt lat="45.42316" lon="5.63843">
        <ele>813</ele>
        <time>2023-02-16T11:33:15Z</time>
      </trkpt>
      <trkpt lat="45.42315" lon="5.63833">
        <ele>813</ele>
        <time>2023-02-16T11:33:16Z</time>
      </trkpt>
      <trkpt lat="45.42314" lon="5.63821">
        <ele>812</ele>
        <time>2023-02-16T11:33:17Z</time>
      </trkpt>
      <trkpt lat="45.42311" lon="5.638">
        <ele>812</ele>
        <time>2023-02-16T11:33:19Z</time>
      </trkpt>
      <trkpt lat="45.42309" lon="5.63789">
        <ele>811</ele>
        <time>2023-02-16T11:33:20Z</time>
      </trkpt>
      <trkpt lat="45.42307" lon="5.63778">
        <ele>811</ele>
        <time>2023-02-16T11:33:21Z</time>
      </trkpt>
      <trkpt lat="45.42305" lon="5.63768">
        <ele>811</ele>
        <time>2023-02-16T11:33:22Z</time>
      </trkpt>
      <trkpt lat="45.42302" lon="5.63747">
        <ele>810</ele>
        <time>2023-02-16T11:33:24Z</time>
      </trkpt>
      <trkpt lat="45.42302" lon="5.63735">
        <ele>810</ele>
        <time>2023-02-16T11:33:25Z</time>
      </trkpt>
      <trkpt lat="45.423" lon="5.63725">
        <ele>809</ele>
        <time>2023-02-16T11:33:26Z</time>
      </trkpt>
      <trkpt lat="45.42298" lon="5.63703">
        <ele>809</ele>
        <time>2023-02-16T11:33:28Z</time>
      </trkpt>
      <trkpt lat="45.42297" lon="5.6368">
        <ele>809</ele>
        <time>2023-02-16T11:33:30Z</time>
      </trkpt>
      <trkpt lat="45.42299" lon="5.63657">
        <ele>808</ele>
        <time>2023-02-16T11:33:32Z</time>
      </trkpt>
      <trkpt lat="45.42301" lon="5.63647">
        <ele>807</ele>
        <time>2023-02-16T11:33:33Z</time>
      </trkpt>
      <trkpt lat="45.42306" lon="5.63626">
        <ele>806</ele>
        <time>2023-02-16T11:33:35Z</time>
      </trkpt>
      <trkpt lat="45.4231" lon="5.63605">
        <ele>806</ele>
        <time>2023-02-16T11:33:37Z</time>
      </trkpt>
      <trkpt lat="45.42312" lon="5.63584">
        <ele>806</ele>
        <time>2023-02-16T11:33:39Z</time>
      </trkpt>
      <trkpt lat="45.42314" lon="5.63564">
        <ele>806</ele>
        <time>2023-02-16T11:33:41Z</time>
      </trkpt>
      <trkpt lat="45.42315" lon="5.63547">
        <ele>806</ele>
        <time>2023-02-16T11:33:43Z</time>
      </trkpt>
      <trkpt lat="45.42317" lon="5.63527">
        <ele>806</ele>
        <time>2023-02-16T11:33:45Z</time>
      </trkpt>
      <trkpt lat="45.42319" lon="5.63517">
        <ele>806</ele>
        <time>2023-02-16T11:33:46Z</time>
      </trkpt>
      <trkpt lat="45.42322" lon="5.63508">
        <ele>806</ele>
        <time>2023-02-16T11:33:47Z</time>
      </trkpt>
      <trkpt lat="45.42325" lon="5.63498">
        <ele>806</ele>
        <time>2023-02-16T11:33:48Z</time>
      </trkpt>
      <trkpt lat="45.42329" lon="5.63489">
        <ele>806</ele>
        <time>2023-02-16T11:33:49Z</time>
      </trkpt>
      <trkpt lat="45.42334" lon="5.6348">
        <ele>806</ele>
        <time>2023-02-16T11:33:50Z</time>
      </trkpt>
      <trkpt lat="45.4234" lon="5.63472">
        <ele>806</ele>
        <time>2023-02-16T11:33:51Z</time>
      </trkpt>
      <trkpt lat="45.42346" lon="5.63464">
        <ele>806</ele>
        <time>2023-02-16T11:33:52Z</time>
      </trkpt>
      <trkpt lat="45.42353" lon="5.63456">
        <ele>804</ele>
        <time>2023-02-16T11:33:53Z</time>
      </trkpt>
      <trkpt lat="45.4236" lon="5.63448">
        <ele>804</ele>
        <time>2023-02-16T11:33:54Z</time>
      </trkpt>
      <trkpt lat="45.42366" lon="5.63439">
        <ele>804</ele>
        <time>2023-02-16T11:33:55Z</time>
      </trkpt>
      <trkpt lat="45.42373" lon="5.6343">
        <ele>803</ele>
        <time>2023-02-16T11:33:56Z</time>
      </trkpt>
      <trkpt lat="45.4238" lon="5.63421">
        <ele>803</ele>
        <time>2023-02-16T11:33:57Z</time>
      </trkpt>
      <trkpt lat="45.42388" lon="5.63412">
        <ele>801</ele>
        <time>2023-02-16T11:33:58Z</time>
      </trkpt>
      <trkpt lat="45.42396" lon="5.63403">
        <ele>801</ele>
        <time>2023-02-16T11:33:59Z</time>
      </trkpt>
      <trkpt lat="45.42405" lon="5.63394">
        <ele>797</ele>
        <time>2023-02-16T11:34:00Z</time>
      </trkpt>
      <trkpt lat="45.42415" lon="5.63385">
        <ele>797</ele>
        <time>2023-02-16T11:34:01Z</time>
      </trkpt>
      <trkpt lat="45.42424" lon="5.63375">
        <ele>797</ele>
        <time>2023-02-16T11:34:02Z</time>
      </trkpt>
      <trkpt lat="45.42433" lon="5.63365">
        <ele>794</ele>
        <time>2023-02-16T11:34:03Z</time>
      </trkpt>
      <trkpt lat="45.42442" lon="5.63355">
        <ele>794</ele>
        <time>2023-02-16T11:34:04Z</time>
      </trkpt>
      <trkpt lat="45.42451" lon="5.63345">
        <ele>794</ele>
        <time>2023-02-16T11:34:05Z</time>
      </trkpt>
      <trkpt lat="45.4246" lon="5.63334">
        <ele>791</ele>
        <time>2023-02-16T11:34:06Z</time>
      </trkpt>
      <trkpt lat="45.42466" lon="5.63321">
        <ele>791</ele>
        <time>2023-02-16T11:34:07Z</time>
      </trkpt>
      <trkpt lat="45.42472" lon="5.63307">
        <ele>788</ele>
        <time>2023-02-16T11:34:08Z</time>
      </trkpt>
      <trkpt lat="45.42479" lon="5.63291">
        <ele>788</ele>
        <time>2023-02-16T11:34:09Z</time>
      </trkpt>
      <trkpt lat="45.42483" lon="5.63276">
        <ele>788</ele>
        <time>2023-02-16T11:34:10Z</time>
      </trkpt>
      <trkpt lat="45.42486" lon="5.63259">
        <ele>784</ele>
        <time>2023-02-16T11:34:11Z</time>
      </trkpt>
      <trkpt lat="45.42487" lon="5.63241">
        <ele>784</ele>
        <time>2023-02-16T11:34:12Z</time>
      </trkpt>
      <trkpt lat="45.42488" lon="5.63224">
        <ele>779</ele>
        <time>2023-02-16T11:34:13Z</time>
      </trkpt>
      <trkpt lat="45.42489" lon="5.63208">
        <ele>779</ele>
        <time>2023-02-16T11:34:14Z</time>
      </trkpt>
      <trkpt lat="45.42489" lon="5.63195">
        <ele>779</ele>
        <time>2023-02-16T11:34:15Z</time>
      </trkpt>
      <trkpt lat="45.4249" lon="5.6318">
        <ele>775</ele>
        <time>2023-02-16T11:34:16Z</time>
      </trkpt>
      <trkpt lat="45.42492" lon="5.63166">
        <ele>770</ele>
        <time>2023-02-16T11:34:17Z</time>
      </trkpt>
      <trkpt lat="45.42503" lon="5.63149">
        <ele>770</ele>
        <time>2023-02-16T11:34:19Z</time>
      </trkpt>
      <trkpt lat="45.42519" lon="5.63141">
        <ele>770</ele>
        <time>2023-02-16T11:34:21Z</time>
      </trkpt>
      <trkpt lat="45.42536" lon="5.6315">
        <ele>764</ele>
        <time>2023-02-16T11:34:23Z</time>
      </trkpt>
      <trkpt lat="45.42545" lon="5.63161">
        <ele>764</ele>
        <time>2023-02-16T11:34:24Z</time>
      </trkpt>
      <trkpt lat="45.42553" lon="5.63174">
        <ele>761</ele>
        <time>2023-02-16T11:34:25Z</time>
      </trkpt>
      <trkpt lat="45.42559" lon="5.63188">
        <ele>761</ele>
        <time>2023-02-16T11:34:26Z</time>
      </trkpt>
      <trkpt lat="45.42562" lon="5.63202">
        <ele>759</ele>
        <time>2023-02-16T11:34:27Z</time>
      </trkpt>
      <trkpt lat="45.42566" lon="5.63216">
        <ele>759</ele>
        <time>2023-02-16T11:34:28Z</time>
      </trkpt>
      <trkpt lat="45.4257" lon="5.6323">
        <ele>757</ele>
        <time>2023-02-16T11:34:29Z</time>
      </trkpt>
      <trkpt lat="45.42575" lon="5.63244">
        <ele>757</ele>
        <time>2023-02-16T11:34:30Z</time>
      </trkpt>
      <trkpt lat="45.4258" lon="5.63261">
        <ele>756</ele>
        <time>2023-02-16T11:34:31Z</time>
      </trkpt>
      <trkpt lat="45.42582" lon="5.63279">
        <ele>756</ele>
        <time>2023-02-16T11:34:32Z</time>
      </trkpt>
      <trkpt lat="45.42584" lon="5.63297">
        <ele>753</ele>
        <time>2023-02-16T11:34:33Z</time>
      </trkpt>
      <trkpt lat="45.42585" lon="5.63311">
        <ele>753</ele>
        <time>2023-02-16T11:34:34Z</time>
      </trkpt>
      <trkpt lat="45.42588" lon="5.6333">
        <ele>749</ele>
        <time>2023-02-16T11:34:36Z</time>
      </trkpt>
      <trkpt lat="45.42598" lon="5.63338">
        <ele>745</ele>
        <time>2023-02-16T11:34:39Z</time>
      </trkpt>
      <trkpt lat="45.42601" lon="5.63333">
        <ele>745</ele>
        <time>2023-02-16T11:34:40Z</time>
      </trkpt>
      <trkpt lat="45.42604" lon="5.63325">
        <ele>743</ele>
        <time>2023-02-16T11:34:41Z</time>
      </trkpt>
      <trkpt lat="45.42606" lon="5.63316">
        <ele>743</ele>
        <time>2023-02-16T11:34:42Z</time>
      </trkpt>
      <trkpt lat="45.42607" lon="5.63306">
        <ele>741</ele>
        <time>2023-02-16T11:34:43Z</time>
      </trkpt>
      <trkpt lat="45.42608" lon="5.63294">
        <ele>741</ele>
        <time>2023-02-16T11:34:44Z</time>
      </trkpt>
      <trkpt lat="45.42609" lon="5.63281">
        <ele>740</ele>
        <time>2023-02-16T11:34:45Z</time>
      </trkpt>
      <trkpt lat="45.4261" lon="5.63267">
        <ele>740</ele>
        <time>2023-02-16T11:34:46Z</time>
      </trkpt>
      <trkpt lat="45.42612" lon="5.63253">
        <ele>738</ele>
        <time>2023-02-16T11:34:47Z</time>
      </trkpt>
      <trkpt lat="45.42614" lon="5.63238">
        <ele>738</ele>
        <time>2023-02-16T11:34:48Z</time>
      </trkpt>
      <trkpt lat="45.42616" lon="5.63223">
        <ele>738</ele>
        <time>2023-02-16T11:34:49Z</time>
      </trkpt>
      <trkpt lat="45.4262" lon="5.63208">
        <ele>735</ele>
        <time>2023-02-16T11:34:50Z</time>
      </trkpt>
      <trkpt lat="45.42624" lon="5.63193">
        <ele>735</ele>
        <time>2023-02-16T11:34:51Z</time>
      </trkpt>
      <trkpt lat="45.42628" lon="5.63178">
        <ele>733</ele>
        <time>2023-02-16T11:34:52Z</time>
      </trkpt>
      <trkpt lat="45.42633" lon="5.63163">
        <ele>733</ele>
        <time>2023-02-16T11:34:53Z</time>
      </trkpt>
      <trkpt lat="45.42638" lon="5.63149">
        <ele>732</ele>
        <time>2023-02-16T11:34:54Z</time>
      </trkpt>
      <trkpt lat="45.42645" lon="5.63136">
        <ele>732</ele>
        <time>2023-02-16T11:34:55Z</time>
      </trkpt>
      <trkpt lat="45.42651" lon="5.63122">
        <ele>731</ele>
        <time>2023-02-16T11:34:56Z</time>
      </trkpt>
      <trkpt lat="45.42663" lon="5.63095">
        <ele>731</ele>
        <time>2023-02-16T11:34:58Z</time>
      </trkpt>
      <trkpt lat="45.42668" lon="5.63082">
        <ele>730</ele>
        <time>2023-02-16T11:34:59Z</time>
      </trkpt>
      <trkpt lat="45.42674" lon="5.63069">
        <ele>730</ele>
        <time>2023-02-16T11:35:00Z</time>
      </trkpt>
      <trkpt lat="45.4268" lon="5.63056">
        <ele>726</ele>
        <time>2023-02-16T11:35:01Z</time>
      </trkpt>
      <trkpt lat="45.42685" lon="5.63044">
        <ele>726</ele>
        <time>2023-02-16T11:35:02Z</time>
      </trkpt>
      <trkpt lat="45.42692" lon="5.63033">
        <ele>726</ele>
        <time>2023-02-16T11:35:03Z</time>
      </trkpt>
      <trkpt lat="45.42698" lon="5.63023">
        <ele>726</ele>
        <time>2023-02-16T11:35:04Z</time>
      </trkpt>
      <trkpt lat="45.42704" lon="5.63014">
        <ele>725</ele>
        <time>2023-02-16T11:35:05Z</time>
      </trkpt>
      <trkpt lat="45.4271" lon="5.63006">
        <ele>725</ele>
        <time>2023-02-16T11:35:06Z</time>
      </trkpt>
      <trkpt lat="45.42714" lon="5.62998">
        <ele>725</ele>
        <time>2023-02-16T11:35:07Z</time>
      </trkpt>
      <trkpt lat="45.42718" lon="5.62989">
        <ele>725</ele>
        <time>2023-02-16T11:35:08Z</time>
      </trkpt>
      <trkpt lat="45.42719" lon="5.6298">
        <ele>725</ele>
        <time>2023-02-16T11:35:09Z</time>
      </trkpt>
      <trkpt lat="45.4272" lon="5.62971">
        <ele>725</ele>
        <time>2023-02-16T11:35:10Z</time>
      </trkpt>
      <trkpt lat="45.42719" lon="5.62963">
        <ele>725</ele>
        <time>2023-02-16T11:35:11Z</time>
      </trkpt>
      <trkpt lat="45.42717" lon="5.62956">
        <ele>725</ele>
        <time>2023-02-16T11:35:12Z</time>
      </trkpt>
      <trkpt lat="45.42715" lon="5.62949">
        <ele>725</ele>
        <time>2023-02-16T11:35:13Z</time>
      </trkpt>
      <trkpt lat="45.42712" lon="5.62944">
        <ele>725</ele>
        <time>2023-02-16T11:35:14Z</time>
      </trkpt>
      <trkpt lat="45.42709" lon="5.62941">
        <ele>725</ele>
        <time>2023-02-16T11:35:15Z</time>
      </trkpt>
      <trkpt lat="45.42707" lon="5.62939">
        <ele>725</ele>
        <time>2023-02-16T11:35:16Z</time>
      </trkpt>
      <trkpt lat="45.42699" lon="5.62931">
        <ele>725</ele>
        <time>2023-02-16T11:35:18Z</time>
      </trkpt>
      <trkpt lat="45.42688" lon="5.62915">
        <ele>725</ele>
        <time>2023-02-16T11:35:20Z</time>
      </trkpt>
      <trkpt lat="45.42684" lon="5.62905">
        <ele>725</ele>
        <time>2023-02-16T11:35:21Z</time>
      </trkpt>
      <trkpt lat="45.42681" lon="5.62895">
        <ele>724</ele>
        <time>2023-02-16T11:35:22Z</time>
      </trkpt>
      <trkpt lat="45.42674" lon="5.62874">
        <ele>724</ele>
        <time>2023-02-16T11:35:24Z</time>
      </trkpt>
      <trkpt lat="45.42669" lon="5.62855">
        <ele>721</ele>
        <time>2023-02-16T11:35:26Z</time>
      </trkpt>
      <trkpt lat="45.42664" lon="5.62838">
        <ele>722</ele>
        <time>2023-02-16T11:35:28Z</time>
      </trkpt>
      <trkpt lat="45.42659" lon="5.62823">
        <ele>722</ele>
        <time>2023-02-16T11:35:30Z</time>
      </trkpt>
      <trkpt lat="45.42653" lon="5.62808">
        <ele>722</ele>
        <time>2023-02-16T11:35:32Z</time>
      </trkpt>
      <trkpt lat="45.4265" lon="5.62801">
        <ele>722</ele>
        <time>2023-02-16T11:35:33Z</time>
      </trkpt>
      <trkpt lat="45.42646" lon="5.62794">
        <ele>722</ele>
        <time>2023-02-16T11:35:34Z</time>
      </trkpt>
      <trkpt lat="45.42643" lon="5.62787">
        <ele>722</ele>
        <time>2023-02-16T11:35:35Z</time>
      </trkpt>
      <trkpt lat="45.42639" lon="5.62782">
        <ele>722</ele>
        <time>2023-02-16T11:35:36Z</time>
      </trkpt>
      <trkpt lat="45.42634" lon="5.62777">
        <ele>722</ele>
        <time>2023-02-16T11:35:37Z</time>
      </trkpt>
      <trkpt lat="45.42629" lon="5.62772">
        <ele>722</ele>
        <time>2023-02-16T11:35:38Z</time>
      </trkpt>
      <trkpt lat="45.42623" lon="5.62767">
        <ele>722</ele>
        <time>2023-02-16T11:35:39Z</time>
      </trkpt>
      <trkpt lat="45.42617" lon="5.62762">
        <ele>722</ele>
        <time>2023-02-16T11:35:40Z</time>
      </trkpt>
      <trkpt lat="45.42611" lon="5.62757">
        <ele>722</ele>
        <time>2023-02-16T11:35:41Z</time>
      </trkpt>
      <trkpt lat="45.42606" lon="5.62752">
        <ele>722</ele>
        <time>2023-02-16T11:35:42Z</time>
      </trkpt>
      <trkpt lat="45.42601" lon="5.62748">
        <ele>722</ele>
        <time>2023-02-16T11:35:43Z</time>
      </trkpt>
      <trkpt lat="45.42594" lon="5.62744">
        <ele>721</ele>
        <time>2023-02-16T11:35:44Z</time>
      </trkpt>
      <trkpt lat="45.42588" lon="5.6274">
        <ele>721</ele>
        <time>2023-02-16T11:35:45Z</time>
      </trkpt>
      <trkpt lat="45.42582" lon="5.62736">
        <ele>721</ele>
        <time>2023-02-16T11:35:46Z</time>
      </trkpt>
      <trkpt lat="45.42576" lon="5.62732">
        <ele>721</ele>
        <time>2023-02-16T11:35:47Z</time>
      </trkpt>
      <trkpt lat="45.4257" lon="5.62728">
        <ele>721</ele>
        <time>2023-02-16T11:35:48Z</time>
      </trkpt>
      <trkpt lat="45.42564" lon="5.62723">
        <ele>721</ele>
        <time>2023-02-16T11:35:49Z</time>
      </trkpt>
      <trkpt lat="45.42558" lon="5.62718">
        <ele>721</ele>
        <time>2023-02-16T11:35:50Z</time>
      </trkpt>
      <trkpt lat="45.42553" lon="5.62714">
        <ele>721</ele>
        <time>2023-02-16T11:35:51Z</time>
      </trkpt>
      <trkpt lat="45.42547" lon="5.6271">
        <ele>720</ele>
        <time>2023-02-16T11:35:52Z</time>
      </trkpt>
      <trkpt lat="45.42541" lon="5.62706">
        <ele>720</ele>
        <time>2023-02-16T11:35:53Z</time>
      </trkpt>
      <trkpt lat="45.42536" lon="5.62701">
        <ele>720</ele>
        <time>2023-02-16T11:35:54Z</time>
      </trkpt>
      <trkpt lat="45.4253" lon="5.62697">
        <ele>720</ele>
        <time>2023-02-16T11:35:55Z</time>
      </trkpt>
      <trkpt lat="45.42526" lon="5.62694">
        <ele>720</ele>
        <time>2023-02-16T11:35:56Z</time>
      </trkpt>
      <trkpt lat="45.42521" lon="5.62691">
        <ele>720</ele>
        <time>2023-02-16T11:35:57Z</time>
      </trkpt>
      <trkpt lat="45.42517" lon="5.62689">
        <ele>720</ele>
        <time>2023-02-16T11:35:58Z</time>
      </trkpt>
      <trkpt lat="45.42512" lon="5.62687">
        <ele>720</ele>
        <time>2023-02-16T11:35:59Z</time>
      </trkpt>
      <trkpt lat="45.42507" lon="5.62684">
        <ele>720</ele>
        <time>2023-02-16T11:36:00Z</time>
      </trkpt>
      <trkpt lat="45.42499" lon="5.62677">
        <ele>720</ele>
        <time>2023-02-16T11:36:02Z</time>
      </trkpt>
      <trkpt lat="45.4249" lon="5.62666">
        <ele>720</ele>
        <time>2023-02-16T11:36:04Z</time>
      </trkpt>
      <trkpt lat="45.42484" lon="5.62656">
        <ele>720</ele>
        <time>2023-02-16T11:36:06Z</time>
      </trkpt>
      <trkpt lat="45.42479" lon="5.6265">
        <ele>720</ele>
        <time>2023-02-16T11:36:07Z</time>
      </trkpt>
      <trkpt lat="45.42475" lon="5.62644">
        <ele>720</ele>
        <time>2023-02-16T11:36:08Z</time>
      </trkpt>
      <trkpt lat="45.42472" lon="5.62639">
        <ele>720</ele>
        <time>2023-02-16T11:36:09Z</time>
      </trkpt>
      <trkpt lat="45.4247" lon="5.62633">
        <ele>720</ele>
        <time>2023-02-16T11:36:10Z</time>
      </trkpt>
      <trkpt lat="45.42468" lon="5.62629">
        <ele>720</ele>
        <time>2023-02-16T11:36:11Z</time>
      </trkpt>
      <trkpt lat="45.42465" lon="5.62625">
        <ele>720</ele>
        <time>2023-02-16T11:36:12Z</time>
      </trkpt>
      <trkpt lat="45.42463" lon="5.62621">
        <ele>720</ele>
        <time>2023-02-16T11:36:13Z</time>
      </trkpt>
      <trkpt lat="45.42461" lon="5.62617">
        <ele>721</ele>
        <time>2023-02-16T11:36:14Z</time>
      </trkpt>
      <trkpt lat="45.4246" lon="5.62614">
        <ele>721</ele>
        <time>2023-02-16T11:36:15Z</time>
      </trkpt>
      <trkpt lat="45.42458" lon="5.62611">
        <ele>721</ele>
        <time>2023-02-16T11:36:16Z</time>
      </trkpt>
      <trkpt lat="45.42456" lon="5.62609">
        <ele>721</ele>
        <time>2023-02-16T11:36:17Z</time>
      </trkpt>
      <trkpt lat="45.42451" lon="5.62598">
        <ele>722</ele>
        <time>2023-02-16T11:36:20Z</time>
      </trkpt>
      <trkpt lat="45.42445" lon="5.62585">
        <ele>722</ele>
        <time>2023-02-16T11:36:23Z</time>
      </trkpt>
      <trkpt lat="45.42442" lon="5.62572">
        <ele>722</ele>
        <time>2023-02-16T11:36:26Z</time>
      </trkpt>
      <trkpt lat="45.42439" lon="5.62555">
        <ele>722</ele>
        <time>2023-02-16T11:36:28Z</time>
      </trkpt>
      <trkpt lat="45.42435" lon="5.62538">
        <ele>722</ele>
        <time>2023-02-16T11:36:30Z</time>
      </trkpt>
      <trkpt lat="45.42431" lon="5.62521">
        <ele>722</ele>
        <time>2023-02-16T11:36:32Z</time>
      </trkpt>
      <trkpt lat="45.42427" lon="5.62503">
        <ele>722</ele>
        <time>2023-02-16T11:36:34Z</time>
      </trkpt>
      <trkpt lat="45.42421" lon="5.62485">
        <ele>721</ele>
        <time>2023-02-16T11:36:36Z</time>
      </trkpt>
      <trkpt lat="45.42415" lon="5.6247">
        <ele>720</ele>
        <time>2023-02-16T11:36:38Z</time>
      </trkpt>
      <trkpt lat="45.42406" lon="5.62455">
        <ele>720</ele>
        <time>2023-02-16T11:36:40Z</time>
      </trkpt>
      <trkpt lat="45.42395" lon="5.62441">
        <ele>718</ele>
        <time>2023-02-16T11:36:42Z</time>
      </trkpt>
      <trkpt lat="45.42385" lon="5.62428">
        <ele>718</ele>
        <time>2023-02-16T11:36:44Z</time>
      </trkpt>
      <trkpt lat="45.42377" lon="5.62415">
        <ele>718</ele>
        <time>2023-02-16T11:36:46Z</time>
      </trkpt>
      <trkpt lat="45.42367" lon="5.62404">
        <ele>718</ele>
        <time>2023-02-16T11:36:48Z</time>
      </trkpt>
      <trkpt lat="45.42359" lon="5.62392">
        <ele>718</ele>
        <time>2023-02-16T11:36:50Z</time>
      </trkpt>
      <trkpt lat="45.42351" lon="5.62375">
        <ele>715</ele>
        <time>2023-02-16T11:36:52Z</time>
      </trkpt>
      <trkpt lat="45.4234" lon="5.62355">
        <ele>710</ele>
        <time>2023-02-16T11:36:54Z</time>
      </trkpt>
      <trkpt lat="45.42332" lon="5.62344">
        <ele>710</ele>
        <time>2023-02-16T11:36:55Z</time>
      </trkpt>
      <trkpt lat="45.42323" lon="5.62333">
        <ele>707</ele>
        <time>2023-02-16T11:36:56Z</time>
      </trkpt>
      <trkpt lat="45.42315" lon="5.62322">
        <ele>707</ele>
        <time>2023-02-16T11:36:57Z</time>
      </trkpt>
      <trkpt lat="45.42308" lon="5.62312">
        <ele>704</ele>
        <time>2023-02-16T11:36:58Z</time>
      </trkpt>
      <trkpt lat="45.42301" lon="5.62301">
        <ele>704</ele>
        <time>2023-02-16T11:36:59Z</time>
      </trkpt>
      <trkpt lat="45.42294" lon="5.62292">
        <ele>702</ele>
        <time>2023-02-16T11:37:00Z</time>
      </trkpt>
      <trkpt lat="45.42286" lon="5.62284">
        <ele>702</ele>
        <time>2023-02-16T11:37:01Z</time>
      </trkpt>
      <trkpt lat="45.42272" lon="5.62266">
        <ele>698</ele>
        <time>2023-02-16T11:37:03Z</time>
      </trkpt>
      <trkpt lat="45.42264" lon="5.62258">
        <ele>698</ele>
        <time>2023-02-16T11:37:04Z</time>
      </trkpt>
      <trkpt lat="45.42256" lon="5.6225">
        <ele>695</ele>
        <time>2023-02-16T11:37:05Z</time>
      </trkpt>
      <trkpt lat="45.42241" lon="5.62234">
        <ele>695</ele>
        <time>2023-02-16T11:37:07Z</time>
      </trkpt>
      <trkpt lat="45.42235" lon="5.62228">
        <ele>691</ele>
        <time>2023-02-16T11:37:08Z</time>
      </trkpt>
      <trkpt lat="45.42228" lon="5.6222">
        <ele>691</ele>
        <time>2023-02-16T11:37:09Z</time>
      </trkpt>
      <trkpt lat="45.42222" lon="5.62211">
        <ele>688</ele>
        <time>2023-02-16T11:37:10Z</time>
      </trkpt>
      <trkpt lat="45.42215" lon="5.62202">
        <ele>688</ele>
        <time>2023-02-16T11:37:11Z</time>
      </trkpt>
      <trkpt lat="45.42209" lon="5.62192">
        <ele>685</ele>
        <time>2023-02-16T11:37:12Z</time>
      </trkpt>
      <trkpt lat="45.42204" lon="5.62182">
        <ele>685</ele>
        <time>2023-02-16T11:37:13Z</time>
      </trkpt>
      <trkpt lat="45.42193" lon="5.62162">
        <ele>680</ele>
        <time>2023-02-16T11:37:15Z</time>
      </trkpt>
      <trkpt lat="45.42182" lon="5.62145">
        <ele>677</ele>
        <time>2023-02-16T11:37:17Z</time>
      </trkpt>
      <trkpt lat="45.42172" lon="5.62135">
        <ele>674</ele>
        <time>2023-02-16T11:37:19Z</time>
      </trkpt>
      <trkpt lat="45.42158" lon="5.62122">
        <ele>674</ele>
        <time>2023-02-16T11:37:21Z</time>
      </trkpt>
      <trkpt lat="45.4215" lon="5.62115">
        <ele>670</ele>
        <time>2023-02-16T11:37:22Z</time>
      </trkpt>
      <trkpt lat="45.42142" lon="5.62108">
        <ele>669</ele>
        <time>2023-02-16T11:37:23Z</time>
      </trkpt>
      <trkpt lat="45.42134" lon="5.62101">
        <ele>668</ele>
        <time>2023-02-16T11:37:24Z</time>
      </trkpt>
      <trkpt lat="45.42125" lon="5.62093">
        <ele>668</ele>
        <time>2023-02-16T11:37:25Z</time>
      </trkpt>
      <trkpt lat="45.42116" lon="5.62087">
        <ele>667</ele>
        <time>2023-02-16T11:37:26Z</time>
      </trkpt>
      <trkpt lat="45.42107" lon="5.62079">
        <ele>666</ele>
        <time>2023-02-16T11:37:27Z</time>
      </trkpt>
      <trkpt lat="45.421" lon="5.62071">
        <ele>666</ele>
        <time>2023-02-16T11:37:28Z</time>
      </trkpt>
      <trkpt lat="45.42089" lon="5.62052">
        <ele>666</ele>
        <time>2023-02-16T11:37:30Z</time>
      </trkpt>
      <trkpt lat="45.4208" lon="5.62037">
        <ele>661</ele>
        <time>2023-02-16T11:37:32Z</time>
      </trkpt>
      <trkpt lat="45.42065" lon="5.62022">
        <ele>659</ele>
        <time>2023-02-16T11:37:34Z</time>
      </trkpt>
      <trkpt lat="45.42054" lon="5.62012">
        <ele>655</ele>
        <time>2023-02-16T11:37:36Z</time>
      </trkpt>
      <trkpt lat="45.42046" lon="5.62005">
        <ele>655</ele>
        <time>2023-02-16T11:37:38Z</time>
      </trkpt>
      <trkpt lat="45.42034" lon="5.61998">
        <ele>653</ele>
        <time>2023-02-16T11:37:41Z</time>
      </trkpt>
      <trkpt lat="45.42023" lon="5.61999">
        <ele>652</ele>
        <time>2023-02-16T11:37:43Z</time>
      </trkpt>
      <trkpt lat="45.42011" lon="5.62001">
        <ele>652</ele>
        <time>2023-02-16T11:37:45Z</time>
      </trkpt>
      <trkpt lat="45.42001" lon="5.62004">
        <ele>652</ele>
        <time>2023-02-16T11:37:47Z</time>
      </trkpt>
      <trkpt lat="45.41991" lon="5.62006">
        <ele>652</ele>
        <time>2023-02-16T11:37:49Z</time>
      </trkpt>
      <trkpt lat="45.41981" lon="5.62008">
        <ele>652</ele>
        <time>2023-02-16T11:37:51Z</time>
      </trkpt>
      <trkpt lat="45.41971" lon="5.6201">
        <ele>652</ele>
        <time>2023-02-16T11:37:53Z</time>
      </trkpt>
      <trkpt lat="45.41962" lon="5.62012">
        <ele>652</ele>
        <time>2023-02-16T11:37:55Z</time>
      </trkpt>
      <trkpt lat="45.4195" lon="5.62016">
        <ele>652</ele>
        <time>2023-02-16T11:37:58Z</time>
      </trkpt>
      <trkpt lat="45.41938" lon="5.62021">
        <ele>652</ele>
        <time>2023-02-16T11:38:01Z</time>
      </trkpt>
      <trkpt lat="45.41936" lon="5.62007">
        <ele>652</ele>
        <time>2023-02-16T11:38:05Z</time>
      </trkpt>
      <trkpt lat="45.41948" lon="5.61994">
        <ele>650</ele>
        <time>2023-02-16T11:38:08Z</time>
      </trkpt>
      <trkpt lat="45.41962" lon="5.61988">
        <ele>650</ele>
        <time>2023-02-16T11:38:10Z</time>
      </trkpt>
      <trkpt lat="45.41975" lon="5.61982">
        <ele>648</ele>
        <time>2023-02-16T11:38:12Z</time>
      </trkpt>
      <trkpt lat="45.41992" lon="5.6198">
        <ele>647</ele>
        <time>2023-02-16T11:38:14Z</time>
      </trkpt>
      <trkpt lat="45.42001" lon="5.61979">
        <ele>646</ele>
        <time>2023-02-16T11:38:15Z</time>
      </trkpt>
      <trkpt lat="45.42018" lon="5.6198">
        <ele>646</ele>
        <time>2023-02-16T11:38:17Z</time>
      </trkpt>
      <trkpt lat="45.42035" lon="5.61975">
        <ele>645</ele>
        <time>2023-02-16T11:38:19Z</time>
      </trkpt>
      <trkpt lat="45.42043" lon="5.61971">
        <ele>645</ele>
        <time>2023-02-16T11:38:20Z</time>
      </trkpt>
      <trkpt lat="45.42053" lon="5.61956">
        <ele>645</ele>
        <time>2023-02-16T11:38:22Z</time>
      </trkpt>
      <trkpt lat="45.42062" lon="5.61943">
        <ele>644</ele>
        <time>2023-02-16T11:38:24Z</time>
      </trkpt>
      <trkpt lat="45.4207" lon="5.61932">
        <ele>644</ele>
        <time>2023-02-16T11:38:26Z</time>
      </trkpt>
      <trkpt lat="45.42077" lon="5.61922">
        <ele>645</ele>
        <time>2023-02-16T11:38:28Z</time>
      </trkpt>
      <trkpt lat="45.42085" lon="5.6191">
        <ele>645</ele>
        <time>2023-02-16T11:38:30Z</time>
      </trkpt>
      <trkpt lat="45.42094" lon="5.61898">
        <ele>645</ele>
        <time>2023-02-16T11:38:32Z</time>
      </trkpt>
      <trkpt lat="45.421" lon="5.61892">
        <ele>644</ele>
        <time>2023-02-16T11:38:33Z</time>
      </trkpt>
      <trkpt lat="45.42107" lon="5.61887">
        <ele>644</ele>
        <time>2023-02-16T11:38:34Z</time>
      </trkpt>
      <trkpt lat="45.42114" lon="5.61881">
        <ele>643</ele>
        <time>2023-02-16T11:38:35Z</time>
      </trkpt>
      <trkpt lat="45.42121" lon="5.61876">
        <ele>642</ele>
        <time>2023-02-16T11:38:36Z</time>
      </trkpt>
      <trkpt lat="45.42128" lon="5.61871">
        <ele>642</ele>
        <time>2023-02-16T11:38:37Z</time>
      </trkpt>
      <trkpt lat="45.42135" lon="5.61865">
        <ele>642</ele>
        <time>2023-02-16T11:38:38Z</time>
      </trkpt>
      <trkpt lat="45.42143" lon="5.61861">
        <ele>642</ele>
        <time>2023-02-16T11:38:39Z</time>
      </trkpt>
      <trkpt lat="45.4215" lon="5.61858">
        <ele>642</ele>
        <time>2023-02-16T11:38:40Z</time>
      </trkpt>
      <trkpt lat="45.42158" lon="5.61856">
        <ele>641</ele>
        <time>2023-02-16T11:38:41Z</time>
      </trkpt>
      <trkpt lat="45.42165" lon="5.61854">
        <ele>641</ele>
        <time>2023-02-16T11:38:42Z</time>
      </trkpt>
      <trkpt lat="45.42172" lon="5.61853">
        <ele>641</ele>
        <time>2023-02-16T11:38:43Z</time>
      </trkpt>
      <trkpt lat="45.42178" lon="5.61851">
        <ele>641</ele>
        <time>2023-02-16T11:38:44Z</time>
      </trkpt>
      <trkpt lat="45.42192" lon="5.61847">
        <ele>640</ele>
        <time>2023-02-16T11:38:46Z</time>
      </trkpt>
      <trkpt lat="45.42206" lon="5.61842">
        <ele>640</ele>
        <time>2023-02-16T11:38:48Z</time>
      </trkpt>
      <trkpt lat="45.42212" lon="5.61839">
        <ele>640</ele>
        <time>2023-02-16T11:38:49Z</time>
      </trkpt>
      <trkpt lat="45.42222" lon="5.61837">
        <ele>639</ele>
        <time>2023-02-16T11:38:51Z</time>
      </trkpt>
      <trkpt lat="45.42233" lon="5.61836">
        <ele>639</ele>
        <time>2023-02-16T11:38:53Z</time>
      </trkpt>
      <trkpt lat="45.42247" lon="5.61833">
        <ele>638</ele>
        <time>2023-02-16T11:38:55Z</time>
      </trkpt>
      <trkpt lat="45.42263" lon="5.61827">
        <ele>636</ele>
        <time>2023-02-16T11:38:57Z</time>
      </trkpt>
      <trkpt lat="45.42281" lon="5.61821">
        <ele>636</ele>
        <time>2023-02-16T11:38:59Z</time>
      </trkpt>
      <trkpt lat="45.42291" lon="5.6182">
        <ele>635</ele>
        <time>2023-02-16T11:39:00Z</time>
      </trkpt>
      <trkpt lat="45.42309" lon="5.61817">
        <ele>634</ele>
        <time>2023-02-16T11:39:02Z</time>
      </trkpt>
      <trkpt lat="45.42325" lon="5.61815">
        <ele>634</ele>
        <time>2023-02-16T11:39:04Z</time>
      </trkpt>
      <trkpt lat="45.42334" lon="5.61814">
        <ele>633</ele>
        <time>2023-02-16T11:39:05Z</time>
      </trkpt>
      <trkpt lat="45.42351" lon="5.61811">
        <ele>631</ele>
        <time>2023-02-16T11:39:07Z</time>
      </trkpt>
      <trkpt lat="45.4236" lon="5.61809">
        <ele>631</ele>
        <time>2023-02-16T11:39:08Z</time>
      </trkpt>
      <trkpt lat="45.42376" lon="5.61803">
        <ele>631</ele>
        <time>2023-02-16T11:39:10Z</time>
      </trkpt>
      <trkpt lat="45.42391" lon="5.61797">
        <ele>628</ele>
        <time>2023-02-16T11:39:12Z</time>
      </trkpt>
      <trkpt lat="45.42405" lon="5.61791">
        <ele>627</ele>
        <time>2023-02-16T11:39:14Z</time>
      </trkpt>
      <trkpt lat="45.42421" lon="5.61786">
        <ele>627</ele>
        <time>2023-02-16T11:39:16Z</time>
      </trkpt>
      <trkpt lat="45.42434" lon="5.61783">
        <ele>627</ele>
        <time>2023-02-16T11:39:18Z</time>
      </trkpt>
      <trkpt lat="45.42442" lon="5.61782">
        <ele>627</ele>
        <time>2023-02-16T11:39:19Z</time>
      </trkpt>
      <trkpt lat="45.42449" lon="5.61781">
        <ele>627</ele>
        <time>2023-02-16T11:39:20Z</time>
      </trkpt>
      <trkpt lat="45.42456" lon="5.61781">
        <ele>626</ele>
        <time>2023-02-16T11:39:21Z</time>
      </trkpt>
      <trkpt lat="45.42463" lon="5.61781">
        <ele>626</ele>
        <time>2023-02-16T11:39:22Z</time>
      </trkpt>
      <trkpt lat="45.42469" lon="5.61781">
        <ele>626</ele>
        <time>2023-02-16T11:39:23Z</time>
      </trkpt>
      <trkpt lat="45.42475" lon="5.61781">
        <ele>626</ele>
        <time>2023-02-16T11:39:24Z</time>
      </trkpt>
      <trkpt lat="45.4248" lon="5.61781">
        <ele>626</ele>
        <time>2023-02-16T11:39:25Z</time>
      </trkpt>
      <trkpt lat="45.42486" lon="5.61781">
        <ele>626</ele>
        <time>2023-02-16T11:39:26Z</time>
      </trkpt>
      <trkpt lat="45.42492" lon="5.6178">
        <ele>626</ele>
        <time>2023-02-16T11:39:27Z</time>
      </trkpt>
      <trkpt lat="45.42497" lon="5.61779">
        <ele>625</ele>
        <time>2023-02-16T11:39:28Z</time>
      </trkpt>
      <trkpt lat="45.42503" lon="5.61778">
        <ele>625</ele>
        <time>2023-02-16T11:39:29Z</time>
      </trkpt>
      <trkpt lat="45.42508" lon="5.61776">
        <ele>625</ele>
        <time>2023-02-16T11:39:30Z</time>
      </trkpt>
      <trkpt lat="45.42514" lon="5.61774">
        <ele>625</ele>
        <time>2023-02-16T11:39:31Z</time>
      </trkpt>
      <trkpt lat="45.42519" lon="5.61772">
        <ele>625</ele>
        <time>2023-02-16T11:39:32Z</time>
      </trkpt>
      <trkpt lat="45.42524" lon="5.6177">
        <ele>625</ele>
        <time>2023-02-16T11:39:33Z</time>
      </trkpt>
      <trkpt lat="45.42528" lon="5.61768">
        <ele>625</ele>
        <time>2023-02-16T11:39:34Z</time>
      </trkpt>
      <trkpt lat="45.42532" lon="5.61765">
        <ele>625</ele>
        <time>2023-02-16T11:39:35Z</time>
      </trkpt>
      <trkpt lat="45.42537" lon="5.61763">
        <ele>625</ele>
        <time>2023-02-16T11:39:36Z</time>
      </trkpt>
      <trkpt lat="45.4255" lon="5.61757">
        <ele>624</ele>
        <time>2023-02-16T11:39:38Z</time>
      </trkpt>
      <trkpt lat="45.42565" lon="5.61751">
        <ele>621</ele>
        <time>2023-02-16T11:39:40Z</time>
      </trkpt>
      <trkpt lat="45.42583" lon="5.61746">
        <ele>621</ele>
        <time>2023-02-16T11:39:42Z</time>
      </trkpt>
      <trkpt lat="45.42591" lon="5.61745">
        <ele>621</ele>
        <time>2023-02-16T11:39:43Z</time>
      </trkpt>
      <trkpt lat="45.42605" lon="5.61743">
        <ele>617</ele>
        <time>2023-02-16T11:39:45Z</time>
      </trkpt>
      <trkpt lat="45.42617" lon="5.6174">
        <ele>614</ele>
        <time>2023-02-16T11:39:47Z</time>
      </trkpt>
      <trkpt lat="45.42629" lon="5.61742">
        <ele>614</ele>
        <time>2023-02-16T11:39:49Z</time>
      </trkpt>
      <trkpt lat="45.42641" lon="5.61749">
        <ele>611</ele>
        <time>2023-02-16T11:39:51Z</time>
      </trkpt>
      <trkpt lat="45.42648" lon="5.61753">
        <ele>608</ele>
        <time>2023-02-16T11:39:52Z</time>
      </trkpt>
      <trkpt lat="45.42662" lon="5.61763">
        <ele>608</ele>
        <time>2023-02-16T11:39:54Z</time>
      </trkpt>
      <trkpt lat="45.42669" lon="5.61768">
        <ele>608</ele>
        <time>2023-02-16T11:39:55Z</time>
      </trkpt>
      <trkpt lat="45.42683" lon="5.61767">
        <ele>604</ele>
        <time>2023-02-16T11:39:57Z</time>
      </trkpt>
      <trkpt lat="45.42701" lon="5.61766">
        <ele>602</ele>
        <time>2023-02-16T11:39:59Z</time>
      </trkpt>
      <trkpt lat="45.42711" lon="5.61765">
        <ele>602</ele>
        <time>2023-02-16T11:40:00Z</time>
      </trkpt>
      <trkpt lat="45.42728" lon="5.61767">
        <ele>602</ele>
        <time>2023-02-16T11:40:02Z</time>
      </trkpt>
      <trkpt lat="45.4274" lon="5.61768">
        <ele>599</ele>
        <time>2023-02-16T11:40:04Z</time>
      </trkpt>
      <trkpt lat="45.42753" lon="5.61762">
        <ele>597</ele>
        <time>2023-02-16T11:40:07Z</time>
      </trkpt>
      <trkpt lat="45.42763" lon="5.61752">
        <ele>597</ele>
        <time>2023-02-16T11:40:10Z</time>
      </trkpt>
      <trkpt lat="45.42774" lon="5.61746">
        <ele>591</ele>
        <time>2023-02-16T11:40:14Z</time>
      </trkpt>
      <trkpt lat="45.42785" lon="5.61747">
        <ele>590</ele>
        <time>2023-02-16T11:40:16Z</time>
      </trkpt>
      <trkpt lat="45.42799" lon="5.61752">
        <ele>589</ele>
        <time>2023-02-16T11:40:18Z</time>
      </trkpt>
      <trkpt lat="45.42813" lon="5.61756">
        <ele>588</ele>
        <time>2023-02-16T11:40:20Z</time>
      </trkpt>
      <trkpt lat="45.42827" lon="5.61759">
        <ele>584</ele>
        <time>2023-02-16T11:40:22Z</time>
      </trkpt>
      <trkpt lat="45.4284" lon="5.61767">
        <ele>582</ele>
        <time>2023-02-16T11:40:24Z</time>
      </trkpt>
      <trkpt lat="45.42851" lon="5.61776">
        <ele>581</ele>
        <time>2023-02-16T11:40:26Z</time>
      </trkpt>
      <trkpt lat="45.42859" lon="5.61786">
        <ele>581</ele>
        <time>2023-02-16T11:40:28Z</time>
      </trkpt>
      <trkpt lat="45.42864" lon="5.61799">
        <ele>578</ele>
        <time>2023-02-16T11:40:30Z</time>
      </trkpt>
      <trkpt lat="45.42868" lon="5.61816">
        <ele>575</ele>
        <time>2023-02-16T11:40:32Z</time>
      </trkpt>
      <trkpt lat="45.42873" lon="5.61827">
        <ele>574</ele>
        <time>2023-02-16T11:40:34Z</time>
      </trkpt>
      <trkpt lat="45.42881" lon="5.6184">
        <ele>574</ele>
        <time>2023-02-16T11:40:37Z</time>
      </trkpt>
      <trkpt lat="45.42891" lon="5.61844">
        <ele>572</ele>
        <time>2023-02-16T11:40:41Z</time>
      </trkpt>
      <trkpt lat="45.42896" lon="5.61834">
        <ele>572</ele>
        <time>2023-02-16T11:40:45Z</time>
      </trkpt>
      <trkpt lat="45.42897" lon="5.61831">
        <ele>572</ele>
        <time>2023-02-16T11:40:46Z</time>
      </trkpt>
      <trkpt lat="45.42898" lon="5.61826">
        <ele>572</ele>
        <time>2023-02-16T11:40:48Z</time>
      </trkpt>
      <trkpt lat="45.42899" lon="5.61822">
        <ele>572</ele>
        <time>2023-02-16T11:40:50Z</time>
      </trkpt>
      <trkpt lat="45.429" lon="5.6182">
        <ele>572</ele>
        <time>2023-02-16T11:40:51Z</time>
      </trkpt>
      <trkpt lat="45.42901" lon="5.61817">
        <ele>572</ele>
        <time>2023-02-16T11:40:52Z</time>
      </trkpt>
      <trkpt lat="45.42903" lon="5.61813">
        <ele>572</ele>
        <time>2023-02-16T11:40:53Z</time>
      </trkpt>
      <trkpt lat="45.42904" lon="5.61809">
        <ele>572</ele>
        <time>2023-02-16T11:40:54Z</time>
      </trkpt>
      <trkpt lat="45.42906" lon="5.61805">
        <ele>572</ele>
        <time>2023-02-16T11:40:55Z</time>
      </trkpt>
      <trkpt lat="45.42908" lon="5.61801">
        <ele>572</ele>
        <time>2023-02-16T11:40:56Z</time>
      </trkpt>
      <trkpt lat="45.42919" lon="5.61801">
        <ele>572</ele>
        <time>2023-02-16T11:40:59Z</time>
      </trkpt>
      <trkpt lat="45.42932" lon="5.61814">
        <ele>572</ele>
        <time>2023-02-16T11:41:01Z</time>
      </trkpt>
      <trkpt lat="45.42945" lon="5.61822">
        <ele>572</ele>
        <time>2023-02-16T11:41:03Z</time>
      </trkpt>
      <trkpt lat="45.42957" lon="5.61833">
        <ele>569</ele>
        <time>2023-02-16T11:41:05Z</time>
      </trkpt>
      <trkpt lat="45.42965" lon="5.61845">
        <ele>568</ele>
        <time>2023-02-16T11:41:07Z</time>
      </trkpt>
      <trkpt lat="45.42972" lon="5.61855">
        <ele>563</ele>
        <time>2023-02-16T11:41:09Z</time>
      </trkpt>
      <trkpt lat="45.42982" lon="5.61861">
        <ele>562</ele>
        <time>2023-02-16T11:41:11Z</time>
      </trkpt>
      <trkpt lat="45.42992" lon="5.61872">
        <ele>561</ele>
        <time>2023-02-16T11:41:14Z</time>
      </trkpt>
      <trkpt lat="45.42999" lon="5.61881">
        <ele>561</ele>
        <time>2023-02-16T11:41:19Z</time>
      </trkpt>
      <trkpt lat="45.43001" lon="5.61885">
        <ele>563</ele>
        <time>2023-02-16T11:41:21Z</time>
      </trkpt>
      <trkpt lat="45.43001" lon="5.61888">
        <ele>563</ele>
        <time>2023-02-16T11:41:22Z</time>
      </trkpt>
      <trkpt lat="45.43003" lon="5.6189">
        <ele>563</ele>
        <time>2023-02-16T11:41:23Z</time>
      </trkpt>
      <trkpt lat="45.43005" lon="5.61893">
        <ele>563</ele>
        <time>2023-02-16T11:41:24Z</time>
      </trkpt>
      <trkpt lat="45.43008" lon="5.61897">
        <ele>563</ele>
        <time>2023-02-16T11:41:25Z</time>
      </trkpt>
      <trkpt lat="45.43017" lon="5.61907">
        <ele>563</ele>
        <time>2023-02-16T11:41:28Z</time>
      </trkpt>
      <trkpt lat="45.43025" lon="5.61915">
        <ele>563</ele>
        <time>2023-02-16T11:41:30Z</time>
      </trkpt>
      <trkpt lat="45.43033" lon="5.61925">
        <ele>563</ele>
        <time>2023-02-16T11:41:32Z</time>
      </trkpt>
      <trkpt lat="45.43041" lon="5.61935">
        <ele>562</ele>
        <time>2023-02-16T11:41:34Z</time>
      </trkpt>
      <trkpt lat="45.43052" lon="5.61944">
        <ele>561</ele>
        <time>2023-02-16T11:41:36Z</time>
      </trkpt>
      <trkpt lat="45.43061" lon="5.61955">
        <ele>561</ele>
        <time>2023-02-16T11:41:38Z</time>
      </trkpt>
      <trkpt lat="45.43072" lon="5.61965">
        <ele>561</ele>
        <time>2023-02-16T11:41:40Z</time>
      </trkpt>
      <trkpt lat="45.43085" lon="5.61975">
        <ele>559</ele>
        <time>2023-02-16T11:41:42Z</time>
      </trkpt>
      <trkpt lat="45.43097" lon="5.61982">
        <ele>558</ele>
        <time>2023-02-16T11:41:44Z</time>
      </trkpt>
      <trkpt lat="45.43104" lon="5.61992">
        <ele>558</ele>
        <time>2023-02-16T11:41:46Z</time>
      </trkpt>
      <trkpt lat="45.43107" lon="5.62004">
        <ele>558</ele>
        <time>2023-02-16T11:41:48Z</time>
      </trkpt>
      <trkpt lat="45.43112" lon="5.62021">
        <ele>558</ele>
        <time>2023-02-16T11:41:51Z</time>
      </trkpt>
      <trkpt lat="45.43116" lon="5.62036">
        <ele>558</ele>
        <time>2023-02-16T11:41:54Z</time>
      </trkpt>
      <trkpt lat="45.43117" lon="5.6204">
        <ele>558</ele>
        <time>2023-02-16T11:41:55Z</time>
      </trkpt>
      <trkpt lat="45.43118" lon="5.62045">
        <ele>558</ele>
        <time>2023-02-16T11:41:56Z</time>
      </trkpt>
      <trkpt lat="45.43119" lon="5.62049">
        <ele>559</ele>
        <time>2023-02-16T11:41:57Z</time>
      </trkpt>
      <trkpt lat="45.43119" lon="5.62052">
        <ele>559</ele>
        <time>2023-02-16T11:41:58Z</time>
      </trkpt>
      <trkpt lat="45.4312" lon="5.62056">
        <ele>559</ele>
        <time>2023-02-16T11:41:59Z</time>
      </trkpt>
      <trkpt lat="45.43121" lon="5.62059">
        <ele>559</ele>
        <time>2023-02-16T11:42:00Z</time>
      </trkpt>
      <trkpt lat="45.43122" lon="5.62062">
        <ele>559</ele>
        <time>2023-02-16T11:42:01Z</time>
      </trkpt>
      <trkpt lat="45.43123" lon="5.62065">
        <ele>559</ele>
        <time>2023-02-16T11:42:02Z</time>
      </trkpt>
      <trkpt lat="45.43124" lon="5.62068">
        <ele>559</ele>
        <time>2023-02-16T11:42:03Z</time>
      </trkpt>
      <trkpt lat="45.43125" lon="5.62071">
        <ele>560</ele>
        <time>2023-02-16T11:42:04Z</time>
      </trkpt>
      <trkpt lat="45.43127" lon="5.62074">
        <ele>560</ele>
        <time>2023-02-16T11:42:05Z</time>
      </trkpt>
      <trkpt lat="45.43129" lon="5.62076">
        <ele>560</ele>
        <time>2023-02-16T11:42:06Z</time>
      </trkpt>
      <trkpt lat="45.43131" lon="5.62078">
        <ele>560</ele>
        <time>2023-02-16T11:42:07Z</time>
      </trkpt>
      <trkpt lat="45.43133" lon="5.6208">
        <ele>561</ele>
        <time>2023-02-16T11:42:08Z</time>
      </trkpt>
      <trkpt lat="45.43135" lon="5.62082">
        <ele>561</ele>
        <time>2023-02-16T11:42:09Z</time>
      </trkpt>
      <trkpt lat="45.43137" lon="5.62084">
        <ele>561</ele>
        <time>2023-02-16T11:42:10Z</time>
      </trkpt>
      <trkpt lat="45.43139" lon="5.62087">
        <ele>561</ele>
        <time>2023-02-16T11:42:11Z</time>
      </trkpt>
      <trkpt lat="45.43141" lon="5.6209">
        <ele>561</ele>
        <time>2023-02-16T11:42:12Z</time>
      </trkpt>
      <trkpt lat="45.43143" lon="5.62093">
        <ele>561</ele>
        <time>2023-02-16T11:42:13Z</time>
      </trkpt>
      <trkpt lat="45.43145" lon="5.62096">
        <ele>561</ele>
        <time>2023-02-16T11:42:14Z</time>
      </trkpt>
      <trkpt lat="45.43147" lon="5.62099">
        <ele>561</ele>
        <time>2023-02-16T11:42:15Z</time>
      </trkpt>
      <trkpt lat="45.43148" lon="5.62102">
        <ele>561</ele>
        <time>2023-02-16T11:42:16Z</time>
      </trkpt>
      <trkpt lat="45.4315" lon="5.62106">
        <ele>561</ele>
        <time>2023-02-16T11:42:17Z</time>
      </trkpt>
      <trkpt lat="45.43151" lon="5.62109">
        <ele>561</ele>
        <time>2023-02-16T11:42:18Z</time>
      </trkpt>
      <trkpt lat="45.43153" lon="5.62113">
        <ele>561</ele>
        <time>2023-02-16T11:42:19Z</time>
      </trkpt>
      <trkpt lat="45.43155" lon="5.62116">
        <ele>561</ele>
        <time>2023-02-16T11:42:20Z</time>
      </trkpt>
      <trkpt lat="45.43157" lon="5.62119">
        <ele>561</ele>
        <time>2023-02-16T11:42:21Z</time>
      </trkpt>
      <trkpt lat="45.43159" lon="5.62122">
        <ele>561</ele>
        <time>2023-02-16T11:42:22Z</time>
      </trkpt>
      <trkpt lat="45.43161" lon="5.62125">
        <ele>561</ele>
        <time>2023-02-16T11:42:23Z</time>
      </trkpt>
      <trkpt lat="45.43163" lon="5.62128">
        <ele>562</ele>
        <time>2023-02-16T11:42:24Z</time>
      </trkpt>
      <trkpt lat="45.43165" lon="5.62131">
        <ele>562</ele>
        <time>2023-02-16T11:42:25Z</time>
      </trkpt>
      <trkpt lat="45.43167" lon="5.62134">
        <ele>562</ele>
        <time>2023-02-16T11:42:26Z</time>
      </trkpt>
      <trkpt lat="45.43169" lon="5.62137">
        <ele>562</ele>
        <time>2023-02-16T11:42:27Z</time>
      </trkpt>
      <trkpt lat="45.43171" lon="5.6214">
        <ele>562</ele>
        <time>2023-02-16T11:42:28Z</time>
      </trkpt>
      <trkpt lat="45.43173" lon="5.62143">
        <ele>562</ele>
        <time>2023-02-16T11:42:29Z</time>
      </trkpt>
      <trkpt lat="45.43174" lon="5.62146">
        <ele>562</ele>
        <time>2023-02-16T11:42:30Z</time>
      </trkpt>
      <trkpt lat="45.43176" lon="5.62148">
        <ele>562</ele>
        <time>2023-02-16T11:42:31Z</time>
      </trkpt>
      <trkpt lat="45.43179" lon="5.6215">
        <ele>562</ele>
        <time>2023-02-16T11:42:32Z</time>
      </trkpt>
      <trkpt lat="45.43181" lon="5.6215">
        <ele>562</ele>
        <time>2023-02-16T11:42:33Z</time>
      </trkpt>
      <trkpt lat="45.43183" lon="5.62149">
        <ele>563</ele>
        <time>2023-02-16T11:42:34Z</time>
      </trkpt>
      <trkpt lat="45.43185" lon="5.62148">
        <ele>563</ele>
        <time>2023-02-16T11:42:35Z</time>
      </trkpt>
      <trkpt lat="45.43187" lon="5.62145">
        <ele>563</ele>
        <time>2023-02-16T11:42:37Z</time>
      </trkpt>
      <trkpt lat="45.43188" lon="5.62142">
        <ele>563</ele>
        <time>2023-02-16T11:42:39Z</time>
      </trkpt>
      <trkpt lat="45.43189" lon="5.6214">
        <ele>563</ele>
        <time>2023-02-16T11:42:45Z</time>
      </trkpt>
      <trkpt lat="45.43191" lon="5.62137">
        <ele>563</ele>
        <time>2023-02-16T11:43:36Z</time>
      </trkpt>
      <trkpt lat="45.43192" lon="5.62136">
        <ele>563</ele>
        <time>2023-02-16T11:43:45Z</time>
      </trkpt>
      <trkpt lat="45.43195" lon="5.62136">
        <ele>563</ele>
        <time>2023-02-16T11:43:50Z</time>
      </trkpt>
      <trkpt lat="45.43197" lon="5.62135">
        <ele>563</ele>
        <time>2023-02-16T11:43:51Z</time>
      </trkpt>
      <trkpt lat="45.432" lon="5.62135">
        <ele>563</ele>
        <time>2023-02-16T11:43:52Z</time>
      </trkpt>
      <trkpt lat="45.43204" lon="5.62138">
        <ele>563</ele>
        <time>2023-02-16T11:43:53Z</time>
      </trkpt>
      <trkpt lat="45.43209" lon="5.62143">
        <ele>563</ele>
        <time>2023-02-16T11:43:54Z</time>
      </trkpt>
      <trkpt lat="45.43214" lon="5.62148">
        <ele>562</ele>
        <time>2023-02-16T11:43:55Z</time>
      </trkpt>
      <trkpt lat="45.43219" lon="5.62153">
        <ele>561</ele>
        <time>2023-02-16T11:43:56Z</time>
      </trkpt>
      <trkpt lat="45.43224" lon="5.62157">
        <ele>560</ele>
        <time>2023-02-16T11:43:57Z</time>
      </trkpt>
      <trkpt lat="45.43231" lon="5.62161">
        <ele>559</ele>
        <time>2023-02-16T11:43:58Z</time>
      </trkpt>
      <trkpt lat="45.43237" lon="5.62165">
        <ele>557</ele>
        <time>2023-02-16T11:43:59Z</time>
      </trkpt>
      <trkpt lat="45.43249" lon="5.62172">
        <ele>557</ele>
        <time>2023-02-16T11:44:01Z</time>
      </trkpt>
      <trkpt lat="45.43257" lon="5.6218">
        <ele>551</ele>
        <time>2023-02-16T11:44:03Z</time>
      </trkpt>
      <trkpt lat="45.43268" lon="5.62183">
        <ele>547</ele>
        <time>2023-02-16T11:44:06Z</time>
      </trkpt>
      <trkpt lat="45.43278" lon="5.62176">
        <ele>547</ele>
        <time>2023-02-16T11:44:09Z</time>
      </trkpt>
      <trkpt lat="45.4329" lon="5.62175">
        <ele>541</ele>
        <time>2023-02-16T11:44:11Z</time>
      </trkpt>
      <trkpt lat="45.43299" lon="5.62178">
        <ele>541</ele>
        <time>2023-02-16T11:44:12Z</time>
      </trkpt>
      <trkpt lat="45.43312" lon="5.62185">
        <ele>537</ele>
        <time>2023-02-16T11:44:14Z</time>
      </trkpt>
      <trkpt lat="45.43323" lon="5.6219">
        <ele>535</ele>
        <time>2023-02-16T11:44:16Z</time>
      </trkpt>
      <trkpt lat="45.43338" lon="5.62198">
        <ele>533</ele>
        <time>2023-02-16T11:44:18Z</time>
      </trkpt>
      <trkpt lat="45.43351" lon="5.62209">
        <ele>533</ele>
        <time>2023-02-16T11:44:20Z</time>
      </trkpt>
      <trkpt lat="45.43363" lon="5.6222">
        <ele>527</ele>
        <time>2023-02-16T11:44:22Z</time>
      </trkpt>
      <trkpt lat="45.4337" lon="5.62229">
        <ele>526</ele>
        <time>2023-02-16T11:44:23Z</time>
      </trkpt>
      <trkpt lat="45.43378" lon="5.62239">
        <ele>526</ele>
        <time>2023-02-16T11:44:24Z</time>
      </trkpt>
      <trkpt lat="45.43386" lon="5.62246">
        <ele>524</ele>
        <time>2023-02-16T11:44:25Z</time>
      </trkpt>
      <trkpt lat="45.434" lon="5.62257">
        <ele>524</ele>
        <time>2023-02-16T11:44:27Z</time>
      </trkpt>
      <trkpt lat="45.43415" lon="5.62266">
        <ele>518</ele>
        <time>2023-02-16T11:44:29Z</time>
      </trkpt>
      <trkpt lat="45.43428" lon="5.6227">
        <ele>515</ele>
        <time>2023-02-16T11:44:31Z</time>
      </trkpt>
      <trkpt lat="45.43443" lon="5.62275">
        <ele>515</ele>
        <time>2023-02-16T11:44:33Z</time>
      </trkpt>
      <trkpt lat="45.43456" lon="5.62288">
        <ele>509</ele>
        <time>2023-02-16T11:44:35Z</time>
      </trkpt>
      <trkpt lat="45.43467" lon="5.62304">
        <ele>507</ele>
        <time>2023-02-16T11:44:37Z</time>
      </trkpt>
      <trkpt lat="45.43481" lon="5.62314">
        <ele>507</ele>
        <time>2023-02-16T11:44:39Z</time>
      </trkpt>
      <trkpt lat="45.43493" lon="5.62311">
        <ele>502</ele>
        <time>2023-02-16T11:44:41Z</time>
      </trkpt>
      <trkpt lat="45.43507" lon="5.62295">
        <ele>499</ele>
        <time>2023-02-16T11:44:43Z</time>
      </trkpt>
      <trkpt lat="45.4352" lon="5.62281">
        <ele>499</ele>
        <time>2023-02-16T11:44:45Z</time>
      </trkpt>
      <trkpt lat="45.4353" lon="5.62273">
        <ele>495</ele>
        <time>2023-02-16T11:44:48Z</time>
      </trkpt>
      <trkpt lat="45.43543" lon="5.62277">
        <ele>493</ele>
        <time>2023-02-16T11:44:50Z</time>
      </trkpt>
      <trkpt lat="45.43559" lon="5.62284">
        <ele>490</ele>
        <time>2023-02-16T11:44:52Z</time>
      </trkpt>
      <trkpt lat="45.43576" lon="5.62285">
        <ele>490</ele>
        <time>2023-02-16T11:44:54Z</time>
      </trkpt>
      <trkpt lat="45.43585" lon="5.62281">
        <ele>485</ele>
        <time>2023-02-16T11:44:55Z</time>
      </trkpt>
      <trkpt lat="45.43596" lon="5.62266">
        <ele>484</ele>
        <time>2023-02-16T11:44:57Z</time>
      </trkpt>
      <trkpt lat="45.43608" lon="5.6225">
        <ele>484</ele>
        <time>2023-02-16T11:44:59Z</time>
      </trkpt>
      <trkpt lat="45.43615" lon="5.62242">
        <ele>479</ele>
        <time>2023-02-16T11:45:00Z</time>
      </trkpt>
      <trkpt lat="45.43624" lon="5.62233">
        <ele>479</ele>
        <time>2023-02-16T11:45:01Z</time>
      </trkpt>
      <trkpt lat="45.43633" lon="5.62225">
        <ele>478</ele>
        <time>2023-02-16T11:45:02Z</time>
      </trkpt>
      <trkpt lat="45.43642" lon="5.62217">
        <ele>478</ele>
        <time>2023-02-16T11:45:03Z</time>
      </trkpt>
      <trkpt lat="45.43652" lon="5.62209">
        <ele>478</ele>
        <time>2023-02-16T11:45:04Z</time>
      </trkpt>
      <trkpt lat="45.43661" lon="5.62201">
        <ele>477</ele>
        <time>2023-02-16T11:45:05Z</time>
      </trkpt>
      <trkpt lat="45.43671" lon="5.62192">
        <ele>477</ele>
        <time>2023-02-16T11:45:06Z</time>
      </trkpt>
      <trkpt lat="45.4368" lon="5.62182">
        <ele>476</ele>
        <time>2023-02-16T11:45:07Z</time>
      </trkpt>
      <trkpt lat="45.43689" lon="5.62173">
        <ele>476</ele>
        <time>2023-02-16T11:45:08Z</time>
      </trkpt>
      <trkpt lat="45.43698" lon="5.62164">
        <ele>474</ele>
        <time>2023-02-16T11:45:09Z</time>
      </trkpt>
      <trkpt lat="45.43707" lon="5.62155">
        <ele>474</ele>
        <time>2023-02-16T11:45:10Z</time>
      </trkpt>
      <trkpt lat="45.43716" lon="5.62147">
        <ele>472</ele>
        <time>2023-02-16T11:45:11Z</time>
      </trkpt>
      <trkpt lat="45.43725" lon="5.62139">
        <ele>471</ele>
        <time>2023-02-16T11:45:12Z</time>
      </trkpt>
      <trkpt lat="45.43733" lon="5.62131">
        <ele>471</ele>
        <time>2023-02-16T11:45:13Z</time>
      </trkpt>
      <trkpt lat="45.43741" lon="5.62124">
        <ele>469</ele>
        <time>2023-02-16T11:45:14Z</time>
      </trkpt>
      <trkpt lat="45.43748" lon="5.62118">
        <ele>468</ele>
        <time>2023-02-16T11:45:15Z</time>
      </trkpt>
      <trkpt lat="45.43757" lon="5.62113">
        <ele>467</ele>
        <time>2023-02-16T11:45:16Z</time>
      </trkpt>
      <trkpt lat="45.43766" lon="5.62108">
        <ele>466</ele>
        <time>2023-02-16T11:45:17Z</time>
      </trkpt>
      <trkpt lat="45.43775" lon="5.62101">
        <ele>466</ele>
        <time>2023-02-16T11:45:18Z</time>
      </trkpt>
      <trkpt lat="45.43783" lon="5.62094">
        <ele>466</ele>
        <time>2023-02-16T11:45:19Z</time>
      </trkpt>
      <trkpt lat="45.43792" lon="5.62086">
        <ele>465</ele>
        <time>2023-02-16T11:45:20Z</time>
      </trkpt>
      <trkpt lat="45.438" lon="5.62078">
        <ele>464</ele>
        <time>2023-02-16T11:45:21Z</time>
      </trkpt>
      <trkpt lat="45.43809" lon="5.6207">
        <ele>463</ele>
        <time>2023-02-16T11:45:22Z</time>
      </trkpt>
      <trkpt lat="45.43817" lon="5.62061">
        <ele>463</ele>
        <time>2023-02-16T11:45:23Z</time>
      </trkpt>
      <trkpt lat="45.43826" lon="5.62052">
        <ele>461</ele>
        <time>2023-02-16T11:45:24Z</time>
      </trkpt>
      <trkpt lat="45.43835" lon="5.62044">
        <ele>461</ele>
        <time>2023-02-16T11:45:25Z</time>
      </trkpt>
      <trkpt lat="45.43844" lon="5.62035">
        <ele>460</ele>
        <time>2023-02-16T11:45:26Z</time>
      </trkpt>
      <trkpt lat="45.43853" lon="5.62026">
        <ele>459</ele>
        <time>2023-02-16T11:45:27Z</time>
      </trkpt>
      <trkpt lat="45.43863" lon="5.62018">
        <ele>459</ele>
        <time>2023-02-16T11:45:28Z</time>
      </trkpt>
      <trkpt lat="45.43873" lon="5.6201">
        <ele>457</ele>
        <time>2023-02-16T11:45:29Z</time>
      </trkpt>
      <trkpt lat="45.43883" lon="5.62004">
        <ele>456</ele>
        <time>2023-02-16T11:45:30Z</time>
      </trkpt>
      <trkpt lat="45.43893" lon="5.61998">
        <ele>455</ele>
        <time>2023-02-16T11:45:31Z</time>
      </trkpt>
      <trkpt lat="45.43904" lon="5.61996">
        <ele>455</ele>
        <time>2023-02-16T11:45:32Z</time>
      </trkpt>
      <trkpt lat="45.43916" lon="5.61997">
        <ele>453</ele>
        <time>2023-02-16T11:45:33Z</time>
      </trkpt>
      <trkpt lat="45.43926" lon="5.62001">
        <ele>452</ele>
        <time>2023-02-16T11:45:34Z</time>
      </trkpt>
      <trkpt lat="45.43937" lon="5.62009">
        <ele>451</ele>
        <time>2023-02-16T11:45:35Z</time>
      </trkpt>
      <trkpt lat="45.43946" lon="5.62017">
        <ele>451</ele>
        <time>2023-02-16T11:45:36Z</time>
      </trkpt>
      <trkpt lat="45.43955" lon="5.62026">
        <ele>449</ele>
        <time>2023-02-16T11:45:37Z</time>
      </trkpt>
      <trkpt lat="45.43965" lon="5.62035">
        <ele>449</ele>
        <time>2023-02-16T11:45:38Z</time>
      </trkpt>
      <trkpt lat="45.43974" lon="5.62043">
        <ele>448</ele>
        <time>2023-02-16T11:45:39Z</time>
      </trkpt>
      <trkpt lat="45.43982" lon="5.6205">
        <ele>447</ele>
        <time>2023-02-16T11:45:40Z</time>
      </trkpt>
      <trkpt lat="45.4399" lon="5.62057">
        <ele>447</ele>
        <time>2023-02-16T11:45:41Z</time>
      </trkpt>
      <trkpt lat="45.43996" lon="5.62066">
        <ele>447</ele>
        <time>2023-02-16T11:45:42Z</time>
      </trkpt>
      <trkpt lat="45.44" lon="5.62076">
        <ele>446</ele>
        <time>2023-02-16T11:45:43Z</time>
      </trkpt>
      <trkpt lat="45.44003" lon="5.62086">
        <ele>446</ele>
        <time>2023-02-16T11:45:44Z</time>
      </trkpt>
      <trkpt lat="45.44005" lon="5.62095">
        <ele>445</ele>
        <time>2023-02-16T11:45:45Z</time>
      </trkpt>
      <trkpt lat="45.44007" lon="5.62103">
        <ele>445</ele>
        <time>2023-02-16T11:45:46Z</time>
      </trkpt>
      <trkpt lat="45.44011" lon="5.62109">
        <ele>445</ele>
        <time>2023-02-16T11:45:47Z</time>
      </trkpt>
      <trkpt lat="45.44016" lon="5.62112">
        <ele>445</ele>
        <time>2023-02-16T11:45:48Z</time>
      </trkpt>
      <trkpt lat="45.44021" lon="5.62115">
        <ele>446</ele>
        <time>2023-02-16T11:45:49Z</time>
      </trkpt>
      <trkpt lat="45.44027" lon="5.62116">
        <ele>446</ele>
        <time>2023-02-16T11:45:50Z</time>
      </trkpt>
      <trkpt lat="45.44033" lon="5.62118">
        <ele>445</ele>
        <time>2023-02-16T11:45:51Z</time>
      </trkpt>
      <trkpt lat="45.44039" lon="5.6212">
        <ele>445</ele>
        <time>2023-02-16T11:45:52Z</time>
      </trkpt>
      <trkpt lat="45.44045" lon="5.62122">
        <ele>445</ele>
        <time>2023-02-16T11:45:53Z</time>
      </trkpt>
      <trkpt lat="45.44051" lon="5.62124">
        <ele>444</ele>
        <time>2023-02-16T11:45:54Z</time>
      </trkpt>
      <trkpt lat="45.44057" lon="5.62126">
        <ele>444</ele>
        <time>2023-02-16T11:45:55Z</time>
      </trkpt>
      <trkpt lat="45.44063" lon="5.62128">
        <ele>444</ele>
        <time>2023-02-16T11:45:56Z</time>
      </trkpt>
      <trkpt lat="45.44069" lon="5.6213">
        <ele>444</ele>
        <time>2023-02-16T11:45:57Z</time>
      </trkpt>
      <trkpt lat="45.44075" lon="5.62133">
        <ele>444</ele>
        <time>2023-02-16T11:45:58Z</time>
      </trkpt>
      <trkpt lat="45.44081" lon="5.62135">
        <ele>444</ele>
        <time>2023-02-16T11:45:59Z</time>
      </trkpt>
      <trkpt lat="45.44088" lon="5.62137">
        <ele>444</ele>
        <time>2023-02-16T11:46:00Z</time>
      </trkpt>
      <trkpt lat="45.44095" lon="5.62138">
        <ele>444</ele>
        <time>2023-02-16T11:46:01Z</time>
      </trkpt>
      <trkpt lat="45.44102" lon="5.62138">
        <ele>444</ele>
        <time>2023-02-16T11:46:02Z</time>
      </trkpt>
      <trkpt lat="45.44109" lon="5.62138">
        <ele>444</ele>
        <time>2023-02-16T11:46:03Z</time>
      </trkpt>
      <trkpt lat="45.44116" lon="5.62138">
        <ele>444</ele>
        <time>2023-02-16T11:46:04Z</time>
      </trkpt>
      <trkpt lat="45.44123" lon="5.62137">
        <ele>443</ele>
        <time>2023-02-16T11:46:05Z</time>
      </trkpt>
      <trkpt lat="45.4413" lon="5.62136">
        <ele>443</ele>
        <time>2023-02-16T11:46:06Z</time>
      </trkpt>
      <trkpt lat="45.44136" lon="5.62134">
        <ele>443</ele>
        <time>2023-02-16T11:46:07Z</time>
      </trkpt>
      <trkpt lat="45.44142" lon="5.62132">
        <ele>443</ele>
        <time>2023-02-16T11:46:08Z</time>
      </trkpt>
      <trkpt lat="45.44148" lon="5.62127">
        <ele>442</ele>
        <time>2023-02-16T11:46:09Z</time>
      </trkpt>
      <trkpt lat="45.44154" lon="5.62123">
        <ele>442</ele>
        <time>2023-02-16T11:46:10Z</time>
      </trkpt>
      <trkpt lat="45.44161" lon="5.6212">
        <ele>442</ele>
        <time>2023-02-16T11:46:11Z</time>
      </trkpt>
      <trkpt lat="45.44168" lon="5.62117">
        <ele>441</ele>
        <time>2023-02-16T11:46:12Z</time>
      </trkpt>
      <trkpt lat="45.44175" lon="5.62115">
        <ele>441</ele>
        <time>2023-02-16T11:46:13Z</time>
      </trkpt>
      <trkpt lat="45.44182" lon="5.62114">
        <ele>441</ele>
        <time>2023-02-16T11:46:14Z</time>
      </trkpt>
      <trkpt lat="45.44187" lon="5.62114">
        <ele>440</ele>
        <time>2023-02-16T11:46:15Z</time>
      </trkpt>
      <trkpt lat="45.4419" lon="5.62115">
        <ele>440</ele>
        <time>2023-02-16T11:46:16Z</time>
      </trkpt>
      <trkpt lat="45.44194" lon="5.62114">
        <ele>440</ele>
        <time>2023-02-16T11:46:17Z</time>
      </trkpt>
      <trkpt lat="45.44204" lon="5.62112">
        <ele>439</ele>
        <time>2023-02-16T11:46:19Z</time>
      </trkpt>
      <trkpt lat="45.44218" lon="5.62117">
        <ele>439</ele>
        <time>2023-02-16T11:46:20Z</time>
      </trkpt>
      <trkpt lat="45.4423" lon="5.6212">
        <ele>439</ele>
        <time>2023-02-16T11:46:21Z</time>
      </trkpt>
      <trkpt lat="45.44241" lon="5.62125">
        <ele>439</ele>
        <time>2023-02-16T11:46:22Z</time>
      </trkpt>
      <trkpt lat="45.44252" lon="5.62128">
        <ele>436</ele>
        <time>2023-02-16T11:46:23Z</time>
      </trkpt>
      <trkpt lat="45.44262" lon="5.62131">
        <ele>436</ele>
        <time>2023-02-16T11:46:24Z</time>
      </trkpt>
      <trkpt lat="45.44273" lon="5.62133">
        <ele>435</ele>
        <time>2023-02-16T11:46:25Z</time>
      </trkpt>
      <trkpt lat="45.44283" lon="5.62135">
        <ele>434</ele>
        <time>2023-02-16T11:46:26Z</time>
      </trkpt>
      <trkpt lat="45.44292" lon="5.62138">
        <ele>433</ele>
        <time>2023-02-16T11:46:27Z</time>
      </trkpt>
      <trkpt lat="45.44302" lon="5.62141">
        <ele>432</ele>
        <time>2023-02-16T11:46:28Z</time>
      </trkpt>
      <trkpt lat="45.44311" lon="5.62144">
        <ele>432</ele>
        <time>2023-02-16T11:46:29Z</time>
      </trkpt>
      <trkpt lat="45.4432" lon="5.62148">
        <ele>432</ele>
        <time>2023-02-16T11:46:30Z</time>
      </trkpt>
      <trkpt lat="45.44329" lon="5.62151">
        <ele>432</ele>
        <time>2023-02-16T11:46:31Z</time>
      </trkpt>
      <trkpt lat="45.44338" lon="5.62155">
        <ele>432</ele>
        <time>2023-02-16T11:46:32Z</time>
      </trkpt>
      <trkpt lat="45.44348" lon="5.62157">
        <ele>431</ele>
        <time>2023-02-16T11:46:33Z</time>
      </trkpt>
      <trkpt lat="45.44357" lon="5.62159">
        <ele>431</ele>
        <time>2023-02-16T11:46:34Z</time>
      </trkpt>
      <trkpt lat="45.44365" lon="5.62158">
        <ele>429</ele>
        <time>2023-02-16T11:46:35Z</time>
      </trkpt>
      <trkpt lat="45.44372" lon="5.62158">
        <ele>429</ele>
        <time>2023-02-16T11:46:36Z</time>
      </trkpt>
      <trkpt lat="45.44377" lon="5.62159">
        <ele>429</ele>
        <time>2023-02-16T11:46:37Z</time>
      </trkpt>
      <trkpt lat="45.4438" lon="5.62162">
        <ele>429</ele>
        <time>2023-02-16T11:46:38Z</time>
      </trkpt>
      <trkpt lat="45.44382" lon="5.62167">
        <ele>428</ele>
        <time>2023-02-16T11:46:39Z</time>
      </trkpt>
      <trkpt lat="45.44383" lon="5.62173">
        <ele>428</ele>
        <time>2023-02-16T11:46:40Z</time>
      </trkpt>
      <trkpt lat="45.44383" lon="5.6218">
        <ele>428</ele>
        <time>2023-02-16T11:46:41Z</time>
      </trkpt>
      <trkpt lat="45.44384" lon="5.62186">
        <ele>428</ele>
        <time>2023-02-16T11:46:42Z</time>
      </trkpt>
      <trkpt lat="45.44385" lon="5.62193">
        <ele>428</ele>
        <time>2023-02-16T11:46:43Z</time>
      </trkpt>
      <trkpt lat="45.44385" lon="5.622">
        <ele>428</ele>
        <time>2023-02-16T11:46:44Z</time>
      </trkpt>
      <trkpt lat="45.44386" lon="5.62208">
        <ele>428</ele>
        <time>2023-02-16T11:46:45Z</time>
      </trkpt>
      <trkpt lat="45.44386" lon="5.62215">
        <ele>428</ele>
        <time>2023-02-16T11:46:46Z</time>
      </trkpt>
      <trkpt lat="45.44386" lon="5.62222">
        <ele>428</ele>
        <time>2023-02-16T11:46:47Z</time>
      </trkpt>
      <trkpt lat="45.44385" lon="5.6223">
        <ele>427</ele>
        <time>2023-02-16T11:46:48Z</time>
      </trkpt>
      <trkpt lat="45.44385" lon="5.62238">
        <ele>427</ele>
        <time>2023-02-16T11:46:49Z</time>
      </trkpt>
      <trkpt lat="45.44384" lon="5.62246">
        <ele>427</ele>
        <time>2023-02-16T11:46:50Z</time>
      </trkpt>
      <trkpt lat="45.44383" lon="5.62253">
        <ele>426</ele>
        <time>2023-02-16T11:46:51Z</time>
      </trkpt>
      <trkpt lat="45.44382" lon="5.62261">
        <ele>426</ele>
        <time>2023-02-16T11:46:52Z</time>
      </trkpt>
      <trkpt lat="45.4438" lon="5.62269">
        <ele>426</ele>
        <time>2023-02-16T11:46:53Z</time>
      </trkpt>
      <trkpt lat="45.44378" lon="5.62276">
        <ele>426</ele>
        <time>2023-02-16T11:46:54Z</time>
      </trkpt>
      <trkpt lat="45.44376" lon="5.62283">
        <ele>426</ele>
        <time>2023-02-16T11:46:55Z</time>
      </trkpt>
      <trkpt lat="45.44374" lon="5.6229">
        <ele>426</ele>
        <time>2023-02-16T11:46:56Z</time>
      </trkpt>
      <trkpt lat="45.44373" lon="5.62298">
        <ele>426</ele>
        <time>2023-02-16T11:46:57Z</time>
      </trkpt>
      <trkpt lat="45.44372" lon="5.62306">
        <ele>425</ele>
        <time>2023-02-16T11:46:58Z</time>
      </trkpt>
      <trkpt lat="45.44372" lon="5.62314">
        <ele>425</ele>
        <time>2023-02-16T11:46:59Z</time>
      </trkpt>
      <trkpt lat="45.44373" lon="5.62322">
        <ele>425</ele>
        <time>2023-02-16T11:47:00Z</time>
      </trkpt>
      <trkpt lat="45.44375" lon="5.6233">
        <ele>425</ele>
        <time>2023-02-16T11:47:01Z</time>
      </trkpt>
      <trkpt lat="45.44377" lon="5.62339">
        <ele>425</ele>
        <time>2023-02-16T11:47:02Z</time>
      </trkpt>
      <trkpt lat="45.44379" lon="5.62347">
        <ele>425</ele>
        <time>2023-02-16T11:47:03Z</time>
      </trkpt>
      <trkpt lat="45.44381" lon="5.62355">
        <ele>424</ele>
        <time>2023-02-16T11:47:04Z</time>
      </trkpt>
      <trkpt lat="45.44384" lon="5.62362">
        <ele>424</ele>
        <time>2023-02-16T11:47:05Z</time>
      </trkpt>
      <trkpt lat="45.44386" lon="5.6237">
        <ele>424</ele>
        <time>2023-02-16T11:47:06Z</time>
      </trkpt>
      <trkpt lat="45.44389" lon="5.62378">
        <ele>424</ele>
        <time>2023-02-16T11:47:07Z</time>
      </trkpt>
      <trkpt lat="45.44391" lon="5.62386">
        <ele>424</ele>
        <time>2023-02-16T11:47:08Z</time>
      </trkpt>
      <trkpt lat="45.44393" lon="5.62394">
        <ele>424</ele>
        <time>2023-02-16T11:47:09Z</time>
      </trkpt>
      <trkpt lat="45.44395" lon="5.62402">
        <ele>424</ele>
        <time>2023-02-16T11:47:10Z</time>
      </trkpt>
      <trkpt lat="45.44396" lon="5.6241">
        <ele>423</ele>
        <time>2023-02-16T11:47:11Z</time>
      </trkpt>
      <trkpt lat="45.44398" lon="5.62418">
        <ele>423</ele>
        <time>2023-02-16T11:47:12Z</time>
      </trkpt>
      <trkpt lat="45.44399" lon="5.62426">
        <ele>423</ele>
        <time>2023-02-16T11:47:13Z</time>
      </trkpt>
      <trkpt lat="45.444" lon="5.62434">
        <ele>423</ele>
        <time>2023-02-16T11:47:14Z</time>
      </trkpt>
      <trkpt lat="45.44401" lon="5.62443">
        <ele>423</ele>
        <time>2023-02-16T11:47:15Z</time>
      </trkpt>
      <trkpt lat="45.44402" lon="5.62451">
        <ele>423</ele>
        <time>2023-02-16T11:47:16Z</time>
      </trkpt>
      <trkpt lat="45.44403" lon="5.62459">
        <ele>423</ele>
        <time>2023-02-16T11:47:17Z</time>
      </trkpt>
      <trkpt lat="45.44403" lon="5.62467">
        <ele>423</ele>
        <time>2023-02-16T11:47:18Z</time>
      </trkpt>
      <trkpt lat="45.44404" lon="5.62474">
        <ele>423</ele>
        <time>2023-02-16T11:47:19Z</time>
      </trkpt>
      <trkpt lat="45.44404" lon="5.62482">
        <ele>423</ele>
        <time>2023-02-16T11:47:20Z</time>
      </trkpt>
      <trkpt lat="45.44403" lon="5.6249">
        <ele>423</ele>
        <time>2023-02-16T11:47:21Z</time>
      </trkpt>
      <trkpt lat="45.44403" lon="5.62497">
        <ele>423</ele>
        <time>2023-02-16T11:47:22Z</time>
      </trkpt>
      <trkpt lat="45.44402" lon="5.62504">
        <ele>423</ele>
        <time>2023-02-16T11:47:23Z</time>
      </trkpt>
      <trkpt lat="45.44401" lon="5.6251">
        <ele>422</ele>
        <time>2023-02-16T11:47:24Z</time>
      </trkpt>
      <trkpt lat="45.444" lon="5.62518">
        <ele>422</ele>
        <time>2023-02-16T11:47:25Z</time>
      </trkpt>
      <trkpt lat="45.44399" lon="5.62525">
        <ele>422</ele>
        <time>2023-02-16T11:47:26Z</time>
      </trkpt>
      <trkpt lat="45.44397" lon="5.62533">
        <ele>422</ele>
        <time>2023-02-16T11:47:27Z</time>
      </trkpt>
      <trkpt lat="45.44396" lon="5.6254">
        <ele>422</ele>
        <time>2023-02-16T11:47:28Z</time>
      </trkpt>
      <trkpt lat="45.44395" lon="5.62547">
        <ele>422</ele>
        <time>2023-02-16T11:47:29Z</time>
      </trkpt>
      <trkpt lat="45.44393" lon="5.62554">
        <ele>422</ele>
        <time>2023-02-16T11:47:30Z</time>
      </trkpt>
      <trkpt lat="45.44391" lon="5.62561">
        <ele>422</ele>
        <time>2023-02-16T11:47:31Z</time>
      </trkpt>
      <trkpt lat="45.4439" lon="5.62569">
        <ele>422</ele>
        <time>2023-02-16T11:47:32Z</time>
      </trkpt>
      <trkpt lat="45.44389" lon="5.62576">
        <ele>421</ele>
        <time>2023-02-16T11:47:33Z</time>
      </trkpt>
      <trkpt lat="45.44388" lon="5.62583">
        <ele>421</ele>
        <time>2023-02-16T11:47:34Z</time>
      </trkpt>
      <trkpt lat="45.44387" lon="5.62589">
        <ele>421</ele>
        <time>2023-02-16T11:47:35Z</time>
      </trkpt>
      <trkpt lat="45.44386" lon="5.62596">
        <ele>420</ele>
        <time>2023-02-16T11:47:36Z</time>
      </trkpt>
      <trkpt lat="45.44386" lon="5.62604">
        <ele>420</ele>
        <time>2023-02-16T11:47:37Z</time>
      </trkpt>
      <trkpt lat="45.44385" lon="5.62611">
        <ele>420</ele>
        <time>2023-02-16T11:47:38Z</time>
      </trkpt>
      <trkpt lat="45.44385" lon="5.62619">
        <ele>420</ele>
        <time>2023-02-16T11:47:39Z</time>
      </trkpt>
      <trkpt lat="45.44384" lon="5.62625">
        <ele>420</ele>
        <time>2023-02-16T11:47:40Z</time>
      </trkpt>
      <trkpt lat="45.44383" lon="5.62632">
        <ele>420</ele>
        <time>2023-02-16T11:47:41Z</time>
      </trkpt>
      <trkpt lat="45.44382" lon="5.62639">
        <ele>420</ele>
        <time>2023-02-16T11:47:42Z</time>
      </trkpt>
      <trkpt lat="45.44381" lon="5.62646">
        <ele>420</ele>
        <time>2023-02-16T11:47:43Z</time>
      </trkpt>
      <trkpt lat="45.44381" lon="5.62653">
        <ele>420</ele>
        <time>2023-02-16T11:47:44Z</time>
      </trkpt>
      <trkpt lat="45.4438" lon="5.6266">
        <ele>420</ele>
        <time>2023-02-16T11:47:45Z</time>
      </trkpt>
      <trkpt lat="45.44379" lon="5.62666">
        <ele>420</ele>
        <time>2023-02-16T11:47:46Z</time>
      </trkpt>
      <trkpt lat="45.44379" lon="5.62673">
        <ele>420</ele>
        <time>2023-02-16T11:47:47Z</time>
      </trkpt>
      <trkpt lat="45.44379" lon="5.62681">
        <ele>420</ele>
        <time>2023-02-16T11:47:48Z</time>
      </trkpt>
      <trkpt lat="45.44378" lon="5.62687">
        <ele>420</ele>
        <time>2023-02-16T11:47:49Z</time>
      </trkpt>
      <trkpt lat="45.44378" lon="5.62694">
        <ele>419</ele>
        <time>2023-02-16T11:47:50Z</time>
      </trkpt>
      <trkpt lat="45.44377" lon="5.62708">
        <ele>419</ele>
        <time>2023-02-16T11:47:52Z</time>
      </trkpt>
      <trkpt lat="45.44376" lon="5.62715">
        <ele>419</ele>
        <time>2023-02-16T11:47:53Z</time>
      </trkpt>
      <trkpt lat="45.44375" lon="5.62722">
        <ele>419</ele>
        <time>2023-02-16T11:47:54Z</time>
      </trkpt>
      <trkpt lat="45.44373" lon="5.62729">
        <ele>419</ele>
        <time>2023-02-16T11:47:55Z</time>
      </trkpt>
      <trkpt lat="45.44373" lon="5.62736">
        <ele>419</ele>
        <time>2023-02-16T11:47:56Z</time>
      </trkpt>
      <trkpt lat="45.44372" lon="5.62743">
        <ele>419</ele>
        <time>2023-02-16T11:47:57Z</time>
      </trkpt>
      <trkpt lat="45.44372" lon="5.6275">
        <ele>419</ele>
        <time>2023-02-16T11:47:58Z</time>
      </trkpt>
      <trkpt lat="45.44372" lon="5.62756">
        <ele>419</ele>
        <time>2023-02-16T11:47:59Z</time>
      </trkpt>
      <trkpt lat="45.44371" lon="5.62762">
        <ele>418</ele>
        <time>2023-02-16T11:48:00Z</time>
      </trkpt>
      <trkpt lat="45.44372" lon="5.62768">
        <ele>418</ele>
        <time>2023-02-16T11:48:01Z</time>
      </trkpt>
      <trkpt lat="45.44374" lon="5.62774">
        <ele>417</ele>
        <time>2023-02-16T11:48:02Z</time>
      </trkpt>
      <trkpt lat="45.44376" lon="5.62778">
        <ele>417</ele>
        <time>2023-02-16T11:48:03Z</time>
      </trkpt>
      <trkpt lat="45.44379" lon="5.62783">
        <ele>417</ele>
        <time>2023-02-16T11:48:04Z</time>
      </trkpt>
      <trkpt lat="45.44382" lon="5.62786">
        <ele>417</ele>
        <time>2023-02-16T11:48:05Z</time>
      </trkpt>
      <trkpt lat="45.44385" lon="5.62791">
        <ele>417</ele>
        <time>2023-02-16T11:48:06Z</time>
      </trkpt>
      <trkpt lat="45.44388" lon="5.62795">
        <ele>417</ele>
        <time>2023-02-16T11:48:07Z</time>
      </trkpt>
      <trkpt lat="45.44391" lon="5.62797">
        <ele>417</ele>
        <time>2023-02-16T11:48:08Z</time>
      </trkpt>
      <trkpt lat="45.44394" lon="5.62798">
        <ele>417</ele>
        <time>2023-02-16T11:48:09Z</time>
      </trkpt>
      <trkpt lat="45.44397" lon="5.62798">
        <ele>417</ele>
        <time>2023-02-16T11:48:10Z</time>
      </trkpt>
      <trkpt lat="45.44401" lon="5.62799">
        <ele>417</ele>
        <time>2023-02-16T11:48:11Z</time>
      </trkpt>
      <trkpt lat="45.44409" lon="5.62801">
        <ele>417</ele>
        <time>2023-02-16T11:48:13Z</time>
      </trkpt>
      <trkpt lat="45.44413" lon="5.62802">
        <ele>417</ele>
        <time>2023-02-16T11:48:14Z</time>
      </trkpt>
      <trkpt lat="45.44417" lon="5.62802">
        <ele>417</ele>
        <time>2023-02-16T11:48:15Z</time>
      </trkpt>
      <trkpt lat="45.44422" lon="5.62802">
        <ele>417</ele>
        <time>2023-02-16T11:48:16Z</time>
      </trkpt>
      <trkpt lat="45.44426" lon="5.62801">
        <ele>417</ele>
        <time>2023-02-16T11:48:17Z</time>
      </trkpt>
      <trkpt lat="45.44429" lon="5.62799">
        <ele>417</ele>
        <time>2023-02-16T11:48:18Z</time>
      </trkpt>
      <trkpt lat="45.44432" lon="5.62798">
        <ele>417</ele>
        <time>2023-02-16T11:48:19Z</time>
      </trkpt>
      <trkpt lat="45.44435" lon="5.62798">
        <ele>418</ele>
        <time>2023-02-16T11:48:20Z</time>
      </trkpt>
      <trkpt lat="45.44438" lon="5.62799">
        <ele>418</ele>
        <time>2023-02-16T11:48:21Z</time>
      </trkpt>
      <trkpt lat="45.44447" lon="5.62794">
        <ele>418</ele>
        <time>2023-02-16T11:48:24Z</time>
      </trkpt>
      <trkpt lat="45.4445" lon="5.62793">
        <ele>418</ele>
        <time>2023-02-16T11:48:25Z</time>
      </trkpt>
      <trkpt lat="45.44453" lon="5.62791">
        <ele>418</ele>
        <time>2023-02-16T11:48:26Z</time>
      </trkpt>
      <trkpt lat="45.44462" lon="5.6279">
        <ele>418</ele>
        <time>2023-02-16T11:48:29Z</time>
      </trkpt>
      <trkpt lat="45.44469" lon="5.62799">
        <ele>418</ele>
        <time>2023-02-16T11:48:32Z</time>
      </trkpt>
      <trkpt lat="45.4447" lon="5.62804">
        <ele>418</ele>
        <time>2023-02-16T11:48:33Z</time>
      </trkpt>
      <trkpt lat="45.44472" lon="5.6281">
        <ele>418</ele>
        <time>2023-02-16T11:48:34Z</time>
      </trkpt>
      <trkpt lat="45.44473" lon="5.62815">
        <ele>418</ele>
        <time>2023-02-16T11:48:35Z</time>
      </trkpt>
      <trkpt lat="45.44474" lon="5.6282">
        <ele>418</ele>
        <time>2023-02-16T11:48:36Z</time>
      </trkpt>
      <trkpt lat="45.44475" lon="5.62826">
        <ele>418</ele>
        <time>2023-02-16T11:48:37Z</time>
      </trkpt>
      <trkpt lat="45.44477" lon="5.62832">
        <ele>418</ele>
        <time>2023-02-16T11:48:38Z</time>
      </trkpt>
      <trkpt lat="45.44478" lon="5.62838">
        <ele>418</ele>
        <time>2023-02-16T11:48:39Z</time>
      </trkpt>
      <trkpt lat="45.4448" lon="5.62843">
        <ele>417</ele>
        <time>2023-02-16T11:48:40Z</time>
      </trkpt>
      <trkpt lat="45.44481" lon="5.62849">
        <ele>417</ele>
        <time>2023-02-16T11:48:41Z</time>
      </trkpt>
      <trkpt lat="45.44482" lon="5.62854">
        <ele>417</ele>
        <time>2023-02-16T11:48:42Z</time>
      </trkpt>
      <trkpt lat="45.44483" lon="5.6286">
        <ele>417</ele>
        <time>2023-02-16T11:48:43Z</time>
      </trkpt>
      <trkpt lat="45.44484" lon="5.62865">
        <ele>417</ele>
        <time>2023-02-16T11:48:44Z</time>
      </trkpt>
      <trkpt lat="45.44485" lon="5.62871">
        <ele>417</ele>
        <time>2023-02-16T11:48:45Z</time>
      </trkpt>
      <trkpt lat="45.44485" lon="5.62877">
        <ele>417</ele>
        <time>2023-02-16T11:48:46Z</time>
      </trkpt>
      <trkpt lat="45.44486" lon="5.62882">
        <ele>417</ele>
        <time>2023-02-16T11:48:47Z</time>
      </trkpt>
      <trkpt lat="45.44487" lon="5.62888">
        <ele>417</ele>
        <time>2023-02-16T11:48:48Z</time>
      </trkpt>
      <trkpt lat="45.44488" lon="5.62893">
        <ele>417</ele>
        <time>2023-02-16T11:48:49Z</time>
      </trkpt>
      <trkpt lat="45.44489" lon="5.62899">
        <ele>417</ele>
        <time>2023-02-16T11:48:50Z</time>
      </trkpt>
      <trkpt lat="45.4449" lon="5.62905">
        <ele>417</ele>
        <time>2023-02-16T11:48:51Z</time>
      </trkpt>
      <trkpt lat="45.4449" lon="5.62911">
        <ele>417</ele>
        <time>2023-02-16T11:48:52Z</time>
      </trkpt>
      <trkpt lat="45.44491" lon="5.62916">
        <ele>417</ele>
        <time>2023-02-16T11:48:53Z</time>
      </trkpt>
      <trkpt lat="45.44491" lon="5.62922">
        <ele>417</ele>
        <time>2023-02-16T11:48:54Z</time>
      </trkpt>
      <trkpt lat="45.44492" lon="5.62927">
        <ele>417</ele>
        <time>2023-02-16T11:48:55Z</time>
      </trkpt>
      <trkpt lat="45.44493" lon="5.62933">
        <ele>417</ele>
        <time>2023-02-16T11:48:56Z</time>
      </trkpt>
      <trkpt lat="45.44493" lon="5.62938">
        <ele>417</ele>
        <time>2023-02-16T11:48:57Z</time>
      </trkpt>
      <trkpt lat="45.44493" lon="5.62944">
        <ele>417</ele>
        <time>2023-02-16T11:48:58Z</time>
      </trkpt>
      <trkpt lat="45.44494" lon="5.62949">
        <ele>417</ele>
        <time>2023-02-16T11:48:59Z</time>
      </trkpt>
      <trkpt lat="45.44495" lon="5.62955">
        <ele>417</ele>
        <time>2023-02-16T11:49:00Z</time>
      </trkpt>
      <trkpt lat="45.44495" lon="5.6296">
        <ele>417</ele>
        <time>2023-02-16T11:49:01Z</time>
      </trkpt>
      <trkpt lat="45.44496" lon="5.62966">
        <ele>417</ele>
        <time>2023-02-16T11:49:02Z</time>
      </trkpt>
      <trkpt lat="45.44496" lon="5.62972">
        <ele>417</ele>
        <time>2023-02-16T11:49:03Z</time>
      </trkpt>
      <trkpt lat="45.44497" lon="5.62978">
        <ele>417</ele>
        <time>2023-02-16T11:49:04Z</time>
      </trkpt>
      <trkpt lat="45.44497" lon="5.62983">
        <ele>417</ele>
        <time>2023-02-16T11:49:05Z</time>
      </trkpt>
      <trkpt lat="45.44498" lon="5.62989">
        <ele>417</ele>
        <time>2023-02-16T11:49:06Z</time>
      </trkpt>
      <trkpt lat="45.44498" lon="5.62995">
        <ele>416</ele>
        <time>2023-02-16T11:49:07Z</time>
      </trkpt>
      <trkpt lat="45.44498" lon="5.63001">
        <ele>417</ele>
        <time>2023-02-16T11:49:08Z</time>
      </trkpt>
      <trkpt lat="45.44499" lon="5.63006">
        <ele>417</ele>
        <time>2023-02-16T11:49:09Z</time>
      </trkpt>
      <trkpt lat="45.44499" lon="5.63012">
        <ele>417</ele>
        <time>2023-02-16T11:49:10Z</time>
      </trkpt>
      <trkpt lat="45.445" lon="5.63018">
        <ele>417</ele>
        <time>2023-02-16T11:49:11Z</time>
      </trkpt>
      <trkpt lat="45.44501" lon="5.63023">
        <ele>417</ele>
        <time>2023-02-16T11:49:12Z</time>
      </trkpt>
      <trkpt lat="45.44501" lon="5.63029">
        <ele>417</ele>
        <time>2023-02-16T11:49:13Z</time>
      </trkpt>
      <trkpt lat="45.44502" lon="5.63035">
        <ele>416</ele>
        <time>2023-02-16T11:49:14Z</time>
      </trkpt>
      <trkpt lat="45.44502" lon="5.63041">
        <ele>416</ele>
        <time>2023-02-16T11:49:15Z</time>
      </trkpt>
      <trkpt lat="45.44504" lon="5.63046">
        <ele>416</ele>
        <time>2023-02-16T11:49:16Z</time>
      </trkpt>
      <trkpt lat="45.44504" lon="5.63053">
        <ele>415</ele>
        <time>2023-02-16T11:49:17Z</time>
      </trkpt>
      <trkpt lat="45.44505" lon="5.63059">
        <ele>415</ele>
        <time>2023-02-16T11:49:18Z</time>
      </trkpt>
      <trkpt lat="45.44506" lon="5.63065">
        <ele>415</ele>
        <time>2023-02-16T11:49:19Z</time>
      </trkpt>
      <trkpt lat="45.44507" lon="5.63071">
        <ele>415</ele>
        <time>2023-02-16T11:49:20Z</time>
      </trkpt>
      <trkpt lat="45.44508" lon="5.63076">
        <ele>415</ele>
        <time>2023-02-16T11:49:21Z</time>
      </trkpt>
      <trkpt lat="45.44509" lon="5.63082">
        <ele>415</ele>
        <time>2023-02-16T11:49:22Z</time>
      </trkpt>
      <trkpt lat="45.44511" lon="5.63087">
        <ele>415</ele>
        <time>2023-02-16T11:49:23Z</time>
      </trkpt>
      <trkpt lat="45.44513" lon="5.63092">
        <ele>415</ele>
        <time>2023-02-16T11:49:24Z</time>
      </trkpt>
      <trkpt lat="45.44515" lon="5.63098">
        <ele>415</ele>
        <time>2023-02-16T11:49:25Z</time>
      </trkpt>
      <trkpt lat="45.44516" lon="5.63103">
        <ele>415</ele>
        <time>2023-02-16T11:49:26Z</time>
      </trkpt>
      <trkpt lat="45.44518" lon="5.63109">
        <ele>415</ele>
        <time>2023-02-16T11:49:27Z</time>
      </trkpt>
      <trkpt lat="45.44521" lon="5.63114">
        <ele>415</ele>
        <time>2023-02-16T11:49:28Z</time>
      </trkpt>
      <trkpt lat="45.44523" lon="5.63119">
        <ele>415</ele>
        <time>2023-02-16T11:49:29Z</time>
      </trkpt>
      <trkpt lat="45.44526" lon="5.63124">
        <ele>415</ele>
        <time>2023-02-16T11:49:30Z</time>
      </trkpt>
      <trkpt lat="45.44528" lon="5.63129">
        <ele>415</ele>
        <time>2023-02-16T11:49:31Z</time>
      </trkpt>
      <trkpt lat="45.44531" lon="5.63134">
        <ele>415</ele>
        <time>2023-02-16T11:49:32Z</time>
      </trkpt>
      <trkpt lat="45.44535" lon="5.63138">
        <ele>415</ele>
        <time>2023-02-16T11:49:33Z</time>
      </trkpt>
      <trkpt lat="45.44539" lon="5.63141">
        <ele>414</ele>
        <time>2023-02-16T11:49:34Z</time>
      </trkpt>
      <trkpt lat="45.44542" lon="5.63145">
        <ele>414</ele>
        <time>2023-02-16T11:49:35Z</time>
      </trkpt>
      <trkpt lat="45.44545" lon="5.63148">
        <ele>414</ele>
        <time>2023-02-16T11:49:36Z</time>
      </trkpt>
      <trkpt lat="45.44549" lon="5.63151">
        <ele>414</ele>
        <time>2023-02-16T11:49:37Z</time>
      </trkpt>
      <trkpt lat="45.44552" lon="5.63155">
        <ele>414</ele>
        <time>2023-02-16T11:49:38Z</time>
      </trkpt>
      <trkpt lat="45.44555" lon="5.63159">
        <ele>414</ele>
        <time>2023-02-16T11:49:39Z</time>
      </trkpt>
      <trkpt lat="45.44559" lon="5.63162">
        <ele>414</ele>
        <time>2023-02-16T11:49:40Z</time>
      </trkpt>
      <trkpt lat="45.44562" lon="5.63166">
        <ele>413</ele>
        <time>2023-02-16T11:49:41Z</time>
      </trkpt>
      <trkpt lat="45.44564" lon="5.6317">
        <ele>413</ele>
        <time>2023-02-16T11:49:42Z</time>
      </trkpt>
      <trkpt lat="45.44567" lon="5.63174">
        <ele>413</ele>
        <time>2023-02-16T11:49:43Z</time>
      </trkpt>
      <trkpt lat="45.4457" lon="5.63178">
        <ele>413</ele>
        <time>2023-02-16T11:49:44Z</time>
      </trkpt>
      <trkpt lat="45.44573" lon="5.63182">
        <ele>413</ele>
        <time>2023-02-16T11:49:45Z</time>
      </trkpt>
      <trkpt lat="45.44575" lon="5.63186">
        <ele>413</ele>
        <time>2023-02-16T11:49:46Z</time>
      </trkpt>
      <trkpt lat="45.44578" lon="5.6319">
        <ele>413</ele>
        <time>2023-02-16T11:49:47Z</time>
      </trkpt>
      <trkpt lat="45.44581" lon="5.63195">
        <ele>413</ele>
        <time>2023-02-16T11:49:48Z</time>
      </trkpt>
      <trkpt lat="45.44584" lon="5.63199">
        <ele>413</ele>
        <time>2023-02-16T11:49:49Z</time>
      </trkpt>
      <trkpt lat="45.44587" lon="5.63203">
        <ele>412</ele>
        <time>2023-02-16T11:49:50Z</time>
      </trkpt>
      <trkpt lat="45.4459" lon="5.63207">
        <ele>412</ele>
        <time>2023-02-16T11:49:51Z</time>
      </trkpt>
      <trkpt lat="45.44592" lon="5.63211">
        <ele>412</ele>
        <time>2023-02-16T11:49:52Z</time>
      </trkpt>
      <trkpt lat="45.44595" lon="5.63215">
        <ele>412</ele>
        <time>2023-02-16T11:49:53Z</time>
      </trkpt>
      <trkpt lat="45.44598" lon="5.63219">
        <ele>412</ele>
        <time>2023-02-16T11:49:54Z</time>
      </trkpt>
      <trkpt lat="45.44601" lon="5.63223">
        <ele>412</ele>
        <time>2023-02-16T11:49:55Z</time>
      </trkpt>
      <trkpt lat="45.44603" lon="5.63227">
        <ele>412</ele>
        <time>2023-02-16T11:49:56Z</time>
      </trkpt>
      <trkpt lat="45.44606" lon="5.63231">
        <ele>412</ele>
        <time>2023-02-16T11:49:57Z</time>
      </trkpt>
      <trkpt lat="45.44609" lon="5.63235">
        <ele>412</ele>
        <time>2023-02-16T11:49:58Z</time>
      </trkpt>
      <trkpt lat="45.44612" lon="5.63239">
        <ele>412</ele>
        <time>2023-02-16T11:49:59Z</time>
      </trkpt>
      <trkpt lat="45.44615" lon="5.63244">
        <ele>412</ele>
        <time>2023-02-16T11:50:00Z</time>
      </trkpt>
      <trkpt lat="45.44618" lon="5.63248">
        <ele>412</ele>
        <time>2023-02-16T11:50:01Z</time>
      </trkpt>
      <trkpt lat="45.44621" lon="5.63252">
        <ele>411</ele>
        <time>2023-02-16T11:50:02Z</time>
      </trkpt>
      <trkpt lat="45.44624" lon="5.63256">
        <ele>411</ele>
        <time>2023-02-16T11:50:03Z</time>
      </trkpt>
      <trkpt lat="45.44627" lon="5.6326">
        <ele>411</ele>
        <time>2023-02-16T11:50:04Z</time>
      </trkpt>
      <trkpt lat="45.4463" lon="5.63264">
        <ele>411</ele>
        <time>2023-02-16T11:50:05Z</time>
      </trkpt>
      <trkpt lat="45.44633" lon="5.63268">
        <ele>411</ele>
        <time>2023-02-16T11:50:06Z</time>
      </trkpt>
      <trkpt lat="45.44635" lon="5.63273">
        <ele>411</ele>
        <time>2023-02-16T11:50:07Z</time>
      </trkpt>
      <trkpt lat="45.44637" lon="5.63278">
        <ele>411</ele>
        <time>2023-02-16T11:50:08Z</time>
      </trkpt>
      <trkpt lat="45.44639" lon="5.63283">
        <ele>411</ele>
        <time>2023-02-16T11:50:09Z</time>
      </trkpt>
      <trkpt lat="45.44641" lon="5.63288">
        <ele>411</ele>
        <time>2023-02-16T11:50:10Z</time>
      </trkpt>
      <trkpt lat="45.44643" lon="5.63294">
        <ele>411</ele>
        <time>2023-02-16T11:50:11Z</time>
      </trkpt>
      <trkpt lat="45.44645" lon="5.63299">
        <ele>411</ele>
        <time>2023-02-16T11:50:12Z</time>
      </trkpt>
      <trkpt lat="45.44647" lon="5.63304">
        <ele>411</ele>
        <time>2023-02-16T11:50:13Z</time>
      </trkpt>
      <trkpt lat="45.44649" lon="5.63309">
        <ele>411</ele>
        <time>2023-02-16T11:50:14Z</time>
      </trkpt>
      <trkpt lat="45.44651" lon="5.63314">
        <ele>411</ele>
        <time>2023-02-16T11:50:15Z</time>
      </trkpt>
      <trkpt lat="45.44653" lon="5.63319">
        <ele>411</ele>
        <time>2023-02-16T11:50:16Z</time>
      </trkpt>
      <trkpt lat="45.44654" lon="5.63325">
        <ele>411</ele>
        <time>2023-02-16T11:50:17Z</time>
      </trkpt>
      <trkpt lat="45.44656" lon="5.6333">
        <ele>410</ele>
        <time>2023-02-16T11:50:18Z</time>
      </trkpt>
      <trkpt lat="45.44657" lon="5.63336">
        <ele>410</ele>
        <time>2023-02-16T11:50:19Z</time>
      </trkpt>
      <trkpt lat="45.44658" lon="5.63342">
        <ele>410</ele>
        <time>2023-02-16T11:50:20Z</time>
      </trkpt>
      <trkpt lat="45.44658" lon="5.63347">
        <ele>410</ele>
        <time>2023-02-16T11:50:21Z</time>
      </trkpt>
      <trkpt lat="45.44657" lon="5.63353">
        <ele>410</ele>
        <time>2023-02-16T11:50:22Z</time>
      </trkpt>
      <trkpt lat="45.44657" lon="5.63359">
        <ele>410</ele>
        <time>2023-02-16T11:50:23Z</time>
      </trkpt>
      <trkpt lat="45.44656" lon="5.63364">
        <ele>410</ele>
        <time>2023-02-16T11:50:24Z</time>
      </trkpt>
      <trkpt lat="45.44655" lon="5.6337">
        <ele>410</ele>
        <time>2023-02-16T11:50:25Z</time>
      </trkpt>
      <trkpt lat="45.44653" lon="5.63375">
        <ele>410</ele>
        <time>2023-02-16T11:50:26Z</time>
      </trkpt>
      <trkpt lat="45.44652" lon="5.63381">
        <ele>410</ele>
        <time>2023-02-16T11:50:27Z</time>
      </trkpt>
      <trkpt lat="45.44651" lon="5.63386">
        <ele>410</ele>
        <time>2023-02-16T11:50:28Z</time>
      </trkpt>
      <trkpt lat="45.44651" lon="5.63392">
        <ele>410</ele>
        <time>2023-02-16T11:50:29Z</time>
      </trkpt>
      <trkpt lat="45.44652" lon="5.63397">
        <ele>410</ele>
        <time>2023-02-16T11:50:30Z</time>
      </trkpt>
      <trkpt lat="45.44654" lon="5.63402">
        <ele>410</ele>
        <time>2023-02-16T11:50:31Z</time>
      </trkpt>
      <trkpt lat="45.44656" lon="5.63405">
        <ele>410</ele>
        <time>2023-02-16T11:50:32Z</time>
      </trkpt>
      <trkpt lat="45.4466" lon="5.63407">
        <ele>410</ele>
        <time>2023-02-16T11:50:33Z</time>
      </trkpt>
      <trkpt lat="45.44663" lon="5.63408">
        <ele>410</ele>
        <time>2023-02-16T11:50:34Z</time>
      </trkpt>
      <trkpt lat="45.44667" lon="5.63408">
        <ele>410</ele>
        <time>2023-02-16T11:50:35Z</time>
      </trkpt>
      <trkpt lat="45.44671" lon="5.63406">
        <ele>410</ele>
        <time>2023-02-16T11:50:36Z</time>
      </trkpt>
      <trkpt lat="45.44674" lon="5.63404">
        <ele>410</ele>
        <time>2023-02-16T11:50:37Z</time>
      </trkpt>
      <trkpt lat="45.44678" lon="5.63402">
        <ele>410</ele>
        <time>2023-02-16T11:50:38Z</time>
      </trkpt>
      <trkpt lat="45.44682" lon="5.63399">
        <ele>410</ele>
        <time>2023-02-16T11:50:39Z</time>
      </trkpt>
      <trkpt lat="45.44686" lon="5.63396">
        <ele>410</ele>
        <time>2023-02-16T11:50:40Z</time>
      </trkpt>
      <trkpt lat="45.4469" lon="5.63394">
        <ele>410</ele>
        <time>2023-02-16T11:50:41Z</time>
      </trkpt>
      <trkpt lat="45.44694" lon="5.63391">
        <ele>410</ele>
        <time>2023-02-16T11:50:42Z</time>
      </trkpt>
      <trkpt lat="45.44698" lon="5.63389">
        <ele>410</ele>
        <time>2023-02-16T11:50:43Z</time>
      </trkpt>
      <trkpt lat="45.44703" lon="5.63386">
        <ele>410</ele>
        <time>2023-02-16T11:50:44Z</time>
      </trkpt>
      <trkpt lat="45.44707" lon="5.63383">
        <ele>410</ele>
        <time>2023-02-16T11:50:45Z</time>
      </trkpt>
      <trkpt lat="45.44711" lon="5.63381">
        <ele>410</ele>
        <time>2023-02-16T11:50:46Z</time>
      </trkpt>
      <trkpt lat="45.44715" lon="5.63378">
        <ele>410</ele>
        <time>2023-02-16T11:50:47Z</time>
      </trkpt>
      <trkpt lat="45.44719" lon="5.63376">
        <ele>410</ele>
        <time>2023-02-16T11:50:48Z</time>
      </trkpt>
      <trkpt lat="45.44723" lon="5.63373">
        <ele>410</ele>
        <time>2023-02-16T11:50:49Z</time>
      </trkpt>
      <trkpt lat="45.44728" lon="5.6337">
        <ele>410</ele>
        <time>2023-02-16T11:50:50Z</time>
      </trkpt>
      <trkpt lat="45.44732" lon="5.63367">
        <ele>410</ele>
        <time>2023-02-16T11:50:51Z</time>
      </trkpt>
      <trkpt lat="45.44736" lon="5.63364">
        <ele>410</ele>
        <time>2023-02-16T11:50:52Z</time>
      </trkpt>
      <trkpt lat="45.44741" lon="5.63361">
        <ele>410</ele>
        <time>2023-02-16T11:50:53Z</time>
      </trkpt>
      <trkpt lat="45.44745" lon="5.63359">
        <ele>410</ele>
        <time>2023-02-16T11:50:54Z</time>
      </trkpt>
      <trkpt lat="45.4475" lon="5.63356">
        <ele>410</ele>
        <time>2023-02-16T11:50:55Z</time>
      </trkpt>
      <trkpt lat="45.44754" lon="5.63353">
        <ele>410</ele>
        <time>2023-02-16T11:50:56Z</time>
      </trkpt>
      <trkpt lat="45.44758" lon="5.6335">
        <ele>410</ele>
        <time>2023-02-16T11:50:57Z</time>
      </trkpt>
      <trkpt lat="45.44763" lon="5.63348">
        <ele>410</ele>
        <time>2023-02-16T11:50:58Z</time>
      </trkpt>
      <trkpt lat="45.44767" lon="5.63345">
        <ele>410</ele>
        <time>2023-02-16T11:50:59Z</time>
      </trkpt>
      <trkpt lat="45.44771" lon="5.63342">
        <ele>410</ele>
        <time>2023-02-16T11:51:00Z</time>
      </trkpt>
      <trkpt lat="45.44776" lon="5.63339">
        <ele>410</ele>
        <time>2023-02-16T11:51:01Z</time>
      </trkpt>
      <trkpt lat="45.4478" lon="5.63336">
        <ele>410</ele>
        <time>2023-02-16T11:51:02Z</time>
      </trkpt>
      <trkpt lat="45.44784" lon="5.63334">
        <ele>410</ele>
        <time>2023-02-16T11:51:03Z</time>
      </trkpt>
      <trkpt lat="45.44789" lon="5.63331">
        <ele>410</ele>
        <time>2023-02-16T11:51:04Z</time>
      </trkpt>
      <trkpt lat="45.44793" lon="5.63329">
        <ele>410</ele>
        <time>2023-02-16T11:51:05Z</time>
      </trkpt>
      <trkpt lat="45.44798" lon="5.63326">
        <ele>410</ele>
        <time>2023-02-16T11:51:06Z</time>
      </trkpt>
      <trkpt lat="45.44802" lon="5.63323">
        <ele>410</ele>
        <time>2023-02-16T11:51:07Z</time>
      </trkpt>
      <trkpt lat="45.44806" lon="5.6332">
        <ele>410</ele>
        <time>2023-02-16T11:51:08Z</time>
      </trkpt>
      <trkpt lat="45.44811" lon="5.63317">
        <ele>410</ele>
        <time>2023-02-16T11:51:09Z</time>
      </trkpt>
      <trkpt lat="45.44815" lon="5.63315">
        <ele>410</ele>
        <time>2023-02-16T11:51:10Z</time>
      </trkpt>
      <trkpt lat="45.4482" lon="5.63312">
        <ele>410</ele>
        <time>2023-02-16T11:51:11Z</time>
      </trkpt>
      <trkpt lat="45.44824" lon="5.63309">
        <ele>410</ele>
        <time>2023-02-16T11:51:12Z</time>
      </trkpt>
      <trkpt lat="45.44828" lon="5.63306">
        <ele>410</ele>
        <time>2023-02-16T11:51:13Z</time>
      </trkpt>
      <trkpt lat="45.44833" lon="5.63303">
        <ele>410</ele>
        <time>2023-02-16T11:51:14Z</time>
      </trkpt>
      <trkpt lat="45.44837" lon="5.633">
        <ele>410</ele>
        <time>2023-02-16T11:51:15Z</time>
      </trkpt>
      <trkpt lat="45.44842" lon="5.63297">
        <ele>410</ele>
        <time>2023-02-16T11:51:16Z</time>
      </trkpt>
      <trkpt lat="45.44846" lon="5.63295">
        <ele>410</ele>
        <time>2023-02-16T11:51:17Z</time>
      </trkpt>
      <trkpt lat="45.4485" lon="5.63293">
        <ele>410</ele>
        <time>2023-02-16T11:51:18Z</time>
      </trkpt>
      <trkpt lat="45.44854" lon="5.6329">
        <ele>410</ele>
        <time>2023-02-16T11:51:19Z</time>
      </trkpt>
      <trkpt lat="45.44859" lon="5.63288">
        <ele>410</ele>
        <time>2023-02-16T11:51:20Z</time>
      </trkpt>
      <trkpt lat="45.44863" lon="5.63285">
        <ele>410</ele>
        <time>2023-02-16T11:51:21Z</time>
      </trkpt>
      <trkpt lat="45.44867" lon="5.63283">
        <ele>409</ele>
        <time>2023-02-16T11:51:22Z</time>
      </trkpt>
      <trkpt lat="45.44871" lon="5.6328">
        <ele>409</ele>
        <time>2023-02-16T11:51:23Z</time>
      </trkpt>
      <trkpt lat="45.44875" lon="5.63278">
        <ele>409</ele>
        <time>2023-02-16T11:51:24Z</time>
      </trkpt>
      <trkpt lat="45.44879" lon="5.63276">
        <ele>409</ele>
        <time>2023-02-16T11:51:25Z</time>
      </trkpt>
      <trkpt lat="45.44882" lon="5.63274">
        <ele>409</ele>
        <time>2023-02-16T11:51:26Z</time>
      </trkpt>
      <trkpt lat="45.44886" lon="5.63272">
        <ele>409</ele>
        <time>2023-02-16T11:51:27Z</time>
      </trkpt>
      <trkpt lat="45.44889" lon="5.63269">
        <ele>409</ele>
        <time>2023-02-16T11:51:28Z</time>
      </trkpt>
      <trkpt lat="45.44892" lon="5.63265">
        <ele>409</ele>
        <time>2023-02-16T11:51:29Z</time>
      </trkpt>
      <trkpt lat="45.44895" lon="5.63262">
        <ele>409</ele>
        <time>2023-02-16T11:51:30Z</time>
      </trkpt>
      <trkpt lat="45.44897" lon="5.63259">
        <ele>409</ele>
        <time>2023-02-16T11:51:31Z</time>
      </trkpt>
      <trkpt lat="45.449" lon="5.63257">
        <ele>410</ele>
        <time>2023-02-16T11:51:32Z</time>
      </trkpt>
      <trkpt lat="45.44902" lon="5.63254">
        <ele>410</ele>
        <time>2023-02-16T11:51:33Z</time>
      </trkpt>
      <trkpt lat="45.44905" lon="5.63251">
        <ele>410</ele>
        <time>2023-02-16T11:51:34Z</time>
      </trkpt>
      <trkpt lat="45.44907" lon="5.63248">
        <ele>410</ele>
        <time>2023-02-16T11:51:35Z</time>
      </trkpt>
      <trkpt lat="45.4491" lon="5.63245">
        <ele>410</ele>
        <time>2023-02-16T11:51:36Z</time>
      </trkpt>
      <trkpt lat="45.44912" lon="5.63242">
        <ele>410</ele>
        <time>2023-02-16T11:51:37Z</time>
      </trkpt>
      <trkpt lat="45.44914" lon="5.6324">
        <ele>410</ele>
        <time>2023-02-16T11:51:38Z</time>
      </trkpt>
      <trkpt lat="45.44916" lon="5.63237">
        <ele>410</ele>
        <time>2023-02-16T11:51:39Z</time>
      </trkpt>
      <trkpt lat="45.44918" lon="5.63235">
        <ele>410</ele>
        <time>2023-02-16T11:51:40Z</time>
      </trkpt>
      <trkpt lat="45.4492" lon="5.63232">
        <ele>410</ele>
        <time>2023-02-16T11:51:41Z</time>
      </trkpt>
      <trkpt lat="45.44923" lon="5.6323">
        <ele>411</ele>
        <time>2023-02-16T11:51:42Z</time>
      </trkpt>
      <trkpt lat="45.44925" lon="5.63227">
        <ele>411</ele>
        <time>2023-02-16T11:51:43Z</time>
      </trkpt>
      <trkpt lat="45.44927" lon="5.63225">
        <ele>411</ele>
        <time>2023-02-16T11:51:44Z</time>
      </trkpt>
      <trkpt lat="45.4493" lon="5.63223">
        <ele>411</ele>
        <time>2023-02-16T11:51:45Z</time>
      </trkpt>
      <trkpt lat="45.44932" lon="5.63221">
        <ele>411</ele>
        <time>2023-02-16T11:51:46Z</time>
      </trkpt>
      <trkpt lat="45.44934" lon="5.6322">
        <ele>411</ele>
        <time>2023-02-16T11:51:47Z</time>
      </trkpt>
      <trkpt lat="45.44936" lon="5.63218">
        <ele>411</ele>
        <time>2023-02-16T11:51:48Z</time>
      </trkpt>
      <trkpt lat="45.44938" lon="5.63216">
        <ele>411</ele>
        <time>2023-02-16T11:51:49Z</time>
      </trkpt>
      <trkpt lat="45.4494" lon="5.63214">
        <ele>411</ele>
        <time>2023-02-16T11:51:50Z</time>
      </trkpt>
      <trkpt lat="45.44943" lon="5.63213">
        <ele>411</ele>
        <time>2023-02-16T11:51:51Z</time>
      </trkpt>
      <trkpt lat="45.44945" lon="5.63212">
        <ele>412</ele>
        <time>2023-02-16T11:51:52Z</time>
      </trkpt>
      <trkpt lat="45.44947" lon="5.63212">
        <ele>412</ele>
        <time>2023-02-16T11:51:53Z</time>
      </trkpt>
      <trkpt lat="45.44948" lon="5.63211">
        <ele>412</ele>
        <time>2023-02-16T11:51:54Z</time>
      </trkpt>
      <trkpt lat="45.44952" lon="5.63211">
        <ele>413</ele>
        <time>2023-02-16T11:51:56Z</time>
      </trkpt>
      <trkpt lat="45.44955" lon="5.63211">
        <ele>413</ele>
        <time>2023-02-16T11:51:58Z</time>
      </trkpt>
      <trkpt lat="45.44957" lon="5.63209">
        <ele>413</ele>
        <time>2023-02-16T11:51:59Z</time>
      </trkpt>
      <trkpt lat="45.44958" lon="5.63207">
        <ele>413</ele>
        <time>2023-02-16T11:52:00Z</time>
      </trkpt>
      <trkpt lat="45.4496" lon="5.63205">
        <ele>413</ele>
        <time>2023-02-16T11:52:01Z</time>
      </trkpt>
      <trkpt lat="45.44961" lon="5.63202">
        <ele>413</ele>
        <time>2023-02-16T11:52:02Z</time>
      </trkpt>
      <trkpt lat="45.44963" lon="5.63199">
        <ele>413</ele>
        <time>2023-02-16T11:52:03Z</time>
      </trkpt>
      <trkpt lat="45.44965" lon="5.63197">
        <ele>413</ele>
        <time>2023-02-16T11:52:04Z</time>
      </trkpt>
      <trkpt lat="45.44967" lon="5.63194">
        <ele>414</ele>
        <time>2023-02-16T11:52:05Z</time>
      </trkpt>
      <trkpt lat="45.44969" lon="5.63193">
        <ele>414</ele>
        <time>2023-02-16T11:52:06Z</time>
      </trkpt>
      <trkpt lat="45.44971" lon="5.63192">
        <ele>414</ele>
        <time>2023-02-16T11:52:07Z</time>
      </trkpt>
      <trkpt lat="45.44973" lon="5.6319">
        <ele>414</ele>
        <time>2023-02-16T11:52:08Z</time>
      </trkpt>
      <trkpt lat="45.44974" lon="5.63188">
        <ele>415</ele>
        <time>2023-02-16T11:52:09Z</time>
      </trkpt>
      <trkpt lat="45.44976" lon="5.63186">
        <ele>415</ele>
        <time>2023-02-16T11:52:10Z</time>
      </trkpt>
      <trkpt lat="45.44978" lon="5.63184">
        <ele>415</ele>
        <time>2023-02-16T11:52:11Z</time>
      </trkpt>
      <trkpt lat="45.4498" lon="5.63183">
        <ele>415</ele>
        <time>2023-02-16T11:52:12Z</time>
      </trkpt>
      <trkpt lat="45.44982" lon="5.63181">
        <ele>415</ele>
        <time>2023-02-16T11:52:13Z</time>
      </trkpt>
      <trkpt lat="45.44984" lon="5.6318">
        <ele>415</ele>
        <time>2023-02-16T11:52:14Z</time>
      </trkpt>
      <trkpt lat="45.44986" lon="5.63178">
        <ele>415</ele>
        <time>2023-02-16T11:52:15Z</time>
      </trkpt>
      <trkpt lat="45.44988" lon="5.63177">
        <ele>415</ele>
        <time>2023-02-16T11:52:16Z</time>
      </trkpt>
      <trkpt lat="45.44989" lon="5.63175">
        <ele>416</ele>
        <time>2023-02-16T11:52:17Z</time>
      </trkpt>
      <trkpt lat="45.44991" lon="5.63174">
        <ele>416</ele>
        <time>2023-02-16T11:52:18Z</time>
      </trkpt>
      <trkpt lat="45.44993" lon="5.63172">
        <ele>416</ele>
        <time>2023-02-16T11:52:19Z</time>
      </trkpt>
      <trkpt lat="45.44995" lon="5.63171">
        <ele>417</ele>
        <time>2023-02-16T11:52:20Z</time>
      </trkpt>
      <trkpt lat="45.44996" lon="5.63169">
        <ele>417</ele>
        <time>2023-02-16T11:52:21Z</time>
      </trkpt>
      <trkpt lat="45.44998" lon="5.63167">
        <ele>417</ele>
        <time>2023-02-16T11:52:22Z</time>
      </trkpt>
      <trkpt lat="45.44999" lon="5.63165">
        <ele>417</ele>
        <time>2023-02-16T11:52:23Z</time>
      </trkpt>
      <trkpt lat="45.45001" lon="5.63164">
        <ele>418</ele>
        <time>2023-02-16T11:52:24Z</time>
      </trkpt>
      <trkpt lat="45.45002" lon="5.63161">
        <ele>418</ele>
        <time>2023-02-16T11:52:25Z</time>
      </trkpt>
      <trkpt lat="45.45004" lon="5.63159">
        <ele>418</ele>
        <time>2023-02-16T11:52:26Z</time>
      </trkpt>
      <trkpt lat="45.45005" lon="5.63157">
        <ele>418</ele>
        <time>2023-02-16T11:52:27Z</time>
      </trkpt>
      <trkpt lat="45.45007" lon="5.63155">
        <ele>418</ele>
        <time>2023-02-16T11:52:28Z</time>
      </trkpt>
      <trkpt lat="45.45009" lon="5.63154">
        <ele>418</ele>
        <time>2023-02-16T11:52:29Z</time>
      </trkpt>
      <trkpt lat="45.45011" lon="5.63152">
        <ele>418</ele>
        <time>2023-02-16T11:52:30Z</time>
      </trkpt>
      <trkpt lat="45.45013" lon="5.6315">
        <ele>418</ele>
        <time>2023-02-16T11:52:31Z</time>
      </trkpt>
      <trkpt lat="45.45014" lon="5.63148">
        <ele>418</ele>
        <time>2023-02-16T11:52:32Z</time>
      </trkpt>
      <trkpt lat="45.45016" lon="5.63146">
        <ele>418</ele>
        <time>2023-02-16T11:52:33Z</time>
      </trkpt>
      <trkpt lat="45.45018" lon="5.63144">
        <ele>419</ele>
        <time>2023-02-16T11:52:34Z</time>
      </trkpt>
      <trkpt lat="45.45019" lon="5.63143">
        <ele>419</ele>
        <time>2023-02-16T11:52:35Z</time>
      </trkpt>
      <trkpt lat="45.45021" lon="5.63141">
        <ele>419</ele>
        <time>2023-02-16T11:52:36Z</time>
      </trkpt>
      <trkpt lat="45.45022" lon="5.63139">
        <ele>419</ele>
        <time>2023-02-16T11:52:37Z</time>
      </trkpt>
      <trkpt lat="45.45024" lon="5.63138">
        <ele>420</ele>
        <time>2023-02-16T11:52:38Z</time>
      </trkpt>
      <trkpt lat="45.45025" lon="5.63136">
        <ele>420</ele>
        <time>2023-02-16T11:52:39Z</time>
      </trkpt>
      <trkpt lat="45.45027" lon="5.63135">
        <ele>420</ele>
        <time>2023-02-16T11:52:40Z</time>
      </trkpt>
      <trkpt lat="45.45028" lon="5.63133">
        <ele>420</ele>
        <time>2023-02-16T11:52:41Z</time>
      </trkpt>
      <trkpt lat="45.4503" lon="5.63131">
        <ele>420</ele>
        <time>2023-02-16T11:52:42Z</time>
      </trkpt>
      <trkpt lat="45.45031" lon="5.63129">
        <ele>421</ele>
        <time>2023-02-16T11:52:43Z</time>
      </trkpt>
      <trkpt lat="45.45034" lon="5.63126">
        <ele>421</ele>
        <time>2023-02-16T11:52:45Z</time>
      </trkpt>
      <trkpt lat="45.45037" lon="5.63123">
        <ele>421</ele>
        <time>2023-02-16T11:52:47Z</time>
      </trkpt>
      <trkpt lat="45.45038" lon="5.63122">
        <ele>421</ele>
        <time>2023-02-16T11:52:48Z</time>
      </trkpt>
      <trkpt lat="45.4504" lon="5.6312">
        <ele>421</ele>
        <time>2023-02-16T11:52:49Z</time>
      </trkpt>
      <trkpt lat="45.45041" lon="5.63118">
        <ele>422</ele>
        <time>2023-02-16T11:52:50Z</time>
      </trkpt>
      <trkpt lat="45.45042" lon="5.63117">
        <ele>422</ele>
        <time>2023-02-16T11:52:51Z</time>
      </trkpt>
      <trkpt lat="45.45044" lon="5.63115">
        <ele>422</ele>
        <time>2023-02-16T11:52:52Z</time>
      </trkpt>
      <trkpt lat="45.45045" lon="5.63114">
        <ele>422</ele>
        <time>2023-02-16T11:52:53Z</time>
      </trkpt>
      <trkpt lat="45.45047" lon="5.63112">
        <ele>422</ele>
        <time>2023-02-16T11:52:54Z</time>
      </trkpt>
      <trkpt lat="45.45048" lon="5.6311">
        <ele>422</ele>
        <time>2023-02-16T11:52:55Z</time>
      </trkpt>
      <trkpt lat="45.4505" lon="5.63109">
        <ele>422</ele>
        <time>2023-02-16T11:52:56Z</time>
      </trkpt>
      <trkpt lat="45.45053" lon="5.63106">
        <ele>423</ele>
        <time>2023-02-16T11:52:58Z</time>
      </trkpt>
      <trkpt lat="45.45056" lon="5.63105">
        <ele>424</ele>
        <time>2023-02-16T11:53:00Z</time>
      </trkpt>
      <trkpt lat="45.45059" lon="5.63102">
        <ele>424</ele>
        <time>2023-02-16T11:53:02Z</time>
      </trkpt>
      <trkpt lat="45.45061" lon="5.63101">
        <ele>424</ele>
        <time>2023-02-16T11:53:03Z</time>
      </trkpt>
      <trkpt lat="45.45064" lon="5.63097">
        <ele>424</ele>
        <time>2023-02-16T11:53:05Z</time>
      </trkpt>
      <trkpt lat="45.45065" lon="5.63096">
        <ele>424</ele>
        <time>2023-02-16T11:53:06Z</time>
      </trkpt>
      <trkpt lat="45.45067" lon="5.63094">
        <ele>425</ele>
        <time>2023-02-16T11:53:07Z</time>
      </trkpt>
      <trkpt lat="45.45068" lon="5.63092">
        <ele>425</ele>
        <time>2023-02-16T11:53:08Z</time>
      </trkpt>
      <trkpt lat="45.45069" lon="5.6309">
        <ele>425</ele>
        <time>2023-02-16T11:53:09Z</time>
      </trkpt>
      <trkpt lat="45.45071" lon="5.63088">
        <ele>425</ele>
        <time>2023-02-16T11:53:10Z</time>
      </trkpt>
      <trkpt lat="45.45073" lon="5.63084">
        <ele>426</ele>
        <time>2023-02-16T11:53:12Z</time>
      </trkpt>
      <trkpt lat="45.45075" lon="5.6308">
        <ele>426</ele>
        <time>2023-02-16T11:53:14Z</time>
      </trkpt>
      <trkpt lat="45.45076" lon="5.63078">
        <ele>426</ele>
        <time>2023-02-16T11:53:15Z</time>
      </trkpt>
      <trkpt lat="45.45079" lon="5.63075">
        <ele>427</ele>
        <time>2023-02-16T11:53:17Z</time>
      </trkpt>
      <trkpt lat="45.45082" lon="5.63072">
        <ele>428</ele>
        <time>2023-02-16T11:53:19Z</time>
      </trkpt>
      <trkpt lat="45.45085" lon="5.63069">
        <ele>428</ele>
        <time>2023-02-16T11:53:21Z</time>
      </trkpt>
      <trkpt lat="45.45087" lon="5.63068">
        <ele>429</ele>
        <time>2023-02-16T11:53:22Z</time>
      </trkpt>
      <trkpt lat="45.45089" lon="5.63065">
        <ele>430</ele>
        <time>2023-02-16T11:53:24Z</time>
      </trkpt>
      <trkpt lat="45.45091" lon="5.6306">
        <ele>430</ele>
        <time>2023-02-16T11:53:26Z</time>
      </trkpt>
      <trkpt lat="45.45091" lon="5.63058">
        <ele>430</ele>
        <time>2023-02-16T11:53:27Z</time>
      </trkpt>
      <trkpt lat="45.45091" lon="5.63055">
        <ele>430</ele>
        <time>2023-02-16T11:53:28Z</time>
      </trkpt>
      <trkpt lat="45.45092" lon="5.63052">
        <ele>430</ele>
        <time>2023-02-16T11:53:29Z</time>
      </trkpt>
      <trkpt lat="45.45092" lon="5.63047">
        <ele>430</ele>
        <time>2023-02-16T11:53:31Z</time>
      </trkpt>
      <trkpt lat="45.45093" lon="5.63045">
        <ele>430</ele>
        <time>2023-02-16T11:53:32Z</time>
      </trkpt>
      <trkpt lat="45.45093" lon="5.63042">
        <ele>430</ele>
        <time>2023-02-16T11:53:33Z</time>
      </trkpt>
      <trkpt lat="45.45094" lon="5.6304">
        <ele>430</ele>
        <time>2023-02-16T11:53:34Z</time>
      </trkpt>
      <trkpt lat="45.45096" lon="5.63035">
        <ele>431</ele>
        <time>2023-02-16T11:53:36Z</time>
      </trkpt>
      <trkpt lat="45.45098" lon="5.63033">
        <ele>432</ele>
        <time>2023-02-16T11:53:38Z</time>
      </trkpt>
      <trkpt lat="45.45101" lon="5.63032">
        <ele>432</ele>
        <time>2023-02-16T11:53:40Z</time>
      </trkpt>
      <trkpt lat="45.45103" lon="5.63033">
        <ele>432</ele>
        <time>2023-02-16T11:53:43Z</time>
      </trkpt>
      <trkpt lat="45.45103" lon="5.63033">
        <ele>432</ele>
        <time>2023-02-16T11:53:48Z</time>
      </trkpt>
      <trkpt lat="45.45109" lon="5.63032">
        <ele>433</ele>
        <time>2023-02-16T11:55:13Z</time>
      </trkpt>
      <trkpt lat="45.45112" lon="5.63033">
        <ele>433</ele>
        <time>2023-02-16T11:55:14Z</time>
      </trkpt>
      <trkpt lat="45.45114" lon="5.63034">
        <ele>433</ele>
        <time>2023-02-16T11:55:15Z</time>
      </trkpt>
      <trkpt lat="45.45116" lon="5.63035">
        <ele>433</ele>
        <time>2023-02-16T11:55:16Z</time>
      </trkpt>
      <trkpt lat="45.45118" lon="5.63036">
        <ele>434</ele>
        <time>2023-02-16T11:55:17Z</time>
      </trkpt>
      <trkpt lat="45.45121" lon="5.63037">
        <ele>434</ele>
        <time>2023-02-16T11:55:18Z</time>
      </trkpt>
      <trkpt lat="45.45123" lon="5.63038">
        <ele>434</ele>
        <time>2023-02-16T11:55:19Z</time>
      </trkpt>
      <trkpt lat="45.45125" lon="5.63039">
        <ele>434</ele>
        <time>2023-02-16T11:55:20Z</time>
      </trkpt>
      <trkpt lat="45.45128" lon="5.6304">
        <ele>434</ele>
        <time>2023-02-16T11:55:21Z</time>
      </trkpt>
      <trkpt lat="45.4513" lon="5.63041">
        <ele>434</ele>
        <time>2023-02-16T11:55:22Z</time>
      </trkpt>
      <trkpt lat="45.45133" lon="5.63042">
        <ele>434</ele>
        <time>2023-02-16T11:55:23Z</time>
      </trkpt>
      <trkpt lat="45.45135" lon="5.63043">
        <ele>434</ele>
        <time>2023-02-16T11:55:24Z</time>
      </trkpt>
      <trkpt lat="45.45138" lon="5.63043">
        <ele>434</ele>
        <time>2023-02-16T11:55:25Z</time>
      </trkpt>
      <trkpt lat="45.4514" lon="5.63044">
        <ele>434</ele>
        <time>2023-02-16T11:55:26Z</time>
      </trkpt>
      <trkpt lat="45.45143" lon="5.63045">
        <ele>434</ele>
        <time>2023-02-16T11:55:27Z</time>
      </trkpt>
      <trkpt lat="45.45145" lon="5.63046">
        <ele>434</ele>
        <time>2023-02-16T11:55:28Z</time>
      </trkpt>
      <trkpt lat="45.45148" lon="5.63047">
        <ele>435</ele>
        <time>2023-02-16T11:55:29Z</time>
      </trkpt>
      <trkpt lat="45.4515" lon="5.63048">
        <ele>435</ele>
        <time>2023-02-16T11:55:30Z</time>
      </trkpt>
      <trkpt lat="45.45152" lon="5.63049">
        <ele>435</ele>
        <time>2023-02-16T11:55:31Z</time>
      </trkpt>
      <trkpt lat="45.45155" lon="5.6305">
        <ele>435</ele>
        <time>2023-02-16T11:55:32Z</time>
      </trkpt>
      <trkpt lat="45.45157" lon="5.63051">
        <ele>436</ele>
        <time>2023-02-16T11:55:33Z</time>
      </trkpt>
      <trkpt lat="45.45159" lon="5.63052">
        <ele>436</ele>
        <time>2023-02-16T11:55:34Z</time>
      </trkpt>
      <trkpt lat="45.45162" lon="5.63053">
        <ele>436</ele>
        <time>2023-02-16T11:55:35Z</time>
      </trkpt>
      <trkpt lat="45.45164" lon="5.63054">
        <ele>436</ele>
        <time>2023-02-16T11:55:36Z</time>
      </trkpt>
      <trkpt lat="45.45167" lon="5.63055">
        <ele>436</ele>
        <time>2023-02-16T11:55:37Z</time>
      </trkpt>
      <trkpt lat="45.45169" lon="5.63056">
        <ele>436</ele>
        <time>2023-02-16T11:55:38Z</time>
      </trkpt>
      <trkpt lat="45.45171" lon="5.63057">
        <ele>436</ele>
        <time>2023-02-16T11:55:39Z</time>
      </trkpt>
      <trkpt lat="45.45174" lon="5.63058">
        <ele>437</ele>
        <time>2023-02-16T11:55:40Z</time>
      </trkpt>
      <trkpt lat="45.45176" lon="5.6306">
        <ele>437</ele>
        <time>2023-02-16T11:55:41Z</time>
      </trkpt>
      <trkpt lat="45.45179" lon="5.63061">
        <ele>437</ele>
        <time>2023-02-16T11:55:42Z</time>
      </trkpt>
      <trkpt lat="45.45181" lon="5.63062">
        <ele>437</ele>
        <time>2023-02-16T11:55:43Z</time>
      </trkpt>
      <trkpt lat="45.45184" lon="5.63064">
        <ele>437</ele>
        <time>2023-02-16T11:55:44Z</time>
      </trkpt>
      <trkpt lat="45.45187" lon="5.63065">
        <ele>437</ele>
        <time>2023-02-16T11:55:45Z</time>
      </trkpt>
      <trkpt lat="45.45189" lon="5.63067">
        <ele>437</ele>
        <time>2023-02-16T11:55:46Z</time>
      </trkpt>
      <trkpt lat="45.45192" lon="5.63069">
        <ele>437</ele>
        <time>2023-02-16T11:55:47Z</time>
      </trkpt>
      <trkpt lat="45.45195" lon="5.6307">
        <ele>437</ele>
        <time>2023-02-16T11:55:48Z</time>
      </trkpt>
      <trkpt lat="45.45197" lon="5.63072">
        <ele>437</ele>
        <time>2023-02-16T11:55:49Z</time>
      </trkpt>
      <trkpt lat="45.452" lon="5.63073">
        <ele>437</ele>
        <time>2023-02-16T11:55:50Z</time>
      </trkpt>
      <trkpt lat="45.45203" lon="5.63075">
        <ele>437</ele>
        <time>2023-02-16T11:55:51Z</time>
      </trkpt>
      <trkpt lat="45.45205" lon="5.63077">
        <ele>437</ele>
        <time>2023-02-16T11:55:52Z</time>
      </trkpt>
      <trkpt lat="45.45208" lon="5.63079">
        <ele>437</ele>
        <time>2023-02-16T11:55:53Z</time>
      </trkpt>
      <trkpt lat="45.4521" lon="5.63081">
        <ele>437</ele>
        <time>2023-02-16T11:55:54Z</time>
      </trkpt>
      <trkpt lat="45.45213" lon="5.63083">
        <ele>437</ele>
        <time>2023-02-16T11:55:55Z</time>
      </trkpt>
      <trkpt lat="45.45216" lon="5.63086">
        <ele>437</ele>
        <time>2023-02-16T11:55:56Z</time>
      </trkpt>
      <trkpt lat="45.45218" lon="5.63088">
        <ele>437</ele>
        <time>2023-02-16T11:55:57Z</time>
      </trkpt>
      <trkpt lat="45.45221" lon="5.6309">
        <ele>437</ele>
        <time>2023-02-16T11:55:58Z</time>
      </trkpt>
      <trkpt lat="45.45223" lon="5.63093">
        <ele>437</ele>
        <time>2023-02-16T11:55:59Z</time>
      </trkpt>
      <trkpt lat="45.45226" lon="5.63095">
        <ele>437</ele>
        <time>2023-02-16T11:56:00Z</time>
      </trkpt>
      <trkpt lat="45.45228" lon="5.63097">
        <ele>437</ele>
        <time>2023-02-16T11:56:01Z</time>
      </trkpt>
      <trkpt lat="45.45231" lon="5.631">
        <ele>438</ele>
        <time>2023-02-16T11:56:02Z</time>
      </trkpt>
      <trkpt lat="45.45233" lon="5.63103">
        <ele>438</ele>
        <time>2023-02-16T11:56:03Z</time>
      </trkpt>
      <trkpt lat="45.45235" lon="5.63105">
        <ele>438</ele>
        <time>2023-02-16T11:56:04Z</time>
      </trkpt>
      <trkpt lat="45.45238" lon="5.63108">
        <ele>438</ele>
        <time>2023-02-16T11:56:05Z</time>
      </trkpt>
      <trkpt lat="45.4524" lon="5.63111">
        <ele>438</ele>
        <time>2023-02-16T11:56:06Z</time>
      </trkpt>
      <trkpt lat="45.45242" lon="5.63114">
        <ele>438</ele>
        <time>2023-02-16T11:56:07Z</time>
      </trkpt>
      <trkpt lat="45.45244" lon="5.63117">
        <ele>438</ele>
        <time>2023-02-16T11:56:08Z</time>
      </trkpt>
      <trkpt lat="45.45247" lon="5.6312">
        <ele>438</ele>
        <time>2023-02-16T11:56:09Z</time>
      </trkpt>
      <trkpt lat="45.45249" lon="5.63123">
        <ele>438</ele>
        <time>2023-02-16T11:56:10Z</time>
      </trkpt>
      <trkpt lat="45.45251" lon="5.63126">
        <ele>438</ele>
        <time>2023-02-16T11:56:11Z</time>
      </trkpt>
      <trkpt lat="45.45253" lon="5.63129">
        <ele>438</ele>
        <time>2023-02-16T11:56:12Z</time>
      </trkpt>
      <trkpt lat="45.45255" lon="5.63132">
        <ele>438</ele>
        <time>2023-02-16T11:56:13Z</time>
      </trkpt>
      <trkpt lat="45.45257" lon="5.63135">
        <ele>439</ele>
        <time>2023-02-16T11:56:14Z</time>
      </trkpt>
      <trkpt lat="45.45259" lon="5.63138">
        <ele>439</ele>
        <time>2023-02-16T11:56:15Z</time>
      </trkpt>
      <trkpt lat="45.45261" lon="5.63141">
        <ele>439</ele>
        <time>2023-02-16T11:56:16Z</time>
      </trkpt>
      <trkpt lat="45.45263" lon="5.63144">
        <ele>439</ele>
        <time>2023-02-16T11:56:17Z</time>
      </trkpt>
      <trkpt lat="45.45265" lon="5.63147">
        <ele>439</ele>
        <time>2023-02-16T11:56:18Z</time>
      </trkpt>
      <trkpt lat="45.45267" lon="5.6315">
        <ele>439</ele>
        <time>2023-02-16T11:56:19Z</time>
      </trkpt>
      <trkpt lat="45.45269" lon="5.63152">
        <ele>440</ele>
        <time>2023-02-16T11:56:20Z</time>
      </trkpt>
      <trkpt lat="45.45271" lon="5.63155">
        <ele>440</ele>
        <time>2023-02-16T11:56:21Z</time>
      </trkpt>
      <trkpt lat="45.45273" lon="5.63157">
        <ele>441</ele>
        <time>2023-02-16T11:56:22Z</time>
      </trkpt>
      <trkpt lat="45.45275" lon="5.6316">
        <ele>441</ele>
        <time>2023-02-16T11:56:23Z</time>
      </trkpt>
      <trkpt lat="45.45277" lon="5.63162">
        <ele>441</ele>
        <time>2023-02-16T11:56:24Z</time>
      </trkpt>
      <trkpt lat="45.45279" lon="5.63164">
        <ele>441</ele>
        <time>2023-02-16T11:56:25Z</time>
      </trkpt>
      <trkpt lat="45.4528" lon="5.63166">
        <ele>441</ele>
        <time>2023-02-16T11:56:26Z</time>
      </trkpt>
      <trkpt lat="45.45282" lon="5.63169">
        <ele>441</ele>
        <time>2023-02-16T11:56:27Z</time>
      </trkpt>
      <trkpt lat="45.45284" lon="5.63171">
        <ele>441</ele>
        <time>2023-02-16T11:56:28Z</time>
      </trkpt>
      <trkpt lat="45.45286" lon="5.63173">
        <ele>441</ele>
        <time>2023-02-16T11:56:29Z</time>
      </trkpt>
      <trkpt lat="45.45288" lon="5.63175">
        <ele>441</ele>
        <time>2023-02-16T11:56:30Z</time>
      </trkpt>
      <trkpt lat="45.4529" lon="5.63176">
        <ele>441</ele>
        <time>2023-02-16T11:56:31Z</time>
      </trkpt>
      <trkpt lat="45.45292" lon="5.63178">
        <ele>441</ele>
        <time>2023-02-16T11:56:32Z</time>
      </trkpt>
      <trkpt lat="45.45294" lon="5.6318">
        <ele>441</ele>
        <time>2023-02-16T11:56:33Z</time>
      </trkpt>
      <trkpt lat="45.45297" lon="5.63181">
        <ele>441</ele>
        <time>2023-02-16T11:56:34Z</time>
      </trkpt>
      <trkpt lat="45.45299" lon="5.63183">
        <ele>441</ele>
        <time>2023-02-16T11:56:35Z</time>
      </trkpt>
      <trkpt lat="45.45301" lon="5.63185">
        <ele>441</ele>
        <time>2023-02-16T11:56:36Z</time>
      </trkpt>
      <trkpt lat="45.45303" lon="5.63187">
        <ele>441</ele>
        <time>2023-02-16T11:56:37Z</time>
      </trkpt>
      <trkpt lat="45.45305" lon="5.63189">
        <ele>441</ele>
        <time>2023-02-16T11:56:38Z</time>
      </trkpt>
      <trkpt lat="45.45307" lon="5.6319">
        <ele>441</ele>
        <time>2023-02-16T11:56:39Z</time>
      </trkpt>
      <trkpt lat="45.45309" lon="5.63192">
        <ele>442</ele>
        <time>2023-02-16T11:56:40Z</time>
      </trkpt>
      <trkpt lat="45.45311" lon="5.63193">
        <ele>442</ele>
        <time>2023-02-16T11:56:41Z</time>
      </trkpt>
      <trkpt lat="45.45313" lon="5.63194">
        <ele>442</ele>
        <time>2023-02-16T11:56:42Z</time>
      </trkpt>
      <trkpt lat="45.45315" lon="5.63194">
        <ele>442</ele>
        <time>2023-02-16T11:56:43Z</time>
      </trkpt>
      <trkpt lat="45.45317" lon="5.63195">
        <ele>443</ele>
        <time>2023-02-16T11:56:44Z</time>
      </trkpt>
      <trkpt lat="45.45319" lon="5.63197">
        <ele>443</ele>
        <time>2023-02-16T11:56:45Z</time>
      </trkpt>
      <trkpt lat="45.45321" lon="5.63198">
        <ele>443</ele>
        <time>2023-02-16T11:56:46Z</time>
      </trkpt>
      <trkpt lat="45.45323" lon="5.63199">
        <ele>443</ele>
        <time>2023-02-16T11:56:47Z</time>
      </trkpt>
      <trkpt lat="45.45325" lon="5.63201">
        <ele>443</ele>
        <time>2023-02-16T11:56:48Z</time>
      </trkpt>
      <trkpt lat="45.45328" lon="5.63202">
        <ele>443</ele>
        <time>2023-02-16T11:56:49Z</time>
      </trkpt>
      <trkpt lat="45.4533" lon="5.63203">
        <ele>443</ele>
        <time>2023-02-16T11:56:50Z</time>
      </trkpt>
      <trkpt lat="45.45332" lon="5.63204">
        <ele>444</ele>
        <time>2023-02-16T11:56:51Z</time>
      </trkpt>
      <trkpt lat="45.45334" lon="5.63205">
        <ele>444</ele>
        <time>2023-02-16T11:56:52Z</time>
      </trkpt>
      <trkpt lat="45.45336" lon="5.63206">
        <ele>445</ele>
        <time>2023-02-16T11:56:53Z</time>
      </trkpt>
      <trkpt lat="45.45338" lon="5.63207">
        <ele>445</ele>
        <time>2023-02-16T11:56:54Z</time>
      </trkpt>
      <trkpt lat="45.4534" lon="5.63208">
        <ele>445</ele>
        <time>2023-02-16T11:56:55Z</time>
      </trkpt>
      <trkpt lat="45.45343" lon="5.63208">
        <ele>445</ele>
        <time>2023-02-16T11:56:56Z</time>
      </trkpt>
      <trkpt lat="45.45345" lon="5.63209">
        <ele>445</ele>
        <time>2023-02-16T11:56:57Z</time>
      </trkpt>
      <trkpt lat="45.45347" lon="5.63209">
        <ele>445</ele>
        <time>2023-02-16T11:56:58Z</time>
      </trkpt>
      <trkpt lat="45.4535" lon="5.63209">
        <ele>445</ele>
        <time>2023-02-16T11:56:59Z</time>
      </trkpt>
      <trkpt lat="45.45352" lon="5.63209">
        <ele>445</ele>
        <time>2023-02-16T11:57:00Z</time>
      </trkpt>
      <trkpt lat="45.45354" lon="5.63209">
        <ele>446</ele>
        <time>2023-02-16T11:57:01Z</time>
      </trkpt>
      <trkpt lat="45.45357" lon="5.63208">
        <ele>446</ele>
        <time>2023-02-16T11:57:02Z</time>
      </trkpt>
      <trkpt lat="45.45359" lon="5.63208">
        <ele>446</ele>
        <time>2023-02-16T11:57:03Z</time>
      </trkpt>
      <trkpt lat="45.45361" lon="5.63207">
        <ele>446</ele>
        <time>2023-02-16T11:57:04Z</time>
      </trkpt>
      <trkpt lat="45.45363" lon="5.63207">
        <ele>446</ele>
        <time>2023-02-16T11:57:05Z</time>
      </trkpt>
      <trkpt lat="45.45366" lon="5.63206">
        <ele>446</ele>
        <time>2023-02-16T11:57:06Z</time>
      </trkpt>
      <trkpt lat="45.45368" lon="5.63205">
        <ele>446</ele>
        <time>2023-02-16T11:57:07Z</time>
      </trkpt>
      <trkpt lat="45.4537" lon="5.63204">
        <ele>447</ele>
        <time>2023-02-16T11:57:08Z</time>
      </trkpt>
      <trkpt lat="45.45372" lon="5.63204">
        <ele>447</ele>
        <time>2023-02-16T11:57:09Z</time>
      </trkpt>
      <trkpt lat="45.45374" lon="5.63203">
        <ele>447</ele>
        <time>2023-02-16T11:57:10Z</time>
      </trkpt>
      <trkpt lat="45.45376" lon="5.63202">
        <ele>447</ele>
        <time>2023-02-16T11:57:11Z</time>
      </trkpt>
      <trkpt lat="45.45379" lon="5.632">
        <ele>447</ele>
        <time>2023-02-16T11:57:13Z</time>
      </trkpt>
      <trkpt lat="45.45382" lon="5.632">
        <ele>448</ele>
        <time>2023-02-16T11:57:14Z</time>
      </trkpt>
      <trkpt lat="45.45384" lon="5.63199">
        <ele>448</ele>
        <time>2023-02-16T11:57:15Z</time>
      </trkpt>
      <trkpt lat="45.45386" lon="5.63198">
        <ele>448</ele>
        <time>2023-02-16T11:57:16Z</time>
      </trkpt>
      <trkpt lat="45.45389" lon="5.63197">
        <ele>448</ele>
        <time>2023-02-16T11:57:17Z</time>
      </trkpt>
      <trkpt lat="45.45391" lon="5.63197">
        <ele>448</ele>
        <time>2023-02-16T11:57:18Z</time>
      </trkpt>
      <trkpt lat="45.45393" lon="5.63196">
        <ele>448</ele>
        <time>2023-02-16T11:57:19Z</time>
      </trkpt>
      <trkpt lat="45.45396" lon="5.63194">
        <ele>448</ele>
        <time>2023-02-16T11:57:21Z</time>
      </trkpt>
      <trkpt lat="45.45398" lon="5.63192">
        <ele>448</ele>
        <time>2023-02-16T11:57:22Z</time>
      </trkpt>
      <trkpt lat="45.454" lon="5.63191">
        <ele>448</ele>
        <time>2023-02-16T11:57:23Z</time>
      </trkpt>
      <trkpt lat="45.45403" lon="5.6319">
        <ele>448</ele>
        <time>2023-02-16T11:57:24Z</time>
      </trkpt>
      <trkpt lat="45.45406" lon="5.63189">
        <ele>449</ele>
        <time>2023-02-16T11:57:25Z</time>
      </trkpt>
      <trkpt lat="45.45409" lon="5.63188">
        <ele>449</ele>
        <time>2023-02-16T11:57:26Z</time>
      </trkpt>
      <trkpt lat="45.45411" lon="5.63186">
        <ele>449</ele>
        <time>2023-02-16T11:57:27Z</time>
      </trkpt>
      <trkpt lat="45.45413" lon="5.63184">
        <ele>449</ele>
        <time>2023-02-16T11:57:28Z</time>
      </trkpt>
      <trkpt lat="45.45416" lon="5.63183">
        <ele>449</ele>
        <time>2023-02-16T11:57:29Z</time>
      </trkpt>
      <trkpt lat="45.45418" lon="5.63181">
        <ele>449</ele>
        <time>2023-02-16T11:57:30Z</time>
      </trkpt>
      <trkpt lat="45.4542" lon="5.63178">
        <ele>449</ele>
        <time>2023-02-16T11:57:31Z</time>
      </trkpt>
      <trkpt lat="45.45422" lon="5.63176">
        <ele>449</ele>
        <time>2023-02-16T11:57:32Z</time>
      </trkpt>
      <trkpt lat="45.45424" lon="5.63174">
        <ele>449</ele>
        <time>2023-02-16T11:57:33Z</time>
      </trkpt>
      <trkpt lat="45.45426" lon="5.63171">
        <ele>450</ele>
        <time>2023-02-16T11:57:34Z</time>
      </trkpt>
      <trkpt lat="45.45428" lon="5.63168">
        <ele>450</ele>
        <time>2023-02-16T11:57:35Z</time>
      </trkpt>
      <trkpt lat="45.4543" lon="5.63165">
        <ele>450</ele>
        <time>2023-02-16T11:57:36Z</time>
      </trkpt>
      <trkpt lat="45.45432" lon="5.63162">
        <ele>450</ele>
        <time>2023-02-16T11:57:37Z</time>
      </trkpt>
      <trkpt lat="45.45435" lon="5.6316">
        <ele>450</ele>
        <time>2023-02-16T11:57:38Z</time>
      </trkpt>
      <trkpt lat="45.45437" lon="5.63157">
        <ele>450</ele>
        <time>2023-02-16T11:57:39Z</time>
      </trkpt>
      <trkpt lat="45.45439" lon="5.63154">
        <ele>450</ele>
        <time>2023-02-16T11:57:40Z</time>
      </trkpt>
      <trkpt lat="45.45441" lon="5.63151">
        <ele>450</ele>
        <time>2023-02-16T11:57:41Z</time>
      </trkpt>
      <trkpt lat="45.45442" lon="5.63148">
        <ele>450</ele>
        <time>2023-02-16T11:57:42Z</time>
      </trkpt>
      <trkpt lat="45.45443" lon="5.63144">
        <ele>450</ele>
        <time>2023-02-16T11:57:43Z</time>
      </trkpt>
      <trkpt lat="45.45443" lon="5.63141">
        <ele>450</ele>
        <time>2023-02-16T11:57:44Z</time>
      </trkpt>
      <trkpt lat="45.45441" lon="5.63137">
        <ele>450</ele>
        <time>2023-02-16T11:57:45Z</time>
      </trkpt>
      <trkpt lat="45.4544" lon="5.63134">
        <ele>450</ele>
        <time>2023-02-16T11:57:46Z</time>
      </trkpt>
      <trkpt lat="45.45438" lon="5.63131">
        <ele>450</ele>
        <time>2023-02-16T11:57:47Z</time>
      </trkpt>
      <trkpt lat="45.45436" lon="5.63129">
        <ele>451</ele>
        <time>2023-02-16T11:57:48Z</time>
      </trkpt>
      <trkpt lat="45.45434" lon="5.63128">
        <ele>451</ele>
        <time>2023-02-16T11:57:49Z</time>
      </trkpt>
      <trkpt lat="45.45432" lon="5.63126">
        <ele>451</ele>
        <time>2023-02-16T11:57:50Z</time>
      </trkpt>
      <trkpt lat="45.4543" lon="5.63125">
        <ele>451</ele>
        <time>2023-02-16T11:57:51Z</time>
      </trkpt>
      <trkpt lat="45.45428" lon="5.63123">
        <ele>452</ele>
        <time>2023-02-16T11:57:52Z</time>
      </trkpt>
      <trkpt lat="45.45427" lon="5.63122">
        <ele>453</ele>
        <time>2023-02-16T11:57:53Z</time>
      </trkpt>
      <trkpt lat="45.45425" lon="5.63121">
        <ele>453</ele>
        <time>2023-02-16T11:57:54Z</time>
      </trkpt>
      <trkpt lat="45.45423" lon="5.63119">
        <ele>453</ele>
        <time>2023-02-16T11:57:55Z</time>
      </trkpt>
      <trkpt lat="45.45421" lon="5.63118">
        <ele>453</ele>
        <time>2023-02-16T11:57:56Z</time>
      </trkpt>
      <trkpt lat="45.45419" lon="5.63117">
        <ele>453</ele>
        <time>2023-02-16T11:57:57Z</time>
      </trkpt>
      <trkpt lat="45.45418" lon="5.63115">
        <ele>453</ele>
        <time>2023-02-16T11:57:58Z</time>
      </trkpt>
      <trkpt lat="45.45416" lon="5.63114">
        <ele>453</ele>
        <time>2023-02-16T11:57:59Z</time>
      </trkpt>
      <trkpt lat="45.45414" lon="5.63113">
        <ele>454</ele>
        <time>2023-02-16T11:58:00Z</time>
      </trkpt>
      <trkpt lat="45.45413" lon="5.63112">
        <ele>454</ele>
        <time>2023-02-16T11:58:01Z</time>
      </trkpt>
      <trkpt lat="45.45411" lon="5.63111">
        <ele>454</ele>
        <time>2023-02-16T11:58:02Z</time>
      </trkpt>
      <trkpt lat="45.45409" lon="5.6311">
        <ele>454</ele>
        <time>2023-02-16T11:58:03Z</time>
      </trkpt>
      <trkpt lat="45.45407" lon="5.63108">
        <ele>454</ele>
        <time>2023-02-16T11:58:04Z</time>
      </trkpt>
      <trkpt lat="45.45406" lon="5.63107">
        <ele>454</ele>
        <time>2023-02-16T11:58:05Z</time>
      </trkpt>
      <trkpt lat="45.45404" lon="5.63106">
        <ele>454</ele>
        <time>2023-02-16T11:58:06Z</time>
      </trkpt>
      <trkpt lat="45.45402" lon="5.63105">
        <ele>455</ele>
        <time>2023-02-16T11:58:07Z</time>
      </trkpt>
      <trkpt lat="45.454" lon="5.63104">
        <ele>455</ele>
        <time>2023-02-16T11:58:08Z</time>
      </trkpt>
      <trkpt lat="45.45399" lon="5.63103">
        <ele>455</ele>
        <time>2023-02-16T11:58:09Z</time>
      </trkpt>
      <trkpt lat="45.45397" lon="5.63102">
        <ele>455</ele>
        <time>2023-02-16T11:58:10Z</time>
      </trkpt>
      <trkpt lat="45.45395" lon="5.631">
        <ele>455</ele>
        <time>2023-02-16T11:58:11Z</time>
      </trkpt>
      <trkpt lat="45.45393" lon="5.63099">
        <ele>455</ele>
        <time>2023-02-16T11:58:12Z</time>
      </trkpt>
      <trkpt lat="45.45392" lon="5.63098">
        <ele>455</ele>
        <time>2023-02-16T11:58:13Z</time>
      </trkpt>
      <trkpt lat="45.4539" lon="5.63098">
        <ele>456</ele>
        <time>2023-02-16T11:58:14Z</time>
      </trkpt>
      <trkpt lat="45.45388" lon="5.63097">
        <ele>456</ele>
        <time>2023-02-16T11:58:15Z</time>
      </trkpt>
      <trkpt lat="45.45386" lon="5.63096">
        <ele>456</ele>
        <time>2023-02-16T11:58:16Z</time>
      </trkpt>
      <trkpt lat="45.45384" lon="5.63096">
        <ele>456</ele>
        <time>2023-02-16T11:58:17Z</time>
      </trkpt>
      <trkpt lat="45.45383" lon="5.63095">
        <ele>456</ele>
        <time>2023-02-16T11:58:18Z</time>
      </trkpt>
      <trkpt lat="45.45381" lon="5.63094">
        <ele>456</ele>
        <time>2023-02-16T11:58:19Z</time>
      </trkpt>
      <trkpt lat="45.45377" lon="5.63092">
        <ele>456</ele>
        <time>2023-02-16T11:58:21Z</time>
      </trkpt>
      <trkpt lat="45.45374" lon="5.6309">
        <ele>456</ele>
        <time>2023-02-16T11:58:23Z</time>
      </trkpt>
      <trkpt lat="45.45371" lon="5.63089">
        <ele>458</ele>
        <time>2023-02-16T11:58:25Z</time>
      </trkpt>
      <trkpt lat="45.45368" lon="5.63087">
        <ele>458</ele>
        <time>2023-02-16T11:58:27Z</time>
      </trkpt>
      <trkpt lat="45.45365" lon="5.63085">
        <ele>458</ele>
        <time>2023-02-16T11:58:29Z</time>
      </trkpt>
      <trkpt lat="45.45362" lon="5.63083">
        <ele>458</ele>
        <time>2023-02-16T11:58:31Z</time>
      </trkpt>
      <trkpt lat="45.45359" lon="5.6308">
        <ele>459</ele>
        <time>2023-02-16T11:58:33Z</time>
      </trkpt>
      <trkpt lat="45.45357" lon="5.63077">
        <ele>459</ele>
        <time>2023-02-16T11:58:35Z</time>
      </trkpt>
      <trkpt lat="45.45354" lon="5.63074">
        <ele>459</ele>
        <time>2023-02-16T11:58:37Z</time>
      </trkpt>
      <trkpt lat="45.45352" lon="5.6307">
        <ele>460</ele>
        <time>2023-02-16T11:58:39Z</time>
      </trkpt>
      <trkpt lat="45.4535" lon="5.63067">
        <ele>460</ele>
        <time>2023-02-16T11:58:41Z</time>
      </trkpt>
      <trkpt lat="45.45348" lon="5.63063">
        <ele>461</ele>
        <time>2023-02-16T11:58:43Z</time>
      </trkpt>
      <trkpt lat="45.45346" lon="5.63059">
        <ele>461</ele>
        <time>2023-02-16T11:58:45Z</time>
      </trkpt>
      <trkpt lat="45.45344" lon="5.63055">
        <ele>461</ele>
        <time>2023-02-16T11:58:47Z</time>
      </trkpt>
      <trkpt lat="45.45342" lon="5.63052">
        <ele>462</ele>
        <time>2023-02-16T11:58:49Z</time>
      </trkpt>
      <trkpt lat="45.4534" lon="5.63048">
        <ele>462</ele>
        <time>2023-02-16T11:58:51Z</time>
      </trkpt>
      <trkpt lat="45.45338" lon="5.63044">
        <ele>462</ele>
        <time>2023-02-16T11:58:53Z</time>
      </trkpt>
      <trkpt lat="45.45336" lon="5.6304">
        <ele>462</ele>
        <time>2023-02-16T11:58:55Z</time>
      </trkpt>
      <trkpt lat="45.45334" lon="5.63037">
        <ele>462</ele>
        <time>2023-02-16T11:58:57Z</time>
      </trkpt>
      <trkpt lat="45.45332" lon="5.63033">
        <ele>462</ele>
        <time>2023-02-16T11:58:59Z</time>
      </trkpt>
      <trkpt lat="45.45329" lon="5.6303">
        <ele>462</ele>
        <time>2023-02-16T11:59:01Z</time>
      </trkpt>
      <trkpt lat="45.45327" lon="5.63026">
        <ele>464</ele>
        <time>2023-02-16T11:59:03Z</time>
      </trkpt>
      <trkpt lat="45.45324" lon="5.63023">
        <ele>464</ele>
        <time>2023-02-16T11:59:05Z</time>
      </trkpt>
      <trkpt lat="45.45321" lon="5.6302">
        <ele>464</ele>
        <time>2023-02-16T11:59:07Z</time>
      </trkpt>
      <trkpt lat="45.45318" lon="5.63017">
        <ele>465</ele>
        <time>2023-02-16T11:59:09Z</time>
      </trkpt>
      <trkpt lat="45.45315" lon="5.63015">
        <ele>465</ele>
        <time>2023-02-16T11:59:11Z</time>
      </trkpt>
      <trkpt lat="45.45312" lon="5.63012">
        <ele>465</ele>
        <time>2023-02-16T11:59:13Z</time>
      </trkpt>
      <trkpt lat="45.4531" lon="5.63011">
        <ele>465</ele>
        <time>2023-02-16T11:59:14Z</time>
      </trkpt>
      <trkpt lat="45.45309" lon="5.6301">
        <ele>465</ele>
        <time>2023-02-16T11:59:15Z</time>
      </trkpt>
      <trkpt lat="45.45307" lon="5.63008">
        <ele>465</ele>
        <time>2023-02-16T11:59:16Z</time>
      </trkpt>
      <trkpt lat="45.45306" lon="5.63007">
        <ele>466</ele>
        <time>2023-02-16T11:59:17Z</time>
      </trkpt>
      <trkpt lat="45.45304" lon="5.63005">
        <ele>466</ele>
        <time>2023-02-16T11:59:18Z</time>
      </trkpt>
      <trkpt lat="45.45303" lon="5.63003">
        <ele>466</ele>
        <time>2023-02-16T11:59:19Z</time>
      </trkpt>
      <trkpt lat="45.45302" lon="5.63001">
        <ele>466</ele>
        <time>2023-02-16T11:59:20Z</time>
      </trkpt>
      <trkpt lat="45.453" lon="5.62997">
        <ele>467</ele>
        <time>2023-02-16T11:59:22Z</time>
      </trkpt>
      <trkpt lat="45.45299" lon="5.62995">
        <ele>467</ele>
        <time>2023-02-16T11:59:23Z</time>
      </trkpt>
      <trkpt lat="45.45298" lon="5.6299">
        <ele>467</ele>
        <time>2023-02-16T11:59:25Z</time>
      </trkpt>
      <trkpt lat="45.45298" lon="5.62985">
        <ele>467</ele>
        <time>2023-02-16T11:59:27Z</time>
      </trkpt>
      <trkpt lat="45.45298" lon="5.62981">
        <ele>468</ele>
        <time>2023-02-16T11:59:29Z</time>
      </trkpt>
      <trkpt lat="45.45299" lon="5.62978">
        <ele>468</ele>
        <time>2023-02-16T11:59:30Z</time>
      </trkpt>
      <trkpt lat="45.45302" lon="5.62975">
        <ele>468</ele>
        <time>2023-02-16T11:59:32Z</time>
      </trkpt>
      <trkpt lat="45.45305" lon="5.62972">
        <ele>468</ele>
        <time>2023-02-16T11:59:34Z</time>
      </trkpt>
      <trkpt lat="45.45306" lon="5.62971">
        <ele>468</ele>
        <time>2023-02-16T11:59:35Z</time>
      </trkpt>
      <trkpt lat="45.45308" lon="5.6297">
        <ele>468</ele>
        <time>2023-02-16T11:59:36Z</time>
      </trkpt>
      <trkpt lat="45.4531" lon="5.6297">
        <ele>468</ele>
        <time>2023-02-16T11:59:37Z</time>
      </trkpt>
      <trkpt lat="45.45312" lon="5.62969">
        <ele>468</ele>
        <time>2023-02-16T11:59:38Z</time>
      </trkpt>
      <trkpt lat="45.45314" lon="5.6297">
        <ele>468</ele>
        <time>2023-02-16T11:59:39Z</time>
      </trkpt>
      <trkpt lat="45.45315" lon="5.6297">
        <ele>469</ele>
        <time>2023-02-16T11:59:40Z</time>
      </trkpt>
      <trkpt lat="45.45319" lon="5.62971">
        <ele>469</ele>
        <time>2023-02-16T11:59:42Z</time>
      </trkpt>
      <trkpt lat="45.45321" lon="5.62971">
        <ele>470</ele>
        <time>2023-02-16T11:59:43Z</time>
      </trkpt>
      <trkpt lat="45.45322" lon="5.62972">
        <ele>470</ele>
        <time>2023-02-16T11:59:44Z</time>
      </trkpt>
      <trkpt lat="45.45324" lon="5.62972">
        <ele>470</ele>
        <time>2023-02-16T11:59:45Z</time>
      </trkpt>
      <trkpt lat="45.45326" lon="5.62973">
        <ele>470</ele>
        <time>2023-02-16T11:59:46Z</time>
      </trkpt>
      <trkpt lat="45.45329" lon="5.62974">
        <ele>471</ele>
        <time>2023-02-16T11:59:48Z</time>
      </trkpt>
      <trkpt lat="45.45333" lon="5.62976">
        <ele>471</ele>
        <time>2023-02-16T11:59:50Z</time>
      </trkpt>
      <trkpt lat="45.45334" lon="5.62977">
        <ele>471</ele>
        <time>2023-02-16T11:59:51Z</time>
      </trkpt>
      <trkpt lat="45.45338" lon="5.62979">
        <ele>471</ele>
        <time>2023-02-16T11:59:53Z</time>
      </trkpt>
      <trkpt lat="45.45341" lon="5.6298">
        <ele>471</ele>
        <time>2023-02-16T11:59:55Z</time>
      </trkpt>
      <trkpt lat="45.45344" lon="5.62982">
        <ele>472</ele>
        <time>2023-02-16T11:59:57Z</time>
      </trkpt>
      <trkpt lat="45.45348" lon="5.62983">
        <ele>472</ele>
        <time>2023-02-16T11:59:59Z</time>
      </trkpt>
      <trkpt lat="45.45351" lon="5.62985">
        <ele>473</ele>
        <time>2023-02-16T12:00:01Z</time>
      </trkpt>
      <trkpt lat="45.45354" lon="5.62987">
        <ele>473</ele>
        <time>2023-02-16T12:00:03Z</time>
      </trkpt>
      <trkpt lat="45.45357" lon="5.62989">
        <ele>473</ele>
        <time>2023-02-16T12:00:05Z</time>
      </trkpt>
      <trkpt lat="45.4536" lon="5.62991">
        <ele>473</ele>
        <time>2023-02-16T12:00:07Z</time>
      </trkpt>
      <trkpt lat="45.45362" lon="5.62992">
        <ele>473</ele>
        <time>2023-02-16T12:00:08Z</time>
      </trkpt>
      <trkpt lat="45.45365" lon="5.62993">
        <ele>474</ele>
        <time>2023-02-16T12:00:10Z</time>
      </trkpt>
      <trkpt lat="45.45368" lon="5.62995">
        <ele>474</ele>
        <time>2023-02-16T12:00:12Z</time>
      </trkpt>
      <trkpt lat="45.45371" lon="5.62996">
        <ele>474</ele>
        <time>2023-02-16T12:00:14Z</time>
      </trkpt>
      <trkpt lat="45.45375" lon="5.62997">
        <ele>475</ele>
        <time>2023-02-16T12:00:16Z</time>
      </trkpt>
      <trkpt lat="45.45378" lon="5.62997">
        <ele>475</ele>
        <time>2023-02-16T12:00:18Z</time>
      </trkpt>
      <trkpt lat="45.45381" lon="5.62996">
        <ele>475</ele>
        <time>2023-02-16T12:00:20Z</time>
      </trkpt>
      <trkpt lat="45.45385" lon="5.62995">
        <ele>475</ele>
        <time>2023-02-16T12:00:22Z</time>
      </trkpt>
      <trkpt lat="45.45388" lon="5.62994">
        <ele>475</ele>
        <time>2023-02-16T12:00:24Z</time>
      </trkpt>
      <trkpt lat="45.45391" lon="5.62992">
        <ele>476</ele>
        <time>2023-02-16T12:00:26Z</time>
      </trkpt>
      <trkpt lat="45.45394" lon="5.6299">
        <ele>476</ele>
        <time>2023-02-16T12:00:28Z</time>
      </trkpt>
      <trkpt lat="45.45396" lon="5.62987">
        <ele>478</ele>
        <time>2023-02-16T12:00:30Z</time>
      </trkpt>
      <trkpt lat="45.45399" lon="5.62983">
        <ele>478</ele>
        <time>2023-02-16T12:00:32Z</time>
      </trkpt>
      <trkpt lat="45.45401" lon="5.6298">
        <ele>478</ele>
        <time>2023-02-16T12:00:34Z</time>
      </trkpt>
      <trkpt lat="45.45403" lon="5.62976">
        <ele>478</ele>
        <time>2023-02-16T12:00:36Z</time>
      </trkpt>
      <trkpt lat="45.45405" lon="5.62973">
        <ele>479</ele>
        <time>2023-02-16T12:00:38Z</time>
      </trkpt>
      <trkpt lat="45.45406" lon="5.62969">
        <ele>479</ele>
        <time>2023-02-16T12:00:40Z</time>
      </trkpt>
      <trkpt lat="45.45408" lon="5.62965">
        <ele>479</ele>
        <time>2023-02-16T12:00:42Z</time>
      </trkpt>
      <trkpt lat="45.4541" lon="5.62961">
        <ele>479</ele>
        <time>2023-02-16T12:00:44Z</time>
      </trkpt>
      <trkpt lat="45.45412" lon="5.62957">
        <ele>479</ele>
        <time>2023-02-16T12:00:46Z</time>
      </trkpt>
      <trkpt lat="45.45413" lon="5.62953">
        <ele>479</ele>
        <time>2023-02-16T12:00:48Z</time>
      </trkpt>
      <trkpt lat="45.45415" lon="5.62949">
        <ele>479</ele>
        <time>2023-02-16T12:00:50Z</time>
      </trkpt>
      <trkpt lat="45.45416" lon="5.62945">
        <ele>480</ele>
        <time>2023-02-16T12:00:52Z</time>
      </trkpt>
      <trkpt lat="45.45417" lon="5.62941">
        <ele>481</ele>
        <time>2023-02-16T12:00:54Z</time>
      </trkpt>
      <trkpt lat="45.45418" lon="5.62936">
        <ele>481</ele>
        <time>2023-02-16T12:00:56Z</time>
      </trkpt>
      <trkpt lat="45.45418" lon="5.62932">
        <ele>481</ele>
        <time>2023-02-16T12:00:58Z</time>
      </trkpt>
      <trkpt lat="45.45419" lon="5.62927">
        <ele>481</ele>
        <time>2023-02-16T12:01:00Z</time>
      </trkpt>
      <trkpt lat="45.4542" lon="5.62923">
        <ele>482</ele>
        <time>2023-02-16T12:01:02Z</time>
      </trkpt>
      <trkpt lat="45.4542" lon="5.62918">
        <ele>482</ele>
        <time>2023-02-16T12:01:04Z</time>
      </trkpt>
      <trkpt lat="45.4542" lon="5.62914">
        <ele>482</ele>
        <time>2023-02-16T12:01:06Z</time>
      </trkpt>
      <trkpt lat="45.4542" lon="5.62909">
        <ele>483</ele>
        <time>2023-02-16T12:01:08Z</time>
      </trkpt>
      <trkpt lat="45.4542" lon="5.62904">
        <ele>483</ele>
        <time>2023-02-16T12:01:10Z</time>
      </trkpt>
      <trkpt lat="45.4542" lon="5.62899">
        <ele>484</ele>
        <time>2023-02-16T12:01:12Z</time>
      </trkpt>
      <trkpt lat="45.4542" lon="5.62894">
        <ele>484</ele>
        <time>2023-02-16T12:01:14Z</time>
      </trkpt>
      <trkpt lat="45.4542" lon="5.62889">
        <ele>484</ele>
        <time>2023-02-16T12:01:16Z</time>
      </trkpt>
      <trkpt lat="45.4542" lon="5.62887">
        <ele>484</ele>
        <time>2023-02-16T12:01:17Z</time>
      </trkpt>
      <trkpt lat="45.45421" lon="5.62882">
        <ele>484</ele>
        <time>2023-02-16T12:01:19Z</time>
      </trkpt>
      <trkpt lat="45.45422" lon="5.62877">
        <ele>484</ele>
        <time>2023-02-16T12:01:21Z</time>
      </trkpt>
      <trkpt lat="45.45423" lon="5.62872">
        <ele>484</ele>
        <time>2023-02-16T12:01:23Z</time>
      </trkpt>
      <trkpt lat="45.45425" lon="5.62867">
        <ele>485</ele>
        <time>2023-02-16T12:01:25Z</time>
      </trkpt>
      <trkpt lat="45.45425" lon="5.62865">
        <ele>485</ele>
        <time>2023-02-16T12:01:26Z</time>
      </trkpt>
      <trkpt lat="45.45426" lon="5.62863">
        <ele>485</ele>
        <time>2023-02-16T12:01:27Z</time>
      </trkpt>
      <trkpt lat="45.45427" lon="5.6286">
        <ele>486</ele>
        <time>2023-02-16T12:01:28Z</time>
      </trkpt>
      <trkpt lat="45.45427" lon="5.62857">
        <ele>486</ele>
        <time>2023-02-16T12:01:29Z</time>
      </trkpt>
      <trkpt lat="45.45428" lon="5.62854">
        <ele>486</ele>
        <time>2023-02-16T12:01:30Z</time>
      </trkpt>
      <trkpt lat="45.45429" lon="5.62851">
        <ele>486</ele>
        <time>2023-02-16T12:01:31Z</time>
      </trkpt>
      <trkpt lat="45.45429" lon="5.62849">
        <ele>486</ele>
        <time>2023-02-16T12:01:32Z</time>
      </trkpt>
      <trkpt lat="45.4543" lon="5.62846">
        <ele>486</ele>
        <time>2023-02-16T12:01:33Z</time>
      </trkpt>
      <trkpt lat="45.45431" lon="5.62843">
        <ele>486</ele>
        <time>2023-02-16T12:01:34Z</time>
      </trkpt>
      <trkpt lat="45.45431" lon="5.62841">
        <ele>487</ele>
        <time>2023-02-16T12:01:35Z</time>
      </trkpt>
      <trkpt lat="45.45432" lon="5.62838">
        <ele>487</ele>
        <time>2023-02-16T12:01:36Z</time>
      </trkpt>
      <trkpt lat="45.45432" lon="5.62835">
        <ele>487</ele>
        <time>2023-02-16T12:01:37Z</time>
      </trkpt>
      <trkpt lat="45.45433" lon="5.62832">
        <ele>487</ele>
        <time>2023-02-16T12:01:38Z</time>
      </trkpt>
      <trkpt lat="45.45434" lon="5.62829">
        <ele>487</ele>
        <time>2023-02-16T12:01:39Z</time>
      </trkpt>
      <trkpt lat="45.45434" lon="5.62827">
        <ele>487</ele>
        <time>2023-02-16T12:01:40Z</time>
      </trkpt>
      <trkpt lat="45.45435" lon="5.62824">
        <ele>488</ele>
        <time>2023-02-16T12:01:41Z</time>
      </trkpt>
      <trkpt lat="45.45436" lon="5.62821">
        <ele>488</ele>
        <time>2023-02-16T12:01:42Z</time>
      </trkpt>
      <trkpt lat="45.45436" lon="5.62819">
        <ele>488</ele>
        <time>2023-02-16T12:01:43Z</time>
      </trkpt>
      <trkpt lat="45.45437" lon="5.62816">
        <ele>488</ele>
        <time>2023-02-16T12:01:44Z</time>
      </trkpt>
      <trkpt lat="45.45438" lon="5.62813">
        <ele>488</ele>
        <time>2023-02-16T12:01:45Z</time>
      </trkpt>
      <trkpt lat="45.45438" lon="5.6281">
        <ele>489</ele>
        <time>2023-02-16T12:01:46Z</time>
      </trkpt>
      <trkpt lat="45.45439" lon="5.62807">
        <ele>489</ele>
        <time>2023-02-16T12:01:47Z</time>
      </trkpt>
      <trkpt lat="45.4544" lon="5.62805">
        <ele>489</ele>
        <time>2023-02-16T12:01:48Z</time>
      </trkpt>
      <trkpt lat="45.4544" lon="5.62802">
        <ele>489</ele>
        <time>2023-02-16T12:01:49Z</time>
      </trkpt>
      <trkpt lat="45.45441" lon="5.628">
        <ele>489</ele>
        <time>2023-02-16T12:01:50Z</time>
      </trkpt>
      <trkpt lat="45.45442" lon="5.62797">
        <ele>489</ele>
        <time>2023-02-16T12:01:51Z</time>
      </trkpt>
      <trkpt lat="45.45442" lon="5.62794">
        <ele>489</ele>
        <time>2023-02-16T12:01:52Z</time>
      </trkpt>
      <trkpt lat="45.45443" lon="5.62792">
        <ele>490</ele>
        <time>2023-02-16T12:01:53Z</time>
      </trkpt>
      <trkpt lat="45.45444" lon="5.62789">
        <ele>490</ele>
        <time>2023-02-16T12:01:54Z</time>
      </trkpt>
      <trkpt lat="45.45444" lon="5.62786">
        <ele>490</ele>
        <time>2023-02-16T12:01:55Z</time>
      </trkpt>
      <trkpt lat="45.45445" lon="5.62784">
        <ele>490</ele>
        <time>2023-02-16T12:01:56Z</time>
      </trkpt>
      <trkpt lat="45.45446" lon="5.62781">
        <ele>490</ele>
        <time>2023-02-16T12:01:57Z</time>
      </trkpt>
      <trkpt lat="45.45446" lon="5.62778">
        <ele>490</ele>
        <time>2023-02-16T12:01:58Z</time>
      </trkpt>
      <trkpt lat="45.45447" lon="5.62776">
        <ele>490</ele>
        <time>2023-02-16T12:01:59Z</time>
      </trkpt>
      <trkpt lat="45.45448" lon="5.62773">
        <ele>490</ele>
        <time>2023-02-16T12:02:00Z</time>
      </trkpt>
      <trkpt lat="45.45448" lon="5.6277">
        <ele>490</ele>
        <time>2023-02-16T12:02:01Z</time>
      </trkpt>
      <trkpt lat="45.45449" lon="5.62768">
        <ele>491</ele>
        <time>2023-02-16T12:02:02Z</time>
      </trkpt>
      <trkpt lat="45.45449" lon="5.62765">
        <ele>491</ele>
        <time>2023-02-16T12:02:03Z</time>
      </trkpt>
      <trkpt lat="45.45449" lon="5.62762">
        <ele>491</ele>
        <time>2023-02-16T12:02:04Z</time>
      </trkpt>
      <trkpt lat="45.4545" lon="5.6276">
        <ele>491</ele>
        <time>2023-02-16T12:02:05Z</time>
      </trkpt>
      <trkpt lat="45.4545" lon="5.62757">
        <ele>492</ele>
        <time>2023-02-16T12:02:06Z</time>
      </trkpt>
      <trkpt lat="45.45451" lon="5.62755">
        <ele>492</ele>
        <time>2023-02-16T12:02:07Z</time>
      </trkpt>
      <trkpt lat="45.45451" lon="5.62752">
        <ele>492</ele>
        <time>2023-02-16T12:02:08Z</time>
      </trkpt>
      <trkpt lat="45.45451" lon="5.62749">
        <ele>492</ele>
        <time>2023-02-16T12:02:09Z</time>
      </trkpt>
      <trkpt lat="45.45452" lon="5.62746">
        <ele>492</ele>
        <time>2023-02-16T12:02:10Z</time>
      </trkpt>
      <trkpt lat="45.45452" lon="5.62744">
        <ele>492</ele>
        <time>2023-02-16T12:02:11Z</time>
      </trkpt>
      <trkpt lat="45.45452" lon="5.62741">
        <ele>492</ele>
        <time>2023-02-16T12:02:12Z</time>
      </trkpt>
      <trkpt lat="45.45452" lon="5.62736">
        <ele>492</ele>
        <time>2023-02-16T12:02:14Z</time>
      </trkpt>
      <trkpt lat="45.45451" lon="5.62733">
        <ele>493</ele>
        <time>2023-02-16T12:02:15Z</time>
      </trkpt>
      <trkpt lat="45.45451" lon="5.6273">
        <ele>493</ele>
        <time>2023-02-16T12:02:16Z</time>
      </trkpt>
      <trkpt lat="45.45451" lon="5.62728">
        <ele>494</ele>
        <time>2023-02-16T12:02:17Z</time>
      </trkpt>
      <trkpt lat="45.45451" lon="5.62725">
        <ele>494</ele>
        <time>2023-02-16T12:02:18Z</time>
      </trkpt>
      <trkpt lat="45.45451" lon="5.62722">
        <ele>494</ele>
        <time>2023-02-16T12:02:19Z</time>
      </trkpt>
      <trkpt lat="45.4545" lon="5.62719">
        <ele>494</ele>
        <time>2023-02-16T12:02:20Z</time>
      </trkpt>
      <trkpt lat="45.45449" lon="5.62717">
        <ele>495</ele>
        <time>2023-02-16T12:02:21Z</time>
      </trkpt>
      <trkpt lat="45.45449" lon="5.62714">
        <ele>495</ele>
        <time>2023-02-16T12:02:22Z</time>
      </trkpt>
      <trkpt lat="45.45448" lon="5.62711">
        <ele>495</ele>
        <time>2023-02-16T12:02:23Z</time>
      </trkpt>
      <trkpt lat="45.45448" lon="5.62708">
        <ele>495</ele>
        <time>2023-02-16T12:02:24Z</time>
      </trkpt>
      <trkpt lat="45.45447" lon="5.62706">
        <ele>495</ele>
        <time>2023-02-16T12:02:25Z</time>
      </trkpt>
      <trkpt lat="45.45446" lon="5.62703">
        <ele>496</ele>
        <time>2023-02-16T12:02:26Z</time>
      </trkpt>
      <trkpt lat="45.45446" lon="5.62701">
        <ele>496</ele>
        <time>2023-02-16T12:02:27Z</time>
      </trkpt>
      <trkpt lat="45.45445" lon="5.62698">
        <ele>496</ele>
        <time>2023-02-16T12:02:28Z</time>
      </trkpt>
      <trkpt lat="45.45444" lon="5.62696">
        <ele>496</ele>
        <time>2023-02-16T12:02:29Z</time>
      </trkpt>
      <trkpt lat="45.45444" lon="5.62693">
        <ele>496</ele>
        <time>2023-02-16T12:02:30Z</time>
      </trkpt>
      <trkpt lat="45.45443" lon="5.62691">
        <ele>496</ele>
        <time>2023-02-16T12:02:31Z</time>
      </trkpt>
      <trkpt lat="45.45442" lon="5.62688">
        <ele>496</ele>
        <time>2023-02-16T12:02:32Z</time>
      </trkpt>
      <trkpt lat="45.45442" lon="5.62685">
        <ele>496</ele>
        <time>2023-02-16T12:02:33Z</time>
      </trkpt>
      <trkpt lat="45.45441" lon="5.62683">
        <ele>496</ele>
        <time>2023-02-16T12:02:34Z</time>
      </trkpt>
      <trkpt lat="45.4544" lon="5.6268">
        <ele>496</ele>
        <time>2023-02-16T12:02:35Z</time>
      </trkpt>
      <trkpt lat="45.45439" lon="5.62677">
        <ele>496</ele>
        <time>2023-02-16T12:02:36Z</time>
      </trkpt>
      <trkpt lat="45.45439" lon="5.62675">
        <ele>496</ele>
        <time>2023-02-16T12:02:37Z</time>
      </trkpt>
      <trkpt lat="45.45439" lon="5.62672">
        <ele>496</ele>
        <time>2023-02-16T12:02:38Z</time>
      </trkpt>
      <trkpt lat="45.45438" lon="5.62669">
        <ele>496</ele>
        <time>2023-02-16T12:02:39Z</time>
      </trkpt>
      <trkpt lat="45.45438" lon="5.62666">
        <ele>496</ele>
        <time>2023-02-16T12:02:40Z</time>
      </trkpt>
      <trkpt lat="45.45438" lon="5.62663">
        <ele>497</ele>
        <time>2023-02-16T12:02:41Z</time>
      </trkpt>
      <trkpt lat="45.45437" lon="5.62661">
        <ele>498</ele>
        <time>2023-02-16T12:02:42Z</time>
      </trkpt>
      <trkpt lat="45.45437" lon="5.62658">
        <ele>498</ele>
        <time>2023-02-16T12:02:43Z</time>
      </trkpt>
      <trkpt lat="45.45437" lon="5.62655">
        <ele>498</ele>
        <time>2023-02-16T12:02:44Z</time>
      </trkpt>
      <trkpt lat="45.45436" lon="5.62653">
        <ele>498</ele>
        <time>2023-02-16T12:02:45Z</time>
      </trkpt>
      <trkpt lat="45.45435" lon="5.6265">
        <ele>498</ele>
        <time>2023-02-16T12:02:46Z</time>
      </trkpt>
      <trkpt lat="45.45435" lon="5.62647">
        <ele>498</ele>
        <time>2023-02-16T12:02:47Z</time>
      </trkpt>
      <trkpt lat="45.45434" lon="5.62644">
        <ele>498</ele>
        <time>2023-02-16T12:02:48Z</time>
      </trkpt>
      <trkpt lat="45.45434" lon="5.62641">
        <ele>498</ele>
        <time>2023-02-16T12:02:49Z</time>
      </trkpt>
      <trkpt lat="45.45434" lon="5.62638">
        <ele>498</ele>
        <time>2023-02-16T12:02:50Z</time>
      </trkpt>
      <trkpt lat="45.45433" lon="5.62634">
        <ele>499</ele>
        <time>2023-02-16T12:02:51Z</time>
      </trkpt>
      <trkpt lat="45.45433" lon="5.62631">
        <ele>499</ele>
        <time>2023-02-16T12:02:52Z</time>
      </trkpt>
      <trkpt lat="45.45433" lon="5.62628">
        <ele>499</ele>
        <time>2023-02-16T12:02:53Z</time>
      </trkpt>
      <trkpt lat="45.45432" lon="5.62625">
        <ele>499</ele>
        <time>2023-02-16T12:02:54Z</time>
      </trkpt>
      <trkpt lat="45.45431" lon="5.62622">
        <ele>499</ele>
        <time>2023-02-16T12:02:55Z</time>
      </trkpt>
      <trkpt lat="45.4543" lon="5.6262">
        <ele>499</ele>
        <time>2023-02-16T12:02:56Z</time>
      </trkpt>
      <trkpt lat="45.45426" lon="5.62615">
        <ele>499</ele>
        <time>2023-02-16T12:02:58Z</time>
      </trkpt>
      <trkpt lat="45.45424" lon="5.62613">
        <ele>499</ele>
        <time>2023-02-16T12:02:59Z</time>
      </trkpt>
      <trkpt lat="45.45422" lon="5.62611">
        <ele>499</ele>
        <time>2023-02-16T12:03:00Z</time>
      </trkpt>
      <trkpt lat="45.4542" lon="5.6261">
        <ele>499</ele>
        <time>2023-02-16T12:03:01Z</time>
      </trkpt>
      <trkpt lat="45.45418" lon="5.6261">
        <ele>499</ele>
        <time>2023-02-16T12:03:02Z</time>
      </trkpt>
      <trkpt lat="45.45416" lon="5.6261">
        <ele>500</ele>
        <time>2023-02-16T12:03:03Z</time>
      </trkpt>
      <trkpt lat="45.45414" lon="5.6261">
        <ele>501</ele>
        <time>2023-02-16T12:03:04Z</time>
      </trkpt>
      <trkpt lat="45.45412" lon="5.6261">
        <ele>501</ele>
        <time>2023-02-16T12:03:05Z</time>
      </trkpt>
      <trkpt lat="45.4541" lon="5.62609">
        <ele>501</ele>
        <time>2023-02-16T12:03:06Z</time>
      </trkpt>
      <trkpt lat="45.45408" lon="5.62609">
        <ele>501</ele>
        <time>2023-02-16T12:03:07Z</time>
      </trkpt>
      <trkpt lat="45.45406" lon="5.62609">
        <ele>501</ele>
        <time>2023-02-16T12:03:08Z</time>
      </trkpt>
      <trkpt lat="45.45403" lon="5.62609">
        <ele>501</ele>
        <time>2023-02-16T12:03:09Z</time>
      </trkpt>
      <trkpt lat="45.45401" lon="5.62609">
        <ele>501</ele>
        <time>2023-02-16T12:03:10Z</time>
      </trkpt>
      <trkpt lat="45.45399" lon="5.6261">
        <ele>501</ele>
        <time>2023-02-16T12:03:11Z</time>
      </trkpt>
      <trkpt lat="45.45397" lon="5.6261">
        <ele>501</ele>
        <time>2023-02-16T12:03:12Z</time>
      </trkpt>
      <trkpt lat="45.45395" lon="5.6261">
        <ele>501</ele>
        <time>2023-02-16T12:03:13Z</time>
      </trkpt>
      <trkpt lat="45.45393" lon="5.62611">
        <ele>501</ele>
        <time>2023-02-16T12:03:14Z</time>
      </trkpt>
      <trkpt lat="45.4539" lon="5.62611">
        <ele>501</ele>
        <time>2023-02-16T12:03:15Z</time>
      </trkpt>
      <trkpt lat="45.45388" lon="5.62611">
        <ele>501</ele>
        <time>2023-02-16T12:03:16Z</time>
      </trkpt>
      <trkpt lat="45.45386" lon="5.62611">
        <ele>501</ele>
        <time>2023-02-16T12:03:17Z</time>
      </trkpt>
      <trkpt lat="45.45384" lon="5.62611">
        <ele>501</ele>
        <time>2023-02-16T12:03:18Z</time>
      </trkpt>
      <trkpt lat="45.45382" lon="5.62611">
        <ele>501</ele>
        <time>2023-02-16T12:03:19Z</time>
      </trkpt>
      <trkpt lat="45.4538" lon="5.6261">
        <ele>501</ele>
        <time>2023-02-16T12:03:20Z</time>
      </trkpt>
      <trkpt lat="45.45378" lon="5.62607">
        <ele>501</ele>
        <time>2023-02-16T12:03:22Z</time>
      </trkpt>
      <trkpt lat="45.45377" lon="5.62604">
        <ele>501</ele>
        <time>2023-02-16T12:03:23Z</time>
      </trkpt>
      <trkpt lat="45.45377" lon="5.626">
        <ele>501</ele>
        <time>2023-02-16T12:03:25Z</time>
      </trkpt>
      <trkpt lat="45.45377" lon="5.62599">
        <ele>502</ele>
        <time>2023-02-16T12:03:30Z</time>
      </trkpt>
    </trkseg>
  </trk>
</gpx>